<?xml version="1.0" encoding="UTF-8" standalone="no" ?>
<gpx xmlns="http://www.topografix.com/GPX/1/1" xmlns:xsi="http://www.w3.org/2001/XMLSchema-instance" xsi:schemaLocation="http://www.topografix.com/GPX/1/1 http://www.topografix.com/GPX/1/1/gpx.xsd" version="1.1" creator="VisuGPX - https://www.visugpx.com">
  <metadata>
    <name>N-S-Pirmil Petit Port Chapelle Sucé Nord Sur Erdre Franchaud Joué Trans Mouzeil Le Boulay Voie Verte Carquefou La Beaujoire Doulon Pirmil</name>
    <desc><![CDATA[N-S-Pirmil Petit Port Chapelle Sucé Nord Sur Erdre Franchaud Joué Trans Mouzeil Le Boulay Voie Verte Carquefou La Beaujoire Doulon Pirmil]]></desc>
  </metadata>
  <trk>
    <name><![CDATA[2021-08-22 10:00 +02:00]]></name>
    <trkseg>
      <trkpt lat="47.16777" lon="-1.62655">
        <ele>69</ele>
        <time>2021-08-22T08:00:39.000Z</time>
      </trkpt>
      <trkpt lat="47.16786" lon="-1.62654">
        <ele>74</ele>
        <time>2021-08-22T08:04:28.000Z</time>
      </trkpt>
      <trkpt lat="47.16792" lon="-1.62643">
        <ele>74</ele>
        <time>2021-08-22T08:04:30.000Z</time>
      </trkpt>
      <trkpt lat="47.168" lon="-1.62631">
        <ele>74</ele>
        <time>2021-08-22T08:04:32.000Z</time>
      </trkpt>
      <trkpt lat="47.16809" lon="-1.62618">
        <ele>73</ele>
        <time>2021-08-22T08:04:34.000Z</time>
      </trkpt>
      <trkpt lat="47.16816" lon="-1.62604">
        <ele>73</ele>
        <time>2021-08-22T08:04:36.000Z</time>
      </trkpt>
      <trkpt lat="47.16825" lon="-1.62591">
        <ele>73</ele>
        <time>2021-08-22T08:04:38.000Z</time>
      </trkpt>
      <trkpt lat="47.1683" lon="-1.62576">
        <ele>72</ele>
        <time>2021-08-22T08:04:40.000Z</time>
      </trkpt>
      <trkpt lat="47.1682" lon="-1.62562">
        <ele>72</ele>
        <time>2021-08-22T08:04:42.000Z</time>
      </trkpt>
      <trkpt lat="47.1681" lon="-1.62552">
        <ele>71</ele>
        <time>2021-08-22T08:04:44.000Z</time>
      </trkpt>
      <trkpt lat="47.16799" lon="-1.62544">
        <ele>71</ele>
        <time>2021-08-22T08:04:46.000Z</time>
      </trkpt>
      <trkpt lat="47.16788" lon="-1.62538">
        <ele>71</ele>
        <time>2021-08-22T08:04:48.000Z</time>
      </trkpt>
      <trkpt lat="47.16777" lon="-1.6253">
        <ele>71</ele>
        <time>2021-08-22T08:04:50.000Z</time>
      </trkpt>
      <trkpt lat="47.16766" lon="-1.62523">
        <ele>71</ele>
        <time>2021-08-22T08:04:52.000Z</time>
      </trkpt>
      <trkpt lat="47.16755" lon="-1.62516">
        <ele>71</ele>
        <time>2021-08-22T08:04:54.000Z</time>
      </trkpt>
      <trkpt lat="47.16743" lon="-1.6251">
        <ele>71</ele>
        <time>2021-08-22T08:04:56.000Z</time>
      </trkpt>
      <trkpt lat="47.16731" lon="-1.62505">
        <ele>71</ele>
        <time>2021-08-22T08:04:58.000Z</time>
      </trkpt>
      <trkpt lat="47.1672" lon="-1.625">
        <ele>70</ele>
        <time>2021-08-22T08:05:00.000Z</time>
      </trkpt>
      <trkpt lat="47.16712" lon="-1.62493">
        <ele>70</ele>
        <time>2021-08-22T08:05:05.000Z</time>
      </trkpt>
      <trkpt lat="47.16711" lon="-1.62473">
        <ele>70</ele>
        <time>2021-08-22T08:05:08.000Z</time>
      </trkpt>
      <trkpt lat="47.16713" lon="-1.62457">
        <ele>71</ele>
        <time>2021-08-22T08:05:10.000Z</time>
      </trkpt>
      <trkpt lat="47.16715" lon="-1.6244">
        <ele>71</ele>
        <time>2021-08-22T08:05:12.000Z</time>
      </trkpt>
      <trkpt lat="47.16717" lon="-1.62421">
        <ele>70</ele>
        <time>2021-08-22T08:05:14.000Z</time>
      </trkpt>
      <trkpt lat="47.16724" lon="-1.62404">
        <ele>70</ele>
        <time>2021-08-22T08:05:16.000Z</time>
      </trkpt>
      <trkpt lat="47.1673" lon="-1.62385">
        <ele>70</ele>
        <time>2021-08-22T08:05:18.000Z</time>
      </trkpt>
      <trkpt lat="47.16738" lon="-1.62368">
        <ele>71</ele>
        <time>2021-08-22T08:05:20.000Z</time>
      </trkpt>
      <trkpt lat="47.16749" lon="-1.62355">
        <ele>71</ele>
        <time>2021-08-22T08:05:22.000Z</time>
      </trkpt>
      <trkpt lat="47.16761" lon="-1.62345">
        <ele>72</ele>
        <time>2021-08-22T08:05:24.000Z</time>
      </trkpt>
      <trkpt lat="47.16773" lon="-1.62337">
        <ele>73</ele>
        <time>2021-08-22T08:05:26.000Z</time>
      </trkpt>
      <trkpt lat="47.16786" lon="-1.62331">
        <ele>74</ele>
        <time>2021-08-22T08:05:28.000Z</time>
      </trkpt>
      <trkpt lat="47.16799" lon="-1.62324">
        <ele>74</ele>
        <time>2021-08-22T08:05:30.000Z</time>
      </trkpt>
      <trkpt lat="47.16811" lon="-1.62316">
        <ele>74</ele>
        <time>2021-08-22T08:05:32.000Z</time>
      </trkpt>
      <trkpt lat="47.16823" lon="-1.62306">
        <ele>74</ele>
        <time>2021-08-22T08:05:34.000Z</time>
      </trkpt>
      <trkpt lat="47.16835" lon="-1.62295">
        <ele>73</ele>
        <time>2021-08-22T08:05:36.000Z</time>
      </trkpt>
      <trkpt lat="47.16845" lon="-1.62282">
        <ele>73</ele>
        <time>2021-08-22T08:05:38.000Z</time>
      </trkpt>
      <trkpt lat="47.16856" lon="-1.62269">
        <ele>73</ele>
        <time>2021-08-22T08:05:40.000Z</time>
      </trkpt>
      <trkpt lat="47.16867" lon="-1.62255">
        <ele>73</ele>
        <time>2021-08-22T08:05:42.000Z</time>
      </trkpt>
      <trkpt lat="47.16878" lon="-1.62241">
        <ele>74</ele>
        <time>2021-08-22T08:05:44.000Z</time>
      </trkpt>
      <trkpt lat="47.16889" lon="-1.62227">
        <ele>74</ele>
        <time>2021-08-22T08:05:46.000Z</time>
      </trkpt>
      <trkpt lat="47.16898" lon="-1.62212">
        <ele>73</ele>
        <time>2021-08-22T08:05:48.000Z</time>
      </trkpt>
      <trkpt lat="47.16909" lon="-1.62197">
        <ele>73</ele>
        <time>2021-08-22T08:05:50.000Z</time>
      </trkpt>
      <trkpt lat="47.16918" lon="-1.62181">
        <ele>73</ele>
        <time>2021-08-22T08:05:52.000Z</time>
      </trkpt>
      <trkpt lat="47.16927" lon="-1.62164">
        <ele>73</ele>
        <time>2021-08-22T08:05:54.000Z</time>
      </trkpt>
      <trkpt lat="47.16936" lon="-1.62147">
        <ele>73</ele>
        <time>2021-08-22T08:05:56.000Z</time>
      </trkpt>
      <trkpt lat="47.16945" lon="-1.6213">
        <ele>73</ele>
        <time>2021-08-22T08:05:58.000Z</time>
      </trkpt>
      <trkpt lat="47.16954" lon="-1.62113">
        <ele>72</ele>
        <time>2021-08-22T08:06:00.000Z</time>
      </trkpt>
      <trkpt lat="47.16963" lon="-1.62095">
        <ele>72</ele>
        <time>2021-08-22T08:06:02.000Z</time>
      </trkpt>
      <trkpt lat="47.16972" lon="-1.62078">
        <ele>72</ele>
        <time>2021-08-22T08:06:04.000Z</time>
      </trkpt>
      <trkpt lat="47.16981" lon="-1.62061">
        <ele>72</ele>
        <time>2021-08-22T08:06:06.000Z</time>
      </trkpt>
      <trkpt lat="47.1699" lon="-1.62044">
        <ele>72</ele>
        <time>2021-08-22T08:06:08.000Z</time>
      </trkpt>
      <trkpt lat="47.17" lon="-1.62029">
        <ele>72</ele>
        <time>2021-08-22T08:06:10.000Z</time>
      </trkpt>
      <trkpt lat="47.1701" lon="-1.62013">
        <ele>72</ele>
        <time>2021-08-22T08:06:12.000Z</time>
      </trkpt>
      <trkpt lat="47.1702" lon="-1.61997">
        <ele>72</ele>
        <time>2021-08-22T08:06:14.000Z</time>
      </trkpt>
      <trkpt lat="47.1703" lon="-1.61983">
        <ele>72</ele>
        <time>2021-08-22T08:06:16.000Z</time>
      </trkpt>
      <trkpt lat="47.17041" lon="-1.61969">
        <ele>73</ele>
        <time>2021-08-22T08:06:18.000Z</time>
      </trkpt>
      <trkpt lat="47.17051" lon="-1.61956">
        <ele>73</ele>
        <time>2021-08-22T08:06:20.000Z</time>
      </trkpt>
      <trkpt lat="47.17061" lon="-1.61942">
        <ele>73</ele>
        <time>2021-08-22T08:06:22.000Z</time>
      </trkpt>
      <trkpt lat="47.17072" lon="-1.61929">
        <ele>73</ele>
        <time>2021-08-22T08:06:24.000Z</time>
      </trkpt>
      <trkpt lat="47.17083" lon="-1.61917">
        <ele>73</ele>
        <time>2021-08-22T08:06:26.000Z</time>
      </trkpt>
      <trkpt lat="47.17094" lon="-1.61906">
        <ele>73</ele>
        <time>2021-08-22T08:06:28.000Z</time>
      </trkpt>
      <trkpt lat="47.17106" lon="-1.61895">
        <ele>73</ele>
        <time>2021-08-22T08:06:30.000Z</time>
      </trkpt>
      <trkpt lat="47.17118" lon="-1.61883">
        <ele>73</ele>
        <time>2021-08-22T08:06:32.000Z</time>
      </trkpt>
      <trkpt lat="47.1713" lon="-1.61872">
        <ele>72</ele>
        <time>2021-08-22T08:06:34.000Z</time>
      </trkpt>
      <trkpt lat="47.17142" lon="-1.6186">
        <ele>73</ele>
        <time>2021-08-22T08:06:36.000Z</time>
      </trkpt>
      <trkpt lat="47.17154" lon="-1.61849">
        <ele>73</ele>
        <time>2021-08-22T08:06:38.000Z</time>
      </trkpt>
      <trkpt lat="47.17166" lon="-1.61838">
        <ele>73</ele>
        <time>2021-08-22T08:06:40.000Z</time>
      </trkpt>
      <trkpt lat="47.17177" lon="-1.61827">
        <ele>73</ele>
        <time>2021-08-22T08:06:42.000Z</time>
      </trkpt>
      <trkpt lat="47.17189" lon="-1.61815">
        <ele>72</ele>
        <time>2021-08-22T08:06:44.000Z</time>
      </trkpt>
      <trkpt lat="47.17201" lon="-1.61804">
        <ele>72</ele>
        <time>2021-08-22T08:06:46.000Z</time>
      </trkpt>
      <trkpt lat="47.17212" lon="-1.61792">
        <ele>71</ele>
        <time>2021-08-22T08:06:48.000Z</time>
      </trkpt>
      <trkpt lat="47.1722" lon="-1.61775">
        <ele>71</ele>
        <time>2021-08-22T08:06:50.000Z</time>
      </trkpt>
      <trkpt lat="47.17227" lon="-1.61756">
        <ele>71</ele>
        <time>2021-08-22T08:06:52.000Z</time>
      </trkpt>
      <trkpt lat="47.17237" lon="-1.61742">
        <ele>71</ele>
        <time>2021-08-22T08:06:54.000Z</time>
      </trkpt>
      <trkpt lat="47.17248" lon="-1.61726">
        <ele>71</ele>
        <time>2021-08-22T08:06:56.000Z</time>
      </trkpt>
      <trkpt lat="47.17256" lon="-1.61709">
        <ele>73</ele>
        <time>2021-08-22T08:06:58.000Z</time>
      </trkpt>
      <trkpt lat="47.17264" lon="-1.61691">
        <ele>74</ele>
        <time>2021-08-22T08:07:00.000Z</time>
      </trkpt>
      <trkpt lat="47.17272" lon="-1.61675">
        <ele>75</ele>
        <time>2021-08-22T08:07:02.000Z</time>
      </trkpt>
      <trkpt lat="47.17281" lon="-1.61659">
        <ele>76</ele>
        <time>2021-08-22T08:07:04.000Z</time>
      </trkpt>
      <trkpt lat="47.17291" lon="-1.61642">
        <ele>76</ele>
        <time>2021-08-22T08:07:06.000Z</time>
      </trkpt>
      <trkpt lat="47.17301" lon="-1.61624">
        <ele>76</ele>
        <time>2021-08-22T08:07:08.000Z</time>
      </trkpt>
      <trkpt lat="47.1731" lon="-1.61607">
        <ele>76</ele>
        <time>2021-08-22T08:07:10.000Z</time>
      </trkpt>
      <trkpt lat="47.17321" lon="-1.61592">
        <ele>76</ele>
        <time>2021-08-22T08:07:12.000Z</time>
      </trkpt>
      <trkpt lat="47.17333" lon="-1.61577">
        <ele>76</ele>
        <time>2021-08-22T08:07:14.000Z</time>
      </trkpt>
      <trkpt lat="47.17345" lon="-1.61563">
        <ele>75</ele>
        <time>2021-08-22T08:07:16.000Z</time>
      </trkpt>
      <trkpt lat="47.17356" lon="-1.6155">
        <ele>75</ele>
        <time>2021-08-22T08:07:18.000Z</time>
      </trkpt>
      <trkpt lat="47.17369" lon="-1.61538">
        <ele>75</ele>
        <time>2021-08-22T08:07:20.000Z</time>
      </trkpt>
      <trkpt lat="47.17383" lon="-1.61525">
        <ele>74</ele>
        <time>2021-08-22T08:07:22.000Z</time>
      </trkpt>
      <trkpt lat="47.17397" lon="-1.61513">
        <ele>74</ele>
        <time>2021-08-22T08:07:24.000Z</time>
      </trkpt>
      <trkpt lat="47.17412" lon="-1.61502">
        <ele>73</ele>
        <time>2021-08-22T08:07:26.000Z</time>
      </trkpt>
      <trkpt lat="47.17427" lon="-1.61492">
        <ele>72</ele>
        <time>2021-08-22T08:07:28.000Z</time>
      </trkpt>
      <trkpt lat="47.17442" lon="-1.61483">
        <ele>72</ele>
        <time>2021-08-22T08:07:30.000Z</time>
      </trkpt>
      <trkpt lat="47.17457" lon="-1.61474">
        <ele>71</ele>
        <time>2021-08-22T08:07:32.000Z</time>
      </trkpt>
      <trkpt lat="47.17473" lon="-1.61467">
        <ele>71</ele>
        <time>2021-08-22T08:07:34.000Z</time>
      </trkpt>
      <trkpt lat="47.17488" lon="-1.61461">
        <ele>71</ele>
        <time>2021-08-22T08:07:36.000Z</time>
      </trkpt>
      <trkpt lat="47.17502" lon="-1.61455">
        <ele>70</ele>
        <time>2021-08-22T08:07:38.000Z</time>
      </trkpt>
      <trkpt lat="47.1751" lon="-1.61438">
        <ele>69</ele>
        <time>2021-08-22T08:07:40.000Z</time>
      </trkpt>
      <trkpt lat="47.17514" lon="-1.61416">
        <ele>67</ele>
        <time>2021-08-22T08:07:42.000Z</time>
      </trkpt>
      <trkpt lat="47.1752" lon="-1.61392">
        <ele>66</ele>
        <time>2021-08-22T08:07:44.000Z</time>
      </trkpt>
      <trkpt lat="47.17525" lon="-1.6137">
        <ele>65</ele>
        <time>2021-08-22T08:07:46.000Z</time>
      </trkpt>
      <trkpt lat="47.17526" lon="-1.61353">
        <ele>65</ele>
        <time>2021-08-22T08:07:49.000Z</time>
      </trkpt>
      <trkpt lat="47.17521" lon="-1.61338">
        <ele>64</ele>
        <time>2021-08-22T08:07:52.000Z</time>
      </trkpt>
      <trkpt lat="47.17519" lon="-1.6132">
        <ele>64</ele>
        <time>2021-08-22T08:07:54.000Z</time>
      </trkpt>
      <trkpt lat="47.17519" lon="-1.613">
        <ele>64</ele>
        <time>2021-08-22T08:07:56.000Z</time>
      </trkpt>
      <trkpt lat="47.17512" lon="-1.61282">
        <ele>64</ele>
        <time>2021-08-22T08:07:58.000Z</time>
      </trkpt>
      <trkpt lat="47.17504" lon="-1.61264">
        <ele>64</ele>
        <time>2021-08-22T08:08:00.000Z</time>
      </trkpt>
      <trkpt lat="47.17496" lon="-1.61245">
        <ele>64</ele>
        <time>2021-08-22T08:08:02.000Z</time>
      </trkpt>
      <trkpt lat="47.17487" lon="-1.61227">
        <ele>64</ele>
        <time>2021-08-22T08:08:04.000Z</time>
      </trkpt>
      <trkpt lat="47.17479" lon="-1.61207">
        <ele>64</ele>
        <time>2021-08-22T08:08:06.000Z</time>
      </trkpt>
      <trkpt lat="47.17471" lon="-1.61187">
        <ele>63</ele>
        <time>2021-08-22T08:08:08.000Z</time>
      </trkpt>
      <trkpt lat="47.17463" lon="-1.61166">
        <ele>63</ele>
        <time>2021-08-22T08:08:10.000Z</time>
      </trkpt>
      <trkpt lat="47.17455" lon="-1.61146">
        <ele>63</ele>
        <time>2021-08-22T08:08:12.000Z</time>
      </trkpt>
      <trkpt lat="47.17446" lon="-1.61126">
        <ele>62</ele>
        <time>2021-08-22T08:08:14.000Z</time>
      </trkpt>
      <trkpt lat="47.17437" lon="-1.61105">
        <ele>61</ele>
        <time>2021-08-22T08:08:16.000Z</time>
      </trkpt>
      <trkpt lat="47.17428" lon="-1.61084">
        <ele>60</ele>
        <time>2021-08-22T08:08:18.000Z</time>
      </trkpt>
      <trkpt lat="47.17421" lon="-1.61062">
        <ele>59</ele>
        <time>2021-08-22T08:08:20.000Z</time>
      </trkpt>
      <trkpt lat="47.1742" lon="-1.6104">
        <ele>59</ele>
        <time>2021-08-22T08:08:22.000Z</time>
      </trkpt>
      <trkpt lat="47.17421" lon="-1.61022">
        <ele>59</ele>
        <time>2021-08-22T08:08:24.000Z</time>
      </trkpt>
      <trkpt lat="47.1743" lon="-1.61025">
        <ele>59</ele>
        <time>2021-08-22T08:08:27.000Z</time>
      </trkpt>
      <trkpt lat="47.17434" lon="-1.6104">
        <ele>59</ele>
        <time>2021-08-22T08:08:29.000Z</time>
      </trkpt>
      <trkpt lat="47.1744" lon="-1.61056">
        <ele>59</ele>
        <time>2021-08-22T08:08:31.000Z</time>
      </trkpt>
      <trkpt lat="47.17448" lon="-1.61072">
        <ele>59</ele>
        <time>2021-08-22T08:08:33.000Z</time>
      </trkpt>
      <trkpt lat="47.17459" lon="-1.61086">
        <ele>59</ele>
        <time>2021-08-22T08:08:35.000Z</time>
      </trkpt>
      <trkpt lat="47.17472" lon="-1.61098">
        <ele>58</ele>
        <time>2021-08-22T08:08:37.000Z</time>
      </trkpt>
      <trkpt lat="47.17487" lon="-1.61105">
        <ele>58</ele>
        <time>2021-08-22T08:08:39.000Z</time>
      </trkpt>
      <trkpt lat="47.17502" lon="-1.61103">
        <ele>57</ele>
        <time>2021-08-22T08:08:41.000Z</time>
      </trkpt>
      <trkpt lat="47.17516" lon="-1.61097">
        <ele>56</ele>
        <time>2021-08-22T08:08:43.000Z</time>
      </trkpt>
      <trkpt lat="47.1753" lon="-1.61086">
        <ele>56</ele>
        <time>2021-08-22T08:08:45.000Z</time>
      </trkpt>
      <trkpt lat="47.17544" lon="-1.61074">
        <ele>56</ele>
        <time>2021-08-22T08:08:47.000Z</time>
      </trkpt>
      <trkpt lat="47.17557" lon="-1.61062">
        <ele>56</ele>
        <time>2021-08-22T08:08:49.000Z</time>
      </trkpt>
      <trkpt lat="47.1757" lon="-1.61051">
        <ele>56</ele>
        <time>2021-08-22T08:08:51.000Z</time>
      </trkpt>
      <trkpt lat="47.17583" lon="-1.6104">
        <ele>56</ele>
        <time>2021-08-22T08:08:53.000Z</time>
      </trkpt>
      <trkpt lat="47.17596" lon="-1.61029">
        <ele>56</ele>
        <time>2021-08-22T08:08:55.000Z</time>
      </trkpt>
      <trkpt lat="47.17608" lon="-1.61019">
        <ele>56</ele>
        <time>2021-08-22T08:08:57.000Z</time>
      </trkpt>
      <trkpt lat="47.17622" lon="-1.61007">
        <ele>56</ele>
        <time>2021-08-22T08:08:59.000Z</time>
      </trkpt>
      <trkpt lat="47.17635" lon="-1.60995">
        <ele>55</ele>
        <time>2021-08-22T08:09:01.000Z</time>
      </trkpt>
      <trkpt lat="47.17648" lon="-1.60983">
        <ele>55</ele>
        <time>2021-08-22T08:09:03.000Z</time>
      </trkpt>
      <trkpt lat="47.17663" lon="-1.60974">
        <ele>55</ele>
        <time>2021-08-22T08:09:05.000Z</time>
      </trkpt>
      <trkpt lat="47.17678" lon="-1.60972">
        <ele>56</ele>
        <time>2021-08-22T08:09:07.000Z</time>
      </trkpt>
      <trkpt lat="47.17692" lon="-1.60974">
        <ele>57</ele>
        <time>2021-08-22T08:09:09.000Z</time>
      </trkpt>
      <trkpt lat="47.17705" lon="-1.60969">
        <ele>56</ele>
        <time>2021-08-22T08:09:11.000Z</time>
      </trkpt>
      <trkpt lat="47.17718" lon="-1.60961">
        <ele>56</ele>
        <time>2021-08-22T08:09:13.000Z</time>
      </trkpt>
      <trkpt lat="47.17732" lon="-1.60952">
        <ele>56</ele>
        <time>2021-08-22T08:09:15.000Z</time>
      </trkpt>
      <trkpt lat="47.17744" lon="-1.60942">
        <ele>57</ele>
        <time>2021-08-22T08:09:17.000Z</time>
      </trkpt>
      <trkpt lat="47.17757" lon="-1.60933">
        <ele>57</ele>
        <time>2021-08-22T08:09:19.000Z</time>
      </trkpt>
      <trkpt lat="47.1777" lon="-1.60923">
        <ele>56</ele>
        <time>2021-08-22T08:09:21.000Z</time>
      </trkpt>
      <trkpt lat="47.17783" lon="-1.60912">
        <ele>56</ele>
        <time>2021-08-22T08:09:23.000Z</time>
      </trkpt>
      <trkpt lat="47.17796" lon="-1.60902">
        <ele>56</ele>
        <time>2021-08-22T08:09:25.000Z</time>
      </trkpt>
      <trkpt lat="47.17808" lon="-1.60892">
        <ele>56</ele>
        <time>2021-08-22T08:09:27.000Z</time>
      </trkpt>
      <trkpt lat="47.1782" lon="-1.60878">
        <ele>57</ele>
        <time>2021-08-22T08:09:29.000Z</time>
      </trkpt>
      <trkpt lat="47.1783" lon="-1.60862">
        <ele>57</ele>
        <time>2021-08-22T08:09:31.000Z</time>
      </trkpt>
      <trkpt lat="47.17838" lon="-1.60845">
        <ele>56</ele>
        <time>2021-08-22T08:09:33.000Z</time>
      </trkpt>
      <trkpt lat="47.17845" lon="-1.60826">
        <ele>56</ele>
        <time>2021-08-22T08:09:35.000Z</time>
      </trkpt>
      <trkpt lat="47.1785" lon="-1.60805">
        <ele>56</ele>
        <time>2021-08-22T08:09:37.000Z</time>
      </trkpt>
      <trkpt lat="47.17854" lon="-1.60784">
        <ele>55</ele>
        <time>2021-08-22T08:09:39.000Z</time>
      </trkpt>
      <trkpt lat="47.17859" lon="-1.60763">
        <ele>55</ele>
        <time>2021-08-22T08:09:41.000Z</time>
      </trkpt>
      <trkpt lat="47.17863" lon="-1.60741">
        <ele>55</ele>
        <time>2021-08-22T08:09:43.000Z</time>
      </trkpt>
      <trkpt lat="47.17868" lon="-1.60719">
        <ele>55</ele>
        <time>2021-08-22T08:09:45.000Z</time>
      </trkpt>
      <trkpt lat="47.17873" lon="-1.60698">
        <ele>55</ele>
        <time>2021-08-22T08:09:47.000Z</time>
      </trkpt>
      <trkpt lat="47.17879" lon="-1.60677">
        <ele>55</ele>
        <time>2021-08-22T08:09:49.000Z</time>
      </trkpt>
      <trkpt lat="47.17885" lon="-1.60658">
        <ele>56</ele>
        <time>2021-08-22T08:09:51.000Z</time>
      </trkpt>
      <trkpt lat="47.17892" lon="-1.60638">
        <ele>56</ele>
        <time>2021-08-22T08:09:53.000Z</time>
      </trkpt>
      <trkpt lat="47.17897" lon="-1.6062">
        <ele>57</ele>
        <time>2021-08-22T08:09:55.000Z</time>
      </trkpt>
      <trkpt lat="47.17901" lon="-1.60604">
        <ele>57</ele>
        <time>2021-08-22T08:09:57.000Z</time>
      </trkpt>
      <trkpt lat="47.17906" lon="-1.60591">
        <ele>57</ele>
        <time>2021-08-22T08:09:59.000Z</time>
      </trkpt>
      <trkpt lat="47.17915" lon="-1.60585">
        <ele>57</ele>
        <time>2021-08-22T08:10:01.000Z</time>
      </trkpt>
      <trkpt lat="47.17927" lon="-1.60587">
        <ele>57</ele>
        <time>2021-08-22T08:10:03.000Z</time>
      </trkpt>
      <trkpt lat="47.17941" lon="-1.60584">
        <ele>58</ele>
        <time>2021-08-22T08:10:05.000Z</time>
      </trkpt>
      <trkpt lat="47.17955" lon="-1.60577">
        <ele>58</ele>
        <time>2021-08-22T08:10:07.000Z</time>
      </trkpt>
      <trkpt lat="47.17969" lon="-1.60569">
        <ele>58</ele>
        <time>2021-08-22T08:10:09.000Z</time>
      </trkpt>
      <trkpt lat="47.17983" lon="-1.6056">
        <ele>59</ele>
        <time>2021-08-22T08:10:11.000Z</time>
      </trkpt>
      <trkpt lat="47.17998" lon="-1.60555">
        <ele>58</ele>
        <time>2021-08-22T08:10:13.000Z</time>
      </trkpt>
      <trkpt lat="47.18013" lon="-1.60552">
        <ele>58</ele>
        <time>2021-08-22T08:10:15.000Z</time>
      </trkpt>
      <trkpt lat="47.18029" lon="-1.60553">
        <ele>57</ele>
        <time>2021-08-22T08:10:17.000Z</time>
      </trkpt>
      <trkpt lat="47.18043" lon="-1.6056">
        <ele>57</ele>
        <time>2021-08-22T08:10:19.000Z</time>
      </trkpt>
      <trkpt lat="47.18057" lon="-1.60567">
        <ele>57</ele>
        <time>2021-08-22T08:10:21.000Z</time>
      </trkpt>
      <trkpt lat="47.18072" lon="-1.60575">
        <ele>57</ele>
        <time>2021-08-22T08:10:23.000Z</time>
      </trkpt>
      <trkpt lat="47.18085" lon="-1.60583">
        <ele>56</ele>
        <time>2021-08-22T08:10:25.000Z</time>
      </trkpt>
      <trkpt lat="47.18099" lon="-1.6059">
        <ele>56</ele>
        <time>2021-08-22T08:10:27.000Z</time>
      </trkpt>
      <trkpt lat="47.18114" lon="-1.60595">
        <ele>56</ele>
        <time>2021-08-22T08:10:29.000Z</time>
      </trkpt>
      <trkpt lat="47.18128" lon="-1.606">
        <ele>56</ele>
        <time>2021-08-22T08:10:31.000Z</time>
      </trkpt>
      <trkpt lat="47.18142" lon="-1.60603">
        <ele>56</ele>
        <time>2021-08-22T08:10:33.000Z</time>
      </trkpt>
      <trkpt lat="47.18157" lon="-1.60605">
        <ele>56</ele>
        <time>2021-08-22T08:10:35.000Z</time>
      </trkpt>
      <trkpt lat="47.18171" lon="-1.60604">
        <ele>56</ele>
        <time>2021-08-22T08:10:37.000Z</time>
      </trkpt>
      <trkpt lat="47.18184" lon="-1.606">
        <ele>56</ele>
        <time>2021-08-22T08:10:39.000Z</time>
      </trkpt>
      <trkpt lat="47.1819" lon="-1.60587">
        <ele>56</ele>
        <time>2021-08-22T08:10:41.000Z</time>
      </trkpt>
      <trkpt lat="47.18198" lon="-1.60574">
        <ele>56</ele>
        <time>2021-08-22T08:10:43.000Z</time>
      </trkpt>
      <trkpt lat="47.1821" lon="-1.60571">
        <ele>58</ele>
        <time>2021-08-22T08:10:45.000Z</time>
      </trkpt>
      <trkpt lat="47.18223" lon="-1.60566">
        <ele>58</ele>
        <time>2021-08-22T08:10:47.000Z</time>
      </trkpt>
      <trkpt lat="47.18235" lon="-1.60558">
        <ele>60</ele>
        <time>2021-08-22T08:10:49.000Z</time>
      </trkpt>
      <trkpt lat="47.18248" lon="-1.60549">
        <ele>60</ele>
        <time>2021-08-22T08:10:51.000Z</time>
      </trkpt>
      <trkpt lat="47.18261" lon="-1.60539">
        <ele>60</ele>
        <time>2021-08-22T08:10:53.000Z</time>
      </trkpt>
      <trkpt lat="47.18273" lon="-1.60525">
        <ele>59</ele>
        <time>2021-08-22T08:10:55.000Z</time>
      </trkpt>
      <trkpt lat="47.18286" lon="-1.60512">
        <ele>58</ele>
        <time>2021-08-22T08:10:57.000Z</time>
      </trkpt>
      <trkpt lat="47.18298" lon="-1.60499">
        <ele>58</ele>
        <time>2021-08-22T08:10:59.000Z</time>
      </trkpt>
      <trkpt lat="47.18309" lon="-1.60486">
        <ele>57</ele>
        <time>2021-08-22T08:11:01.000Z</time>
      </trkpt>
      <trkpt lat="47.18321" lon="-1.60472">
        <ele>57</ele>
        <time>2021-08-22T08:11:03.000Z</time>
      </trkpt>
      <trkpt lat="47.18333" lon="-1.60458">
        <ele>58</ele>
        <time>2021-08-22T08:11:05.000Z</time>
      </trkpt>
      <trkpt lat="47.18344" lon="-1.60444">
        <ele>58</ele>
        <time>2021-08-22T08:11:07.000Z</time>
      </trkpt>
      <trkpt lat="47.18356" lon="-1.6043">
        <ele>58</ele>
        <time>2021-08-22T08:11:09.000Z</time>
      </trkpt>
      <trkpt lat="47.18367" lon="-1.60415">
        <ele>57</ele>
        <time>2021-08-22T08:11:11.000Z</time>
      </trkpt>
      <trkpt lat="47.18378" lon="-1.604">
        <ele>57</ele>
        <time>2021-08-22T08:11:13.000Z</time>
      </trkpt>
      <trkpt lat="47.18389" lon="-1.60385">
        <ele>57</ele>
        <time>2021-08-22T08:11:15.000Z</time>
      </trkpt>
      <trkpt lat="47.184" lon="-1.6037">
        <ele>57</ele>
        <time>2021-08-22T08:11:17.000Z</time>
      </trkpt>
      <trkpt lat="47.18412" lon="-1.60355">
        <ele>57</ele>
        <time>2021-08-22T08:11:19.000Z</time>
      </trkpt>
      <trkpt lat="47.18423" lon="-1.6034">
        <ele>57</ele>
        <time>2021-08-22T08:11:21.000Z</time>
      </trkpt>
      <trkpt lat="47.18434" lon="-1.60324">
        <ele>57</ele>
        <time>2021-08-22T08:11:23.000Z</time>
      </trkpt>
      <trkpt lat="47.18443" lon="-1.60307">
        <ele>57</ele>
        <time>2021-08-22T08:11:25.000Z</time>
      </trkpt>
      <trkpt lat="47.18453" lon="-1.60291">
        <ele>57</ele>
        <time>2021-08-22T08:11:27.000Z</time>
      </trkpt>
      <trkpt lat="47.18463" lon="-1.60275">
        <ele>57</ele>
        <time>2021-08-22T08:11:29.000Z</time>
      </trkpt>
      <trkpt lat="47.18472" lon="-1.60258">
        <ele>56</ele>
        <time>2021-08-22T08:11:31.000Z</time>
      </trkpt>
      <trkpt lat="47.18481" lon="-1.60241">
        <ele>56</ele>
        <time>2021-08-22T08:11:33.000Z</time>
      </trkpt>
      <trkpt lat="47.18495" lon="-1.60215">
        <ele>57</ele>
        <time>2021-08-22T08:11:36.000Z</time>
      </trkpt>
      <trkpt lat="47.18504" lon="-1.60197">
        <ele>57</ele>
        <time>2021-08-22T08:11:38.000Z</time>
      </trkpt>
      <trkpt lat="47.18517" lon="-1.60171">
        <ele>57</ele>
        <time>2021-08-22T08:11:41.000Z</time>
      </trkpt>
      <trkpt lat="47.18529" lon="-1.60144">
        <ele>57</ele>
        <time>2021-08-22T08:11:44.000Z</time>
      </trkpt>
      <trkpt lat="47.18537" lon="-1.60127">
        <ele>56</ele>
        <time>2021-08-22T08:11:46.000Z</time>
      </trkpt>
      <trkpt lat="47.18544" lon="-1.60109">
        <ele>57</ele>
        <time>2021-08-22T08:11:48.000Z</time>
      </trkpt>
      <trkpt lat="47.18552" lon="-1.6009">
        <ele>56</ele>
        <time>2021-08-22T08:11:50.000Z</time>
      </trkpt>
      <trkpt lat="47.18559" lon="-1.60071">
        <ele>56</ele>
        <time>2021-08-22T08:11:52.000Z</time>
      </trkpt>
      <trkpt lat="47.18567" lon="-1.60052">
        <ele>56</ele>
        <time>2021-08-22T08:11:54.000Z</time>
      </trkpt>
      <trkpt lat="47.18574" lon="-1.60032">
        <ele>57</ele>
        <time>2021-08-22T08:11:56.000Z</time>
      </trkpt>
      <trkpt lat="47.18584" lon="-1.60003">
        <ele>56</ele>
        <time>2021-08-22T08:11:59.000Z</time>
      </trkpt>
      <trkpt lat="47.1859" lon="-1.59983">
        <ele>56</ele>
        <time>2021-08-22T08:12:01.000Z</time>
      </trkpt>
      <trkpt lat="47.18596" lon="-1.59962">
        <ele>56</ele>
        <time>2021-08-22T08:12:03.000Z</time>
      </trkpt>
      <trkpt lat="47.18603" lon="-1.59942">
        <ele>56</ele>
        <time>2021-08-22T08:12:05.000Z</time>
      </trkpt>
      <trkpt lat="47.18609" lon="-1.59922">
        <ele>57</ele>
        <time>2021-08-22T08:12:07.000Z</time>
      </trkpt>
      <trkpt lat="47.18614" lon="-1.59902">
        <ele>57</ele>
        <time>2021-08-22T08:12:09.000Z</time>
      </trkpt>
      <trkpt lat="47.18619" lon="-1.59883">
        <ele>57</ele>
        <time>2021-08-22T08:12:11.000Z</time>
      </trkpt>
      <trkpt lat="47.18621" lon="-1.59865">
        <ele>56</ele>
        <time>2021-08-22T08:12:13.000Z</time>
      </trkpt>
      <trkpt lat="47.18616" lon="-1.59846">
        <ele>56</ele>
        <time>2021-08-22T08:12:15.000Z</time>
      </trkpt>
      <trkpt lat="47.18617" lon="-1.59828">
        <ele>56</ele>
        <time>2021-08-22T08:12:17.000Z</time>
      </trkpt>
      <trkpt lat="47.18626" lon="-1.59812">
        <ele>56</ele>
        <time>2021-08-22T08:12:19.000Z</time>
      </trkpt>
      <trkpt lat="47.1863" lon="-1.59792">
        <ele>56</ele>
        <time>2021-08-22T08:12:21.000Z</time>
      </trkpt>
      <trkpt lat="47.18637" lon="-1.59772">
        <ele>57</ele>
        <time>2021-08-22T08:12:23.000Z</time>
      </trkpt>
      <trkpt lat="47.18647" lon="-1.59756">
        <ele>57</ele>
        <time>2021-08-22T08:12:25.000Z</time>
      </trkpt>
      <trkpt lat="47.18654" lon="-1.59736">
        <ele>57</ele>
        <time>2021-08-22T08:12:27.000Z</time>
      </trkpt>
      <trkpt lat="47.18657" lon="-1.59714">
        <ele>57</ele>
        <time>2021-08-22T08:12:29.000Z</time>
      </trkpt>
      <trkpt lat="47.18661" lon="-1.59691">
        <ele>57</ele>
        <time>2021-08-22T08:12:31.000Z</time>
      </trkpt>
      <trkpt lat="47.18666" lon="-1.59669">
        <ele>57</ele>
        <time>2021-08-22T08:12:33.000Z</time>
      </trkpt>
      <trkpt lat="47.18672" lon="-1.59648">
        <ele>57</ele>
        <time>2021-08-22T08:12:35.000Z</time>
      </trkpt>
      <trkpt lat="47.18675" lon="-1.59625">
        <ele>57</ele>
        <time>2021-08-22T08:12:37.000Z</time>
      </trkpt>
      <trkpt lat="47.18678" lon="-1.59603">
        <ele>57</ele>
        <time>2021-08-22T08:12:39.000Z</time>
      </trkpt>
      <trkpt lat="47.18681" lon="-1.5958">
        <ele>57</ele>
        <time>2021-08-22T08:12:41.000Z</time>
      </trkpt>
      <trkpt lat="47.18683" lon="-1.59558">
        <ele>57</ele>
        <time>2021-08-22T08:12:43.000Z</time>
      </trkpt>
      <trkpt lat="47.18686" lon="-1.59536">
        <ele>57</ele>
        <time>2021-08-22T08:12:45.000Z</time>
      </trkpt>
      <trkpt lat="47.18688" lon="-1.59514">
        <ele>57</ele>
        <time>2021-08-22T08:12:47.000Z</time>
      </trkpt>
      <trkpt lat="47.1869" lon="-1.59492">
        <ele>57</ele>
        <time>2021-08-22T08:12:49.000Z</time>
      </trkpt>
      <trkpt lat="47.18693" lon="-1.5947">
        <ele>57</ele>
        <time>2021-08-22T08:12:51.000Z</time>
      </trkpt>
      <trkpt lat="47.18695" lon="-1.59447">
        <ele>57</ele>
        <time>2021-08-22T08:12:53.000Z</time>
      </trkpt>
      <trkpt lat="47.18697" lon="-1.59425">
        <ele>57</ele>
        <time>2021-08-22T08:12:55.000Z</time>
      </trkpt>
      <trkpt lat="47.187" lon="-1.59404">
        <ele>57</ele>
        <time>2021-08-22T08:12:57.000Z</time>
      </trkpt>
      <trkpt lat="47.18703" lon="-1.59382">
        <ele>57</ele>
        <time>2021-08-22T08:12:59.000Z</time>
      </trkpt>
      <trkpt lat="47.18705" lon="-1.59359">
        <ele>57</ele>
        <time>2021-08-22T08:13:01.000Z</time>
      </trkpt>
      <trkpt lat="47.18708" lon="-1.59336">
        <ele>57</ele>
        <time>2021-08-22T08:13:03.000Z</time>
      </trkpt>
      <trkpt lat="47.1871" lon="-1.59314">
        <ele>57</ele>
        <time>2021-08-22T08:13:05.000Z</time>
      </trkpt>
      <trkpt lat="47.18713" lon="-1.59292">
        <ele>57</ele>
        <time>2021-08-22T08:13:07.000Z</time>
      </trkpt>
      <trkpt lat="47.18715" lon="-1.5927">
        <ele>57</ele>
        <time>2021-08-22T08:13:09.000Z</time>
      </trkpt>
      <trkpt lat="47.18717" lon="-1.59247">
        <ele>57</ele>
        <time>2021-08-22T08:13:11.000Z</time>
      </trkpt>
      <trkpt lat="47.1872" lon="-1.59224">
        <ele>57</ele>
        <time>2021-08-22T08:13:13.000Z</time>
      </trkpt>
      <trkpt lat="47.18722" lon="-1.59201">
        <ele>57</ele>
        <time>2021-08-22T08:13:15.000Z</time>
      </trkpt>
      <trkpt lat="47.18725" lon="-1.59177">
        <ele>57</ele>
        <time>2021-08-22T08:13:17.000Z</time>
      </trkpt>
      <trkpt lat="47.18728" lon="-1.59153">
        <ele>57</ele>
        <time>2021-08-22T08:13:19.000Z</time>
      </trkpt>
      <trkpt lat="47.1873" lon="-1.5913">
        <ele>57</ele>
        <time>2021-08-22T08:13:21.000Z</time>
      </trkpt>
      <trkpt lat="47.18733" lon="-1.59106">
        <ele>58</ele>
        <time>2021-08-22T08:13:23.000Z</time>
      </trkpt>
      <trkpt lat="47.18735" lon="-1.59083">
        <ele>58</ele>
        <time>2021-08-22T08:13:25.000Z</time>
      </trkpt>
      <trkpt lat="47.18737" lon="-1.5906">
        <ele>58</ele>
        <time>2021-08-22T08:13:27.000Z</time>
      </trkpt>
      <trkpt lat="47.1874" lon="-1.59037">
        <ele>58</ele>
        <time>2021-08-22T08:13:29.000Z</time>
      </trkpt>
      <trkpt lat="47.18743" lon="-1.59013">
        <ele>58</ele>
        <time>2021-08-22T08:13:31.000Z</time>
      </trkpt>
      <trkpt lat="47.18745" lon="-1.58991">
        <ele>58</ele>
        <time>2021-08-22T08:13:33.000Z</time>
      </trkpt>
      <trkpt lat="47.18747" lon="-1.58969">
        <ele>58</ele>
        <time>2021-08-22T08:13:35.000Z</time>
      </trkpt>
      <trkpt lat="47.18749" lon="-1.58946">
        <ele>58</ele>
        <time>2021-08-22T08:13:37.000Z</time>
      </trkpt>
      <trkpt lat="47.18752" lon="-1.58923">
        <ele>58</ele>
        <time>2021-08-22T08:13:39.000Z</time>
      </trkpt>
      <trkpt lat="47.18755" lon="-1.589">
        <ele>58</ele>
        <time>2021-08-22T08:13:41.000Z</time>
      </trkpt>
      <trkpt lat="47.18758" lon="-1.58878">
        <ele>59</ele>
        <time>2021-08-22T08:13:43.000Z</time>
      </trkpt>
      <trkpt lat="47.18761" lon="-1.58856">
        <ele>58</ele>
        <time>2021-08-22T08:13:45.000Z</time>
      </trkpt>
      <trkpt lat="47.18763" lon="-1.58833">
        <ele>58</ele>
        <time>2021-08-22T08:13:47.000Z</time>
      </trkpt>
      <trkpt lat="47.18764" lon="-1.5881">
        <ele>58</ele>
        <time>2021-08-22T08:13:49.000Z</time>
      </trkpt>
      <trkpt lat="47.18763" lon="-1.58787">
        <ele>58</ele>
        <time>2021-08-22T08:13:51.000Z</time>
      </trkpt>
      <trkpt lat="47.18758" lon="-1.58765">
        <ele>57</ele>
        <time>2021-08-22T08:13:53.000Z</time>
      </trkpt>
      <trkpt lat="47.18758" lon="-1.58741">
        <ele>57</ele>
        <time>2021-08-22T08:13:55.000Z</time>
      </trkpt>
      <trkpt lat="47.18766" lon="-1.5872">
        <ele>57</ele>
        <time>2021-08-22T08:13:57.000Z</time>
      </trkpt>
      <trkpt lat="47.18777" lon="-1.58704">
        <ele>57</ele>
        <time>2021-08-22T08:13:59.000Z</time>
      </trkpt>
      <trkpt lat="47.18786" lon="-1.58686">
        <ele>57</ele>
        <time>2021-08-22T08:14:01.000Z</time>
      </trkpt>
      <trkpt lat="47.1879" lon="-1.58664">
        <ele>57</ele>
        <time>2021-08-22T08:14:03.000Z</time>
      </trkpt>
      <trkpt lat="47.18795" lon="-1.58643">
        <ele>57</ele>
        <time>2021-08-22T08:14:05.000Z</time>
      </trkpt>
      <trkpt lat="47.188" lon="-1.58621">
        <ele>57</ele>
        <time>2021-08-22T08:14:07.000Z</time>
      </trkpt>
      <trkpt lat="47.18806" lon="-1.586">
        <ele>57</ele>
        <time>2021-08-22T08:14:09.000Z</time>
      </trkpt>
      <trkpt lat="47.18812" lon="-1.58579">
        <ele>56</ele>
        <time>2021-08-22T08:14:11.000Z</time>
      </trkpt>
      <trkpt lat="47.18818" lon="-1.58558">
        <ele>56</ele>
        <time>2021-08-22T08:14:13.000Z</time>
      </trkpt>
      <trkpt lat="47.18823" lon="-1.58536">
        <ele>57</ele>
        <time>2021-08-22T08:14:15.000Z</time>
      </trkpt>
      <trkpt lat="47.18829" lon="-1.58515">
        <ele>57</ele>
        <time>2021-08-22T08:14:17.000Z</time>
      </trkpt>
      <trkpt lat="47.18835" lon="-1.58494">
        <ele>57</ele>
        <time>2021-08-22T08:14:19.000Z</time>
      </trkpt>
      <trkpt lat="47.18842" lon="-1.58473">
        <ele>57</ele>
        <time>2021-08-22T08:14:21.000Z</time>
      </trkpt>
      <trkpt lat="47.18848" lon="-1.58453">
        <ele>57</ele>
        <time>2021-08-22T08:14:23.000Z</time>
      </trkpt>
      <trkpt lat="47.18854" lon="-1.58431">
        <ele>57</ele>
        <time>2021-08-22T08:14:25.000Z</time>
      </trkpt>
      <trkpt lat="47.18861" lon="-1.5841">
        <ele>57</ele>
        <time>2021-08-22T08:14:27.000Z</time>
      </trkpt>
      <trkpt lat="47.18867" lon="-1.58389">
        <ele>57</ele>
        <time>2021-08-22T08:14:29.000Z</time>
      </trkpt>
      <trkpt lat="47.18874" lon="-1.58368">
        <ele>57</ele>
        <time>2021-08-22T08:14:31.000Z</time>
      </trkpt>
      <trkpt lat="47.18881" lon="-1.58347">
        <ele>57</ele>
        <time>2021-08-22T08:14:33.000Z</time>
      </trkpt>
      <trkpt lat="47.18888" lon="-1.58326">
        <ele>56</ele>
        <time>2021-08-22T08:14:35.000Z</time>
      </trkpt>
      <trkpt lat="47.18895" lon="-1.58305">
        <ele>56</ele>
        <time>2021-08-22T08:14:37.000Z</time>
      </trkpt>
      <trkpt lat="47.18903" lon="-1.58284">
        <ele>56</ele>
        <time>2021-08-22T08:14:39.000Z</time>
      </trkpt>
      <trkpt lat="47.1891" lon="-1.58263">
        <ele>56</ele>
        <time>2021-08-22T08:14:41.000Z</time>
      </trkpt>
      <trkpt lat="47.18918" lon="-1.58242">
        <ele>56</ele>
        <time>2021-08-22T08:14:43.000Z</time>
      </trkpt>
      <trkpt lat="47.18925" lon="-1.58221">
        <ele>56</ele>
        <time>2021-08-22T08:14:45.000Z</time>
      </trkpt>
      <trkpt lat="47.18932" lon="-1.58199">
        <ele>57</ele>
        <time>2021-08-22T08:14:47.000Z</time>
      </trkpt>
      <trkpt lat="47.1894" lon="-1.58179">
        <ele>57</ele>
        <time>2021-08-22T08:14:49.000Z</time>
      </trkpt>
      <trkpt lat="47.18947" lon="-1.58159">
        <ele>57</ele>
        <time>2021-08-22T08:14:51.000Z</time>
      </trkpt>
      <trkpt lat="47.18953" lon="-1.58139">
        <ele>57</ele>
        <time>2021-08-22T08:14:53.000Z</time>
      </trkpt>
      <trkpt lat="47.18961" lon="-1.58118">
        <ele>57</ele>
        <time>2021-08-22T08:14:55.000Z</time>
      </trkpt>
      <trkpt lat="47.18968" lon="-1.58098">
        <ele>57</ele>
        <time>2021-08-22T08:14:57.000Z</time>
      </trkpt>
      <trkpt lat="47.18975" lon="-1.58076">
        <ele>56</ele>
        <time>2021-08-22T08:14:59.000Z</time>
      </trkpt>
      <trkpt lat="47.18984" lon="-1.58055">
        <ele>55</ele>
        <time>2021-08-22T08:15:01.000Z</time>
      </trkpt>
      <trkpt lat="47.18991" lon="-1.58035">
        <ele>55</ele>
        <time>2021-08-22T08:15:03.000Z</time>
      </trkpt>
      <trkpt lat="47.18999" lon="-1.58015">
        <ele>56</ele>
        <time>2021-08-22T08:15:05.000Z</time>
      </trkpt>
      <trkpt lat="47.19006" lon="-1.57994">
        <ele>56</ele>
        <time>2021-08-22T08:15:07.000Z</time>
      </trkpt>
      <trkpt lat="47.19013" lon="-1.57974">
        <ele>56</ele>
        <time>2021-08-22T08:15:09.000Z</time>
      </trkpt>
      <trkpt lat="47.1902" lon="-1.57953">
        <ele>56</ele>
        <time>2021-08-22T08:15:11.000Z</time>
      </trkpt>
      <trkpt lat="47.19027" lon="-1.57933">
        <ele>57</ele>
        <time>2021-08-22T08:15:13.000Z</time>
      </trkpt>
      <trkpt lat="47.19035" lon="-1.57913">
        <ele>57</ele>
        <time>2021-08-22T08:15:15.000Z</time>
      </trkpt>
      <trkpt lat="47.19042" lon="-1.57892">
        <ele>57</ele>
        <time>2021-08-22T08:15:17.000Z</time>
      </trkpt>
      <trkpt lat="47.1905" lon="-1.57871">
        <ele>56</ele>
        <time>2021-08-22T08:15:19.000Z</time>
      </trkpt>
      <trkpt lat="47.19057" lon="-1.5785">
        <ele>56</ele>
        <time>2021-08-22T08:15:21.000Z</time>
      </trkpt>
      <trkpt lat="47.19064" lon="-1.57829">
        <ele>56</ele>
        <time>2021-08-22T08:15:23.000Z</time>
      </trkpt>
      <trkpt lat="47.19071" lon="-1.57808">
        <ele>57</ele>
        <time>2021-08-22T08:15:25.000Z</time>
      </trkpt>
      <trkpt lat="47.19079" lon="-1.57787">
        <ele>57</ele>
        <time>2021-08-22T08:15:27.000Z</time>
      </trkpt>
      <trkpt lat="47.19087" lon="-1.57767">
        <ele>56</ele>
        <time>2021-08-22T08:15:29.000Z</time>
      </trkpt>
      <trkpt lat="47.19095" lon="-1.57746">
        <ele>56</ele>
        <time>2021-08-22T08:15:31.000Z</time>
      </trkpt>
      <trkpt lat="47.19102" lon="-1.57725">
        <ele>56</ele>
        <time>2021-08-22T08:15:33.000Z</time>
      </trkpt>
      <trkpt lat="47.19108" lon="-1.57705">
        <ele>56</ele>
        <time>2021-08-22T08:15:35.000Z</time>
      </trkpt>
      <trkpt lat="47.19116" lon="-1.57685">
        <ele>56</ele>
        <time>2021-08-22T08:15:37.000Z</time>
      </trkpt>
      <trkpt lat="47.19123" lon="-1.57665">
        <ele>56</ele>
        <time>2021-08-22T08:15:39.000Z</time>
      </trkpt>
      <trkpt lat="47.1913" lon="-1.57645">
        <ele>57</ele>
        <time>2021-08-22T08:15:41.000Z</time>
      </trkpt>
      <trkpt lat="47.19137" lon="-1.57624">
        <ele>57</ele>
        <time>2021-08-22T08:15:43.000Z</time>
      </trkpt>
      <trkpt lat="47.19144" lon="-1.57604">
        <ele>57</ele>
        <time>2021-08-22T08:15:45.000Z</time>
      </trkpt>
      <trkpt lat="47.19151" lon="-1.57584">
        <ele>57</ele>
        <time>2021-08-22T08:15:47.000Z</time>
      </trkpt>
      <trkpt lat="47.19158" lon="-1.57564">
        <ele>57</ele>
        <time>2021-08-22T08:15:49.000Z</time>
      </trkpt>
      <trkpt lat="47.19164" lon="-1.57545">
        <ele>58</ele>
        <time>2021-08-22T08:15:51.000Z</time>
      </trkpt>
      <trkpt lat="47.19171" lon="-1.57526">
        <ele>58</ele>
        <time>2021-08-22T08:15:53.000Z</time>
      </trkpt>
      <trkpt lat="47.19178" lon="-1.57506">
        <ele>58</ele>
        <time>2021-08-22T08:15:55.000Z</time>
      </trkpt>
      <trkpt lat="47.19184" lon="-1.57486">
        <ele>58</ele>
        <time>2021-08-22T08:15:57.000Z</time>
      </trkpt>
      <trkpt lat="47.19191" lon="-1.57466">
        <ele>57</ele>
        <time>2021-08-22T08:15:59.000Z</time>
      </trkpt>
      <trkpt lat="47.19197" lon="-1.57445">
        <ele>58</ele>
        <time>2021-08-22T08:16:01.000Z</time>
      </trkpt>
      <trkpt lat="47.19203" lon="-1.57425">
        <ele>57</ele>
        <time>2021-08-22T08:16:03.000Z</time>
      </trkpt>
      <trkpt lat="47.19208" lon="-1.57404">
        <ele>57</ele>
        <time>2021-08-22T08:16:05.000Z</time>
      </trkpt>
      <trkpt lat="47.19214" lon="-1.57384">
        <ele>57</ele>
        <time>2021-08-22T08:16:07.000Z</time>
      </trkpt>
      <trkpt lat="47.19219" lon="-1.57364">
        <ele>57</ele>
        <time>2021-08-22T08:16:09.000Z</time>
      </trkpt>
      <trkpt lat="47.19224" lon="-1.57343">
        <ele>58</ele>
        <time>2021-08-22T08:16:11.000Z</time>
      </trkpt>
      <trkpt lat="47.19228" lon="-1.57322">
        <ele>58</ele>
        <time>2021-08-22T08:16:13.000Z</time>
      </trkpt>
      <trkpt lat="47.19232" lon="-1.57301">
        <ele>59</ele>
        <time>2021-08-22T08:16:15.000Z</time>
      </trkpt>
      <trkpt lat="47.19235" lon="-1.57279">
        <ele>58</ele>
        <time>2021-08-22T08:16:17.000Z</time>
      </trkpt>
      <trkpt lat="47.19238" lon="-1.57258">
        <ele>58</ele>
        <time>2021-08-22T08:16:19.000Z</time>
      </trkpt>
      <trkpt lat="47.19241" lon="-1.57237">
        <ele>58</ele>
        <time>2021-08-22T08:16:21.000Z</time>
      </trkpt>
      <trkpt lat="47.19243" lon="-1.57215">
        <ele>59</ele>
        <time>2021-08-22T08:16:23.000Z</time>
      </trkpt>
      <trkpt lat="47.19246" lon="-1.57193">
        <ele>59</ele>
        <time>2021-08-22T08:16:25.000Z</time>
      </trkpt>
      <trkpt lat="47.19249" lon="-1.57171">
        <ele>59</ele>
        <time>2021-08-22T08:16:27.000Z</time>
      </trkpt>
      <trkpt lat="47.19253" lon="-1.57149">
        <ele>59</ele>
        <time>2021-08-22T08:16:29.000Z</time>
      </trkpt>
      <trkpt lat="47.19257" lon="-1.57128">
        <ele>59</ele>
        <time>2021-08-22T08:16:31.000Z</time>
      </trkpt>
      <trkpt lat="47.19259" lon="-1.57107">
        <ele>58</ele>
        <time>2021-08-22T08:16:33.000Z</time>
      </trkpt>
      <trkpt lat="47.19261" lon="-1.57088">
        <ele>58</ele>
        <time>2021-08-22T08:16:35.000Z</time>
      </trkpt>
      <trkpt lat="47.19259" lon="-1.57068">
        <ele>58</ele>
        <time>2021-08-22T08:16:37.000Z</time>
      </trkpt>
      <trkpt lat="47.19255" lon="-1.57048">
        <ele>58</ele>
        <time>2021-08-22T08:16:39.000Z</time>
      </trkpt>
      <trkpt lat="47.19262" lon="-1.57028">
        <ele>58</ele>
        <time>2021-08-22T08:16:41.000Z</time>
      </trkpt>
      <trkpt lat="47.1927" lon="-1.57009">
        <ele>58</ele>
        <time>2021-08-22T08:16:43.000Z</time>
      </trkpt>
      <trkpt lat="47.19272" lon="-1.56986">
        <ele>57</ele>
        <time>2021-08-22T08:16:45.000Z</time>
      </trkpt>
      <trkpt lat="47.19275" lon="-1.56964">
        <ele>57</ele>
        <time>2021-08-22T08:16:47.000Z</time>
      </trkpt>
      <trkpt lat="47.19277" lon="-1.56943">
        <ele>57</ele>
        <time>2021-08-22T08:16:49.000Z</time>
      </trkpt>
      <trkpt lat="47.19278" lon="-1.56921">
        <ele>57</ele>
        <time>2021-08-22T08:16:51.000Z</time>
      </trkpt>
      <trkpt lat="47.1928" lon="-1.56899">
        <ele>57</ele>
        <time>2021-08-22T08:16:53.000Z</time>
      </trkpt>
      <trkpt lat="47.19282" lon="-1.56877">
        <ele>57</ele>
        <time>2021-08-22T08:16:55.000Z</time>
      </trkpt>
      <trkpt lat="47.19285" lon="-1.56855">
        <ele>58</ele>
        <time>2021-08-22T08:16:57.000Z</time>
      </trkpt>
      <trkpt lat="47.19286" lon="-1.56834">
        <ele>58</ele>
        <time>2021-08-22T08:16:59.000Z</time>
      </trkpt>
      <trkpt lat="47.19287" lon="-1.56812">
        <ele>58</ele>
        <time>2021-08-22T08:17:01.000Z</time>
      </trkpt>
      <trkpt lat="47.19288" lon="-1.56789">
        <ele>58</ele>
        <time>2021-08-22T08:17:03.000Z</time>
      </trkpt>
      <trkpt lat="47.19288" lon="-1.56768">
        <ele>58</ele>
        <time>2021-08-22T08:17:05.000Z</time>
      </trkpt>
      <trkpt lat="47.19289" lon="-1.56745">
        <ele>58</ele>
        <time>2021-08-22T08:17:07.000Z</time>
      </trkpt>
      <trkpt lat="47.19289" lon="-1.56722">
        <ele>58</ele>
        <time>2021-08-22T08:17:09.000Z</time>
      </trkpt>
      <trkpt lat="47.19288" lon="-1.56701">
        <ele>58</ele>
        <time>2021-08-22T08:17:11.000Z</time>
      </trkpt>
      <trkpt lat="47.19288" lon="-1.56679">
        <ele>58</ele>
        <time>2021-08-22T08:17:13.000Z</time>
      </trkpt>
      <trkpt lat="47.19286" lon="-1.56657">
        <ele>58</ele>
        <time>2021-08-22T08:17:15.000Z</time>
      </trkpt>
      <trkpt lat="47.19285" lon="-1.56636">
        <ele>58</ele>
        <time>2021-08-22T08:17:17.000Z</time>
      </trkpt>
      <trkpt lat="47.19283" lon="-1.56614">
        <ele>57</ele>
        <time>2021-08-22T08:17:19.000Z</time>
      </trkpt>
      <trkpt lat="47.19281" lon="-1.56593">
        <ele>57</ele>
        <time>2021-08-22T08:17:21.000Z</time>
      </trkpt>
      <trkpt lat="47.19279" lon="-1.56572">
        <ele>57</ele>
        <time>2021-08-22T08:17:23.000Z</time>
      </trkpt>
      <trkpt lat="47.19277" lon="-1.5655">
        <ele>57</ele>
        <time>2021-08-22T08:17:25.000Z</time>
      </trkpt>
      <trkpt lat="47.19275" lon="-1.56529">
        <ele>57</ele>
        <time>2021-08-22T08:17:27.000Z</time>
      </trkpt>
      <trkpt lat="47.19272" lon="-1.56508">
        <ele>57</ele>
        <time>2021-08-22T08:17:29.000Z</time>
      </trkpt>
      <trkpt lat="47.1927" lon="-1.56486">
        <ele>57</ele>
        <time>2021-08-22T08:17:31.000Z</time>
      </trkpt>
      <trkpt lat="47.19267" lon="-1.56464">
        <ele>57</ele>
        <time>2021-08-22T08:17:33.000Z</time>
      </trkpt>
      <trkpt lat="47.19265" lon="-1.56442">
        <ele>56</ele>
        <time>2021-08-22T08:17:35.000Z</time>
      </trkpt>
      <trkpt lat="47.19264" lon="-1.56421">
        <ele>57</ele>
        <time>2021-08-22T08:17:37.000Z</time>
      </trkpt>
      <trkpt lat="47.19263" lon="-1.56399">
        <ele>57</ele>
        <time>2021-08-22T08:17:39.000Z</time>
      </trkpt>
      <trkpt lat="47.19261" lon="-1.56379">
        <ele>57</ele>
        <time>2021-08-22T08:17:41.000Z</time>
      </trkpt>
      <trkpt lat="47.19257" lon="-1.56358">
        <ele>57</ele>
        <time>2021-08-22T08:17:43.000Z</time>
      </trkpt>
      <trkpt lat="47.19252" lon="-1.56339">
        <ele>57</ele>
        <time>2021-08-22T08:17:45.000Z</time>
      </trkpt>
      <trkpt lat="47.19242" lon="-1.56322">
        <ele>58</ele>
        <time>2021-08-22T08:17:47.000Z</time>
      </trkpt>
      <trkpt lat="47.19234" lon="-1.56304">
        <ele>58</ele>
        <time>2021-08-22T08:17:49.000Z</time>
      </trkpt>
      <trkpt lat="47.19233" lon="-1.56282">
        <ele>57</ele>
        <time>2021-08-22T08:17:51.000Z</time>
      </trkpt>
      <trkpt lat="47.19239" lon="-1.56262">
        <ele>57</ele>
        <time>2021-08-22T08:17:53.000Z</time>
      </trkpt>
      <trkpt lat="47.19246" lon="-1.56241">
        <ele>56</ele>
        <time>2021-08-22T08:17:55.000Z</time>
      </trkpt>
      <trkpt lat="47.19244" lon="-1.56218">
        <ele>57</ele>
        <time>2021-08-22T08:17:57.000Z</time>
      </trkpt>
      <trkpt lat="47.19243" lon="-1.56196">
        <ele>57</ele>
        <time>2021-08-22T08:17:59.000Z</time>
      </trkpt>
      <trkpt lat="47.19244" lon="-1.56174">
        <ele>57</ele>
        <time>2021-08-22T08:18:01.000Z</time>
      </trkpt>
      <trkpt lat="47.19243" lon="-1.56151">
        <ele>57</ele>
        <time>2021-08-22T08:18:03.000Z</time>
      </trkpt>
      <trkpt lat="47.19242" lon="-1.5613">
        <ele>58</ele>
        <time>2021-08-22T08:18:05.000Z</time>
      </trkpt>
      <trkpt lat="47.19242" lon="-1.56108">
        <ele>57</ele>
        <time>2021-08-22T08:18:07.000Z</time>
      </trkpt>
      <trkpt lat="47.1924" lon="-1.56086">
        <ele>58</ele>
        <time>2021-08-22T08:18:09.000Z</time>
      </trkpt>
      <trkpt lat="47.19239" lon="-1.56064">
        <ele>58</ele>
        <time>2021-08-22T08:18:11.000Z</time>
      </trkpt>
      <trkpt lat="47.19238" lon="-1.56042">
        <ele>58</ele>
        <time>2021-08-22T08:18:13.000Z</time>
      </trkpt>
      <trkpt lat="47.19236" lon="-1.5602">
        <ele>58</ele>
        <time>2021-08-22T08:18:15.000Z</time>
      </trkpt>
      <trkpt lat="47.19234" lon="-1.55998">
        <ele>58</ele>
        <time>2021-08-22T08:18:17.000Z</time>
      </trkpt>
      <trkpt lat="47.19231" lon="-1.55976">
        <ele>57</ele>
        <time>2021-08-22T08:18:19.000Z</time>
      </trkpt>
      <trkpt lat="47.19228" lon="-1.55955">
        <ele>58</ele>
        <time>2021-08-22T08:18:21.000Z</time>
      </trkpt>
      <trkpt lat="47.19226" lon="-1.55933">
        <ele>58</ele>
        <time>2021-08-22T08:18:23.000Z</time>
      </trkpt>
      <trkpt lat="47.19224" lon="-1.55912">
        <ele>58</ele>
        <time>2021-08-22T08:18:25.000Z</time>
      </trkpt>
      <trkpt lat="47.19222" lon="-1.5589">
        <ele>58</ele>
        <time>2021-08-22T08:18:27.000Z</time>
      </trkpt>
      <trkpt lat="47.1922" lon="-1.55868">
        <ele>58</ele>
        <time>2021-08-22T08:18:29.000Z</time>
      </trkpt>
      <trkpt lat="47.19219" lon="-1.55845">
        <ele>58</ele>
        <time>2021-08-22T08:18:31.000Z</time>
      </trkpt>
      <trkpt lat="47.19218" lon="-1.55823">
        <ele>58</ele>
        <time>2021-08-22T08:18:33.000Z</time>
      </trkpt>
      <trkpt lat="47.19218" lon="-1.558">
        <ele>58</ele>
        <time>2021-08-22T08:18:35.000Z</time>
      </trkpt>
      <trkpt lat="47.19217" lon="-1.55777">
        <ele>58</ele>
        <time>2021-08-22T08:18:37.000Z</time>
      </trkpt>
      <trkpt lat="47.19217" lon="-1.55754">
        <ele>58</ele>
        <time>2021-08-22T08:18:39.000Z</time>
      </trkpt>
      <trkpt lat="47.19217" lon="-1.55731">
        <ele>58</ele>
        <time>2021-08-22T08:18:41.000Z</time>
      </trkpt>
      <trkpt lat="47.19217" lon="-1.55709">
        <ele>58</ele>
        <time>2021-08-22T08:18:43.000Z</time>
      </trkpt>
      <trkpt lat="47.19218" lon="-1.55687">
        <ele>58</ele>
        <time>2021-08-22T08:18:45.000Z</time>
      </trkpt>
      <trkpt lat="47.19218" lon="-1.55665">
        <ele>58</ele>
        <time>2021-08-22T08:18:47.000Z</time>
      </trkpt>
      <trkpt lat="47.1922" lon="-1.55643">
        <ele>58</ele>
        <time>2021-08-22T08:18:49.000Z</time>
      </trkpt>
      <trkpt lat="47.19221" lon="-1.5562">
        <ele>58</ele>
        <time>2021-08-22T08:18:51.000Z</time>
      </trkpt>
      <trkpt lat="47.19222" lon="-1.55598">
        <ele>58</ele>
        <time>2021-08-22T08:18:53.000Z</time>
      </trkpt>
      <trkpt lat="47.19224" lon="-1.55577">
        <ele>58</ele>
        <time>2021-08-22T08:18:55.000Z</time>
      </trkpt>
      <trkpt lat="47.19226" lon="-1.55555">
        <ele>58</ele>
        <time>2021-08-22T08:18:57.000Z</time>
      </trkpt>
      <trkpt lat="47.19228" lon="-1.55535">
        <ele>58</ele>
        <time>2021-08-22T08:18:59.000Z</time>
      </trkpt>
      <trkpt lat="47.1923" lon="-1.55514">
        <ele>59</ele>
        <time>2021-08-22T08:19:01.000Z</time>
      </trkpt>
      <trkpt lat="47.1923" lon="-1.55493">
        <ele>59</ele>
        <time>2021-08-22T08:19:03.000Z</time>
      </trkpt>
      <trkpt lat="47.19228" lon="-1.55472">
        <ele>59</ele>
        <time>2021-08-22T08:19:05.000Z</time>
      </trkpt>
      <trkpt lat="47.19218" lon="-1.55456">
        <ele>58</ele>
        <time>2021-08-22T08:19:07.000Z</time>
      </trkpt>
      <trkpt lat="47.19214" lon="-1.55436">
        <ele>58</ele>
        <time>2021-08-22T08:19:09.000Z</time>
      </trkpt>
      <trkpt lat="47.19219" lon="-1.55415">
        <ele>58</ele>
        <time>2021-08-22T08:19:11.000Z</time>
      </trkpt>
      <trkpt lat="47.1923" lon="-1.55401">
        <ele>58</ele>
        <time>2021-08-22T08:19:13.000Z</time>
      </trkpt>
      <trkpt lat="47.19239" lon="-1.55385">
        <ele>58</ele>
        <time>2021-08-22T08:19:15.000Z</time>
      </trkpt>
      <trkpt lat="47.19245" lon="-1.55366">
        <ele>58</ele>
        <time>2021-08-22T08:19:17.000Z</time>
      </trkpt>
      <trkpt lat="47.19251" lon="-1.55346">
        <ele>59</ele>
        <time>2021-08-22T08:19:19.000Z</time>
      </trkpt>
      <trkpt lat="47.19256" lon="-1.55326">
        <ele>59</ele>
        <time>2021-08-22T08:19:21.000Z</time>
      </trkpt>
      <trkpt lat="47.19261" lon="-1.55306">
        <ele>59</ele>
        <time>2021-08-22T08:19:23.000Z</time>
      </trkpt>
      <trkpt lat="47.19266" lon="-1.55285">
        <ele>59</ele>
        <time>2021-08-22T08:19:25.000Z</time>
      </trkpt>
      <trkpt lat="47.1927" lon="-1.55263">
        <ele>60</ele>
        <time>2021-08-22T08:19:27.000Z</time>
      </trkpt>
      <trkpt lat="47.19274" lon="-1.55243">
        <ele>60</ele>
        <time>2021-08-22T08:19:29.000Z</time>
      </trkpt>
      <trkpt lat="47.19279" lon="-1.55222">
        <ele>60</ele>
        <time>2021-08-22T08:19:31.000Z</time>
      </trkpt>
      <trkpt lat="47.19284" lon="-1.55203">
        <ele>60</ele>
        <time>2021-08-22T08:19:33.000Z</time>
      </trkpt>
      <trkpt lat="47.19289" lon="-1.55182">
        <ele>60</ele>
        <time>2021-08-22T08:19:35.000Z</time>
      </trkpt>
      <trkpt lat="47.19295" lon="-1.55162">
        <ele>61</ele>
        <time>2021-08-22T08:19:37.000Z</time>
      </trkpt>
      <trkpt lat="47.193" lon="-1.55142">
        <ele>61</ele>
        <time>2021-08-22T08:19:39.000Z</time>
      </trkpt>
      <trkpt lat="47.19305" lon="-1.55124">
        <ele>62</ele>
        <time>2021-08-22T08:19:41.000Z</time>
      </trkpt>
      <trkpt lat="47.1931" lon="-1.55105">
        <ele>62</ele>
        <time>2021-08-22T08:19:43.000Z</time>
      </trkpt>
      <trkpt lat="47.19314" lon="-1.55086">
        <ele>63</ele>
        <time>2021-08-22T08:19:45.000Z</time>
      </trkpt>
      <trkpt lat="47.19319" lon="-1.55066">
        <ele>63</ele>
        <time>2021-08-22T08:19:47.000Z</time>
      </trkpt>
      <trkpt lat="47.19324" lon="-1.55045">
        <ele>63</ele>
        <time>2021-08-22T08:19:49.000Z</time>
      </trkpt>
      <trkpt lat="47.1933" lon="-1.55026">
        <ele>64</ele>
        <time>2021-08-22T08:19:51.000Z</time>
      </trkpt>
      <trkpt lat="47.19335" lon="-1.55005">
        <ele>65</ele>
        <time>2021-08-22T08:19:53.000Z</time>
      </trkpt>
      <trkpt lat="47.1934" lon="-1.54986">
        <ele>65</ele>
        <time>2021-08-22T08:19:55.000Z</time>
      </trkpt>
      <trkpt lat="47.19345" lon="-1.54967">
        <ele>65</ele>
        <time>2021-08-22T08:19:57.000Z</time>
      </trkpt>
      <trkpt lat="47.1935" lon="-1.54948">
        <ele>65</ele>
        <time>2021-08-22T08:19:59.000Z</time>
      </trkpt>
      <trkpt lat="47.19355" lon="-1.54929">
        <ele>65</ele>
        <time>2021-08-22T08:20:01.000Z</time>
      </trkpt>
      <trkpt lat="47.1936" lon="-1.5491">
        <ele>65</ele>
        <time>2021-08-22T08:20:03.000Z</time>
      </trkpt>
      <trkpt lat="47.19364" lon="-1.5489">
        <ele>65</ele>
        <time>2021-08-22T08:20:05.000Z</time>
      </trkpt>
      <trkpt lat="47.19369" lon="-1.54869">
        <ele>65</ele>
        <time>2021-08-22T08:20:07.000Z</time>
      </trkpt>
      <trkpt lat="47.19374" lon="-1.54848">
        <ele>65</ele>
        <time>2021-08-22T08:20:09.000Z</time>
      </trkpt>
      <trkpt lat="47.1938" lon="-1.54825">
        <ele>64</ele>
        <time>2021-08-22T08:20:11.000Z</time>
      </trkpt>
      <trkpt lat="47.19386" lon="-1.54801">
        <ele>63</ele>
        <time>2021-08-22T08:20:13.000Z</time>
      </trkpt>
      <trkpt lat="47.19392" lon="-1.54777">
        <ele>62</ele>
        <time>2021-08-22T08:20:15.000Z</time>
      </trkpt>
      <trkpt lat="47.19395" lon="-1.54764">
        <ele>62</ele>
        <time>2021-08-22T08:20:16.000Z</time>
      </trkpt>
      <trkpt lat="47.19398" lon="-1.54751">
        <ele>61</ele>
        <time>2021-08-22T08:20:17.000Z</time>
      </trkpt>
      <trkpt lat="47.194" lon="-1.54739">
        <ele>60</ele>
        <time>2021-08-22T08:20:18.000Z</time>
      </trkpt>
      <trkpt lat="47.19406" lon="-1.54714">
        <ele>60</ele>
        <time>2021-08-22T08:20:20.000Z</time>
      </trkpt>
      <trkpt lat="47.19409" lon="-1.547">
        <ele>60</ele>
        <time>2021-08-22T08:20:21.000Z</time>
      </trkpt>
      <trkpt lat="47.19415" lon="-1.54677">
        <ele>60</ele>
        <time>2021-08-22T08:20:23.000Z</time>
      </trkpt>
      <trkpt lat="47.19422" lon="-1.54654">
        <ele>60</ele>
        <time>2021-08-22T08:20:25.000Z</time>
      </trkpt>
      <trkpt lat="47.19427" lon="-1.54637">
        <ele>60</ele>
        <time>2021-08-22T08:20:27.000Z</time>
      </trkpt>
      <trkpt lat="47.19428" lon="-1.54621">
        <ele>60</ele>
        <time>2021-08-22T08:20:29.000Z</time>
      </trkpt>
      <trkpt lat="47.1942" lon="-1.54606">
        <ele>60</ele>
        <time>2021-08-22T08:20:31.000Z</time>
      </trkpt>
      <trkpt lat="47.19421" lon="-1.54587">
        <ele>59</ele>
        <time>2021-08-22T08:20:33.000Z</time>
      </trkpt>
      <trkpt lat="47.19427" lon="-1.54568">
        <ele>59</ele>
        <time>2021-08-22T08:20:35.000Z</time>
      </trkpt>
      <trkpt lat="47.19439" lon="-1.54555">
        <ele>59</ele>
        <time>2021-08-22T08:20:37.000Z</time>
      </trkpt>
      <trkpt lat="47.19451" lon="-1.54542">
        <ele>59</ele>
        <time>2021-08-22T08:20:39.000Z</time>
      </trkpt>
      <trkpt lat="47.19457" lon="-1.54524">
        <ele>59</ele>
        <time>2021-08-22T08:20:41.000Z</time>
      </trkpt>
      <trkpt lat="47.19462" lon="-1.54505">
        <ele>59</ele>
        <time>2021-08-22T08:20:43.000Z</time>
      </trkpt>
      <trkpt lat="47.19469" lon="-1.54486">
        <ele>59</ele>
        <time>2021-08-22T08:20:45.000Z</time>
      </trkpt>
      <trkpt lat="47.19474" lon="-1.54468">
        <ele>59</ele>
        <time>2021-08-22T08:20:47.000Z</time>
      </trkpt>
      <trkpt lat="47.19487" lon="-1.54458">
        <ele>59</ele>
        <time>2021-08-22T08:20:49.000Z</time>
      </trkpt>
      <trkpt lat="47.195" lon="-1.54447">
        <ele>60</ele>
        <time>2021-08-22T08:20:51.000Z</time>
      </trkpt>
      <trkpt lat="47.19513" lon="-1.54437">
        <ele>60</ele>
        <time>2021-08-22T08:20:53.000Z</time>
      </trkpt>
      <trkpt lat="47.19526" lon="-1.54427">
        <ele>60</ele>
        <time>2021-08-22T08:20:55.000Z</time>
      </trkpt>
      <trkpt lat="47.19539" lon="-1.54417">
        <ele>60</ele>
        <time>2021-08-22T08:20:57.000Z</time>
      </trkpt>
      <trkpt lat="47.19552" lon="-1.54408">
        <ele>60</ele>
        <time>2021-08-22T08:20:59.000Z</time>
      </trkpt>
      <trkpt lat="47.19565" lon="-1.54398">
        <ele>59</ele>
        <time>2021-08-22T08:21:01.000Z</time>
      </trkpt>
      <trkpt lat="47.19578" lon="-1.54387">
        <ele>60</ele>
        <time>2021-08-22T08:21:03.000Z</time>
      </trkpt>
      <trkpt lat="47.19591" lon="-1.54377">
        <ele>60</ele>
        <time>2021-08-22T08:21:05.000Z</time>
      </trkpt>
      <trkpt lat="47.19603" lon="-1.54365">
        <ele>59</ele>
        <time>2021-08-22T08:21:07.000Z</time>
      </trkpt>
      <trkpt lat="47.19614" lon="-1.54351">
        <ele>59</ele>
        <time>2021-08-22T08:21:09.000Z</time>
      </trkpt>
      <trkpt lat="47.19625" lon="-1.54336">
        <ele>59</ele>
        <time>2021-08-22T08:21:11.000Z</time>
      </trkpt>
      <trkpt lat="47.19636" lon="-1.54321">
        <ele>59</ele>
        <time>2021-08-22T08:21:13.000Z</time>
      </trkpt>
      <trkpt lat="47.19648" lon="-1.54307">
        <ele>60</ele>
        <time>2021-08-22T08:21:15.000Z</time>
      </trkpt>
      <trkpt lat="47.1966" lon="-1.54296">
        <ele>61</ele>
        <time>2021-08-22T08:21:17.000Z</time>
      </trkpt>
      <trkpt lat="47.19672" lon="-1.54286">
        <ele>60</ele>
        <time>2021-08-22T08:21:19.000Z</time>
      </trkpt>
      <trkpt lat="47.19684" lon="-1.54276">
        <ele>60</ele>
        <time>2021-08-22T08:21:21.000Z</time>
      </trkpt>
      <trkpt lat="47.19697" lon="-1.54268">
        <ele>60</ele>
        <time>2021-08-22T08:21:23.000Z</time>
      </trkpt>
      <trkpt lat="47.1971" lon="-1.5426">
        <ele>60</ele>
        <time>2021-08-22T08:21:25.000Z</time>
      </trkpt>
      <trkpt lat="47.19723" lon="-1.54251">
        <ele>60</ele>
        <time>2021-08-22T08:21:27.000Z</time>
      </trkpt>
      <trkpt lat="47.19734" lon="-1.54242">
        <ele>60</ele>
        <time>2021-08-22T08:21:29.000Z</time>
      </trkpt>
      <trkpt lat="47.19744" lon="-1.54234">
        <ele>60</ele>
        <time>2021-08-22T08:21:31.000Z</time>
      </trkpt>
      <trkpt lat="47.19753" lon="-1.54225">
        <ele>59</ele>
        <time>2021-08-22T08:21:33.000Z</time>
      </trkpt>
      <trkpt lat="47.19761" lon="-1.54217">
        <ele>58</ele>
        <time>2021-08-22T08:21:35.000Z</time>
      </trkpt>
      <trkpt lat="47.19771" lon="-1.54216">
        <ele>58</ele>
        <time>2021-08-22T08:21:38.000Z</time>
      </trkpt>
      <trkpt lat="47.19781" lon="-1.54223">
        <ele>58</ele>
        <time>2021-08-22T08:21:40.000Z</time>
      </trkpt>
      <trkpt lat="47.19792" lon="-1.54233">
        <ele>59</ele>
        <time>2021-08-22T08:21:42.000Z</time>
      </trkpt>
      <trkpt lat="47.19803" lon="-1.54245">
        <ele>59</ele>
        <time>2021-08-22T08:21:44.000Z</time>
      </trkpt>
      <trkpt lat="47.19816" lon="-1.54258">
        <ele>59</ele>
        <time>2021-08-22T08:21:46.000Z</time>
      </trkpt>
      <trkpt lat="47.1983" lon="-1.54266">
        <ele>60</ele>
        <time>2021-08-22T08:21:48.000Z</time>
      </trkpt>
      <trkpt lat="47.19843" lon="-1.54275">
        <ele>60</ele>
        <time>2021-08-22T08:21:50.000Z</time>
      </trkpt>
      <trkpt lat="47.19857" lon="-1.54284">
        <ele>60</ele>
        <time>2021-08-22T08:21:52.000Z</time>
      </trkpt>
      <trkpt lat="47.1987" lon="-1.54293">
        <ele>60</ele>
        <time>2021-08-22T08:21:54.000Z</time>
      </trkpt>
      <trkpt lat="47.19883" lon="-1.54303">
        <ele>61</ele>
        <time>2021-08-22T08:21:56.000Z</time>
      </trkpt>
      <trkpt lat="47.19897" lon="-1.54312">
        <ele>61</ele>
        <time>2021-08-22T08:21:58.000Z</time>
      </trkpt>
      <trkpt lat="47.1991" lon="-1.54321">
        <ele>61</ele>
        <time>2021-08-22T08:22:00.000Z</time>
      </trkpt>
      <trkpt lat="47.19923" lon="-1.5433">
        <ele>61</ele>
        <time>2021-08-22T08:22:02.000Z</time>
      </trkpt>
      <trkpt lat="47.19936" lon="-1.54338">
        <ele>61</ele>
        <time>2021-08-22T08:22:04.000Z</time>
      </trkpt>
      <trkpt lat="47.19949" lon="-1.54347">
        <ele>61</ele>
        <time>2021-08-22T08:22:06.000Z</time>
      </trkpt>
      <trkpt lat="47.19963" lon="-1.54356">
        <ele>61</ele>
        <time>2021-08-22T08:22:08.000Z</time>
      </trkpt>
      <trkpt lat="47.19976" lon="-1.54366">
        <ele>61</ele>
        <time>2021-08-22T08:22:10.000Z</time>
      </trkpt>
      <trkpt lat="47.19991" lon="-1.54375">
        <ele>60</ele>
        <time>2021-08-22T08:22:12.000Z</time>
      </trkpt>
      <trkpt lat="47.20004" lon="-1.54384">
        <ele>60</ele>
        <time>2021-08-22T08:22:14.000Z</time>
      </trkpt>
      <trkpt lat="47.20018" lon="-1.54393">
        <ele>60</ele>
        <time>2021-08-22T08:22:16.000Z</time>
      </trkpt>
      <trkpt lat="47.20031" lon="-1.54403">
        <ele>60</ele>
        <time>2021-08-22T08:22:18.000Z</time>
      </trkpt>
      <trkpt lat="47.20046" lon="-1.54411">
        <ele>60</ele>
        <time>2021-08-22T08:22:20.000Z</time>
      </trkpt>
      <trkpt lat="47.2006" lon="-1.5442">
        <ele>61</ele>
        <time>2021-08-22T08:22:22.000Z</time>
      </trkpt>
      <trkpt lat="47.20075" lon="-1.54428">
        <ele>60</ele>
        <time>2021-08-22T08:22:24.000Z</time>
      </trkpt>
      <trkpt lat="47.20089" lon="-1.54436">
        <ele>60</ele>
        <time>2021-08-22T08:22:26.000Z</time>
      </trkpt>
      <trkpt lat="47.20104" lon="-1.54443">
        <ele>60</ele>
        <time>2021-08-22T08:22:28.000Z</time>
      </trkpt>
      <trkpt lat="47.20118" lon="-1.54453">
        <ele>60</ele>
        <time>2021-08-22T08:22:30.000Z</time>
      </trkpt>
      <trkpt lat="47.20132" lon="-1.54464">
        <ele>60</ele>
        <time>2021-08-22T08:22:32.000Z</time>
      </trkpt>
      <trkpt lat="47.20145" lon="-1.54475">
        <ele>60</ele>
        <time>2021-08-22T08:22:34.000Z</time>
      </trkpt>
      <trkpt lat="47.20158" lon="-1.54486">
        <ele>61</ele>
        <time>2021-08-22T08:22:36.000Z</time>
      </trkpt>
      <trkpt lat="47.20171" lon="-1.54495">
        <ele>61</ele>
        <time>2021-08-22T08:22:38.000Z</time>
      </trkpt>
      <trkpt lat="47.20185" lon="-1.54504">
        <ele>62</ele>
        <time>2021-08-22T08:22:40.000Z</time>
      </trkpt>
      <trkpt lat="47.20198" lon="-1.54512">
        <ele>62</ele>
        <time>2021-08-22T08:22:42.000Z</time>
      </trkpt>
      <trkpt lat="47.2021" lon="-1.5452">
        <ele>63</ele>
        <time>2021-08-22T08:22:44.000Z</time>
      </trkpt>
      <trkpt lat="47.20224" lon="-1.54528">
        <ele>64</ele>
        <time>2021-08-22T08:22:46.000Z</time>
      </trkpt>
      <trkpt lat="47.20236" lon="-1.54536">
        <ele>64</ele>
        <time>2021-08-22T08:22:48.000Z</time>
      </trkpt>
      <trkpt lat="47.2025" lon="-1.54544">
        <ele>63</ele>
        <time>2021-08-22T08:22:50.000Z</time>
      </trkpt>
      <trkpt lat="47.20262" lon="-1.54554">
        <ele>63</ele>
        <time>2021-08-22T08:22:52.000Z</time>
      </trkpt>
      <trkpt lat="47.20276" lon="-1.54561">
        <ele>62</ele>
        <time>2021-08-22T08:22:54.000Z</time>
      </trkpt>
      <trkpt lat="47.20289" lon="-1.54572">
        <ele>62</ele>
        <time>2021-08-22T08:22:56.000Z</time>
      </trkpt>
      <trkpt lat="47.20301" lon="-1.5458">
        <ele>62</ele>
        <time>2021-08-22T08:22:58.000Z</time>
      </trkpt>
      <trkpt lat="47.20315" lon="-1.54587">
        <ele>62</ele>
        <time>2021-08-22T08:23:00.000Z</time>
      </trkpt>
      <trkpt lat="47.20328" lon="-1.54594">
        <ele>61</ele>
        <time>2021-08-22T08:23:02.000Z</time>
      </trkpt>
      <trkpt lat="47.20341" lon="-1.54602">
        <ele>60</ele>
        <time>2021-08-22T08:23:04.000Z</time>
      </trkpt>
      <trkpt lat="47.20354" lon="-1.5461">
        <ele>60</ele>
        <time>2021-08-22T08:23:06.000Z</time>
      </trkpt>
      <trkpt lat="47.20367" lon="-1.54618">
        <ele>60</ele>
        <time>2021-08-22T08:23:08.000Z</time>
      </trkpt>
      <trkpt lat="47.2038" lon="-1.54626">
        <ele>60</ele>
        <time>2021-08-22T08:23:10.000Z</time>
      </trkpt>
      <trkpt lat="47.20393" lon="-1.54635">
        <ele>59</ele>
        <time>2021-08-22T08:23:12.000Z</time>
      </trkpt>
      <trkpt lat="47.20406" lon="-1.54643">
        <ele>59</ele>
        <time>2021-08-22T08:23:14.000Z</time>
      </trkpt>
      <trkpt lat="47.20419" lon="-1.54651">
        <ele>59</ele>
        <time>2021-08-22T08:23:16.000Z</time>
      </trkpt>
      <trkpt lat="47.20432" lon="-1.54661">
        <ele>60</ele>
        <time>2021-08-22T08:23:18.000Z</time>
      </trkpt>
      <trkpt lat="47.20444" lon="-1.5467">
        <ele>60</ele>
        <time>2021-08-22T08:23:20.000Z</time>
      </trkpt>
      <trkpt lat="47.20456" lon="-1.54679">
        <ele>61</ele>
        <time>2021-08-22T08:23:22.000Z</time>
      </trkpt>
      <trkpt lat="47.20469" lon="-1.54687">
        <ele>61</ele>
        <time>2021-08-22T08:23:24.000Z</time>
      </trkpt>
      <trkpt lat="47.20481" lon="-1.54694">
        <ele>61</ele>
        <time>2021-08-22T08:23:26.000Z</time>
      </trkpt>
      <trkpt lat="47.20491" lon="-1.54701">
        <ele>62</ele>
        <time>2021-08-22T08:23:28.000Z</time>
      </trkpt>
      <trkpt lat="47.20501" lon="-1.54708">
        <ele>62</ele>
        <time>2021-08-22T08:23:30.000Z</time>
      </trkpt>
      <trkpt lat="47.2051" lon="-1.54715">
        <ele>62</ele>
        <time>2021-08-22T08:23:32.000Z</time>
      </trkpt>
      <trkpt lat="47.2052" lon="-1.5472">
        <ele>62</ele>
        <time>2021-08-22T08:23:34.000Z</time>
      </trkpt>
      <trkpt lat="47.2053" lon="-1.54729">
        <ele>63</ele>
        <time>2021-08-22T08:23:36.000Z</time>
      </trkpt>
      <trkpt lat="47.20542" lon="-1.54739">
        <ele>63</ele>
        <time>2021-08-22T08:23:38.000Z</time>
      </trkpt>
      <trkpt lat="47.20555" lon="-1.54746">
        <ele>63</ele>
        <time>2021-08-22T08:23:40.000Z</time>
      </trkpt>
      <trkpt lat="47.20567" lon="-1.54754">
        <ele>63</ele>
        <time>2021-08-22T08:23:42.000Z</time>
      </trkpt>
      <trkpt lat="47.20578" lon="-1.54759">
        <ele>66</ele>
        <time>2021-08-22T08:23:44.000Z</time>
      </trkpt>
      <trkpt lat="47.20588" lon="-1.54764">
        <ele>67</ele>
        <time>2021-08-22T08:23:46.000Z</time>
      </trkpt>
      <trkpt lat="47.20599" lon="-1.54768">
        <ele>70</ele>
        <time>2021-08-22T08:23:48.000Z</time>
      </trkpt>
      <trkpt lat="47.20612" lon="-1.54778">
        <ele>70</ele>
        <time>2021-08-22T08:23:50.000Z</time>
      </trkpt>
      <trkpt lat="47.20625" lon="-1.5479">
        <ele>68</ele>
        <time>2021-08-22T08:23:52.000Z</time>
      </trkpt>
      <trkpt lat="47.20638" lon="-1.54801">
        <ele>68</ele>
        <time>2021-08-22T08:23:54.000Z</time>
      </trkpt>
      <trkpt lat="47.2065" lon="-1.54812">
        <ele>68</ele>
        <time>2021-08-22T08:23:56.000Z</time>
      </trkpt>
      <trkpt lat="47.20663" lon="-1.54823">
        <ele>66</ele>
        <time>2021-08-22T08:23:58.000Z</time>
      </trkpt>
      <trkpt lat="47.20676" lon="-1.54833">
        <ele>66</ele>
        <time>2021-08-22T08:24:00.000Z</time>
      </trkpt>
      <trkpt lat="47.20691" lon="-1.54843">
        <ele>66</ele>
        <time>2021-08-22T08:24:02.000Z</time>
      </trkpt>
      <trkpt lat="47.20707" lon="-1.54853">
        <ele>64</ele>
        <time>2021-08-22T08:24:04.000Z</time>
      </trkpt>
      <trkpt lat="47.20722" lon="-1.54863">
        <ele>63</ele>
        <time>2021-08-22T08:24:06.000Z</time>
      </trkpt>
      <trkpt lat="47.20736" lon="-1.54872">
        <ele>62</ele>
        <time>2021-08-22T08:24:08.000Z</time>
      </trkpt>
      <trkpt lat="47.2075" lon="-1.54881">
        <ele>62</ele>
        <time>2021-08-22T08:24:10.000Z</time>
      </trkpt>
      <trkpt lat="47.20762" lon="-1.5489">
        <ele>61</ele>
        <time>2021-08-22T08:24:12.000Z</time>
      </trkpt>
      <trkpt lat="47.20774" lon="-1.54898">
        <ele>61</ele>
        <time>2021-08-22T08:24:14.000Z</time>
      </trkpt>
      <trkpt lat="47.20786" lon="-1.54905">
        <ele>61</ele>
        <time>2021-08-22T08:24:16.000Z</time>
      </trkpt>
      <trkpt lat="47.20797" lon="-1.54913">
        <ele>60</ele>
        <time>2021-08-22T08:24:18.000Z</time>
      </trkpt>
      <trkpt lat="47.20809" lon="-1.5492">
        <ele>60</ele>
        <time>2021-08-22T08:24:20.000Z</time>
      </trkpt>
      <trkpt lat="47.2082" lon="-1.54929">
        <ele>59</ele>
        <time>2021-08-22T08:24:22.000Z</time>
      </trkpt>
      <trkpt lat="47.20833" lon="-1.54937">
        <ele>59</ele>
        <time>2021-08-22T08:24:24.000Z</time>
      </trkpt>
      <trkpt lat="47.20845" lon="-1.54945">
        <ele>58</ele>
        <time>2021-08-22T08:24:26.000Z</time>
      </trkpt>
      <trkpt lat="47.20856" lon="-1.54954">
        <ele>58</ele>
        <time>2021-08-22T08:24:28.000Z</time>
      </trkpt>
      <trkpt lat="47.20867" lon="-1.5496">
        <ele>58</ele>
        <time>2021-08-22T08:24:30.000Z</time>
      </trkpt>
      <trkpt lat="47.20877" lon="-1.54948">
        <ele>58</ele>
        <time>2021-08-22T08:24:32.000Z</time>
      </trkpt>
      <trkpt lat="47.20882" lon="-1.54927">
        <ele>58</ele>
        <time>2021-08-22T08:24:34.000Z</time>
      </trkpt>
      <trkpt lat="47.20886" lon="-1.54905">
        <ele>58</ele>
        <time>2021-08-22T08:24:36.000Z</time>
      </trkpt>
      <trkpt lat="47.20893" lon="-1.54871">
        <ele>58</ele>
        <time>2021-08-22T08:24:39.000Z</time>
      </trkpt>
      <trkpt lat="47.20899" lon="-1.54849">
        <ele>58</ele>
        <time>2021-08-22T08:24:41.000Z</time>
      </trkpt>
      <trkpt lat="47.20908" lon="-1.5483">
        <ele>58</ele>
        <time>2021-08-22T08:24:43.000Z</time>
      </trkpt>
      <trkpt lat="47.20917" lon="-1.54809">
        <ele>59</ele>
        <time>2021-08-22T08:24:45.000Z</time>
      </trkpt>
      <trkpt lat="47.20923" lon="-1.54788">
        <ele>58</ele>
        <time>2021-08-22T08:24:47.000Z</time>
      </trkpt>
      <trkpt lat="47.2093" lon="-1.54769">
        <ele>58</ele>
        <time>2021-08-22T08:24:49.000Z</time>
      </trkpt>
      <trkpt lat="47.20937" lon="-1.5475">
        <ele>59</ele>
        <time>2021-08-22T08:24:51.000Z</time>
      </trkpt>
      <trkpt lat="47.20943" lon="-1.5473">
        <ele>59</ele>
        <time>2021-08-22T08:24:53.000Z</time>
      </trkpt>
      <trkpt lat="47.20949" lon="-1.54711">
        <ele>59</ele>
        <time>2021-08-22T08:24:55.000Z</time>
      </trkpt>
      <trkpt lat="47.20954" lon="-1.54691">
        <ele>59</ele>
        <time>2021-08-22T08:24:57.000Z</time>
      </trkpt>
      <trkpt lat="47.2096" lon="-1.54671">
        <ele>59</ele>
        <time>2021-08-22T08:24:59.000Z</time>
      </trkpt>
      <trkpt lat="47.20966" lon="-1.54652">
        <ele>59</ele>
        <time>2021-08-22T08:25:01.000Z</time>
      </trkpt>
      <trkpt lat="47.20976" lon="-1.54622">
        <ele>59</ele>
        <time>2021-08-22T08:25:04.000Z</time>
      </trkpt>
      <trkpt lat="47.20983" lon="-1.54602">
        <ele>58</ele>
        <time>2021-08-22T08:25:06.000Z</time>
      </trkpt>
      <trkpt lat="47.20989" lon="-1.54582">
        <ele>58</ele>
        <time>2021-08-22T08:25:08.000Z</time>
      </trkpt>
      <trkpt lat="47.20995" lon="-1.54562">
        <ele>58</ele>
        <time>2021-08-22T08:25:10.000Z</time>
      </trkpt>
      <trkpt lat="47.21001" lon="-1.54543">
        <ele>59</ele>
        <time>2021-08-22T08:25:12.000Z</time>
      </trkpt>
      <trkpt lat="47.21008" lon="-1.54523">
        <ele>59</ele>
        <time>2021-08-22T08:25:14.000Z</time>
      </trkpt>
      <trkpt lat="47.21015" lon="-1.54504">
        <ele>59</ele>
        <time>2021-08-22T08:25:16.000Z</time>
      </trkpt>
      <trkpt lat="47.2102" lon="-1.54486">
        <ele>60</ele>
        <time>2021-08-22T08:25:18.000Z</time>
      </trkpt>
      <trkpt lat="47.21027" lon="-1.54468">
        <ele>59</ele>
        <time>2021-08-22T08:25:20.000Z</time>
      </trkpt>
      <trkpt lat="47.21034" lon="-1.5445">
        <ele>59</ele>
        <time>2021-08-22T08:25:22.000Z</time>
      </trkpt>
      <trkpt lat="47.2104" lon="-1.54434">
        <ele>59</ele>
        <time>2021-08-22T08:25:24.000Z</time>
      </trkpt>
      <trkpt lat="47.21038" lon="-1.54416">
        <ele>58</ele>
        <time>2021-08-22T08:25:26.000Z</time>
      </trkpt>
      <trkpt lat="47.21047" lon="-1.54405">
        <ele>58</ele>
        <time>2021-08-22T08:25:28.000Z</time>
      </trkpt>
      <trkpt lat="47.21057" lon="-1.54416">
        <ele>57</ele>
        <time>2021-08-22T08:25:30.000Z</time>
      </trkpt>
      <trkpt lat="47.21064" lon="-1.54428">
        <ele>58</ele>
        <time>2021-08-22T08:25:32.000Z</time>
      </trkpt>
      <trkpt lat="47.21077" lon="-1.54435">
        <ele>59</ele>
        <time>2021-08-22T08:25:34.000Z</time>
      </trkpt>
      <trkpt lat="47.21089" lon="-1.54443">
        <ele>59</ele>
        <time>2021-08-22T08:25:36.000Z</time>
      </trkpt>
      <trkpt lat="47.21101" lon="-1.54451">
        <ele>60</ele>
        <time>2021-08-22T08:25:38.000Z</time>
      </trkpt>
      <trkpt lat="47.21113" lon="-1.54459">
        <ele>60</ele>
        <time>2021-08-22T08:25:40.000Z</time>
      </trkpt>
      <trkpt lat="47.21125" lon="-1.54458">
        <ele>61</ele>
        <time>2021-08-22T08:25:42.000Z</time>
      </trkpt>
      <trkpt lat="47.21136" lon="-1.54443">
        <ele>61</ele>
        <time>2021-08-22T08:25:44.000Z</time>
      </trkpt>
      <trkpt lat="47.21142" lon="-1.54425">
        <ele>61</ele>
        <time>2021-08-22T08:25:46.000Z</time>
      </trkpt>
      <trkpt lat="47.2115" lon="-1.54406">
        <ele>60</ele>
        <time>2021-08-22T08:25:48.000Z</time>
      </trkpt>
      <trkpt lat="47.21156" lon="-1.5439">
        <ele>59</ele>
        <time>2021-08-22T08:25:50.000Z</time>
      </trkpt>
      <trkpt lat="47.21161" lon="-1.54378">
        <ele>59</ele>
        <time>2021-08-22T08:25:52.000Z</time>
      </trkpt>
      <trkpt lat="47.21165" lon="-1.54364">
        <ele>60</ele>
        <time>2021-08-22T08:25:55.000Z</time>
      </trkpt>
      <trkpt lat="47.2117" lon="-1.54348">
        <ele>60</ele>
        <time>2021-08-22T08:25:58.000Z</time>
      </trkpt>
      <trkpt lat="47.21179" lon="-1.54337">
        <ele>60</ele>
        <time>2021-08-22T08:26:00.000Z</time>
      </trkpt>
      <trkpt lat="47.21194" lon="-1.54339">
        <ele>60</ele>
        <time>2021-08-22T08:26:02.000Z</time>
      </trkpt>
      <trkpt lat="47.21206" lon="-1.54353">
        <ele>59</ele>
        <time>2021-08-22T08:26:04.000Z</time>
      </trkpt>
      <trkpt lat="47.21215" lon="-1.54367">
        <ele>60</ele>
        <time>2021-08-22T08:26:06.000Z</time>
      </trkpt>
      <trkpt lat="47.21227" lon="-1.54376">
        <ele>61</ele>
        <time>2021-08-22T08:26:08.000Z</time>
      </trkpt>
      <trkpt lat="47.21239" lon="-1.54386">
        <ele>61</ele>
        <time>2021-08-22T08:26:10.000Z</time>
      </trkpt>
      <trkpt lat="47.21252" lon="-1.54396">
        <ele>62</ele>
        <time>2021-08-22T08:26:12.000Z</time>
      </trkpt>
      <trkpt lat="47.21265" lon="-1.54405">
        <ele>62</ele>
        <time>2021-08-22T08:26:14.000Z</time>
      </trkpt>
      <trkpt lat="47.21278" lon="-1.54416">
        <ele>63</ele>
        <time>2021-08-22T08:26:16.000Z</time>
      </trkpt>
      <trkpt lat="47.21291" lon="-1.54427">
        <ele>63</ele>
        <time>2021-08-22T08:26:18.000Z</time>
      </trkpt>
      <trkpt lat="47.21303" lon="-1.54438">
        <ele>64</ele>
        <time>2021-08-22T08:26:20.000Z</time>
      </trkpt>
      <trkpt lat="47.21315" lon="-1.54448">
        <ele>64</ele>
        <time>2021-08-22T08:26:22.000Z</time>
      </trkpt>
      <trkpt lat="47.21328" lon="-1.54458">
        <ele>64</ele>
        <time>2021-08-22T08:26:24.000Z</time>
      </trkpt>
      <trkpt lat="47.21342" lon="-1.54466">
        <ele>63</ele>
        <time>2021-08-22T08:26:26.000Z</time>
      </trkpt>
      <trkpt lat="47.21355" lon="-1.54477">
        <ele>61</ele>
        <time>2021-08-22T08:26:28.000Z</time>
      </trkpt>
      <trkpt lat="47.21366" lon="-1.54487">
        <ele>62</ele>
        <time>2021-08-22T08:26:30.000Z</time>
      </trkpt>
      <trkpt lat="47.21379" lon="-1.54496">
        <ele>62</ele>
        <time>2021-08-22T08:26:32.000Z</time>
      </trkpt>
      <trkpt lat="47.2139" lon="-1.54505">
        <ele>62</ele>
        <time>2021-08-22T08:26:34.000Z</time>
      </trkpt>
      <trkpt lat="47.21402" lon="-1.54514">
        <ele>62</ele>
        <time>2021-08-22T08:26:36.000Z</time>
      </trkpt>
      <trkpt lat="47.21412" lon="-1.54525">
        <ele>63</ele>
        <time>2021-08-22T08:26:38.000Z</time>
      </trkpt>
      <trkpt lat="47.21424" lon="-1.54535">
        <ele>64</ele>
        <time>2021-08-22T08:26:40.000Z</time>
      </trkpt>
      <trkpt lat="47.21435" lon="-1.54543">
        <ele>65</ele>
        <time>2021-08-22T08:26:42.000Z</time>
      </trkpt>
      <trkpt lat="47.21446" lon="-1.54551">
        <ele>64</ele>
        <time>2021-08-22T08:26:44.000Z</time>
      </trkpt>
      <trkpt lat="47.21456" lon="-1.54561">
        <ele>65</ele>
        <time>2021-08-22T08:26:46.000Z</time>
      </trkpt>
      <trkpt lat="47.21468" lon="-1.5457">
        <ele>65</ele>
        <time>2021-08-22T08:26:48.000Z</time>
      </trkpt>
      <trkpt lat="47.21479" lon="-1.5458">
        <ele>65</ele>
        <time>2021-08-22T08:26:50.000Z</time>
      </trkpt>
      <trkpt lat="47.21491" lon="-1.54591">
        <ele>64</ele>
        <time>2021-08-22T08:26:52.000Z</time>
      </trkpt>
      <trkpt lat="47.21501" lon="-1.54605">
        <ele>64</ele>
        <time>2021-08-22T08:26:54.000Z</time>
      </trkpt>
      <trkpt lat="47.21511" lon="-1.54615">
        <ele>64</ele>
        <time>2021-08-22T08:26:56.000Z</time>
      </trkpt>
      <trkpt lat="47.21521" lon="-1.54623">
        <ele>64</ele>
        <time>2021-08-22T08:26:58.000Z</time>
      </trkpt>
      <trkpt lat="47.21531" lon="-1.54631">
        <ele>65</ele>
        <time>2021-08-22T08:27:00.000Z</time>
      </trkpt>
      <trkpt lat="47.2154" lon="-1.5464">
        <ele>65</ele>
        <time>2021-08-22T08:27:02.000Z</time>
      </trkpt>
      <trkpt lat="47.21549" lon="-1.54648">
        <ele>66</ele>
        <time>2021-08-22T08:27:04.000Z</time>
      </trkpt>
      <trkpt lat="47.21558" lon="-1.54656">
        <ele>66</ele>
        <time>2021-08-22T08:27:06.000Z</time>
      </trkpt>
      <trkpt lat="47.21569" lon="-1.54664">
        <ele>66</ele>
        <time>2021-08-22T08:27:08.000Z</time>
      </trkpt>
      <trkpt lat="47.2158" lon="-1.54671">
        <ele>65</ele>
        <time>2021-08-22T08:27:10.000Z</time>
      </trkpt>
      <trkpt lat="47.21593" lon="-1.54677">
        <ele>64</ele>
        <time>2021-08-22T08:27:12.000Z</time>
      </trkpt>
      <trkpt lat="47.21607" lon="-1.54678">
        <ele>62</ele>
        <time>2021-08-22T08:27:14.000Z</time>
      </trkpt>
      <trkpt lat="47.21621" lon="-1.54678">
        <ele>61</ele>
        <time>2021-08-22T08:27:16.000Z</time>
      </trkpt>
      <trkpt lat="47.2163" lon="-1.54671">
        <ele>60</ele>
        <time>2021-08-22T08:27:18.000Z</time>
      </trkpt>
      <trkpt lat="47.21642" lon="-1.54676">
        <ele>60</ele>
        <time>2021-08-22T08:27:21.000Z</time>
      </trkpt>
      <trkpt lat="47.21652" lon="-1.54686">
        <ele>60</ele>
        <time>2021-08-22T08:27:23.000Z</time>
      </trkpt>
      <trkpt lat="47.21663" lon="-1.54699">
        <ele>60</ele>
        <time>2021-08-22T08:27:25.000Z</time>
      </trkpt>
      <trkpt lat="47.21674" lon="-1.54711">
        <ele>61</ele>
        <time>2021-08-22T08:27:27.000Z</time>
      </trkpt>
      <trkpt lat="47.21685" lon="-1.5472">
        <ele>61</ele>
        <time>2021-08-22T08:27:29.000Z</time>
      </trkpt>
      <trkpt lat="47.21697" lon="-1.54728">
        <ele>62</ele>
        <time>2021-08-22T08:27:31.000Z</time>
      </trkpt>
      <trkpt lat="47.21708" lon="-1.54738">
        <ele>62</ele>
        <time>2021-08-22T08:27:33.000Z</time>
      </trkpt>
      <trkpt lat="47.2172" lon="-1.54747">
        <ele>63</ele>
        <time>2021-08-22T08:27:35.000Z</time>
      </trkpt>
      <trkpt lat="47.2173" lon="-1.54756">
        <ele>63</ele>
        <time>2021-08-22T08:27:37.000Z</time>
      </trkpt>
      <trkpt lat="47.21741" lon="-1.54765">
        <ele>64</ele>
        <time>2021-08-22T08:27:39.000Z</time>
      </trkpt>
      <trkpt lat="47.21752" lon="-1.54772">
        <ele>64</ele>
        <time>2021-08-22T08:27:41.000Z</time>
      </trkpt>
      <trkpt lat="47.21765" lon="-1.54779">
        <ele>64</ele>
        <time>2021-08-22T08:27:43.000Z</time>
      </trkpt>
      <trkpt lat="47.21778" lon="-1.54786">
        <ele>64</ele>
        <time>2021-08-22T08:27:45.000Z</time>
      </trkpt>
      <trkpt lat="47.2179" lon="-1.54796">
        <ele>64</ele>
        <time>2021-08-22T08:27:47.000Z</time>
      </trkpt>
      <trkpt lat="47.21801" lon="-1.54805">
        <ele>65</ele>
        <time>2021-08-22T08:27:49.000Z</time>
      </trkpt>
      <trkpt lat="47.21812" lon="-1.54815">
        <ele>65</ele>
        <time>2021-08-22T08:27:51.000Z</time>
      </trkpt>
      <trkpt lat="47.21824" lon="-1.54824">
        <ele>65</ele>
        <time>2021-08-22T08:27:53.000Z</time>
      </trkpt>
      <trkpt lat="47.21835" lon="-1.54832">
        <ele>64</ele>
        <time>2021-08-22T08:27:55.000Z</time>
      </trkpt>
      <trkpt lat="47.21847" lon="-1.54841">
        <ele>64</ele>
        <time>2021-08-22T08:27:57.000Z</time>
      </trkpt>
      <trkpt lat="47.21857" lon="-1.5485">
        <ele>64</ele>
        <time>2021-08-22T08:27:59.000Z</time>
      </trkpt>
      <trkpt lat="47.21868" lon="-1.54858">
        <ele>64</ele>
        <time>2021-08-22T08:28:01.000Z</time>
      </trkpt>
      <trkpt lat="47.21878" lon="-1.54869">
        <ele>67</ele>
        <time>2021-08-22T08:28:03.000Z</time>
      </trkpt>
      <trkpt lat="47.21888" lon="-1.54878">
        <ele>68</ele>
        <time>2021-08-22T08:28:05.000Z</time>
      </trkpt>
      <trkpt lat="47.21898" lon="-1.54887">
        <ele>68</ele>
        <time>2021-08-22T08:28:07.000Z</time>
      </trkpt>
      <trkpt lat="47.21907" lon="-1.54894">
        <ele>69</ele>
        <time>2021-08-22T08:28:09.000Z</time>
      </trkpt>
      <trkpt lat="47.21918" lon="-1.54903">
        <ele>69</ele>
        <time>2021-08-22T08:28:12.000Z</time>
      </trkpt>
      <trkpt lat="47.21927" lon="-1.5491">
        <ele>69</ele>
        <time>2021-08-22T08:28:15.000Z</time>
      </trkpt>
      <trkpt lat="47.21936" lon="-1.54918">
        <ele>70</ele>
        <time>2021-08-22T08:28:20.000Z</time>
      </trkpt>
      <trkpt lat="47.21947" lon="-1.54926">
        <ele>71</ele>
        <time>2021-08-22T08:28:27.000Z</time>
      </trkpt>
      <trkpt lat="47.21958" lon="-1.54938">
        <ele>73</ele>
        <time>2021-08-22T08:28:29.000Z</time>
      </trkpt>
      <trkpt lat="47.21968" lon="-1.54948">
        <ele>73</ele>
        <time>2021-08-22T08:28:31.000Z</time>
      </trkpt>
      <trkpt lat="47.21979" lon="-1.54955">
        <ele>73</ele>
        <time>2021-08-22T08:28:33.000Z</time>
      </trkpt>
      <trkpt lat="47.21989" lon="-1.54962">
        <ele>73</ele>
        <time>2021-08-22T08:28:35.000Z</time>
      </trkpt>
      <trkpt lat="47.22" lon="-1.54971">
        <ele>72</ele>
        <time>2021-08-22T08:28:37.000Z</time>
      </trkpt>
      <trkpt lat="47.22011" lon="-1.54981">
        <ele>71</ele>
        <time>2021-08-22T08:28:39.000Z</time>
      </trkpt>
      <trkpt lat="47.22022" lon="-1.5499">
        <ele>71</ele>
        <time>2021-08-22T08:28:41.000Z</time>
      </trkpt>
      <trkpt lat="47.22034" lon="-1.54999">
        <ele>71</ele>
        <time>2021-08-22T08:28:43.000Z</time>
      </trkpt>
      <trkpt lat="47.22045" lon="-1.55008">
        <ele>71</ele>
        <time>2021-08-22T08:28:45.000Z</time>
      </trkpt>
      <trkpt lat="47.22057" lon="-1.55017">
        <ele>70</ele>
        <time>2021-08-22T08:28:47.000Z</time>
      </trkpt>
      <trkpt lat="47.22068" lon="-1.55026">
        <ele>69</ele>
        <time>2021-08-22T08:28:49.000Z</time>
      </trkpt>
      <trkpt lat="47.2208" lon="-1.55036">
        <ele>69</ele>
        <time>2021-08-22T08:28:51.000Z</time>
      </trkpt>
      <trkpt lat="47.22091" lon="-1.55047">
        <ele>70</ele>
        <time>2021-08-22T08:28:53.000Z</time>
      </trkpt>
      <trkpt lat="47.22102" lon="-1.55057">
        <ele>70</ele>
        <time>2021-08-22T08:28:55.000Z</time>
      </trkpt>
      <trkpt lat="47.22114" lon="-1.55066">
        <ele>69</ele>
        <time>2021-08-22T08:28:57.000Z</time>
      </trkpt>
      <trkpt lat="47.22126" lon="-1.55076">
        <ele>70</ele>
        <time>2021-08-22T08:28:59.000Z</time>
      </trkpt>
      <trkpt lat="47.22137" lon="-1.55085">
        <ele>70</ele>
        <time>2021-08-22T08:29:01.000Z</time>
      </trkpt>
      <trkpt lat="47.2215" lon="-1.55094">
        <ele>69</ele>
        <time>2021-08-22T08:29:03.000Z</time>
      </trkpt>
      <trkpt lat="47.22162" lon="-1.55106">
        <ele>69</ele>
        <time>2021-08-22T08:29:05.000Z</time>
      </trkpt>
      <trkpt lat="47.22174" lon="-1.55113">
        <ele>70</ele>
        <time>2021-08-22T08:29:07.000Z</time>
      </trkpt>
      <trkpt lat="47.22186" lon="-1.55121">
        <ele>70</ele>
        <time>2021-08-22T08:29:09.000Z</time>
      </trkpt>
      <trkpt lat="47.22198" lon="-1.55132">
        <ele>71</ele>
        <time>2021-08-22T08:29:11.000Z</time>
      </trkpt>
      <trkpt lat="47.22212" lon="-1.55145">
        <ele>71</ele>
        <time>2021-08-22T08:29:13.000Z</time>
      </trkpt>
      <trkpt lat="47.2222" lon="-1.55152">
        <ele>71</ele>
        <time>2021-08-22T08:29:14.000Z</time>
      </trkpt>
      <trkpt lat="47.22235" lon="-1.55164">
        <ele>71</ele>
        <time>2021-08-22T08:29:16.000Z</time>
      </trkpt>
      <trkpt lat="47.22251" lon="-1.55175">
        <ele>70</ele>
        <time>2021-08-22T08:29:18.000Z</time>
      </trkpt>
      <trkpt lat="47.22266" lon="-1.55191">
        <ele>69</ele>
        <time>2021-08-22T08:29:20.000Z</time>
      </trkpt>
      <trkpt lat="47.22278" lon="-1.55205">
        <ele>68</ele>
        <time>2021-08-22T08:29:22.000Z</time>
      </trkpt>
      <trkpt lat="47.22291" lon="-1.55214">
        <ele>68</ele>
        <time>2021-08-22T08:29:24.000Z</time>
      </trkpt>
      <trkpt lat="47.22302" lon="-1.55228">
        <ele>67</ele>
        <time>2021-08-22T08:29:26.000Z</time>
      </trkpt>
      <trkpt lat="47.22314" lon="-1.55238">
        <ele>66</ele>
        <time>2021-08-22T08:29:28.000Z</time>
      </trkpt>
      <trkpt lat="47.22327" lon="-1.55248">
        <ele>66</ele>
        <time>2021-08-22T08:29:30.000Z</time>
      </trkpt>
      <trkpt lat="47.22342" lon="-1.55256">
        <ele>66</ele>
        <time>2021-08-22T08:29:32.000Z</time>
      </trkpt>
      <trkpt lat="47.22356" lon="-1.55261">
        <ele>66</ele>
        <time>2021-08-22T08:29:34.000Z</time>
      </trkpt>
      <trkpt lat="47.2237" lon="-1.55266">
        <ele>66</ele>
        <time>2021-08-22T08:29:36.000Z</time>
      </trkpt>
      <trkpt lat="47.22385" lon="-1.55269">
        <ele>66</ele>
        <time>2021-08-22T08:29:38.000Z</time>
      </trkpt>
      <trkpt lat="47.224" lon="-1.55272">
        <ele>66</ele>
        <time>2021-08-22T08:29:40.000Z</time>
      </trkpt>
      <trkpt lat="47.22414" lon="-1.55275">
        <ele>65</ele>
        <time>2021-08-22T08:29:42.000Z</time>
      </trkpt>
      <trkpt lat="47.22428" lon="-1.55278">
        <ele>65</ele>
        <time>2021-08-22T08:29:44.000Z</time>
      </trkpt>
      <trkpt lat="47.22441" lon="-1.5528">
        <ele>64</ele>
        <time>2021-08-22T08:29:46.000Z</time>
      </trkpt>
      <trkpt lat="47.22453" lon="-1.55282">
        <ele>63</ele>
        <time>2021-08-22T08:29:48.000Z</time>
      </trkpt>
      <trkpt lat="47.22463" lon="-1.55285">
        <ele>63</ele>
        <time>2021-08-22T08:29:50.000Z</time>
      </trkpt>
      <trkpt lat="47.22474" lon="-1.55289">
        <ele>64</ele>
        <time>2021-08-22T08:29:52.000Z</time>
      </trkpt>
      <trkpt lat="47.22486" lon="-1.55291">
        <ele>63</ele>
        <time>2021-08-22T08:29:54.000Z</time>
      </trkpt>
      <trkpt lat="47.22499" lon="-1.55292">
        <ele>64</ele>
        <time>2021-08-22T08:29:56.000Z</time>
      </trkpt>
      <trkpt lat="47.22513" lon="-1.55294">
        <ele>64</ele>
        <time>2021-08-22T08:29:58.000Z</time>
      </trkpt>
      <trkpt lat="47.22528" lon="-1.55297">
        <ele>64</ele>
        <time>2021-08-22T08:30:00.000Z</time>
      </trkpt>
      <trkpt lat="47.22541" lon="-1.55301">
        <ele>64</ele>
        <time>2021-08-22T08:30:02.000Z</time>
      </trkpt>
      <trkpt lat="47.22555" lon="-1.55304">
        <ele>64</ele>
        <time>2021-08-22T08:30:04.000Z</time>
      </trkpt>
      <trkpt lat="47.22569" lon="-1.55307">
        <ele>64</ele>
        <time>2021-08-22T08:30:06.000Z</time>
      </trkpt>
      <trkpt lat="47.22583" lon="-1.55309">
        <ele>63</ele>
        <time>2021-08-22T08:30:08.000Z</time>
      </trkpt>
      <trkpt lat="47.22596" lon="-1.55312">
        <ele>63</ele>
        <time>2021-08-22T08:30:10.000Z</time>
      </trkpt>
      <trkpt lat="47.22609" lon="-1.55314">
        <ele>63</ele>
        <time>2021-08-22T08:30:12.000Z</time>
      </trkpt>
      <trkpt lat="47.22622" lon="-1.55316">
        <ele>64</ele>
        <time>2021-08-22T08:30:14.000Z</time>
      </trkpt>
      <trkpt lat="47.22635" lon="-1.55318">
        <ele>64</ele>
        <time>2021-08-22T08:30:16.000Z</time>
      </trkpt>
      <trkpt lat="47.22647" lon="-1.55318">
        <ele>64</ele>
        <time>2021-08-22T08:30:18.000Z</time>
      </trkpt>
      <trkpt lat="47.2266" lon="-1.5532">
        <ele>64</ele>
        <time>2021-08-22T08:30:20.000Z</time>
      </trkpt>
      <trkpt lat="47.22673" lon="-1.55322">
        <ele>64</ele>
        <time>2021-08-22T08:30:22.000Z</time>
      </trkpt>
      <trkpt lat="47.22686" lon="-1.55323">
        <ele>64</ele>
        <time>2021-08-22T08:30:24.000Z</time>
      </trkpt>
      <trkpt lat="47.22699" lon="-1.55319">
        <ele>64</ele>
        <time>2021-08-22T08:30:26.000Z</time>
      </trkpt>
      <trkpt lat="47.2271" lon="-1.55311">
        <ele>63</ele>
        <time>2021-08-22T08:30:28.000Z</time>
      </trkpt>
      <trkpt lat="47.22719" lon="-1.553">
        <ele>64</ele>
        <time>2021-08-22T08:30:30.000Z</time>
      </trkpt>
      <trkpt lat="47.22727" lon="-1.55288">
        <ele>64</ele>
        <time>2021-08-22T08:30:32.000Z</time>
      </trkpt>
      <trkpt lat="47.22734" lon="-1.55279">
        <ele>64</ele>
        <time>2021-08-22T08:30:35.000Z</time>
      </trkpt>
      <trkpt lat="47.22743" lon="-1.5527">
        <ele>65</ele>
        <time>2021-08-22T08:30:39.000Z</time>
      </trkpt>
      <trkpt lat="47.2275" lon="-1.55262">
        <ele>65</ele>
        <time>2021-08-22T08:30:41.000Z</time>
      </trkpt>
      <trkpt lat="47.22757" lon="-1.55252">
        <ele>65</ele>
        <time>2021-08-22T08:30:43.000Z</time>
      </trkpt>
      <trkpt lat="47.22766" lon="-1.5524">
        <ele>65</ele>
        <time>2021-08-22T08:30:45.000Z</time>
      </trkpt>
      <trkpt lat="47.22772" lon="-1.55229">
        <ele>66</ele>
        <time>2021-08-22T08:30:47.000Z</time>
      </trkpt>
      <trkpt lat="47.22781" lon="-1.55218">
        <ele>66</ele>
        <time>2021-08-22T08:30:50.000Z</time>
      </trkpt>
      <trkpt lat="47.22795" lon="-1.5522">
        <ele>66</ele>
        <time>2021-08-22T08:30:53.000Z</time>
      </trkpt>
      <trkpt lat="47.22804" lon="-1.55232">
        <ele>66</ele>
        <time>2021-08-22T08:30:55.000Z</time>
      </trkpt>
      <trkpt lat="47.22812" lon="-1.55243">
        <ele>66</ele>
        <time>2021-08-22T08:30:57.000Z</time>
      </trkpt>
      <trkpt lat="47.22819" lon="-1.55255">
        <ele>65</ele>
        <time>2021-08-22T08:30:59.000Z</time>
      </trkpt>
      <trkpt lat="47.22825" lon="-1.55265">
        <ele>65</ele>
        <time>2021-08-22T08:31:01.000Z</time>
      </trkpt>
      <trkpt lat="47.22833" lon="-1.5528">
        <ele>65</ele>
        <time>2021-08-22T08:31:04.000Z</time>
      </trkpt>
      <trkpt lat="47.22841" lon="-1.5529">
        <ele>65</ele>
        <time>2021-08-22T08:31:07.000Z</time>
      </trkpt>
      <trkpt lat="47.2285" lon="-1.55303">
        <ele>65</ele>
        <time>2021-08-22T08:31:10.000Z</time>
      </trkpt>
      <trkpt lat="47.22859" lon="-1.55309">
        <ele>64</ele>
        <time>2021-08-22T08:31:12.000Z</time>
      </trkpt>
      <trkpt lat="47.22867" lon="-1.55298">
        <ele>63</ele>
        <time>2021-08-22T08:31:14.000Z</time>
      </trkpt>
      <trkpt lat="47.22877" lon="-1.55286">
        <ele>63</ele>
        <time>2021-08-22T08:31:16.000Z</time>
      </trkpt>
      <trkpt lat="47.22888" lon="-1.55273">
        <ele>62</ele>
        <time>2021-08-22T08:31:18.000Z</time>
      </trkpt>
      <trkpt lat="47.22899" lon="-1.5526">
        <ele>62</ele>
        <time>2021-08-22T08:31:20.000Z</time>
      </trkpt>
      <trkpt lat="47.2291" lon="-1.55246">
        <ele>61</ele>
        <time>2021-08-22T08:31:22.000Z</time>
      </trkpt>
      <trkpt lat="47.22921" lon="-1.55232">
        <ele>61</ele>
        <time>2021-08-22T08:31:24.000Z</time>
      </trkpt>
      <trkpt lat="47.22932" lon="-1.5522">
        <ele>60</ele>
        <time>2021-08-22T08:31:26.000Z</time>
      </trkpt>
      <trkpt lat="47.22943" lon="-1.55207">
        <ele>59</ele>
        <time>2021-08-22T08:31:28.000Z</time>
      </trkpt>
      <trkpt lat="47.22954" lon="-1.55192">
        <ele>58</ele>
        <time>2021-08-22T08:31:30.000Z</time>
      </trkpt>
      <trkpt lat="47.22967" lon="-1.55176">
        <ele>58</ele>
        <time>2021-08-22T08:31:32.000Z</time>
      </trkpt>
      <trkpt lat="47.2298" lon="-1.55159">
        <ele>58</ele>
        <time>2021-08-22T08:31:34.000Z</time>
      </trkpt>
      <trkpt lat="47.22993" lon="-1.55143">
        <ele>57</ele>
        <time>2021-08-22T08:31:36.000Z</time>
      </trkpt>
      <trkpt lat="47.23006" lon="-1.55127">
        <ele>57</ele>
        <time>2021-08-22T08:31:38.000Z</time>
      </trkpt>
      <trkpt lat="47.23018" lon="-1.55112">
        <ele>57</ele>
        <time>2021-08-22T08:31:40.000Z</time>
      </trkpt>
      <trkpt lat="47.2303" lon="-1.55097">
        <ele>57</ele>
        <time>2021-08-22T08:31:42.000Z</time>
      </trkpt>
      <trkpt lat="47.23043" lon="-1.55081">
        <ele>57</ele>
        <time>2021-08-22T08:31:44.000Z</time>
      </trkpt>
      <trkpt lat="47.23056" lon="-1.55066">
        <ele>56</ele>
        <time>2021-08-22T08:31:46.000Z</time>
      </trkpt>
      <trkpt lat="47.23069" lon="-1.55052">
        <ele>57</ele>
        <time>2021-08-22T08:31:48.000Z</time>
      </trkpt>
      <trkpt lat="47.23082" lon="-1.55038">
        <ele>57</ele>
        <time>2021-08-22T08:31:50.000Z</time>
      </trkpt>
      <trkpt lat="47.23096" lon="-1.55021">
        <ele>58</ele>
        <time>2021-08-22T08:31:52.000Z</time>
      </trkpt>
      <trkpt lat="47.23104" lon="-1.55012">
        <ele>58</ele>
        <time>2021-08-22T08:31:53.000Z</time>
      </trkpt>
      <trkpt lat="47.23111" lon="-1.55005">
        <ele>58</ele>
        <time>2021-08-22T08:31:54.000Z</time>
      </trkpt>
      <trkpt lat="47.23119" lon="-1.54996">
        <ele>58</ele>
        <time>2021-08-22T08:31:55.000Z</time>
      </trkpt>
      <trkpt lat="47.23127" lon="-1.54988">
        <ele>58</ele>
        <time>2021-08-22T08:31:56.000Z</time>
      </trkpt>
      <trkpt lat="47.23134" lon="-1.5498">
        <ele>58</ele>
        <time>2021-08-22T08:31:57.000Z</time>
      </trkpt>
      <trkpt lat="47.23141" lon="-1.54972">
        <ele>59</ele>
        <time>2021-08-22T08:31:58.000Z</time>
      </trkpt>
      <trkpt lat="47.23149" lon="-1.54964">
        <ele>58</ele>
        <time>2021-08-22T08:31:59.000Z</time>
      </trkpt>
      <trkpt lat="47.23164" lon="-1.54949">
        <ele>58</ele>
        <time>2021-08-22T08:32:01.000Z</time>
      </trkpt>
      <trkpt lat="47.23177" lon="-1.54934">
        <ele>58</ele>
        <time>2021-08-22T08:32:03.000Z</time>
      </trkpt>
      <trkpt lat="47.23191" lon="-1.54922">
        <ele>59</ele>
        <time>2021-08-22T08:32:05.000Z</time>
      </trkpt>
      <trkpt lat="47.23204" lon="-1.54911">
        <ele>59</ele>
        <time>2021-08-22T08:32:07.000Z</time>
      </trkpt>
      <trkpt lat="47.23219" lon="-1.54902">
        <ele>59</ele>
        <time>2021-08-22T08:32:09.000Z</time>
      </trkpt>
      <trkpt lat="47.23233" lon="-1.54895">
        <ele>60</ele>
        <time>2021-08-22T08:32:11.000Z</time>
      </trkpt>
      <trkpt lat="47.23248" lon="-1.54889">
        <ele>60</ele>
        <time>2021-08-22T08:32:13.000Z</time>
      </trkpt>
      <trkpt lat="47.23263" lon="-1.54883">
        <ele>59</ele>
        <time>2021-08-22T08:32:15.000Z</time>
      </trkpt>
      <trkpt lat="47.23279" lon="-1.5488">
        <ele>58</ele>
        <time>2021-08-22T08:32:17.000Z</time>
      </trkpt>
      <trkpt lat="47.23295" lon="-1.5488">
        <ele>58</ele>
        <time>2021-08-22T08:32:19.000Z</time>
      </trkpt>
      <trkpt lat="47.2331" lon="-1.5488">
        <ele>58</ele>
        <time>2021-08-22T08:32:21.000Z</time>
      </trkpt>
      <trkpt lat="47.23326" lon="-1.54882">
        <ele>57</ele>
        <time>2021-08-22T08:32:23.000Z</time>
      </trkpt>
      <trkpt lat="47.23341" lon="-1.54884">
        <ele>57</ele>
        <time>2021-08-22T08:32:25.000Z</time>
      </trkpt>
      <trkpt lat="47.23356" lon="-1.54885">
        <ele>57</ele>
        <time>2021-08-22T08:32:27.000Z</time>
      </trkpt>
      <trkpt lat="47.23372" lon="-1.54885">
        <ele>57</ele>
        <time>2021-08-22T08:32:29.000Z</time>
      </trkpt>
      <trkpt lat="47.23387" lon="-1.54887">
        <ele>56</ele>
        <time>2021-08-22T08:32:31.000Z</time>
      </trkpt>
      <trkpt lat="47.23401" lon="-1.54888">
        <ele>56</ele>
        <time>2021-08-22T08:32:33.000Z</time>
      </trkpt>
      <trkpt lat="47.23415" lon="-1.54888">
        <ele>57</ele>
        <time>2021-08-22T08:32:35.000Z</time>
      </trkpt>
      <trkpt lat="47.23429" lon="-1.5489">
        <ele>57</ele>
        <time>2021-08-22T08:32:37.000Z</time>
      </trkpt>
      <trkpt lat="47.23443" lon="-1.54892">
        <ele>56</ele>
        <time>2021-08-22T08:32:39.000Z</time>
      </trkpt>
      <trkpt lat="47.23457" lon="-1.54894">
        <ele>55</ele>
        <time>2021-08-22T08:32:41.000Z</time>
      </trkpt>
      <trkpt lat="47.23471" lon="-1.54897">
        <ele>55</ele>
        <time>2021-08-22T08:32:43.000Z</time>
      </trkpt>
      <trkpt lat="47.23485" lon="-1.54901">
        <ele>55</ele>
        <time>2021-08-22T08:32:45.000Z</time>
      </trkpt>
      <trkpt lat="47.23498" lon="-1.54904">
        <ele>55</ele>
        <time>2021-08-22T08:32:47.000Z</time>
      </trkpt>
      <trkpt lat="47.23511" lon="-1.54907">
        <ele>55</ele>
        <time>2021-08-22T08:32:49.000Z</time>
      </trkpt>
      <trkpt lat="47.23524" lon="-1.54911">
        <ele>55</ele>
        <time>2021-08-22T08:32:51.000Z</time>
      </trkpt>
      <trkpt lat="47.23536" lon="-1.54917">
        <ele>55</ele>
        <time>2021-08-22T08:32:53.000Z</time>
      </trkpt>
      <trkpt lat="47.23546" lon="-1.54928">
        <ele>56</ele>
        <time>2021-08-22T08:32:55.000Z</time>
      </trkpt>
      <trkpt lat="47.23554" lon="-1.54941">
        <ele>56</ele>
        <time>2021-08-22T08:32:57.000Z</time>
      </trkpt>
      <trkpt lat="47.23561" lon="-1.54953">
        <ele>55</ele>
        <time>2021-08-22T08:32:59.000Z</time>
      </trkpt>
      <trkpt lat="47.2357" lon="-1.54964">
        <ele>56</ele>
        <time>2021-08-22T08:33:01.000Z</time>
      </trkpt>
      <trkpt lat="47.23576" lon="-1.54978">
        <ele>57</ele>
        <time>2021-08-22T08:33:03.000Z</time>
      </trkpt>
      <trkpt lat="47.23583" lon="-1.54993">
        <ele>58</ele>
        <time>2021-08-22T08:33:05.000Z</time>
      </trkpt>
      <trkpt lat="47.23591" lon="-1.55007">
        <ele>58</ele>
        <time>2021-08-22T08:33:07.000Z</time>
      </trkpt>
      <trkpt lat="47.236" lon="-1.5502">
        <ele>58</ele>
        <time>2021-08-22T08:33:09.000Z</time>
      </trkpt>
      <trkpt lat="47.23609" lon="-1.55031">
        <ele>58</ele>
        <time>2021-08-22T08:33:11.000Z</time>
      </trkpt>
      <trkpt lat="47.23619" lon="-1.5504">
        <ele>58</ele>
        <time>2021-08-22T08:33:13.000Z</time>
      </trkpt>
      <trkpt lat="47.23628" lon="-1.55047">
        <ele>57</ele>
        <time>2021-08-22T08:33:15.000Z</time>
      </trkpt>
      <trkpt lat="47.23639" lon="-1.55047">
        <ele>57</ele>
        <time>2021-08-22T08:33:17.000Z</time>
      </trkpt>
      <trkpt lat="47.23649" lon="-1.5505">
        <ele>56</ele>
        <time>2021-08-22T08:33:19.000Z</time>
      </trkpt>
      <trkpt lat="47.23659" lon="-1.55053">
        <ele>57</ele>
        <time>2021-08-22T08:33:21.000Z</time>
      </trkpt>
      <trkpt lat="47.23669" lon="-1.5506">
        <ele>57</ele>
        <time>2021-08-22T08:33:23.000Z</time>
      </trkpt>
      <trkpt lat="47.23678" lon="-1.55069">
        <ele>58</ele>
        <time>2021-08-22T08:33:25.000Z</time>
      </trkpt>
      <trkpt lat="47.2369" lon="-1.55075">
        <ele>58</ele>
        <time>2021-08-22T08:33:27.000Z</time>
      </trkpt>
      <trkpt lat="47.23703" lon="-1.55081">
        <ele>59</ele>
        <time>2021-08-22T08:33:29.000Z</time>
      </trkpt>
      <trkpt lat="47.23711" lon="-1.55096">
        <ele>59</ele>
        <time>2021-08-22T08:33:31.000Z</time>
      </trkpt>
      <trkpt lat="47.23716" lon="-1.55115">
        <ele>59</ele>
        <time>2021-08-22T08:33:33.000Z</time>
      </trkpt>
      <trkpt lat="47.23721" lon="-1.55132">
        <ele>59</ele>
        <time>2021-08-22T08:33:35.000Z</time>
      </trkpt>
      <trkpt lat="47.23723" lon="-1.55148">
        <ele>59</ele>
        <time>2021-08-22T08:33:37.000Z</time>
      </trkpt>
      <trkpt lat="47.23731" lon="-1.55159">
        <ele>59</ele>
        <time>2021-08-22T08:33:39.000Z</time>
      </trkpt>
      <trkpt lat="47.23742" lon="-1.55162">
        <ele>60</ele>
        <time>2021-08-22T08:33:41.000Z</time>
      </trkpt>
      <trkpt lat="47.23756" lon="-1.55165">
        <ele>60</ele>
        <time>2021-08-22T08:33:43.000Z</time>
      </trkpt>
      <trkpt lat="47.23768" lon="-1.55168">
        <ele>60</ele>
        <time>2021-08-22T08:33:45.000Z</time>
      </trkpt>
      <trkpt lat="47.2378" lon="-1.55172">
        <ele>60</ele>
        <time>2021-08-22T08:33:47.000Z</time>
      </trkpt>
      <trkpt lat="47.23792" lon="-1.55177">
        <ele>60</ele>
        <time>2021-08-22T08:33:49.000Z</time>
      </trkpt>
      <trkpt lat="47.23803" lon="-1.55186">
        <ele>60</ele>
        <time>2021-08-22T08:33:51.000Z</time>
      </trkpt>
      <trkpt lat="47.23813" lon="-1.55196">
        <ele>60</ele>
        <time>2021-08-22T08:33:53.000Z</time>
      </trkpt>
      <trkpt lat="47.23822" lon="-1.55208">
        <ele>60</ele>
        <time>2021-08-22T08:33:55.000Z</time>
      </trkpt>
      <trkpt lat="47.2383" lon="-1.55222">
        <ele>60</ele>
        <time>2021-08-22T08:33:57.000Z</time>
      </trkpt>
      <trkpt lat="47.23837" lon="-1.55238">
        <ele>60</ele>
        <time>2021-08-22T08:33:59.000Z</time>
      </trkpt>
      <trkpt lat="47.23843" lon="-1.55254">
        <ele>59</ele>
        <time>2021-08-22T08:34:01.000Z</time>
      </trkpt>
      <trkpt lat="47.2385" lon="-1.5527">
        <ele>59</ele>
        <time>2021-08-22T08:34:03.000Z</time>
      </trkpt>
      <trkpt lat="47.23858" lon="-1.55286">
        <ele>59</ele>
        <time>2021-08-22T08:34:05.000Z</time>
      </trkpt>
      <trkpt lat="47.23865" lon="-1.55301">
        <ele>60</ele>
        <time>2021-08-22T08:34:07.000Z</time>
      </trkpt>
      <trkpt lat="47.23872" lon="-1.55316">
        <ele>60</ele>
        <time>2021-08-22T08:34:09.000Z</time>
      </trkpt>
      <trkpt lat="47.23881" lon="-1.5533">
        <ele>61</ele>
        <time>2021-08-22T08:34:11.000Z</time>
      </trkpt>
      <trkpt lat="47.2389" lon="-1.55343">
        <ele>63</ele>
        <time>2021-08-22T08:34:13.000Z</time>
      </trkpt>
      <trkpt lat="47.239" lon="-1.55354">
        <ele>64</ele>
        <time>2021-08-22T08:34:15.000Z</time>
      </trkpt>
      <trkpt lat="47.23911" lon="-1.55366">
        <ele>63</ele>
        <time>2021-08-22T08:34:17.000Z</time>
      </trkpt>
      <trkpt lat="47.2392" lon="-1.55378">
        <ele>64</ele>
        <time>2021-08-22T08:34:19.000Z</time>
      </trkpt>
      <trkpt lat="47.23929" lon="-1.55389">
        <ele>64</ele>
        <time>2021-08-22T08:34:21.000Z</time>
      </trkpt>
      <trkpt lat="47.23937" lon="-1.55403">
        <ele>63</ele>
        <time>2021-08-22T08:34:23.000Z</time>
      </trkpt>
      <trkpt lat="47.23944" lon="-1.55417">
        <ele>64</ele>
        <time>2021-08-22T08:34:25.000Z</time>
      </trkpt>
      <trkpt lat="47.23951" lon="-1.55428">
        <ele>64</ele>
        <time>2021-08-22T08:34:27.000Z</time>
      </trkpt>
      <trkpt lat="47.23952" lon="-1.55442">
        <ele>64</ele>
        <time>2021-08-22T08:34:29.000Z</time>
      </trkpt>
      <trkpt lat="47.2395" lon="-1.5546">
        <ele>64</ele>
        <time>2021-08-22T08:34:31.000Z</time>
      </trkpt>
      <trkpt lat="47.23948" lon="-1.55477">
        <ele>66</ele>
        <time>2021-08-22T08:34:33.000Z</time>
      </trkpt>
      <trkpt lat="47.23952" lon="-1.5549">
        <ele>68</ele>
        <time>2021-08-22T08:34:35.000Z</time>
      </trkpt>
      <trkpt lat="47.23959" lon="-1.55502">
        <ele>68</ele>
        <time>2021-08-22T08:34:37.000Z</time>
      </trkpt>
      <trkpt lat="47.23967" lon="-1.55515">
        <ele>68</ele>
        <time>2021-08-22T08:34:39.000Z</time>
      </trkpt>
      <trkpt lat="47.23978" lon="-1.55527">
        <ele>68</ele>
        <time>2021-08-22T08:34:41.000Z</time>
      </trkpt>
      <trkpt lat="47.23989" lon="-1.55537">
        <ele>68</ele>
        <time>2021-08-22T08:34:43.000Z</time>
      </trkpt>
      <trkpt lat="47.24" lon="-1.55548">
        <ele>69</ele>
        <time>2021-08-22T08:34:45.000Z</time>
      </trkpt>
      <trkpt lat="47.24011" lon="-1.55559">
        <ele>69</ele>
        <time>2021-08-22T08:34:47.000Z</time>
      </trkpt>
      <trkpt lat="47.24021" lon="-1.5557">
        <ele>68</ele>
        <time>2021-08-22T08:34:49.000Z</time>
      </trkpt>
      <trkpt lat="47.24031" lon="-1.55582">
        <ele>68</ele>
        <time>2021-08-22T08:34:51.000Z</time>
      </trkpt>
      <trkpt lat="47.2404" lon="-1.55593">
        <ele>69</ele>
        <time>2021-08-22T08:34:53.000Z</time>
      </trkpt>
      <trkpt lat="47.2405" lon="-1.55604">
        <ele>69</ele>
        <time>2021-08-22T08:34:55.000Z</time>
      </trkpt>
      <trkpt lat="47.2406" lon="-1.55616">
        <ele>69</ele>
        <time>2021-08-22T08:34:57.000Z</time>
      </trkpt>
      <trkpt lat="47.24069" lon="-1.55626">
        <ele>69</ele>
        <time>2021-08-22T08:34:59.000Z</time>
      </trkpt>
      <trkpt lat="47.24078" lon="-1.55636">
        <ele>69</ele>
        <time>2021-08-22T08:35:01.000Z</time>
      </trkpt>
      <trkpt lat="47.24089" lon="-1.55644">
        <ele>69</ele>
        <time>2021-08-22T08:35:03.000Z</time>
      </trkpt>
      <trkpt lat="47.241" lon="-1.55652">
        <ele>69</ele>
        <time>2021-08-22T08:35:05.000Z</time>
      </trkpt>
      <trkpt lat="47.24112" lon="-1.5566">
        <ele>69</ele>
        <time>2021-08-22T08:35:07.000Z</time>
      </trkpt>
      <trkpt lat="47.24124" lon="-1.55663">
        <ele>69</ele>
        <time>2021-08-22T08:35:09.000Z</time>
      </trkpt>
      <trkpt lat="47.24139" lon="-1.5566">
        <ele>69</ele>
        <time>2021-08-22T08:35:11.000Z</time>
      </trkpt>
      <trkpt lat="47.24154" lon="-1.55657">
        <ele>69</ele>
        <time>2021-08-22T08:35:13.000Z</time>
      </trkpt>
      <trkpt lat="47.24171" lon="-1.55654">
        <ele>68</ele>
        <time>2021-08-22T08:35:15.000Z</time>
      </trkpt>
      <trkpt lat="47.24189" lon="-1.55652">
        <ele>67</ele>
        <time>2021-08-22T08:35:17.000Z</time>
      </trkpt>
      <trkpt lat="47.24206" lon="-1.55649">
        <ele>66</ele>
        <time>2021-08-22T08:35:19.000Z</time>
      </trkpt>
      <trkpt lat="47.24223" lon="-1.55648">
        <ele>65</ele>
        <time>2021-08-22T08:35:21.000Z</time>
      </trkpt>
      <trkpt lat="47.2424" lon="-1.55646">
        <ele>65</ele>
        <time>2021-08-22T08:35:23.000Z</time>
      </trkpt>
      <trkpt lat="47.24257" lon="-1.55645">
        <ele>65</ele>
        <time>2021-08-22T08:35:25.000Z</time>
      </trkpt>
      <trkpt lat="47.24273" lon="-1.55643">
        <ele>65</ele>
        <time>2021-08-22T08:35:27.000Z</time>
      </trkpt>
      <trkpt lat="47.24287" lon="-1.5564">
        <ele>65</ele>
        <time>2021-08-22T08:35:29.000Z</time>
      </trkpt>
      <trkpt lat="47.243" lon="-1.55637">
        <ele>66</ele>
        <time>2021-08-22T08:35:31.000Z</time>
      </trkpt>
      <trkpt lat="47.24314" lon="-1.55637">
        <ele>65</ele>
        <time>2021-08-22T08:35:33.000Z</time>
      </trkpt>
      <trkpt lat="47.24327" lon="-1.55637">
        <ele>66</ele>
        <time>2021-08-22T08:35:35.000Z</time>
      </trkpt>
      <trkpt lat="47.2434" lon="-1.55635">
        <ele>66</ele>
        <time>2021-08-22T08:35:37.000Z</time>
      </trkpt>
      <trkpt lat="47.24353" lon="-1.55634">
        <ele>66</ele>
        <time>2021-08-22T08:35:39.000Z</time>
      </trkpt>
      <trkpt lat="47.24365" lon="-1.55631">
        <ele>66</ele>
        <time>2021-08-22T08:35:41.000Z</time>
      </trkpt>
      <trkpt lat="47.24375" lon="-1.55625">
        <ele>66</ele>
        <time>2021-08-22T08:35:43.000Z</time>
      </trkpt>
      <trkpt lat="47.2439" lon="-1.55621">
        <ele>66</ele>
        <time>2021-08-22T08:35:45.000Z</time>
      </trkpt>
      <trkpt lat="47.24403" lon="-1.5562">
        <ele>66</ele>
        <time>2021-08-22T08:35:47.000Z</time>
      </trkpt>
      <trkpt lat="47.24417" lon="-1.55619">
        <ele>67</ele>
        <time>2021-08-22T08:35:49.000Z</time>
      </trkpt>
      <trkpt lat="47.24429" lon="-1.55619">
        <ele>67</ele>
        <time>2021-08-22T08:35:51.000Z</time>
      </trkpt>
      <trkpt lat="47.24442" lon="-1.55618">
        <ele>68</ele>
        <time>2021-08-22T08:35:53.000Z</time>
      </trkpt>
      <trkpt lat="47.24455" lon="-1.55615">
        <ele>67</ele>
        <time>2021-08-22T08:35:55.000Z</time>
      </trkpt>
      <trkpt lat="47.24468" lon="-1.55612">
        <ele>68</ele>
        <time>2021-08-22T08:35:57.000Z</time>
      </trkpt>
      <trkpt lat="47.2448" lon="-1.55609">
        <ele>68</ele>
        <time>2021-08-22T08:35:59.000Z</time>
      </trkpt>
      <trkpt lat="47.24492" lon="-1.55604">
        <ele>68</ele>
        <time>2021-08-22T08:36:01.000Z</time>
      </trkpt>
      <trkpt lat="47.24504" lon="-1.556">
        <ele>68</ele>
        <time>2021-08-22T08:36:03.000Z</time>
      </trkpt>
      <trkpt lat="47.24515" lon="-1.55595">
        <ele>68</ele>
        <time>2021-08-22T08:36:05.000Z</time>
      </trkpt>
      <trkpt lat="47.24527" lon="-1.5559">
        <ele>67</ele>
        <time>2021-08-22T08:36:07.000Z</time>
      </trkpt>
      <trkpt lat="47.24538" lon="-1.55583">
        <ele>66</ele>
        <time>2021-08-22T08:36:09.000Z</time>
      </trkpt>
      <trkpt lat="47.24548" lon="-1.55574">
        <ele>65</ele>
        <time>2021-08-22T08:36:11.000Z</time>
      </trkpt>
      <trkpt lat="47.24559" lon="-1.55566">
        <ele>66</ele>
        <time>2021-08-22T08:36:13.000Z</time>
      </trkpt>
      <trkpt lat="47.2457" lon="-1.55559">
        <ele>66</ele>
        <time>2021-08-22T08:36:15.000Z</time>
      </trkpt>
      <trkpt lat="47.24582" lon="-1.55554">
        <ele>66</ele>
        <time>2021-08-22T08:36:17.000Z</time>
      </trkpt>
      <trkpt lat="47.24595" lon="-1.55549">
        <ele>66</ele>
        <time>2021-08-22T08:36:19.000Z</time>
      </trkpt>
      <trkpt lat="47.24608" lon="-1.55544">
        <ele>66</ele>
        <time>2021-08-22T08:36:21.000Z</time>
      </trkpt>
      <trkpt lat="47.24622" lon="-1.55542">
        <ele>66</ele>
        <time>2021-08-22T08:36:23.000Z</time>
      </trkpt>
      <trkpt lat="47.24635" lon="-1.5554">
        <ele>65</ele>
        <time>2021-08-22T08:36:25.000Z</time>
      </trkpt>
      <trkpt lat="47.24647" lon="-1.55534">
        <ele>65</ele>
        <time>2021-08-22T08:36:27.000Z</time>
      </trkpt>
      <trkpt lat="47.24661" lon="-1.55533">
        <ele>63</ele>
        <time>2021-08-22T08:36:29.000Z</time>
      </trkpt>
      <trkpt lat="47.24675" lon="-1.55533">
        <ele>64</ele>
        <time>2021-08-22T08:36:31.000Z</time>
      </trkpt>
      <trkpt lat="47.24688" lon="-1.5553">
        <ele>63</ele>
        <time>2021-08-22T08:36:33.000Z</time>
      </trkpt>
      <trkpt lat="47.24701" lon="-1.55527">
        <ele>63</ele>
        <time>2021-08-22T08:36:35.000Z</time>
      </trkpt>
      <trkpt lat="47.24713" lon="-1.55524">
        <ele>64</ele>
        <time>2021-08-22T08:36:37.000Z</time>
      </trkpt>
      <trkpt lat="47.24725" lon="-1.55519">
        <ele>64</ele>
        <time>2021-08-22T08:36:39.000Z</time>
      </trkpt>
      <trkpt lat="47.24737" lon="-1.55516">
        <ele>65</ele>
        <time>2021-08-22T08:36:41.000Z</time>
      </trkpt>
      <trkpt lat="47.24748" lon="-1.55511">
        <ele>67</ele>
        <time>2021-08-22T08:36:43.000Z</time>
      </trkpt>
      <trkpt lat="47.24759" lon="-1.55507">
        <ele>68</ele>
        <time>2021-08-22T08:36:45.000Z</time>
      </trkpt>
      <trkpt lat="47.24769" lon="-1.55503">
        <ele>69</ele>
        <time>2021-08-22T08:36:47.000Z</time>
      </trkpt>
      <trkpt lat="47.24779" lon="-1.55499">
        <ele>70</ele>
        <time>2021-08-22T08:36:49.000Z</time>
      </trkpt>
      <trkpt lat="47.24789" lon="-1.55495">
        <ele>71</ele>
        <time>2021-08-22T08:36:51.000Z</time>
      </trkpt>
      <trkpt lat="47.24799" lon="-1.55491">
        <ele>72</ele>
        <time>2021-08-22T08:36:53.000Z</time>
      </trkpt>
      <trkpt lat="47.2481" lon="-1.55487">
        <ele>73</ele>
        <time>2021-08-22T08:36:55.000Z</time>
      </trkpt>
      <trkpt lat="47.24819" lon="-1.55482">
        <ele>74</ele>
        <time>2021-08-22T08:36:57.000Z</time>
      </trkpt>
      <trkpt lat="47.24829" lon="-1.55477">
        <ele>75</ele>
        <time>2021-08-22T08:36:59.000Z</time>
      </trkpt>
      <trkpt lat="47.24839" lon="-1.55474">
        <ele>76</ele>
        <time>2021-08-22T08:37:01.000Z</time>
      </trkpt>
      <trkpt lat="47.24849" lon="-1.5547">
        <ele>77</ele>
        <time>2021-08-22T08:37:03.000Z</time>
      </trkpt>
      <trkpt lat="47.24858" lon="-1.55468">
        <ele>77</ele>
        <time>2021-08-22T08:37:05.000Z</time>
      </trkpt>
      <trkpt lat="47.24868" lon="-1.55464">
        <ele>78</ele>
        <time>2021-08-22T08:37:07.000Z</time>
      </trkpt>
      <trkpt lat="47.24877" lon="-1.55459">
        <ele>79</ele>
        <time>2021-08-22T08:37:09.000Z</time>
      </trkpt>
      <trkpt lat="47.24887" lon="-1.55455">
        <ele>80</ele>
        <time>2021-08-22T08:37:11.000Z</time>
      </trkpt>
      <trkpt lat="47.24896" lon="-1.55453">
        <ele>80</ele>
        <time>2021-08-22T08:37:13.000Z</time>
      </trkpt>
      <trkpt lat="47.24905" lon="-1.55448">
        <ele>81</ele>
        <time>2021-08-22T08:37:15.000Z</time>
      </trkpt>
      <trkpt lat="47.24913" lon="-1.55438">
        <ele>81</ele>
        <time>2021-08-22T08:37:17.000Z</time>
      </trkpt>
      <trkpt lat="47.24921" lon="-1.55429">
        <ele>81</ele>
        <time>2021-08-22T08:37:19.000Z</time>
      </trkpt>
      <trkpt lat="47.24932" lon="-1.55431">
        <ele>82</ele>
        <time>2021-08-22T08:37:21.000Z</time>
      </trkpt>
      <trkpt lat="47.24944" lon="-1.55435">
        <ele>83</ele>
        <time>2021-08-22T08:37:23.000Z</time>
      </trkpt>
      <trkpt lat="47.24956" lon="-1.55431">
        <ele>84</ele>
        <time>2021-08-22T08:37:25.000Z</time>
      </trkpt>
      <trkpt lat="47.24969" lon="-1.55426">
        <ele>84</ele>
        <time>2021-08-22T08:37:27.000Z</time>
      </trkpt>
      <trkpt lat="47.24982" lon="-1.55421">
        <ele>84</ele>
        <time>2021-08-22T08:37:29.000Z</time>
      </trkpt>
      <trkpt lat="47.24996" lon="-1.55415">
        <ele>83</ele>
        <time>2021-08-22T08:37:31.000Z</time>
      </trkpt>
      <trkpt lat="47.2501" lon="-1.5541">
        <ele>83</ele>
        <time>2021-08-22T08:37:33.000Z</time>
      </trkpt>
      <trkpt lat="47.25025" lon="-1.55404">
        <ele>83</ele>
        <time>2021-08-22T08:37:35.000Z</time>
      </trkpt>
      <trkpt lat="47.25042" lon="-1.55398">
        <ele>81</ele>
        <time>2021-08-22T08:37:37.000Z</time>
      </trkpt>
      <trkpt lat="47.25051" lon="-1.55394">
        <ele>80</ele>
        <time>2021-08-22T08:37:38.000Z</time>
      </trkpt>
      <trkpt lat="47.2506" lon="-1.55391">
        <ele>78</ele>
        <time>2021-08-22T08:37:39.000Z</time>
      </trkpt>
      <trkpt lat="47.2507" lon="-1.55387">
        <ele>78</ele>
        <time>2021-08-22T08:37:40.000Z</time>
      </trkpt>
      <trkpt lat="47.25079" lon="-1.55384">
        <ele>77</ele>
        <time>2021-08-22T08:37:41.000Z</time>
      </trkpt>
      <trkpt lat="47.25089" lon="-1.5538">
        <ele>77</ele>
        <time>2021-08-22T08:37:42.000Z</time>
      </trkpt>
      <trkpt lat="47.25099" lon="-1.55376">
        <ele>76</ele>
        <time>2021-08-22T08:37:43.000Z</time>
      </trkpt>
      <trkpt lat="47.25108" lon="-1.55373">
        <ele>75</ele>
        <time>2021-08-22T08:37:44.000Z</time>
      </trkpt>
      <trkpt lat="47.25118" lon="-1.55369">
        <ele>74</ele>
        <time>2021-08-22T08:37:45.000Z</time>
      </trkpt>
      <trkpt lat="47.25137" lon="-1.55363">
        <ele>73</ele>
        <time>2021-08-22T08:37:47.000Z</time>
      </trkpt>
      <trkpt lat="47.25147" lon="-1.55358">
        <ele>73</ele>
        <time>2021-08-22T08:37:48.000Z</time>
      </trkpt>
      <trkpt lat="47.25158" lon="-1.55354">
        <ele>72</ele>
        <time>2021-08-22T08:37:49.000Z</time>
      </trkpt>
      <trkpt lat="47.25168" lon="-1.5535">
        <ele>72</ele>
        <time>2021-08-22T08:37:50.000Z</time>
      </trkpt>
      <trkpt lat="47.25177" lon="-1.55346">
        <ele>71</ele>
        <time>2021-08-22T08:37:51.000Z</time>
      </trkpt>
      <trkpt lat="47.25187" lon="-1.55343">
        <ele>71</ele>
        <time>2021-08-22T08:37:52.000Z</time>
      </trkpt>
      <trkpt lat="47.25201" lon="-1.55338">
        <ele>70</ele>
        <time>2021-08-22T08:37:54.000Z</time>
      </trkpt>
      <trkpt lat="47.25212" lon="-1.55336">
        <ele>70</ele>
        <time>2021-08-22T08:37:56.000Z</time>
      </trkpt>
      <trkpt lat="47.25221" lon="-1.55329">
        <ele>69</ele>
        <time>2021-08-22T08:37:58.000Z</time>
      </trkpt>
      <trkpt lat="47.25231" lon="-1.55317">
        <ele>69</ele>
        <time>2021-08-22T08:38:00.000Z</time>
      </trkpt>
      <trkpt lat="47.25245" lon="-1.55314">
        <ele>69</ele>
        <time>2021-08-22T08:38:02.000Z</time>
      </trkpt>
      <trkpt lat="47.25259" lon="-1.5531">
        <ele>69</ele>
        <time>2021-08-22T08:38:04.000Z</time>
      </trkpt>
      <trkpt lat="47.25274" lon="-1.55304">
        <ele>70</ele>
        <time>2021-08-22T08:38:06.000Z</time>
      </trkpt>
      <trkpt lat="47.25295" lon="-1.55294">
        <ele>71</ele>
        <time>2021-08-22T08:38:09.000Z</time>
      </trkpt>
      <trkpt lat="47.25309" lon="-1.55289">
        <ele>71</ele>
        <time>2021-08-22T08:38:11.000Z</time>
      </trkpt>
      <trkpt lat="47.25323" lon="-1.55284">
        <ele>71</ele>
        <time>2021-08-22T08:38:13.000Z</time>
      </trkpt>
      <trkpt lat="47.25337" lon="-1.55279">
        <ele>72</ele>
        <time>2021-08-22T08:38:15.000Z</time>
      </trkpt>
      <trkpt lat="47.25352" lon="-1.55274">
        <ele>72</ele>
        <time>2021-08-22T08:38:17.000Z</time>
      </trkpt>
      <trkpt lat="47.25366" lon="-1.5527">
        <ele>71</ele>
        <time>2021-08-22T08:38:19.000Z</time>
      </trkpt>
      <trkpt lat="47.2538" lon="-1.55264">
        <ele>72</ele>
        <time>2021-08-22T08:38:21.000Z</time>
      </trkpt>
      <trkpt lat="47.25393" lon="-1.55259">
        <ele>72</ele>
        <time>2021-08-22T08:38:23.000Z</time>
      </trkpt>
      <trkpt lat="47.25407" lon="-1.55257">
        <ele>72</ele>
        <time>2021-08-22T08:38:25.000Z</time>
      </trkpt>
      <trkpt lat="47.25421" lon="-1.55254">
        <ele>72</ele>
        <time>2021-08-22T08:38:27.000Z</time>
      </trkpt>
      <trkpt lat="47.25435" lon="-1.55254">
        <ele>73</ele>
        <time>2021-08-22T08:38:29.000Z</time>
      </trkpt>
      <trkpt lat="47.25449" lon="-1.55253">
        <ele>73</ele>
        <time>2021-08-22T08:38:31.000Z</time>
      </trkpt>
      <trkpt lat="47.25463" lon="-1.55255">
        <ele>73</ele>
        <time>2021-08-22T08:38:33.000Z</time>
      </trkpt>
      <trkpt lat="47.25479" lon="-1.55257">
        <ele>73</ele>
        <time>2021-08-22T08:38:35.000Z</time>
      </trkpt>
      <trkpt lat="47.25495" lon="-1.5526">
        <ele>73</ele>
        <time>2021-08-22T08:38:37.000Z</time>
      </trkpt>
      <trkpt lat="47.2551" lon="-1.55266">
        <ele>74</ele>
        <time>2021-08-22T08:38:39.000Z</time>
      </trkpt>
      <trkpt lat="47.25525" lon="-1.55275">
        <ele>73</ele>
        <time>2021-08-22T08:38:41.000Z</time>
      </trkpt>
      <trkpt lat="47.25539" lon="-1.55286">
        <ele>73</ele>
        <time>2021-08-22T08:38:43.000Z</time>
      </trkpt>
      <trkpt lat="47.25554" lon="-1.55298">
        <ele>73</ele>
        <time>2021-08-22T08:38:45.000Z</time>
      </trkpt>
      <trkpt lat="47.25568" lon="-1.55311">
        <ele>71</ele>
        <time>2021-08-22T08:38:47.000Z</time>
      </trkpt>
      <trkpt lat="47.25582" lon="-1.55327">
        <ele>71</ele>
        <time>2021-08-22T08:38:49.000Z</time>
      </trkpt>
      <trkpt lat="47.25596" lon="-1.55344">
        <ele>70</ele>
        <time>2021-08-22T08:38:51.000Z</time>
      </trkpt>
      <trkpt lat="47.25608" lon="-1.55362">
        <ele>69</ele>
        <time>2021-08-22T08:38:53.000Z</time>
      </trkpt>
      <trkpt lat="47.25614" lon="-1.55372">
        <ele>69</ele>
        <time>2021-08-22T08:38:54.000Z</time>
      </trkpt>
      <trkpt lat="47.2562" lon="-1.55382">
        <ele>69</ele>
        <time>2021-08-22T08:38:55.000Z</time>
      </trkpt>
      <trkpt lat="47.2563" lon="-1.55404">
        <ele>68</ele>
        <time>2021-08-22T08:38:57.000Z</time>
      </trkpt>
      <trkpt lat="47.2564" lon="-1.55425">
        <ele>68</ele>
        <time>2021-08-22T08:38:59.000Z</time>
      </trkpt>
      <trkpt lat="47.25648" lon="-1.55446">
        <ele>68</ele>
        <time>2021-08-22T08:39:01.000Z</time>
      </trkpt>
      <trkpt lat="47.25656" lon="-1.55467">
        <ele>68</ele>
        <time>2021-08-22T08:39:03.000Z</time>
      </trkpt>
      <trkpt lat="47.25663" lon="-1.55487">
        <ele>68</ele>
        <time>2021-08-22T08:39:05.000Z</time>
      </trkpt>
      <trkpt lat="47.25669" lon="-1.55507">
        <ele>67</ele>
        <time>2021-08-22T08:39:07.000Z</time>
      </trkpt>
      <trkpt lat="47.25676" lon="-1.55526">
        <ele>67</ele>
        <time>2021-08-22T08:39:09.000Z</time>
      </trkpt>
      <trkpt lat="47.25682" lon="-1.55545">
        <ele>66</ele>
        <time>2021-08-22T08:39:11.000Z</time>
      </trkpt>
      <trkpt lat="47.25689" lon="-1.55563">
        <ele>66</ele>
        <time>2021-08-22T08:39:13.000Z</time>
      </trkpt>
      <trkpt lat="47.25697" lon="-1.55581">
        <ele>67</ele>
        <time>2021-08-22T08:39:15.000Z</time>
      </trkpt>
      <trkpt lat="47.25705" lon="-1.55598">
        <ele>67</ele>
        <time>2021-08-22T08:39:17.000Z</time>
      </trkpt>
      <trkpt lat="47.25714" lon="-1.55613">
        <ele>68</ele>
        <time>2021-08-22T08:39:19.000Z</time>
      </trkpt>
      <trkpt lat="47.25725" lon="-1.55627">
        <ele>68</ele>
        <time>2021-08-22T08:39:21.000Z</time>
      </trkpt>
      <trkpt lat="47.25735" lon="-1.55641">
        <ele>68</ele>
        <time>2021-08-22T08:39:23.000Z</time>
      </trkpt>
      <trkpt lat="47.25747" lon="-1.55653">
        <ele>68</ele>
        <time>2021-08-22T08:39:25.000Z</time>
      </trkpt>
      <trkpt lat="47.25759" lon="-1.55665">
        <ele>68</ele>
        <time>2021-08-22T08:39:27.000Z</time>
      </trkpt>
      <trkpt lat="47.25773" lon="-1.55675">
        <ele>68</ele>
        <time>2021-08-22T08:39:29.000Z</time>
      </trkpt>
      <trkpt lat="47.25787" lon="-1.55685">
        <ele>68</ele>
        <time>2021-08-22T08:39:31.000Z</time>
      </trkpt>
      <trkpt lat="47.25801" lon="-1.55692">
        <ele>66</ele>
        <time>2021-08-22T08:39:33.000Z</time>
      </trkpt>
      <trkpt lat="47.25815" lon="-1.55699">
        <ele>66</ele>
        <time>2021-08-22T08:39:35.000Z</time>
      </trkpt>
      <trkpt lat="47.2583" lon="-1.55705">
        <ele>65</ele>
        <time>2021-08-22T08:39:37.000Z</time>
      </trkpt>
      <trkpt lat="47.25845" lon="-1.55709">
        <ele>64</ele>
        <time>2021-08-22T08:39:39.000Z</time>
      </trkpt>
      <trkpt lat="47.25861" lon="-1.55711">
        <ele>63</ele>
        <time>2021-08-22T08:39:41.000Z</time>
      </trkpt>
      <trkpt lat="47.25877" lon="-1.55714">
        <ele>62</ele>
        <time>2021-08-22T08:39:43.000Z</time>
      </trkpt>
      <trkpt lat="47.25894" lon="-1.55716">
        <ele>62</ele>
        <time>2021-08-22T08:39:45.000Z</time>
      </trkpt>
      <trkpt lat="47.25909" lon="-1.55718">
        <ele>62</ele>
        <time>2021-08-22T08:39:47.000Z</time>
      </trkpt>
      <trkpt lat="47.25923" lon="-1.55715">
        <ele>62</ele>
        <time>2021-08-22T08:39:49.000Z</time>
      </trkpt>
      <trkpt lat="47.25935" lon="-1.55714">
        <ele>62</ele>
        <time>2021-08-22T08:39:51.000Z</time>
      </trkpt>
      <trkpt lat="47.25941" lon="-1.55699">
        <ele>62</ele>
        <time>2021-08-22T08:39:54.000Z</time>
      </trkpt>
      <trkpt lat="47.25946" lon="-1.55682">
        <ele>63</ele>
        <time>2021-08-22T08:39:56.000Z</time>
      </trkpt>
      <trkpt lat="47.25949" lon="-1.55662">
        <ele>63</ele>
        <time>2021-08-22T08:39:58.000Z</time>
      </trkpt>
      <trkpt lat="47.25956" lon="-1.55645">
        <ele>63</ele>
        <time>2021-08-22T08:40:00.000Z</time>
      </trkpt>
      <trkpt lat="47.25965" lon="-1.55631">
        <ele>63</ele>
        <time>2021-08-22T08:40:02.000Z</time>
      </trkpt>
      <trkpt lat="47.25975" lon="-1.55621">
        <ele>63</ele>
        <time>2021-08-22T08:40:04.000Z</time>
      </trkpt>
      <trkpt lat="47.25983" lon="-1.55612">
        <ele>63</ele>
        <time>2021-08-22T08:40:06.000Z</time>
      </trkpt>
      <trkpt lat="47.25991" lon="-1.55604">
        <ele>63</ele>
        <time>2021-08-22T08:40:08.000Z</time>
      </trkpt>
      <trkpt lat="47.25999" lon="-1.55596">
        <ele>63</ele>
        <time>2021-08-22T08:40:10.000Z</time>
      </trkpt>
      <trkpt lat="47.26002" lon="-1.55577">
        <ele>62</ele>
        <time>2021-08-22T08:40:12.000Z</time>
      </trkpt>
      <trkpt lat="47.26008" lon="-1.55555">
        <ele>61</ele>
        <time>2021-08-22T08:40:14.000Z</time>
      </trkpt>
      <trkpt lat="47.26015" lon="-1.55533">
        <ele>61</ele>
        <time>2021-08-22T08:40:16.000Z</time>
      </trkpt>
      <trkpt lat="47.26023" lon="-1.55511">
        <ele>60</ele>
        <time>2021-08-22T08:40:18.000Z</time>
      </trkpt>
      <trkpt lat="47.26031" lon="-1.55489">
        <ele>60</ele>
        <time>2021-08-22T08:40:20.000Z</time>
      </trkpt>
      <trkpt lat="47.26038" lon="-1.55468">
        <ele>59</ele>
        <time>2021-08-22T08:40:22.000Z</time>
      </trkpt>
      <trkpt lat="47.26044" lon="-1.55447">
        <ele>59</ele>
        <time>2021-08-22T08:40:24.000Z</time>
      </trkpt>
      <trkpt lat="47.2605" lon="-1.55425">
        <ele>58</ele>
        <time>2021-08-22T08:40:26.000Z</time>
      </trkpt>
      <trkpt lat="47.26057" lon="-1.55406">
        <ele>57</ele>
        <time>2021-08-22T08:40:28.000Z</time>
      </trkpt>
      <trkpt lat="47.26065" lon="-1.55387">
        <ele>57</ele>
        <time>2021-08-22T08:40:30.000Z</time>
      </trkpt>
      <trkpt lat="47.26074" lon="-1.5537">
        <ele>56</ele>
        <time>2021-08-22T08:40:32.000Z</time>
      </trkpt>
      <trkpt lat="47.26082" lon="-1.55351">
        <ele>57</ele>
        <time>2021-08-22T08:40:34.000Z</time>
      </trkpt>
      <trkpt lat="47.26089" lon="-1.55333">
        <ele>56</ele>
        <time>2021-08-22T08:40:36.000Z</time>
      </trkpt>
      <trkpt lat="47.26097" lon="-1.55315">
        <ele>56</ele>
        <time>2021-08-22T08:40:38.000Z</time>
      </trkpt>
      <trkpt lat="47.26106" lon="-1.553">
        <ele>56</ele>
        <time>2021-08-22T08:40:40.000Z</time>
      </trkpt>
      <trkpt lat="47.26112" lon="-1.5528">
        <ele>56</ele>
        <time>2021-08-22T08:40:42.000Z</time>
      </trkpt>
      <trkpt lat="47.26117" lon="-1.55259">
        <ele>56</ele>
        <time>2021-08-22T08:40:44.000Z</time>
      </trkpt>
      <trkpt lat="47.26123" lon="-1.55238">
        <ele>56</ele>
        <time>2021-08-22T08:40:46.000Z</time>
      </trkpt>
      <trkpt lat="47.2613" lon="-1.55218">
        <ele>56</ele>
        <time>2021-08-22T08:40:48.000Z</time>
      </trkpt>
      <trkpt lat="47.26135" lon="-1.55198">
        <ele>56</ele>
        <time>2021-08-22T08:40:50.000Z</time>
      </trkpt>
      <trkpt lat="47.26142" lon="-1.55178">
        <ele>56</ele>
        <time>2021-08-22T08:40:52.000Z</time>
      </trkpt>
      <trkpt lat="47.26149" lon="-1.55159">
        <ele>56</ele>
        <time>2021-08-22T08:40:54.000Z</time>
      </trkpt>
      <trkpt lat="47.26156" lon="-1.55141">
        <ele>56</ele>
        <time>2021-08-22T08:40:56.000Z</time>
      </trkpt>
      <trkpt lat="47.26163" lon="-1.55122">
        <ele>56</ele>
        <time>2021-08-22T08:40:58.000Z</time>
      </trkpt>
      <trkpt lat="47.2617" lon="-1.55104">
        <ele>57</ele>
        <time>2021-08-22T08:41:00.000Z</time>
      </trkpt>
      <trkpt lat="47.26179" lon="-1.55086">
        <ele>57</ele>
        <time>2021-08-22T08:41:02.000Z</time>
      </trkpt>
      <trkpt lat="47.26187" lon="-1.55068">
        <ele>57</ele>
        <time>2021-08-22T08:41:04.000Z</time>
      </trkpt>
      <trkpt lat="47.26195" lon="-1.55051">
        <ele>57</ele>
        <time>2021-08-22T08:41:06.000Z</time>
      </trkpt>
      <trkpt lat="47.26203" lon="-1.55034">
        <ele>57</ele>
        <time>2021-08-22T08:41:08.000Z</time>
      </trkpt>
      <trkpt lat="47.26212" lon="-1.55018">
        <ele>57</ele>
        <time>2021-08-22T08:41:10.000Z</time>
      </trkpt>
      <trkpt lat="47.26221" lon="-1.55002">
        <ele>57</ele>
        <time>2021-08-22T08:41:12.000Z</time>
      </trkpt>
      <trkpt lat="47.2623" lon="-1.54986">
        <ele>57</ele>
        <time>2021-08-22T08:41:14.000Z</time>
      </trkpt>
      <trkpt lat="47.26239" lon="-1.5497">
        <ele>58</ele>
        <time>2021-08-22T08:41:16.000Z</time>
      </trkpt>
      <trkpt lat="47.26248" lon="-1.54955">
        <ele>58</ele>
        <time>2021-08-22T08:41:18.000Z</time>
      </trkpt>
      <trkpt lat="47.26257" lon="-1.5494">
        <ele>58</ele>
        <time>2021-08-22T08:41:20.000Z</time>
      </trkpt>
      <trkpt lat="47.26267" lon="-1.54926">
        <ele>58</ele>
        <time>2021-08-22T08:41:22.000Z</time>
      </trkpt>
      <trkpt lat="47.26277" lon="-1.54912">
        <ele>58</ele>
        <time>2021-08-22T08:41:24.000Z</time>
      </trkpt>
      <trkpt lat="47.26287" lon="-1.549">
        <ele>59</ele>
        <time>2021-08-22T08:41:26.000Z</time>
      </trkpt>
      <trkpt lat="47.26296" lon="-1.54889">
        <ele>60</ele>
        <time>2021-08-22T08:41:28.000Z</time>
      </trkpt>
      <trkpt lat="47.26306" lon="-1.54878">
        <ele>60</ele>
        <time>2021-08-22T08:41:30.000Z</time>
      </trkpt>
      <trkpt lat="47.26316" lon="-1.5487">
        <ele>61</ele>
        <time>2021-08-22T08:41:32.000Z</time>
      </trkpt>
      <trkpt lat="47.26327" lon="-1.54866">
        <ele>61</ele>
        <time>2021-08-22T08:41:34.000Z</time>
      </trkpt>
      <trkpt lat="47.26337" lon="-1.54867">
        <ele>61</ele>
        <time>2021-08-22T08:41:36.000Z</time>
      </trkpt>
      <trkpt lat="47.26346" lon="-1.54861">
        <ele>61</ele>
        <time>2021-08-22T08:41:38.000Z</time>
      </trkpt>
      <trkpt lat="47.2635" lon="-1.54845">
        <ele>61</ele>
        <time>2021-08-22T08:41:40.000Z</time>
      </trkpt>
      <trkpt lat="47.26352" lon="-1.54827">
        <ele>62</ele>
        <time>2021-08-22T08:41:42.000Z</time>
      </trkpt>
      <trkpt lat="47.26359" lon="-1.54812">
        <ele>62</ele>
        <time>2021-08-22T08:41:44.000Z</time>
      </trkpt>
      <trkpt lat="47.2637" lon="-1.548">
        <ele>62</ele>
        <time>2021-08-22T08:41:46.000Z</time>
      </trkpt>
      <trkpt lat="47.2638" lon="-1.54789">
        <ele>62</ele>
        <time>2021-08-22T08:41:48.000Z</time>
      </trkpt>
      <trkpt lat="47.26389" lon="-1.54778">
        <ele>63</ele>
        <time>2021-08-22T08:41:50.000Z</time>
      </trkpt>
      <trkpt lat="47.26399" lon="-1.54767">
        <ele>63</ele>
        <time>2021-08-22T08:41:52.000Z</time>
      </trkpt>
      <trkpt lat="47.26408" lon="-1.54756">
        <ele>64</ele>
        <time>2021-08-22T08:41:54.000Z</time>
      </trkpt>
      <trkpt lat="47.26417" lon="-1.54745">
        <ele>65</ele>
        <time>2021-08-22T08:41:56.000Z</time>
      </trkpt>
      <trkpt lat="47.26427" lon="-1.54735">
        <ele>65</ele>
        <time>2021-08-22T08:41:58.000Z</time>
      </trkpt>
      <trkpt lat="47.26436" lon="-1.54726">
        <ele>66</ele>
        <time>2021-08-22T08:42:00.000Z</time>
      </trkpt>
      <trkpt lat="47.26447" lon="-1.54716">
        <ele>67</ele>
        <time>2021-08-22T08:42:02.000Z</time>
      </trkpt>
      <trkpt lat="47.26457" lon="-1.54708">
        <ele>68</ele>
        <time>2021-08-22T08:42:04.000Z</time>
      </trkpt>
      <trkpt lat="47.26467" lon="-1.547">
        <ele>68</ele>
        <time>2021-08-22T08:42:06.000Z</time>
      </trkpt>
      <trkpt lat="47.26478" lon="-1.54692">
        <ele>69</ele>
        <time>2021-08-22T08:42:08.000Z</time>
      </trkpt>
      <trkpt lat="47.26489" lon="-1.54685">
        <ele>70</ele>
        <time>2021-08-22T08:42:10.000Z</time>
      </trkpt>
      <trkpt lat="47.265" lon="-1.54678">
        <ele>70</ele>
        <time>2021-08-22T08:42:12.000Z</time>
      </trkpt>
      <trkpt lat="47.26511" lon="-1.54672">
        <ele>70</ele>
        <time>2021-08-22T08:42:14.000Z</time>
      </trkpt>
      <trkpt lat="47.26521" lon="-1.54666">
        <ele>70</ele>
        <time>2021-08-22T08:42:16.000Z</time>
      </trkpt>
      <trkpt lat="47.26532" lon="-1.5466">
        <ele>71</ele>
        <time>2021-08-22T08:42:18.000Z</time>
      </trkpt>
      <trkpt lat="47.26544" lon="-1.54654">
        <ele>71</ele>
        <time>2021-08-22T08:42:20.000Z</time>
      </trkpt>
      <trkpt lat="47.26556" lon="-1.54648">
        <ele>72</ele>
        <time>2021-08-22T08:42:22.000Z</time>
      </trkpt>
      <trkpt lat="47.26567" lon="-1.54642">
        <ele>73</ele>
        <time>2021-08-22T08:42:24.000Z</time>
      </trkpt>
      <trkpt lat="47.26578" lon="-1.54638">
        <ele>73</ele>
        <time>2021-08-22T08:42:26.000Z</time>
      </trkpt>
      <trkpt lat="47.26589" lon="-1.54633">
        <ele>74</ele>
        <time>2021-08-22T08:42:28.000Z</time>
      </trkpt>
      <trkpt lat="47.26601" lon="-1.54629">
        <ele>74</ele>
        <time>2021-08-22T08:42:30.000Z</time>
      </trkpt>
      <trkpt lat="47.26611" lon="-1.54625">
        <ele>75</ele>
        <time>2021-08-22T08:42:32.000Z</time>
      </trkpt>
      <trkpt lat="47.26622" lon="-1.54622">
        <ele>76</ele>
        <time>2021-08-22T08:42:34.000Z</time>
      </trkpt>
      <trkpt lat="47.26634" lon="-1.54619">
        <ele>76</ele>
        <time>2021-08-22T08:42:36.000Z</time>
      </trkpt>
      <trkpt lat="47.26645" lon="-1.54616">
        <ele>77</ele>
        <time>2021-08-22T08:42:38.000Z</time>
      </trkpt>
      <trkpt lat="47.26655" lon="-1.54613">
        <ele>77</ele>
        <time>2021-08-22T08:42:40.000Z</time>
      </trkpt>
      <trkpt lat="47.26666" lon="-1.5461">
        <ele>78</ele>
        <time>2021-08-22T08:42:42.000Z</time>
      </trkpt>
      <trkpt lat="47.26677" lon="-1.54608">
        <ele>78</ele>
        <time>2021-08-22T08:42:44.000Z</time>
      </trkpt>
      <trkpt lat="47.26688" lon="-1.54605">
        <ele>78</ele>
        <time>2021-08-22T08:42:46.000Z</time>
      </trkpt>
      <trkpt lat="47.26698" lon="-1.54603">
        <ele>79</ele>
        <time>2021-08-22T08:42:48.000Z</time>
      </trkpt>
      <trkpt lat="47.26708" lon="-1.54601">
        <ele>79</ele>
        <time>2021-08-22T08:42:50.000Z</time>
      </trkpt>
      <trkpt lat="47.26718" lon="-1.546">
        <ele>80</ele>
        <time>2021-08-22T08:42:52.000Z</time>
      </trkpt>
      <trkpt lat="47.26729" lon="-1.546">
        <ele>80</ele>
        <time>2021-08-22T08:42:54.000Z</time>
      </trkpt>
      <trkpt lat="47.26741" lon="-1.54599">
        <ele>80</ele>
        <time>2021-08-22T08:42:56.000Z</time>
      </trkpt>
      <trkpt lat="47.26753" lon="-1.54598">
        <ele>80</ele>
        <time>2021-08-22T08:42:58.000Z</time>
      </trkpt>
      <trkpt lat="47.26764" lon="-1.54598">
        <ele>81</ele>
        <time>2021-08-22T08:43:00.000Z</time>
      </trkpt>
      <trkpt lat="47.26776" lon="-1.54596">
        <ele>82</ele>
        <time>2021-08-22T08:43:02.000Z</time>
      </trkpt>
      <trkpt lat="47.26788" lon="-1.54596">
        <ele>82</ele>
        <time>2021-08-22T08:43:04.000Z</time>
      </trkpt>
      <trkpt lat="47.268" lon="-1.54597">
        <ele>82</ele>
        <time>2021-08-22T08:43:06.000Z</time>
      </trkpt>
      <trkpt lat="47.26811" lon="-1.54598">
        <ele>83</ele>
        <time>2021-08-22T08:43:08.000Z</time>
      </trkpt>
      <trkpt lat="47.26823" lon="-1.54599">
        <ele>83</ele>
        <time>2021-08-22T08:43:10.000Z</time>
      </trkpt>
      <trkpt lat="47.26835" lon="-1.546">
        <ele>83</ele>
        <time>2021-08-22T08:43:12.000Z</time>
      </trkpt>
      <trkpt lat="47.26847" lon="-1.54603">
        <ele>82</ele>
        <time>2021-08-22T08:43:14.000Z</time>
      </trkpt>
      <trkpt lat="47.26859" lon="-1.54607">
        <ele>82</ele>
        <time>2021-08-22T08:43:16.000Z</time>
      </trkpt>
      <trkpt lat="47.26871" lon="-1.54615">
        <ele>83</ele>
        <time>2021-08-22T08:43:18.000Z</time>
      </trkpt>
      <trkpt lat="47.26883" lon="-1.5462">
        <ele>83</ele>
        <time>2021-08-22T08:43:20.000Z</time>
      </trkpt>
      <trkpt lat="47.26895" lon="-1.54623">
        <ele>84</ele>
        <time>2021-08-22T08:43:22.000Z</time>
      </trkpt>
      <trkpt lat="47.26907" lon="-1.54625">
        <ele>84</ele>
        <time>2021-08-22T08:43:24.000Z</time>
      </trkpt>
      <trkpt lat="47.2692" lon="-1.54626">
        <ele>84</ele>
        <time>2021-08-22T08:43:26.000Z</time>
      </trkpt>
      <trkpt lat="47.26932" lon="-1.54624">
        <ele>85</ele>
        <time>2021-08-22T08:43:28.000Z</time>
      </trkpt>
      <trkpt lat="47.26945" lon="-1.5462">
        <ele>86</ele>
        <time>2021-08-22T08:43:30.000Z</time>
      </trkpt>
      <trkpt lat="47.26957" lon="-1.54616">
        <ele>86</ele>
        <time>2021-08-22T08:43:32.000Z</time>
      </trkpt>
      <trkpt lat="47.26969" lon="-1.54614">
        <ele>87</ele>
        <time>2021-08-22T08:43:34.000Z</time>
      </trkpt>
      <trkpt lat="47.26981" lon="-1.54612">
        <ele>87</ele>
        <time>2021-08-22T08:43:36.000Z</time>
      </trkpt>
      <trkpt lat="47.26993" lon="-1.54611">
        <ele>87</ele>
        <time>2021-08-22T08:43:38.000Z</time>
      </trkpt>
      <trkpt lat="47.27006" lon="-1.54609">
        <ele>86</ele>
        <time>2021-08-22T08:43:40.000Z</time>
      </trkpt>
      <trkpt lat="47.27021" lon="-1.54611">
        <ele>86</ele>
        <time>2021-08-22T08:43:42.000Z</time>
      </trkpt>
      <trkpt lat="47.27035" lon="-1.54615">
        <ele>85</ele>
        <time>2021-08-22T08:43:44.000Z</time>
      </trkpt>
      <trkpt lat="47.27049" lon="-1.54619">
        <ele>84</ele>
        <time>2021-08-22T08:43:46.000Z</time>
      </trkpt>
      <trkpt lat="47.27062" lon="-1.54622">
        <ele>84</ele>
        <time>2021-08-22T08:43:48.000Z</time>
      </trkpt>
      <trkpt lat="47.27076" lon="-1.54626">
        <ele>83</ele>
        <time>2021-08-22T08:43:50.000Z</time>
      </trkpt>
      <trkpt lat="47.27089" lon="-1.5463">
        <ele>83</ele>
        <time>2021-08-22T08:43:52.000Z</time>
      </trkpt>
      <trkpt lat="47.27102" lon="-1.54634">
        <ele>83</ele>
        <time>2021-08-22T08:43:54.000Z</time>
      </trkpt>
      <trkpt lat="47.27115" lon="-1.54638">
        <ele>82</ele>
        <time>2021-08-22T08:43:56.000Z</time>
      </trkpt>
      <trkpt lat="47.27128" lon="-1.54641">
        <ele>82</ele>
        <time>2021-08-22T08:43:58.000Z</time>
      </trkpt>
      <trkpt lat="47.27141" lon="-1.54644">
        <ele>82</ele>
        <time>2021-08-22T08:44:00.000Z</time>
      </trkpt>
      <trkpt lat="47.27154" lon="-1.54648">
        <ele>82</ele>
        <time>2021-08-22T08:44:02.000Z</time>
      </trkpt>
      <trkpt lat="47.27167" lon="-1.54652">
        <ele>82</ele>
        <time>2021-08-22T08:44:04.000Z</time>
      </trkpt>
      <trkpt lat="47.2718" lon="-1.54657">
        <ele>82</ele>
        <time>2021-08-22T08:44:06.000Z</time>
      </trkpt>
      <trkpt lat="47.27193" lon="-1.54661">
        <ele>82</ele>
        <time>2021-08-22T08:44:08.000Z</time>
      </trkpt>
      <trkpt lat="47.27206" lon="-1.54665">
        <ele>81</ele>
        <time>2021-08-22T08:44:10.000Z</time>
      </trkpt>
      <trkpt lat="47.27219" lon="-1.54669">
        <ele>81</ele>
        <time>2021-08-22T08:44:12.000Z</time>
      </trkpt>
      <trkpt lat="47.27232" lon="-1.54675">
        <ele>81</ele>
        <time>2021-08-22T08:44:14.000Z</time>
      </trkpt>
      <trkpt lat="47.27244" lon="-1.5468">
        <ele>81</ele>
        <time>2021-08-22T08:44:16.000Z</time>
      </trkpt>
      <trkpt lat="47.27257" lon="-1.54682">
        <ele>80</ele>
        <time>2021-08-22T08:44:18.000Z</time>
      </trkpt>
      <trkpt lat="47.2727" lon="-1.54684">
        <ele>81</ele>
        <time>2021-08-22T08:44:20.000Z</time>
      </trkpt>
      <trkpt lat="47.27282" lon="-1.54688">
        <ele>80</ele>
        <time>2021-08-22T08:44:22.000Z</time>
      </trkpt>
      <trkpt lat="47.27295" lon="-1.54692">
        <ele>80</ele>
        <time>2021-08-22T08:44:24.000Z</time>
      </trkpt>
      <trkpt lat="47.27308" lon="-1.54697">
        <ele>80</ele>
        <time>2021-08-22T08:44:26.000Z</time>
      </trkpt>
      <trkpt lat="47.27321" lon="-1.54701">
        <ele>80</ele>
        <time>2021-08-22T08:44:28.000Z</time>
      </trkpt>
      <trkpt lat="47.27333" lon="-1.54706">
        <ele>80</ele>
        <time>2021-08-22T08:44:30.000Z</time>
      </trkpt>
      <trkpt lat="47.27346" lon="-1.54709">
        <ele>81</ele>
        <time>2021-08-22T08:44:32.000Z</time>
      </trkpt>
      <trkpt lat="47.27357" lon="-1.54714">
        <ele>81</ele>
        <time>2021-08-22T08:44:34.000Z</time>
      </trkpt>
      <trkpt lat="47.27367" lon="-1.54722">
        <ele>82</ele>
        <time>2021-08-22T08:44:36.000Z</time>
      </trkpt>
      <trkpt lat="47.27376" lon="-1.54733">
        <ele>82</ele>
        <time>2021-08-22T08:44:38.000Z</time>
      </trkpt>
      <trkpt lat="47.27385" lon="-1.54744">
        <ele>83</ele>
        <time>2021-08-22T08:44:40.000Z</time>
      </trkpt>
      <trkpt lat="47.27393" lon="-1.54756">
        <ele>84</ele>
        <time>2021-08-22T08:44:42.000Z</time>
      </trkpt>
      <trkpt lat="47.27402" lon="-1.54769">
        <ele>85</ele>
        <time>2021-08-22T08:44:45.000Z</time>
      </trkpt>
      <trkpt lat="47.27412" lon="-1.54774">
        <ele>85</ele>
        <time>2021-08-22T08:44:47.000Z</time>
      </trkpt>
      <trkpt lat="47.27424" lon="-1.54774">
        <ele>85</ele>
        <time>2021-08-22T08:44:49.000Z</time>
      </trkpt>
      <trkpt lat="47.27435" lon="-1.54769">
        <ele>85</ele>
        <time>2021-08-22T08:44:51.000Z</time>
      </trkpt>
      <trkpt lat="47.27445" lon="-1.54762">
        <ele>85</ele>
        <time>2021-08-22T08:44:53.000Z</time>
      </trkpt>
      <trkpt lat="47.27455" lon="-1.54751">
        <ele>85</ele>
        <time>2021-08-22T08:44:55.000Z</time>
      </trkpt>
      <trkpt lat="47.27466" lon="-1.54747">
        <ele>85</ele>
        <time>2021-08-22T08:44:57.000Z</time>
      </trkpt>
      <trkpt lat="47.27478" lon="-1.54748">
        <ele>86</ele>
        <time>2021-08-22T08:44:59.000Z</time>
      </trkpt>
      <trkpt lat="47.27489" lon="-1.54749">
        <ele>86</ele>
        <time>2021-08-22T08:45:01.000Z</time>
      </trkpt>
      <trkpt lat="47.27501" lon="-1.54751">
        <ele>87</ele>
        <time>2021-08-22T08:45:03.000Z</time>
      </trkpt>
      <trkpt lat="47.27513" lon="-1.54754">
        <ele>87</ele>
        <time>2021-08-22T08:45:05.000Z</time>
      </trkpt>
      <trkpt lat="47.27523" lon="-1.54757">
        <ele>87</ele>
        <time>2021-08-22T08:45:07.000Z</time>
      </trkpt>
      <trkpt lat="47.27534" lon="-1.5476">
        <ele>88</ele>
        <time>2021-08-22T08:45:09.000Z</time>
      </trkpt>
      <trkpt lat="47.27544" lon="-1.54762">
        <ele>88</ele>
        <time>2021-08-22T08:45:11.000Z</time>
      </trkpt>
      <trkpt lat="47.27555" lon="-1.54765">
        <ele>89</ele>
        <time>2021-08-22T08:45:13.000Z</time>
      </trkpt>
      <trkpt lat="47.27564" lon="-1.54769">
        <ele>89</ele>
        <time>2021-08-22T08:45:15.000Z</time>
      </trkpt>
      <trkpt lat="47.27574" lon="-1.54773">
        <ele>89</ele>
        <time>2021-08-22T08:45:17.000Z</time>
      </trkpt>
      <trkpt lat="47.27583" lon="-1.5478">
        <ele>90</ele>
        <time>2021-08-22T08:45:19.000Z</time>
      </trkpt>
      <trkpt lat="47.27588" lon="-1.54791">
        <ele>90</ele>
        <time>2021-08-22T08:45:21.000Z</time>
      </trkpt>
      <trkpt lat="47.27593" lon="-1.54804">
        <ele>90</ele>
        <time>2021-08-22T08:45:23.000Z</time>
      </trkpt>
      <trkpt lat="47.27598" lon="-1.54816">
        <ele>90</ele>
        <time>2021-08-22T08:45:25.000Z</time>
      </trkpt>
      <trkpt lat="47.27608" lon="-1.54823">
        <ele>90</ele>
        <time>2021-08-22T08:45:27.000Z</time>
      </trkpt>
      <trkpt lat="47.27619" lon="-1.54826">
        <ele>89</ele>
        <time>2021-08-22T08:45:29.000Z</time>
      </trkpt>
      <trkpt lat="47.2763" lon="-1.54825">
        <ele>89</ele>
        <time>2021-08-22T08:45:31.000Z</time>
      </trkpt>
      <trkpt lat="47.2764" lon="-1.54819">
        <ele>89</ele>
        <time>2021-08-22T08:45:33.000Z</time>
      </trkpt>
      <trkpt lat="47.27651" lon="-1.54814">
        <ele>90</ele>
        <time>2021-08-22T08:45:35.000Z</time>
      </trkpt>
      <trkpt lat="47.27663" lon="-1.54813">
        <ele>89</ele>
        <time>2021-08-22T08:45:37.000Z</time>
      </trkpt>
      <trkpt lat="47.27675" lon="-1.54814">
        <ele>89</ele>
        <time>2021-08-22T08:45:39.000Z</time>
      </trkpt>
      <trkpt lat="47.27687" lon="-1.54816">
        <ele>89</ele>
        <time>2021-08-22T08:45:41.000Z</time>
      </trkpt>
      <trkpt lat="47.27699" lon="-1.54818">
        <ele>88</ele>
        <time>2021-08-22T08:45:43.000Z</time>
      </trkpt>
      <trkpt lat="47.27711" lon="-1.5482">
        <ele>88</ele>
        <time>2021-08-22T08:45:45.000Z</time>
      </trkpt>
      <trkpt lat="47.27723" lon="-1.54822">
        <ele>88</ele>
        <time>2021-08-22T08:45:47.000Z</time>
      </trkpt>
      <trkpt lat="47.27736" lon="-1.54826">
        <ele>88</ele>
        <time>2021-08-22T08:45:49.000Z</time>
      </trkpt>
      <trkpt lat="47.27748" lon="-1.5483">
        <ele>87</ele>
        <time>2021-08-22T08:45:51.000Z</time>
      </trkpt>
      <trkpt lat="47.27761" lon="-1.54833">
        <ele>87</ele>
        <time>2021-08-22T08:45:53.000Z</time>
      </trkpt>
      <trkpt lat="47.27775" lon="-1.54836">
        <ele>87</ele>
        <time>2021-08-22T08:45:55.000Z</time>
      </trkpt>
      <trkpt lat="47.27789" lon="-1.5484">
        <ele>86</ele>
        <time>2021-08-22T08:45:57.000Z</time>
      </trkpt>
      <trkpt lat="47.27803" lon="-1.54845">
        <ele>85</ele>
        <time>2021-08-22T08:45:59.000Z</time>
      </trkpt>
      <trkpt lat="47.27818" lon="-1.54849">
        <ele>85</ele>
        <time>2021-08-22T08:46:01.000Z</time>
      </trkpt>
      <trkpt lat="47.27833" lon="-1.54853">
        <ele>84</ele>
        <time>2021-08-22T08:46:03.000Z</time>
      </trkpt>
      <trkpt lat="47.27847" lon="-1.54858">
        <ele>83</ele>
        <time>2021-08-22T08:46:05.000Z</time>
      </trkpt>
      <trkpt lat="47.27863" lon="-1.54862">
        <ele>83</ele>
        <time>2021-08-22T08:46:07.000Z</time>
      </trkpt>
      <trkpt lat="47.27878" lon="-1.54867">
        <ele>82</ele>
        <time>2021-08-22T08:46:09.000Z</time>
      </trkpt>
      <trkpt lat="47.27894" lon="-1.54872">
        <ele>81</ele>
        <time>2021-08-22T08:46:11.000Z</time>
      </trkpt>
      <trkpt lat="47.27909" lon="-1.54876">
        <ele>80</ele>
        <time>2021-08-22T08:46:13.000Z</time>
      </trkpt>
      <trkpt lat="47.27925" lon="-1.54881">
        <ele>80</ele>
        <time>2021-08-22T08:46:15.000Z</time>
      </trkpt>
      <trkpt lat="47.27941" lon="-1.54886">
        <ele>79</ele>
        <time>2021-08-22T08:46:17.000Z</time>
      </trkpt>
      <trkpt lat="47.27956" lon="-1.5489">
        <ele>79</ele>
        <time>2021-08-22T08:46:19.000Z</time>
      </trkpt>
      <trkpt lat="47.27972" lon="-1.54895">
        <ele>78</ele>
        <time>2021-08-22T08:46:21.000Z</time>
      </trkpt>
      <trkpt lat="47.27987" lon="-1.549">
        <ele>77</ele>
        <time>2021-08-22T08:46:23.000Z</time>
      </trkpt>
      <trkpt lat="47.28003" lon="-1.54904">
        <ele>77</ele>
        <time>2021-08-22T08:46:25.000Z</time>
      </trkpt>
      <trkpt lat="47.28019" lon="-1.54908">
        <ele>77</ele>
        <time>2021-08-22T08:46:27.000Z</time>
      </trkpt>
      <trkpt lat="47.28034" lon="-1.54913">
        <ele>77</ele>
        <time>2021-08-22T08:46:29.000Z</time>
      </trkpt>
      <trkpt lat="47.28049" lon="-1.54918">
        <ele>77</ele>
        <time>2021-08-22T08:46:31.000Z</time>
      </trkpt>
      <trkpt lat="47.28063" lon="-1.54923">
        <ele>76</ele>
        <time>2021-08-22T08:46:33.000Z</time>
      </trkpt>
      <trkpt lat="47.28078" lon="-1.54927">
        <ele>76</ele>
        <time>2021-08-22T08:46:35.000Z</time>
      </trkpt>
      <trkpt lat="47.28093" lon="-1.54932">
        <ele>76</ele>
        <time>2021-08-22T08:46:37.000Z</time>
      </trkpt>
      <trkpt lat="47.28108" lon="-1.54936">
        <ele>76</ele>
        <time>2021-08-22T08:46:39.000Z</time>
      </trkpt>
      <trkpt lat="47.28122" lon="-1.5494">
        <ele>76</ele>
        <time>2021-08-22T08:46:41.000Z</time>
      </trkpt>
      <trkpt lat="47.28136" lon="-1.54944">
        <ele>76</ele>
        <time>2021-08-22T08:46:43.000Z</time>
      </trkpt>
      <trkpt lat="47.2815" lon="-1.54948">
        <ele>77</ele>
        <time>2021-08-22T08:46:45.000Z</time>
      </trkpt>
      <trkpt lat="47.28163" lon="-1.54952">
        <ele>77</ele>
        <time>2021-08-22T08:46:47.000Z</time>
      </trkpt>
      <trkpt lat="47.28177" lon="-1.54955">
        <ele>77</ele>
        <time>2021-08-22T08:46:49.000Z</time>
      </trkpt>
      <trkpt lat="47.2819" lon="-1.54958">
        <ele>77</ele>
        <time>2021-08-22T08:46:51.000Z</time>
      </trkpt>
      <trkpt lat="47.28204" lon="-1.5496">
        <ele>77</ele>
        <time>2021-08-22T08:46:53.000Z</time>
      </trkpt>
      <trkpt lat="47.28218" lon="-1.54963">
        <ele>77</ele>
        <time>2021-08-22T08:46:55.000Z</time>
      </trkpt>
      <trkpt lat="47.28231" lon="-1.54966">
        <ele>77</ele>
        <time>2021-08-22T08:46:57.000Z</time>
      </trkpt>
      <trkpt lat="47.28245" lon="-1.54968">
        <ele>78</ele>
        <time>2021-08-22T08:46:59.000Z</time>
      </trkpt>
      <trkpt lat="47.28257" lon="-1.54969">
        <ele>78</ele>
        <time>2021-08-22T08:47:01.000Z</time>
      </trkpt>
      <trkpt lat="47.2827" lon="-1.54972">
        <ele>77</ele>
        <time>2021-08-22T08:47:03.000Z</time>
      </trkpt>
      <trkpt lat="47.28281" lon="-1.54977">
        <ele>78</ele>
        <time>2021-08-22T08:47:05.000Z</time>
      </trkpt>
      <trkpt lat="47.2829" lon="-1.54984">
        <ele>78</ele>
        <time>2021-08-22T08:47:07.000Z</time>
      </trkpt>
      <trkpt lat="47.28302" lon="-1.54985">
        <ele>78</ele>
        <time>2021-08-22T08:47:09.000Z</time>
      </trkpt>
      <trkpt lat="47.28313" lon="-1.54976">
        <ele>78</ele>
        <time>2021-08-22T08:47:11.000Z</time>
      </trkpt>
      <trkpt lat="47.28326" lon="-1.54972">
        <ele>78</ele>
        <time>2021-08-22T08:47:13.000Z</time>
      </trkpt>
      <trkpt lat="47.2834" lon="-1.54974">
        <ele>78</ele>
        <time>2021-08-22T08:47:15.000Z</time>
      </trkpt>
      <trkpt lat="47.28354" lon="-1.54976">
        <ele>78</ele>
        <time>2021-08-22T08:47:17.000Z</time>
      </trkpt>
      <trkpt lat="47.28368" lon="-1.54978">
        <ele>78</ele>
        <time>2021-08-22T08:47:19.000Z</time>
      </trkpt>
      <trkpt lat="47.28383" lon="-1.54978">
        <ele>78</ele>
        <time>2021-08-22T08:47:21.000Z</time>
      </trkpt>
      <trkpt lat="47.28397" lon="-1.5498">
        <ele>78</ele>
        <time>2021-08-22T08:47:23.000Z</time>
      </trkpt>
      <trkpt lat="47.28411" lon="-1.54981">
        <ele>78</ele>
        <time>2021-08-22T08:47:25.000Z</time>
      </trkpt>
      <trkpt lat="47.28426" lon="-1.5498">
        <ele>78</ele>
        <time>2021-08-22T08:47:27.000Z</time>
      </trkpt>
      <trkpt lat="47.2844" lon="-1.54981">
        <ele>77</ele>
        <time>2021-08-22T08:47:29.000Z</time>
      </trkpt>
      <trkpt lat="47.28454" lon="-1.54981">
        <ele>77</ele>
        <time>2021-08-22T08:47:31.000Z</time>
      </trkpt>
      <trkpt lat="47.28468" lon="-1.54981">
        <ele>76</ele>
        <time>2021-08-22T08:47:33.000Z</time>
      </trkpt>
      <trkpt lat="47.28482" lon="-1.54981">
        <ele>76</ele>
        <time>2021-08-22T08:47:35.000Z</time>
      </trkpt>
      <trkpt lat="47.28496" lon="-1.54981">
        <ele>76</ele>
        <time>2021-08-22T08:47:37.000Z</time>
      </trkpt>
      <trkpt lat="47.28509" lon="-1.54982">
        <ele>76</ele>
        <time>2021-08-22T08:47:39.000Z</time>
      </trkpt>
      <trkpt lat="47.28519" lon="-1.54993">
        <ele>76</ele>
        <time>2021-08-22T08:47:41.000Z</time>
      </trkpt>
      <trkpt lat="47.28522" lon="-1.55006">
        <ele>75</ele>
        <time>2021-08-22T08:47:43.000Z</time>
      </trkpt>
      <trkpt lat="47.2853" lon="-1.55018">
        <ele>75</ele>
        <time>2021-08-22T08:47:46.000Z</time>
      </trkpt>
      <trkpt lat="47.28538" lon="-1.55026">
        <ele>75</ele>
        <time>2021-08-22T08:47:48.000Z</time>
      </trkpt>
      <trkpt lat="47.28545" lon="-1.55036">
        <ele>75</ele>
        <time>2021-08-22T08:47:50.000Z</time>
      </trkpt>
      <trkpt lat="47.28554" lon="-1.55047">
        <ele>74</ele>
        <time>2021-08-22T08:47:53.000Z</time>
      </trkpt>
      <trkpt lat="47.28563" lon="-1.55044">
        <ele>75</ele>
        <time>2021-08-22T08:47:55.000Z</time>
      </trkpt>
      <trkpt lat="47.28572" lon="-1.55034">
        <ele>74</ele>
        <time>2021-08-22T08:47:57.000Z</time>
      </trkpt>
      <trkpt lat="47.28578" lon="-1.55017">
        <ele>74</ele>
        <time>2021-08-22T08:47:59.000Z</time>
      </trkpt>
      <trkpt lat="47.28584" lon="-1.55001">
        <ele>74</ele>
        <time>2021-08-22T08:48:01.000Z</time>
      </trkpt>
      <trkpt lat="47.28594" lon="-1.54986">
        <ele>74</ele>
        <time>2021-08-22T08:48:03.000Z</time>
      </trkpt>
      <trkpt lat="47.28606" lon="-1.54975">
        <ele>75</ele>
        <time>2021-08-22T08:48:05.000Z</time>
      </trkpt>
      <trkpt lat="47.28621" lon="-1.54973">
        <ele>75</ele>
        <time>2021-08-22T08:48:07.000Z</time>
      </trkpt>
      <trkpt lat="47.28635" lon="-1.54971">
        <ele>75</ele>
        <time>2021-08-22T08:48:09.000Z</time>
      </trkpt>
      <trkpt lat="47.28651" lon="-1.54969">
        <ele>74</ele>
        <time>2021-08-22T08:48:11.000Z</time>
      </trkpt>
      <trkpt lat="47.28666" lon="-1.54966">
        <ele>74</ele>
        <time>2021-08-22T08:48:13.000Z</time>
      </trkpt>
      <trkpt lat="47.28681" lon="-1.54963">
        <ele>75</ele>
        <time>2021-08-22T08:48:15.000Z</time>
      </trkpt>
      <trkpt lat="47.28695" lon="-1.54961">
        <ele>75</ele>
        <time>2021-08-22T08:48:17.000Z</time>
      </trkpt>
      <trkpt lat="47.28709" lon="-1.54959">
        <ele>75</ele>
        <time>2021-08-22T08:48:19.000Z</time>
      </trkpt>
      <trkpt lat="47.28722" lon="-1.54957">
        <ele>75</ele>
        <time>2021-08-22T08:48:21.000Z</time>
      </trkpt>
      <trkpt lat="47.28736" lon="-1.54955">
        <ele>75</ele>
        <time>2021-08-22T08:48:23.000Z</time>
      </trkpt>
      <trkpt lat="47.2875" lon="-1.54953">
        <ele>75</ele>
        <time>2021-08-22T08:48:25.000Z</time>
      </trkpt>
      <trkpt lat="47.28763" lon="-1.54951">
        <ele>76</ele>
        <time>2021-08-22T08:48:27.000Z</time>
      </trkpt>
      <trkpt lat="47.28776" lon="-1.54948">
        <ele>76</ele>
        <time>2021-08-22T08:48:29.000Z</time>
      </trkpt>
      <trkpt lat="47.2879" lon="-1.54945">
        <ele>77</ele>
        <time>2021-08-22T08:48:31.000Z</time>
      </trkpt>
      <trkpt lat="47.28803" lon="-1.54943">
        <ele>76</ele>
        <time>2021-08-22T08:48:33.000Z</time>
      </trkpt>
      <trkpt lat="47.28817" lon="-1.54941">
        <ele>76</ele>
        <time>2021-08-22T08:48:35.000Z</time>
      </trkpt>
      <trkpt lat="47.2883" lon="-1.5494">
        <ele>77</ele>
        <time>2021-08-22T08:48:37.000Z</time>
      </trkpt>
      <trkpt lat="47.28843" lon="-1.54939">
        <ele>77</ele>
        <time>2021-08-22T08:48:39.000Z</time>
      </trkpt>
      <trkpt lat="47.28856" lon="-1.54936">
        <ele>77</ele>
        <time>2021-08-22T08:48:41.000Z</time>
      </trkpt>
      <trkpt lat="47.2887" lon="-1.54933">
        <ele>77</ele>
        <time>2021-08-22T08:48:43.000Z</time>
      </trkpt>
      <trkpt lat="47.28883" lon="-1.54931">
        <ele>77</ele>
        <time>2021-08-22T08:48:45.000Z</time>
      </trkpt>
      <trkpt lat="47.28896" lon="-1.54928">
        <ele>77</ele>
        <time>2021-08-22T08:48:47.000Z</time>
      </trkpt>
      <trkpt lat="47.2891" lon="-1.54926">
        <ele>77</ele>
        <time>2021-08-22T08:48:49.000Z</time>
      </trkpt>
      <trkpt lat="47.28924" lon="-1.54924">
        <ele>76</ele>
        <time>2021-08-22T08:48:51.000Z</time>
      </trkpt>
      <trkpt lat="47.28938" lon="-1.54921">
        <ele>76</ele>
        <time>2021-08-22T08:48:53.000Z</time>
      </trkpt>
      <trkpt lat="47.28951" lon="-1.5492">
        <ele>76</ele>
        <time>2021-08-22T08:48:55.000Z</time>
      </trkpt>
      <trkpt lat="47.28964" lon="-1.54922">
        <ele>76</ele>
        <time>2021-08-22T08:48:57.000Z</time>
      </trkpt>
      <trkpt lat="47.28977" lon="-1.54926">
        <ele>76</ele>
        <time>2021-08-22T08:48:59.000Z</time>
      </trkpt>
      <trkpt lat="47.28991" lon="-1.54927">
        <ele>76</ele>
        <time>2021-08-22T08:49:01.000Z</time>
      </trkpt>
      <trkpt lat="47.29004" lon="-1.54925">
        <ele>77</ele>
        <time>2021-08-22T08:49:03.000Z</time>
      </trkpt>
      <trkpt lat="47.29017" lon="-1.54927">
        <ele>77</ele>
        <time>2021-08-22T08:49:05.000Z</time>
      </trkpt>
      <trkpt lat="47.29029" lon="-1.54929">
        <ele>79</ele>
        <time>2021-08-22T08:49:07.000Z</time>
      </trkpt>
      <trkpt lat="47.29037" lon="-1.54919">
        <ele>77</ele>
        <time>2021-08-22T08:49:09.000Z</time>
      </trkpt>
      <trkpt lat="47.29047" lon="-1.54915">
        <ele>77</ele>
        <time>2021-08-22T08:49:11.000Z</time>
      </trkpt>
      <trkpt lat="47.29059" lon="-1.54916">
        <ele>78</ele>
        <time>2021-08-22T08:49:13.000Z</time>
      </trkpt>
      <trkpt lat="47.29071" lon="-1.54917">
        <ele>78</ele>
        <time>2021-08-22T08:49:15.000Z</time>
      </trkpt>
      <trkpt lat="47.29083" lon="-1.54915">
        <ele>78</ele>
        <time>2021-08-22T08:49:17.000Z</time>
      </trkpt>
      <trkpt lat="47.29097" lon="-1.54912">
        <ele>79</ele>
        <time>2021-08-22T08:49:19.000Z</time>
      </trkpt>
      <trkpt lat="47.29111" lon="-1.54911">
        <ele>78</ele>
        <time>2021-08-22T08:49:21.000Z</time>
      </trkpt>
      <trkpt lat="47.29126" lon="-1.5491">
        <ele>79</ele>
        <time>2021-08-22T08:49:23.000Z</time>
      </trkpt>
      <trkpt lat="47.29139" lon="-1.54909">
        <ele>79</ele>
        <time>2021-08-22T08:49:25.000Z</time>
      </trkpt>
      <trkpt lat="47.29153" lon="-1.54909">
        <ele>80</ele>
        <time>2021-08-22T08:49:27.000Z</time>
      </trkpt>
      <trkpt lat="47.29167" lon="-1.54908">
        <ele>80</ele>
        <time>2021-08-22T08:49:29.000Z</time>
      </trkpt>
      <trkpt lat="47.2918" lon="-1.54907">
        <ele>80</ele>
        <time>2021-08-22T08:49:31.000Z</time>
      </trkpt>
      <trkpt lat="47.29191" lon="-1.54906">
        <ele>81</ele>
        <time>2021-08-22T08:49:33.000Z</time>
      </trkpt>
      <trkpt lat="47.29203" lon="-1.54905">
        <ele>81</ele>
        <time>2021-08-22T08:49:35.000Z</time>
      </trkpt>
      <trkpt lat="47.29216" lon="-1.54903">
        <ele>82</ele>
        <time>2021-08-22T08:49:37.000Z</time>
      </trkpt>
      <trkpt lat="47.29229" lon="-1.54905">
        <ele>82</ele>
        <time>2021-08-22T08:49:39.000Z</time>
      </trkpt>
      <trkpt lat="47.2924" lon="-1.54909">
        <ele>82</ele>
        <time>2021-08-22T08:49:41.000Z</time>
      </trkpt>
      <trkpt lat="47.29251" lon="-1.54911">
        <ele>82</ele>
        <time>2021-08-22T08:49:43.000Z</time>
      </trkpt>
      <trkpt lat="47.29263" lon="-1.5491">
        <ele>82</ele>
        <time>2021-08-22T08:49:45.000Z</time>
      </trkpt>
      <trkpt lat="47.29274" lon="-1.54909">
        <ele>82</ele>
        <time>2021-08-22T08:49:47.000Z</time>
      </trkpt>
      <trkpt lat="47.29286" lon="-1.54908">
        <ele>83</ele>
        <time>2021-08-22T08:49:49.000Z</time>
      </trkpt>
      <trkpt lat="47.29297" lon="-1.54908">
        <ele>84</ele>
        <time>2021-08-22T08:49:51.000Z</time>
      </trkpt>
      <trkpt lat="47.2931" lon="-1.54909">
        <ele>84</ele>
        <time>2021-08-22T08:49:53.000Z</time>
      </trkpt>
      <trkpt lat="47.29322" lon="-1.54909">
        <ele>87</ele>
        <time>2021-08-22T08:49:55.000Z</time>
      </trkpt>
      <trkpt lat="47.29333" lon="-1.54908">
        <ele>88</ele>
        <time>2021-08-22T08:49:57.000Z</time>
      </trkpt>
      <trkpt lat="47.29344" lon="-1.54899">
        <ele>88</ele>
        <time>2021-08-22T08:49:59.000Z</time>
      </trkpt>
      <trkpt lat="47.29357" lon="-1.54891">
        <ele>88</ele>
        <time>2021-08-22T08:50:01.000Z</time>
      </trkpt>
      <trkpt lat="47.29371" lon="-1.54889">
        <ele>87</ele>
        <time>2021-08-22T08:50:03.000Z</time>
      </trkpt>
      <trkpt lat="47.29384" lon="-1.54888">
        <ele>86</ele>
        <time>2021-08-22T08:50:05.000Z</time>
      </trkpt>
      <trkpt lat="47.29397" lon="-1.54888">
        <ele>85</ele>
        <time>2021-08-22T08:50:07.000Z</time>
      </trkpt>
      <trkpt lat="47.29409" lon="-1.54888">
        <ele>85</ele>
        <time>2021-08-22T08:50:09.000Z</time>
      </trkpt>
      <trkpt lat="47.29421" lon="-1.54888">
        <ele>84</ele>
        <time>2021-08-22T08:50:11.000Z</time>
      </trkpt>
      <trkpt lat="47.29434" lon="-1.5489">
        <ele>83</ele>
        <time>2021-08-22T08:50:13.000Z</time>
      </trkpt>
      <trkpt lat="47.29447" lon="-1.54889">
        <ele>83</ele>
        <time>2021-08-22T08:50:15.000Z</time>
      </trkpt>
      <trkpt lat="47.29461" lon="-1.54887">
        <ele>83</ele>
        <time>2021-08-22T08:50:17.000Z</time>
      </trkpt>
      <trkpt lat="47.29475" lon="-1.54888">
        <ele>82</ele>
        <time>2021-08-22T08:50:19.000Z</time>
      </trkpt>
      <trkpt lat="47.2949" lon="-1.54889">
        <ele>82</ele>
        <time>2021-08-22T08:50:21.000Z</time>
      </trkpt>
      <trkpt lat="47.29504" lon="-1.54888">
        <ele>81</ele>
        <time>2021-08-22T08:50:23.000Z</time>
      </trkpt>
      <trkpt lat="47.29519" lon="-1.54887">
        <ele>81</ele>
        <time>2021-08-22T08:50:25.000Z</time>
      </trkpt>
      <trkpt lat="47.29534" lon="-1.54886">
        <ele>81</ele>
        <time>2021-08-22T08:50:27.000Z</time>
      </trkpt>
      <trkpt lat="47.2955" lon="-1.54886">
        <ele>80</ele>
        <time>2021-08-22T08:50:29.000Z</time>
      </trkpt>
      <trkpt lat="47.29565" lon="-1.54885">
        <ele>80</ele>
        <time>2021-08-22T08:50:31.000Z</time>
      </trkpt>
      <trkpt lat="47.2958" lon="-1.54884">
        <ele>80</ele>
        <time>2021-08-22T08:50:33.000Z</time>
      </trkpt>
      <trkpt lat="47.29595" lon="-1.54883">
        <ele>80</ele>
        <time>2021-08-22T08:50:35.000Z</time>
      </trkpt>
      <trkpt lat="47.29608" lon="-1.54878">
        <ele>79</ele>
        <time>2021-08-22T08:50:37.000Z</time>
      </trkpt>
      <trkpt lat="47.29621" lon="-1.54872">
        <ele>79</ele>
        <time>2021-08-22T08:50:39.000Z</time>
      </trkpt>
      <trkpt lat="47.29635" lon="-1.54868">
        <ele>79</ele>
        <time>2021-08-22T08:50:41.000Z</time>
      </trkpt>
      <trkpt lat="47.29649" lon="-1.54866">
        <ele>79</ele>
        <time>2021-08-22T08:50:43.000Z</time>
      </trkpt>
      <trkpt lat="47.29662" lon="-1.54863">
        <ele>79</ele>
        <time>2021-08-22T08:50:45.000Z</time>
      </trkpt>
      <trkpt lat="47.29675" lon="-1.5486">
        <ele>79</ele>
        <time>2021-08-22T08:50:47.000Z</time>
      </trkpt>
      <trkpt lat="47.29688" lon="-1.54858">
        <ele>78</ele>
        <time>2021-08-22T08:50:49.000Z</time>
      </trkpt>
      <trkpt lat="47.29706" lon="-1.54855">
        <ele>78</ele>
        <time>2021-08-22T08:50:52.000Z</time>
      </trkpt>
      <trkpt lat="47.29716" lon="-1.54856">
        <ele>79</ele>
        <time>2021-08-22T08:50:54.000Z</time>
      </trkpt>
      <trkpt lat="47.29728" lon="-1.54852">
        <ele>79</ele>
        <time>2021-08-22T08:50:56.000Z</time>
      </trkpt>
      <trkpt lat="47.29748" lon="-1.54844">
        <ele>78</ele>
        <time>2021-08-22T08:50:59.000Z</time>
      </trkpt>
      <trkpt lat="47.29763" lon="-1.54839">
        <ele>77</ele>
        <time>2021-08-22T08:51:01.000Z</time>
      </trkpt>
      <trkpt lat="47.29779" lon="-1.54834">
        <ele>77</ele>
        <time>2021-08-22T08:51:03.000Z</time>
      </trkpt>
      <trkpt lat="47.29794" lon="-1.54835">
        <ele>77</ele>
        <time>2021-08-22T08:51:05.000Z</time>
      </trkpt>
      <trkpt lat="47.29809" lon="-1.5484">
        <ele>77</ele>
        <time>2021-08-22T08:51:07.000Z</time>
      </trkpt>
      <trkpt lat="47.29823" lon="-1.54837">
        <ele>78</ele>
        <time>2021-08-22T08:51:09.000Z</time>
      </trkpt>
      <trkpt lat="47.29837" lon="-1.54834">
        <ele>79</ele>
        <time>2021-08-22T08:51:11.000Z</time>
      </trkpt>
      <trkpt lat="47.29851" lon="-1.5483">
        <ele>79</ele>
        <time>2021-08-22T08:51:13.000Z</time>
      </trkpt>
      <trkpt lat="47.29865" lon="-1.54826">
        <ele>78</ele>
        <time>2021-08-22T08:51:15.000Z</time>
      </trkpt>
      <trkpt lat="47.2988" lon="-1.54823">
        <ele>79</ele>
        <time>2021-08-22T08:51:17.000Z</time>
      </trkpt>
      <trkpt lat="47.29894" lon="-1.54819">
        <ele>80</ele>
        <time>2021-08-22T08:51:19.000Z</time>
      </trkpt>
      <trkpt lat="47.29907" lon="-1.54815">
        <ele>80</ele>
        <time>2021-08-22T08:51:21.000Z</time>
      </trkpt>
      <trkpt lat="47.2992" lon="-1.54811">
        <ele>80</ele>
        <time>2021-08-22T08:51:23.000Z</time>
      </trkpt>
      <trkpt lat="47.29934" lon="-1.54807">
        <ele>80</ele>
        <time>2021-08-22T08:51:25.000Z</time>
      </trkpt>
      <trkpt lat="47.29948" lon="-1.54802">
        <ele>80</ele>
        <time>2021-08-22T08:51:27.000Z</time>
      </trkpt>
      <trkpt lat="47.29961" lon="-1.54798">
        <ele>80</ele>
        <time>2021-08-22T08:51:29.000Z</time>
      </trkpt>
      <trkpt lat="47.29975" lon="-1.54792">
        <ele>80</ele>
        <time>2021-08-22T08:51:31.000Z</time>
      </trkpt>
      <trkpt lat="47.2999" lon="-1.54787">
        <ele>79</ele>
        <time>2021-08-22T08:51:33.000Z</time>
      </trkpt>
      <trkpt lat="47.30003" lon="-1.54782">
        <ele>79</ele>
        <time>2021-08-22T08:51:35.000Z</time>
      </trkpt>
      <trkpt lat="47.30017" lon="-1.54777">
        <ele>79</ele>
        <time>2021-08-22T08:51:37.000Z</time>
      </trkpt>
      <trkpt lat="47.30031" lon="-1.54772">
        <ele>78</ele>
        <time>2021-08-22T08:51:39.000Z</time>
      </trkpt>
      <trkpt lat="47.30045" lon="-1.54766">
        <ele>78</ele>
        <time>2021-08-22T08:51:41.000Z</time>
      </trkpt>
      <trkpt lat="47.30058" lon="-1.54761">
        <ele>78</ele>
        <time>2021-08-22T08:51:43.000Z</time>
      </trkpt>
      <trkpt lat="47.30071" lon="-1.54756">
        <ele>79</ele>
        <time>2021-08-22T08:51:45.000Z</time>
      </trkpt>
      <trkpt lat="47.30084" lon="-1.54749">
        <ele>79</ele>
        <time>2021-08-22T08:51:47.000Z</time>
      </trkpt>
      <trkpt lat="47.30098" lon="-1.54743">
        <ele>80</ele>
        <time>2021-08-22T08:51:49.000Z</time>
      </trkpt>
      <trkpt lat="47.30112" lon="-1.54736">
        <ele>80</ele>
        <time>2021-08-22T08:51:51.000Z</time>
      </trkpt>
      <trkpt lat="47.30125" lon="-1.54728">
        <ele>80</ele>
        <time>2021-08-22T08:51:53.000Z</time>
      </trkpt>
      <trkpt lat="47.30139" lon="-1.54721">
        <ele>79</ele>
        <time>2021-08-22T08:51:55.000Z</time>
      </trkpt>
      <trkpt lat="47.30153" lon="-1.54713">
        <ele>79</ele>
        <time>2021-08-22T08:51:57.000Z</time>
      </trkpt>
      <trkpt lat="47.30166" lon="-1.54706">
        <ele>78</ele>
        <time>2021-08-22T08:51:59.000Z</time>
      </trkpt>
      <trkpt lat="47.30179" lon="-1.54699">
        <ele>78</ele>
        <time>2021-08-22T08:52:01.000Z</time>
      </trkpt>
      <trkpt lat="47.30192" lon="-1.54693">
        <ele>78</ele>
        <time>2021-08-22T08:52:03.000Z</time>
      </trkpt>
      <trkpt lat="47.30206" lon="-1.54686">
        <ele>78</ele>
        <time>2021-08-22T08:52:05.000Z</time>
      </trkpt>
      <trkpt lat="47.30219" lon="-1.54677">
        <ele>78</ele>
        <time>2021-08-22T08:52:07.000Z</time>
      </trkpt>
      <trkpt lat="47.30233" lon="-1.54669">
        <ele>77</ele>
        <time>2021-08-22T08:52:09.000Z</time>
      </trkpt>
      <trkpt lat="47.30246" lon="-1.54661">
        <ele>77</ele>
        <time>2021-08-22T08:52:11.000Z</time>
      </trkpt>
      <trkpt lat="47.3026" lon="-1.54653">
        <ele>77</ele>
        <time>2021-08-22T08:52:13.000Z</time>
      </trkpt>
      <trkpt lat="47.30273" lon="-1.54648">
        <ele>77</ele>
        <time>2021-08-22T08:52:15.000Z</time>
      </trkpt>
      <trkpt lat="47.30289" lon="-1.54652">
        <ele>76</ele>
        <time>2021-08-22T08:52:17.000Z</time>
      </trkpt>
      <trkpt lat="47.30298" lon="-1.54657">
        <ele>75</ele>
        <time>2021-08-22T08:52:18.000Z</time>
      </trkpt>
      <trkpt lat="47.30312" lon="-1.54664">
        <ele>75</ele>
        <time>2021-08-22T08:52:20.000Z</time>
      </trkpt>
      <trkpt lat="47.30325" lon="-1.54666">
        <ele>74</ele>
        <time>2021-08-22T08:52:22.000Z</time>
      </trkpt>
      <trkpt lat="47.30337" lon="-1.54662">
        <ele>73</ele>
        <time>2021-08-22T08:52:25.000Z</time>
      </trkpt>
      <trkpt lat="47.30351" lon="-1.54658">
        <ele>72</ele>
        <time>2021-08-22T08:52:28.000Z</time>
      </trkpt>
      <trkpt lat="47.30364" lon="-1.54652">
        <ele>72</ele>
        <time>2021-08-22T08:52:30.000Z</time>
      </trkpt>
      <trkpt lat="47.30375" lon="-1.54637">
        <ele>71</ele>
        <time>2021-08-22T08:52:32.000Z</time>
      </trkpt>
      <trkpt lat="47.30385" lon="-1.54617">
        <ele>70</ele>
        <time>2021-08-22T08:52:34.000Z</time>
      </trkpt>
      <trkpt lat="47.30397" lon="-1.546">
        <ele>71</ele>
        <time>2021-08-22T08:52:36.000Z</time>
      </trkpt>
      <trkpt lat="47.30409" lon="-1.54585">
        <ele>72</ele>
        <time>2021-08-22T08:52:38.000Z</time>
      </trkpt>
      <trkpt lat="47.30421" lon="-1.54572">
        <ele>74</ele>
        <time>2021-08-22T08:52:40.000Z</time>
      </trkpt>
      <trkpt lat="47.30433" lon="-1.54562">
        <ele>75</ele>
        <time>2021-08-22T08:52:42.000Z</time>
      </trkpt>
      <trkpt lat="47.30446" lon="-1.54552">
        <ele>74</ele>
        <time>2021-08-22T08:52:44.000Z</time>
      </trkpt>
      <trkpt lat="47.3046" lon="-1.54542">
        <ele>76</ele>
        <time>2021-08-22T08:52:46.000Z</time>
      </trkpt>
      <trkpt lat="47.30473" lon="-1.54533">
        <ele>76</ele>
        <time>2021-08-22T08:52:48.000Z</time>
      </trkpt>
      <trkpt lat="47.30487" lon="-1.54523">
        <ele>77</ele>
        <time>2021-08-22T08:52:50.000Z</time>
      </trkpt>
      <trkpt lat="47.30501" lon="-1.54512">
        <ele>77</ele>
        <time>2021-08-22T08:52:52.000Z</time>
      </trkpt>
      <trkpt lat="47.30514" lon="-1.54503">
        <ele>77</ele>
        <time>2021-08-22T08:52:54.000Z</time>
      </trkpt>
      <trkpt lat="47.30527" lon="-1.54493">
        <ele>77</ele>
        <time>2021-08-22T08:52:56.000Z</time>
      </trkpt>
      <trkpt lat="47.30539" lon="-1.54482">
        <ele>77</ele>
        <time>2021-08-22T08:52:58.000Z</time>
      </trkpt>
      <trkpt lat="47.30552" lon="-1.54472">
        <ele>77</ele>
        <time>2021-08-22T08:53:00.000Z</time>
      </trkpt>
      <trkpt lat="47.30563" lon="-1.54462">
        <ele>77</ele>
        <time>2021-08-22T08:53:02.000Z</time>
      </trkpt>
      <trkpt lat="47.30573" lon="-1.54453">
        <ele>78</ele>
        <time>2021-08-22T08:53:04.000Z</time>
      </trkpt>
      <trkpt lat="47.30585" lon="-1.54444">
        <ele>78</ele>
        <time>2021-08-22T08:53:06.000Z</time>
      </trkpt>
      <trkpt lat="47.30597" lon="-1.54433">
        <ele>78</ele>
        <time>2021-08-22T08:53:08.000Z</time>
      </trkpt>
      <trkpt lat="47.30608" lon="-1.54423">
        <ele>79</ele>
        <time>2021-08-22T08:53:10.000Z</time>
      </trkpt>
      <trkpt lat="47.3062" lon="-1.54412">
        <ele>79</ele>
        <time>2021-08-22T08:53:12.000Z</time>
      </trkpt>
      <trkpt lat="47.30632" lon="-1.54399">
        <ele>79</ele>
        <time>2021-08-22T08:53:14.000Z</time>
      </trkpt>
      <trkpt lat="47.30644" lon="-1.54387">
        <ele>78</ele>
        <time>2021-08-22T08:53:16.000Z</time>
      </trkpt>
      <trkpt lat="47.30657" lon="-1.54377">
        <ele>78</ele>
        <time>2021-08-22T08:53:18.000Z</time>
      </trkpt>
      <trkpt lat="47.30669" lon="-1.54367">
        <ele>77</ele>
        <time>2021-08-22T08:53:20.000Z</time>
      </trkpt>
      <trkpt lat="47.30682" lon="-1.54356">
        <ele>77</ele>
        <time>2021-08-22T08:53:22.000Z</time>
      </trkpt>
      <trkpt lat="47.30695" lon="-1.54345">
        <ele>75</ele>
        <time>2021-08-22T08:53:24.000Z</time>
      </trkpt>
      <trkpt lat="47.30709" lon="-1.54334">
        <ele>74</ele>
        <time>2021-08-22T08:53:26.000Z</time>
      </trkpt>
      <trkpt lat="47.30722" lon="-1.54323">
        <ele>74</ele>
        <time>2021-08-22T08:53:28.000Z</time>
      </trkpt>
      <trkpt lat="47.30737" lon="-1.54312">
        <ele>72</ele>
        <time>2021-08-22T08:53:30.000Z</time>
      </trkpt>
      <trkpt lat="47.30751" lon="-1.54302">
        <ele>72</ele>
        <time>2021-08-22T08:53:32.000Z</time>
      </trkpt>
      <trkpt lat="47.30767" lon="-1.54299">
        <ele>71</ele>
        <time>2021-08-22T08:53:34.000Z</time>
      </trkpt>
      <trkpt lat="47.30783" lon="-1.54302">
        <ele>71</ele>
        <time>2021-08-22T08:53:36.000Z</time>
      </trkpt>
      <trkpt lat="47.308" lon="-1.54301">
        <ele>70</ele>
        <time>2021-08-22T08:53:38.000Z</time>
      </trkpt>
      <trkpt lat="47.30816" lon="-1.54294">
        <ele>70</ele>
        <time>2021-08-22T08:53:40.000Z</time>
      </trkpt>
      <trkpt lat="47.30832" lon="-1.54288">
        <ele>70</ele>
        <time>2021-08-22T08:53:42.000Z</time>
      </trkpt>
      <trkpt lat="47.30847" lon="-1.54281">
        <ele>70</ele>
        <time>2021-08-22T08:53:44.000Z</time>
      </trkpt>
      <trkpt lat="47.30861" lon="-1.54271">
        <ele>69</ele>
        <time>2021-08-22T08:53:46.000Z</time>
      </trkpt>
      <trkpt lat="47.3087" lon="-1.54267">
        <ele>69</ele>
        <time>2021-08-22T08:53:47.000Z</time>
      </trkpt>
      <trkpt lat="47.3088" lon="-1.54267">
        <ele>69</ele>
        <time>2021-08-22T08:53:48.000Z</time>
      </trkpt>
      <trkpt lat="47.30889" lon="-1.54267">
        <ele>69</ele>
        <time>2021-08-22T08:53:49.000Z</time>
      </trkpt>
      <trkpt lat="47.30898" lon="-1.54267">
        <ele>69</ele>
        <time>2021-08-22T08:53:50.000Z</time>
      </trkpt>
      <trkpt lat="47.30916" lon="-1.54269">
        <ele>68</ele>
        <time>2021-08-22T08:53:52.000Z</time>
      </trkpt>
      <trkpt lat="47.30925" lon="-1.54269">
        <ele>68</ele>
        <time>2021-08-22T08:53:53.000Z</time>
      </trkpt>
      <trkpt lat="47.30942" lon="-1.54275">
        <ele>68</ele>
        <time>2021-08-22T08:53:55.000Z</time>
      </trkpt>
      <trkpt lat="47.30951" lon="-1.54281">
        <ele>67</ele>
        <time>2021-08-22T08:53:56.000Z</time>
      </trkpt>
      <trkpt lat="47.30967" lon="-1.5429">
        <ele>67</ele>
        <time>2021-08-22T08:53:58.000Z</time>
      </trkpt>
      <trkpt lat="47.30984" lon="-1.54285">
        <ele>65</ele>
        <time>2021-08-22T08:54:00.000Z</time>
      </trkpt>
      <trkpt lat="47.31" lon="-1.54279">
        <ele>65</ele>
        <time>2021-08-22T08:54:02.000Z</time>
      </trkpt>
      <trkpt lat="47.31017" lon="-1.5428">
        <ele>64</ele>
        <time>2021-08-22T08:54:04.000Z</time>
      </trkpt>
      <trkpt lat="47.31035" lon="-1.54283">
        <ele>64</ele>
        <time>2021-08-22T08:54:06.000Z</time>
      </trkpt>
      <trkpt lat="47.31053" lon="-1.54285">
        <ele>63</ele>
        <time>2021-08-22T08:54:08.000Z</time>
      </trkpt>
      <trkpt lat="47.3107" lon="-1.54288">
        <ele>63</ele>
        <time>2021-08-22T08:54:10.000Z</time>
      </trkpt>
      <trkpt lat="47.31087" lon="-1.54289">
        <ele>62</ele>
        <time>2021-08-22T08:54:12.000Z</time>
      </trkpt>
      <trkpt lat="47.31104" lon="-1.5429">
        <ele>61</ele>
        <time>2021-08-22T08:54:14.000Z</time>
      </trkpt>
      <trkpt lat="47.31121" lon="-1.54291">
        <ele>60</ele>
        <time>2021-08-22T08:54:16.000Z</time>
      </trkpt>
      <trkpt lat="47.31138" lon="-1.54291">
        <ele>60</ele>
        <time>2021-08-22T08:54:18.000Z</time>
      </trkpt>
      <trkpt lat="47.31155" lon="-1.54291">
        <ele>59</ele>
        <time>2021-08-22T08:54:20.000Z</time>
      </trkpt>
      <trkpt lat="47.31171" lon="-1.54293">
        <ele>58</ele>
        <time>2021-08-22T08:54:22.000Z</time>
      </trkpt>
      <trkpt lat="47.31187" lon="-1.54297">
        <ele>59</ele>
        <time>2021-08-22T08:54:24.000Z</time>
      </trkpt>
      <trkpt lat="47.312" lon="-1.54305">
        <ele>58</ele>
        <time>2021-08-22T08:54:26.000Z</time>
      </trkpt>
      <trkpt lat="47.31211" lon="-1.54317">
        <ele>59</ele>
        <time>2021-08-22T08:54:28.000Z</time>
      </trkpt>
      <trkpt lat="47.31224" lon="-1.54324">
        <ele>58</ele>
        <time>2021-08-22T08:54:30.000Z</time>
      </trkpt>
      <trkpt lat="47.31237" lon="-1.54322">
        <ele>58</ele>
        <time>2021-08-22T08:54:32.000Z</time>
      </trkpt>
      <trkpt lat="47.31249" lon="-1.5431">
        <ele>59</ele>
        <time>2021-08-22T08:54:34.000Z</time>
      </trkpt>
      <trkpt lat="47.31263" lon="-1.54304">
        <ele>58</ele>
        <time>2021-08-22T08:54:36.000Z</time>
      </trkpt>
      <trkpt lat="47.31278" lon="-1.54303">
        <ele>59</ele>
        <time>2021-08-22T08:54:38.000Z</time>
      </trkpt>
      <trkpt lat="47.31294" lon="-1.54302">
        <ele>59</ele>
        <time>2021-08-22T08:54:40.000Z</time>
      </trkpt>
      <trkpt lat="47.31309" lon="-1.54304">
        <ele>58</ele>
        <time>2021-08-22T08:54:42.000Z</time>
      </trkpt>
      <trkpt lat="47.31324" lon="-1.54305">
        <ele>58</ele>
        <time>2021-08-22T08:54:44.000Z</time>
      </trkpt>
      <trkpt lat="47.31339" lon="-1.54308">
        <ele>58</ele>
        <time>2021-08-22T08:54:46.000Z</time>
      </trkpt>
      <trkpt lat="47.31353" lon="-1.54314">
        <ele>58</ele>
        <time>2021-08-22T08:54:48.000Z</time>
      </trkpt>
      <trkpt lat="47.31368" lon="-1.54316">
        <ele>59</ele>
        <time>2021-08-22T08:54:50.000Z</time>
      </trkpt>
      <trkpt lat="47.31383" lon="-1.54318">
        <ele>58</ele>
        <time>2021-08-22T08:54:52.000Z</time>
      </trkpt>
      <trkpt lat="47.31397" lon="-1.54319">
        <ele>59</ele>
        <time>2021-08-22T08:54:54.000Z</time>
      </trkpt>
      <trkpt lat="47.31411" lon="-1.54319">
        <ele>59</ele>
        <time>2021-08-22T08:54:56.000Z</time>
      </trkpt>
      <trkpt lat="47.31425" lon="-1.54321">
        <ele>59</ele>
        <time>2021-08-22T08:54:58.000Z</time>
      </trkpt>
      <trkpt lat="47.31439" lon="-1.54324">
        <ele>60</ele>
        <time>2021-08-22T08:55:00.000Z</time>
      </trkpt>
      <trkpt lat="47.31452" lon="-1.54328">
        <ele>61</ele>
        <time>2021-08-22T08:55:02.000Z</time>
      </trkpt>
      <trkpt lat="47.31466" lon="-1.5433">
        <ele>61</ele>
        <time>2021-08-22T08:55:04.000Z</time>
      </trkpt>
      <trkpt lat="47.3148" lon="-1.54331">
        <ele>61</ele>
        <time>2021-08-22T08:55:06.000Z</time>
      </trkpt>
      <trkpt lat="47.31495" lon="-1.54333">
        <ele>61</ele>
        <time>2021-08-22T08:55:08.000Z</time>
      </trkpt>
      <trkpt lat="47.31509" lon="-1.54328">
        <ele>61</ele>
        <time>2021-08-22T08:55:10.000Z</time>
      </trkpt>
      <trkpt lat="47.31523" lon="-1.54322">
        <ele>61</ele>
        <time>2021-08-22T08:55:12.000Z</time>
      </trkpt>
      <trkpt lat="47.31537" lon="-1.54322">
        <ele>61</ele>
        <time>2021-08-22T08:55:14.000Z</time>
      </trkpt>
      <trkpt lat="47.31552" lon="-1.54324">
        <ele>60</ele>
        <time>2021-08-22T08:55:16.000Z</time>
      </trkpt>
      <trkpt lat="47.31566" lon="-1.54324">
        <ele>60</ele>
        <time>2021-08-22T08:55:18.000Z</time>
      </trkpt>
      <trkpt lat="47.31579" lon="-1.54325">
        <ele>60</ele>
        <time>2021-08-22T08:55:20.000Z</time>
      </trkpt>
      <trkpt lat="47.31593" lon="-1.54325">
        <ele>60</ele>
        <time>2021-08-22T08:55:22.000Z</time>
      </trkpt>
      <trkpt lat="47.31605" lon="-1.54326">
        <ele>60</ele>
        <time>2021-08-22T08:55:24.000Z</time>
      </trkpt>
      <trkpt lat="47.31616" lon="-1.54324">
        <ele>61</ele>
        <time>2021-08-22T08:55:26.000Z</time>
      </trkpt>
      <trkpt lat="47.31627" lon="-1.54318">
        <ele>60</ele>
        <time>2021-08-22T08:55:28.000Z</time>
      </trkpt>
      <trkpt lat="47.31637" lon="-1.54306">
        <ele>60</ele>
        <time>2021-08-22T08:55:30.000Z</time>
      </trkpt>
      <trkpt lat="47.31647" lon="-1.54293">
        <ele>60</ele>
        <time>2021-08-22T08:55:32.000Z</time>
      </trkpt>
      <trkpt lat="47.31659" lon="-1.54285">
        <ele>60</ele>
        <time>2021-08-22T08:55:34.000Z</time>
      </trkpt>
      <trkpt lat="47.31671" lon="-1.54276">
        <ele>59</ele>
        <time>2021-08-22T08:55:36.000Z</time>
      </trkpt>
      <trkpt lat="47.31683" lon="-1.54267">
        <ele>59</ele>
        <time>2021-08-22T08:55:38.000Z</time>
      </trkpt>
      <trkpt lat="47.31694" lon="-1.54257">
        <ele>59</ele>
        <time>2021-08-22T08:55:40.000Z</time>
      </trkpt>
      <trkpt lat="47.31704" lon="-1.54247">
        <ele>59</ele>
        <time>2021-08-22T08:55:42.000Z</time>
      </trkpt>
      <trkpt lat="47.31715" lon="-1.54237">
        <ele>59</ele>
        <time>2021-08-22T08:55:44.000Z</time>
      </trkpt>
      <trkpt lat="47.31726" lon="-1.54225">
        <ele>59</ele>
        <time>2021-08-22T08:55:46.000Z</time>
      </trkpt>
      <trkpt lat="47.31736" lon="-1.54213">
        <ele>58</ele>
        <time>2021-08-22T08:55:48.000Z</time>
      </trkpt>
      <trkpt lat="47.31747" lon="-1.54202">
        <ele>58</ele>
        <time>2021-08-22T08:55:50.000Z</time>
      </trkpt>
      <trkpt lat="47.31757" lon="-1.54191">
        <ele>59</ele>
        <time>2021-08-22T08:55:52.000Z</time>
      </trkpt>
      <trkpt lat="47.31767" lon="-1.54177">
        <ele>59</ele>
        <time>2021-08-22T08:55:54.000Z</time>
      </trkpt>
      <trkpt lat="47.31775" lon="-1.54162">
        <ele>59</ele>
        <time>2021-08-22T08:55:56.000Z</time>
      </trkpt>
      <trkpt lat="47.31784" lon="-1.54146">
        <ele>59</ele>
        <time>2021-08-22T08:55:58.000Z</time>
      </trkpt>
      <trkpt lat="47.31792" lon="-1.54131">
        <ele>59</ele>
        <time>2021-08-22T08:56:00.000Z</time>
      </trkpt>
      <trkpt lat="47.318" lon="-1.54115">
        <ele>59</ele>
        <time>2021-08-22T08:56:02.000Z</time>
      </trkpt>
      <trkpt lat="47.31809" lon="-1.541">
        <ele>59</ele>
        <time>2021-08-22T08:56:04.000Z</time>
      </trkpt>
      <trkpt lat="47.31818" lon="-1.54083">
        <ele>59</ele>
        <time>2021-08-22T08:56:06.000Z</time>
      </trkpt>
      <trkpt lat="47.31825" lon="-1.54067">
        <ele>59</ele>
        <time>2021-08-22T08:56:08.000Z</time>
      </trkpt>
      <trkpt lat="47.31833" lon="-1.5405">
        <ele>59</ele>
        <time>2021-08-22T08:56:10.000Z</time>
      </trkpt>
      <trkpt lat="47.31841" lon="-1.54034">
        <ele>59</ele>
        <time>2021-08-22T08:56:12.000Z</time>
      </trkpt>
      <trkpt lat="47.31849" lon="-1.54018">
        <ele>58</ele>
        <time>2021-08-22T08:56:14.000Z</time>
      </trkpt>
      <trkpt lat="47.31857" lon="-1.54003">
        <ele>58</ele>
        <time>2021-08-22T08:56:16.000Z</time>
      </trkpt>
      <trkpt lat="47.31864" lon="-1.53988">
        <ele>59</ele>
        <time>2021-08-22T08:56:18.000Z</time>
      </trkpt>
      <trkpt lat="47.31871" lon="-1.53974">
        <ele>59</ele>
        <time>2021-08-22T08:56:20.000Z</time>
      </trkpt>
      <trkpt lat="47.31879" lon="-1.5396">
        <ele>59</ele>
        <time>2021-08-22T08:56:22.000Z</time>
      </trkpt>
      <trkpt lat="47.31888" lon="-1.53944">
        <ele>59</ele>
        <time>2021-08-22T08:56:24.000Z</time>
      </trkpt>
      <trkpt lat="47.31896" lon="-1.53926">
        <ele>59</ele>
        <time>2021-08-22T08:56:26.000Z</time>
      </trkpt>
      <trkpt lat="47.31904" lon="-1.53908">
        <ele>59</ele>
        <time>2021-08-22T08:56:28.000Z</time>
      </trkpt>
      <trkpt lat="47.31913" lon="-1.5389">
        <ele>59</ele>
        <time>2021-08-22T08:56:30.000Z</time>
      </trkpt>
      <trkpt lat="47.31922" lon="-1.53873">
        <ele>59</ele>
        <time>2021-08-22T08:56:32.000Z</time>
      </trkpt>
      <trkpt lat="47.31932" lon="-1.53855">
        <ele>59</ele>
        <time>2021-08-22T08:56:34.000Z</time>
      </trkpt>
      <trkpt lat="47.31941" lon="-1.53837">
        <ele>59</ele>
        <time>2021-08-22T08:56:36.000Z</time>
      </trkpt>
      <trkpt lat="47.3195" lon="-1.53819">
        <ele>59</ele>
        <time>2021-08-22T08:56:38.000Z</time>
      </trkpt>
      <trkpt lat="47.31958" lon="-1.53801">
        <ele>60</ele>
        <time>2021-08-22T08:56:40.000Z</time>
      </trkpt>
      <trkpt lat="47.31966" lon="-1.53784">
        <ele>60</ele>
        <time>2021-08-22T08:56:42.000Z</time>
      </trkpt>
      <trkpt lat="47.31978" lon="-1.5377">
        <ele>60</ele>
        <time>2021-08-22T08:56:44.000Z</time>
      </trkpt>
      <trkpt lat="47.3199" lon="-1.53757">
        <ele>61</ele>
        <time>2021-08-22T08:56:46.000Z</time>
      </trkpt>
      <trkpt lat="47.32" lon="-1.53742">
        <ele>62</ele>
        <time>2021-08-22T08:56:48.000Z</time>
      </trkpt>
      <trkpt lat="47.32013" lon="-1.53731">
        <ele>62</ele>
        <time>2021-08-22T08:56:50.000Z</time>
      </trkpt>
      <trkpt lat="47.32025" lon="-1.53721">
        <ele>63</ele>
        <time>2021-08-22T08:56:52.000Z</time>
      </trkpt>
      <trkpt lat="47.32038" lon="-1.53711">
        <ele>64</ele>
        <time>2021-08-22T08:56:54.000Z</time>
      </trkpt>
      <trkpt lat="47.3205" lon="-1.53697">
        <ele>64</ele>
        <time>2021-08-22T08:56:56.000Z</time>
      </trkpt>
      <trkpt lat="47.32057" lon="-1.5368">
        <ele>65</ele>
        <time>2021-08-22T08:56:58.000Z</time>
      </trkpt>
      <trkpt lat="47.3206" lon="-1.53659">
        <ele>65</ele>
        <time>2021-08-22T08:57:00.000Z</time>
      </trkpt>
      <trkpt lat="47.32062" lon="-1.53639">
        <ele>65</ele>
        <time>2021-08-22T08:57:02.000Z</time>
      </trkpt>
      <trkpt lat="47.32069" lon="-1.5362">
        <ele>65</ele>
        <time>2021-08-22T08:57:04.000Z</time>
      </trkpt>
      <trkpt lat="47.32082" lon="-1.53606">
        <ele>65</ele>
        <time>2021-08-22T08:57:06.000Z</time>
      </trkpt>
      <trkpt lat="47.32096" lon="-1.53597">
        <ele>65</ele>
        <time>2021-08-22T08:57:08.000Z</time>
      </trkpt>
      <trkpt lat="47.32111" lon="-1.53589">
        <ele>64</ele>
        <time>2021-08-22T08:57:10.000Z</time>
      </trkpt>
      <trkpt lat="47.32125" lon="-1.53585">
        <ele>65</ele>
        <time>2021-08-22T08:57:12.000Z</time>
      </trkpt>
      <trkpt lat="47.32139" lon="-1.53583">
        <ele>65</ele>
        <time>2021-08-22T08:57:14.000Z</time>
      </trkpt>
      <trkpt lat="47.32154" lon="-1.53582">
        <ele>65</ele>
        <time>2021-08-22T08:57:16.000Z</time>
      </trkpt>
      <trkpt lat="47.32168" lon="-1.53582">
        <ele>65</ele>
        <time>2021-08-22T08:57:18.000Z</time>
      </trkpt>
      <trkpt lat="47.32181" lon="-1.53582">
        <ele>65</ele>
        <time>2021-08-22T08:57:20.000Z</time>
      </trkpt>
      <trkpt lat="47.32194" lon="-1.53582">
        <ele>66</ele>
        <time>2021-08-22T08:57:22.000Z</time>
      </trkpt>
      <trkpt lat="47.32207" lon="-1.53581">
        <ele>66</ele>
        <time>2021-08-22T08:57:24.000Z</time>
      </trkpt>
      <trkpt lat="47.32218" lon="-1.5358">
        <ele>66</ele>
        <time>2021-08-22T08:57:26.000Z</time>
      </trkpt>
      <trkpt lat="47.32229" lon="-1.53581">
        <ele>66</ele>
        <time>2021-08-22T08:57:28.000Z</time>
      </trkpt>
      <trkpt lat="47.3224" lon="-1.53575">
        <ele>65</ele>
        <time>2021-08-22T08:57:30.000Z</time>
      </trkpt>
      <trkpt lat="47.32247" lon="-1.5356">
        <ele>64</ele>
        <time>2021-08-22T08:57:32.000Z</time>
      </trkpt>
      <trkpt lat="47.32248" lon="-1.53543">
        <ele>64</ele>
        <time>2021-08-22T08:57:34.000Z</time>
      </trkpt>
      <trkpt lat="47.32246" lon="-1.53529">
        <ele>62</ele>
        <time>2021-08-22T08:57:36.000Z</time>
      </trkpt>
      <trkpt lat="47.32242" lon="-1.53515">
        <ele>63</ele>
        <time>2021-08-22T08:57:38.000Z</time>
      </trkpt>
      <trkpt lat="47.32249" lon="-1.53507">
        <ele>64</ele>
        <time>2021-08-22T08:57:40.000Z</time>
      </trkpt>
      <trkpt lat="47.32262" lon="-1.53511">
        <ele>65</ele>
        <time>2021-08-22T08:57:42.000Z</time>
      </trkpt>
      <trkpt lat="47.32272" lon="-1.53517">
        <ele>65</ele>
        <time>2021-08-22T08:57:44.000Z</time>
      </trkpt>
      <trkpt lat="47.32283" lon="-1.53523">
        <ele>65</ele>
        <time>2021-08-22T08:57:46.000Z</time>
      </trkpt>
      <trkpt lat="47.32294" lon="-1.53528">
        <ele>66</ele>
        <time>2021-08-22T08:57:48.000Z</time>
      </trkpt>
      <trkpt lat="47.32304" lon="-1.53534">
        <ele>67</ele>
        <time>2021-08-22T08:57:50.000Z</time>
      </trkpt>
      <trkpt lat="47.32314" lon="-1.5354">
        <ele>67</ele>
        <time>2021-08-22T08:57:52.000Z</time>
      </trkpt>
      <trkpt lat="47.32324" lon="-1.53546">
        <ele>68</ele>
        <time>2021-08-22T08:57:54.000Z</time>
      </trkpt>
      <trkpt lat="47.32333" lon="-1.5355">
        <ele>68</ele>
        <time>2021-08-22T08:57:56.000Z</time>
      </trkpt>
      <trkpt lat="47.32344" lon="-1.53556">
        <ele>69</ele>
        <time>2021-08-22T08:57:58.000Z</time>
      </trkpt>
      <trkpt lat="47.32355" lon="-1.53561">
        <ele>70</ele>
        <time>2021-08-22T08:58:00.000Z</time>
      </trkpt>
      <trkpt lat="47.32366" lon="-1.53567">
        <ele>71</ele>
        <time>2021-08-22T08:58:02.000Z</time>
      </trkpt>
      <trkpt lat="47.32377" lon="-1.53572">
        <ele>72</ele>
        <time>2021-08-22T08:58:04.000Z</time>
      </trkpt>
      <trkpt lat="47.32387" lon="-1.53578">
        <ele>72</ele>
        <time>2021-08-22T08:58:06.000Z</time>
      </trkpt>
      <trkpt lat="47.32398" lon="-1.53584">
        <ele>73</ele>
        <time>2021-08-22T08:58:08.000Z</time>
      </trkpt>
      <trkpt lat="47.32409" lon="-1.53589">
        <ele>73</ele>
        <time>2021-08-22T08:58:10.000Z</time>
      </trkpt>
      <trkpt lat="47.32419" lon="-1.53594">
        <ele>74</ele>
        <time>2021-08-22T08:58:12.000Z</time>
      </trkpt>
      <trkpt lat="47.3243" lon="-1.53599">
        <ele>74</ele>
        <time>2021-08-22T08:58:14.000Z</time>
      </trkpt>
      <trkpt lat="47.3244" lon="-1.53605">
        <ele>74</ele>
        <time>2021-08-22T08:58:16.000Z</time>
      </trkpt>
      <trkpt lat="47.32451" lon="-1.5361">
        <ele>75</ele>
        <time>2021-08-22T08:58:18.000Z</time>
      </trkpt>
      <trkpt lat="47.32462" lon="-1.53615">
        <ele>75</ele>
        <time>2021-08-22T08:58:20.000Z</time>
      </trkpt>
      <trkpt lat="47.32472" lon="-1.5362">
        <ele>75</ele>
        <time>2021-08-22T08:58:22.000Z</time>
      </trkpt>
      <trkpt lat="47.32483" lon="-1.53625">
        <ele>76</ele>
        <time>2021-08-22T08:58:24.000Z</time>
      </trkpt>
      <trkpt lat="47.32493" lon="-1.5363">
        <ele>76</ele>
        <time>2021-08-22T08:58:26.000Z</time>
      </trkpt>
      <trkpt lat="47.32503" lon="-1.53635">
        <ele>76</ele>
        <time>2021-08-22T08:58:28.000Z</time>
      </trkpt>
      <trkpt lat="47.32513" lon="-1.5364">
        <ele>77</ele>
        <time>2021-08-22T08:58:30.000Z</time>
      </trkpt>
      <trkpt lat="47.32524" lon="-1.53645">
        <ele>77</ele>
        <time>2021-08-22T08:58:32.000Z</time>
      </trkpt>
      <trkpt lat="47.32534" lon="-1.5365">
        <ele>77</ele>
        <time>2021-08-22T08:58:34.000Z</time>
      </trkpt>
      <trkpt lat="47.32544" lon="-1.53655">
        <ele>77</ele>
        <time>2021-08-22T08:58:36.000Z</time>
      </trkpt>
      <trkpt lat="47.32554" lon="-1.53661">
        <ele>77</ele>
        <time>2021-08-22T08:58:38.000Z</time>
      </trkpt>
      <trkpt lat="47.32565" lon="-1.53666">
        <ele>78</ele>
        <time>2021-08-22T08:58:40.000Z</time>
      </trkpt>
      <trkpt lat="47.32575" lon="-1.53671">
        <ele>78</ele>
        <time>2021-08-22T08:58:42.000Z</time>
      </trkpt>
      <trkpt lat="47.32586" lon="-1.53676">
        <ele>78</ele>
        <time>2021-08-22T08:58:44.000Z</time>
      </trkpt>
      <trkpt lat="47.32597" lon="-1.53681">
        <ele>78</ele>
        <time>2021-08-22T08:58:46.000Z</time>
      </trkpt>
      <trkpt lat="47.32608" lon="-1.53685">
        <ele>79</ele>
        <time>2021-08-22T08:58:48.000Z</time>
      </trkpt>
      <trkpt lat="47.32619" lon="-1.53688">
        <ele>79</ele>
        <time>2021-08-22T08:58:50.000Z</time>
      </trkpt>
      <trkpt lat="47.3263" lon="-1.53692">
        <ele>79</ele>
        <time>2021-08-22T08:58:52.000Z</time>
      </trkpt>
      <trkpt lat="47.3264" lon="-1.53696">
        <ele>79</ele>
        <time>2021-08-22T08:58:54.000Z</time>
      </trkpt>
      <trkpt lat="47.32651" lon="-1.53696">
        <ele>78</ele>
        <time>2021-08-22T08:58:56.000Z</time>
      </trkpt>
      <trkpt lat="47.32662" lon="-1.53697">
        <ele>78</ele>
        <time>2021-08-22T08:58:58.000Z</time>
      </trkpt>
      <trkpt lat="47.32674" lon="-1.53695">
        <ele>78</ele>
        <time>2021-08-22T08:59:00.000Z</time>
      </trkpt>
      <trkpt lat="47.32687" lon="-1.53697">
        <ele>78</ele>
        <time>2021-08-22T08:59:02.000Z</time>
      </trkpt>
      <trkpt lat="47.32701" lon="-1.53699">
        <ele>77</ele>
        <time>2021-08-22T08:59:04.000Z</time>
      </trkpt>
      <trkpt lat="47.32715" lon="-1.537">
        <ele>77</ele>
        <time>2021-08-22T08:59:06.000Z</time>
      </trkpt>
      <trkpt lat="47.32731" lon="-1.53698">
        <ele>76</ele>
        <time>2021-08-22T08:59:08.000Z</time>
      </trkpt>
      <trkpt lat="47.32746" lon="-1.53693">
        <ele>75</ele>
        <time>2021-08-22T08:59:10.000Z</time>
      </trkpt>
      <trkpt lat="47.32763" lon="-1.53687">
        <ele>73</ele>
        <time>2021-08-22T08:59:12.000Z</time>
      </trkpt>
      <trkpt lat="47.32779" lon="-1.53685">
        <ele>72</ele>
        <time>2021-08-22T08:59:14.000Z</time>
      </trkpt>
      <trkpt lat="47.32796" lon="-1.53683">
        <ele>72</ele>
        <time>2021-08-22T08:59:16.000Z</time>
      </trkpt>
      <trkpt lat="47.32813" lon="-1.53681">
        <ele>70</ele>
        <time>2021-08-22T08:59:18.000Z</time>
      </trkpt>
      <trkpt lat="47.32829" lon="-1.53679">
        <ele>69</ele>
        <time>2021-08-22T08:59:20.000Z</time>
      </trkpt>
      <trkpt lat="47.32845" lon="-1.53677">
        <ele>69</ele>
        <time>2021-08-22T08:59:22.000Z</time>
      </trkpt>
      <trkpt lat="47.3286" lon="-1.53679">
        <ele>69</ele>
        <time>2021-08-22T08:59:24.000Z</time>
      </trkpt>
      <trkpt lat="47.32875" lon="-1.53681">
        <ele>68</ele>
        <time>2021-08-22T08:59:26.000Z</time>
      </trkpt>
      <trkpt lat="47.32891" lon="-1.53678">
        <ele>67</ele>
        <time>2021-08-22T08:59:28.000Z</time>
      </trkpt>
      <trkpt lat="47.32907" lon="-1.53675">
        <ele>67</ele>
        <time>2021-08-22T08:59:30.000Z</time>
      </trkpt>
      <trkpt lat="47.32924" lon="-1.53671">
        <ele>66</ele>
        <time>2021-08-22T08:59:32.000Z</time>
      </trkpt>
      <trkpt lat="47.32942" lon="-1.53666">
        <ele>65</ele>
        <time>2021-08-22T08:59:34.000Z</time>
      </trkpt>
      <trkpt lat="47.32959" lon="-1.53661">
        <ele>64</ele>
        <time>2021-08-22T08:59:36.000Z</time>
      </trkpt>
      <trkpt lat="47.32976" lon="-1.53655">
        <ele>64</ele>
        <time>2021-08-22T08:59:38.000Z</time>
      </trkpt>
      <trkpt lat="47.32992" lon="-1.53648">
        <ele>64</ele>
        <time>2021-08-22T08:59:40.000Z</time>
      </trkpt>
      <trkpt lat="47.33009" lon="-1.53642">
        <ele>65</ele>
        <time>2021-08-22T08:59:42.000Z</time>
      </trkpt>
      <trkpt lat="47.33025" lon="-1.53637">
        <ele>65</ele>
        <time>2021-08-22T08:59:44.000Z</time>
      </trkpt>
      <trkpt lat="47.3304" lon="-1.53631">
        <ele>66</ele>
        <time>2021-08-22T08:59:46.000Z</time>
      </trkpt>
      <trkpt lat="47.33056" lon="-1.53626">
        <ele>66</ele>
        <time>2021-08-22T08:59:48.000Z</time>
      </trkpt>
      <trkpt lat="47.3307" lon="-1.53621">
        <ele>66</ele>
        <time>2021-08-22T08:59:50.000Z</time>
      </trkpt>
      <trkpt lat="47.33084" lon="-1.53616">
        <ele>67</ele>
        <time>2021-08-22T08:59:52.000Z</time>
      </trkpt>
      <trkpt lat="47.33097" lon="-1.53611">
        <ele>68</ele>
        <time>2021-08-22T08:59:54.000Z</time>
      </trkpt>
      <trkpt lat="47.33111" lon="-1.53606">
        <ele>68</ele>
        <time>2021-08-22T08:59:56.000Z</time>
      </trkpt>
      <trkpt lat="47.33125" lon="-1.53602">
        <ele>69</ele>
        <time>2021-08-22T08:59:58.000Z</time>
      </trkpt>
      <trkpt lat="47.33138" lon="-1.53598">
        <ele>70</ele>
        <time>2021-08-22T09:00:00.000Z</time>
      </trkpt>
      <trkpt lat="47.33152" lon="-1.53594">
        <ele>70</ele>
        <time>2021-08-22T09:00:02.000Z</time>
      </trkpt>
      <trkpt lat="47.33165" lon="-1.53589">
        <ele>71</ele>
        <time>2021-08-22T09:00:04.000Z</time>
      </trkpt>
      <trkpt lat="47.33178" lon="-1.53584">
        <ele>71</ele>
        <time>2021-08-22T09:00:06.000Z</time>
      </trkpt>
      <trkpt lat="47.33191" lon="-1.5358">
        <ele>72</ele>
        <time>2021-08-22T09:00:08.000Z</time>
      </trkpt>
      <trkpt lat="47.33205" lon="-1.53575">
        <ele>73</ele>
        <time>2021-08-22T09:00:10.000Z</time>
      </trkpt>
      <trkpt lat="47.33217" lon="-1.53571">
        <ele>73</ele>
        <time>2021-08-22T09:00:12.000Z</time>
      </trkpt>
      <trkpt lat="47.3323" lon="-1.53566">
        <ele>73</ele>
        <time>2021-08-22T09:00:14.000Z</time>
      </trkpt>
      <trkpt lat="47.33241" lon="-1.53562">
        <ele>73</ele>
        <time>2021-08-22T09:00:16.000Z</time>
      </trkpt>
      <trkpt lat="47.33252" lon="-1.53557">
        <ele>73</ele>
        <time>2021-08-22T09:00:18.000Z</time>
      </trkpt>
      <trkpt lat="47.33261" lon="-1.53546">
        <ele>74</ele>
        <time>2021-08-22T09:00:21.000Z</time>
      </trkpt>
      <trkpt lat="47.33272" lon="-1.53543">
        <ele>73</ele>
        <time>2021-08-22T09:00:24.000Z</time>
      </trkpt>
      <trkpt lat="47.33282" lon="-1.53539">
        <ele>75</ele>
        <time>2021-08-22T09:00:26.000Z</time>
      </trkpt>
      <trkpt lat="47.33293" lon="-1.53535">
        <ele>74</ele>
        <time>2021-08-22T09:00:28.000Z</time>
      </trkpt>
      <trkpt lat="47.33303" lon="-1.53531">
        <ele>74</ele>
        <time>2021-08-22T09:00:30.000Z</time>
      </trkpt>
      <trkpt lat="47.33314" lon="-1.53528">
        <ele>74</ele>
        <time>2021-08-22T09:00:32.000Z</time>
      </trkpt>
      <trkpt lat="47.33325" lon="-1.53522">
        <ele>73</ele>
        <time>2021-08-22T09:00:34.000Z</time>
      </trkpt>
      <trkpt lat="47.33337" lon="-1.53518">
        <ele>73</ele>
        <time>2021-08-22T09:00:36.000Z</time>
      </trkpt>
      <trkpt lat="47.33348" lon="-1.53513">
        <ele>73</ele>
        <time>2021-08-22T09:00:38.000Z</time>
      </trkpt>
      <trkpt lat="47.3336" lon="-1.53508">
        <ele>73</ele>
        <time>2021-08-22T09:00:40.000Z</time>
      </trkpt>
      <trkpt lat="47.33372" lon="-1.53504">
        <ele>72</ele>
        <time>2021-08-22T09:00:42.000Z</time>
      </trkpt>
      <trkpt lat="47.33384" lon="-1.53501">
        <ele>72</ele>
        <time>2021-08-22T09:00:44.000Z</time>
      </trkpt>
      <trkpt lat="47.33397" lon="-1.535">
        <ele>72</ele>
        <time>2021-08-22T09:00:46.000Z</time>
      </trkpt>
      <trkpt lat="47.33409" lon="-1.53497">
        <ele>72</ele>
        <time>2021-08-22T09:00:48.000Z</time>
      </trkpt>
      <trkpt lat="47.33422" lon="-1.53494">
        <ele>72</ele>
        <time>2021-08-22T09:00:50.000Z</time>
      </trkpt>
      <trkpt lat="47.33435" lon="-1.53491">
        <ele>72</ele>
        <time>2021-08-22T09:00:52.000Z</time>
      </trkpt>
      <trkpt lat="47.33449" lon="-1.53488">
        <ele>71</ele>
        <time>2021-08-22T09:00:54.000Z</time>
      </trkpt>
      <trkpt lat="47.33464" lon="-1.53486">
        <ele>71</ele>
        <time>2021-08-22T09:00:56.000Z</time>
      </trkpt>
      <trkpt lat="47.3348" lon="-1.53483">
        <ele>70</ele>
        <time>2021-08-22T09:00:58.000Z</time>
      </trkpt>
      <trkpt lat="47.33496" lon="-1.53484">
        <ele>69</ele>
        <time>2021-08-22T09:01:00.000Z</time>
      </trkpt>
      <trkpt lat="47.33512" lon="-1.53483">
        <ele>68</ele>
        <time>2021-08-22T09:01:02.000Z</time>
      </trkpt>
      <trkpt lat="47.33528" lon="-1.53483">
        <ele>68</ele>
        <time>2021-08-22T09:01:04.000Z</time>
      </trkpt>
      <trkpt lat="47.33545" lon="-1.53482">
        <ele>69</ele>
        <time>2021-08-22T09:01:06.000Z</time>
      </trkpt>
      <trkpt lat="47.33562" lon="-1.53482">
        <ele>68</ele>
        <time>2021-08-22T09:01:08.000Z</time>
      </trkpt>
      <trkpt lat="47.33579" lon="-1.53483">
        <ele>67</ele>
        <time>2021-08-22T09:01:10.000Z</time>
      </trkpt>
      <trkpt lat="47.33597" lon="-1.53483">
        <ele>67</ele>
        <time>2021-08-22T09:01:12.000Z</time>
      </trkpt>
      <trkpt lat="47.33614" lon="-1.53484">
        <ele>66</ele>
        <time>2021-08-22T09:01:14.000Z</time>
      </trkpt>
      <trkpt lat="47.3363" lon="-1.53484">
        <ele>66</ele>
        <time>2021-08-22T09:01:16.000Z</time>
      </trkpt>
      <trkpt lat="47.33647" lon="-1.53482">
        <ele>66</ele>
        <time>2021-08-22T09:01:18.000Z</time>
      </trkpt>
      <trkpt lat="47.33664" lon="-1.53478">
        <ele>66</ele>
        <time>2021-08-22T09:01:20.000Z</time>
      </trkpt>
      <trkpt lat="47.3368" lon="-1.53473">
        <ele>65</ele>
        <time>2021-08-22T09:01:22.000Z</time>
      </trkpt>
      <trkpt lat="47.33696" lon="-1.53466">
        <ele>65</ele>
        <time>2021-08-22T09:01:24.000Z</time>
      </trkpt>
      <trkpt lat="47.33711" lon="-1.53457">
        <ele>65</ele>
        <time>2021-08-22T09:01:26.000Z</time>
      </trkpt>
      <trkpt lat="47.33725" lon="-1.53447">
        <ele>65</ele>
        <time>2021-08-22T09:01:28.000Z</time>
      </trkpt>
      <trkpt lat="47.33737" lon="-1.53437">
        <ele>65</ele>
        <time>2021-08-22T09:01:30.000Z</time>
      </trkpt>
      <trkpt lat="47.33748" lon="-1.53427">
        <ele>65</ele>
        <time>2021-08-22T09:01:32.000Z</time>
      </trkpt>
      <trkpt lat="47.3376" lon="-1.53416">
        <ele>66</ele>
        <time>2021-08-22T09:01:34.000Z</time>
      </trkpt>
      <trkpt lat="47.33771" lon="-1.53405">
        <ele>66</ele>
        <time>2021-08-22T09:01:36.000Z</time>
      </trkpt>
      <trkpt lat="47.33783" lon="-1.53396">
        <ele>67</ele>
        <time>2021-08-22T09:01:38.000Z</time>
      </trkpt>
      <trkpt lat="47.33795" lon="-1.53386">
        <ele>67</ele>
        <time>2021-08-22T09:01:40.000Z</time>
      </trkpt>
      <trkpt lat="47.33805" lon="-1.53376">
        <ele>67</ele>
        <time>2021-08-22T09:01:42.000Z</time>
      </trkpt>
      <trkpt lat="47.33817" lon="-1.53366">
        <ele>66</ele>
        <time>2021-08-22T09:01:44.000Z</time>
      </trkpt>
      <trkpt lat="47.33828" lon="-1.53354">
        <ele>67</ele>
        <time>2021-08-22T09:01:46.000Z</time>
      </trkpt>
      <trkpt lat="47.33839" lon="-1.53342">
        <ele>67</ele>
        <time>2021-08-22T09:01:48.000Z</time>
      </trkpt>
      <trkpt lat="47.33849" lon="-1.5333">
        <ele>67</ele>
        <time>2021-08-22T09:01:50.000Z</time>
      </trkpt>
      <trkpt lat="47.33859" lon="-1.53316">
        <ele>67</ele>
        <time>2021-08-22T09:01:52.000Z</time>
      </trkpt>
      <trkpt lat="47.3387" lon="-1.53303">
        <ele>67</ele>
        <time>2021-08-22T09:01:54.000Z</time>
      </trkpt>
      <trkpt lat="47.33881" lon="-1.53288">
        <ele>67</ele>
        <time>2021-08-22T09:01:56.000Z</time>
      </trkpt>
      <trkpt lat="47.33891" lon="-1.53275">
        <ele>66</ele>
        <time>2021-08-22T09:01:58.000Z</time>
      </trkpt>
      <trkpt lat="47.33903" lon="-1.53263">
        <ele>66</ele>
        <time>2021-08-22T09:02:00.000Z</time>
      </trkpt>
      <trkpt lat="47.33913" lon="-1.53249">
        <ele>65</ele>
        <time>2021-08-22T09:02:02.000Z</time>
      </trkpt>
      <trkpt lat="47.33924" lon="-1.53235">
        <ele>66</ele>
        <time>2021-08-22T09:02:04.000Z</time>
      </trkpt>
      <trkpt lat="47.33935" lon="-1.53221">
        <ele>65</ele>
        <time>2021-08-22T09:02:06.000Z</time>
      </trkpt>
      <trkpt lat="47.33946" lon="-1.53207">
        <ele>65</ele>
        <time>2021-08-22T09:02:08.000Z</time>
      </trkpt>
      <trkpt lat="47.33957" lon="-1.53193">
        <ele>65</ele>
        <time>2021-08-22T09:02:10.000Z</time>
      </trkpt>
      <trkpt lat="47.33966" lon="-1.53176">
        <ele>65</ele>
        <time>2021-08-22T09:02:12.000Z</time>
      </trkpt>
      <trkpt lat="47.33974" lon="-1.53158">
        <ele>63</ele>
        <time>2021-08-22T09:02:14.000Z</time>
      </trkpt>
      <trkpt lat="47.33979" lon="-1.53137">
        <ele>63</ele>
        <time>2021-08-22T09:02:16.000Z</time>
      </trkpt>
      <trkpt lat="47.33981" lon="-1.53113">
        <ele>62</ele>
        <time>2021-08-22T09:02:18.000Z</time>
      </trkpt>
      <trkpt lat="47.33983" lon="-1.53089">
        <ele>61</ele>
        <time>2021-08-22T09:02:20.000Z</time>
      </trkpt>
      <trkpt lat="47.33986" lon="-1.53066">
        <ele>61</ele>
        <time>2021-08-22T09:02:22.000Z</time>
      </trkpt>
      <trkpt lat="47.33989" lon="-1.53044">
        <ele>60</ele>
        <time>2021-08-22T09:02:24.000Z</time>
      </trkpt>
      <trkpt lat="47.33991" lon="-1.53021">
        <ele>60</ele>
        <time>2021-08-22T09:02:26.000Z</time>
      </trkpt>
      <trkpt lat="47.33993" lon="-1.52999">
        <ele>60</ele>
        <time>2021-08-22T09:02:28.000Z</time>
      </trkpt>
      <trkpt lat="47.33995" lon="-1.52979">
        <ele>60</ele>
        <time>2021-08-22T09:02:30.000Z</time>
      </trkpt>
      <trkpt lat="47.33997" lon="-1.5296">
        <ele>61</ele>
        <time>2021-08-22T09:02:32.000Z</time>
      </trkpt>
      <trkpt lat="47.34" lon="-1.52941">
        <ele>61</ele>
        <time>2021-08-22T09:02:34.000Z</time>
      </trkpt>
      <trkpt lat="47.34003" lon="-1.52922">
        <ele>62</ele>
        <time>2021-08-22T09:02:36.000Z</time>
      </trkpt>
      <trkpt lat="47.34005" lon="-1.52905">
        <ele>62</ele>
        <time>2021-08-22T09:02:38.000Z</time>
      </trkpt>
      <trkpt lat="47.34014" lon="-1.52896">
        <ele>63</ele>
        <time>2021-08-22T09:02:40.000Z</time>
      </trkpt>
      <trkpt lat="47.34023" lon="-1.52905">
        <ele>63</ele>
        <time>2021-08-22T09:02:42.000Z</time>
      </trkpt>
      <trkpt lat="47.34031" lon="-1.52917">
        <ele>63</ele>
        <time>2021-08-22T09:02:44.000Z</time>
      </trkpt>
      <trkpt lat="47.3404" lon="-1.52928">
        <ele>63</ele>
        <time>2021-08-22T09:02:46.000Z</time>
      </trkpt>
      <trkpt lat="47.34051" lon="-1.52939">
        <ele>64</ele>
        <time>2021-08-22T09:02:48.000Z</time>
      </trkpt>
      <trkpt lat="47.34061" lon="-1.52949">
        <ele>64</ele>
        <time>2021-08-22T09:02:50.000Z</time>
      </trkpt>
      <trkpt lat="47.34071" lon="-1.52959">
        <ele>65</ele>
        <time>2021-08-22T09:02:52.000Z</time>
      </trkpt>
      <trkpt lat="47.3408" lon="-1.5297">
        <ele>65</ele>
        <time>2021-08-22T09:02:54.000Z</time>
      </trkpt>
      <trkpt lat="47.34088" lon="-1.52981">
        <ele>65</ele>
        <time>2021-08-22T09:02:56.000Z</time>
      </trkpt>
      <trkpt lat="47.34096" lon="-1.52992">
        <ele>65</ele>
        <time>2021-08-22T09:02:58.000Z</time>
      </trkpt>
      <trkpt lat="47.34109" lon="-1.52997">
        <ele>65</ele>
        <time>2021-08-22T09:03:01.000Z</time>
      </trkpt>
      <trkpt lat="47.34118" lon="-1.52987">
        <ele>65</ele>
        <time>2021-08-22T09:03:03.000Z</time>
      </trkpt>
      <trkpt lat="47.34126" lon="-1.52974">
        <ele>65</ele>
        <time>2021-08-22T09:03:05.000Z</time>
      </trkpt>
      <trkpt lat="47.34135" lon="-1.52961">
        <ele>64</ele>
        <time>2021-08-22T09:03:07.000Z</time>
      </trkpt>
      <trkpt lat="47.34144" lon="-1.5295">
        <ele>64</ele>
        <time>2021-08-22T09:03:09.000Z</time>
      </trkpt>
      <trkpt lat="47.34154" lon="-1.52949">
        <ele>64</ele>
        <time>2021-08-22T09:03:13.000Z</time>
      </trkpt>
      <trkpt lat="47.34161" lon="-1.52964">
        <ele>65</ele>
        <time>2021-08-22T09:03:17.000Z</time>
      </trkpt>
      <trkpt lat="47.34166" lon="-1.52981">
        <ele>66</ele>
        <time>2021-08-22T09:03:20.000Z</time>
      </trkpt>
      <trkpt lat="47.3417" lon="-1.52994">
        <ele>67</ele>
        <time>2021-08-22T09:03:22.000Z</time>
      </trkpt>
      <trkpt lat="47.34175" lon="-1.53007">
        <ele>67</ele>
        <time>2021-08-22T09:03:24.000Z</time>
      </trkpt>
      <trkpt lat="47.3418" lon="-1.53021">
        <ele>67</ele>
        <time>2021-08-22T09:03:26.000Z</time>
      </trkpt>
      <trkpt lat="47.34187" lon="-1.53034">
        <ele>69</ele>
        <time>2021-08-22T09:03:29.000Z</time>
      </trkpt>
      <trkpt lat="47.34197" lon="-1.53036">
        <ele>70</ele>
        <time>2021-08-22T09:03:32.000Z</time>
      </trkpt>
      <trkpt lat="47.34208" lon="-1.53033">
        <ele>71</ele>
        <time>2021-08-22T09:03:36.000Z</time>
      </trkpt>
      <trkpt lat="47.34216" lon="-1.53026">
        <ele>70</ele>
        <time>2021-08-22T09:03:38.000Z</time>
      </trkpt>
      <trkpt lat="47.34226" lon="-1.5302">
        <ele>70</ele>
        <time>2021-08-22T09:03:40.000Z</time>
      </trkpt>
      <trkpt lat="47.34235" lon="-1.53012">
        <ele>70</ele>
        <time>2021-08-22T09:03:42.000Z</time>
      </trkpt>
      <trkpt lat="47.34242" lon="-1.53004">
        <ele>71</ele>
        <time>2021-08-22T09:03:44.000Z</time>
      </trkpt>
      <trkpt lat="47.3425" lon="-1.52995">
        <ele>71</ele>
        <time>2021-08-22T09:03:46.000Z</time>
      </trkpt>
      <trkpt lat="47.34259" lon="-1.52987">
        <ele>71</ele>
        <time>2021-08-22T09:03:48.000Z</time>
      </trkpt>
      <trkpt lat="47.34268" lon="-1.52979">
        <ele>72</ele>
        <time>2021-08-22T09:03:50.000Z</time>
      </trkpt>
      <trkpt lat="47.34277" lon="-1.5297">
        <ele>72</ele>
        <time>2021-08-22T09:03:52.000Z</time>
      </trkpt>
      <trkpt lat="47.34286" lon="-1.52961">
        <ele>72</ele>
        <time>2021-08-22T09:03:54.000Z</time>
      </trkpt>
      <trkpt lat="47.34295" lon="-1.52951">
        <ele>72</ele>
        <time>2021-08-22T09:03:56.000Z</time>
      </trkpt>
      <trkpt lat="47.34305" lon="-1.52942">
        <ele>72</ele>
        <time>2021-08-22T09:03:58.000Z</time>
      </trkpt>
      <trkpt lat="47.34314" lon="-1.52933">
        <ele>72</ele>
        <time>2021-08-22T09:04:00.000Z</time>
      </trkpt>
      <trkpt lat="47.34323" lon="-1.52924">
        <ele>72</ele>
        <time>2021-08-22T09:04:02.000Z</time>
      </trkpt>
      <trkpt lat="47.34336" lon="-1.52911">
        <ele>73</ele>
        <time>2021-08-22T09:04:05.000Z</time>
      </trkpt>
      <trkpt lat="47.34345" lon="-1.52903">
        <ele>74</ele>
        <time>2021-08-22T09:04:07.000Z</time>
      </trkpt>
      <trkpt lat="47.34353" lon="-1.52894">
        <ele>73</ele>
        <time>2021-08-22T09:04:09.000Z</time>
      </trkpt>
      <trkpt lat="47.34362" lon="-1.52885">
        <ele>74</ele>
        <time>2021-08-22T09:04:11.000Z</time>
      </trkpt>
      <trkpt lat="47.34372" lon="-1.52876">
        <ele>75</ele>
        <time>2021-08-22T09:04:13.000Z</time>
      </trkpt>
      <trkpt lat="47.3438" lon="-1.52866">
        <ele>75</ele>
        <time>2021-08-22T09:04:15.000Z</time>
      </trkpt>
      <trkpt lat="47.34388" lon="-1.52856">
        <ele>76</ele>
        <time>2021-08-22T09:04:17.000Z</time>
      </trkpt>
      <trkpt lat="47.34396" lon="-1.52845">
        <ele>75</ele>
        <time>2021-08-22T09:04:19.000Z</time>
      </trkpt>
      <trkpt lat="47.34403" lon="-1.52838">
        <ele>75</ele>
        <time>2021-08-22T09:04:21.000Z</time>
      </trkpt>
      <trkpt lat="47.34415" lon="-1.52844">
        <ele>74</ele>
        <time>2021-08-22T09:04:23.000Z</time>
      </trkpt>
      <trkpt lat="47.34426" lon="-1.5285">
        <ele>73</ele>
        <time>2021-08-22T09:04:25.000Z</time>
      </trkpt>
      <trkpt lat="47.34436" lon="-1.52857">
        <ele>73</ele>
        <time>2021-08-22T09:04:27.000Z</time>
      </trkpt>
      <trkpt lat="47.34447" lon="-1.52865">
        <ele>72</ele>
        <time>2021-08-22T09:04:29.000Z</time>
      </trkpt>
      <trkpt lat="47.34457" lon="-1.52875">
        <ele>72</ele>
        <time>2021-08-22T09:04:31.000Z</time>
      </trkpt>
      <trkpt lat="47.34466" lon="-1.52884">
        <ele>72</ele>
        <time>2021-08-22T09:04:33.000Z</time>
      </trkpt>
      <trkpt lat="47.34475" lon="-1.52893">
        <ele>72</ele>
        <time>2021-08-22T09:04:35.000Z</time>
      </trkpt>
      <trkpt lat="47.34483" lon="-1.52904">
        <ele>72</ele>
        <time>2021-08-22T09:04:37.000Z</time>
      </trkpt>
      <trkpt lat="47.34491" lon="-1.52915">
        <ele>73</ele>
        <time>2021-08-22T09:04:39.000Z</time>
      </trkpt>
      <trkpt lat="47.34499" lon="-1.52927">
        <ele>74</ele>
        <time>2021-08-22T09:04:41.000Z</time>
      </trkpt>
      <trkpt lat="47.34507" lon="-1.52939">
        <ele>73</ele>
        <time>2021-08-22T09:04:43.000Z</time>
      </trkpt>
      <trkpt lat="47.34514" lon="-1.52951">
        <ele>74</ele>
        <time>2021-08-22T09:04:45.000Z</time>
      </trkpt>
      <trkpt lat="47.34522" lon="-1.52962">
        <ele>74</ele>
        <time>2021-08-22T09:04:47.000Z</time>
      </trkpt>
      <trkpt lat="47.34531" lon="-1.52969">
        <ele>74</ele>
        <time>2021-08-22T09:04:49.000Z</time>
      </trkpt>
      <trkpt lat="47.34541" lon="-1.52973">
        <ele>75</ele>
        <time>2021-08-22T09:04:51.000Z</time>
      </trkpt>
      <trkpt lat="47.34551" lon="-1.52982">
        <ele>75</ele>
        <time>2021-08-22T09:04:53.000Z</time>
      </trkpt>
      <trkpt lat="47.34559" lon="-1.52991">
        <ele>75</ele>
        <time>2021-08-22T09:04:55.000Z</time>
      </trkpt>
      <trkpt lat="47.34568" lon="-1.52999">
        <ele>76</ele>
        <time>2021-08-22T09:04:57.000Z</time>
      </trkpt>
      <trkpt lat="47.34578" lon="-1.53006">
        <ele>76</ele>
        <time>2021-08-22T09:04:59.000Z</time>
      </trkpt>
      <trkpt lat="47.34588" lon="-1.53014">
        <ele>76</ele>
        <time>2021-08-22T09:05:01.000Z</time>
      </trkpt>
      <trkpt lat="47.34598" lon="-1.53021">
        <ele>76</ele>
        <time>2021-08-22T09:05:03.000Z</time>
      </trkpt>
      <trkpt lat="47.34608" lon="-1.53028">
        <ele>77</ele>
        <time>2021-08-22T09:05:05.000Z</time>
      </trkpt>
      <trkpt lat="47.34618" lon="-1.53036">
        <ele>78</ele>
        <time>2021-08-22T09:05:07.000Z</time>
      </trkpt>
      <trkpt lat="47.34628" lon="-1.53042">
        <ele>79</ele>
        <time>2021-08-22T09:05:09.000Z</time>
      </trkpt>
      <trkpt lat="47.34639" lon="-1.53047">
        <ele>79</ele>
        <time>2021-08-22T09:05:11.000Z</time>
      </trkpt>
      <trkpt lat="47.34648" lon="-1.53053">
        <ele>79</ele>
        <time>2021-08-22T09:05:13.000Z</time>
      </trkpt>
      <trkpt lat="47.34659" lon="-1.53057">
        <ele>79</ele>
        <time>2021-08-22T09:05:15.000Z</time>
      </trkpt>
      <trkpt lat="47.3467" lon="-1.53061">
        <ele>79</ele>
        <time>2021-08-22T09:05:17.000Z</time>
      </trkpt>
      <trkpt lat="47.3468" lon="-1.53065">
        <ele>79</ele>
        <time>2021-08-22T09:05:19.000Z</time>
      </trkpt>
      <trkpt lat="47.3469" lon="-1.53069">
        <ele>79</ele>
        <time>2021-08-22T09:05:21.000Z</time>
      </trkpt>
      <trkpt lat="47.34701" lon="-1.53072">
        <ele>80</ele>
        <time>2021-08-22T09:05:23.000Z</time>
      </trkpt>
      <trkpt lat="47.34712" lon="-1.53074">
        <ele>80</ele>
        <time>2021-08-22T09:05:25.000Z</time>
      </trkpt>
      <trkpt lat="47.34724" lon="-1.53076">
        <ele>80</ele>
        <time>2021-08-22T09:05:27.000Z</time>
      </trkpt>
      <trkpt lat="47.34735" lon="-1.53076">
        <ele>80</ele>
        <time>2021-08-22T09:05:29.000Z</time>
      </trkpt>
      <trkpt lat="47.34748" lon="-1.53076">
        <ele>81</ele>
        <time>2021-08-22T09:05:31.000Z</time>
      </trkpt>
      <trkpt lat="47.34761" lon="-1.53074">
        <ele>82</ele>
        <time>2021-08-22T09:05:33.000Z</time>
      </trkpt>
      <trkpt lat="47.34775" lon="-1.53072">
        <ele>81</ele>
        <time>2021-08-22T09:05:35.000Z</time>
      </trkpt>
      <trkpt lat="47.3479" lon="-1.53069">
        <ele>81</ele>
        <time>2021-08-22T09:05:37.000Z</time>
      </trkpt>
      <trkpt lat="47.34804" lon="-1.53066">
        <ele>81</ele>
        <time>2021-08-22T09:05:39.000Z</time>
      </trkpt>
      <trkpt lat="47.34819" lon="-1.53063">
        <ele>80</ele>
        <time>2021-08-22T09:05:41.000Z</time>
      </trkpt>
      <trkpt lat="47.34835" lon="-1.53062">
        <ele>79</ele>
        <time>2021-08-22T09:05:43.000Z</time>
      </trkpt>
      <trkpt lat="47.34851" lon="-1.53061">
        <ele>78</ele>
        <time>2021-08-22T09:05:45.000Z</time>
      </trkpt>
      <trkpt lat="47.34866" lon="-1.53062">
        <ele>77</ele>
        <time>2021-08-22T09:05:47.000Z</time>
      </trkpt>
      <trkpt lat="47.34881" lon="-1.53065">
        <ele>76</ele>
        <time>2021-08-22T09:05:49.000Z</time>
      </trkpt>
      <trkpt lat="47.34896" lon="-1.53068">
        <ele>75</ele>
        <time>2021-08-22T09:05:51.000Z</time>
      </trkpt>
      <trkpt lat="47.3491" lon="-1.53072">
        <ele>75</ele>
        <time>2021-08-22T09:05:53.000Z</time>
      </trkpt>
      <trkpt lat="47.34925" lon="-1.53074">
        <ele>74</ele>
        <time>2021-08-22T09:05:55.000Z</time>
      </trkpt>
      <trkpt lat="47.34939" lon="-1.53077">
        <ele>74</ele>
        <time>2021-08-22T09:05:57.000Z</time>
      </trkpt>
      <trkpt lat="47.34952" lon="-1.53079">
        <ele>74</ele>
        <time>2021-08-22T09:05:59.000Z</time>
      </trkpt>
      <trkpt lat="47.34966" lon="-1.5308">
        <ele>74</ele>
        <time>2021-08-22T09:06:01.000Z</time>
      </trkpt>
      <trkpt lat="47.34981" lon="-1.53081">
        <ele>74</ele>
        <time>2021-08-22T09:06:03.000Z</time>
      </trkpt>
      <trkpt lat="47.34995" lon="-1.53083">
        <ele>74</ele>
        <time>2021-08-22T09:06:05.000Z</time>
      </trkpt>
      <trkpt lat="47.3501" lon="-1.53084">
        <ele>74</ele>
        <time>2021-08-22T09:06:07.000Z</time>
      </trkpt>
      <trkpt lat="47.35025" lon="-1.53086">
        <ele>73</ele>
        <time>2021-08-22T09:06:09.000Z</time>
      </trkpt>
      <trkpt lat="47.3504" lon="-1.53087">
        <ele>72</ele>
        <time>2021-08-22T09:06:11.000Z</time>
      </trkpt>
      <trkpt lat="47.35055" lon="-1.53088">
        <ele>71</ele>
        <time>2021-08-22T09:06:13.000Z</time>
      </trkpt>
      <trkpt lat="47.3507" lon="-1.53089">
        <ele>71</ele>
        <time>2021-08-22T09:06:15.000Z</time>
      </trkpt>
      <trkpt lat="47.35085" lon="-1.5309">
        <ele>71</ele>
        <time>2021-08-22T09:06:17.000Z</time>
      </trkpt>
      <trkpt lat="47.35099" lon="-1.53091">
        <ele>71</ele>
        <time>2021-08-22T09:06:19.000Z</time>
      </trkpt>
      <trkpt lat="47.35114" lon="-1.53092">
        <ele>71</ele>
        <time>2021-08-22T09:06:21.000Z</time>
      </trkpt>
      <trkpt lat="47.35129" lon="-1.53093">
        <ele>71</ele>
        <time>2021-08-22T09:06:23.000Z</time>
      </trkpt>
      <trkpt lat="47.35143" lon="-1.53094">
        <ele>70</ele>
        <time>2021-08-22T09:06:25.000Z</time>
      </trkpt>
      <trkpt lat="47.35158" lon="-1.53094">
        <ele>70</ele>
        <time>2021-08-22T09:06:27.000Z</time>
      </trkpt>
      <trkpt lat="47.35172" lon="-1.53094">
        <ele>70</ele>
        <time>2021-08-22T09:06:29.000Z</time>
      </trkpt>
      <trkpt lat="47.35186" lon="-1.53093">
        <ele>70</ele>
        <time>2021-08-22T09:06:31.000Z</time>
      </trkpt>
      <trkpt lat="47.352" lon="-1.5309">
        <ele>70</ele>
        <time>2021-08-22T09:06:33.000Z</time>
      </trkpt>
      <trkpt lat="47.35214" lon="-1.53088">
        <ele>70</ele>
        <time>2021-08-22T09:06:35.000Z</time>
      </trkpt>
      <trkpt lat="47.35227" lon="-1.53085">
        <ele>70</ele>
        <time>2021-08-22T09:06:37.000Z</time>
      </trkpt>
      <trkpt lat="47.35241" lon="-1.53082">
        <ele>71</ele>
        <time>2021-08-22T09:06:39.000Z</time>
      </trkpt>
      <trkpt lat="47.35254" lon="-1.53079">
        <ele>71</ele>
        <time>2021-08-22T09:06:41.000Z</time>
      </trkpt>
      <trkpt lat="47.35268" lon="-1.53077">
        <ele>71</ele>
        <time>2021-08-22T09:06:43.000Z</time>
      </trkpt>
      <trkpt lat="47.3528" lon="-1.53074">
        <ele>72</ele>
        <time>2021-08-22T09:06:45.000Z</time>
      </trkpt>
      <trkpt lat="47.35293" lon="-1.53071">
        <ele>72</ele>
        <time>2021-08-22T09:06:47.000Z</time>
      </trkpt>
      <trkpt lat="47.35306" lon="-1.53069">
        <ele>73</ele>
        <time>2021-08-22T09:06:49.000Z</time>
      </trkpt>
      <trkpt lat="47.35319" lon="-1.53066">
        <ele>73</ele>
        <time>2021-08-22T09:06:51.000Z</time>
      </trkpt>
      <trkpt lat="47.35332" lon="-1.53064">
        <ele>74</ele>
        <time>2021-08-22T09:06:53.000Z</time>
      </trkpt>
      <trkpt lat="47.35345" lon="-1.53062">
        <ele>75</ele>
        <time>2021-08-22T09:06:55.000Z</time>
      </trkpt>
      <trkpt lat="47.35357" lon="-1.53059">
        <ele>76</ele>
        <time>2021-08-22T09:06:57.000Z</time>
      </trkpt>
      <trkpt lat="47.3537" lon="-1.53056">
        <ele>76</ele>
        <time>2021-08-22T09:06:59.000Z</time>
      </trkpt>
      <trkpt lat="47.35383" lon="-1.53053">
        <ele>77</ele>
        <time>2021-08-22T09:07:01.000Z</time>
      </trkpt>
      <trkpt lat="47.35397" lon="-1.5305">
        <ele>77</ele>
        <time>2021-08-22T09:07:03.000Z</time>
      </trkpt>
      <trkpt lat="47.35411" lon="-1.53046">
        <ele>76</ele>
        <time>2021-08-22T09:07:05.000Z</time>
      </trkpt>
      <trkpt lat="47.35427" lon="-1.53042">
        <ele>75</ele>
        <time>2021-08-22T09:07:07.000Z</time>
      </trkpt>
      <trkpt lat="47.35441" lon="-1.53041">
        <ele>75</ele>
        <time>2021-08-22T09:07:09.000Z</time>
      </trkpt>
      <trkpt lat="47.35455" lon="-1.53039">
        <ele>75</ele>
        <time>2021-08-22T09:07:11.000Z</time>
      </trkpt>
      <trkpt lat="47.35469" lon="-1.53037">
        <ele>75</ele>
        <time>2021-08-22T09:07:13.000Z</time>
      </trkpt>
      <trkpt lat="47.35482" lon="-1.53034">
        <ele>77</ele>
        <time>2021-08-22T09:07:15.000Z</time>
      </trkpt>
      <trkpt lat="47.35496" lon="-1.53031">
        <ele>78</ele>
        <time>2021-08-22T09:07:17.000Z</time>
      </trkpt>
      <trkpt lat="47.3551" lon="-1.53027">
        <ele>77</ele>
        <time>2021-08-22T09:07:19.000Z</time>
      </trkpt>
      <trkpt lat="47.35523" lon="-1.53023">
        <ele>77</ele>
        <time>2021-08-22T09:07:21.000Z</time>
      </trkpt>
      <trkpt lat="47.35536" lon="-1.53019">
        <ele>76</ele>
        <time>2021-08-22T09:07:23.000Z</time>
      </trkpt>
      <trkpt lat="47.35556" lon="-1.53015">
        <ele>76</ele>
        <time>2021-08-22T09:07:26.000Z</time>
      </trkpt>
      <trkpt lat="47.35568" lon="-1.53011">
        <ele>75</ele>
        <time>2021-08-22T09:07:28.000Z</time>
      </trkpt>
      <trkpt lat="47.35581" lon="-1.53007">
        <ele>75</ele>
        <time>2021-08-22T09:07:30.000Z</time>
      </trkpt>
      <trkpt lat="47.35594" lon="-1.53003">
        <ele>75</ele>
        <time>2021-08-22T09:07:32.000Z</time>
      </trkpt>
      <trkpt lat="47.35606" lon="-1.53">
        <ele>75</ele>
        <time>2021-08-22T09:07:34.000Z</time>
      </trkpt>
      <trkpt lat="47.35618" lon="-1.52996">
        <ele>75</ele>
        <time>2021-08-22T09:07:36.000Z</time>
      </trkpt>
      <trkpt lat="47.35629" lon="-1.52993">
        <ele>76</ele>
        <time>2021-08-22T09:07:38.000Z</time>
      </trkpt>
      <trkpt lat="47.35641" lon="-1.52989">
        <ele>76</ele>
        <time>2021-08-22T09:07:40.000Z</time>
      </trkpt>
      <trkpt lat="47.35653" lon="-1.52985">
        <ele>76</ele>
        <time>2021-08-22T09:07:42.000Z</time>
      </trkpt>
      <trkpt lat="47.35665" lon="-1.52981">
        <ele>77</ele>
        <time>2021-08-22T09:07:44.000Z</time>
      </trkpt>
      <trkpt lat="47.35677" lon="-1.52978">
        <ele>77</ele>
        <time>2021-08-22T09:07:46.000Z</time>
      </trkpt>
      <trkpt lat="47.35689" lon="-1.52974">
        <ele>77</ele>
        <time>2021-08-22T09:07:48.000Z</time>
      </trkpt>
      <trkpt lat="47.35701" lon="-1.5297">
        <ele>77</ele>
        <time>2021-08-22T09:07:50.000Z</time>
      </trkpt>
      <trkpt lat="47.35713" lon="-1.52966">
        <ele>77</ele>
        <time>2021-08-22T09:07:52.000Z</time>
      </trkpt>
      <trkpt lat="47.35725" lon="-1.52962">
        <ele>78</ele>
        <time>2021-08-22T09:07:54.000Z</time>
      </trkpt>
      <trkpt lat="47.35737" lon="-1.52958">
        <ele>78</ele>
        <time>2021-08-22T09:07:56.000Z</time>
      </trkpt>
      <trkpt lat="47.35748" lon="-1.52952">
        <ele>78</ele>
        <time>2021-08-22T09:07:58.000Z</time>
      </trkpt>
      <trkpt lat="47.3576" lon="-1.52946">
        <ele>77</ele>
        <time>2021-08-22T09:08:00.000Z</time>
      </trkpt>
      <trkpt lat="47.35771" lon="-1.5294">
        <ele>77</ele>
        <time>2021-08-22T09:08:02.000Z</time>
      </trkpt>
      <trkpt lat="47.35783" lon="-1.52934">
        <ele>78</ele>
        <time>2021-08-22T09:08:04.000Z</time>
      </trkpt>
      <trkpt lat="47.35794" lon="-1.52928">
        <ele>79</ele>
        <time>2021-08-22T09:08:06.000Z</time>
      </trkpt>
      <trkpt lat="47.35805" lon="-1.52921">
        <ele>80</ele>
        <time>2021-08-22T09:08:08.000Z</time>
      </trkpt>
      <trkpt lat="47.35817" lon="-1.52914">
        <ele>80</ele>
        <time>2021-08-22T09:08:10.000Z</time>
      </trkpt>
      <trkpt lat="47.35829" lon="-1.52907">
        <ele>80</ele>
        <time>2021-08-22T09:08:12.000Z</time>
      </trkpt>
      <trkpt lat="47.35841" lon="-1.529">
        <ele>80</ele>
        <time>2021-08-22T09:08:14.000Z</time>
      </trkpt>
      <trkpt lat="47.35854" lon="-1.52894">
        <ele>79</ele>
        <time>2021-08-22T09:08:16.000Z</time>
      </trkpt>
      <trkpt lat="47.35866" lon="-1.52887">
        <ele>79</ele>
        <time>2021-08-22T09:08:18.000Z</time>
      </trkpt>
      <trkpt lat="47.35878" lon="-1.5288">
        <ele>79</ele>
        <time>2021-08-22T09:08:20.000Z</time>
      </trkpt>
      <trkpt lat="47.3589" lon="-1.52873">
        <ele>79</ele>
        <time>2021-08-22T09:08:22.000Z</time>
      </trkpt>
      <trkpt lat="47.35901" lon="-1.52866">
        <ele>79</ele>
        <time>2021-08-22T09:08:24.000Z</time>
      </trkpt>
      <trkpt lat="47.35913" lon="-1.52859">
        <ele>79</ele>
        <time>2021-08-22T09:08:26.000Z</time>
      </trkpt>
      <trkpt lat="47.35925" lon="-1.52852">
        <ele>79</ele>
        <time>2021-08-22T09:08:28.000Z</time>
      </trkpt>
      <trkpt lat="47.35939" lon="-1.52844">
        <ele>79</ele>
        <time>2021-08-22T09:08:30.000Z</time>
      </trkpt>
      <trkpt lat="47.35952" lon="-1.52836">
        <ele>78</ele>
        <time>2021-08-22T09:08:32.000Z</time>
      </trkpt>
      <trkpt lat="47.35967" lon="-1.52827">
        <ele>77</ele>
        <time>2021-08-22T09:08:34.000Z</time>
      </trkpt>
      <trkpt lat="47.35982" lon="-1.52819">
        <ele>76</ele>
        <time>2021-08-22T09:08:36.000Z</time>
      </trkpt>
      <trkpt lat="47.35998" lon="-1.52811">
        <ele>75</ele>
        <time>2021-08-22T09:08:38.000Z</time>
      </trkpt>
      <trkpt lat="47.36014" lon="-1.52801">
        <ele>74</ele>
        <time>2021-08-22T09:08:40.000Z</time>
      </trkpt>
      <trkpt lat="47.36029" lon="-1.52793">
        <ele>73</ele>
        <time>2021-08-22T09:08:42.000Z</time>
      </trkpt>
      <trkpt lat="47.36045" lon="-1.52784">
        <ele>72</ele>
        <time>2021-08-22T09:08:44.000Z</time>
      </trkpt>
      <trkpt lat="47.36061" lon="-1.52775">
        <ele>71</ele>
        <time>2021-08-22T09:08:46.000Z</time>
      </trkpt>
      <trkpt lat="47.36077" lon="-1.52766">
        <ele>71</ele>
        <time>2021-08-22T09:08:48.000Z</time>
      </trkpt>
      <trkpt lat="47.36093" lon="-1.52757">
        <ele>70</ele>
        <time>2021-08-22T09:08:50.000Z</time>
      </trkpt>
      <trkpt lat="47.36109" lon="-1.52748">
        <ele>69</ele>
        <time>2021-08-22T09:08:52.000Z</time>
      </trkpt>
      <trkpt lat="47.36124" lon="-1.52739">
        <ele>69</ele>
        <time>2021-08-22T09:08:54.000Z</time>
      </trkpt>
      <trkpt lat="47.3614" lon="-1.5273">
        <ele>69</ele>
        <time>2021-08-22T09:08:56.000Z</time>
      </trkpt>
      <trkpt lat="47.36155" lon="-1.52721">
        <ele>68</ele>
        <time>2021-08-22T09:08:58.000Z</time>
      </trkpt>
      <trkpt lat="47.36172" lon="-1.52714">
        <ele>68</ele>
        <time>2021-08-22T09:09:00.000Z</time>
      </trkpt>
      <trkpt lat="47.36188" lon="-1.52707">
        <ele>68</ele>
        <time>2021-08-22T09:09:02.000Z</time>
      </trkpt>
      <trkpt lat="47.36204" lon="-1.527">
        <ele>69</ele>
        <time>2021-08-22T09:09:04.000Z</time>
      </trkpt>
      <trkpt lat="47.36219" lon="-1.52695">
        <ele>69</ele>
        <time>2021-08-22T09:09:06.000Z</time>
      </trkpt>
      <trkpt lat="47.36237" lon="-1.52691">
        <ele>69</ele>
        <time>2021-08-22T09:09:08.000Z</time>
      </trkpt>
      <trkpt lat="47.36255" lon="-1.52688">
        <ele>69</ele>
        <time>2021-08-22T09:09:10.000Z</time>
      </trkpt>
      <trkpt lat="47.36271" lon="-1.52684">
        <ele>69</ele>
        <time>2021-08-22T09:09:12.000Z</time>
      </trkpt>
      <trkpt lat="47.36288" lon="-1.5268">
        <ele>69</ele>
        <time>2021-08-22T09:09:14.000Z</time>
      </trkpt>
      <trkpt lat="47.36304" lon="-1.52675">
        <ele>68</ele>
        <time>2021-08-22T09:09:16.000Z</time>
      </trkpt>
      <trkpt lat="47.36321" lon="-1.5267">
        <ele>68</ele>
        <time>2021-08-22T09:09:18.000Z</time>
      </trkpt>
      <trkpt lat="47.36338" lon="-1.52667">
        <ele>66</ele>
        <time>2021-08-22T09:09:20.000Z</time>
      </trkpt>
      <trkpt lat="47.36356" lon="-1.52663">
        <ele>66</ele>
        <time>2021-08-22T09:09:22.000Z</time>
      </trkpt>
      <trkpt lat="47.36365" lon="-1.52661">
        <ele>65</ele>
        <time>2021-08-22T09:09:23.000Z</time>
      </trkpt>
      <trkpt lat="47.36375" lon="-1.52659">
        <ele>64</ele>
        <time>2021-08-22T09:09:24.000Z</time>
      </trkpt>
      <trkpt lat="47.36384" lon="-1.52656">
        <ele>64</ele>
        <time>2021-08-22T09:09:25.000Z</time>
      </trkpt>
      <trkpt lat="47.36393" lon="-1.52654">
        <ele>63</ele>
        <time>2021-08-22T09:09:26.000Z</time>
      </trkpt>
      <trkpt lat="47.36402" lon="-1.52652">
        <ele>63</ele>
        <time>2021-08-22T09:09:27.000Z</time>
      </trkpt>
      <trkpt lat="47.36412" lon="-1.5265">
        <ele>62</ele>
        <time>2021-08-22T09:09:28.000Z</time>
      </trkpt>
      <trkpt lat="47.36421" lon="-1.52648">
        <ele>62</ele>
        <time>2021-08-22T09:09:29.000Z</time>
      </trkpt>
      <trkpt lat="47.36437" lon="-1.52644">
        <ele>62</ele>
        <time>2021-08-22T09:09:31.000Z</time>
      </trkpt>
      <trkpt lat="47.36454" lon="-1.5264">
        <ele>62</ele>
        <time>2021-08-22T09:09:33.000Z</time>
      </trkpt>
      <trkpt lat="47.3647" lon="-1.52636">
        <ele>61</ele>
        <time>2021-08-22T09:09:35.000Z</time>
      </trkpt>
      <trkpt lat="47.36486" lon="-1.52632">
        <ele>61</ele>
        <time>2021-08-22T09:09:37.000Z</time>
      </trkpt>
      <trkpt lat="47.36501" lon="-1.52626">
        <ele>60</ele>
        <time>2021-08-22T09:09:39.000Z</time>
      </trkpt>
      <trkpt lat="47.36515" lon="-1.52619">
        <ele>60</ele>
        <time>2021-08-22T09:09:41.000Z</time>
      </trkpt>
      <trkpt lat="47.36529" lon="-1.5261">
        <ele>60</ele>
        <time>2021-08-22T09:09:43.000Z</time>
      </trkpt>
      <trkpt lat="47.36542" lon="-1.52599">
        <ele>60</ele>
        <time>2021-08-22T09:09:45.000Z</time>
      </trkpt>
      <trkpt lat="47.36554" lon="-1.52586">
        <ele>60</ele>
        <time>2021-08-22T09:09:47.000Z</time>
      </trkpt>
      <trkpt lat="47.36565" lon="-1.52572">
        <ele>60</ele>
        <time>2021-08-22T09:09:49.000Z</time>
      </trkpt>
      <trkpt lat="47.36575" lon="-1.52557">
        <ele>60</ele>
        <time>2021-08-22T09:09:51.000Z</time>
      </trkpt>
      <trkpt lat="47.36586" lon="-1.52541">
        <ele>61</ele>
        <time>2021-08-22T09:09:53.000Z</time>
      </trkpt>
      <trkpt lat="47.36596" lon="-1.52525">
        <ele>60</ele>
        <time>2021-08-22T09:09:55.000Z</time>
      </trkpt>
      <trkpt lat="47.36606" lon="-1.5251">
        <ele>60</ele>
        <time>2021-08-22T09:09:57.000Z</time>
      </trkpt>
      <trkpt lat="47.36616" lon="-1.52495">
        <ele>61</ele>
        <time>2021-08-22T09:09:59.000Z</time>
      </trkpt>
      <trkpt lat="47.36626" lon="-1.5248">
        <ele>61</ele>
        <time>2021-08-22T09:10:01.000Z</time>
      </trkpt>
      <trkpt lat="47.36636" lon="-1.52464">
        <ele>61</ele>
        <time>2021-08-22T09:10:03.000Z</time>
      </trkpt>
      <trkpt lat="47.36646" lon="-1.52448">
        <ele>61</ele>
        <time>2021-08-22T09:10:05.000Z</time>
      </trkpt>
      <trkpt lat="47.36656" lon="-1.52432">
        <ele>61</ele>
        <time>2021-08-22T09:10:07.000Z</time>
      </trkpt>
      <trkpt lat="47.36666" lon="-1.52417">
        <ele>61</ele>
        <time>2021-08-22T09:10:09.000Z</time>
      </trkpt>
      <trkpt lat="47.36675" lon="-1.52402">
        <ele>61</ele>
        <time>2021-08-22T09:10:11.000Z</time>
      </trkpt>
      <trkpt lat="47.36685" lon="-1.52387">
        <ele>61</ele>
        <time>2021-08-22T09:10:13.000Z</time>
      </trkpt>
      <trkpt lat="47.36695" lon="-1.52372">
        <ele>62</ele>
        <time>2021-08-22T09:10:15.000Z</time>
      </trkpt>
      <trkpt lat="47.36706" lon="-1.52359">
        <ele>62</ele>
        <time>2021-08-22T09:10:17.000Z</time>
      </trkpt>
      <trkpt lat="47.36717" lon="-1.52346">
        <ele>63</ele>
        <time>2021-08-22T09:10:19.000Z</time>
      </trkpt>
      <trkpt lat="47.36729" lon="-1.52335">
        <ele>64</ele>
        <time>2021-08-22T09:10:21.000Z</time>
      </trkpt>
      <trkpt lat="47.36741" lon="-1.52325">
        <ele>64</ele>
        <time>2021-08-22T09:10:23.000Z</time>
      </trkpt>
      <trkpt lat="47.36754" lon="-1.52317">
        <ele>64</ele>
        <time>2021-08-22T09:10:25.000Z</time>
      </trkpt>
      <trkpt lat="47.36766" lon="-1.5231">
        <ele>65</ele>
        <time>2021-08-22T09:10:27.000Z</time>
      </trkpt>
      <trkpt lat="47.3678" lon="-1.52303">
        <ele>66</ele>
        <time>2021-08-22T09:10:29.000Z</time>
      </trkpt>
      <trkpt lat="47.36793" lon="-1.52297">
        <ele>66</ele>
        <time>2021-08-22T09:10:31.000Z</time>
      </trkpt>
      <trkpt lat="47.36806" lon="-1.5229">
        <ele>66</ele>
        <time>2021-08-22T09:10:33.000Z</time>
      </trkpt>
      <trkpt lat="47.36819" lon="-1.52283">
        <ele>65</ele>
        <time>2021-08-22T09:10:35.000Z</time>
      </trkpt>
      <trkpt lat="47.36832" lon="-1.52276">
        <ele>65</ele>
        <time>2021-08-22T09:10:37.000Z</time>
      </trkpt>
      <trkpt lat="47.36845" lon="-1.52269">
        <ele>66</ele>
        <time>2021-08-22T09:10:39.000Z</time>
      </trkpt>
      <trkpt lat="47.36858" lon="-1.52263">
        <ele>65</ele>
        <time>2021-08-22T09:10:41.000Z</time>
      </trkpt>
      <trkpt lat="47.3687" lon="-1.52256">
        <ele>66</ele>
        <time>2021-08-22T09:10:43.000Z</time>
      </trkpt>
      <trkpt lat="47.36883" lon="-1.52249">
        <ele>66</ele>
        <time>2021-08-22T09:10:45.000Z</time>
      </trkpt>
      <trkpt lat="47.36895" lon="-1.52242">
        <ele>66</ele>
        <time>2021-08-22T09:10:47.000Z</time>
      </trkpt>
      <trkpt lat="47.36908" lon="-1.52235">
        <ele>66</ele>
        <time>2021-08-22T09:10:49.000Z</time>
      </trkpt>
      <trkpt lat="47.36921" lon="-1.52227">
        <ele>66</ele>
        <time>2021-08-22T09:10:51.000Z</time>
      </trkpt>
      <trkpt lat="47.36933" lon="-1.5222">
        <ele>66</ele>
        <time>2021-08-22T09:10:53.000Z</time>
      </trkpt>
      <trkpt lat="47.36946" lon="-1.52213">
        <ele>66</ele>
        <time>2021-08-22T09:10:55.000Z</time>
      </trkpt>
      <trkpt lat="47.36959" lon="-1.52206">
        <ele>66</ele>
        <time>2021-08-22T09:10:57.000Z</time>
      </trkpt>
      <trkpt lat="47.36971" lon="-1.52199">
        <ele>66</ele>
        <time>2021-08-22T09:10:59.000Z</time>
      </trkpt>
      <trkpt lat="47.36984" lon="-1.52192">
        <ele>66</ele>
        <time>2021-08-22T09:11:01.000Z</time>
      </trkpt>
      <trkpt lat="47.36997" lon="-1.52186">
        <ele>65</ele>
        <time>2021-08-22T09:11:03.000Z</time>
      </trkpt>
      <trkpt lat="47.37011" lon="-1.52181">
        <ele>65</ele>
        <time>2021-08-22T09:11:05.000Z</time>
      </trkpt>
      <trkpt lat="47.37025" lon="-1.52179">
        <ele>65</ele>
        <time>2021-08-22T09:11:07.000Z</time>
      </trkpt>
      <trkpt lat="47.37038" lon="-1.52177">
        <ele>66</ele>
        <time>2021-08-22T09:11:09.000Z</time>
      </trkpt>
      <trkpt lat="47.37051" lon="-1.52178">
        <ele>66</ele>
        <time>2021-08-22T09:11:11.000Z</time>
      </trkpt>
      <trkpt lat="47.37064" lon="-1.5218">
        <ele>67</ele>
        <time>2021-08-22T09:11:13.000Z</time>
      </trkpt>
      <trkpt lat="47.37077" lon="-1.52182">
        <ele>67</ele>
        <time>2021-08-22T09:11:15.000Z</time>
      </trkpt>
      <trkpt lat="47.3709" lon="-1.52184">
        <ele>67</ele>
        <time>2021-08-22T09:11:17.000Z</time>
      </trkpt>
      <trkpt lat="47.37103" lon="-1.52187">
        <ele>68</ele>
        <time>2021-08-22T09:11:19.000Z</time>
      </trkpt>
      <trkpt lat="47.37115" lon="-1.52188">
        <ele>69</ele>
        <time>2021-08-22T09:11:21.000Z</time>
      </trkpt>
      <trkpt lat="47.37129" lon="-1.52188">
        <ele>69</ele>
        <time>2021-08-22T09:11:23.000Z</time>
      </trkpt>
      <trkpt lat="47.37142" lon="-1.52187">
        <ele>69</ele>
        <time>2021-08-22T09:11:25.000Z</time>
      </trkpt>
      <trkpt lat="47.37155" lon="-1.52185">
        <ele>69</ele>
        <time>2021-08-22T09:11:27.000Z</time>
      </trkpt>
      <trkpt lat="47.37168" lon="-1.52182">
        <ele>70</ele>
        <time>2021-08-22T09:11:29.000Z</time>
      </trkpt>
      <trkpt lat="47.37181" lon="-1.5218">
        <ele>70</ele>
        <time>2021-08-22T09:11:31.000Z</time>
      </trkpt>
      <trkpt lat="47.37194" lon="-1.52177">
        <ele>70</ele>
        <time>2021-08-22T09:11:33.000Z</time>
      </trkpt>
      <trkpt lat="47.37206" lon="-1.52173">
        <ele>71</ele>
        <time>2021-08-22T09:11:35.000Z</time>
      </trkpt>
      <trkpt lat="47.37219" lon="-1.52168">
        <ele>71</ele>
        <time>2021-08-22T09:11:37.000Z</time>
      </trkpt>
      <trkpt lat="47.37233" lon="-1.52167">
        <ele>71</ele>
        <time>2021-08-22T09:11:39.000Z</time>
      </trkpt>
      <trkpt lat="47.37245" lon="-1.52165">
        <ele>72</ele>
        <time>2021-08-22T09:11:41.000Z</time>
      </trkpt>
      <trkpt lat="47.37258" lon="-1.52163">
        <ele>72</ele>
        <time>2021-08-22T09:11:43.000Z</time>
      </trkpt>
      <trkpt lat="47.37271" lon="-1.5216">
        <ele>72</ele>
        <time>2021-08-22T09:11:45.000Z</time>
      </trkpt>
      <trkpt lat="47.37284" lon="-1.52158">
        <ele>73</ele>
        <time>2021-08-22T09:11:47.000Z</time>
      </trkpt>
      <trkpt lat="47.37298" lon="-1.52155">
        <ele>73</ele>
        <time>2021-08-22T09:11:49.000Z</time>
      </trkpt>
      <trkpt lat="47.37311" lon="-1.52152">
        <ele>74</ele>
        <time>2021-08-22T09:11:51.000Z</time>
      </trkpt>
      <trkpt lat="47.37323" lon="-1.5215">
        <ele>75</ele>
        <time>2021-08-22T09:11:53.000Z</time>
      </trkpt>
      <trkpt lat="47.37336" lon="-1.52146">
        <ele>76</ele>
        <time>2021-08-22T09:11:55.000Z</time>
      </trkpt>
      <trkpt lat="47.3735" lon="-1.52143">
        <ele>76</ele>
        <time>2021-08-22T09:11:57.000Z</time>
      </trkpt>
      <trkpt lat="47.37364" lon="-1.5214">
        <ele>77</ele>
        <time>2021-08-22T09:11:59.000Z</time>
      </trkpt>
      <trkpt lat="47.37379" lon="-1.52138">
        <ele>77</ele>
        <time>2021-08-22T09:12:01.000Z</time>
      </trkpt>
      <trkpt lat="47.37393" lon="-1.52135">
        <ele>76</ele>
        <time>2021-08-22T09:12:03.000Z</time>
      </trkpt>
      <trkpt lat="47.37408" lon="-1.52131">
        <ele>75</ele>
        <time>2021-08-22T09:12:05.000Z</time>
      </trkpt>
      <trkpt lat="47.37423" lon="-1.52129">
        <ele>74</ele>
        <time>2021-08-22T09:12:07.000Z</time>
      </trkpt>
      <trkpt lat="47.37437" lon="-1.52126">
        <ele>74</ele>
        <time>2021-08-22T09:12:09.000Z</time>
      </trkpt>
      <trkpt lat="47.37451" lon="-1.52124">
        <ele>74</ele>
        <time>2021-08-22T09:12:11.000Z</time>
      </trkpt>
      <trkpt lat="47.37466" lon="-1.52121">
        <ele>72</ele>
        <time>2021-08-22T09:12:13.000Z</time>
      </trkpt>
      <trkpt lat="47.3748" lon="-1.52119">
        <ele>71</ele>
        <time>2021-08-22T09:12:15.000Z</time>
      </trkpt>
      <trkpt lat="47.37494" lon="-1.52117">
        <ele>71</ele>
        <time>2021-08-22T09:12:17.000Z</time>
      </trkpt>
      <trkpt lat="47.37508" lon="-1.52114">
        <ele>71</ele>
        <time>2021-08-22T09:12:19.000Z</time>
      </trkpt>
      <trkpt lat="47.37522" lon="-1.52112">
        <ele>71</ele>
        <time>2021-08-22T09:12:21.000Z</time>
      </trkpt>
      <trkpt lat="47.37536" lon="-1.52108">
        <ele>70</ele>
        <time>2021-08-22T09:12:23.000Z</time>
      </trkpt>
      <trkpt lat="47.37549" lon="-1.52106">
        <ele>70</ele>
        <time>2021-08-22T09:12:25.000Z</time>
      </trkpt>
      <trkpt lat="47.37562" lon="-1.52104">
        <ele>71</ele>
        <time>2021-08-22T09:12:27.000Z</time>
      </trkpt>
      <trkpt lat="47.37577" lon="-1.52101">
        <ele>70</ele>
        <time>2021-08-22T09:12:29.000Z</time>
      </trkpt>
      <trkpt lat="47.37592" lon="-1.52099">
        <ele>68</ele>
        <time>2021-08-22T09:12:31.000Z</time>
      </trkpt>
      <trkpt lat="47.37607" lon="-1.52096">
        <ele>67</ele>
        <time>2021-08-22T09:12:33.000Z</time>
      </trkpt>
      <trkpt lat="47.37621" lon="-1.52094">
        <ele>67</ele>
        <time>2021-08-22T09:12:35.000Z</time>
      </trkpt>
      <trkpt lat="47.37635" lon="-1.5209">
        <ele>67</ele>
        <time>2021-08-22T09:12:37.000Z</time>
      </trkpt>
      <trkpt lat="47.37649" lon="-1.52086">
        <ele>67</ele>
        <time>2021-08-22T09:12:39.000Z</time>
      </trkpt>
      <trkpt lat="47.37663" lon="-1.52084">
        <ele>66</ele>
        <time>2021-08-22T09:12:41.000Z</time>
      </trkpt>
      <trkpt lat="47.37677" lon="-1.5208">
        <ele>66</ele>
        <time>2021-08-22T09:12:43.000Z</time>
      </trkpt>
      <trkpt lat="47.3769" lon="-1.52079">
        <ele>66</ele>
        <time>2021-08-22T09:12:45.000Z</time>
      </trkpt>
      <trkpt lat="47.37703" lon="-1.52077">
        <ele>66</ele>
        <time>2021-08-22T09:12:47.000Z</time>
      </trkpt>
      <trkpt lat="47.37716" lon="-1.52075">
        <ele>67</ele>
        <time>2021-08-22T09:12:49.000Z</time>
      </trkpt>
      <trkpt lat="47.3773" lon="-1.52073">
        <ele>67</ele>
        <time>2021-08-22T09:12:51.000Z</time>
      </trkpt>
      <trkpt lat="47.37744" lon="-1.52069">
        <ele>67</ele>
        <time>2021-08-22T09:12:53.000Z</time>
      </trkpt>
      <trkpt lat="47.37758" lon="-1.52066">
        <ele>67</ele>
        <time>2021-08-22T09:12:55.000Z</time>
      </trkpt>
      <trkpt lat="47.37771" lon="-1.52064">
        <ele>66</ele>
        <time>2021-08-22T09:12:57.000Z</time>
      </trkpt>
      <trkpt lat="47.37785" lon="-1.52061">
        <ele>66</ele>
        <time>2021-08-22T09:12:59.000Z</time>
      </trkpt>
      <trkpt lat="47.37798" lon="-1.52059">
        <ele>65</ele>
        <time>2021-08-22T09:13:01.000Z</time>
      </trkpt>
      <trkpt lat="47.37811" lon="-1.52058">
        <ele>65</ele>
        <time>2021-08-22T09:13:03.000Z</time>
      </trkpt>
      <trkpt lat="47.37825" lon="-1.52056">
        <ele>65</ele>
        <time>2021-08-22T09:13:05.000Z</time>
      </trkpt>
      <trkpt lat="47.37838" lon="-1.52056">
        <ele>65</ele>
        <time>2021-08-22T09:13:07.000Z</time>
      </trkpt>
      <trkpt lat="47.37851" lon="-1.52058">
        <ele>65</ele>
        <time>2021-08-22T09:13:09.000Z</time>
      </trkpt>
      <trkpt lat="47.37863" lon="-1.52061">
        <ele>65</ele>
        <time>2021-08-22T09:13:11.000Z</time>
      </trkpt>
      <trkpt lat="47.37875" lon="-1.52066">
        <ele>65</ele>
        <time>2021-08-22T09:13:13.000Z</time>
      </trkpt>
      <trkpt lat="47.37887" lon="-1.52072">
        <ele>66</ele>
        <time>2021-08-22T09:13:15.000Z</time>
      </trkpt>
      <trkpt lat="47.37899" lon="-1.5208">
        <ele>66</ele>
        <time>2021-08-22T09:13:17.000Z</time>
      </trkpt>
      <trkpt lat="47.37911" lon="-1.5209">
        <ele>66</ele>
        <time>2021-08-22T09:13:19.000Z</time>
      </trkpt>
      <trkpt lat="47.37923" lon="-1.521">
        <ele>66</ele>
        <time>2021-08-22T09:13:21.000Z</time>
      </trkpt>
      <trkpt lat="47.37935" lon="-1.52112">
        <ele>66</ele>
        <time>2021-08-22T09:13:23.000Z</time>
      </trkpt>
      <trkpt lat="47.37947" lon="-1.52123">
        <ele>66</ele>
        <time>2021-08-22T09:13:25.000Z</time>
      </trkpt>
      <trkpt lat="47.37959" lon="-1.52133">
        <ele>65</ele>
        <time>2021-08-22T09:13:27.000Z</time>
      </trkpt>
      <trkpt lat="47.3797" lon="-1.52144">
        <ele>65</ele>
        <time>2021-08-22T09:13:29.000Z</time>
      </trkpt>
      <trkpt lat="47.37982" lon="-1.52154">
        <ele>65</ele>
        <time>2021-08-22T09:13:31.000Z</time>
      </trkpt>
      <trkpt lat="47.37993" lon="-1.52165">
        <ele>65</ele>
        <time>2021-08-22T09:13:33.000Z</time>
      </trkpt>
      <trkpt lat="47.38005" lon="-1.52175">
        <ele>65</ele>
        <time>2021-08-22T09:13:35.000Z</time>
      </trkpt>
      <trkpt lat="47.38016" lon="-1.52186">
        <ele>65</ele>
        <time>2021-08-22T09:13:37.000Z</time>
      </trkpt>
      <trkpt lat="47.38027" lon="-1.52197">
        <ele>65</ele>
        <time>2021-08-22T09:13:39.000Z</time>
      </trkpt>
      <trkpt lat="47.38038" lon="-1.52206">
        <ele>66</ele>
        <time>2021-08-22T09:13:41.000Z</time>
      </trkpt>
      <trkpt lat="47.38049" lon="-1.52216">
        <ele>66</ele>
        <time>2021-08-22T09:13:43.000Z</time>
      </trkpt>
      <trkpt lat="47.38059" lon="-1.52225">
        <ele>66</ele>
        <time>2021-08-22T09:13:45.000Z</time>
      </trkpt>
      <trkpt lat="47.3807" lon="-1.52235">
        <ele>67</ele>
        <time>2021-08-22T09:13:47.000Z</time>
      </trkpt>
      <trkpt lat="47.3808" lon="-1.52245">
        <ele>68</ele>
        <time>2021-08-22T09:13:49.000Z</time>
      </trkpt>
      <trkpt lat="47.38091" lon="-1.52254">
        <ele>68</ele>
        <time>2021-08-22T09:13:51.000Z</time>
      </trkpt>
      <trkpt lat="47.38102" lon="-1.52264">
        <ele>68</ele>
        <time>2021-08-22T09:13:53.000Z</time>
      </trkpt>
      <trkpt lat="47.38111" lon="-1.52273">
        <ele>68</ele>
        <time>2021-08-22T09:13:55.000Z</time>
      </trkpt>
      <trkpt lat="47.38121" lon="-1.52281">
        <ele>69</ele>
        <time>2021-08-22T09:13:57.000Z</time>
      </trkpt>
      <trkpt lat="47.38131" lon="-1.5229">
        <ele>69</ele>
        <time>2021-08-22T09:13:59.000Z</time>
      </trkpt>
      <trkpt lat="47.38141" lon="-1.52299">
        <ele>70</ele>
        <time>2021-08-22T09:14:01.000Z</time>
      </trkpt>
      <trkpt lat="47.3815" lon="-1.52307">
        <ele>70</ele>
        <time>2021-08-22T09:14:03.000Z</time>
      </trkpt>
      <trkpt lat="47.38161" lon="-1.52315">
        <ele>71</ele>
        <time>2021-08-22T09:14:05.000Z</time>
      </trkpt>
      <trkpt lat="47.3817" lon="-1.52324">
        <ele>71</ele>
        <time>2021-08-22T09:14:07.000Z</time>
      </trkpt>
      <trkpt lat="47.3818" lon="-1.52333">
        <ele>72</ele>
        <time>2021-08-22T09:14:09.000Z</time>
      </trkpt>
      <trkpt lat="47.3819" lon="-1.52342">
        <ele>72</ele>
        <time>2021-08-22T09:14:11.000Z</time>
      </trkpt>
      <trkpt lat="47.382" lon="-1.52351">
        <ele>72</ele>
        <time>2021-08-22T09:14:13.000Z</time>
      </trkpt>
      <trkpt lat="47.38209" lon="-1.5236">
        <ele>72</ele>
        <time>2021-08-22T09:14:15.000Z</time>
      </trkpt>
      <trkpt lat="47.38219" lon="-1.52368">
        <ele>72</ele>
        <time>2021-08-22T09:14:17.000Z</time>
      </trkpt>
      <trkpt lat="47.38229" lon="-1.52378">
        <ele>72</ele>
        <time>2021-08-22T09:14:19.000Z</time>
      </trkpt>
      <trkpt lat="47.38238" lon="-1.52386">
        <ele>72</ele>
        <time>2021-08-22T09:14:21.000Z</time>
      </trkpt>
      <trkpt lat="47.38248" lon="-1.52395">
        <ele>72</ele>
        <time>2021-08-22T09:14:23.000Z</time>
      </trkpt>
      <trkpt lat="47.38257" lon="-1.52403">
        <ele>72</ele>
        <time>2021-08-22T09:14:25.000Z</time>
      </trkpt>
      <trkpt lat="47.38267" lon="-1.52411">
        <ele>73</ele>
        <time>2021-08-22T09:14:27.000Z</time>
      </trkpt>
      <trkpt lat="47.38277" lon="-1.5242">
        <ele>73</ele>
        <time>2021-08-22T09:14:29.000Z</time>
      </trkpt>
      <trkpt lat="47.38287" lon="-1.52428">
        <ele>73</ele>
        <time>2021-08-22T09:14:31.000Z</time>
      </trkpt>
      <trkpt lat="47.38296" lon="-1.52437">
        <ele>74</ele>
        <time>2021-08-22T09:14:33.000Z</time>
      </trkpt>
      <trkpt lat="47.38306" lon="-1.52445">
        <ele>74</ele>
        <time>2021-08-22T09:14:35.000Z</time>
      </trkpt>
      <trkpt lat="47.38316" lon="-1.52454">
        <ele>74</ele>
        <time>2021-08-22T09:14:37.000Z</time>
      </trkpt>
      <trkpt lat="47.38326" lon="-1.52463">
        <ele>74</ele>
        <time>2021-08-22T09:14:39.000Z</time>
      </trkpt>
      <trkpt lat="47.38336" lon="-1.52472">
        <ele>75</ele>
        <time>2021-08-22T09:14:41.000Z</time>
      </trkpt>
      <trkpt lat="47.38346" lon="-1.52481">
        <ele>75</ele>
        <time>2021-08-22T09:14:43.000Z</time>
      </trkpt>
      <trkpt lat="47.38356" lon="-1.5249">
        <ele>75</ele>
        <time>2021-08-22T09:14:45.000Z</time>
      </trkpt>
      <trkpt lat="47.38366" lon="-1.52499">
        <ele>75</ele>
        <time>2021-08-22T09:14:47.000Z</time>
      </trkpt>
      <trkpt lat="47.38377" lon="-1.52508">
        <ele>75</ele>
        <time>2021-08-22T09:14:49.000Z</time>
      </trkpt>
      <trkpt lat="47.38387" lon="-1.52517">
        <ele>76</ele>
        <time>2021-08-22T09:14:51.000Z</time>
      </trkpt>
      <trkpt lat="47.38397" lon="-1.52527">
        <ele>76</ele>
        <time>2021-08-22T09:14:53.000Z</time>
      </trkpt>
      <trkpt lat="47.38408" lon="-1.52536">
        <ele>75</ele>
        <time>2021-08-22T09:14:55.000Z</time>
      </trkpt>
      <trkpt lat="47.38418" lon="-1.52545">
        <ele>75</ele>
        <time>2021-08-22T09:14:57.000Z</time>
      </trkpt>
      <trkpt lat="47.38429" lon="-1.52555">
        <ele>75</ele>
        <time>2021-08-22T09:14:59.000Z</time>
      </trkpt>
      <trkpt lat="47.38439" lon="-1.52564">
        <ele>75</ele>
        <time>2021-08-22T09:15:01.000Z</time>
      </trkpt>
      <trkpt lat="47.3845" lon="-1.52573">
        <ele>75</ele>
        <time>2021-08-22T09:15:03.000Z</time>
      </trkpt>
      <trkpt lat="47.3846" lon="-1.52583">
        <ele>75</ele>
        <time>2021-08-22T09:15:05.000Z</time>
      </trkpt>
      <trkpt lat="47.3847" lon="-1.52592">
        <ele>75</ele>
        <time>2021-08-22T09:15:07.000Z</time>
      </trkpt>
      <trkpt lat="47.3848" lon="-1.52601">
        <ele>75</ele>
        <time>2021-08-22T09:15:09.000Z</time>
      </trkpt>
      <trkpt lat="47.3849" lon="-1.5261">
        <ele>75</ele>
        <time>2021-08-22T09:15:11.000Z</time>
      </trkpt>
      <trkpt lat="47.385" lon="-1.52618">
        <ele>75</ele>
        <time>2021-08-22T09:15:13.000Z</time>
      </trkpt>
      <trkpt lat="47.38511" lon="-1.52627">
        <ele>76</ele>
        <time>2021-08-22T09:15:15.000Z</time>
      </trkpt>
      <trkpt lat="47.38523" lon="-1.52633">
        <ele>75</ele>
        <time>2021-08-22T09:15:17.000Z</time>
      </trkpt>
      <trkpt lat="47.38536" lon="-1.52638">
        <ele>75</ele>
        <time>2021-08-22T09:15:19.000Z</time>
      </trkpt>
      <trkpt lat="47.38549" lon="-1.52641">
        <ele>74</ele>
        <time>2021-08-22T09:15:21.000Z</time>
      </trkpt>
      <trkpt lat="47.38563" lon="-1.52641">
        <ele>74</ele>
        <time>2021-08-22T09:15:23.000Z</time>
      </trkpt>
      <trkpt lat="47.38577" lon="-1.5264">
        <ele>73</ele>
        <time>2021-08-22T09:15:25.000Z</time>
      </trkpt>
      <trkpt lat="47.38592" lon="-1.52636">
        <ele>72</ele>
        <time>2021-08-22T09:15:27.000Z</time>
      </trkpt>
      <trkpt lat="47.38607" lon="-1.52631">
        <ele>71</ele>
        <time>2021-08-22T09:15:29.000Z</time>
      </trkpt>
      <trkpt lat="47.38622" lon="-1.52626">
        <ele>70</ele>
        <time>2021-08-22T09:15:31.000Z</time>
      </trkpt>
      <trkpt lat="47.38637" lon="-1.52621">
        <ele>69</ele>
        <time>2021-08-22T09:15:33.000Z</time>
      </trkpt>
      <trkpt lat="47.38653" lon="-1.52616">
        <ele>68</ele>
        <time>2021-08-22T09:15:35.000Z</time>
      </trkpt>
      <trkpt lat="47.38669" lon="-1.52612">
        <ele>68</ele>
        <time>2021-08-22T09:15:37.000Z</time>
      </trkpt>
      <trkpt lat="47.38685" lon="-1.52607">
        <ele>67</ele>
        <time>2021-08-22T09:15:39.000Z</time>
      </trkpt>
      <trkpt lat="47.38701" lon="-1.52601">
        <ele>67</ele>
        <time>2021-08-22T09:15:41.000Z</time>
      </trkpt>
      <trkpt lat="47.38718" lon="-1.52596">
        <ele>66</ele>
        <time>2021-08-22T09:15:43.000Z</time>
      </trkpt>
      <trkpt lat="47.38735" lon="-1.5259">
        <ele>65</ele>
        <time>2021-08-22T09:15:45.000Z</time>
      </trkpt>
      <trkpt lat="47.38752" lon="-1.52584">
        <ele>65</ele>
        <time>2021-08-22T09:15:47.000Z</time>
      </trkpt>
      <trkpt lat="47.38761" lon="-1.52581">
        <ele>65</ele>
        <time>2021-08-22T09:15:48.000Z</time>
      </trkpt>
      <trkpt lat="47.38778" lon="-1.52576">
        <ele>64</ele>
        <time>2021-08-22T09:15:50.000Z</time>
      </trkpt>
      <trkpt lat="47.38795" lon="-1.52571">
        <ele>63</ele>
        <time>2021-08-22T09:15:52.000Z</time>
      </trkpt>
      <trkpt lat="47.38811" lon="-1.52566">
        <ele>63</ele>
        <time>2021-08-22T09:15:54.000Z</time>
      </trkpt>
      <trkpt lat="47.38828" lon="-1.52561">
        <ele>62</ele>
        <time>2021-08-22T09:15:56.000Z</time>
      </trkpt>
      <trkpt lat="47.38844" lon="-1.52556">
        <ele>61</ele>
        <time>2021-08-22T09:15:58.000Z</time>
      </trkpt>
      <trkpt lat="47.38861" lon="-1.52551">
        <ele>61</ele>
        <time>2021-08-22T09:16:00.000Z</time>
      </trkpt>
      <trkpt lat="47.38878" lon="-1.52546">
        <ele>60</ele>
        <time>2021-08-22T09:16:02.000Z</time>
      </trkpt>
      <trkpt lat="47.38894" lon="-1.52541">
        <ele>60</ele>
        <time>2021-08-22T09:16:04.000Z</time>
      </trkpt>
      <trkpt lat="47.3891" lon="-1.52536">
        <ele>60</ele>
        <time>2021-08-22T09:16:06.000Z</time>
      </trkpt>
      <trkpt lat="47.38925" lon="-1.52531">
        <ele>60</ele>
        <time>2021-08-22T09:16:08.000Z</time>
      </trkpt>
      <trkpt lat="47.38941" lon="-1.52526">
        <ele>60</ele>
        <time>2021-08-22T09:16:10.000Z</time>
      </trkpt>
      <trkpt lat="47.38957" lon="-1.52521">
        <ele>59</ele>
        <time>2021-08-22T09:16:12.000Z</time>
      </trkpt>
      <trkpt lat="47.38972" lon="-1.52515">
        <ele>60</ele>
        <time>2021-08-22T09:16:14.000Z</time>
      </trkpt>
      <trkpt lat="47.38987" lon="-1.52511">
        <ele>60</ele>
        <time>2021-08-22T09:16:16.000Z</time>
      </trkpt>
      <trkpt lat="47.39002" lon="-1.52505">
        <ele>60</ele>
        <time>2021-08-22T09:16:18.000Z</time>
      </trkpt>
      <trkpt lat="47.39018" lon="-1.52501">
        <ele>60</ele>
        <time>2021-08-22T09:16:20.000Z</time>
      </trkpt>
      <trkpt lat="47.39032" lon="-1.52497">
        <ele>60</ele>
        <time>2021-08-22T09:16:22.000Z</time>
      </trkpt>
      <trkpt lat="47.39047" lon="-1.52493">
        <ele>60</ele>
        <time>2021-08-22T09:16:24.000Z</time>
      </trkpt>
      <trkpt lat="47.39062" lon="-1.52487">
        <ele>60</ele>
        <time>2021-08-22T09:16:26.000Z</time>
      </trkpt>
      <trkpt lat="47.39076" lon="-1.52482">
        <ele>60</ele>
        <time>2021-08-22T09:16:28.000Z</time>
      </trkpt>
      <trkpt lat="47.39091" lon="-1.52478">
        <ele>60</ele>
        <time>2021-08-22T09:16:30.000Z</time>
      </trkpt>
      <trkpt lat="47.39106" lon="-1.52473">
        <ele>60</ele>
        <time>2021-08-22T09:16:32.000Z</time>
      </trkpt>
      <trkpt lat="47.3912" lon="-1.52469">
        <ele>60</ele>
        <time>2021-08-22T09:16:34.000Z</time>
      </trkpt>
      <trkpt lat="47.39135" lon="-1.52465">
        <ele>60</ele>
        <time>2021-08-22T09:16:36.000Z</time>
      </trkpt>
      <trkpt lat="47.39149" lon="-1.52463">
        <ele>60</ele>
        <time>2021-08-22T09:16:38.000Z</time>
      </trkpt>
      <trkpt lat="47.39163" lon="-1.52461">
        <ele>61</ele>
        <time>2021-08-22T09:16:40.000Z</time>
      </trkpt>
      <trkpt lat="47.39178" lon="-1.52461">
        <ele>60</ele>
        <time>2021-08-22T09:16:42.000Z</time>
      </trkpt>
      <trkpt lat="47.39193" lon="-1.52464">
        <ele>59</ele>
        <time>2021-08-22T09:16:44.000Z</time>
      </trkpt>
      <trkpt lat="47.39208" lon="-1.52466">
        <ele>59</ele>
        <time>2021-08-22T09:16:46.000Z</time>
      </trkpt>
      <trkpt lat="47.39222" lon="-1.5247">
        <ele>59</ele>
        <time>2021-08-22T09:16:48.000Z</time>
      </trkpt>
      <trkpt lat="47.39236" lon="-1.52474">
        <ele>60</ele>
        <time>2021-08-22T09:16:50.000Z</time>
      </trkpt>
      <trkpt lat="47.3925" lon="-1.5248">
        <ele>60</ele>
        <time>2021-08-22T09:16:52.000Z</time>
      </trkpt>
      <trkpt lat="47.39264" lon="-1.52486">
        <ele>61</ele>
        <time>2021-08-22T09:16:54.000Z</time>
      </trkpt>
      <trkpt lat="47.39278" lon="-1.52493">
        <ele>61</ele>
        <time>2021-08-22T09:16:56.000Z</time>
      </trkpt>
      <trkpt lat="47.39292" lon="-1.525">
        <ele>60</ele>
        <time>2021-08-22T09:16:58.000Z</time>
      </trkpt>
      <trkpt lat="47.39306" lon="-1.52506">
        <ele>60</ele>
        <time>2021-08-22T09:17:00.000Z</time>
      </trkpt>
      <trkpt lat="47.39319" lon="-1.52513">
        <ele>60</ele>
        <time>2021-08-22T09:17:02.000Z</time>
      </trkpt>
      <trkpt lat="47.39332" lon="-1.5252">
        <ele>60</ele>
        <time>2021-08-22T09:17:04.000Z</time>
      </trkpt>
      <trkpt lat="47.39345" lon="-1.52527">
        <ele>60</ele>
        <time>2021-08-22T09:17:06.000Z</time>
      </trkpt>
      <trkpt lat="47.39358" lon="-1.52533">
        <ele>60</ele>
        <time>2021-08-22T09:17:08.000Z</time>
      </trkpt>
      <trkpt lat="47.3937" lon="-1.52539">
        <ele>59</ele>
        <time>2021-08-22T09:17:10.000Z</time>
      </trkpt>
      <trkpt lat="47.39383" lon="-1.52546">
        <ele>59</ele>
        <time>2021-08-22T09:17:12.000Z</time>
      </trkpt>
      <trkpt lat="47.39396" lon="-1.52552">
        <ele>59</ele>
        <time>2021-08-22T09:17:14.000Z</time>
      </trkpt>
      <trkpt lat="47.39409" lon="-1.52559">
        <ele>59</ele>
        <time>2021-08-22T09:17:16.000Z</time>
      </trkpt>
      <trkpt lat="47.39422" lon="-1.52564">
        <ele>59</ele>
        <time>2021-08-22T09:17:18.000Z</time>
      </trkpt>
      <trkpt lat="47.39435" lon="-1.5257">
        <ele>59</ele>
        <time>2021-08-22T09:17:20.000Z</time>
      </trkpt>
      <trkpt lat="47.39448" lon="-1.52577">
        <ele>59</ele>
        <time>2021-08-22T09:17:22.000Z</time>
      </trkpt>
      <trkpt lat="47.39461" lon="-1.52583">
        <ele>59</ele>
        <time>2021-08-22T09:17:24.000Z</time>
      </trkpt>
      <trkpt lat="47.39474" lon="-1.5259">
        <ele>59</ele>
        <time>2021-08-22T09:17:26.000Z</time>
      </trkpt>
      <trkpt lat="47.39487" lon="-1.52597">
        <ele>59</ele>
        <time>2021-08-22T09:17:28.000Z</time>
      </trkpt>
      <trkpt lat="47.395" lon="-1.52605">
        <ele>59</ele>
        <time>2021-08-22T09:17:30.000Z</time>
      </trkpt>
      <trkpt lat="47.39512" lon="-1.52614">
        <ele>59</ele>
        <time>2021-08-22T09:17:32.000Z</time>
      </trkpt>
      <trkpt lat="47.39524" lon="-1.52625">
        <ele>59</ele>
        <time>2021-08-22T09:17:34.000Z</time>
      </trkpt>
      <trkpt lat="47.39534" lon="-1.52637">
        <ele>60</ele>
        <time>2021-08-22T09:17:36.000Z</time>
      </trkpt>
      <trkpt lat="47.39545" lon="-1.52649">
        <ele>60</ele>
        <time>2021-08-22T09:17:38.000Z</time>
      </trkpt>
      <trkpt lat="47.39555" lon="-1.52661">
        <ele>60</ele>
        <time>2021-08-22T09:17:40.000Z</time>
      </trkpt>
      <trkpt lat="47.39565" lon="-1.52672">
        <ele>60</ele>
        <time>2021-08-22T09:17:42.000Z</time>
      </trkpt>
      <trkpt lat="47.39576" lon="-1.52683">
        <ele>60</ele>
        <time>2021-08-22T09:17:44.000Z</time>
      </trkpt>
      <trkpt lat="47.39596" lon="-1.52692">
        <ele>61</ele>
        <time>2021-08-22T09:17:47.000Z</time>
      </trkpt>
      <trkpt lat="47.39609" lon="-1.52695">
        <ele>61</ele>
        <time>2021-08-22T09:17:49.000Z</time>
      </trkpt>
      <trkpt lat="47.39624" lon="-1.52696">
        <ele>61</ele>
        <time>2021-08-22T09:17:51.000Z</time>
      </trkpt>
      <trkpt lat="47.39638" lon="-1.52695">
        <ele>61</ele>
        <time>2021-08-22T09:17:53.000Z</time>
      </trkpt>
      <trkpt lat="47.39652" lon="-1.52693">
        <ele>61</ele>
        <time>2021-08-22T09:17:55.000Z</time>
      </trkpt>
      <trkpt lat="47.39666" lon="-1.52693">
        <ele>61</ele>
        <time>2021-08-22T09:17:57.000Z</time>
      </trkpt>
      <trkpt lat="47.39681" lon="-1.52695">
        <ele>61</ele>
        <time>2021-08-22T09:17:59.000Z</time>
      </trkpt>
      <trkpt lat="47.39694" lon="-1.52699">
        <ele>60</ele>
        <time>2021-08-22T09:18:01.000Z</time>
      </trkpt>
      <trkpt lat="47.39708" lon="-1.52705">
        <ele>60</ele>
        <time>2021-08-22T09:18:03.000Z</time>
      </trkpt>
      <trkpt lat="47.39722" lon="-1.52711">
        <ele>60</ele>
        <time>2021-08-22T09:18:05.000Z</time>
      </trkpt>
      <trkpt lat="47.39742" lon="-1.52722">
        <ele>59</ele>
        <time>2021-08-22T09:18:08.000Z</time>
      </trkpt>
      <trkpt lat="47.39763" lon="-1.52732">
        <ele>59</ele>
        <time>2021-08-22T09:18:11.000Z</time>
      </trkpt>
      <trkpt lat="47.39777" lon="-1.52739">
        <ele>58</ele>
        <time>2021-08-22T09:18:13.000Z</time>
      </trkpt>
      <trkpt lat="47.3979" lon="-1.52745">
        <ele>58</ele>
        <time>2021-08-22T09:18:15.000Z</time>
      </trkpt>
      <trkpt lat="47.39804" lon="-1.52753">
        <ele>57</ele>
        <time>2021-08-22T09:18:17.000Z</time>
      </trkpt>
      <trkpt lat="47.39817" lon="-1.52759">
        <ele>57</ele>
        <time>2021-08-22T09:18:19.000Z</time>
      </trkpt>
      <trkpt lat="47.3983" lon="-1.52765">
        <ele>57</ele>
        <time>2021-08-22T09:18:21.000Z</time>
      </trkpt>
      <trkpt lat="47.39844" lon="-1.52771">
        <ele>57</ele>
        <time>2021-08-22T09:18:23.000Z</time>
      </trkpt>
      <trkpt lat="47.39857" lon="-1.52778">
        <ele>58</ele>
        <time>2021-08-22T09:18:25.000Z</time>
      </trkpt>
      <trkpt lat="47.39871" lon="-1.52785">
        <ele>58</ele>
        <time>2021-08-22T09:18:27.000Z</time>
      </trkpt>
      <trkpt lat="47.39884" lon="-1.52792">
        <ele>58</ele>
        <time>2021-08-22T09:18:29.000Z</time>
      </trkpt>
      <trkpt lat="47.39897" lon="-1.52798">
        <ele>58</ele>
        <time>2021-08-22T09:18:31.000Z</time>
      </trkpt>
      <trkpt lat="47.3991" lon="-1.52805">
        <ele>58</ele>
        <time>2021-08-22T09:18:33.000Z</time>
      </trkpt>
      <trkpt lat="47.39924" lon="-1.52811">
        <ele>58</ele>
        <time>2021-08-22T09:18:35.000Z</time>
      </trkpt>
      <trkpt lat="47.39936" lon="-1.52817">
        <ele>58</ele>
        <time>2021-08-22T09:18:37.000Z</time>
      </trkpt>
      <trkpt lat="47.39949" lon="-1.52823">
        <ele>59</ele>
        <time>2021-08-22T09:18:39.000Z</time>
      </trkpt>
      <trkpt lat="47.39962" lon="-1.5283">
        <ele>59</ele>
        <time>2021-08-22T09:18:41.000Z</time>
      </trkpt>
      <trkpt lat="47.39975" lon="-1.52837">
        <ele>59</ele>
        <time>2021-08-22T09:18:43.000Z</time>
      </trkpt>
      <trkpt lat="47.39988" lon="-1.52845">
        <ele>59</ele>
        <time>2021-08-22T09:18:45.000Z</time>
      </trkpt>
      <trkpt lat="47.40001" lon="-1.52854">
        <ele>59</ele>
        <time>2021-08-22T09:18:47.000Z</time>
      </trkpt>
      <trkpt lat="47.40012" lon="-1.52864">
        <ele>59</ele>
        <time>2021-08-22T09:18:49.000Z</time>
      </trkpt>
      <trkpt lat="47.40024" lon="-1.52873">
        <ele>59</ele>
        <time>2021-08-22T09:18:51.000Z</time>
      </trkpt>
      <trkpt lat="47.40035" lon="-1.52883">
        <ele>60</ele>
        <time>2021-08-22T09:18:53.000Z</time>
      </trkpt>
      <trkpt lat="47.40046" lon="-1.52895">
        <ele>59</ele>
        <time>2021-08-22T09:18:55.000Z</time>
      </trkpt>
      <trkpt lat="47.40057" lon="-1.52906">
        <ele>59</ele>
        <time>2021-08-22T09:18:57.000Z</time>
      </trkpt>
      <trkpt lat="47.40069" lon="-1.52916">
        <ele>59</ele>
        <time>2021-08-22T09:18:59.000Z</time>
      </trkpt>
      <trkpt lat="47.40081" lon="-1.52927">
        <ele>59</ele>
        <time>2021-08-22T09:19:01.000Z</time>
      </trkpt>
      <trkpt lat="47.40092" lon="-1.52939">
        <ele>58</ele>
        <time>2021-08-22T09:19:03.000Z</time>
      </trkpt>
      <trkpt lat="47.40104" lon="-1.5295">
        <ele>58</ele>
        <time>2021-08-22T09:19:05.000Z</time>
      </trkpt>
      <trkpt lat="47.40116" lon="-1.52961">
        <ele>58</ele>
        <time>2021-08-22T09:19:07.000Z</time>
      </trkpt>
      <trkpt lat="47.40128" lon="-1.52973">
        <ele>58</ele>
        <time>2021-08-22T09:19:09.000Z</time>
      </trkpt>
      <trkpt lat="47.4014" lon="-1.52984">
        <ele>58</ele>
        <time>2021-08-22T09:19:11.000Z</time>
      </trkpt>
      <trkpt lat="47.40151" lon="-1.52995">
        <ele>58</ele>
        <time>2021-08-22T09:19:13.000Z</time>
      </trkpt>
      <trkpt lat="47.40161" lon="-1.53006">
        <ele>58</ele>
        <time>2021-08-22T09:19:15.000Z</time>
      </trkpt>
      <trkpt lat="47.40173" lon="-1.53016">
        <ele>58</ele>
        <time>2021-08-22T09:19:17.000Z</time>
      </trkpt>
      <trkpt lat="47.40184" lon="-1.53026">
        <ele>58</ele>
        <time>2021-08-22T09:19:19.000Z</time>
      </trkpt>
      <trkpt lat="47.40194" lon="-1.53036">
        <ele>58</ele>
        <time>2021-08-22T09:19:21.000Z</time>
      </trkpt>
      <trkpt lat="47.40205" lon="-1.53046">
        <ele>58</ele>
        <time>2021-08-22T09:19:23.000Z</time>
      </trkpt>
      <trkpt lat="47.40216" lon="-1.53056">
        <ele>58</ele>
        <time>2021-08-22T09:19:25.000Z</time>
      </trkpt>
      <trkpt lat="47.40226" lon="-1.53067">
        <ele>57</ele>
        <time>2021-08-22T09:19:27.000Z</time>
      </trkpt>
      <trkpt lat="47.40237" lon="-1.53076">
        <ele>58</ele>
        <time>2021-08-22T09:19:29.000Z</time>
      </trkpt>
      <trkpt lat="47.40248" lon="-1.53087">
        <ele>58</ele>
        <time>2021-08-22T09:19:31.000Z</time>
      </trkpt>
      <trkpt lat="47.40259" lon="-1.53097">
        <ele>58</ele>
        <time>2021-08-22T09:19:33.000Z</time>
      </trkpt>
      <trkpt lat="47.40269" lon="-1.53107">
        <ele>58</ele>
        <time>2021-08-22T09:19:35.000Z</time>
      </trkpt>
      <trkpt lat="47.4028" lon="-1.53117">
        <ele>58</ele>
        <time>2021-08-22T09:19:37.000Z</time>
      </trkpt>
      <trkpt lat="47.40292" lon="-1.53128">
        <ele>58</ele>
        <time>2021-08-22T09:19:39.000Z</time>
      </trkpt>
      <trkpt lat="47.40303" lon="-1.53139">
        <ele>57</ele>
        <time>2021-08-22T09:19:41.000Z</time>
      </trkpt>
      <trkpt lat="47.40314" lon="-1.5315">
        <ele>58</ele>
        <time>2021-08-22T09:19:43.000Z</time>
      </trkpt>
      <trkpt lat="47.40326" lon="-1.5316">
        <ele>58</ele>
        <time>2021-08-22T09:19:45.000Z</time>
      </trkpt>
      <trkpt lat="47.40337" lon="-1.53171">
        <ele>58</ele>
        <time>2021-08-22T09:19:47.000Z</time>
      </trkpt>
      <trkpt lat="47.40348" lon="-1.53182">
        <ele>58</ele>
        <time>2021-08-22T09:19:49.000Z</time>
      </trkpt>
      <trkpt lat="47.40358" lon="-1.53193">
        <ele>58</ele>
        <time>2021-08-22T09:19:51.000Z</time>
      </trkpt>
      <trkpt lat="47.40369" lon="-1.53204">
        <ele>59</ele>
        <time>2021-08-22T09:19:53.000Z</time>
      </trkpt>
      <trkpt lat="47.40379" lon="-1.53216">
        <ele>59</ele>
        <time>2021-08-22T09:19:55.000Z</time>
      </trkpt>
      <trkpt lat="47.4039" lon="-1.53226">
        <ele>59</ele>
        <time>2021-08-22T09:19:57.000Z</time>
      </trkpt>
      <trkpt lat="47.404" lon="-1.53237">
        <ele>60</ele>
        <time>2021-08-22T09:19:59.000Z</time>
      </trkpt>
      <trkpt lat="47.4041" lon="-1.53248">
        <ele>60</ele>
        <time>2021-08-22T09:20:01.000Z</time>
      </trkpt>
      <trkpt lat="47.40421" lon="-1.5326">
        <ele>59</ele>
        <time>2021-08-22T09:20:03.000Z</time>
      </trkpt>
      <trkpt lat="47.40433" lon="-1.53274">
        <ele>59</ele>
        <time>2021-08-22T09:20:05.000Z</time>
      </trkpt>
      <trkpt lat="47.40444" lon="-1.53287">
        <ele>60</ele>
        <time>2021-08-22T09:20:07.000Z</time>
      </trkpt>
      <trkpt lat="47.40455" lon="-1.53301">
        <ele>59</ele>
        <time>2021-08-22T09:20:09.000Z</time>
      </trkpt>
      <trkpt lat="47.40465" lon="-1.53313">
        <ele>60</ele>
        <time>2021-08-22T09:20:11.000Z</time>
      </trkpt>
      <trkpt lat="47.40475" lon="-1.53325">
        <ele>60</ele>
        <time>2021-08-22T09:20:13.000Z</time>
      </trkpt>
      <trkpt lat="47.40487" lon="-1.53338">
        <ele>60</ele>
        <time>2021-08-22T09:20:15.000Z</time>
      </trkpt>
      <trkpt lat="47.40498" lon="-1.5335">
        <ele>59</ele>
        <time>2021-08-22T09:20:17.000Z</time>
      </trkpt>
      <trkpt lat="47.4051" lon="-1.53361">
        <ele>59</ele>
        <time>2021-08-22T09:20:19.000Z</time>
      </trkpt>
      <trkpt lat="47.40521" lon="-1.53375">
        <ele>58</ele>
        <time>2021-08-22T09:20:21.000Z</time>
      </trkpt>
      <trkpt lat="47.40531" lon="-1.53388">
        <ele>57</ele>
        <time>2021-08-22T09:20:23.000Z</time>
      </trkpt>
      <trkpt lat="47.40542" lon="-1.534">
        <ele>57</ele>
        <time>2021-08-22T09:20:25.000Z</time>
      </trkpt>
      <trkpt lat="47.40553" lon="-1.53413">
        <ele>57</ele>
        <time>2021-08-22T09:20:27.000Z</time>
      </trkpt>
      <trkpt lat="47.40563" lon="-1.53426">
        <ele>56</ele>
        <time>2021-08-22T09:20:29.000Z</time>
      </trkpt>
      <trkpt lat="47.40574" lon="-1.53438">
        <ele>57</ele>
        <time>2021-08-22T09:20:31.000Z</time>
      </trkpt>
      <trkpt lat="47.40583" lon="-1.5345">
        <ele>56</ele>
        <time>2021-08-22T09:20:33.000Z</time>
      </trkpt>
      <trkpt lat="47.40593" lon="-1.53461">
        <ele>56</ele>
        <time>2021-08-22T09:20:35.000Z</time>
      </trkpt>
      <trkpt lat="47.40602" lon="-1.53472">
        <ele>56</ele>
        <time>2021-08-22T09:20:37.000Z</time>
      </trkpt>
      <trkpt lat="47.40611" lon="-1.53483">
        <ele>57</ele>
        <time>2021-08-22T09:20:39.000Z</time>
      </trkpt>
      <trkpt lat="47.40621" lon="-1.53494">
        <ele>56</ele>
        <time>2021-08-22T09:20:41.000Z</time>
      </trkpt>
      <trkpt lat="47.40631" lon="-1.53506">
        <ele>57</ele>
        <time>2021-08-22T09:20:43.000Z</time>
      </trkpt>
      <trkpt lat="47.4064" lon="-1.53517">
        <ele>57</ele>
        <time>2021-08-22T09:20:45.000Z</time>
      </trkpt>
      <trkpt lat="47.4065" lon="-1.53527">
        <ele>57</ele>
        <time>2021-08-22T09:20:47.000Z</time>
      </trkpt>
      <trkpt lat="47.40658" lon="-1.53535">
        <ele>57</ele>
        <time>2021-08-22T09:20:49.000Z</time>
      </trkpt>
      <trkpt lat="47.40669" lon="-1.53539">
        <ele>57</ele>
        <time>2021-08-22T09:20:52.000Z</time>
      </trkpt>
      <trkpt lat="47.4068" lon="-1.53539">
        <ele>58</ele>
        <time>2021-08-22T09:20:56.000Z</time>
      </trkpt>
      <trkpt lat="47.4069" lon="-1.53538">
        <ele>58</ele>
        <time>2021-08-22T09:20:58.000Z</time>
      </trkpt>
      <trkpt lat="47.40702" lon="-1.53536">
        <ele>58</ele>
        <time>2021-08-22T09:21:00.000Z</time>
      </trkpt>
      <trkpt lat="47.40715" lon="-1.53534">
        <ele>58</ele>
        <time>2021-08-22T09:21:02.000Z</time>
      </trkpt>
      <trkpt lat="47.40728" lon="-1.53532">
        <ele>58</ele>
        <time>2021-08-22T09:21:04.000Z</time>
      </trkpt>
      <trkpt lat="47.4074" lon="-1.53531">
        <ele>59</ele>
        <time>2021-08-22T09:21:06.000Z</time>
      </trkpt>
      <trkpt lat="47.40753" lon="-1.53529">
        <ele>59</ele>
        <time>2021-08-22T09:21:08.000Z</time>
      </trkpt>
      <trkpt lat="47.40766" lon="-1.53527">
        <ele>60</ele>
        <time>2021-08-22T09:21:10.000Z</time>
      </trkpt>
      <trkpt lat="47.40779" lon="-1.53525">
        <ele>60</ele>
        <time>2021-08-22T09:21:12.000Z</time>
      </trkpt>
      <trkpt lat="47.40792" lon="-1.53523">
        <ele>61</ele>
        <time>2021-08-22T09:21:14.000Z</time>
      </trkpt>
      <trkpt lat="47.40804" lon="-1.53521">
        <ele>61</ele>
        <time>2021-08-22T09:21:16.000Z</time>
      </trkpt>
      <trkpt lat="47.40817" lon="-1.5352">
        <ele>61</ele>
        <time>2021-08-22T09:21:18.000Z</time>
      </trkpt>
      <trkpt lat="47.40829" lon="-1.53518">
        <ele>62</ele>
        <time>2021-08-22T09:21:20.000Z</time>
      </trkpt>
      <trkpt lat="47.40842" lon="-1.53517">
        <ele>62</ele>
        <time>2021-08-22T09:21:22.000Z</time>
      </trkpt>
      <trkpt lat="47.40854" lon="-1.53516">
        <ele>62</ele>
        <time>2021-08-22T09:21:24.000Z</time>
      </trkpt>
      <trkpt lat="47.40866" lon="-1.53517">
        <ele>61</ele>
        <time>2021-08-22T09:21:26.000Z</time>
      </trkpt>
      <trkpt lat="47.40879" lon="-1.53519">
        <ele>61</ele>
        <time>2021-08-22T09:21:28.000Z</time>
      </trkpt>
      <trkpt lat="47.40891" lon="-1.53522">
        <ele>61</ele>
        <time>2021-08-22T09:21:30.000Z</time>
      </trkpt>
      <trkpt lat="47.40904" lon="-1.53525">
        <ele>60</ele>
        <time>2021-08-22T09:21:32.000Z</time>
      </trkpt>
      <trkpt lat="47.40916" lon="-1.53527">
        <ele>60</ele>
        <time>2021-08-22T09:21:34.000Z</time>
      </trkpt>
      <trkpt lat="47.40929" lon="-1.5353">
        <ele>60</ele>
        <time>2021-08-22T09:21:36.000Z</time>
      </trkpt>
      <trkpt lat="47.40941" lon="-1.53532">
        <ele>60</ele>
        <time>2021-08-22T09:21:38.000Z</time>
      </trkpt>
      <trkpt lat="47.40954" lon="-1.53535">
        <ele>60</ele>
        <time>2021-08-22T09:21:40.000Z</time>
      </trkpt>
      <trkpt lat="47.40966" lon="-1.53537">
        <ele>60</ele>
        <time>2021-08-22T09:21:42.000Z</time>
      </trkpt>
      <trkpt lat="47.40979" lon="-1.53536">
        <ele>60</ele>
        <time>2021-08-22T09:21:44.000Z</time>
      </trkpt>
      <trkpt lat="47.40992" lon="-1.53531">
        <ele>60</ele>
        <time>2021-08-22T09:21:46.000Z</time>
      </trkpt>
      <trkpt lat="47.41003" lon="-1.53522">
        <ele>60</ele>
        <time>2021-08-22T09:21:48.000Z</time>
      </trkpt>
      <trkpt lat="47.41012" lon="-1.53509">
        <ele>60</ele>
        <time>2021-08-22T09:21:50.000Z</time>
      </trkpt>
      <trkpt lat="47.41019" lon="-1.53494">
        <ele>60</ele>
        <time>2021-08-22T09:21:52.000Z</time>
      </trkpt>
      <trkpt lat="47.41026" lon="-1.53479">
        <ele>60</ele>
        <time>2021-08-22T09:21:54.000Z</time>
      </trkpt>
      <trkpt lat="47.41033" lon="-1.53465">
        <ele>60</ele>
        <time>2021-08-22T09:21:56.000Z</time>
      </trkpt>
      <trkpt lat="47.4104" lon="-1.5345">
        <ele>60</ele>
        <time>2021-08-22T09:21:58.000Z</time>
      </trkpt>
      <trkpt lat="47.41047" lon="-1.53431">
        <ele>60</ele>
        <time>2021-08-22T09:22:00.000Z</time>
      </trkpt>
      <trkpt lat="47.41057" lon="-1.53413">
        <ele>59</ele>
        <time>2021-08-22T09:22:02.000Z</time>
      </trkpt>
      <trkpt lat="47.41069" lon="-1.53402">
        <ele>59</ele>
        <time>2021-08-22T09:22:04.000Z</time>
      </trkpt>
      <trkpt lat="47.41085" lon="-1.53396">
        <ele>60</ele>
        <time>2021-08-22T09:22:06.000Z</time>
      </trkpt>
      <trkpt lat="47.41099" lon="-1.53393">
        <ele>60</ele>
        <time>2021-08-22T09:22:08.000Z</time>
      </trkpt>
      <trkpt lat="47.41113" lon="-1.5339">
        <ele>60</ele>
        <time>2021-08-22T09:22:10.000Z</time>
      </trkpt>
      <trkpt lat="47.41126" lon="-1.53389">
        <ele>60</ele>
        <time>2021-08-22T09:22:12.000Z</time>
      </trkpt>
      <trkpt lat="47.41139" lon="-1.53387">
        <ele>60</ele>
        <time>2021-08-22T09:22:14.000Z</time>
      </trkpt>
      <trkpt lat="47.41152" lon="-1.53385">
        <ele>60</ele>
        <time>2021-08-22T09:22:16.000Z</time>
      </trkpt>
      <trkpt lat="47.41164" lon="-1.53383">
        <ele>61</ele>
        <time>2021-08-22T09:22:18.000Z</time>
      </trkpt>
      <trkpt lat="47.41177" lon="-1.5338">
        <ele>62</ele>
        <time>2021-08-22T09:22:20.000Z</time>
      </trkpt>
      <trkpt lat="47.4119" lon="-1.53376">
        <ele>61</ele>
        <time>2021-08-22T09:22:22.000Z</time>
      </trkpt>
      <trkpt lat="47.41204" lon="-1.53369">
        <ele>61</ele>
        <time>2021-08-22T09:22:24.000Z</time>
      </trkpt>
      <trkpt lat="47.41216" lon="-1.53361">
        <ele>61</ele>
        <time>2021-08-22T09:22:26.000Z</time>
      </trkpt>
      <trkpt lat="47.41227" lon="-1.53351">
        <ele>61</ele>
        <time>2021-08-22T09:22:28.000Z</time>
      </trkpt>
      <trkpt lat="47.41238" lon="-1.53338">
        <ele>61</ele>
        <time>2021-08-22T09:22:30.000Z</time>
      </trkpt>
      <trkpt lat="47.41247" lon="-1.53324">
        <ele>61</ele>
        <time>2021-08-22T09:22:32.000Z</time>
      </trkpt>
      <trkpt lat="47.41255" lon="-1.5331">
        <ele>61</ele>
        <time>2021-08-22T09:22:34.000Z</time>
      </trkpt>
      <trkpt lat="47.41264" lon="-1.53295">
        <ele>61</ele>
        <time>2021-08-22T09:22:36.000Z</time>
      </trkpt>
      <trkpt lat="47.41271" lon="-1.53278">
        <ele>61</ele>
        <time>2021-08-22T09:22:38.000Z</time>
      </trkpt>
      <trkpt lat="47.41278" lon="-1.53261">
        <ele>61</ele>
        <time>2021-08-22T09:22:40.000Z</time>
      </trkpt>
      <trkpt lat="47.41285" lon="-1.53244">
        <ele>60</ele>
        <time>2021-08-22T09:22:42.000Z</time>
      </trkpt>
      <trkpt lat="47.41292" lon="-1.53227">
        <ele>61</ele>
        <time>2021-08-22T09:22:44.000Z</time>
      </trkpt>
      <trkpt lat="47.41299" lon="-1.53209">
        <ele>61</ele>
        <time>2021-08-22T09:22:46.000Z</time>
      </trkpt>
      <trkpt lat="47.41306" lon="-1.53192">
        <ele>61</ele>
        <time>2021-08-22T09:22:48.000Z</time>
      </trkpt>
      <trkpt lat="47.41313" lon="-1.53176">
        <ele>61</ele>
        <time>2021-08-22T09:22:50.000Z</time>
      </trkpt>
      <trkpt lat="47.41321" lon="-1.53158">
        <ele>61</ele>
        <time>2021-08-22T09:22:52.000Z</time>
      </trkpt>
      <trkpt lat="47.41328" lon="-1.53142">
        <ele>61</ele>
        <time>2021-08-22T09:22:54.000Z</time>
      </trkpt>
      <trkpt lat="47.41335" lon="-1.53125">
        <ele>61</ele>
        <time>2021-08-22T09:22:56.000Z</time>
      </trkpt>
      <trkpt lat="47.41343" lon="-1.53108">
        <ele>61</ele>
        <time>2021-08-22T09:22:58.000Z</time>
      </trkpt>
      <trkpt lat="47.41351" lon="-1.53092">
        <ele>61</ele>
        <time>2021-08-22T09:23:00.000Z</time>
      </trkpt>
      <trkpt lat="47.4136" lon="-1.53076">
        <ele>61</ele>
        <time>2021-08-22T09:23:02.000Z</time>
      </trkpt>
      <trkpt lat="47.41369" lon="-1.53061">
        <ele>61</ele>
        <time>2021-08-22T09:23:04.000Z</time>
      </trkpt>
      <trkpt lat="47.41378" lon="-1.53047">
        <ele>61</ele>
        <time>2021-08-22T09:23:06.000Z</time>
      </trkpt>
      <trkpt lat="47.41388" lon="-1.53032">
        <ele>62</ele>
        <time>2021-08-22T09:23:08.000Z</time>
      </trkpt>
      <trkpt lat="47.41397" lon="-1.53018">
        <ele>62</ele>
        <time>2021-08-22T09:23:10.000Z</time>
      </trkpt>
      <trkpt lat="47.41407" lon="-1.53004">
        <ele>62</ele>
        <time>2021-08-22T09:23:12.000Z</time>
      </trkpt>
      <trkpt lat="47.41417" lon="-1.5299">
        <ele>62</ele>
        <time>2021-08-22T09:23:14.000Z</time>
      </trkpt>
      <trkpt lat="47.41427" lon="-1.52975">
        <ele>62</ele>
        <time>2021-08-22T09:23:16.000Z</time>
      </trkpt>
      <trkpt lat="47.41437" lon="-1.5296">
        <ele>62</ele>
        <time>2021-08-22T09:23:18.000Z</time>
      </trkpt>
      <trkpt lat="47.41447" lon="-1.52946">
        <ele>61</ele>
        <time>2021-08-22T09:23:20.000Z</time>
      </trkpt>
      <trkpt lat="47.41457" lon="-1.52932">
        <ele>61</ele>
        <time>2021-08-22T09:23:22.000Z</time>
      </trkpt>
      <trkpt lat="47.41467" lon="-1.52917">
        <ele>61</ele>
        <time>2021-08-22T09:23:24.000Z</time>
      </trkpt>
      <trkpt lat="47.41477" lon="-1.52903">
        <ele>61</ele>
        <time>2021-08-22T09:23:26.000Z</time>
      </trkpt>
      <trkpt lat="47.41487" lon="-1.52888">
        <ele>61</ele>
        <time>2021-08-22T09:23:28.000Z</time>
      </trkpt>
      <trkpt lat="47.41496" lon="-1.52874">
        <ele>61</ele>
        <time>2021-08-22T09:23:30.000Z</time>
      </trkpt>
      <trkpt lat="47.41505" lon="-1.52859">
        <ele>61</ele>
        <time>2021-08-22T09:23:32.000Z</time>
      </trkpt>
      <trkpt lat="47.41515" lon="-1.52844">
        <ele>61</ele>
        <time>2021-08-22T09:23:34.000Z</time>
      </trkpt>
      <trkpt lat="47.41524" lon="-1.52828">
        <ele>61</ele>
        <time>2021-08-22T09:23:36.000Z</time>
      </trkpt>
      <trkpt lat="47.41532" lon="-1.52812">
        <ele>61</ele>
        <time>2021-08-22T09:23:38.000Z</time>
      </trkpt>
      <trkpt lat="47.41541" lon="-1.52796">
        <ele>61</ele>
        <time>2021-08-22T09:23:40.000Z</time>
      </trkpt>
      <trkpt lat="47.4155" lon="-1.52779">
        <ele>61</ele>
        <time>2021-08-22T09:23:42.000Z</time>
      </trkpt>
      <trkpt lat="47.41558" lon="-1.52762">
        <ele>61</ele>
        <time>2021-08-22T09:23:44.000Z</time>
      </trkpt>
      <trkpt lat="47.41566" lon="-1.52745">
        <ele>61</ele>
        <time>2021-08-22T09:23:46.000Z</time>
      </trkpt>
      <trkpt lat="47.41574" lon="-1.52727">
        <ele>60</ele>
        <time>2021-08-22T09:23:48.000Z</time>
      </trkpt>
      <trkpt lat="47.41581" lon="-1.52711">
        <ele>60</ele>
        <time>2021-08-22T09:23:50.000Z</time>
      </trkpt>
      <trkpt lat="47.41588" lon="-1.52694">
        <ele>61</ele>
        <time>2021-08-22T09:23:52.000Z</time>
      </trkpt>
      <trkpt lat="47.41596" lon="-1.52676">
        <ele>61</ele>
        <time>2021-08-22T09:23:54.000Z</time>
      </trkpt>
      <trkpt lat="47.41603" lon="-1.52658">
        <ele>61</ele>
        <time>2021-08-22T09:23:56.000Z</time>
      </trkpt>
      <trkpt lat="47.41611" lon="-1.5264">
        <ele>61</ele>
        <time>2021-08-22T09:23:58.000Z</time>
      </trkpt>
      <trkpt lat="47.41617" lon="-1.52622">
        <ele>61</ele>
        <time>2021-08-22T09:24:00.000Z</time>
      </trkpt>
      <trkpt lat="47.41625" lon="-1.52604">
        <ele>61</ele>
        <time>2021-08-22T09:24:02.000Z</time>
      </trkpt>
      <trkpt lat="47.41632" lon="-1.52586">
        <ele>61</ele>
        <time>2021-08-22T09:24:04.000Z</time>
      </trkpt>
      <trkpt lat="47.41639" lon="-1.52567">
        <ele>61</ele>
        <time>2021-08-22T09:24:06.000Z</time>
      </trkpt>
      <trkpt lat="47.41646" lon="-1.52549">
        <ele>60</ele>
        <time>2021-08-22T09:24:08.000Z</time>
      </trkpt>
      <trkpt lat="47.41653" lon="-1.5253">
        <ele>60</ele>
        <time>2021-08-22T09:24:10.000Z</time>
      </trkpt>
      <trkpt lat="47.4166" lon="-1.52511">
        <ele>60</ele>
        <time>2021-08-22T09:24:12.000Z</time>
      </trkpt>
      <trkpt lat="47.41667" lon="-1.52493">
        <ele>60</ele>
        <time>2021-08-22T09:24:14.000Z</time>
      </trkpt>
      <trkpt lat="47.41674" lon="-1.52475">
        <ele>60</ele>
        <time>2021-08-22T09:24:16.000Z</time>
      </trkpt>
      <trkpt lat="47.4168" lon="-1.52456">
        <ele>60</ele>
        <time>2021-08-22T09:24:18.000Z</time>
      </trkpt>
      <trkpt lat="47.41687" lon="-1.52437">
        <ele>60</ele>
        <time>2021-08-22T09:24:20.000Z</time>
      </trkpt>
      <trkpt lat="47.41694" lon="-1.52419">
        <ele>60</ele>
        <time>2021-08-22T09:24:22.000Z</time>
      </trkpt>
      <trkpt lat="47.41701" lon="-1.524">
        <ele>60</ele>
        <time>2021-08-22T09:24:24.000Z</time>
      </trkpt>
      <trkpt lat="47.41708" lon="-1.52381">
        <ele>60</ele>
        <time>2021-08-22T09:24:26.000Z</time>
      </trkpt>
      <trkpt lat="47.41715" lon="-1.52363">
        <ele>60</ele>
        <time>2021-08-22T09:24:28.000Z</time>
      </trkpt>
      <trkpt lat="47.41722" lon="-1.52345">
        <ele>60</ele>
        <time>2021-08-22T09:24:30.000Z</time>
      </trkpt>
      <trkpt lat="47.41728" lon="-1.52326">
        <ele>60</ele>
        <time>2021-08-22T09:24:32.000Z</time>
      </trkpt>
      <trkpt lat="47.41735" lon="-1.52307">
        <ele>60</ele>
        <time>2021-08-22T09:24:34.000Z</time>
      </trkpt>
      <trkpt lat="47.41742" lon="-1.52289">
        <ele>60</ele>
        <time>2021-08-22T09:24:36.000Z</time>
      </trkpt>
      <trkpt lat="47.41749" lon="-1.5227">
        <ele>60</ele>
        <time>2021-08-22T09:24:38.000Z</time>
      </trkpt>
      <trkpt lat="47.41757" lon="-1.52251">
        <ele>60</ele>
        <time>2021-08-22T09:24:40.000Z</time>
      </trkpt>
      <trkpt lat="47.41764" lon="-1.52231">
        <ele>59</ele>
        <time>2021-08-22T09:24:42.000Z</time>
      </trkpt>
      <trkpt lat="47.41772" lon="-1.52211">
        <ele>59</ele>
        <time>2021-08-22T09:24:44.000Z</time>
      </trkpt>
      <trkpt lat="47.41779" lon="-1.52191">
        <ele>58</ele>
        <time>2021-08-22T09:24:46.000Z</time>
      </trkpt>
      <trkpt lat="47.41787" lon="-1.52172">
        <ele>59</ele>
        <time>2021-08-22T09:24:48.000Z</time>
      </trkpt>
      <trkpt lat="47.41794" lon="-1.52152">
        <ele>58</ele>
        <time>2021-08-22T09:24:50.000Z</time>
      </trkpt>
      <trkpt lat="47.41801" lon="-1.52132">
        <ele>59</ele>
        <time>2021-08-22T09:24:52.000Z</time>
      </trkpt>
      <trkpt lat="47.41809" lon="-1.52112">
        <ele>60</ele>
        <time>2021-08-22T09:24:54.000Z</time>
      </trkpt>
      <trkpt lat="47.41816" lon="-1.52092">
        <ele>59</ele>
        <time>2021-08-22T09:24:56.000Z</time>
      </trkpt>
      <trkpt lat="47.41824" lon="-1.52071">
        <ele>59</ele>
        <time>2021-08-22T09:24:58.000Z</time>
      </trkpt>
      <trkpt lat="47.41831" lon="-1.5205">
        <ele>58</ele>
        <time>2021-08-22T09:25:00.000Z</time>
      </trkpt>
      <trkpt lat="47.41839" lon="-1.52031">
        <ele>58</ele>
        <time>2021-08-22T09:25:02.000Z</time>
      </trkpt>
      <trkpt lat="47.41847" lon="-1.52011">
        <ele>58</ele>
        <time>2021-08-22T09:25:04.000Z</time>
      </trkpt>
      <trkpt lat="47.41855" lon="-1.51991">
        <ele>57</ele>
        <time>2021-08-22T09:25:06.000Z</time>
      </trkpt>
      <trkpt lat="47.41863" lon="-1.51971">
        <ele>57</ele>
        <time>2021-08-22T09:25:08.000Z</time>
      </trkpt>
      <trkpt lat="47.4187" lon="-1.51951">
        <ele>57</ele>
        <time>2021-08-22T09:25:10.000Z</time>
      </trkpt>
      <trkpt lat="47.41877" lon="-1.51932">
        <ele>57</ele>
        <time>2021-08-22T09:25:12.000Z</time>
      </trkpt>
      <trkpt lat="47.41884" lon="-1.51913">
        <ele>58</ele>
        <time>2021-08-22T09:25:14.000Z</time>
      </trkpt>
      <trkpt lat="47.41891" lon="-1.51895">
        <ele>58</ele>
        <time>2021-08-22T09:25:16.000Z</time>
      </trkpt>
      <trkpt lat="47.41898" lon="-1.51876">
        <ele>58</ele>
        <time>2021-08-22T09:25:18.000Z</time>
      </trkpt>
      <trkpt lat="47.41905" lon="-1.51857">
        <ele>59</ele>
        <time>2021-08-22T09:25:20.000Z</time>
      </trkpt>
      <trkpt lat="47.41912" lon="-1.51838">
        <ele>58</ele>
        <time>2021-08-22T09:25:22.000Z</time>
      </trkpt>
      <trkpt lat="47.41919" lon="-1.5182">
        <ele>58</ele>
        <time>2021-08-22T09:25:24.000Z</time>
      </trkpt>
      <trkpt lat="47.41927" lon="-1.51802">
        <ele>58</ele>
        <time>2021-08-22T09:25:26.000Z</time>
      </trkpt>
      <trkpt lat="47.41934" lon="-1.51784">
        <ele>58</ele>
        <time>2021-08-22T09:25:28.000Z</time>
      </trkpt>
      <trkpt lat="47.41942" lon="-1.51767">
        <ele>58</ele>
        <time>2021-08-22T09:25:30.000Z</time>
      </trkpt>
      <trkpt lat="47.41949" lon="-1.51749">
        <ele>59</ele>
        <time>2021-08-22T09:25:32.000Z</time>
      </trkpt>
      <trkpt lat="47.41956" lon="-1.51732">
        <ele>58</ele>
        <time>2021-08-22T09:25:34.000Z</time>
      </trkpt>
      <trkpt lat="47.41964" lon="-1.51715">
        <ele>58</ele>
        <time>2021-08-22T09:25:36.000Z</time>
      </trkpt>
      <trkpt lat="47.41972" lon="-1.51697">
        <ele>58</ele>
        <time>2021-08-22T09:25:38.000Z</time>
      </trkpt>
      <trkpt lat="47.41981" lon="-1.51681">
        <ele>58</ele>
        <time>2021-08-22T09:25:40.000Z</time>
      </trkpt>
      <trkpt lat="47.41991" lon="-1.51666">
        <ele>58</ele>
        <time>2021-08-22T09:25:42.000Z</time>
      </trkpt>
      <trkpt lat="47.42" lon="-1.51651">
        <ele>58</ele>
        <time>2021-08-22T09:25:44.000Z</time>
      </trkpt>
      <trkpt lat="47.4201" lon="-1.51636">
        <ele>58</ele>
        <time>2021-08-22T09:25:46.000Z</time>
      </trkpt>
      <trkpt lat="47.42019" lon="-1.51621">
        <ele>58</ele>
        <time>2021-08-22T09:25:48.000Z</time>
      </trkpt>
      <trkpt lat="47.42029" lon="-1.51607">
        <ele>58</ele>
        <time>2021-08-22T09:25:50.000Z</time>
      </trkpt>
      <trkpt lat="47.42038" lon="-1.51592">
        <ele>59</ele>
        <time>2021-08-22T09:25:52.000Z</time>
      </trkpt>
      <trkpt lat="47.42048" lon="-1.51578">
        <ele>59</ele>
        <time>2021-08-22T09:25:54.000Z</time>
      </trkpt>
      <trkpt lat="47.42058" lon="-1.51563">
        <ele>59</ele>
        <time>2021-08-22T09:25:56.000Z</time>
      </trkpt>
      <trkpt lat="47.42068" lon="-1.51548">
        <ele>59</ele>
        <time>2021-08-22T09:25:58.000Z</time>
      </trkpt>
      <trkpt lat="47.42077" lon="-1.51532">
        <ele>59</ele>
        <time>2021-08-22T09:26:00.000Z</time>
      </trkpt>
      <trkpt lat="47.42087" lon="-1.51517">
        <ele>59</ele>
        <time>2021-08-22T09:26:02.000Z</time>
      </trkpt>
      <trkpt lat="47.42096" lon="-1.515">
        <ele>60</ele>
        <time>2021-08-22T09:26:04.000Z</time>
      </trkpt>
      <trkpt lat="47.42105" lon="-1.51484">
        <ele>60</ele>
        <time>2021-08-22T09:26:06.000Z</time>
      </trkpt>
      <trkpt lat="47.42114" lon="-1.51466">
        <ele>60</ele>
        <time>2021-08-22T09:26:08.000Z</time>
      </trkpt>
      <trkpt lat="47.42122" lon="-1.51447">
        <ele>59</ele>
        <time>2021-08-22T09:26:10.000Z</time>
      </trkpt>
      <trkpt lat="47.42131" lon="-1.51429">
        <ele>59</ele>
        <time>2021-08-22T09:26:12.000Z</time>
      </trkpt>
      <trkpt lat="47.42139" lon="-1.51411">
        <ele>59</ele>
        <time>2021-08-22T09:26:14.000Z</time>
      </trkpt>
      <trkpt lat="47.42147" lon="-1.51393">
        <ele>59</ele>
        <time>2021-08-22T09:26:16.000Z</time>
      </trkpt>
      <trkpt lat="47.42155" lon="-1.51375">
        <ele>59</ele>
        <time>2021-08-22T09:26:18.000Z</time>
      </trkpt>
      <trkpt lat="47.42163" lon="-1.51356">
        <ele>59</ele>
        <time>2021-08-22T09:26:20.000Z</time>
      </trkpt>
      <trkpt lat="47.42171" lon="-1.51339">
        <ele>59</ele>
        <time>2021-08-22T09:26:22.000Z</time>
      </trkpt>
      <trkpt lat="47.42178" lon="-1.51321">
        <ele>59</ele>
        <time>2021-08-22T09:26:24.000Z</time>
      </trkpt>
      <trkpt lat="47.42186" lon="-1.51304">
        <ele>59</ele>
        <time>2021-08-22T09:26:26.000Z</time>
      </trkpt>
      <trkpt lat="47.42194" lon="-1.51286">
        <ele>59</ele>
        <time>2021-08-22T09:26:28.000Z</time>
      </trkpt>
      <trkpt lat="47.42202" lon="-1.51268">
        <ele>59</ele>
        <time>2021-08-22T09:26:30.000Z</time>
      </trkpt>
      <trkpt lat="47.42209" lon="-1.5125">
        <ele>59</ele>
        <time>2021-08-22T09:26:32.000Z</time>
      </trkpt>
      <trkpt lat="47.42217" lon="-1.51232">
        <ele>59</ele>
        <time>2021-08-22T09:26:34.000Z</time>
      </trkpt>
      <trkpt lat="47.42225" lon="-1.51214">
        <ele>59</ele>
        <time>2021-08-22T09:26:36.000Z</time>
      </trkpt>
      <trkpt lat="47.42233" lon="-1.51196">
        <ele>58</ele>
        <time>2021-08-22T09:26:38.000Z</time>
      </trkpt>
      <trkpt lat="47.42241" lon="-1.51178">
        <ele>58</ele>
        <time>2021-08-22T09:26:40.000Z</time>
      </trkpt>
      <trkpt lat="47.42249" lon="-1.5116">
        <ele>58</ele>
        <time>2021-08-22T09:26:42.000Z</time>
      </trkpt>
      <trkpt lat="47.42256" lon="-1.51142">
        <ele>59</ele>
        <time>2021-08-22T09:26:44.000Z</time>
      </trkpt>
      <trkpt lat="47.42264" lon="-1.51125">
        <ele>59</ele>
        <time>2021-08-22T09:26:46.000Z</time>
      </trkpt>
      <trkpt lat="47.42271" lon="-1.51107">
        <ele>59</ele>
        <time>2021-08-22T09:26:48.000Z</time>
      </trkpt>
      <trkpt lat="47.42279" lon="-1.5109">
        <ele>59</ele>
        <time>2021-08-22T09:26:50.000Z</time>
      </trkpt>
      <trkpt lat="47.42287" lon="-1.51072">
        <ele>59</ele>
        <time>2021-08-22T09:26:52.000Z</time>
      </trkpt>
      <trkpt lat="47.42295" lon="-1.51055">
        <ele>59</ele>
        <time>2021-08-22T09:26:54.000Z</time>
      </trkpt>
      <trkpt lat="47.42303" lon="-1.51037">
        <ele>58</ele>
        <time>2021-08-22T09:26:56.000Z</time>
      </trkpt>
      <trkpt lat="47.4231" lon="-1.5102">
        <ele>58</ele>
        <time>2021-08-22T09:26:58.000Z</time>
      </trkpt>
      <trkpt lat="47.42318" lon="-1.51002">
        <ele>58</ele>
        <time>2021-08-22T09:27:00.000Z</time>
      </trkpt>
      <trkpt lat="47.42326" lon="-1.50985">
        <ele>58</ele>
        <time>2021-08-22T09:27:02.000Z</time>
      </trkpt>
      <trkpt lat="47.42333" lon="-1.50968">
        <ele>58</ele>
        <time>2021-08-22T09:27:04.000Z</time>
      </trkpt>
      <trkpt lat="47.4234" lon="-1.50951">
        <ele>58</ele>
        <time>2021-08-22T09:27:06.000Z</time>
      </trkpt>
      <trkpt lat="47.42348" lon="-1.50934">
        <ele>58</ele>
        <time>2021-08-22T09:27:08.000Z</time>
      </trkpt>
      <trkpt lat="47.42356" lon="-1.50918">
        <ele>58</ele>
        <time>2021-08-22T09:27:10.000Z</time>
      </trkpt>
      <trkpt lat="47.42365" lon="-1.50903">
        <ele>58</ele>
        <time>2021-08-22T09:27:12.000Z</time>
      </trkpt>
      <trkpt lat="47.42374" lon="-1.50888">
        <ele>58</ele>
        <time>2021-08-22T09:27:14.000Z</time>
      </trkpt>
      <trkpt lat="47.42383" lon="-1.50874">
        <ele>58</ele>
        <time>2021-08-22T09:27:16.000Z</time>
      </trkpt>
      <trkpt lat="47.42394" lon="-1.50861">
        <ele>58</ele>
        <time>2021-08-22T09:27:18.000Z</time>
      </trkpt>
      <trkpt lat="47.42404" lon="-1.50848">
        <ele>58</ele>
        <time>2021-08-22T09:27:20.000Z</time>
      </trkpt>
      <trkpt lat="47.42416" lon="-1.50837">
        <ele>58</ele>
        <time>2021-08-22T09:27:22.000Z</time>
      </trkpt>
      <trkpt lat="47.42428" lon="-1.50826">
        <ele>58</ele>
        <time>2021-08-22T09:27:24.000Z</time>
      </trkpt>
      <trkpt lat="47.4244" lon="-1.50815">
        <ele>58</ele>
        <time>2021-08-22T09:27:26.000Z</time>
      </trkpt>
      <trkpt lat="47.42452" lon="-1.50805">
        <ele>59</ele>
        <time>2021-08-22T09:27:28.000Z</time>
      </trkpt>
      <trkpt lat="47.42464" lon="-1.50795">
        <ele>59</ele>
        <time>2021-08-22T09:27:30.000Z</time>
      </trkpt>
      <trkpt lat="47.42476" lon="-1.50785">
        <ele>59</ele>
        <time>2021-08-22T09:27:32.000Z</time>
      </trkpt>
      <trkpt lat="47.42488" lon="-1.50776">
        <ele>60</ele>
        <time>2021-08-22T09:27:34.000Z</time>
      </trkpt>
      <trkpt lat="47.425" lon="-1.50766">
        <ele>60</ele>
        <time>2021-08-22T09:27:36.000Z</time>
      </trkpt>
      <trkpt lat="47.42513" lon="-1.50755">
        <ele>60</ele>
        <time>2021-08-22T09:27:38.000Z</time>
      </trkpt>
      <trkpt lat="47.42525" lon="-1.50746">
        <ele>60</ele>
        <time>2021-08-22T09:27:40.000Z</time>
      </trkpt>
      <trkpt lat="47.42537" lon="-1.50736">
        <ele>60</ele>
        <time>2021-08-22T09:27:42.000Z</time>
      </trkpt>
      <trkpt lat="47.42549" lon="-1.50726">
        <ele>60</ele>
        <time>2021-08-22T09:27:44.000Z</time>
      </trkpt>
      <trkpt lat="47.42561" lon="-1.50716">
        <ele>60</ele>
        <time>2021-08-22T09:27:46.000Z</time>
      </trkpt>
      <trkpt lat="47.42573" lon="-1.50706">
        <ele>60</ele>
        <time>2021-08-22T09:27:48.000Z</time>
      </trkpt>
      <trkpt lat="47.42584" lon="-1.50696">
        <ele>61</ele>
        <time>2021-08-22T09:27:50.000Z</time>
      </trkpt>
      <trkpt lat="47.42596" lon="-1.50687">
        <ele>61</ele>
        <time>2021-08-22T09:27:52.000Z</time>
      </trkpt>
      <trkpt lat="47.42608" lon="-1.50677">
        <ele>61</ele>
        <time>2021-08-22T09:27:54.000Z</time>
      </trkpt>
      <trkpt lat="47.4262" lon="-1.50668">
        <ele>61</ele>
        <time>2021-08-22T09:27:56.000Z</time>
      </trkpt>
      <trkpt lat="47.42631" lon="-1.50659">
        <ele>61</ele>
        <time>2021-08-22T09:27:58.000Z</time>
      </trkpt>
      <trkpt lat="47.42642" lon="-1.50649">
        <ele>61</ele>
        <time>2021-08-22T09:28:00.000Z</time>
      </trkpt>
      <trkpt lat="47.42654" lon="-1.5064">
        <ele>61</ele>
        <time>2021-08-22T09:28:02.000Z</time>
      </trkpt>
      <trkpt lat="47.42665" lon="-1.50631">
        <ele>61</ele>
        <time>2021-08-22T09:28:04.000Z</time>
      </trkpt>
      <trkpt lat="47.42677" lon="-1.50621">
        <ele>62</ele>
        <time>2021-08-22T09:28:06.000Z</time>
      </trkpt>
      <trkpt lat="47.42689" lon="-1.50612">
        <ele>62</ele>
        <time>2021-08-22T09:28:08.000Z</time>
      </trkpt>
      <trkpt lat="47.427" lon="-1.50602">
        <ele>62</ele>
        <time>2021-08-22T09:28:10.000Z</time>
      </trkpt>
      <trkpt lat="47.42712" lon="-1.50592">
        <ele>62</ele>
        <time>2021-08-22T09:28:12.000Z</time>
      </trkpt>
      <trkpt lat="47.42723" lon="-1.50582">
        <ele>62</ele>
        <time>2021-08-22T09:28:14.000Z</time>
      </trkpt>
      <trkpt lat="47.42735" lon="-1.50573">
        <ele>62</ele>
        <time>2021-08-22T09:28:16.000Z</time>
      </trkpt>
      <trkpt lat="47.42747" lon="-1.50563">
        <ele>62</ele>
        <time>2021-08-22T09:28:18.000Z</time>
      </trkpt>
      <trkpt lat="47.42759" lon="-1.50553">
        <ele>62</ele>
        <time>2021-08-22T09:28:20.000Z</time>
      </trkpt>
      <trkpt lat="47.42771" lon="-1.50544">
        <ele>62</ele>
        <time>2021-08-22T09:28:22.000Z</time>
      </trkpt>
      <trkpt lat="47.42783" lon="-1.50534">
        <ele>61</ele>
        <time>2021-08-22T09:28:24.000Z</time>
      </trkpt>
      <trkpt lat="47.42795" lon="-1.50524">
        <ele>61</ele>
        <time>2021-08-22T09:28:26.000Z</time>
      </trkpt>
      <trkpt lat="47.42807" lon="-1.50515">
        <ele>61</ele>
        <time>2021-08-22T09:28:28.000Z</time>
      </trkpt>
      <trkpt lat="47.4282" lon="-1.50504">
        <ele>61</ele>
        <time>2021-08-22T09:28:30.000Z</time>
      </trkpt>
      <trkpt lat="47.42832" lon="-1.50494">
        <ele>61</ele>
        <time>2021-08-22T09:28:32.000Z</time>
      </trkpt>
      <trkpt lat="47.42843" lon="-1.50485">
        <ele>61</ele>
        <time>2021-08-22T09:28:34.000Z</time>
      </trkpt>
      <trkpt lat="47.42855" lon="-1.50475">
        <ele>61</ele>
        <time>2021-08-22T09:28:36.000Z</time>
      </trkpt>
      <trkpt lat="47.42867" lon="-1.50466">
        <ele>62</ele>
        <time>2021-08-22T09:28:38.000Z</time>
      </trkpt>
      <trkpt lat="47.42879" lon="-1.50456">
        <ele>62</ele>
        <time>2021-08-22T09:28:40.000Z</time>
      </trkpt>
      <trkpt lat="47.42892" lon="-1.50445">
        <ele>61</ele>
        <time>2021-08-22T09:28:42.000Z</time>
      </trkpt>
      <trkpt lat="47.42904" lon="-1.50435">
        <ele>61</ele>
        <time>2021-08-22T09:28:44.000Z</time>
      </trkpt>
      <trkpt lat="47.42916" lon="-1.50425">
        <ele>61</ele>
        <time>2021-08-22T09:28:46.000Z</time>
      </trkpt>
      <trkpt lat="47.42928" lon="-1.50415">
        <ele>61</ele>
        <time>2021-08-22T09:28:48.000Z</time>
      </trkpt>
      <trkpt lat="47.4294" lon="-1.50405">
        <ele>61</ele>
        <time>2021-08-22T09:28:50.000Z</time>
      </trkpt>
      <trkpt lat="47.42952" lon="-1.50395">
        <ele>61</ele>
        <time>2021-08-22T09:28:52.000Z</time>
      </trkpt>
      <trkpt lat="47.42963" lon="-1.50386">
        <ele>61</ele>
        <time>2021-08-22T09:28:54.000Z</time>
      </trkpt>
      <trkpt lat="47.42975" lon="-1.50377">
        <ele>61</ele>
        <time>2021-08-22T09:28:56.000Z</time>
      </trkpt>
      <trkpt lat="47.42988" lon="-1.50372">
        <ele>61</ele>
        <time>2021-08-22T09:28:58.000Z</time>
      </trkpt>
      <trkpt lat="47.43001" lon="-1.50368">
        <ele>62</ele>
        <time>2021-08-22T09:29:00.000Z</time>
      </trkpt>
      <trkpt lat="47.43015" lon="-1.50366">
        <ele>61</ele>
        <time>2021-08-22T09:29:02.000Z</time>
      </trkpt>
      <trkpt lat="47.43029" lon="-1.50364">
        <ele>61</ele>
        <time>2021-08-22T09:29:04.000Z</time>
      </trkpt>
      <trkpt lat="47.43042" lon="-1.50362">
        <ele>61</ele>
        <time>2021-08-22T09:29:06.000Z</time>
      </trkpt>
      <trkpt lat="47.43056" lon="-1.50361">
        <ele>61</ele>
        <time>2021-08-22T09:29:08.000Z</time>
      </trkpt>
      <trkpt lat="47.43067" lon="-1.50357">
        <ele>62</ele>
        <time>2021-08-22T09:29:10.000Z</time>
      </trkpt>
      <trkpt lat="47.43078" lon="-1.50347">
        <ele>62</ele>
        <time>2021-08-22T09:29:12.000Z</time>
      </trkpt>
      <trkpt lat="47.43086" lon="-1.50332">
        <ele>61</ele>
        <time>2021-08-22T09:29:14.000Z</time>
      </trkpt>
      <trkpt lat="47.43091" lon="-1.50315">
        <ele>61</ele>
        <time>2021-08-22T09:29:16.000Z</time>
      </trkpt>
      <trkpt lat="47.43095" lon="-1.50297">
        <ele>61</ele>
        <time>2021-08-22T09:29:18.000Z</time>
      </trkpt>
      <trkpt lat="47.43103" lon="-1.5028">
        <ele>61</ele>
        <time>2021-08-22T09:29:20.000Z</time>
      </trkpt>
      <trkpt lat="47.43112" lon="-1.50266">
        <ele>60</ele>
        <time>2021-08-22T09:29:22.000Z</time>
      </trkpt>
      <trkpt lat="47.43123" lon="-1.50254">
        <ele>61</ele>
        <time>2021-08-22T09:29:24.000Z</time>
      </trkpt>
      <trkpt lat="47.43135" lon="-1.50245">
        <ele>61</ele>
        <time>2021-08-22T09:29:26.000Z</time>
      </trkpt>
      <trkpt lat="47.43146" lon="-1.50236">
        <ele>61</ele>
        <time>2021-08-22T09:29:28.000Z</time>
      </trkpt>
      <trkpt lat="47.43157" lon="-1.50227">
        <ele>60</ele>
        <time>2021-08-22T09:29:30.000Z</time>
      </trkpt>
      <trkpt lat="47.43168" lon="-1.50217">
        <ele>60</ele>
        <time>2021-08-22T09:29:32.000Z</time>
      </trkpt>
      <trkpt lat="47.43179" lon="-1.50208">
        <ele>60</ele>
        <time>2021-08-22T09:29:34.000Z</time>
      </trkpt>
      <trkpt lat="47.43191" lon="-1.50198">
        <ele>60</ele>
        <time>2021-08-22T09:29:36.000Z</time>
      </trkpt>
      <trkpt lat="47.43203" lon="-1.50189">
        <ele>60</ele>
        <time>2021-08-22T09:29:38.000Z</time>
      </trkpt>
      <trkpt lat="47.43214" lon="-1.5018">
        <ele>60</ele>
        <time>2021-08-22T09:29:40.000Z</time>
      </trkpt>
      <trkpt lat="47.43225" lon="-1.5017">
        <ele>60</ele>
        <time>2021-08-22T09:29:42.000Z</time>
      </trkpt>
      <trkpt lat="47.43237" lon="-1.50161">
        <ele>60</ele>
        <time>2021-08-22T09:29:44.000Z</time>
      </trkpt>
      <trkpt lat="47.43248" lon="-1.50151">
        <ele>60</ele>
        <time>2021-08-22T09:29:46.000Z</time>
      </trkpt>
      <trkpt lat="47.4326" lon="-1.50142">
        <ele>61</ele>
        <time>2021-08-22T09:29:48.000Z</time>
      </trkpt>
      <trkpt lat="47.43271" lon="-1.50132">
        <ele>61</ele>
        <time>2021-08-22T09:29:50.000Z</time>
      </trkpt>
      <trkpt lat="47.43282" lon="-1.50124">
        <ele>61</ele>
        <time>2021-08-22T09:29:52.000Z</time>
      </trkpt>
      <trkpt lat="47.43293" lon="-1.50114">
        <ele>61</ele>
        <time>2021-08-22T09:29:54.000Z</time>
      </trkpt>
      <trkpt lat="47.43304" lon="-1.50104">
        <ele>61</ele>
        <time>2021-08-22T09:29:56.000Z</time>
      </trkpt>
      <trkpt lat="47.43315" lon="-1.50094">
        <ele>61</ele>
        <time>2021-08-22T09:29:58.000Z</time>
      </trkpt>
      <trkpt lat="47.43327" lon="-1.50084">
        <ele>60</ele>
        <time>2021-08-22T09:30:00.000Z</time>
      </trkpt>
      <trkpt lat="47.43338" lon="-1.50075">
        <ele>60</ele>
        <time>2021-08-22T09:30:02.000Z</time>
      </trkpt>
      <trkpt lat="47.43351" lon="-1.50066">
        <ele>59</ele>
        <time>2021-08-22T09:30:04.000Z</time>
      </trkpt>
      <trkpt lat="47.43363" lon="-1.50056">
        <ele>59</ele>
        <time>2021-08-22T09:30:06.000Z</time>
      </trkpt>
      <trkpt lat="47.43376" lon="-1.50047">
        <ele>59</ele>
        <time>2021-08-22T09:30:08.000Z</time>
      </trkpt>
      <trkpt lat="47.43388" lon="-1.50037">
        <ele>59</ele>
        <time>2021-08-22T09:30:10.000Z</time>
      </trkpt>
      <trkpt lat="47.43401" lon="-1.50028">
        <ele>58</ele>
        <time>2021-08-22T09:30:12.000Z</time>
      </trkpt>
      <trkpt lat="47.43414" lon="-1.50018">
        <ele>58</ele>
        <time>2021-08-22T09:30:14.000Z</time>
      </trkpt>
      <trkpt lat="47.43428" lon="-1.5001">
        <ele>58</ele>
        <time>2021-08-22T09:30:16.000Z</time>
      </trkpt>
      <trkpt lat="47.43441" lon="-1.50002">
        <ele>57</ele>
        <time>2021-08-22T09:30:18.000Z</time>
      </trkpt>
      <trkpt lat="47.43455" lon="-1.49996">
        <ele>57</ele>
        <time>2021-08-22T09:30:20.000Z</time>
      </trkpt>
      <trkpt lat="47.43469" lon="-1.49992">
        <ele>58</ele>
        <time>2021-08-22T09:30:22.000Z</time>
      </trkpt>
      <trkpt lat="47.43484" lon="-1.49989">
        <ele>57</ele>
        <time>2021-08-22T09:30:24.000Z</time>
      </trkpt>
      <trkpt lat="47.43498" lon="-1.49987">
        <ele>57</ele>
        <time>2021-08-22T09:30:26.000Z</time>
      </trkpt>
      <trkpt lat="47.43512" lon="-1.49984">
        <ele>57</ele>
        <time>2021-08-22T09:30:28.000Z</time>
      </trkpt>
      <trkpt lat="47.43533" lon="-1.49984">
        <ele>57</ele>
        <time>2021-08-22T09:30:31.000Z</time>
      </trkpt>
      <trkpt lat="47.43547" lon="-1.49987">
        <ele>58</ele>
        <time>2021-08-22T09:30:33.000Z</time>
      </trkpt>
      <trkpt lat="47.43562" lon="-1.49992">
        <ele>58</ele>
        <time>2021-08-22T09:30:35.000Z</time>
      </trkpt>
      <trkpt lat="47.43575" lon="-1.49996">
        <ele>58</ele>
        <time>2021-08-22T09:30:37.000Z</time>
      </trkpt>
      <trkpt lat="47.43588" lon="-1.50001">
        <ele>58</ele>
        <time>2021-08-22T09:30:39.000Z</time>
      </trkpt>
      <trkpt lat="47.43601" lon="-1.50006">
        <ele>59</ele>
        <time>2021-08-22T09:30:41.000Z</time>
      </trkpt>
      <trkpt lat="47.43614" lon="-1.50011">
        <ele>59</ele>
        <time>2021-08-22T09:30:43.000Z</time>
      </trkpt>
      <trkpt lat="47.43627" lon="-1.50014">
        <ele>60</ele>
        <time>2021-08-22T09:30:45.000Z</time>
      </trkpt>
      <trkpt lat="47.43639" lon="-1.50016">
        <ele>60</ele>
        <time>2021-08-22T09:30:47.000Z</time>
      </trkpt>
      <trkpt lat="47.4365" lon="-1.50018">
        <ele>61</ele>
        <time>2021-08-22T09:30:49.000Z</time>
      </trkpt>
      <trkpt lat="47.43663" lon="-1.50018">
        <ele>61</ele>
        <time>2021-08-22T09:30:51.000Z</time>
      </trkpt>
      <trkpt lat="47.43675" lon="-1.50018">
        <ele>62</ele>
        <time>2021-08-22T09:30:53.000Z</time>
      </trkpt>
      <trkpt lat="47.43687" lon="-1.50016">
        <ele>61</ele>
        <time>2021-08-22T09:30:55.000Z</time>
      </trkpt>
      <trkpt lat="47.43699" lon="-1.50013">
        <ele>61</ele>
        <time>2021-08-22T09:30:57.000Z</time>
      </trkpt>
      <trkpt lat="47.4371" lon="-1.5001">
        <ele>62</ele>
        <time>2021-08-22T09:30:59.000Z</time>
      </trkpt>
      <trkpt lat="47.43721" lon="-1.50008">
        <ele>62</ele>
        <time>2021-08-22T09:31:01.000Z</time>
      </trkpt>
      <trkpt lat="47.43732" lon="-1.50006">
        <ele>63</ele>
        <time>2021-08-22T09:31:03.000Z</time>
      </trkpt>
      <trkpt lat="47.43744" lon="-1.50004">
        <ele>63</ele>
        <time>2021-08-22T09:31:05.000Z</time>
      </trkpt>
      <trkpt lat="47.43754" lon="-1.5">
        <ele>64</ele>
        <time>2021-08-22T09:31:07.000Z</time>
      </trkpt>
      <trkpt lat="47.43766" lon="-1.49998">
        <ele>64</ele>
        <time>2021-08-22T09:31:09.000Z</time>
      </trkpt>
      <trkpt lat="47.43774" lon="-1.49994">
        <ele>64</ele>
        <time>2021-08-22T09:31:11.000Z</time>
      </trkpt>
      <trkpt lat="47.43783" lon="-1.49987">
        <ele>65</ele>
        <time>2021-08-22T09:31:13.000Z</time>
      </trkpt>
      <trkpt lat="47.438" lon="-1.49984">
        <ele>63</ele>
        <time>2021-08-22T09:31:16.000Z</time>
      </trkpt>
      <trkpt lat="47.43811" lon="-1.49984">
        <ele>63</ele>
        <time>2021-08-22T09:31:18.000Z</time>
      </trkpt>
      <trkpt lat="47.43822" lon="-1.49978">
        <ele>64</ele>
        <time>2021-08-22T09:31:20.000Z</time>
      </trkpt>
      <trkpt lat="47.43832" lon="-1.4997">
        <ele>63</ele>
        <time>2021-08-22T09:31:22.000Z</time>
      </trkpt>
      <trkpt lat="47.43843" lon="-1.49963">
        <ele>63</ele>
        <time>2021-08-22T09:31:24.000Z</time>
      </trkpt>
      <trkpt lat="47.43854" lon="-1.49955">
        <ele>64</ele>
        <time>2021-08-22T09:31:26.000Z</time>
      </trkpt>
      <trkpt lat="47.43864" lon="-1.49947">
        <ele>64</ele>
        <time>2021-08-22T09:31:28.000Z</time>
      </trkpt>
      <trkpt lat="47.43876" lon="-1.49939">
        <ele>64</ele>
        <time>2021-08-22T09:31:30.000Z</time>
      </trkpt>
      <trkpt lat="47.43887" lon="-1.49931">
        <ele>64</ele>
        <time>2021-08-22T09:31:32.000Z</time>
      </trkpt>
      <trkpt lat="47.43898" lon="-1.49924">
        <ele>64</ele>
        <time>2021-08-22T09:31:34.000Z</time>
      </trkpt>
      <trkpt lat="47.43909" lon="-1.49918">
        <ele>65</ele>
        <time>2021-08-22T09:31:36.000Z</time>
      </trkpt>
      <trkpt lat="47.43921" lon="-1.49911">
        <ele>65</ele>
        <time>2021-08-22T09:31:38.000Z</time>
      </trkpt>
      <trkpt lat="47.43934" lon="-1.49907">
        <ele>65</ele>
        <time>2021-08-22T09:31:40.000Z</time>
      </trkpt>
      <trkpt lat="47.43947" lon="-1.49905">
        <ele>66</ele>
        <time>2021-08-22T09:31:42.000Z</time>
      </trkpt>
      <trkpt lat="47.43959" lon="-1.49905">
        <ele>66</ele>
        <time>2021-08-22T09:31:44.000Z</time>
      </trkpt>
      <trkpt lat="47.4397" lon="-1.49906">
        <ele>66</ele>
        <time>2021-08-22T09:31:46.000Z</time>
      </trkpt>
      <trkpt lat="47.43981" lon="-1.49907">
        <ele>65</ele>
        <time>2021-08-22T09:31:49.000Z</time>
      </trkpt>
      <trkpt lat="47.43991" lon="-1.49908">
        <ele>64</ele>
        <time>2021-08-22T09:31:53.000Z</time>
      </trkpt>
      <trkpt lat="47.43999" lon="-1.49917">
        <ele>64</ele>
        <time>2021-08-22T09:31:55.000Z</time>
      </trkpt>
      <trkpt lat="47.44009" lon="-1.49926">
        <ele>64</ele>
        <time>2021-08-22T09:31:57.000Z</time>
      </trkpt>
      <trkpt lat="47.4402" lon="-1.49937">
        <ele>64</ele>
        <time>2021-08-22T09:31:59.000Z</time>
      </trkpt>
      <trkpt lat="47.44031" lon="-1.49948">
        <ele>64</ele>
        <time>2021-08-22T09:32:01.000Z</time>
      </trkpt>
      <trkpt lat="47.44044" lon="-1.49958">
        <ele>64</ele>
        <time>2021-08-22T09:32:03.000Z</time>
      </trkpt>
      <trkpt lat="47.44054" lon="-1.49969">
        <ele>64</ele>
        <time>2021-08-22T09:32:05.000Z</time>
      </trkpt>
      <trkpt lat="47.44066" lon="-1.49979">
        <ele>64</ele>
        <time>2021-08-22T09:32:07.000Z</time>
      </trkpt>
      <trkpt lat="47.44077" lon="-1.49988">
        <ele>65</ele>
        <time>2021-08-22T09:32:09.000Z</time>
      </trkpt>
      <trkpt lat="47.44088" lon="-1.49996">
        <ele>66</ele>
        <time>2021-08-22T09:32:11.000Z</time>
      </trkpt>
      <trkpt lat="47.44099" lon="-1.49999">
        <ele>65</ele>
        <time>2021-08-22T09:32:13.000Z</time>
      </trkpt>
      <trkpt lat="47.44112" lon="-1.50001">
        <ele>64</ele>
        <time>2021-08-22T09:32:15.000Z</time>
      </trkpt>
      <trkpt lat="47.44124" lon="-1.50005">
        <ele>64</ele>
        <time>2021-08-22T09:32:17.000Z</time>
      </trkpt>
      <trkpt lat="47.44137" lon="-1.50009">
        <ele>64</ele>
        <time>2021-08-22T09:32:19.000Z</time>
      </trkpt>
      <trkpt lat="47.4415" lon="-1.50013">
        <ele>64</ele>
        <time>2021-08-22T09:32:21.000Z</time>
      </trkpt>
      <trkpt lat="47.44163" lon="-1.50016">
        <ele>65</ele>
        <time>2021-08-22T09:32:23.000Z</time>
      </trkpt>
      <trkpt lat="47.44176" lon="-1.50015">
        <ele>65</ele>
        <time>2021-08-22T09:32:25.000Z</time>
      </trkpt>
      <trkpt lat="47.4419" lon="-1.50014">
        <ele>64</ele>
        <time>2021-08-22T09:32:27.000Z</time>
      </trkpt>
      <trkpt lat="47.44204" lon="-1.50015">
        <ele>63</ele>
        <time>2021-08-22T09:32:29.000Z</time>
      </trkpt>
      <trkpt lat="47.44217" lon="-1.50016">
        <ele>63</ele>
        <time>2021-08-22T09:32:31.000Z</time>
      </trkpt>
      <trkpt lat="47.4423" lon="-1.50017">
        <ele>63</ele>
        <time>2021-08-22T09:32:33.000Z</time>
      </trkpt>
      <trkpt lat="47.44242" lon="-1.50018">
        <ele>64</ele>
        <time>2021-08-22T09:32:35.000Z</time>
      </trkpt>
      <trkpt lat="47.44255" lon="-1.50017">
        <ele>63</ele>
        <time>2021-08-22T09:32:37.000Z</time>
      </trkpt>
      <trkpt lat="47.44267" lon="-1.50017">
        <ele>63</ele>
        <time>2021-08-22T09:32:39.000Z</time>
      </trkpt>
      <trkpt lat="47.44278" lon="-1.50017">
        <ele>64</ele>
        <time>2021-08-22T09:32:41.000Z</time>
      </trkpt>
      <trkpt lat="47.4429" lon="-1.50015">
        <ele>64</ele>
        <time>2021-08-22T09:32:43.000Z</time>
      </trkpt>
      <trkpt lat="47.44303" lon="-1.50015">
        <ele>64</ele>
        <time>2021-08-22T09:32:45.000Z</time>
      </trkpt>
      <trkpt lat="47.44315" lon="-1.50015">
        <ele>65</ele>
        <time>2021-08-22T09:32:47.000Z</time>
      </trkpt>
      <trkpt lat="47.44327" lon="-1.50017">
        <ele>65</ele>
        <time>2021-08-22T09:32:49.000Z</time>
      </trkpt>
      <trkpt lat="47.44339" lon="-1.50018">
        <ele>65</ele>
        <time>2021-08-22T09:32:51.000Z</time>
      </trkpt>
      <trkpt lat="47.44352" lon="-1.50018">
        <ele>65</ele>
        <time>2021-08-22T09:32:53.000Z</time>
      </trkpt>
      <trkpt lat="47.44364" lon="-1.50017">
        <ele>65</ele>
        <time>2021-08-22T09:32:55.000Z</time>
      </trkpt>
      <trkpt lat="47.44376" lon="-1.50017">
        <ele>65</ele>
        <time>2021-08-22T09:32:57.000Z</time>
      </trkpt>
      <trkpt lat="47.44387" lon="-1.50016">
        <ele>65</ele>
        <time>2021-08-22T09:32:59.000Z</time>
      </trkpt>
      <trkpt lat="47.44399" lon="-1.50014">
        <ele>65</ele>
        <time>2021-08-22T09:33:01.000Z</time>
      </trkpt>
      <trkpt lat="47.44411" lon="-1.50012">
        <ele>65</ele>
        <time>2021-08-22T09:33:03.000Z</time>
      </trkpt>
      <trkpt lat="47.44423" lon="-1.50009">
        <ele>65</ele>
        <time>2021-08-22T09:33:05.000Z</time>
      </trkpt>
      <trkpt lat="47.44435" lon="-1.50005">
        <ele>65</ele>
        <time>2021-08-22T09:33:07.000Z</time>
      </trkpt>
      <trkpt lat="47.44446" lon="-1.50001">
        <ele>65</ele>
        <time>2021-08-22T09:33:09.000Z</time>
      </trkpt>
      <trkpt lat="47.44458" lon="-1.49996">
        <ele>65</ele>
        <time>2021-08-22T09:33:11.000Z</time>
      </trkpt>
      <trkpt lat="47.44469" lon="-1.49992">
        <ele>65</ele>
        <time>2021-08-22T09:33:13.000Z</time>
      </trkpt>
      <trkpt lat="47.44481" lon="-1.49988">
        <ele>65</ele>
        <time>2021-08-22T09:33:15.000Z</time>
      </trkpt>
      <trkpt lat="47.44493" lon="-1.49983">
        <ele>65</ele>
        <time>2021-08-22T09:33:17.000Z</time>
      </trkpt>
      <trkpt lat="47.44504" lon="-1.49979">
        <ele>66</ele>
        <time>2021-08-22T09:33:19.000Z</time>
      </trkpt>
      <trkpt lat="47.44515" lon="-1.49973">
        <ele>66</ele>
        <time>2021-08-22T09:33:21.000Z</time>
      </trkpt>
      <trkpt lat="47.44526" lon="-1.49967">
        <ele>66</ele>
        <time>2021-08-22T09:33:23.000Z</time>
      </trkpt>
      <trkpt lat="47.44536" lon="-1.4996">
        <ele>66</ele>
        <time>2021-08-22T09:33:25.000Z</time>
      </trkpt>
      <trkpt lat="47.44547" lon="-1.49952">
        <ele>67</ele>
        <time>2021-08-22T09:33:27.000Z</time>
      </trkpt>
      <trkpt lat="47.44557" lon="-1.49943">
        <ele>66</ele>
        <time>2021-08-22T09:33:29.000Z</time>
      </trkpt>
      <trkpt lat="47.44568" lon="-1.49935">
        <ele>67</ele>
        <time>2021-08-22T09:33:31.000Z</time>
      </trkpt>
      <trkpt lat="47.44578" lon="-1.49927">
        <ele>67</ele>
        <time>2021-08-22T09:33:33.000Z</time>
      </trkpt>
      <trkpt lat="47.44588" lon="-1.49919">
        <ele>67</ele>
        <time>2021-08-22T09:33:35.000Z</time>
      </trkpt>
      <trkpt lat="47.44598" lon="-1.49911">
        <ele>67</ele>
        <time>2021-08-22T09:33:37.000Z</time>
      </trkpt>
      <trkpt lat="47.44609" lon="-1.49903">
        <ele>68</ele>
        <time>2021-08-22T09:33:39.000Z</time>
      </trkpt>
      <trkpt lat="47.44619" lon="-1.49895">
        <ele>68</ele>
        <time>2021-08-22T09:33:41.000Z</time>
      </trkpt>
      <trkpt lat="47.4463" lon="-1.49887">
        <ele>68</ele>
        <time>2021-08-22T09:33:43.000Z</time>
      </trkpt>
      <trkpt lat="47.44639" lon="-1.4988">
        <ele>69</ele>
        <time>2021-08-22T09:33:45.000Z</time>
      </trkpt>
      <trkpt lat="47.44648" lon="-1.49873">
        <ele>69</ele>
        <time>2021-08-22T09:33:47.000Z</time>
      </trkpt>
      <trkpt lat="47.44658" lon="-1.49866">
        <ele>70</ele>
        <time>2021-08-22T09:33:49.000Z</time>
      </trkpt>
      <trkpt lat="47.44668" lon="-1.49858">
        <ele>71</ele>
        <time>2021-08-22T09:33:51.000Z</time>
      </trkpt>
      <trkpt lat="47.44679" lon="-1.49852">
        <ele>71</ele>
        <time>2021-08-22T09:33:53.000Z</time>
      </trkpt>
      <trkpt lat="47.4469" lon="-1.49846">
        <ele>71</ele>
        <time>2021-08-22T09:33:55.000Z</time>
      </trkpt>
      <trkpt lat="47.44701" lon="-1.4984">
        <ele>72</ele>
        <time>2021-08-22T09:33:57.000Z</time>
      </trkpt>
      <trkpt lat="47.44712" lon="-1.49835">
        <ele>72</ele>
        <time>2021-08-22T09:33:59.000Z</time>
      </trkpt>
      <trkpt lat="47.44724" lon="-1.49829">
        <ele>72</ele>
        <time>2021-08-22T09:34:01.000Z</time>
      </trkpt>
      <trkpt lat="47.44734" lon="-1.49824">
        <ele>72</ele>
        <time>2021-08-22T09:34:03.000Z</time>
      </trkpt>
      <trkpt lat="47.44745" lon="-1.49819">
        <ele>72</ele>
        <time>2021-08-22T09:34:05.000Z</time>
      </trkpt>
      <trkpt lat="47.44755" lon="-1.49813">
        <ele>72</ele>
        <time>2021-08-22T09:34:07.000Z</time>
      </trkpt>
      <trkpt lat="47.44766" lon="-1.49807">
        <ele>72</ele>
        <time>2021-08-22T09:34:09.000Z</time>
      </trkpt>
      <trkpt lat="47.44778" lon="-1.49802">
        <ele>72</ele>
        <time>2021-08-22T09:34:11.000Z</time>
      </trkpt>
      <trkpt lat="47.44788" lon="-1.49797">
        <ele>73</ele>
        <time>2021-08-22T09:34:13.000Z</time>
      </trkpt>
      <trkpt lat="47.44799" lon="-1.49791">
        <ele>73</ele>
        <time>2021-08-22T09:34:15.000Z</time>
      </trkpt>
      <trkpt lat="47.44809" lon="-1.49786">
        <ele>73</ele>
        <time>2021-08-22T09:34:17.000Z</time>
      </trkpt>
      <trkpt lat="47.4482" lon="-1.49781">
        <ele>74</ele>
        <time>2021-08-22T09:34:19.000Z</time>
      </trkpt>
      <trkpt lat="47.44831" lon="-1.49776">
        <ele>74</ele>
        <time>2021-08-22T09:34:21.000Z</time>
      </trkpt>
      <trkpt lat="47.44841" lon="-1.4977">
        <ele>74</ele>
        <time>2021-08-22T09:34:23.000Z</time>
      </trkpt>
      <trkpt lat="47.44851" lon="-1.49764">
        <ele>74</ele>
        <time>2021-08-22T09:34:25.000Z</time>
      </trkpt>
      <trkpt lat="47.44863" lon="-1.49759">
        <ele>74</ele>
        <time>2021-08-22T09:34:27.000Z</time>
      </trkpt>
      <trkpt lat="47.44873" lon="-1.49754">
        <ele>75</ele>
        <time>2021-08-22T09:34:29.000Z</time>
      </trkpt>
      <trkpt lat="47.44884" lon="-1.49748">
        <ele>75</ele>
        <time>2021-08-22T09:34:31.000Z</time>
      </trkpt>
      <trkpt lat="47.44894" lon="-1.49742">
        <ele>75</ele>
        <time>2021-08-22T09:34:33.000Z</time>
      </trkpt>
      <trkpt lat="47.44904" lon="-1.49735">
        <ele>75</ele>
        <time>2021-08-22T09:34:35.000Z</time>
      </trkpt>
      <trkpt lat="47.44914" lon="-1.49729">
        <ele>76</ele>
        <time>2021-08-22T09:34:37.000Z</time>
      </trkpt>
      <trkpt lat="47.44924" lon="-1.49722">
        <ele>76</ele>
        <time>2021-08-22T09:34:39.000Z</time>
      </trkpt>
      <trkpt lat="47.44934" lon="-1.49715">
        <ele>77</ele>
        <time>2021-08-22T09:34:41.000Z</time>
      </trkpt>
      <trkpt lat="47.44944" lon="-1.49707">
        <ele>77</ele>
        <time>2021-08-22T09:34:43.000Z</time>
      </trkpt>
      <trkpt lat="47.44954" lon="-1.49698">
        <ele>77</ele>
        <time>2021-08-22T09:34:45.000Z</time>
      </trkpt>
      <trkpt lat="47.44965" lon="-1.49688">
        <ele>77</ele>
        <time>2021-08-22T09:34:47.000Z</time>
      </trkpt>
      <trkpt lat="47.44976" lon="-1.4968">
        <ele>76</ele>
        <time>2021-08-22T09:34:49.000Z</time>
      </trkpt>
      <trkpt lat="47.44986" lon="-1.49671">
        <ele>76</ele>
        <time>2021-08-22T09:34:51.000Z</time>
      </trkpt>
      <trkpt lat="47.44996" lon="-1.49663">
        <ele>76</ele>
        <time>2021-08-22T09:34:53.000Z</time>
      </trkpt>
      <trkpt lat="47.45006" lon="-1.49654">
        <ele>76</ele>
        <time>2021-08-22T09:34:55.000Z</time>
      </trkpt>
      <trkpt lat="47.45016" lon="-1.49646">
        <ele>76</ele>
        <time>2021-08-22T09:34:57.000Z</time>
      </trkpt>
      <trkpt lat="47.45027" lon="-1.49639">
        <ele>76</ele>
        <time>2021-08-22T09:34:59.000Z</time>
      </trkpt>
      <trkpt lat="47.45038" lon="-1.49631">
        <ele>75</ele>
        <time>2021-08-22T09:35:01.000Z</time>
      </trkpt>
      <trkpt lat="47.4505" lon="-1.49625">
        <ele>75</ele>
        <time>2021-08-22T09:35:03.000Z</time>
      </trkpt>
      <trkpt lat="47.45062" lon="-1.49623">
        <ele>76</ele>
        <time>2021-08-22T09:35:05.000Z</time>
      </trkpt>
      <trkpt lat="47.45075" lon="-1.49622">
        <ele>76</ele>
        <time>2021-08-22T09:35:07.000Z</time>
      </trkpt>
      <trkpt lat="47.45088" lon="-1.49622">
        <ele>76</ele>
        <time>2021-08-22T09:35:09.000Z</time>
      </trkpt>
      <trkpt lat="47.45101" lon="-1.49624">
        <ele>75</ele>
        <time>2021-08-22T09:35:11.000Z</time>
      </trkpt>
      <trkpt lat="47.45115" lon="-1.49627">
        <ele>75</ele>
        <time>2021-08-22T09:35:13.000Z</time>
      </trkpt>
      <trkpt lat="47.45128" lon="-1.49629">
        <ele>75</ele>
        <time>2021-08-22T09:35:15.000Z</time>
      </trkpt>
      <trkpt lat="47.45142" lon="-1.49631">
        <ele>75</ele>
        <time>2021-08-22T09:35:17.000Z</time>
      </trkpt>
      <trkpt lat="47.45156" lon="-1.49629">
        <ele>75</ele>
        <time>2021-08-22T09:35:19.000Z</time>
      </trkpt>
      <trkpt lat="47.45171" lon="-1.49629">
        <ele>75</ele>
        <time>2021-08-22T09:35:21.000Z</time>
      </trkpt>
      <trkpt lat="47.45184" lon="-1.49627">
        <ele>75</ele>
        <time>2021-08-22T09:35:23.000Z</time>
      </trkpt>
      <trkpt lat="47.45197" lon="-1.49623">
        <ele>76</ele>
        <time>2021-08-22T09:35:25.000Z</time>
      </trkpt>
      <trkpt lat="47.45211" lon="-1.49618">
        <ele>75</ele>
        <time>2021-08-22T09:35:27.000Z</time>
      </trkpt>
      <trkpt lat="47.45224" lon="-1.49612">
        <ele>75</ele>
        <time>2021-08-22T09:35:29.000Z</time>
      </trkpt>
      <trkpt lat="47.45237" lon="-1.49604">
        <ele>75</ele>
        <time>2021-08-22T09:35:31.000Z</time>
      </trkpt>
      <trkpt lat="47.4525" lon="-1.49596">
        <ele>75</ele>
        <time>2021-08-22T09:35:33.000Z</time>
      </trkpt>
      <trkpt lat="47.45261" lon="-1.49587">
        <ele>75</ele>
        <time>2021-08-22T09:35:35.000Z</time>
      </trkpt>
      <trkpt lat="47.45272" lon="-1.49576">
        <ele>76</ele>
        <time>2021-08-22T09:35:37.000Z</time>
      </trkpt>
      <trkpt lat="47.45284" lon="-1.49566">
        <ele>75</ele>
        <time>2021-08-22T09:35:39.000Z</time>
      </trkpt>
      <trkpt lat="47.45297" lon="-1.49559">
        <ele>76</ele>
        <time>2021-08-22T09:35:41.000Z</time>
      </trkpt>
      <trkpt lat="47.4531" lon="-1.49552">
        <ele>76</ele>
        <time>2021-08-22T09:35:43.000Z</time>
      </trkpt>
      <trkpt lat="47.45323" lon="-1.49544">
        <ele>76</ele>
        <time>2021-08-22T09:35:45.000Z</time>
      </trkpt>
      <trkpt lat="47.45335" lon="-1.49539">
        <ele>76</ele>
        <time>2021-08-22T09:35:47.000Z</time>
      </trkpt>
      <trkpt lat="47.45347" lon="-1.49536">
        <ele>76</ele>
        <time>2021-08-22T09:35:49.000Z</time>
      </trkpt>
      <trkpt lat="47.4536" lon="-1.49532">
        <ele>77</ele>
        <time>2021-08-22T09:35:51.000Z</time>
      </trkpt>
      <trkpt lat="47.45371" lon="-1.49529">
        <ele>77</ele>
        <time>2021-08-22T09:35:53.000Z</time>
      </trkpt>
      <trkpt lat="47.45383" lon="-1.49526">
        <ele>78</ele>
        <time>2021-08-22T09:35:55.000Z</time>
      </trkpt>
      <trkpt lat="47.45395" lon="-1.49523">
        <ele>78</ele>
        <time>2021-08-22T09:35:57.000Z</time>
      </trkpt>
      <trkpt lat="47.45408" lon="-1.49518">
        <ele>77</ele>
        <time>2021-08-22T09:35:59.000Z</time>
      </trkpt>
      <trkpt lat="47.4542" lon="-1.49513">
        <ele>76</ele>
        <time>2021-08-22T09:36:01.000Z</time>
      </trkpt>
      <trkpt lat="47.4543" lon="-1.49506">
        <ele>75</ele>
        <time>2021-08-22T09:36:03.000Z</time>
      </trkpt>
      <trkpt lat="47.45438" lon="-1.49499">
        <ele>74</ele>
        <time>2021-08-22T09:36:05.000Z</time>
      </trkpt>
      <trkpt lat="47.45451" lon="-1.49504">
        <ele>74</ele>
        <time>2021-08-22T09:36:08.000Z</time>
      </trkpt>
      <trkpt lat="47.45463" lon="-1.495">
        <ele>75</ele>
        <time>2021-08-22T09:36:10.000Z</time>
      </trkpt>
      <trkpt lat="47.45474" lon="-1.49495">
        <ele>75</ele>
        <time>2021-08-22T09:36:12.000Z</time>
      </trkpt>
      <trkpt lat="47.45486" lon="-1.49491">
        <ele>75</ele>
        <time>2021-08-22T09:36:14.000Z</time>
      </trkpt>
      <trkpt lat="47.45498" lon="-1.49487">
        <ele>74</ele>
        <time>2021-08-22T09:36:16.000Z</time>
      </trkpt>
      <trkpt lat="47.4551" lon="-1.49484">
        <ele>74</ele>
        <time>2021-08-22T09:36:18.000Z</time>
      </trkpt>
      <trkpt lat="47.45521" lon="-1.49481">
        <ele>74</ele>
        <time>2021-08-22T09:36:20.000Z</time>
      </trkpt>
      <trkpt lat="47.45533" lon="-1.49477">
        <ele>74</ele>
        <time>2021-08-22T09:36:22.000Z</time>
      </trkpt>
      <trkpt lat="47.45545" lon="-1.49472">
        <ele>74</ele>
        <time>2021-08-22T09:36:24.000Z</time>
      </trkpt>
      <trkpt lat="47.45556" lon="-1.49469">
        <ele>74</ele>
        <time>2021-08-22T09:36:26.000Z</time>
      </trkpt>
      <trkpt lat="47.45568" lon="-1.49465">
        <ele>74</ele>
        <time>2021-08-22T09:36:28.000Z</time>
      </trkpt>
      <trkpt lat="47.45579" lon="-1.49461">
        <ele>74</ele>
        <time>2021-08-22T09:36:30.000Z</time>
      </trkpt>
      <trkpt lat="47.45591" lon="-1.49458">
        <ele>75</ele>
        <time>2021-08-22T09:36:32.000Z</time>
      </trkpt>
      <trkpt lat="47.45603" lon="-1.49453">
        <ele>75</ele>
        <time>2021-08-22T09:36:34.000Z</time>
      </trkpt>
      <trkpt lat="47.45615" lon="-1.49447">
        <ele>75</ele>
        <time>2021-08-22T09:36:36.000Z</time>
      </trkpt>
      <trkpt lat="47.45627" lon="-1.49444">
        <ele>75</ele>
        <time>2021-08-22T09:36:38.000Z</time>
      </trkpt>
      <trkpt lat="47.45639" lon="-1.4944">
        <ele>75</ele>
        <time>2021-08-22T09:36:40.000Z</time>
      </trkpt>
      <trkpt lat="47.45651" lon="-1.49435">
        <ele>76</ele>
        <time>2021-08-22T09:36:42.000Z</time>
      </trkpt>
      <trkpt lat="47.45662" lon="-1.4943">
        <ele>77</ele>
        <time>2021-08-22T09:36:44.000Z</time>
      </trkpt>
      <trkpt lat="47.45673" lon="-1.49427">
        <ele>77</ele>
        <time>2021-08-22T09:36:46.000Z</time>
      </trkpt>
      <trkpt lat="47.45685" lon="-1.49424">
        <ele>77</ele>
        <time>2021-08-22T09:36:48.000Z</time>
      </trkpt>
      <trkpt lat="47.45698" lon="-1.49422">
        <ele>77</ele>
        <time>2021-08-22T09:36:50.000Z</time>
      </trkpt>
      <trkpt lat="47.4571" lon="-1.49422">
        <ele>77</ele>
        <time>2021-08-22T09:36:52.000Z</time>
      </trkpt>
      <trkpt lat="47.45721" lon="-1.49422">
        <ele>78</ele>
        <time>2021-08-22T09:36:54.000Z</time>
      </trkpt>
      <trkpt lat="47.45733" lon="-1.49421">
        <ele>78</ele>
        <time>2021-08-22T09:36:56.000Z</time>
      </trkpt>
      <trkpt lat="47.45746" lon="-1.49419">
        <ele>78</ele>
        <time>2021-08-22T09:36:58.000Z</time>
      </trkpt>
      <trkpt lat="47.45758" lon="-1.49419">
        <ele>78</ele>
        <time>2021-08-22T09:37:00.000Z</time>
      </trkpt>
      <trkpt lat="47.45769" lon="-1.49419">
        <ele>79</ele>
        <time>2021-08-22T09:37:02.000Z</time>
      </trkpt>
      <trkpt lat="47.45781" lon="-1.49419">
        <ele>79</ele>
        <time>2021-08-22T09:37:04.000Z</time>
      </trkpt>
      <trkpt lat="47.45792" lon="-1.49418">
        <ele>79</ele>
        <time>2021-08-22T09:37:06.000Z</time>
      </trkpt>
      <trkpt lat="47.45804" lon="-1.49419">
        <ele>79</ele>
        <time>2021-08-22T09:37:08.000Z</time>
      </trkpt>
      <trkpt lat="47.45816" lon="-1.49418">
        <ele>79</ele>
        <time>2021-08-22T09:37:10.000Z</time>
      </trkpt>
      <trkpt lat="47.45827" lon="-1.49416">
        <ele>80</ele>
        <time>2021-08-22T09:37:12.000Z</time>
      </trkpt>
      <trkpt lat="47.45838" lon="-1.49414">
        <ele>79</ele>
        <time>2021-08-22T09:37:14.000Z</time>
      </trkpt>
      <trkpt lat="47.45848" lon="-1.49411">
        <ele>80</ele>
        <time>2021-08-22T09:37:16.000Z</time>
      </trkpt>
      <trkpt lat="47.4586" lon="-1.49407">
        <ele>80</ele>
        <time>2021-08-22T09:37:18.000Z</time>
      </trkpt>
      <trkpt lat="47.45871" lon="-1.49403">
        <ele>79</ele>
        <time>2021-08-22T09:37:20.000Z</time>
      </trkpt>
      <trkpt lat="47.45881" lon="-1.494">
        <ele>80</ele>
        <time>2021-08-22T09:37:22.000Z</time>
      </trkpt>
      <trkpt lat="47.45893" lon="-1.49395">
        <ele>80</ele>
        <time>2021-08-22T09:37:24.000Z</time>
      </trkpt>
      <trkpt lat="47.45904" lon="-1.4939">
        <ele>80</ele>
        <time>2021-08-22T09:37:26.000Z</time>
      </trkpt>
      <trkpt lat="47.45917" lon="-1.49386">
        <ele>80</ele>
        <time>2021-08-22T09:37:28.000Z</time>
      </trkpt>
      <trkpt lat="47.45929" lon="-1.49381">
        <ele>79</ele>
        <time>2021-08-22T09:37:30.000Z</time>
      </trkpt>
      <trkpt lat="47.45942" lon="-1.49376">
        <ele>79</ele>
        <time>2021-08-22T09:37:32.000Z</time>
      </trkpt>
      <trkpt lat="47.45954" lon="-1.49372">
        <ele>79</ele>
        <time>2021-08-22T09:37:34.000Z</time>
      </trkpt>
      <trkpt lat="47.45967" lon="-1.49368">
        <ele>79</ele>
        <time>2021-08-22T09:37:36.000Z</time>
      </trkpt>
      <trkpt lat="47.45979" lon="-1.49363">
        <ele>78</ele>
        <time>2021-08-22T09:37:38.000Z</time>
      </trkpt>
      <trkpt lat="47.45992" lon="-1.49358">
        <ele>78</ele>
        <time>2021-08-22T09:37:40.000Z</time>
      </trkpt>
      <trkpt lat="47.46004" lon="-1.49354">
        <ele>78</ele>
        <time>2021-08-22T09:37:42.000Z</time>
      </trkpt>
      <trkpt lat="47.46016" lon="-1.49348">
        <ele>77</ele>
        <time>2021-08-22T09:37:44.000Z</time>
      </trkpt>
      <trkpt lat="47.46029" lon="-1.49343">
        <ele>77</ele>
        <time>2021-08-22T09:37:46.000Z</time>
      </trkpt>
      <trkpt lat="47.46041" lon="-1.49338">
        <ele>77</ele>
        <time>2021-08-22T09:37:48.000Z</time>
      </trkpt>
      <trkpt lat="47.46053" lon="-1.49331">
        <ele>78</ele>
        <time>2021-08-22T09:37:50.000Z</time>
      </trkpt>
      <trkpt lat="47.46066" lon="-1.49325">
        <ele>78</ele>
        <time>2021-08-22T09:37:52.000Z</time>
      </trkpt>
      <trkpt lat="47.46077" lon="-1.49319">
        <ele>77</ele>
        <time>2021-08-22T09:37:54.000Z</time>
      </trkpt>
      <trkpt lat="47.46089" lon="-1.49314">
        <ele>77</ele>
        <time>2021-08-22T09:37:56.000Z</time>
      </trkpt>
      <trkpt lat="47.46101" lon="-1.49308">
        <ele>78</ele>
        <time>2021-08-22T09:37:58.000Z</time>
      </trkpt>
      <trkpt lat="47.46112" lon="-1.49302">
        <ele>78</ele>
        <time>2021-08-22T09:38:00.000Z</time>
      </trkpt>
      <trkpt lat="47.46124" lon="-1.49297">
        <ele>78</ele>
        <time>2021-08-22T09:38:02.000Z</time>
      </trkpt>
      <trkpt lat="47.46135" lon="-1.49292">
        <ele>78</ele>
        <time>2021-08-22T09:38:04.000Z</time>
      </trkpt>
      <trkpt lat="47.46147" lon="-1.49285">
        <ele>78</ele>
        <time>2021-08-22T09:38:06.000Z</time>
      </trkpt>
      <trkpt lat="47.46158" lon="-1.4928">
        <ele>78</ele>
        <time>2021-08-22T09:38:08.000Z</time>
      </trkpt>
      <trkpt lat="47.4617" lon="-1.49273">
        <ele>79</ele>
        <time>2021-08-22T09:38:10.000Z</time>
      </trkpt>
      <trkpt lat="47.46181" lon="-1.49268">
        <ele>79</ele>
        <time>2021-08-22T09:38:12.000Z</time>
      </trkpt>
      <trkpt lat="47.46192" lon="-1.49263">
        <ele>79</ele>
        <time>2021-08-22T09:38:14.000Z</time>
      </trkpt>
      <trkpt lat="47.46204" lon="-1.49257">
        <ele>80</ele>
        <time>2021-08-22T09:38:16.000Z</time>
      </trkpt>
      <trkpt lat="47.46216" lon="-1.49251">
        <ele>80</ele>
        <time>2021-08-22T09:38:18.000Z</time>
      </trkpt>
      <trkpt lat="47.46228" lon="-1.49245">
        <ele>80</ele>
        <time>2021-08-22T09:38:20.000Z</time>
      </trkpt>
      <trkpt lat="47.46239" lon="-1.49239">
        <ele>80</ele>
        <time>2021-08-22T09:38:22.000Z</time>
      </trkpt>
      <trkpt lat="47.4625" lon="-1.49234">
        <ele>80</ele>
        <time>2021-08-22T09:38:24.000Z</time>
      </trkpt>
      <trkpt lat="47.46261" lon="-1.49229">
        <ele>81</ele>
        <time>2021-08-22T09:38:26.000Z</time>
      </trkpt>
      <trkpt lat="47.46273" lon="-1.49224">
        <ele>81</ele>
        <time>2021-08-22T09:38:28.000Z</time>
      </trkpt>
      <trkpt lat="47.46285" lon="-1.4922">
        <ele>81</ele>
        <time>2021-08-22T09:38:30.000Z</time>
      </trkpt>
      <trkpt lat="47.46296" lon="-1.49216">
        <ele>81</ele>
        <time>2021-08-22T09:38:32.000Z</time>
      </trkpt>
      <trkpt lat="47.46308" lon="-1.49213">
        <ele>81</ele>
        <time>2021-08-22T09:38:34.000Z</time>
      </trkpt>
      <trkpt lat="47.46319" lon="-1.4921">
        <ele>82</ele>
        <time>2021-08-22T09:38:36.000Z</time>
      </trkpt>
      <trkpt lat="47.46331" lon="-1.49206">
        <ele>82</ele>
        <time>2021-08-22T09:38:38.000Z</time>
      </trkpt>
      <trkpt lat="47.46342" lon="-1.49202">
        <ele>82</ele>
        <time>2021-08-22T09:38:40.000Z</time>
      </trkpt>
      <trkpt lat="47.46353" lon="-1.49199">
        <ele>82</ele>
        <time>2021-08-22T09:38:42.000Z</time>
      </trkpt>
      <trkpt lat="47.46365" lon="-1.49195">
        <ele>82</ele>
        <time>2021-08-22T09:38:44.000Z</time>
      </trkpt>
      <trkpt lat="47.46378" lon="-1.49192">
        <ele>82</ele>
        <time>2021-08-22T09:38:46.000Z</time>
      </trkpt>
      <trkpt lat="47.46391" lon="-1.49188">
        <ele>81</ele>
        <time>2021-08-22T09:38:48.000Z</time>
      </trkpt>
      <trkpt lat="47.46404" lon="-1.49184">
        <ele>81</ele>
        <time>2021-08-22T09:38:50.000Z</time>
      </trkpt>
      <trkpt lat="47.46418" lon="-1.4918">
        <ele>80</ele>
        <time>2021-08-22T09:38:52.000Z</time>
      </trkpt>
      <trkpt lat="47.46433" lon="-1.49175">
        <ele>79</ele>
        <time>2021-08-22T09:38:54.000Z</time>
      </trkpt>
      <trkpt lat="47.46448" lon="-1.4917">
        <ele>78</ele>
        <time>2021-08-22T09:38:56.000Z</time>
      </trkpt>
      <trkpt lat="47.46463" lon="-1.49165">
        <ele>78</ele>
        <time>2021-08-22T09:38:58.000Z</time>
      </trkpt>
      <trkpt lat="47.46481" lon="-1.49161">
        <ele>77</ele>
        <time>2021-08-22T09:39:00.000Z</time>
      </trkpt>
      <trkpt lat="47.4649" lon="-1.49158">
        <ele>76</ele>
        <time>2021-08-22T09:39:01.000Z</time>
      </trkpt>
      <trkpt lat="47.46499" lon="-1.49155">
        <ele>75</ele>
        <time>2021-08-22T09:39:02.000Z</time>
      </trkpt>
      <trkpt lat="47.46508" lon="-1.49152">
        <ele>74</ele>
        <time>2021-08-22T09:39:03.000Z</time>
      </trkpt>
      <trkpt lat="47.46517" lon="-1.49149">
        <ele>73</ele>
        <time>2021-08-22T09:39:04.000Z</time>
      </trkpt>
      <trkpt lat="47.46527" lon="-1.49146">
        <ele>73</ele>
        <time>2021-08-22T09:39:05.000Z</time>
      </trkpt>
      <trkpt lat="47.46536" lon="-1.49143">
        <ele>73</ele>
        <time>2021-08-22T09:39:06.000Z</time>
      </trkpt>
      <trkpt lat="47.46546" lon="-1.4914">
        <ele>72</ele>
        <time>2021-08-22T09:39:07.000Z</time>
      </trkpt>
      <trkpt lat="47.46555" lon="-1.49137">
        <ele>71</ele>
        <time>2021-08-22T09:39:08.000Z</time>
      </trkpt>
      <trkpt lat="47.46565" lon="-1.49134">
        <ele>70</ele>
        <time>2021-08-22T09:39:09.000Z</time>
      </trkpt>
      <trkpt lat="47.46575" lon="-1.49132">
        <ele>70</ele>
        <time>2021-08-22T09:39:10.000Z</time>
      </trkpt>
      <trkpt lat="47.46585" lon="-1.49129">
        <ele>69</ele>
        <time>2021-08-22T09:39:11.000Z</time>
      </trkpt>
      <trkpt lat="47.46594" lon="-1.49126">
        <ele>68</ele>
        <time>2021-08-22T09:39:12.000Z</time>
      </trkpt>
      <trkpt lat="47.46604" lon="-1.49123">
        <ele>68</ele>
        <time>2021-08-22T09:39:13.000Z</time>
      </trkpt>
      <trkpt lat="47.46613" lon="-1.4912">
        <ele>67</ele>
        <time>2021-08-22T09:39:14.000Z</time>
      </trkpt>
      <trkpt lat="47.46623" lon="-1.49117">
        <ele>67</ele>
        <time>2021-08-22T09:39:15.000Z</time>
      </trkpt>
      <trkpt lat="47.46632" lon="-1.49114">
        <ele>66</ele>
        <time>2021-08-22T09:39:16.000Z</time>
      </trkpt>
      <trkpt lat="47.46641" lon="-1.49111">
        <ele>66</ele>
        <time>2021-08-22T09:39:17.000Z</time>
      </trkpt>
      <trkpt lat="47.4665" lon="-1.49108">
        <ele>66</ele>
        <time>2021-08-22T09:39:18.000Z</time>
      </trkpt>
      <trkpt lat="47.46659" lon="-1.49105">
        <ele>66</ele>
        <time>2021-08-22T09:39:19.000Z</time>
      </trkpt>
      <trkpt lat="47.46677" lon="-1.49098">
        <ele>65</ele>
        <time>2021-08-22T09:39:21.000Z</time>
      </trkpt>
      <trkpt lat="47.46693" lon="-1.4909">
        <ele>65</ele>
        <time>2021-08-22T09:39:23.000Z</time>
      </trkpt>
      <trkpt lat="47.46711" lon="-1.49083">
        <ele>64</ele>
        <time>2021-08-22T09:39:25.000Z</time>
      </trkpt>
      <trkpt lat="47.46727" lon="-1.49075">
        <ele>63</ele>
        <time>2021-08-22T09:39:27.000Z</time>
      </trkpt>
      <trkpt lat="47.46744" lon="-1.49067">
        <ele>63</ele>
        <time>2021-08-22T09:39:29.000Z</time>
      </trkpt>
      <trkpt lat="47.46761" lon="-1.49059">
        <ele>63</ele>
        <time>2021-08-22T09:39:31.000Z</time>
      </trkpt>
      <trkpt lat="47.46777" lon="-1.49052">
        <ele>62</ele>
        <time>2021-08-22T09:39:33.000Z</time>
      </trkpt>
      <trkpt lat="47.46793" lon="-1.49045">
        <ele>61</ele>
        <time>2021-08-22T09:39:35.000Z</time>
      </trkpt>
      <trkpt lat="47.46809" lon="-1.49037">
        <ele>60</ele>
        <time>2021-08-22T09:39:37.000Z</time>
      </trkpt>
      <trkpt lat="47.46825" lon="-1.4903">
        <ele>60</ele>
        <time>2021-08-22T09:39:39.000Z</time>
      </trkpt>
      <trkpt lat="47.4684" lon="-1.49023">
        <ele>60</ele>
        <time>2021-08-22T09:39:41.000Z</time>
      </trkpt>
      <trkpt lat="47.46856" lon="-1.49016">
        <ele>59</ele>
        <time>2021-08-22T09:39:43.000Z</time>
      </trkpt>
      <trkpt lat="47.4687" lon="-1.49008">
        <ele>60</ele>
        <time>2021-08-22T09:39:45.000Z</time>
      </trkpt>
      <trkpt lat="47.46884" lon="-1.49001">
        <ele>60</ele>
        <time>2021-08-22T09:39:47.000Z</time>
      </trkpt>
      <trkpt lat="47.46899" lon="-1.48994">
        <ele>60</ele>
        <time>2021-08-22T09:39:49.000Z</time>
      </trkpt>
      <trkpt lat="47.46914" lon="-1.48987">
        <ele>60</ele>
        <time>2021-08-22T09:39:51.000Z</time>
      </trkpt>
      <trkpt lat="47.46929" lon="-1.4898">
        <ele>60</ele>
        <time>2021-08-22T09:39:53.000Z</time>
      </trkpt>
      <trkpt lat="47.46943" lon="-1.48974">
        <ele>60</ele>
        <time>2021-08-22T09:39:55.000Z</time>
      </trkpt>
      <trkpt lat="47.46957" lon="-1.48968">
        <ele>60</ele>
        <time>2021-08-22T09:39:57.000Z</time>
      </trkpt>
      <trkpt lat="47.46971" lon="-1.48961">
        <ele>61</ele>
        <time>2021-08-22T09:39:59.000Z</time>
      </trkpt>
      <trkpt lat="47.46984" lon="-1.48955">
        <ele>61</ele>
        <time>2021-08-22T09:40:01.000Z</time>
      </trkpt>
      <trkpt lat="47.46997" lon="-1.48949">
        <ele>62</ele>
        <time>2021-08-22T09:40:03.000Z</time>
      </trkpt>
      <trkpt lat="47.4701" lon="-1.48942">
        <ele>63</ele>
        <time>2021-08-22T09:40:05.000Z</time>
      </trkpt>
      <trkpt lat="47.47021" lon="-1.48934">
        <ele>64</ele>
        <time>2021-08-22T09:40:07.000Z</time>
      </trkpt>
      <trkpt lat="47.47032" lon="-1.48924">
        <ele>65</ele>
        <time>2021-08-22T09:40:09.000Z</time>
      </trkpt>
      <trkpt lat="47.47042" lon="-1.48913">
        <ele>65</ele>
        <time>2021-08-22T09:40:11.000Z</time>
      </trkpt>
      <trkpt lat="47.47054" lon="-1.48901">
        <ele>64</ele>
        <time>2021-08-22T09:40:13.000Z</time>
      </trkpt>
      <trkpt lat="47.47065" lon="-1.4889">
        <ele>65</ele>
        <time>2021-08-22T09:40:15.000Z</time>
      </trkpt>
      <trkpt lat="47.47075" lon="-1.48878">
        <ele>65</ele>
        <time>2021-08-22T09:40:17.000Z</time>
      </trkpt>
      <trkpt lat="47.47085" lon="-1.48865">
        <ele>65</ele>
        <time>2021-08-22T09:40:19.000Z</time>
      </trkpt>
      <trkpt lat="47.47096" lon="-1.48853">
        <ele>64</ele>
        <time>2021-08-22T09:40:21.000Z</time>
      </trkpt>
      <trkpt lat="47.47106" lon="-1.48841">
        <ele>64</ele>
        <time>2021-08-22T09:40:23.000Z</time>
      </trkpt>
      <trkpt lat="47.47118" lon="-1.48828">
        <ele>65</ele>
        <time>2021-08-22T09:40:25.000Z</time>
      </trkpt>
      <trkpt lat="47.47128" lon="-1.48815">
        <ele>64</ele>
        <time>2021-08-22T09:40:27.000Z</time>
      </trkpt>
      <trkpt lat="47.47139" lon="-1.48803">
        <ele>64</ele>
        <time>2021-08-22T09:40:29.000Z</time>
      </trkpt>
      <trkpt lat="47.4715" lon="-1.48791">
        <ele>63</ele>
        <time>2021-08-22T09:40:31.000Z</time>
      </trkpt>
      <trkpt lat="47.47162" lon="-1.4878">
        <ele>63</ele>
        <time>2021-08-22T09:40:33.000Z</time>
      </trkpt>
      <trkpt lat="47.47174" lon="-1.4877">
        <ele>62</ele>
        <time>2021-08-22T09:40:35.000Z</time>
      </trkpt>
      <trkpt lat="47.47187" lon="-1.48763">
        <ele>62</ele>
        <time>2021-08-22T09:40:37.000Z</time>
      </trkpt>
      <trkpt lat="47.472" lon="-1.48758">
        <ele>63</ele>
        <time>2021-08-22T09:40:39.000Z</time>
      </trkpt>
      <trkpt lat="47.47212" lon="-1.48755">
        <ele>63</ele>
        <time>2021-08-22T09:40:41.000Z</time>
      </trkpt>
      <trkpt lat="47.47227" lon="-1.48755">
        <ele>63</ele>
        <time>2021-08-22T09:40:43.000Z</time>
      </trkpt>
      <trkpt lat="47.47241" lon="-1.48755">
        <ele>63</ele>
        <time>2021-08-22T09:40:45.000Z</time>
      </trkpt>
      <trkpt lat="47.47254" lon="-1.48753">
        <ele>63</ele>
        <time>2021-08-22T09:40:47.000Z</time>
      </trkpt>
      <trkpt lat="47.47268" lon="-1.48749">
        <ele>62</ele>
        <time>2021-08-22T09:40:49.000Z</time>
      </trkpt>
      <trkpt lat="47.4728" lon="-1.48744">
        <ele>62</ele>
        <time>2021-08-22T09:40:51.000Z</time>
      </trkpt>
      <trkpt lat="47.47292" lon="-1.48737">
        <ele>62</ele>
        <time>2021-08-22T09:40:53.000Z</time>
      </trkpt>
      <trkpt lat="47.47304" lon="-1.48729">
        <ele>63</ele>
        <time>2021-08-22T09:40:55.000Z</time>
      </trkpt>
      <trkpt lat="47.47316" lon="-1.48719">
        <ele>63</ele>
        <time>2021-08-22T09:40:57.000Z</time>
      </trkpt>
      <trkpt lat="47.47327" lon="-1.4871">
        <ele>64</ele>
        <time>2021-08-22T09:40:59.000Z</time>
      </trkpt>
      <trkpt lat="47.47338" lon="-1.48701">
        <ele>64</ele>
        <time>2021-08-22T09:41:01.000Z</time>
      </trkpt>
      <trkpt lat="47.47349" lon="-1.48692">
        <ele>64</ele>
        <time>2021-08-22T09:41:03.000Z</time>
      </trkpt>
      <trkpt lat="47.4736" lon="-1.48683">
        <ele>64</ele>
        <time>2021-08-22T09:41:05.000Z</time>
      </trkpt>
      <trkpt lat="47.4737" lon="-1.48673">
        <ele>64</ele>
        <time>2021-08-22T09:41:07.000Z</time>
      </trkpt>
      <trkpt lat="47.4738" lon="-1.48665">
        <ele>65</ele>
        <time>2021-08-22T09:41:09.000Z</time>
      </trkpt>
      <trkpt lat="47.4739" lon="-1.48657">
        <ele>65</ele>
        <time>2021-08-22T09:41:11.000Z</time>
      </trkpt>
      <trkpt lat="47.47399" lon="-1.48648">
        <ele>65</ele>
        <time>2021-08-22T09:41:13.000Z</time>
      </trkpt>
      <trkpt lat="47.47409" lon="-1.48639">
        <ele>66</ele>
        <time>2021-08-22T09:41:15.000Z</time>
      </trkpt>
      <trkpt lat="47.47419" lon="-1.48631">
        <ele>66</ele>
        <time>2021-08-22T09:41:17.000Z</time>
      </trkpt>
      <trkpt lat="47.47428" lon="-1.48622">
        <ele>67</ele>
        <time>2021-08-22T09:41:19.000Z</time>
      </trkpt>
      <trkpt lat="47.47437" lon="-1.48614">
        <ele>68</ele>
        <time>2021-08-22T09:41:21.000Z</time>
      </trkpt>
      <trkpt lat="47.47446" lon="-1.48606">
        <ele>68</ele>
        <time>2021-08-22T09:41:23.000Z</time>
      </trkpt>
      <trkpt lat="47.47456" lon="-1.48598">
        <ele>69</ele>
        <time>2021-08-22T09:41:25.000Z</time>
      </trkpt>
      <trkpt lat="47.47465" lon="-1.4859">
        <ele>69</ele>
        <time>2021-08-22T09:41:27.000Z</time>
      </trkpt>
      <trkpt lat="47.47474" lon="-1.48583">
        <ele>70</ele>
        <time>2021-08-22T09:41:29.000Z</time>
      </trkpt>
      <trkpt lat="47.47482" lon="-1.48575">
        <ele>71</ele>
        <time>2021-08-22T09:41:31.000Z</time>
      </trkpt>
      <trkpt lat="47.47491" lon="-1.48567">
        <ele>71</ele>
        <time>2021-08-22T09:41:33.000Z</time>
      </trkpt>
      <trkpt lat="47.475" lon="-1.48559">
        <ele>71</ele>
        <time>2021-08-22T09:41:35.000Z</time>
      </trkpt>
      <trkpt lat="47.47509" lon="-1.48551">
        <ele>72</ele>
        <time>2021-08-22T09:41:37.000Z</time>
      </trkpt>
      <trkpt lat="47.47518" lon="-1.48543">
        <ele>72</ele>
        <time>2021-08-22T09:41:39.000Z</time>
      </trkpt>
      <trkpt lat="47.47527" lon="-1.48534">
        <ele>73</ele>
        <time>2021-08-22T09:41:41.000Z</time>
      </trkpt>
      <trkpt lat="47.47536" lon="-1.48526">
        <ele>74</ele>
        <time>2021-08-22T09:41:43.000Z</time>
      </trkpt>
      <trkpt lat="47.47545" lon="-1.48517">
        <ele>74</ele>
        <time>2021-08-22T09:41:45.000Z</time>
      </trkpt>
      <trkpt lat="47.47553" lon="-1.48509">
        <ele>75</ele>
        <time>2021-08-22T09:41:47.000Z</time>
      </trkpt>
      <trkpt lat="47.47561" lon="-1.48502">
        <ele>76</ele>
        <time>2021-08-22T09:41:49.000Z</time>
      </trkpt>
      <trkpt lat="47.47572" lon="-1.48497">
        <ele>78</ele>
        <time>2021-08-22T09:41:51.000Z</time>
      </trkpt>
      <trkpt lat="47.47581" lon="-1.4849">
        <ele>78</ele>
        <time>2021-08-22T09:41:53.000Z</time>
      </trkpt>
      <trkpt lat="47.47591" lon="-1.48486">
        <ele>79</ele>
        <time>2021-08-22T09:41:55.000Z</time>
      </trkpt>
      <trkpt lat="47.47602" lon="-1.48483">
        <ele>79</ele>
        <time>2021-08-22T09:41:57.000Z</time>
      </trkpt>
      <trkpt lat="47.47612" lon="-1.48482">
        <ele>79</ele>
        <time>2021-08-22T09:41:59.000Z</time>
      </trkpt>
      <trkpt lat="47.47622" lon="-1.48482">
        <ele>80</ele>
        <time>2021-08-22T09:42:01.000Z</time>
      </trkpt>
      <trkpt lat="47.47632" lon="-1.48484">
        <ele>81</ele>
        <time>2021-08-22T09:42:03.000Z</time>
      </trkpt>
      <trkpt lat="47.47643" lon="-1.48486">
        <ele>81</ele>
        <time>2021-08-22T09:42:05.000Z</time>
      </trkpt>
      <trkpt lat="47.47654" lon="-1.48491">
        <ele>81</ele>
        <time>2021-08-22T09:42:07.000Z</time>
      </trkpt>
      <trkpt lat="47.47663" lon="-1.48498">
        <ele>82</ele>
        <time>2021-08-22T09:42:09.000Z</time>
      </trkpt>
      <trkpt lat="47.47672" lon="-1.48505">
        <ele>82</ele>
        <time>2021-08-22T09:42:11.000Z</time>
      </trkpt>
      <trkpt lat="47.4768" lon="-1.48514">
        <ele>82</ele>
        <time>2021-08-22T09:42:13.000Z</time>
      </trkpt>
      <trkpt lat="47.47688" lon="-1.48523">
        <ele>82</ele>
        <time>2021-08-22T09:42:15.000Z</time>
      </trkpt>
      <trkpt lat="47.47696" lon="-1.48532">
        <ele>83</ele>
        <time>2021-08-22T09:42:17.000Z</time>
      </trkpt>
      <trkpt lat="47.47703" lon="-1.48542">
        <ele>83</ele>
        <time>2021-08-22T09:42:19.000Z</time>
      </trkpt>
      <trkpt lat="47.4771" lon="-1.48551">
        <ele>83</ele>
        <time>2021-08-22T09:42:21.000Z</time>
      </trkpt>
      <trkpt lat="47.47718" lon="-1.48561">
        <ele>84</ele>
        <time>2021-08-22T09:42:23.000Z</time>
      </trkpt>
      <trkpt lat="47.47726" lon="-1.48571">
        <ele>84</ele>
        <time>2021-08-22T09:42:25.000Z</time>
      </trkpt>
      <trkpt lat="47.47734" lon="-1.48581">
        <ele>85</ele>
        <time>2021-08-22T09:42:27.000Z</time>
      </trkpt>
      <trkpt lat="47.47741" lon="-1.4859">
        <ele>86</ele>
        <time>2021-08-22T09:42:29.000Z</time>
      </trkpt>
      <trkpt lat="47.47749" lon="-1.486">
        <ele>86</ele>
        <time>2021-08-22T09:42:31.000Z</time>
      </trkpt>
      <trkpt lat="47.47756" lon="-1.4861">
        <ele>87</ele>
        <time>2021-08-22T09:42:33.000Z</time>
      </trkpt>
      <trkpt lat="47.47763" lon="-1.4862">
        <ele>87</ele>
        <time>2021-08-22T09:42:35.000Z</time>
      </trkpt>
      <trkpt lat="47.47771" lon="-1.48629">
        <ele>88</ele>
        <time>2021-08-22T09:42:37.000Z</time>
      </trkpt>
      <trkpt lat="47.47778" lon="-1.4864">
        <ele>88</ele>
        <time>2021-08-22T09:42:39.000Z</time>
      </trkpt>
      <trkpt lat="47.47785" lon="-1.4865">
        <ele>89</ele>
        <time>2021-08-22T09:42:41.000Z</time>
      </trkpt>
      <trkpt lat="47.47792" lon="-1.48659">
        <ele>89</ele>
        <time>2021-08-22T09:42:43.000Z</time>
      </trkpt>
      <trkpt lat="47.47799" lon="-1.48669">
        <ele>89</ele>
        <time>2021-08-22T09:42:45.000Z</time>
      </trkpt>
      <trkpt lat="47.47806" lon="-1.48679">
        <ele>89</ele>
        <time>2021-08-22T09:42:47.000Z</time>
      </trkpt>
      <trkpt lat="47.47814" lon="-1.48689">
        <ele>89</ele>
        <time>2021-08-22T09:42:49.000Z</time>
      </trkpt>
      <trkpt lat="47.47821" lon="-1.487">
        <ele>90</ele>
        <time>2021-08-22T09:42:51.000Z</time>
      </trkpt>
      <trkpt lat="47.47828" lon="-1.4871">
        <ele>90</ele>
        <time>2021-08-22T09:42:53.000Z</time>
      </trkpt>
      <trkpt lat="47.47836" lon="-1.4872">
        <ele>90</ele>
        <time>2021-08-22T09:42:55.000Z</time>
      </trkpt>
      <trkpt lat="47.47843" lon="-1.4873">
        <ele>91</ele>
        <time>2021-08-22T09:42:57.000Z</time>
      </trkpt>
      <trkpt lat="47.4785" lon="-1.4874">
        <ele>91</ele>
        <time>2021-08-22T09:42:59.000Z</time>
      </trkpt>
      <trkpt lat="47.47859" lon="-1.4875">
        <ele>91</ele>
        <time>2021-08-22T09:43:01.000Z</time>
      </trkpt>
      <trkpt lat="47.47867" lon="-1.48759">
        <ele>91</ele>
        <time>2021-08-22T09:43:03.000Z</time>
      </trkpt>
      <trkpt lat="47.47876" lon="-1.48768">
        <ele>92</ele>
        <time>2021-08-22T09:43:05.000Z</time>
      </trkpt>
      <trkpt lat="47.47885" lon="-1.48777">
        <ele>92</ele>
        <time>2021-08-22T09:43:07.000Z</time>
      </trkpt>
      <trkpt lat="47.47895" lon="-1.48785">
        <ele>92</ele>
        <time>2021-08-22T09:43:09.000Z</time>
      </trkpt>
      <trkpt lat="47.47907" lon="-1.48791">
        <ele>92</ele>
        <time>2021-08-22T09:43:11.000Z</time>
      </trkpt>
      <trkpt lat="47.47918" lon="-1.48796">
        <ele>92</ele>
        <time>2021-08-22T09:43:13.000Z</time>
      </trkpt>
      <trkpt lat="47.47929" lon="-1.48799">
        <ele>92</ele>
        <time>2021-08-22T09:43:15.000Z</time>
      </trkpt>
      <trkpt lat="47.4794" lon="-1.48802">
        <ele>93</ele>
        <time>2021-08-22T09:43:17.000Z</time>
      </trkpt>
      <trkpt lat="47.47952" lon="-1.48802">
        <ele>93</ele>
        <time>2021-08-22T09:43:19.000Z</time>
      </trkpt>
      <trkpt lat="47.47963" lon="-1.48803">
        <ele>93</ele>
        <time>2021-08-22T09:43:21.000Z</time>
      </trkpt>
      <trkpt lat="47.47975" lon="-1.48803">
        <ele>93</ele>
        <time>2021-08-22T09:43:23.000Z</time>
      </trkpt>
      <trkpt lat="47.47986" lon="-1.48802">
        <ele>94</ele>
        <time>2021-08-22T09:43:25.000Z</time>
      </trkpt>
      <trkpt lat="47.47998" lon="-1.48802">
        <ele>94</ele>
        <time>2021-08-22T09:43:27.000Z</time>
      </trkpt>
      <trkpt lat="47.4801" lon="-1.48801">
        <ele>95</ele>
        <time>2021-08-22T09:43:29.000Z</time>
      </trkpt>
      <trkpt lat="47.48021" lon="-1.48801">
        <ele>94</ele>
        <time>2021-08-22T09:43:31.000Z</time>
      </trkpt>
      <trkpt lat="47.48033" lon="-1.488">
        <ele>95</ele>
        <time>2021-08-22T09:43:33.000Z</time>
      </trkpt>
      <trkpt lat="47.48045" lon="-1.488">
        <ele>94</ele>
        <time>2021-08-22T09:43:35.000Z</time>
      </trkpt>
      <trkpt lat="47.48057" lon="-1.488">
        <ele>94</ele>
        <time>2021-08-22T09:43:37.000Z</time>
      </trkpt>
      <trkpt lat="47.48069" lon="-1.48799">
        <ele>94</ele>
        <time>2021-08-22T09:43:39.000Z</time>
      </trkpt>
      <trkpt lat="47.48081" lon="-1.48797">
        <ele>94</ele>
        <time>2021-08-22T09:43:41.000Z</time>
      </trkpt>
      <trkpt lat="47.48094" lon="-1.48796">
        <ele>94</ele>
        <time>2021-08-22T09:43:43.000Z</time>
      </trkpt>
      <trkpt lat="47.48106" lon="-1.48795">
        <ele>93</ele>
        <time>2021-08-22T09:43:45.000Z</time>
      </trkpt>
      <trkpt lat="47.48119" lon="-1.48795">
        <ele>93</ele>
        <time>2021-08-22T09:43:47.000Z</time>
      </trkpt>
      <trkpt lat="47.48133" lon="-1.48794">
        <ele>93</ele>
        <time>2021-08-22T09:43:49.000Z</time>
      </trkpt>
      <trkpt lat="47.48147" lon="-1.48793">
        <ele>93</ele>
        <time>2021-08-22T09:43:51.000Z</time>
      </trkpt>
      <trkpt lat="47.4817" lon="-1.48791">
        <ele>91</ele>
        <time>2021-08-22T09:43:54.000Z</time>
      </trkpt>
      <trkpt lat="47.48186" lon="-1.4879">
        <ele>91</ele>
        <time>2021-08-22T09:43:56.000Z</time>
      </trkpt>
      <trkpt lat="47.48211" lon="-1.48786">
        <ele>90</ele>
        <time>2021-08-22T09:43:59.000Z</time>
      </trkpt>
      <trkpt lat="47.48229" lon="-1.48782">
        <ele>88</ele>
        <time>2021-08-22T09:44:01.000Z</time>
      </trkpt>
      <trkpt lat="47.48247" lon="-1.48776">
        <ele>87</ele>
        <time>2021-08-22T09:44:03.000Z</time>
      </trkpt>
      <trkpt lat="47.48256" lon="-1.48772">
        <ele>86</ele>
        <time>2021-08-22T09:44:04.000Z</time>
      </trkpt>
      <trkpt lat="47.48265" lon="-1.48768">
        <ele>85</ele>
        <time>2021-08-22T09:44:05.000Z</time>
      </trkpt>
      <trkpt lat="47.48274" lon="-1.48763">
        <ele>85</ele>
        <time>2021-08-22T09:44:06.000Z</time>
      </trkpt>
      <trkpt lat="47.48282" lon="-1.48758">
        <ele>84</ele>
        <time>2021-08-22T09:44:07.000Z</time>
      </trkpt>
      <trkpt lat="47.48291" lon="-1.48753">
        <ele>84</ele>
        <time>2021-08-22T09:44:08.000Z</time>
      </trkpt>
      <trkpt lat="47.48309" lon="-1.48743">
        <ele>84</ele>
        <time>2021-08-22T09:44:10.000Z</time>
      </trkpt>
      <trkpt lat="47.48318" lon="-1.48739">
        <ele>83</ele>
        <time>2021-08-22T09:44:11.000Z</time>
      </trkpt>
      <trkpt lat="47.48326" lon="-1.48734">
        <ele>83</ele>
        <time>2021-08-22T09:44:12.000Z</time>
      </trkpt>
      <trkpt lat="47.48335" lon="-1.48729">
        <ele>83</ele>
        <time>2021-08-22T09:44:13.000Z</time>
      </trkpt>
      <trkpt lat="47.48343" lon="-1.48725">
        <ele>82</ele>
        <time>2021-08-22T09:44:14.000Z</time>
      </trkpt>
      <trkpt lat="47.48352" lon="-1.4872">
        <ele>82</ele>
        <time>2021-08-22T09:44:15.000Z</time>
      </trkpt>
      <trkpt lat="47.48361" lon="-1.48715">
        <ele>81</ele>
        <time>2021-08-22T09:44:16.000Z</time>
      </trkpt>
      <trkpt lat="47.48369" lon="-1.48712">
        <ele>80</ele>
        <time>2021-08-22T09:44:17.000Z</time>
      </trkpt>
      <trkpt lat="47.48396" lon="-1.48715">
        <ele>79</ele>
        <time>2021-08-22T09:44:20.000Z</time>
      </trkpt>
      <trkpt lat="47.48405" lon="-1.48721">
        <ele>79</ele>
        <time>2021-08-22T09:44:21.000Z</time>
      </trkpt>
      <trkpt lat="47.48412" lon="-1.4873">
        <ele>78</ele>
        <time>2021-08-22T09:44:22.000Z</time>
      </trkpt>
      <trkpt lat="47.48418" lon="-1.48741">
        <ele>78</ele>
        <time>2021-08-22T09:44:23.000Z</time>
      </trkpt>
      <trkpt lat="47.48422" lon="-1.48752">
        <ele>78</ele>
        <time>2021-08-22T09:44:24.000Z</time>
      </trkpt>
      <trkpt lat="47.48426" lon="-1.48765">
        <ele>77</ele>
        <time>2021-08-22T09:44:25.000Z</time>
      </trkpt>
      <trkpt lat="47.48429" lon="-1.48777">
        <ele>76</ele>
        <time>2021-08-22T09:44:26.000Z</time>
      </trkpt>
      <trkpt lat="47.48432" lon="-1.48791">
        <ele>76</ele>
        <time>2021-08-22T09:44:27.000Z</time>
      </trkpt>
      <trkpt lat="47.48433" lon="-1.48804">
        <ele>75</ele>
        <time>2021-08-22T09:44:28.000Z</time>
      </trkpt>
      <trkpt lat="47.48436" lon="-1.48818">
        <ele>74</ele>
        <time>2021-08-22T09:44:29.000Z</time>
      </trkpt>
      <trkpt lat="47.4844" lon="-1.48845">
        <ele>73</ele>
        <time>2021-08-22T09:44:31.000Z</time>
      </trkpt>
      <trkpt lat="47.48443" lon="-1.48858">
        <ele>72</ele>
        <time>2021-08-22T09:44:32.000Z</time>
      </trkpt>
      <trkpt lat="47.48448" lon="-1.4887">
        <ele>72</ele>
        <time>2021-08-22T09:44:33.000Z</time>
      </trkpt>
      <trkpt lat="47.48453" lon="-1.48881">
        <ele>71</ele>
        <time>2021-08-22T09:44:34.000Z</time>
      </trkpt>
      <trkpt lat="47.48461" lon="-1.48889">
        <ele>71</ele>
        <time>2021-08-22T09:44:35.000Z</time>
      </trkpt>
      <trkpt lat="47.4847" lon="-1.48891">
        <ele>70</ele>
        <time>2021-08-22T09:44:36.000Z</time>
      </trkpt>
      <trkpt lat="47.48479" lon="-1.48888">
        <ele>70</ele>
        <time>2021-08-22T09:44:37.000Z</time>
      </trkpt>
      <trkpt lat="47.48494" lon="-1.48872">
        <ele>69</ele>
        <time>2021-08-22T09:44:39.000Z</time>
      </trkpt>
      <trkpt lat="47.48498" lon="-1.4886">
        <ele>69</ele>
        <time>2021-08-22T09:44:40.000Z</time>
      </trkpt>
      <trkpt lat="47.48493" lon="-1.48834">
        <ele>69</ele>
        <time>2021-08-22T09:44:42.000Z</time>
      </trkpt>
      <trkpt lat="47.48487" lon="-1.48812">
        <ele>70</ele>
        <time>2021-08-22T09:44:44.000Z</time>
      </trkpt>
      <trkpt lat="47.48486" lon="-1.48781">
        <ele>70</ele>
        <time>2021-08-22T09:44:47.000Z</time>
      </trkpt>
      <trkpt lat="47.48489" lon="-1.48764">
        <ele>71</ele>
        <time>2021-08-22T09:44:49.000Z</time>
      </trkpt>
      <trkpt lat="47.48493" lon="-1.48746">
        <ele>71</ele>
        <time>2021-08-22T09:44:51.000Z</time>
      </trkpt>
      <trkpt lat="47.48499" lon="-1.48729">
        <ele>71</ele>
        <time>2021-08-22T09:44:53.000Z</time>
      </trkpt>
      <trkpt lat="47.48506" lon="-1.48713">
        <ele>72</ele>
        <time>2021-08-22T09:44:55.000Z</time>
      </trkpt>
      <trkpt lat="47.48512" lon="-1.48696">
        <ele>72</ele>
        <time>2021-08-22T09:44:57.000Z</time>
      </trkpt>
      <trkpt lat="47.48518" lon="-1.4868">
        <ele>72</ele>
        <time>2021-08-22T09:44:59.000Z</time>
      </trkpt>
      <trkpt lat="47.48522" lon="-1.48663">
        <ele>73</ele>
        <time>2021-08-22T09:45:01.000Z</time>
      </trkpt>
      <trkpt lat="47.48525" lon="-1.48645">
        <ele>74</ele>
        <time>2021-08-22T09:45:03.000Z</time>
      </trkpt>
      <trkpt lat="47.48525" lon="-1.48628">
        <ele>74</ele>
        <time>2021-08-22T09:45:05.000Z</time>
      </trkpt>
      <trkpt lat="47.48524" lon="-1.4861">
        <ele>74</ele>
        <time>2021-08-22T09:45:07.000Z</time>
      </trkpt>
      <trkpt lat="47.48523" lon="-1.48594">
        <ele>74</ele>
        <time>2021-08-22T09:45:09.000Z</time>
      </trkpt>
      <trkpt lat="47.48522" lon="-1.48577">
        <ele>74</ele>
        <time>2021-08-22T09:45:11.000Z</time>
      </trkpt>
      <trkpt lat="47.48521" lon="-1.4856">
        <ele>74</ele>
        <time>2021-08-22T09:45:13.000Z</time>
      </trkpt>
      <trkpt lat="47.48519" lon="-1.48543">
        <ele>75</ele>
        <time>2021-08-22T09:45:15.000Z</time>
      </trkpt>
      <trkpt lat="47.48518" lon="-1.48526">
        <ele>76</ele>
        <time>2021-08-22T09:45:17.000Z</time>
      </trkpt>
      <trkpt lat="47.48516" lon="-1.4851">
        <ele>77</ele>
        <time>2021-08-22T09:45:19.000Z</time>
      </trkpt>
      <trkpt lat="47.48515" lon="-1.48494">
        <ele>78</ele>
        <time>2021-08-22T09:45:21.000Z</time>
      </trkpt>
      <trkpt lat="47.48516" lon="-1.48477">
        <ele>79</ele>
        <time>2021-08-22T09:45:23.000Z</time>
      </trkpt>
      <trkpt lat="47.48519" lon="-1.48462">
        <ele>80</ele>
        <time>2021-08-22T09:45:25.000Z</time>
      </trkpt>
      <trkpt lat="47.48526" lon="-1.48447">
        <ele>80</ele>
        <time>2021-08-22T09:45:27.000Z</time>
      </trkpt>
      <trkpt lat="47.48534" lon="-1.48435">
        <ele>79</ele>
        <time>2021-08-22T09:45:29.000Z</time>
      </trkpt>
      <trkpt lat="47.48543" lon="-1.48426">
        <ele>79</ele>
        <time>2021-08-22T09:45:31.000Z</time>
      </trkpt>
      <trkpt lat="47.48553" lon="-1.48419">
        <ele>80</ele>
        <time>2021-08-22T09:45:33.000Z</time>
      </trkpt>
      <trkpt lat="47.48564" lon="-1.48414">
        <ele>80</ele>
        <time>2021-08-22T09:45:35.000Z</time>
      </trkpt>
      <trkpt lat="47.48575" lon="-1.48411">
        <ele>81</ele>
        <time>2021-08-22T09:45:37.000Z</time>
      </trkpt>
      <trkpt lat="47.48587" lon="-1.48414">
        <ele>81</ele>
        <time>2021-08-22T09:45:39.000Z</time>
      </trkpt>
      <trkpt lat="47.48598" lon="-1.48417">
        <ele>81</ele>
        <time>2021-08-22T09:45:41.000Z</time>
      </trkpt>
      <trkpt lat="47.48608" lon="-1.48419">
        <ele>81</ele>
        <time>2021-08-22T09:45:43.000Z</time>
      </trkpt>
      <trkpt lat="47.48618" lon="-1.48422">
        <ele>81</ele>
        <time>2021-08-22T09:45:45.000Z</time>
      </trkpt>
      <trkpt lat="47.48627" lon="-1.48426">
        <ele>82</ele>
        <time>2021-08-22T09:45:47.000Z</time>
      </trkpt>
      <trkpt lat="47.48637" lon="-1.48428">
        <ele>82</ele>
        <time>2021-08-22T09:45:49.000Z</time>
      </trkpt>
      <trkpt lat="47.48646" lon="-1.48431">
        <ele>82</ele>
        <time>2021-08-22T09:45:51.000Z</time>
      </trkpt>
      <trkpt lat="47.48655" lon="-1.48433">
        <ele>83</ele>
        <time>2021-08-22T09:45:53.000Z</time>
      </trkpt>
      <trkpt lat="47.48664" lon="-1.48436">
        <ele>83</ele>
        <time>2021-08-22T09:45:55.000Z</time>
      </trkpt>
      <trkpt lat="47.48677" lon="-1.48439">
        <ele>84</ele>
        <time>2021-08-22T09:45:58.000Z</time>
      </trkpt>
      <trkpt lat="47.4869" lon="-1.48441">
        <ele>85</ele>
        <time>2021-08-22T09:46:01.000Z</time>
      </trkpt>
      <trkpt lat="47.48699" lon="-1.48443">
        <ele>86</ele>
        <time>2021-08-22T09:46:03.000Z</time>
      </trkpt>
      <trkpt lat="47.48713" lon="-1.48444">
        <ele>87</ele>
        <time>2021-08-22T09:46:06.000Z</time>
      </trkpt>
      <trkpt lat="47.48725" lon="-1.48443">
        <ele>88</ele>
        <time>2021-08-22T09:46:09.000Z</time>
      </trkpt>
      <trkpt lat="47.48738" lon="-1.4844">
        <ele>88</ele>
        <time>2021-08-22T09:46:12.000Z</time>
      </trkpt>
      <trkpt lat="47.48751" lon="-1.48436">
        <ele>89</ele>
        <time>2021-08-22T09:46:15.000Z</time>
      </trkpt>
      <trkpt lat="47.48763" lon="-1.4843">
        <ele>89</ele>
        <time>2021-08-22T09:46:18.000Z</time>
      </trkpt>
      <trkpt lat="47.48772" lon="-1.48426">
        <ele>89</ele>
        <time>2021-08-22T09:46:20.000Z</time>
      </trkpt>
      <trkpt lat="47.4878" lon="-1.48421">
        <ele>89</ele>
        <time>2021-08-22T09:46:22.000Z</time>
      </trkpt>
      <trkpt lat="47.48789" lon="-1.48415">
        <ele>90</ele>
        <time>2021-08-22T09:46:24.000Z</time>
      </trkpt>
      <trkpt lat="47.48797" lon="-1.48409">
        <ele>91</ele>
        <time>2021-08-22T09:46:26.000Z</time>
      </trkpt>
      <trkpt lat="47.48809" lon="-1.48402">
        <ele>92</ele>
        <time>2021-08-22T09:46:29.000Z</time>
      </trkpt>
      <trkpt lat="47.48821" lon="-1.48393">
        <ele>92</ele>
        <time>2021-08-22T09:46:32.000Z</time>
      </trkpt>
      <trkpt lat="47.48829" lon="-1.48387">
        <ele>92</ele>
        <time>2021-08-22T09:46:34.000Z</time>
      </trkpt>
      <trkpt lat="47.4884" lon="-1.48379">
        <ele>92</ele>
        <time>2021-08-22T09:46:37.000Z</time>
      </trkpt>
      <trkpt lat="47.48849" lon="-1.48373">
        <ele>93</ele>
        <time>2021-08-22T09:46:39.000Z</time>
      </trkpt>
      <trkpt lat="47.48861" lon="-1.48365">
        <ele>94</ele>
        <time>2021-08-22T09:46:42.000Z</time>
      </trkpt>
      <trkpt lat="47.48873" lon="-1.48358">
        <ele>94</ele>
        <time>2021-08-22T09:46:45.000Z</time>
      </trkpt>
      <trkpt lat="47.48882" lon="-1.48353">
        <ele>94</ele>
        <time>2021-08-22T09:46:47.000Z</time>
      </trkpt>
      <trkpt lat="47.48895" lon="-1.48347">
        <ele>95</ele>
        <time>2021-08-22T09:46:50.000Z</time>
      </trkpt>
      <trkpt lat="47.48904" lon="-1.48343">
        <ele>96</ele>
        <time>2021-08-22T09:46:52.000Z</time>
      </trkpt>
      <trkpt lat="47.48914" lon="-1.48339">
        <ele>96</ele>
        <time>2021-08-22T09:46:54.000Z</time>
      </trkpt>
      <trkpt lat="47.48923" lon="-1.48336">
        <ele>96</ele>
        <time>2021-08-22T09:46:56.000Z</time>
      </trkpt>
      <trkpt lat="47.48932" lon="-1.48333">
        <ele>97</ele>
        <time>2021-08-22T09:46:58.000Z</time>
      </trkpt>
      <trkpt lat="47.48945" lon="-1.48327">
        <ele>99</ele>
        <time>2021-08-22T09:47:01.000Z</time>
      </trkpt>
      <trkpt lat="47.48955" lon="-1.48324">
        <ele>99</ele>
        <time>2021-08-22T09:47:03.000Z</time>
      </trkpt>
      <trkpt lat="47.48965" lon="-1.4832">
        <ele>100</ele>
        <time>2021-08-22T09:47:05.000Z</time>
      </trkpt>
      <trkpt lat="47.48975" lon="-1.48316">
        <ele>99</ele>
        <time>2021-08-22T09:47:07.000Z</time>
      </trkpt>
      <trkpt lat="47.48985" lon="-1.48313">
        <ele>100</ele>
        <time>2021-08-22T09:47:09.000Z</time>
      </trkpt>
      <trkpt lat="47.48997" lon="-1.48309">
        <ele>99</ele>
        <time>2021-08-22T09:47:11.000Z</time>
      </trkpt>
      <trkpt lat="47.49008" lon="-1.48304">
        <ele>98</ele>
        <time>2021-08-22T09:47:13.000Z</time>
      </trkpt>
      <trkpt lat="47.4902" lon="-1.483">
        <ele>98</ele>
        <time>2021-08-22T09:47:15.000Z</time>
      </trkpt>
      <trkpt lat="47.49033" lon="-1.48296">
        <ele>98</ele>
        <time>2021-08-22T09:47:17.000Z</time>
      </trkpt>
      <trkpt lat="47.49045" lon="-1.48292">
        <ele>97</ele>
        <time>2021-08-22T09:47:19.000Z</time>
      </trkpt>
      <trkpt lat="47.49059" lon="-1.48288">
        <ele>96</ele>
        <time>2021-08-22T09:47:21.000Z</time>
      </trkpt>
      <trkpt lat="47.49071" lon="-1.48284">
        <ele>96</ele>
        <time>2021-08-22T09:47:23.000Z</time>
      </trkpt>
      <trkpt lat="47.49085" lon="-1.48279">
        <ele>96</ele>
        <time>2021-08-22T09:47:25.000Z</time>
      </trkpt>
      <trkpt lat="47.49099" lon="-1.48274">
        <ele>95</ele>
        <time>2021-08-22T09:47:27.000Z</time>
      </trkpt>
      <trkpt lat="47.49113" lon="-1.48269">
        <ele>95</ele>
        <time>2021-08-22T09:47:29.000Z</time>
      </trkpt>
      <trkpt lat="47.49127" lon="-1.48263">
        <ele>95</ele>
        <time>2021-08-22T09:47:31.000Z</time>
      </trkpt>
      <trkpt lat="47.49142" lon="-1.48259">
        <ele>94</ele>
        <time>2021-08-22T09:47:33.000Z</time>
      </trkpt>
      <trkpt lat="47.49157" lon="-1.48253">
        <ele>93</ele>
        <time>2021-08-22T09:47:35.000Z</time>
      </trkpt>
      <trkpt lat="47.49172" lon="-1.48248">
        <ele>93</ele>
        <time>2021-08-22T09:47:37.000Z</time>
      </trkpt>
      <trkpt lat="47.49188" lon="-1.48242">
        <ele>92</ele>
        <time>2021-08-22T09:47:39.000Z</time>
      </trkpt>
      <trkpt lat="47.49203" lon="-1.48238">
        <ele>92</ele>
        <time>2021-08-22T09:47:41.000Z</time>
      </trkpt>
      <trkpt lat="47.49218" lon="-1.48233">
        <ele>92</ele>
        <time>2021-08-22T09:47:43.000Z</time>
      </trkpt>
      <trkpt lat="47.49232" lon="-1.48227">
        <ele>92</ele>
        <time>2021-08-22T09:47:45.000Z</time>
      </trkpt>
      <trkpt lat="47.49247" lon="-1.48222">
        <ele>93</ele>
        <time>2021-08-22T09:47:47.000Z</time>
      </trkpt>
      <trkpt lat="47.49262" lon="-1.48217">
        <ele>93</ele>
        <time>2021-08-22T09:47:49.000Z</time>
      </trkpt>
      <trkpt lat="47.49276" lon="-1.48211">
        <ele>93</ele>
        <time>2021-08-22T09:47:51.000Z</time>
      </trkpt>
      <trkpt lat="47.49291" lon="-1.48206">
        <ele>93</ele>
        <time>2021-08-22T09:47:53.000Z</time>
      </trkpt>
      <trkpt lat="47.49304" lon="-1.48201">
        <ele>93</ele>
        <time>2021-08-22T09:47:55.000Z</time>
      </trkpt>
      <trkpt lat="47.49318" lon="-1.48197">
        <ele>94</ele>
        <time>2021-08-22T09:47:57.000Z</time>
      </trkpt>
      <trkpt lat="47.49333" lon="-1.48193">
        <ele>93</ele>
        <time>2021-08-22T09:47:59.000Z</time>
      </trkpt>
      <trkpt lat="47.49348" lon="-1.48188">
        <ele>94</ele>
        <time>2021-08-22T09:48:01.000Z</time>
      </trkpt>
      <trkpt lat="47.49362" lon="-1.48184">
        <ele>94</ele>
        <time>2021-08-22T09:48:03.000Z</time>
      </trkpt>
      <trkpt lat="47.49377" lon="-1.48179">
        <ele>94</ele>
        <time>2021-08-22T09:48:05.000Z</time>
      </trkpt>
      <trkpt lat="47.49391" lon="-1.48174">
        <ele>93</ele>
        <time>2021-08-22T09:48:07.000Z</time>
      </trkpt>
      <trkpt lat="47.49406" lon="-1.48168">
        <ele>92</ele>
        <time>2021-08-22T09:48:09.000Z</time>
      </trkpt>
      <trkpt lat="47.49421" lon="-1.48163">
        <ele>93</ele>
        <time>2021-08-22T09:48:11.000Z</time>
      </trkpt>
      <trkpt lat="47.49435" lon="-1.48159">
        <ele>92</ele>
        <time>2021-08-22T09:48:13.000Z</time>
      </trkpt>
      <trkpt lat="47.49449" lon="-1.48155">
        <ele>92</ele>
        <time>2021-08-22T09:48:15.000Z</time>
      </trkpt>
      <trkpt lat="47.49462" lon="-1.48152">
        <ele>91</ele>
        <time>2021-08-22T09:48:17.000Z</time>
      </trkpt>
      <trkpt lat="47.49477" lon="-1.48152">
        <ele>90</ele>
        <time>2021-08-22T09:48:19.000Z</time>
      </trkpt>
      <trkpt lat="47.49493" lon="-1.48152">
        <ele>90</ele>
        <time>2021-08-22T09:48:21.000Z</time>
      </trkpt>
      <trkpt lat="47.49508" lon="-1.48154">
        <ele>90</ele>
        <time>2021-08-22T09:48:23.000Z</time>
      </trkpt>
      <trkpt lat="47.49524" lon="-1.48156">
        <ele>90</ele>
        <time>2021-08-22T09:48:25.000Z</time>
      </trkpt>
      <trkpt lat="47.49539" lon="-1.48159">
        <ele>89</ele>
        <time>2021-08-22T09:48:27.000Z</time>
      </trkpt>
      <trkpt lat="47.49553" lon="-1.48163">
        <ele>89</ele>
        <time>2021-08-22T09:48:29.000Z</time>
      </trkpt>
      <trkpt lat="47.49567" lon="-1.48166">
        <ele>89</ele>
        <time>2021-08-22T09:48:31.000Z</time>
      </trkpt>
      <trkpt lat="47.4958" lon="-1.4817">
        <ele>89</ele>
        <time>2021-08-22T09:48:33.000Z</time>
      </trkpt>
      <trkpt lat="47.49591" lon="-1.48173">
        <ele>90</ele>
        <time>2021-08-22T09:48:35.000Z</time>
      </trkpt>
      <trkpt lat="47.49603" lon="-1.48175">
        <ele>90</ele>
        <time>2021-08-22T09:48:37.000Z</time>
      </trkpt>
      <trkpt lat="47.49613" lon="-1.48177">
        <ele>90</ele>
        <time>2021-08-22T09:48:39.000Z</time>
      </trkpt>
      <trkpt lat="47.49623" lon="-1.48179">
        <ele>90</ele>
        <time>2021-08-22T09:48:41.000Z</time>
      </trkpt>
      <trkpt lat="47.49633" lon="-1.48181">
        <ele>91</ele>
        <time>2021-08-22T09:48:43.000Z</time>
      </trkpt>
      <trkpt lat="47.49644" lon="-1.48183">
        <ele>91</ele>
        <time>2021-08-22T09:48:45.000Z</time>
      </trkpt>
      <trkpt lat="47.49655" lon="-1.48187">
        <ele>91</ele>
        <time>2021-08-22T09:48:47.000Z</time>
      </trkpt>
      <trkpt lat="47.49666" lon="-1.48189">
        <ele>92</ele>
        <time>2021-08-22T09:48:49.000Z</time>
      </trkpt>
      <trkpt lat="47.49676" lon="-1.48192">
        <ele>92</ele>
        <time>2021-08-22T09:48:51.000Z</time>
      </trkpt>
      <trkpt lat="47.49686" lon="-1.48194">
        <ele>93</ele>
        <time>2021-08-22T09:48:53.000Z</time>
      </trkpt>
      <trkpt lat="47.49696" lon="-1.48196">
        <ele>94</ele>
        <time>2021-08-22T09:48:55.000Z</time>
      </trkpt>
      <trkpt lat="47.49705" lon="-1.48198">
        <ele>94</ele>
        <time>2021-08-22T09:48:57.000Z</time>
      </trkpt>
      <trkpt lat="47.49715" lon="-1.482">
        <ele>95</ele>
        <time>2021-08-22T09:48:59.000Z</time>
      </trkpt>
      <trkpt lat="47.49724" lon="-1.48202">
        <ele>96</ele>
        <time>2021-08-22T09:49:01.000Z</time>
      </trkpt>
      <trkpt lat="47.49734" lon="-1.48206">
        <ele>96</ele>
        <time>2021-08-22T09:49:03.000Z</time>
      </trkpt>
      <trkpt lat="47.49743" lon="-1.48209">
        <ele>96</ele>
        <time>2021-08-22T09:49:05.000Z</time>
      </trkpt>
      <trkpt lat="47.49753" lon="-1.48211">
        <ele>97</ele>
        <time>2021-08-22T09:49:07.000Z</time>
      </trkpt>
      <trkpt lat="47.49762" lon="-1.48214">
        <ele>97</ele>
        <time>2021-08-22T09:49:09.000Z</time>
      </trkpt>
      <trkpt lat="47.49771" lon="-1.48215">
        <ele>98</ele>
        <time>2021-08-22T09:49:11.000Z</time>
      </trkpt>
      <trkpt lat="47.49781" lon="-1.48217">
        <ele>98</ele>
        <time>2021-08-22T09:49:13.000Z</time>
      </trkpt>
      <trkpt lat="47.4979" lon="-1.4822">
        <ele>98</ele>
        <time>2021-08-22T09:49:15.000Z</time>
      </trkpt>
      <trkpt lat="47.49799" lon="-1.48222">
        <ele>98</ele>
        <time>2021-08-22T09:49:17.000Z</time>
      </trkpt>
      <trkpt lat="47.49813" lon="-1.48225">
        <ele>99</ele>
        <time>2021-08-22T09:49:20.000Z</time>
      </trkpt>
      <trkpt lat="47.49823" lon="-1.48227">
        <ele>99</ele>
        <time>2021-08-22T09:49:22.000Z</time>
      </trkpt>
      <trkpt lat="47.49833" lon="-1.4823">
        <ele>99</ele>
        <time>2021-08-22T09:49:24.000Z</time>
      </trkpt>
      <trkpt lat="47.49843" lon="-1.48231">
        <ele>99</ele>
        <time>2021-08-22T09:49:26.000Z</time>
      </trkpt>
      <trkpt lat="47.49853" lon="-1.48235">
        <ele>100</ele>
        <time>2021-08-22T09:49:28.000Z</time>
      </trkpt>
      <trkpt lat="47.49863" lon="-1.48237">
        <ele>100</ele>
        <time>2021-08-22T09:49:30.000Z</time>
      </trkpt>
      <trkpt lat="47.49874" lon="-1.48239">
        <ele>99</ele>
        <time>2021-08-22T09:49:32.000Z</time>
      </trkpt>
      <trkpt lat="47.49884" lon="-1.48242">
        <ele>100</ele>
        <time>2021-08-22T09:49:34.000Z</time>
      </trkpt>
      <trkpt lat="47.49895" lon="-1.48244">
        <ele>99</ele>
        <time>2021-08-22T09:49:36.000Z</time>
      </trkpt>
      <trkpt lat="47.49906" lon="-1.48245">
        <ele>100</ele>
        <time>2021-08-22T09:49:38.000Z</time>
      </trkpt>
      <trkpt lat="47.49918" lon="-1.48246">
        <ele>100</ele>
        <time>2021-08-22T09:49:40.000Z</time>
      </trkpt>
      <trkpt lat="47.49929" lon="-1.48246">
        <ele>100</ele>
        <time>2021-08-22T09:49:42.000Z</time>
      </trkpt>
      <trkpt lat="47.49941" lon="-1.48246">
        <ele>100</ele>
        <time>2021-08-22T09:49:44.000Z</time>
      </trkpt>
      <trkpt lat="47.49953" lon="-1.48245">
        <ele>100</ele>
        <time>2021-08-22T09:49:46.000Z</time>
      </trkpt>
      <trkpt lat="47.49965" lon="-1.48245">
        <ele>100</ele>
        <time>2021-08-22T09:49:48.000Z</time>
      </trkpt>
      <trkpt lat="47.49976" lon="-1.48244">
        <ele>101</ele>
        <time>2021-08-22T09:49:50.000Z</time>
      </trkpt>
      <trkpt lat="47.49988" lon="-1.48243">
        <ele>101</ele>
        <time>2021-08-22T09:49:52.000Z</time>
      </trkpt>
      <trkpt lat="47.49999" lon="-1.48242">
        <ele>102</ele>
        <time>2021-08-22T09:49:54.000Z</time>
      </trkpt>
      <trkpt lat="47.5001" lon="-1.4824">
        <ele>101</ele>
        <time>2021-08-22T09:49:56.000Z</time>
      </trkpt>
      <trkpt lat="47.50022" lon="-1.48239">
        <ele>101</ele>
        <time>2021-08-22T09:49:58.000Z</time>
      </trkpt>
      <trkpt lat="47.50033" lon="-1.48238">
        <ele>101</ele>
        <time>2021-08-22T09:50:00.000Z</time>
      </trkpt>
      <trkpt lat="47.50045" lon="-1.48237">
        <ele>101</ele>
        <time>2021-08-22T09:50:02.000Z</time>
      </trkpt>
      <trkpt lat="47.50056" lon="-1.48236">
        <ele>102</ele>
        <time>2021-08-22T09:50:04.000Z</time>
      </trkpt>
      <trkpt lat="47.50067" lon="-1.48235">
        <ele>102</ele>
        <time>2021-08-22T09:50:06.000Z</time>
      </trkpt>
      <trkpt lat="47.50078" lon="-1.48234">
        <ele>103</ele>
        <time>2021-08-22T09:50:08.000Z</time>
      </trkpt>
      <trkpt lat="47.50089" lon="-1.48233">
        <ele>103</ele>
        <time>2021-08-22T09:50:10.000Z</time>
      </trkpt>
      <trkpt lat="47.501" lon="-1.48233">
        <ele>103</ele>
        <time>2021-08-22T09:50:12.000Z</time>
      </trkpt>
      <trkpt lat="47.50111" lon="-1.48232">
        <ele>103</ele>
        <time>2021-08-22T09:50:14.000Z</time>
      </trkpt>
      <trkpt lat="47.50123" lon="-1.48231">
        <ele>104</ele>
        <time>2021-08-22T09:50:16.000Z</time>
      </trkpt>
      <trkpt lat="47.50134" lon="-1.4823">
        <ele>104</ele>
        <time>2021-08-22T09:50:18.000Z</time>
      </trkpt>
      <trkpt lat="47.50145" lon="-1.48229">
        <ele>104</ele>
        <time>2021-08-22T09:50:20.000Z</time>
      </trkpt>
      <trkpt lat="47.50156" lon="-1.48229">
        <ele>104</ele>
        <time>2021-08-22T09:50:22.000Z</time>
      </trkpt>
      <trkpt lat="47.50167" lon="-1.48228">
        <ele>105</ele>
        <time>2021-08-22T09:50:24.000Z</time>
      </trkpt>
      <trkpt lat="47.50178" lon="-1.48227">
        <ele>106</ele>
        <time>2021-08-22T09:50:26.000Z</time>
      </trkpt>
      <trkpt lat="47.50189" lon="-1.48227">
        <ele>106</ele>
        <time>2021-08-22T09:50:28.000Z</time>
      </trkpt>
      <trkpt lat="47.502" lon="-1.48226">
        <ele>107</ele>
        <time>2021-08-22T09:50:30.000Z</time>
      </trkpt>
      <trkpt lat="47.50211" lon="-1.48224">
        <ele>107</ele>
        <time>2021-08-22T09:50:32.000Z</time>
      </trkpt>
      <trkpt lat="47.50222" lon="-1.48223">
        <ele>108</ele>
        <time>2021-08-22T09:50:34.000Z</time>
      </trkpt>
      <trkpt lat="47.50233" lon="-1.48222">
        <ele>108</ele>
        <time>2021-08-22T09:50:36.000Z</time>
      </trkpt>
      <trkpt lat="47.50244" lon="-1.48221">
        <ele>108</ele>
        <time>2021-08-22T09:50:38.000Z</time>
      </trkpt>
      <trkpt lat="47.50254" lon="-1.4822">
        <ele>108</ele>
        <time>2021-08-22T09:50:40.000Z</time>
      </trkpt>
      <trkpt lat="47.50264" lon="-1.48219">
        <ele>108</ele>
        <time>2021-08-22T09:50:42.000Z</time>
      </trkpt>
      <trkpt lat="47.50275" lon="-1.48218">
        <ele>108</ele>
        <time>2021-08-22T09:50:44.000Z</time>
      </trkpt>
      <trkpt lat="47.50285" lon="-1.48217">
        <ele>108</ele>
        <time>2021-08-22T09:50:46.000Z</time>
      </trkpt>
      <trkpt lat="47.50295" lon="-1.48213">
        <ele>108</ele>
        <time>2021-08-22T09:50:48.000Z</time>
      </trkpt>
      <trkpt lat="47.50304" lon="-1.48209">
        <ele>108</ele>
        <time>2021-08-22T09:50:50.000Z</time>
      </trkpt>
      <trkpt lat="47.50311" lon="-1.48194">
        <ele>107</ele>
        <time>2021-08-22T09:50:53.000Z</time>
      </trkpt>
      <trkpt lat="47.50312" lon="-1.48179">
        <ele>106</ele>
        <time>2021-08-22T09:50:55.000Z</time>
      </trkpt>
      <trkpt lat="47.50313" lon="-1.48163">
        <ele>106</ele>
        <time>2021-08-22T09:50:57.000Z</time>
      </trkpt>
      <trkpt lat="47.50313" lon="-1.48145">
        <ele>106</ele>
        <time>2021-08-22T09:50:59.000Z</time>
      </trkpt>
      <trkpt lat="47.50314" lon="-1.48128">
        <ele>106</ele>
        <time>2021-08-22T09:51:01.000Z</time>
      </trkpt>
      <trkpt lat="47.50314" lon="-1.4811">
        <ele>105</ele>
        <time>2021-08-22T09:51:03.000Z</time>
      </trkpt>
      <trkpt lat="47.50315" lon="-1.48092">
        <ele>105</ele>
        <time>2021-08-22T09:51:05.000Z</time>
      </trkpt>
      <trkpt lat="47.50315" lon="-1.48073">
        <ele>105</ele>
        <time>2021-08-22T09:51:07.000Z</time>
      </trkpt>
      <trkpt lat="47.50315" lon="-1.48056">
        <ele>104</ele>
        <time>2021-08-22T09:51:09.000Z</time>
      </trkpt>
      <trkpt lat="47.50315" lon="-1.48038">
        <ele>104</ele>
        <time>2021-08-22T09:51:11.000Z</time>
      </trkpt>
      <trkpt lat="47.50316" lon="-1.48021">
        <ele>104</ele>
        <time>2021-08-22T09:51:13.000Z</time>
      </trkpt>
      <trkpt lat="47.50316" lon="-1.48001">
        <ele>104</ele>
        <time>2021-08-22T09:51:15.000Z</time>
      </trkpt>
      <trkpt lat="47.50316" lon="-1.47981">
        <ele>104</ele>
        <time>2021-08-22T09:51:17.000Z</time>
      </trkpt>
      <trkpt lat="47.50317" lon="-1.4796">
        <ele>104</ele>
        <time>2021-08-22T09:51:19.000Z</time>
      </trkpt>
      <trkpt lat="47.50317" lon="-1.4794">
        <ele>104</ele>
        <time>2021-08-22T09:51:21.000Z</time>
      </trkpt>
      <trkpt lat="47.50318" lon="-1.47919">
        <ele>104</ele>
        <time>2021-08-22T09:51:23.000Z</time>
      </trkpt>
      <trkpt lat="47.50319" lon="-1.47898">
        <ele>104</ele>
        <time>2021-08-22T09:51:25.000Z</time>
      </trkpt>
      <trkpt lat="47.50321" lon="-1.47877">
        <ele>104</ele>
        <time>2021-08-22T09:51:27.000Z</time>
      </trkpt>
      <trkpt lat="47.50322" lon="-1.47857">
        <ele>104</ele>
        <time>2021-08-22T09:51:29.000Z</time>
      </trkpt>
      <trkpt lat="47.50323" lon="-1.47837">
        <ele>104</ele>
        <time>2021-08-22T09:51:31.000Z</time>
      </trkpt>
      <trkpt lat="47.50325" lon="-1.47816">
        <ele>103</ele>
        <time>2021-08-22T09:51:33.000Z</time>
      </trkpt>
      <trkpt lat="47.50328" lon="-1.47795">
        <ele>103</ele>
        <time>2021-08-22T09:51:35.000Z</time>
      </trkpt>
      <trkpt lat="47.50331" lon="-1.47773">
        <ele>103</ele>
        <time>2021-08-22T09:51:37.000Z</time>
      </trkpt>
      <trkpt lat="47.50334" lon="-1.47753">
        <ele>103</ele>
        <time>2021-08-22T09:51:39.000Z</time>
      </trkpt>
      <trkpt lat="47.50337" lon="-1.47731">
        <ele>102</ele>
        <time>2021-08-22T09:51:41.000Z</time>
      </trkpt>
      <trkpt lat="47.5034" lon="-1.4771">
        <ele>102</ele>
        <time>2021-08-22T09:51:43.000Z</time>
      </trkpt>
      <trkpt lat="47.50343" lon="-1.47689">
        <ele>101</ele>
        <time>2021-08-22T09:51:45.000Z</time>
      </trkpt>
      <trkpt lat="47.50346" lon="-1.47668">
        <ele>101</ele>
        <time>2021-08-22T09:51:47.000Z</time>
      </trkpt>
      <trkpt lat="47.50349" lon="-1.47646">
        <ele>100</ele>
        <time>2021-08-22T09:51:49.000Z</time>
      </trkpt>
      <trkpt lat="47.50352" lon="-1.47625">
        <ele>100</ele>
        <time>2021-08-22T09:51:51.000Z</time>
      </trkpt>
      <trkpt lat="47.50355" lon="-1.47604">
        <ele>99</ele>
        <time>2021-08-22T09:51:53.000Z</time>
      </trkpt>
      <trkpt lat="47.50358" lon="-1.47583">
        <ele>99</ele>
        <time>2021-08-22T09:51:55.000Z</time>
      </trkpt>
      <trkpt lat="47.50361" lon="-1.47562">
        <ele>99</ele>
        <time>2021-08-22T09:51:57.000Z</time>
      </trkpt>
      <trkpt lat="47.50363" lon="-1.47541">
        <ele>98</ele>
        <time>2021-08-22T09:51:59.000Z</time>
      </trkpt>
      <trkpt lat="47.50365" lon="-1.47519">
        <ele>98</ele>
        <time>2021-08-22T09:52:01.000Z</time>
      </trkpt>
      <trkpt lat="47.50365" lon="-1.47497">
        <ele>97</ele>
        <time>2021-08-22T09:52:03.000Z</time>
      </trkpt>
      <trkpt lat="47.50365" lon="-1.47474">
        <ele>97</ele>
        <time>2021-08-22T09:52:05.000Z</time>
      </trkpt>
      <trkpt lat="47.50363" lon="-1.47453">
        <ele>96</ele>
        <time>2021-08-22T09:52:07.000Z</time>
      </trkpt>
      <trkpt lat="47.5036" lon="-1.47432">
        <ele>96</ele>
        <time>2021-08-22T09:52:09.000Z</time>
      </trkpt>
      <trkpt lat="47.50356" lon="-1.4741">
        <ele>96</ele>
        <time>2021-08-22T09:52:11.000Z</time>
      </trkpt>
      <trkpt lat="47.50352" lon="-1.4739">
        <ele>96</ele>
        <time>2021-08-22T09:52:13.000Z</time>
      </trkpt>
      <trkpt lat="47.50348" lon="-1.47369">
        <ele>96</ele>
        <time>2021-08-22T09:52:15.000Z</time>
      </trkpt>
      <trkpt lat="47.50344" lon="-1.47349">
        <ele>96</ele>
        <time>2021-08-22T09:52:17.000Z</time>
      </trkpt>
      <trkpt lat="47.5034" lon="-1.47329">
        <ele>96</ele>
        <time>2021-08-22T09:52:19.000Z</time>
      </trkpt>
      <trkpt lat="47.50336" lon="-1.4731">
        <ele>96</ele>
        <time>2021-08-22T09:52:21.000Z</time>
      </trkpt>
      <trkpt lat="47.50333" lon="-1.47291">
        <ele>95</ele>
        <time>2021-08-22T09:52:23.000Z</time>
      </trkpt>
      <trkpt lat="47.50329" lon="-1.47271">
        <ele>96</ele>
        <time>2021-08-22T09:52:25.000Z</time>
      </trkpt>
      <trkpt lat="47.50325" lon="-1.47251">
        <ele>96</ele>
        <time>2021-08-22T09:52:27.000Z</time>
      </trkpt>
      <trkpt lat="47.50321" lon="-1.47231">
        <ele>96</ele>
        <time>2021-08-22T09:52:29.000Z</time>
      </trkpt>
      <trkpt lat="47.50318" lon="-1.47212">
        <ele>96</ele>
        <time>2021-08-22T09:52:31.000Z</time>
      </trkpt>
      <trkpt lat="47.50314" lon="-1.47191">
        <ele>96</ele>
        <time>2021-08-22T09:52:33.000Z</time>
      </trkpt>
      <trkpt lat="47.5031" lon="-1.47172">
        <ele>97</ele>
        <time>2021-08-22T09:52:35.000Z</time>
      </trkpt>
      <trkpt lat="47.50306" lon="-1.47153">
        <ele>97</ele>
        <time>2021-08-22T09:52:37.000Z</time>
      </trkpt>
      <trkpt lat="47.50303" lon="-1.47133">
        <ele>97</ele>
        <time>2021-08-22T09:52:39.000Z</time>
      </trkpt>
      <trkpt lat="47.50299" lon="-1.47114">
        <ele>97</ele>
        <time>2021-08-22T09:52:41.000Z</time>
      </trkpt>
      <trkpt lat="47.50295" lon="-1.47094">
        <ele>97</ele>
        <time>2021-08-22T09:52:43.000Z</time>
      </trkpt>
      <trkpt lat="47.50292" lon="-1.47074">
        <ele>98</ele>
        <time>2021-08-22T09:52:45.000Z</time>
      </trkpt>
      <trkpt lat="47.50288" lon="-1.47055">
        <ele>98</ele>
        <time>2021-08-22T09:52:47.000Z</time>
      </trkpt>
      <trkpt lat="47.50284" lon="-1.47036">
        <ele>98</ele>
        <time>2021-08-22T09:52:49.000Z</time>
      </trkpt>
      <trkpt lat="47.50281" lon="-1.47017">
        <ele>98</ele>
        <time>2021-08-22T09:52:51.000Z</time>
      </trkpt>
      <trkpt lat="47.50277" lon="-1.46998">
        <ele>98</ele>
        <time>2021-08-22T09:52:53.000Z</time>
      </trkpt>
      <trkpt lat="47.50273" lon="-1.4698">
        <ele>99</ele>
        <time>2021-08-22T09:52:55.000Z</time>
      </trkpt>
      <trkpt lat="47.50269" lon="-1.4696">
        <ele>99</ele>
        <time>2021-08-22T09:52:57.000Z</time>
      </trkpt>
      <trkpt lat="47.50266" lon="-1.46942">
        <ele>99</ele>
        <time>2021-08-22T09:52:59.000Z</time>
      </trkpt>
      <trkpt lat="47.50262" lon="-1.46923">
        <ele>100</ele>
        <time>2021-08-22T09:53:01.000Z</time>
      </trkpt>
      <trkpt lat="47.50259" lon="-1.46904">
        <ele>100</ele>
        <time>2021-08-22T09:53:03.000Z</time>
      </trkpt>
      <trkpt lat="47.50255" lon="-1.46886">
        <ele>100</ele>
        <time>2021-08-22T09:53:05.000Z</time>
      </trkpt>
      <trkpt lat="47.50251" lon="-1.46868">
        <ele>100</ele>
        <time>2021-08-22T09:53:07.000Z</time>
      </trkpt>
      <trkpt lat="47.50248" lon="-1.4685">
        <ele>100</ele>
        <time>2021-08-22T09:53:09.000Z</time>
      </trkpt>
      <trkpt lat="47.50244" lon="-1.46831">
        <ele>100</ele>
        <time>2021-08-22T09:53:11.000Z</time>
      </trkpt>
      <trkpt lat="47.50241" lon="-1.46812">
        <ele>100</ele>
        <time>2021-08-22T09:53:13.000Z</time>
      </trkpt>
      <trkpt lat="47.50237" lon="-1.46793">
        <ele>100</ele>
        <time>2021-08-22T09:53:15.000Z</time>
      </trkpt>
      <trkpt lat="47.50234" lon="-1.46773">
        <ele>99</ele>
        <time>2021-08-22T09:53:17.000Z</time>
      </trkpt>
      <trkpt lat="47.50231" lon="-1.46753">
        <ele>99</ele>
        <time>2021-08-22T09:53:19.000Z</time>
      </trkpt>
      <trkpt lat="47.50227" lon="-1.46733">
        <ele>99</ele>
        <time>2021-08-22T09:53:21.000Z</time>
      </trkpt>
      <trkpt lat="47.50223" lon="-1.46712">
        <ele>98</ele>
        <time>2021-08-22T09:53:23.000Z</time>
      </trkpt>
      <trkpt lat="47.50219" lon="-1.4669">
        <ele>98</ele>
        <time>2021-08-22T09:53:25.000Z</time>
      </trkpt>
      <trkpt lat="47.50215" lon="-1.46669">
        <ele>98</ele>
        <time>2021-08-22T09:53:27.000Z</time>
      </trkpt>
      <trkpt lat="47.50211" lon="-1.46647">
        <ele>97</ele>
        <time>2021-08-22T09:53:29.000Z</time>
      </trkpt>
      <trkpt lat="47.50207" lon="-1.46624">
        <ele>97</ele>
        <time>2021-08-22T09:53:31.000Z</time>
      </trkpt>
      <trkpt lat="47.50202" lon="-1.46601">
        <ele>96</ele>
        <time>2021-08-22T09:53:33.000Z</time>
      </trkpt>
      <trkpt lat="47.50198" lon="-1.46578">
        <ele>96</ele>
        <time>2021-08-22T09:53:35.000Z</time>
      </trkpt>
      <trkpt lat="47.50193" lon="-1.46553">
        <ele>95</ele>
        <time>2021-08-22T09:53:37.000Z</time>
      </trkpt>
      <trkpt lat="47.50189" lon="-1.46529">
        <ele>95</ele>
        <time>2021-08-22T09:53:39.000Z</time>
      </trkpt>
      <trkpt lat="47.50184" lon="-1.46503">
        <ele>94</ele>
        <time>2021-08-22T09:53:41.000Z</time>
      </trkpt>
      <trkpt lat="47.5018" lon="-1.46478">
        <ele>94</ele>
        <time>2021-08-22T09:53:43.000Z</time>
      </trkpt>
      <trkpt lat="47.50176" lon="-1.46454">
        <ele>94</ele>
        <time>2021-08-22T09:53:45.000Z</time>
      </trkpt>
      <trkpt lat="47.50171" lon="-1.46431">
        <ele>94</ele>
        <time>2021-08-22T09:53:47.000Z</time>
      </trkpt>
      <trkpt lat="47.50167" lon="-1.46406">
        <ele>94</ele>
        <time>2021-08-22T09:53:49.000Z</time>
      </trkpt>
      <trkpt lat="47.50163" lon="-1.46383">
        <ele>94</ele>
        <time>2021-08-22T09:53:51.000Z</time>
      </trkpt>
      <trkpt lat="47.50158" lon="-1.4636">
        <ele>94</ele>
        <time>2021-08-22T09:53:53.000Z</time>
      </trkpt>
      <trkpt lat="47.50154" lon="-1.46337">
        <ele>94</ele>
        <time>2021-08-22T09:53:55.000Z</time>
      </trkpt>
      <trkpt lat="47.5015" lon="-1.46315">
        <ele>94</ele>
        <time>2021-08-22T09:53:57.000Z</time>
      </trkpt>
      <trkpt lat="47.50146" lon="-1.46292">
        <ele>94</ele>
        <time>2021-08-22T09:53:59.000Z</time>
      </trkpt>
      <trkpt lat="47.50142" lon="-1.46269">
        <ele>93</ele>
        <time>2021-08-22T09:54:01.000Z</time>
      </trkpt>
      <trkpt lat="47.50137" lon="-1.46248">
        <ele>93</ele>
        <time>2021-08-22T09:54:03.000Z</time>
      </trkpt>
      <trkpt lat="47.50133" lon="-1.46226">
        <ele>93</ele>
        <time>2021-08-22T09:54:05.000Z</time>
      </trkpt>
      <trkpt lat="47.50129" lon="-1.46204">
        <ele>93</ele>
        <time>2021-08-22T09:54:07.000Z</time>
      </trkpt>
      <trkpt lat="47.50124" lon="-1.4618">
        <ele>92</ele>
        <time>2021-08-22T09:54:09.000Z</time>
      </trkpt>
      <trkpt lat="47.5012" lon="-1.46156">
        <ele>92</ele>
        <time>2021-08-22T09:54:11.000Z</time>
      </trkpt>
      <trkpt lat="47.50116" lon="-1.46132">
        <ele>91</ele>
        <time>2021-08-22T09:54:13.000Z</time>
      </trkpt>
      <trkpt lat="47.50111" lon="-1.46106">
        <ele>90</ele>
        <time>2021-08-22T09:54:15.000Z</time>
      </trkpt>
      <trkpt lat="47.50109" lon="-1.46094">
        <ele>89</ele>
        <time>2021-08-22T09:54:16.000Z</time>
      </trkpt>
      <trkpt lat="47.50106" lon="-1.46081">
        <ele>88</ele>
        <time>2021-08-22T09:54:17.000Z</time>
      </trkpt>
      <trkpt lat="47.50104" lon="-1.46067">
        <ele>88</ele>
        <time>2021-08-22T09:54:18.000Z</time>
      </trkpt>
      <trkpt lat="47.50101" lon="-1.46054">
        <ele>88</ele>
        <time>2021-08-22T09:54:19.000Z</time>
      </trkpt>
      <trkpt lat="47.50099" lon="-1.46041">
        <ele>87</ele>
        <time>2021-08-22T09:54:20.000Z</time>
      </trkpt>
      <trkpt lat="47.50096" lon="-1.46028">
        <ele>87</ele>
        <time>2021-08-22T09:54:21.000Z</time>
      </trkpt>
      <trkpt lat="47.50094" lon="-1.46014">
        <ele>87</ele>
        <time>2021-08-22T09:54:22.000Z</time>
      </trkpt>
      <trkpt lat="47.50091" lon="-1.46">
        <ele>86</ele>
        <time>2021-08-22T09:54:23.000Z</time>
      </trkpt>
      <trkpt lat="47.50089" lon="-1.45987">
        <ele>86</ele>
        <time>2021-08-22T09:54:24.000Z</time>
      </trkpt>
      <trkpt lat="47.50086" lon="-1.45973">
        <ele>86</ele>
        <time>2021-08-22T09:54:25.000Z</time>
      </trkpt>
      <trkpt lat="47.50084" lon="-1.45959">
        <ele>86</ele>
        <time>2021-08-22T09:54:26.000Z</time>
      </trkpt>
      <trkpt lat="47.50082" lon="-1.45945">
        <ele>86</ele>
        <time>2021-08-22T09:54:27.000Z</time>
      </trkpt>
      <trkpt lat="47.50079" lon="-1.45932">
        <ele>86</ele>
        <time>2021-08-22T09:54:28.000Z</time>
      </trkpt>
      <trkpt lat="47.50077" lon="-1.45919">
        <ele>86</ele>
        <time>2021-08-22T09:54:29.000Z</time>
      </trkpt>
      <trkpt lat="47.50072" lon="-1.45894">
        <ele>86</ele>
        <time>2021-08-22T09:54:31.000Z</time>
      </trkpt>
      <trkpt lat="47.50067" lon="-1.45871">
        <ele>86</ele>
        <time>2021-08-22T09:54:33.000Z</time>
      </trkpt>
      <trkpt lat="47.50063" lon="-1.45847">
        <ele>86</ele>
        <time>2021-08-22T09:54:35.000Z</time>
      </trkpt>
      <trkpt lat="47.50058" lon="-1.45825">
        <ele>86</ele>
        <time>2021-08-22T09:54:37.000Z</time>
      </trkpt>
      <trkpt lat="47.50055" lon="-1.45803">
        <ele>86</ele>
        <time>2021-08-22T09:54:39.000Z</time>
      </trkpt>
      <trkpt lat="47.50051" lon="-1.45782">
        <ele>86</ele>
        <time>2021-08-22T09:54:41.000Z</time>
      </trkpt>
      <trkpt lat="47.50047" lon="-1.4576">
        <ele>86</ele>
        <time>2021-08-22T09:54:43.000Z</time>
      </trkpt>
      <trkpt lat="47.50043" lon="-1.45738">
        <ele>86</ele>
        <time>2021-08-22T09:54:45.000Z</time>
      </trkpt>
      <trkpt lat="47.50039" lon="-1.45715">
        <ele>86</ele>
        <time>2021-08-22T09:54:47.000Z</time>
      </trkpt>
      <trkpt lat="47.50034" lon="-1.45692">
        <ele>86</ele>
        <time>2021-08-22T09:54:49.000Z</time>
      </trkpt>
      <trkpt lat="47.5003" lon="-1.4567">
        <ele>86</ele>
        <time>2021-08-22T09:54:51.000Z</time>
      </trkpt>
      <trkpt lat="47.50026" lon="-1.45647">
        <ele>86</ele>
        <time>2021-08-22T09:54:53.000Z</time>
      </trkpt>
      <trkpt lat="47.50021" lon="-1.45624">
        <ele>85</ele>
        <time>2021-08-22T09:54:55.000Z</time>
      </trkpt>
      <trkpt lat="47.50018" lon="-1.45601">
        <ele>85</ele>
        <time>2021-08-22T09:54:57.000Z</time>
      </trkpt>
      <trkpt lat="47.50015" lon="-1.45577">
        <ele>85</ele>
        <time>2021-08-22T09:54:59.000Z</time>
      </trkpt>
      <trkpt lat="47.50013" lon="-1.45552">
        <ele>85</ele>
        <time>2021-08-22T09:55:01.000Z</time>
      </trkpt>
      <trkpt lat="47.50012" lon="-1.45527">
        <ele>84</ele>
        <time>2021-08-22T09:55:03.000Z</time>
      </trkpt>
      <trkpt lat="47.50012" lon="-1.45502">
        <ele>84</ele>
        <time>2021-08-22T09:55:05.000Z</time>
      </trkpt>
      <trkpt lat="47.50012" lon="-1.45477">
        <ele>84</ele>
        <time>2021-08-22T09:55:07.000Z</time>
      </trkpt>
      <trkpt lat="47.50013" lon="-1.45453">
        <ele>84</ele>
        <time>2021-08-22T09:55:09.000Z</time>
      </trkpt>
      <trkpt lat="47.50013" lon="-1.45429">
        <ele>83</ele>
        <time>2021-08-22T09:55:11.000Z</time>
      </trkpt>
      <trkpt lat="47.50014" lon="-1.45403">
        <ele>82</ele>
        <time>2021-08-22T09:55:13.000Z</time>
      </trkpt>
      <trkpt lat="47.50014" lon="-1.45377">
        <ele>81</ele>
        <time>2021-08-22T09:55:15.000Z</time>
      </trkpt>
      <trkpt lat="47.50014" lon="-1.45364">
        <ele>81</ele>
        <time>2021-08-22T09:55:16.000Z</time>
      </trkpt>
      <trkpt lat="47.50014" lon="-1.4535">
        <ele>81</ele>
        <time>2021-08-22T09:55:17.000Z</time>
      </trkpt>
      <trkpt lat="47.50014" lon="-1.45336">
        <ele>81</ele>
        <time>2021-08-22T09:55:18.000Z</time>
      </trkpt>
      <trkpt lat="47.50015" lon="-1.45322">
        <ele>81</ele>
        <time>2021-08-22T09:55:19.000Z</time>
      </trkpt>
      <trkpt lat="47.50015" lon="-1.45309">
        <ele>81</ele>
        <time>2021-08-22T09:55:20.000Z</time>
      </trkpt>
      <trkpt lat="47.50015" lon="-1.45295">
        <ele>80</ele>
        <time>2021-08-22T09:55:21.000Z</time>
      </trkpt>
      <trkpt lat="47.50015" lon="-1.45281">
        <ele>80</ele>
        <time>2021-08-22T09:55:22.000Z</time>
      </trkpt>
      <trkpt lat="47.50015" lon="-1.45266">
        <ele>80</ele>
        <time>2021-08-22T09:55:23.000Z</time>
      </trkpt>
      <trkpt lat="47.50015" lon="-1.45252">
        <ele>80</ele>
        <time>2021-08-22T09:55:24.000Z</time>
      </trkpt>
      <trkpt lat="47.50016" lon="-1.45237">
        <ele>79</ele>
        <time>2021-08-22T09:55:25.000Z</time>
      </trkpt>
      <trkpt lat="47.50016" lon="-1.45223">
        <ele>79</ele>
        <time>2021-08-22T09:55:26.000Z</time>
      </trkpt>
      <trkpt lat="47.50016" lon="-1.45209">
        <ele>79</ele>
        <time>2021-08-22T09:55:27.000Z</time>
      </trkpt>
      <trkpt lat="47.50016" lon="-1.45195">
        <ele>78</ele>
        <time>2021-08-22T09:55:28.000Z</time>
      </trkpt>
      <trkpt lat="47.50016" lon="-1.4518">
        <ele>78</ele>
        <time>2021-08-22T09:55:29.000Z</time>
      </trkpt>
      <trkpt lat="47.50016" lon="-1.45165">
        <ele>77</ele>
        <time>2021-08-22T09:55:30.000Z</time>
      </trkpt>
      <trkpt lat="47.50017" lon="-1.4515">
        <ele>77</ele>
        <time>2021-08-22T09:55:31.000Z</time>
      </trkpt>
      <trkpt lat="47.50017" lon="-1.45136">
        <ele>76</ele>
        <time>2021-08-22T09:55:32.000Z</time>
      </trkpt>
      <trkpt lat="47.50018" lon="-1.45121">
        <ele>76</ele>
        <time>2021-08-22T09:55:33.000Z</time>
      </trkpt>
      <trkpt lat="47.50018" lon="-1.45107">
        <ele>75</ele>
        <time>2021-08-22T09:55:34.000Z</time>
      </trkpt>
      <trkpt lat="47.50018" lon="-1.45093">
        <ele>75</ele>
        <time>2021-08-22T09:55:35.000Z</time>
      </trkpt>
      <trkpt lat="47.50019" lon="-1.45078">
        <ele>74</ele>
        <time>2021-08-22T09:55:36.000Z</time>
      </trkpt>
      <trkpt lat="47.50018" lon="-1.45063">
        <ele>73</ele>
        <time>2021-08-22T09:55:37.000Z</time>
      </trkpt>
      <trkpt lat="47.50018" lon="-1.45049">
        <ele>73</ele>
        <time>2021-08-22T09:55:38.000Z</time>
      </trkpt>
      <trkpt lat="47.50017" lon="-1.45034">
        <ele>72</ele>
        <time>2021-08-22T09:55:39.000Z</time>
      </trkpt>
      <trkpt lat="47.50014" lon="-1.45019">
        <ele>71</ele>
        <time>2021-08-22T09:55:40.000Z</time>
      </trkpt>
      <trkpt lat="47.5001" lon="-1.45006">
        <ele>70</ele>
        <time>2021-08-22T09:55:41.000Z</time>
      </trkpt>
      <trkpt lat="47.50006" lon="-1.44992">
        <ele>70</ele>
        <time>2021-08-22T09:55:42.000Z</time>
      </trkpt>
      <trkpt lat="47.50001" lon="-1.4498">
        <ele>69</ele>
        <time>2021-08-22T09:55:43.000Z</time>
      </trkpt>
      <trkpt lat="47.49995" lon="-1.44968">
        <ele>68</ele>
        <time>2021-08-22T09:55:44.000Z</time>
      </trkpt>
      <trkpt lat="47.49988" lon="-1.44957">
        <ele>67</ele>
        <time>2021-08-22T09:55:45.000Z</time>
      </trkpt>
      <trkpt lat="47.49981" lon="-1.44946">
        <ele>67</ele>
        <time>2021-08-22T09:55:46.000Z</time>
      </trkpt>
      <trkpt lat="47.49974" lon="-1.44934">
        <ele>66</ele>
        <time>2021-08-22T09:55:47.000Z</time>
      </trkpt>
      <trkpt lat="47.49967" lon="-1.44923">
        <ele>65</ele>
        <time>2021-08-22T09:55:48.000Z</time>
      </trkpt>
      <trkpt lat="47.4996" lon="-1.44911">
        <ele>64</ele>
        <time>2021-08-22T09:55:49.000Z</time>
      </trkpt>
      <trkpt lat="47.49953" lon="-1.449">
        <ele>63</ele>
        <time>2021-08-22T09:55:50.000Z</time>
      </trkpt>
      <trkpt lat="47.49946" lon="-1.44888">
        <ele>63</ele>
        <time>2021-08-22T09:55:51.000Z</time>
      </trkpt>
      <trkpt lat="47.49939" lon="-1.44876">
        <ele>62</ele>
        <time>2021-08-22T09:55:52.000Z</time>
      </trkpt>
      <trkpt lat="47.49933" lon="-1.44866">
        <ele>62</ele>
        <time>2021-08-22T09:55:53.000Z</time>
      </trkpt>
      <trkpt lat="47.49926" lon="-1.44855">
        <ele>62</ele>
        <time>2021-08-22T09:55:54.000Z</time>
      </trkpt>
      <trkpt lat="47.4992" lon="-1.44844">
        <ele>62</ele>
        <time>2021-08-22T09:55:55.000Z</time>
      </trkpt>
      <trkpt lat="47.49914" lon="-1.44834">
        <ele>62</ele>
        <time>2021-08-22T09:55:56.000Z</time>
      </trkpt>
      <trkpt lat="47.49908" lon="-1.44825">
        <ele>62</ele>
        <time>2021-08-22T09:55:57.000Z</time>
      </trkpt>
      <trkpt lat="47.49896" lon="-1.44806">
        <ele>62</ele>
        <time>2021-08-22T09:55:59.000Z</time>
      </trkpt>
      <trkpt lat="47.49885" lon="-1.44789">
        <ele>63</ele>
        <time>2021-08-22T09:56:01.000Z</time>
      </trkpt>
      <trkpt lat="47.49875" lon="-1.44771">
        <ele>63</ele>
        <time>2021-08-22T09:56:03.000Z</time>
      </trkpt>
      <trkpt lat="47.49865" lon="-1.44754">
        <ele>63</ele>
        <time>2021-08-22T09:56:05.000Z</time>
      </trkpt>
      <trkpt lat="47.49856" lon="-1.44738">
        <ele>63</ele>
        <time>2021-08-22T09:56:07.000Z</time>
      </trkpt>
      <trkpt lat="47.49846" lon="-1.44722">
        <ele>63</ele>
        <time>2021-08-22T09:56:09.000Z</time>
      </trkpt>
      <trkpt lat="47.49836" lon="-1.44706">
        <ele>63</ele>
        <time>2021-08-22T09:56:11.000Z</time>
      </trkpt>
      <trkpt lat="47.49827" lon="-1.4469">
        <ele>63</ele>
        <time>2021-08-22T09:56:13.000Z</time>
      </trkpt>
      <trkpt lat="47.49818" lon="-1.44675">
        <ele>64</ele>
        <time>2021-08-22T09:56:15.000Z</time>
      </trkpt>
      <trkpt lat="47.49809" lon="-1.44658">
        <ele>64</ele>
        <time>2021-08-22T09:56:17.000Z</time>
      </trkpt>
      <trkpt lat="47.49801" lon="-1.4464">
        <ele>64</ele>
        <time>2021-08-22T09:56:19.000Z</time>
      </trkpt>
      <trkpt lat="47.49795" lon="-1.44621">
        <ele>64</ele>
        <time>2021-08-22T09:56:21.000Z</time>
      </trkpt>
      <trkpt lat="47.49791" lon="-1.446">
        <ele>65</ele>
        <time>2021-08-22T09:56:23.000Z</time>
      </trkpt>
      <trkpt lat="47.4979" lon="-1.44578">
        <ele>65</ele>
        <time>2021-08-22T09:56:25.000Z</time>
      </trkpt>
      <trkpt lat="47.4979" lon="-1.44557">
        <ele>65</ele>
        <time>2021-08-22T09:56:27.000Z</time>
      </trkpt>
      <trkpt lat="47.4979" lon="-1.44536">
        <ele>65</ele>
        <time>2021-08-22T09:56:29.000Z</time>
      </trkpt>
      <trkpt lat="47.4979" lon="-1.44514">
        <ele>66</ele>
        <time>2021-08-22T09:56:31.000Z</time>
      </trkpt>
      <trkpt lat="47.49791" lon="-1.44494">
        <ele>65</ele>
        <time>2021-08-22T09:56:33.000Z</time>
      </trkpt>
      <trkpt lat="47.49791" lon="-1.44474">
        <ele>66</ele>
        <time>2021-08-22T09:56:35.000Z</time>
      </trkpt>
      <trkpt lat="47.49791" lon="-1.44453">
        <ele>66</ele>
        <time>2021-08-22T09:56:37.000Z</time>
      </trkpt>
      <trkpt lat="47.49791" lon="-1.44432">
        <ele>66</ele>
        <time>2021-08-22T09:56:39.000Z</time>
      </trkpt>
      <trkpt lat="47.49792" lon="-1.44412">
        <ele>65</ele>
        <time>2021-08-22T09:56:41.000Z</time>
      </trkpt>
      <trkpt lat="47.49793" lon="-1.44381">
        <ele>65</ele>
        <time>2021-08-22T09:56:44.000Z</time>
      </trkpt>
      <trkpt lat="47.49794" lon="-1.44362">
        <ele>65</ele>
        <time>2021-08-22T09:56:46.000Z</time>
      </trkpt>
      <trkpt lat="47.49794" lon="-1.44342">
        <ele>65</ele>
        <time>2021-08-22T09:56:48.000Z</time>
      </trkpt>
      <trkpt lat="47.49794" lon="-1.44324">
        <ele>66</ele>
        <time>2021-08-22T09:56:50.000Z</time>
      </trkpt>
      <trkpt lat="47.49795" lon="-1.44306">
        <ele>67</ele>
        <time>2021-08-22T09:56:52.000Z</time>
      </trkpt>
      <trkpt lat="47.49795" lon="-1.44289">
        <ele>68</ele>
        <time>2021-08-22T09:56:54.000Z</time>
      </trkpt>
      <trkpt lat="47.49795" lon="-1.44272">
        <ele>69</ele>
        <time>2021-08-22T09:56:56.000Z</time>
      </trkpt>
      <trkpt lat="47.49795" lon="-1.44255">
        <ele>69</ele>
        <time>2021-08-22T09:56:58.000Z</time>
      </trkpt>
      <trkpt lat="47.49795" lon="-1.44239">
        <ele>70</ele>
        <time>2021-08-22T09:57:00.000Z</time>
      </trkpt>
      <trkpt lat="47.49795" lon="-1.44224">
        <ele>70</ele>
        <time>2021-08-22T09:57:02.000Z</time>
      </trkpt>
      <trkpt lat="47.49795" lon="-1.44199">
        <ele>71</ele>
        <time>2021-08-22T09:57:05.000Z</time>
      </trkpt>
      <trkpt lat="47.49796" lon="-1.44183">
        <ele>71</ele>
        <time>2021-08-22T09:57:07.000Z</time>
      </trkpt>
      <trkpt lat="47.49797" lon="-1.44167">
        <ele>72</ele>
        <time>2021-08-22T09:57:09.000Z</time>
      </trkpt>
      <trkpt lat="47.498" lon="-1.44151">
        <ele>72</ele>
        <time>2021-08-22T09:57:11.000Z</time>
      </trkpt>
      <trkpt lat="47.49803" lon="-1.44136">
        <ele>72</ele>
        <time>2021-08-22T09:57:13.000Z</time>
      </trkpt>
      <trkpt lat="47.49807" lon="-1.44121">
        <ele>72</ele>
        <time>2021-08-22T09:57:15.000Z</time>
      </trkpt>
      <trkpt lat="47.49811" lon="-1.44106">
        <ele>72</ele>
        <time>2021-08-22T09:57:17.000Z</time>
      </trkpt>
      <trkpt lat="47.49818" lon="-1.44082">
        <ele>72</ele>
        <time>2021-08-22T09:57:20.000Z</time>
      </trkpt>
      <trkpt lat="47.49824" lon="-1.44065">
        <ele>72</ele>
        <time>2021-08-22T09:57:22.000Z</time>
      </trkpt>
      <trkpt lat="47.49829" lon="-1.44048">
        <ele>71</ele>
        <time>2021-08-22T09:57:24.000Z</time>
      </trkpt>
      <trkpt lat="47.49835" lon="-1.4403">
        <ele>71</ele>
        <time>2021-08-22T09:57:26.000Z</time>
      </trkpt>
      <trkpt lat="47.49843" lon="-1.44003">
        <ele>72</ele>
        <time>2021-08-22T09:57:29.000Z</time>
      </trkpt>
      <trkpt lat="47.49851" lon="-1.43974">
        <ele>72</ele>
        <time>2021-08-22T09:57:32.000Z</time>
      </trkpt>
      <trkpt lat="47.49855" lon="-1.43955">
        <ele>72</ele>
        <time>2021-08-22T09:57:34.000Z</time>
      </trkpt>
      <trkpt lat="47.49858" lon="-1.43937">
        <ele>71</ele>
        <time>2021-08-22T09:57:36.000Z</time>
      </trkpt>
      <trkpt lat="47.49859" lon="-1.43918">
        <ele>72</ele>
        <time>2021-08-22T09:57:38.000Z</time>
      </trkpt>
      <trkpt lat="47.4986" lon="-1.439">
        <ele>71</ele>
        <time>2021-08-22T09:57:40.000Z</time>
      </trkpt>
      <trkpt lat="47.49859" lon="-1.43883">
        <ele>71</ele>
        <time>2021-08-22T09:57:42.000Z</time>
      </trkpt>
      <trkpt lat="47.49859" lon="-1.43864">
        <ele>71</ele>
        <time>2021-08-22T09:57:44.000Z</time>
      </trkpt>
      <trkpt lat="47.49859" lon="-1.43845">
        <ele>71</ele>
        <time>2021-08-22T09:57:46.000Z</time>
      </trkpt>
      <trkpt lat="47.49858" lon="-1.43827">
        <ele>72</ele>
        <time>2021-08-22T09:57:48.000Z</time>
      </trkpt>
      <trkpt lat="47.49857" lon="-1.43808">
        <ele>72</ele>
        <time>2021-08-22T09:57:50.000Z</time>
      </trkpt>
      <trkpt lat="47.49856" lon="-1.43788">
        <ele>72</ele>
        <time>2021-08-22T09:57:52.000Z</time>
      </trkpt>
      <trkpt lat="47.49855" lon="-1.43768">
        <ele>72</ele>
        <time>2021-08-22T09:57:54.000Z</time>
      </trkpt>
      <trkpt lat="47.49855" lon="-1.43749">
        <ele>72</ele>
        <time>2021-08-22T09:57:56.000Z</time>
      </trkpt>
      <trkpt lat="47.49855" lon="-1.4373">
        <ele>73</ele>
        <time>2021-08-22T09:57:58.000Z</time>
      </trkpt>
      <trkpt lat="47.49855" lon="-1.43711">
        <ele>73</ele>
        <time>2021-08-22T09:58:00.000Z</time>
      </trkpt>
      <trkpt lat="47.49857" lon="-1.43692">
        <ele>74</ele>
        <time>2021-08-22T09:58:02.000Z</time>
      </trkpt>
      <trkpt lat="47.4986" lon="-1.43672">
        <ele>75</ele>
        <time>2021-08-22T09:58:04.000Z</time>
      </trkpt>
      <trkpt lat="47.49863" lon="-1.43654">
        <ele>75</ele>
        <time>2021-08-22T09:58:06.000Z</time>
      </trkpt>
      <trkpt lat="47.49867" lon="-1.43635">
        <ele>75</ele>
        <time>2021-08-22T09:58:08.000Z</time>
      </trkpt>
      <trkpt lat="47.49872" lon="-1.43614">
        <ele>75</ele>
        <time>2021-08-22T09:58:10.000Z</time>
      </trkpt>
      <trkpt lat="47.49877" lon="-1.43593">
        <ele>75</ele>
        <time>2021-08-22T09:58:12.000Z</time>
      </trkpt>
      <trkpt lat="47.49882" lon="-1.4357">
        <ele>74</ele>
        <time>2021-08-22T09:58:14.000Z</time>
      </trkpt>
      <trkpt lat="47.49888" lon="-1.43547">
        <ele>73</ele>
        <time>2021-08-22T09:58:16.000Z</time>
      </trkpt>
      <trkpt lat="47.49893" lon="-1.43523">
        <ele>72</ele>
        <time>2021-08-22T09:58:18.000Z</time>
      </trkpt>
      <trkpt lat="47.49897" lon="-1.43498">
        <ele>71</ele>
        <time>2021-08-22T09:58:20.000Z</time>
      </trkpt>
      <trkpt lat="47.49897" lon="-1.43472">
        <ele>70</ele>
        <time>2021-08-22T09:58:22.000Z</time>
      </trkpt>
      <trkpt lat="47.49895" lon="-1.43446">
        <ele>69</ele>
        <time>2021-08-22T09:58:24.000Z</time>
      </trkpt>
      <trkpt lat="47.49893" lon="-1.43433">
        <ele>68</ele>
        <time>2021-08-22T09:58:25.000Z</time>
      </trkpt>
      <trkpt lat="47.4989" lon="-1.43407">
        <ele>67</ele>
        <time>2021-08-22T09:58:27.000Z</time>
      </trkpt>
      <trkpt lat="47.49886" lon="-1.43381">
        <ele>66</ele>
        <time>2021-08-22T09:58:29.000Z</time>
      </trkpt>
      <trkpt lat="47.49881" lon="-1.43356">
        <ele>65</ele>
        <time>2021-08-22T09:58:31.000Z</time>
      </trkpt>
      <trkpt lat="47.49877" lon="-1.43332">
        <ele>65</ele>
        <time>2021-08-22T09:58:33.000Z</time>
      </trkpt>
      <trkpt lat="47.49873" lon="-1.43307">
        <ele>65</ele>
        <time>2021-08-22T09:58:35.000Z</time>
      </trkpt>
      <trkpt lat="47.49869" lon="-1.43281">
        <ele>64</ele>
        <time>2021-08-22T09:58:37.000Z</time>
      </trkpt>
      <trkpt lat="47.49866" lon="-1.43257">
        <ele>64</ele>
        <time>2021-08-22T09:58:39.000Z</time>
      </trkpt>
      <trkpt lat="47.49862" lon="-1.43233">
        <ele>63</ele>
        <time>2021-08-22T09:58:41.000Z</time>
      </trkpt>
      <trkpt lat="47.49858" lon="-1.4321">
        <ele>63</ele>
        <time>2021-08-22T09:58:43.000Z</time>
      </trkpt>
      <trkpt lat="47.49855" lon="-1.43188">
        <ele>63</ele>
        <time>2021-08-22T09:58:45.000Z</time>
      </trkpt>
      <trkpt lat="47.49851" lon="-1.43166">
        <ele>63</ele>
        <time>2021-08-22T09:58:47.000Z</time>
      </trkpt>
      <trkpt lat="47.49848" lon="-1.43144">
        <ele>63</ele>
        <time>2021-08-22T09:58:49.000Z</time>
      </trkpt>
      <trkpt lat="47.49845" lon="-1.43122">
        <ele>62</ele>
        <time>2021-08-22T09:58:51.000Z</time>
      </trkpt>
      <trkpt lat="47.49841" lon="-1.431">
        <ele>63</ele>
        <time>2021-08-22T09:58:53.000Z</time>
      </trkpt>
      <trkpt lat="47.49837" lon="-1.43078">
        <ele>63</ele>
        <time>2021-08-22T09:58:55.000Z</time>
      </trkpt>
      <trkpt lat="47.49833" lon="-1.43056">
        <ele>62</ele>
        <time>2021-08-22T09:58:57.000Z</time>
      </trkpt>
      <trkpt lat="47.49829" lon="-1.43034">
        <ele>63</ele>
        <time>2021-08-22T09:58:59.000Z</time>
      </trkpt>
      <trkpt lat="47.49826" lon="-1.43012">
        <ele>63</ele>
        <time>2021-08-22T09:59:01.000Z</time>
      </trkpt>
      <trkpt lat="47.49822" lon="-1.42991">
        <ele>63</ele>
        <time>2021-08-22T09:59:03.000Z</time>
      </trkpt>
      <trkpt lat="47.49818" lon="-1.4297">
        <ele>63</ele>
        <time>2021-08-22T09:59:05.000Z</time>
      </trkpt>
      <trkpt lat="47.49815" lon="-1.42948">
        <ele>63</ele>
        <time>2021-08-22T09:59:07.000Z</time>
      </trkpt>
      <trkpt lat="47.49812" lon="-1.42925">
        <ele>63</ele>
        <time>2021-08-22T09:59:09.000Z</time>
      </trkpt>
      <trkpt lat="47.49809" lon="-1.42904">
        <ele>63</ele>
        <time>2021-08-22T09:59:11.000Z</time>
      </trkpt>
      <trkpt lat="47.49806" lon="-1.42883">
        <ele>64</ele>
        <time>2021-08-22T09:59:13.000Z</time>
      </trkpt>
      <trkpt lat="47.49804" lon="-1.42861">
        <ele>64</ele>
        <time>2021-08-22T09:59:15.000Z</time>
      </trkpt>
      <trkpt lat="47.49802" lon="-1.42839">
        <ele>64</ele>
        <time>2021-08-22T09:59:17.000Z</time>
      </trkpt>
      <trkpt lat="47.49801" lon="-1.42817">
        <ele>64</ele>
        <time>2021-08-22T09:59:19.000Z</time>
      </trkpt>
      <trkpt lat="47.498" lon="-1.42796">
        <ele>65</ele>
        <time>2021-08-22T09:59:21.000Z</time>
      </trkpt>
      <trkpt lat="47.498" lon="-1.42774">
        <ele>64</ele>
        <time>2021-08-22T09:59:23.000Z</time>
      </trkpt>
      <trkpt lat="47.49799" lon="-1.42751">
        <ele>64</ele>
        <time>2021-08-22T09:59:25.000Z</time>
      </trkpt>
      <trkpt lat="47.49798" lon="-1.42731">
        <ele>64</ele>
        <time>2021-08-22T09:59:27.000Z</time>
      </trkpt>
      <trkpt lat="47.49798" lon="-1.4271">
        <ele>65</ele>
        <time>2021-08-22T09:59:29.000Z</time>
      </trkpt>
      <trkpt lat="47.49797" lon="-1.42691">
        <ele>65</ele>
        <time>2021-08-22T09:59:31.000Z</time>
      </trkpt>
      <trkpt lat="47.49796" lon="-1.4267">
        <ele>65</ele>
        <time>2021-08-22T09:59:33.000Z</time>
      </trkpt>
      <trkpt lat="47.49795" lon="-1.4265">
        <ele>65</ele>
        <time>2021-08-22T09:59:35.000Z</time>
      </trkpt>
      <trkpt lat="47.49794" lon="-1.4263">
        <ele>65</ele>
        <time>2021-08-22T09:59:37.000Z</time>
      </trkpt>
      <trkpt lat="47.49794" lon="-1.4261">
        <ele>65</ele>
        <time>2021-08-22T09:59:39.000Z</time>
      </trkpt>
      <trkpt lat="47.49793" lon="-1.42588">
        <ele>65</ele>
        <time>2021-08-22T09:59:41.000Z</time>
      </trkpt>
      <trkpt lat="47.49791" lon="-1.42568">
        <ele>65</ele>
        <time>2021-08-22T09:59:43.000Z</time>
      </trkpt>
      <trkpt lat="47.49787" lon="-1.42548">
        <ele>64</ele>
        <time>2021-08-22T09:59:45.000Z</time>
      </trkpt>
      <trkpt lat="47.4978" lon="-1.42529">
        <ele>64</ele>
        <time>2021-08-22T09:59:47.000Z</time>
      </trkpt>
      <trkpt lat="47.49772" lon="-1.4251">
        <ele>64</ele>
        <time>2021-08-22T09:59:49.000Z</time>
      </trkpt>
      <trkpt lat="47.49763" lon="-1.42492">
        <ele>63</ele>
        <time>2021-08-22T09:59:51.000Z</time>
      </trkpt>
      <trkpt lat="47.49755" lon="-1.42474">
        <ele>63</ele>
        <time>2021-08-22T09:59:53.000Z</time>
      </trkpt>
      <trkpt lat="47.49746" lon="-1.42455">
        <ele>63</ele>
        <time>2021-08-22T09:59:55.000Z</time>
      </trkpt>
      <trkpt lat="47.49738" lon="-1.42437">
        <ele>63</ele>
        <time>2021-08-22T09:59:57.000Z</time>
      </trkpt>
      <trkpt lat="47.4973" lon="-1.42418">
        <ele>63</ele>
        <time>2021-08-22T09:59:59.000Z</time>
      </trkpt>
      <trkpt lat="47.49722" lon="-1.42399">
        <ele>63</ele>
        <time>2021-08-22T10:00:01.000Z</time>
      </trkpt>
      <trkpt lat="47.49714" lon="-1.42381">
        <ele>63</ele>
        <time>2021-08-22T10:00:03.000Z</time>
      </trkpt>
      <trkpt lat="47.49706" lon="-1.42362">
        <ele>63</ele>
        <time>2021-08-22T10:00:05.000Z</time>
      </trkpt>
      <trkpt lat="47.49698" lon="-1.42343">
        <ele>63</ele>
        <time>2021-08-22T10:00:07.000Z</time>
      </trkpt>
      <trkpt lat="47.4969" lon="-1.42325">
        <ele>63</ele>
        <time>2021-08-22T10:00:09.000Z</time>
      </trkpt>
      <trkpt lat="47.49682" lon="-1.42308">
        <ele>63</ele>
        <time>2021-08-22T10:00:11.000Z</time>
      </trkpt>
      <trkpt lat="47.49673" lon="-1.42292">
        <ele>63</ele>
        <time>2021-08-22T10:00:13.000Z</time>
      </trkpt>
      <trkpt lat="47.49662" lon="-1.42283">
        <ele>64</ele>
        <time>2021-08-22T10:00:15.000Z</time>
      </trkpt>
      <trkpt lat="47.49649" lon="-1.42279">
        <ele>64</ele>
        <time>2021-08-22T10:00:17.000Z</time>
      </trkpt>
      <trkpt lat="47.49638" lon="-1.42274">
        <ele>64</ele>
        <time>2021-08-22T10:00:19.000Z</time>
      </trkpt>
      <trkpt lat="47.49627" lon="-1.42268">
        <ele>63</ele>
        <time>2021-08-22T10:00:21.000Z</time>
      </trkpt>
      <trkpt lat="47.49614" lon="-1.42263">
        <ele>64</ele>
        <time>2021-08-22T10:00:23.000Z</time>
      </trkpt>
      <trkpt lat="47.49601" lon="-1.42256">
        <ele>64</ele>
        <time>2021-08-22T10:00:25.000Z</time>
      </trkpt>
      <trkpt lat="47.49589" lon="-1.4225">
        <ele>63</ele>
        <time>2021-08-22T10:00:27.000Z</time>
      </trkpt>
      <trkpt lat="47.49577" lon="-1.42244">
        <ele>63</ele>
        <time>2021-08-22T10:00:29.000Z</time>
      </trkpt>
      <trkpt lat="47.49567" lon="-1.42239">
        <ele>64</ele>
        <time>2021-08-22T10:00:31.000Z</time>
      </trkpt>
      <trkpt lat="47.49557" lon="-1.42233">
        <ele>64</ele>
        <time>2021-08-22T10:00:33.000Z</time>
      </trkpt>
      <trkpt lat="47.49546" lon="-1.42227">
        <ele>64</ele>
        <time>2021-08-22T10:00:36.000Z</time>
      </trkpt>
      <trkpt lat="47.49539" lon="-1.42217">
        <ele>64</ele>
        <time>2021-08-22T10:00:40.000Z</time>
      </trkpt>
      <trkpt lat="47.49543" lon="-1.42202">
        <ele>64</ele>
        <time>2021-08-22T10:00:42.000Z</time>
      </trkpt>
      <trkpt lat="47.49549" lon="-1.42187">
        <ele>65</ele>
        <time>2021-08-22T10:00:44.000Z</time>
      </trkpt>
      <trkpt lat="47.49555" lon="-1.42171">
        <ele>65</ele>
        <time>2021-08-22T10:00:46.000Z</time>
      </trkpt>
      <trkpt lat="47.49562" lon="-1.42158">
        <ele>66</ele>
        <time>2021-08-22T10:00:48.000Z</time>
      </trkpt>
      <trkpt lat="47.49569" lon="-1.42143">
        <ele>66</ele>
        <time>2021-08-22T10:00:50.000Z</time>
      </trkpt>
      <trkpt lat="47.49575" lon="-1.42128">
        <ele>66</ele>
        <time>2021-08-22T10:00:52.000Z</time>
      </trkpt>
      <trkpt lat="47.4958" lon="-1.42112">
        <ele>67</ele>
        <time>2021-08-22T10:00:54.000Z</time>
      </trkpt>
      <trkpt lat="47.49584" lon="-1.42097">
        <ele>68</ele>
        <time>2021-08-22T10:00:56.000Z</time>
      </trkpt>
      <trkpt lat="47.49587" lon="-1.4208">
        <ele>69</ele>
        <time>2021-08-22T10:00:58.000Z</time>
      </trkpt>
      <trkpt lat="47.49589" lon="-1.42064">
        <ele>69</ele>
        <time>2021-08-22T10:01:00.000Z</time>
      </trkpt>
      <trkpt lat="47.49592" lon="-1.42047">
        <ele>69</ele>
        <time>2021-08-22T10:01:02.000Z</time>
      </trkpt>
      <trkpt lat="47.49593" lon="-1.42029">
        <ele>70</ele>
        <time>2021-08-22T10:01:04.000Z</time>
      </trkpt>
      <trkpt lat="47.49593" lon="-1.42011">
        <ele>70</ele>
        <time>2021-08-22T10:01:06.000Z</time>
      </trkpt>
      <trkpt lat="47.49593" lon="-1.41994">
        <ele>70</ele>
        <time>2021-08-22T10:01:08.000Z</time>
      </trkpt>
      <trkpt lat="47.49594" lon="-1.41975">
        <ele>70</ele>
        <time>2021-08-22T10:01:10.000Z</time>
      </trkpt>
      <trkpt lat="47.49595" lon="-1.41958">
        <ele>69</ele>
        <time>2021-08-22T10:01:12.000Z</time>
      </trkpt>
      <trkpt lat="47.49596" lon="-1.4194">
        <ele>69</ele>
        <time>2021-08-22T10:01:14.000Z</time>
      </trkpt>
      <trkpt lat="47.49597" lon="-1.41922">
        <ele>70</ele>
        <time>2021-08-22T10:01:16.000Z</time>
      </trkpt>
      <trkpt lat="47.49598" lon="-1.41904">
        <ele>70</ele>
        <time>2021-08-22T10:01:18.000Z</time>
      </trkpt>
      <trkpt lat="47.49599" lon="-1.41885">
        <ele>71</ele>
        <time>2021-08-22T10:01:20.000Z</time>
      </trkpt>
      <trkpt lat="47.49599" lon="-1.41868">
        <ele>71</ele>
        <time>2021-08-22T10:01:22.000Z</time>
      </trkpt>
      <trkpt lat="47.49599" lon="-1.41851">
        <ele>72</ele>
        <time>2021-08-22T10:01:24.000Z</time>
      </trkpt>
      <trkpt lat="47.49599" lon="-1.41834">
        <ele>73</ele>
        <time>2021-08-22T10:01:26.000Z</time>
      </trkpt>
      <trkpt lat="47.49599" lon="-1.41817">
        <ele>73</ele>
        <time>2021-08-22T10:01:28.000Z</time>
      </trkpt>
      <trkpt lat="47.49593" lon="-1.41802">
        <ele>73</ele>
        <time>2021-08-22T10:01:30.000Z</time>
      </trkpt>
      <trkpt lat="47.49585" lon="-1.41789">
        <ele>73</ele>
        <time>2021-08-22T10:01:32.000Z</time>
      </trkpt>
      <trkpt lat="47.49576" lon="-1.41777">
        <ele>73</ele>
        <time>2021-08-22T10:01:34.000Z</time>
      </trkpt>
      <trkpt lat="47.49566" lon="-1.41766">
        <ele>72</ele>
        <time>2021-08-22T10:01:36.000Z</time>
      </trkpt>
      <trkpt lat="47.49556" lon="-1.41756">
        <ele>72</ele>
        <time>2021-08-22T10:01:38.000Z</time>
      </trkpt>
      <trkpt lat="47.49546" lon="-1.41746">
        <ele>71</ele>
        <time>2021-08-22T10:01:40.000Z</time>
      </trkpt>
      <trkpt lat="47.49537" lon="-1.41733">
        <ele>72</ele>
        <time>2021-08-22T10:01:42.000Z</time>
      </trkpt>
      <trkpt lat="47.49528" lon="-1.41722">
        <ele>71</ele>
        <time>2021-08-22T10:01:44.000Z</time>
      </trkpt>
      <trkpt lat="47.49518" lon="-1.4171">
        <ele>71</ele>
        <time>2021-08-22T10:01:46.000Z</time>
      </trkpt>
      <trkpt lat="47.49508" lon="-1.41699">
        <ele>72</ele>
        <time>2021-08-22T10:01:48.000Z</time>
      </trkpt>
      <trkpt lat="47.49498" lon="-1.41689">
        <ele>72</ele>
        <time>2021-08-22T10:01:50.000Z</time>
      </trkpt>
      <trkpt lat="47.49488" lon="-1.4168">
        <ele>73</ele>
        <time>2021-08-22T10:01:52.000Z</time>
      </trkpt>
      <trkpt lat="47.49478" lon="-1.41669">
        <ele>73</ele>
        <time>2021-08-22T10:01:54.000Z</time>
      </trkpt>
      <trkpt lat="47.49468" lon="-1.4166">
        <ele>73</ele>
        <time>2021-08-22T10:01:56.000Z</time>
      </trkpt>
      <trkpt lat="47.49458" lon="-1.41651">
        <ele>73</ele>
        <time>2021-08-22T10:01:58.000Z</time>
      </trkpt>
      <trkpt lat="47.49448" lon="-1.41642">
        <ele>73</ele>
        <time>2021-08-22T10:02:00.000Z</time>
      </trkpt>
      <trkpt lat="47.49439" lon="-1.41633">
        <ele>74</ele>
        <time>2021-08-22T10:02:02.000Z</time>
      </trkpt>
      <trkpt lat="47.4943" lon="-1.41623">
        <ele>74</ele>
        <time>2021-08-22T10:02:04.000Z</time>
      </trkpt>
      <trkpt lat="47.4942" lon="-1.41613">
        <ele>75</ele>
        <time>2021-08-22T10:02:06.000Z</time>
      </trkpt>
      <trkpt lat="47.49411" lon="-1.41604">
        <ele>75</ele>
        <time>2021-08-22T10:02:08.000Z</time>
      </trkpt>
      <trkpt lat="47.49402" lon="-1.41595">
        <ele>76</ele>
        <time>2021-08-22T10:02:10.000Z</time>
      </trkpt>
      <trkpt lat="47.49392" lon="-1.41585">
        <ele>76</ele>
        <time>2021-08-22T10:02:12.000Z</time>
      </trkpt>
      <trkpt lat="47.49383" lon="-1.41576">
        <ele>77</ele>
        <time>2021-08-22T10:02:14.000Z</time>
      </trkpt>
      <trkpt lat="47.49373" lon="-1.41566">
        <ele>77</ele>
        <time>2021-08-22T10:02:16.000Z</time>
      </trkpt>
      <trkpt lat="47.49364" lon="-1.41557">
        <ele>77</ele>
        <time>2021-08-22T10:02:18.000Z</time>
      </trkpt>
      <trkpt lat="47.49354" lon="-1.41548">
        <ele>78</ele>
        <time>2021-08-22T10:02:20.000Z</time>
      </trkpt>
      <trkpt lat="47.49344" lon="-1.41538">
        <ele>78</ele>
        <time>2021-08-22T10:02:22.000Z</time>
      </trkpt>
      <trkpt lat="47.49335" lon="-1.41528">
        <ele>78</ele>
        <time>2021-08-22T10:02:24.000Z</time>
      </trkpt>
      <trkpt lat="47.49326" lon="-1.41519">
        <ele>79</ele>
        <time>2021-08-22T10:02:26.000Z</time>
      </trkpt>
      <trkpt lat="47.49318" lon="-1.41509">
        <ele>79</ele>
        <time>2021-08-22T10:02:28.000Z</time>
      </trkpt>
      <trkpt lat="47.49309" lon="-1.41498">
        <ele>79</ele>
        <time>2021-08-22T10:02:30.000Z</time>
      </trkpt>
      <trkpt lat="47.493" lon="-1.41487">
        <ele>80</ele>
        <time>2021-08-22T10:02:32.000Z</time>
      </trkpt>
      <trkpt lat="47.49291" lon="-1.41476">
        <ele>79</ele>
        <time>2021-08-22T10:02:34.000Z</time>
      </trkpt>
      <trkpt lat="47.49282" lon="-1.41466">
        <ele>79</ele>
        <time>2021-08-22T10:02:36.000Z</time>
      </trkpt>
      <trkpt lat="47.49273" lon="-1.41456">
        <ele>79</ele>
        <time>2021-08-22T10:02:38.000Z</time>
      </trkpt>
      <trkpt lat="47.49265" lon="-1.41446">
        <ele>79</ele>
        <time>2021-08-22T10:02:40.000Z</time>
      </trkpt>
      <trkpt lat="47.49256" lon="-1.41436">
        <ele>79</ele>
        <time>2021-08-22T10:02:42.000Z</time>
      </trkpt>
      <trkpt lat="47.49248" lon="-1.41424">
        <ele>79</ele>
        <time>2021-08-22T10:02:44.000Z</time>
      </trkpt>
      <trkpt lat="47.4924" lon="-1.41412">
        <ele>79</ele>
        <time>2021-08-22T10:02:46.000Z</time>
      </trkpt>
      <trkpt lat="47.49232" lon="-1.41398">
        <ele>79</ele>
        <time>2021-08-22T10:02:48.000Z</time>
      </trkpt>
      <trkpt lat="47.49224" lon="-1.41382">
        <ele>78</ele>
        <time>2021-08-22T10:02:50.000Z</time>
      </trkpt>
      <trkpt lat="47.49216" lon="-1.41365">
        <ele>78</ele>
        <time>2021-08-22T10:02:52.000Z</time>
      </trkpt>
      <trkpt lat="47.49209" lon="-1.41347">
        <ele>78</ele>
        <time>2021-08-22T10:02:54.000Z</time>
      </trkpt>
      <trkpt lat="47.49201" lon="-1.41328">
        <ele>77</ele>
        <time>2021-08-22T10:02:56.000Z</time>
      </trkpt>
      <trkpt lat="47.49194" lon="-1.41308">
        <ele>77</ele>
        <time>2021-08-22T10:02:58.000Z</time>
      </trkpt>
      <trkpt lat="47.49187" lon="-1.41287">
        <ele>77</ele>
        <time>2021-08-22T10:03:00.000Z</time>
      </trkpt>
      <trkpt lat="47.49181" lon="-1.41265">
        <ele>77</ele>
        <time>2021-08-22T10:03:02.000Z</time>
      </trkpt>
      <trkpt lat="47.49176" lon="-1.41242">
        <ele>76</ele>
        <time>2021-08-22T10:03:04.000Z</time>
      </trkpt>
      <trkpt lat="47.49171" lon="-1.4122">
        <ele>76</ele>
        <time>2021-08-22T10:03:06.000Z</time>
      </trkpt>
      <trkpt lat="47.49167" lon="-1.41198">
        <ele>76</ele>
        <time>2021-08-22T10:03:08.000Z</time>
      </trkpt>
      <trkpt lat="47.49163" lon="-1.41178">
        <ele>77</ele>
        <time>2021-08-22T10:03:10.000Z</time>
      </trkpt>
      <trkpt lat="47.49158" lon="-1.41159">
        <ele>78</ele>
        <time>2021-08-22T10:03:12.000Z</time>
      </trkpt>
      <trkpt lat="47.49152" lon="-1.41142">
        <ele>78</ele>
        <time>2021-08-22T10:03:14.000Z</time>
      </trkpt>
      <trkpt lat="47.49146" lon="-1.41128">
        <ele>79</ele>
        <time>2021-08-22T10:03:16.000Z</time>
      </trkpt>
      <trkpt lat="47.49138" lon="-1.41116">
        <ele>79</ele>
        <time>2021-08-22T10:03:18.000Z</time>
      </trkpt>
      <trkpt lat="47.4913" lon="-1.41104">
        <ele>80</ele>
        <time>2021-08-22T10:03:20.000Z</time>
      </trkpt>
      <trkpt lat="47.49122" lon="-1.41093">
        <ele>81</ele>
        <time>2021-08-22T10:03:22.000Z</time>
      </trkpt>
      <trkpt lat="47.49114" lon="-1.41082">
        <ele>81</ele>
        <time>2021-08-22T10:03:24.000Z</time>
      </trkpt>
      <trkpt lat="47.49107" lon="-1.41069">
        <ele>82</ele>
        <time>2021-08-22T10:03:26.000Z</time>
      </trkpt>
      <trkpt lat="47.49101" lon="-1.41056">
        <ele>82</ele>
        <time>2021-08-22T10:03:28.000Z</time>
      </trkpt>
      <trkpt lat="47.49097" lon="-1.41041">
        <ele>83</ele>
        <time>2021-08-22T10:03:30.000Z</time>
      </trkpt>
      <trkpt lat="47.49093" lon="-1.41026">
        <ele>83</ele>
        <time>2021-08-22T10:03:32.000Z</time>
      </trkpt>
      <trkpt lat="47.49089" lon="-1.41011">
        <ele>84</ele>
        <time>2021-08-22T10:03:34.000Z</time>
      </trkpt>
      <trkpt lat="47.49085" lon="-1.40998">
        <ele>84</ele>
        <time>2021-08-22T10:03:36.000Z</time>
      </trkpt>
      <trkpt lat="47.4908" lon="-1.40984">
        <ele>85</ele>
        <time>2021-08-22T10:03:38.000Z</time>
      </trkpt>
      <trkpt lat="47.49075" lon="-1.40971">
        <ele>85</ele>
        <time>2021-08-22T10:03:40.000Z</time>
      </trkpt>
      <trkpt lat="47.49069" lon="-1.40958">
        <ele>86</ele>
        <time>2021-08-22T10:03:42.000Z</time>
      </trkpt>
      <trkpt lat="47.49063" lon="-1.40944">
        <ele>86</ele>
        <time>2021-08-22T10:03:44.000Z</time>
      </trkpt>
      <trkpt lat="47.49057" lon="-1.40931">
        <ele>86</ele>
        <time>2021-08-22T10:03:46.000Z</time>
      </trkpt>
      <trkpt lat="47.49051" lon="-1.40917">
        <ele>87</ele>
        <time>2021-08-22T10:03:48.000Z</time>
      </trkpt>
      <trkpt lat="47.49045" lon="-1.40904">
        <ele>88</ele>
        <time>2021-08-22T10:03:50.000Z</time>
      </trkpt>
      <trkpt lat="47.4904" lon="-1.40891">
        <ele>88</ele>
        <time>2021-08-22T10:03:52.000Z</time>
      </trkpt>
      <trkpt lat="47.49034" lon="-1.40879">
        <ele>89</ele>
        <time>2021-08-22T10:03:54.000Z</time>
      </trkpt>
      <trkpt lat="47.49028" lon="-1.40867">
        <ele>89</ele>
        <time>2021-08-22T10:03:56.000Z</time>
      </trkpt>
      <trkpt lat="47.49022" lon="-1.40855">
        <ele>89</ele>
        <time>2021-08-22T10:03:58.000Z</time>
      </trkpt>
      <trkpt lat="47.49015" lon="-1.40843">
        <ele>89</ele>
        <time>2021-08-22T10:04:00.000Z</time>
      </trkpt>
      <trkpt lat="47.49009" lon="-1.4083">
        <ele>89</ele>
        <time>2021-08-22T10:04:02.000Z</time>
      </trkpt>
      <trkpt lat="47.49002" lon="-1.40817">
        <ele>89</ele>
        <time>2021-08-22T10:04:04.000Z</time>
      </trkpt>
      <trkpt lat="47.48995" lon="-1.40805">
        <ele>89</ele>
        <time>2021-08-22T10:04:06.000Z</time>
      </trkpt>
      <trkpt lat="47.48988" lon="-1.40792">
        <ele>89</ele>
        <time>2021-08-22T10:04:08.000Z</time>
      </trkpt>
      <trkpt lat="47.48981" lon="-1.40779">
        <ele>89</ele>
        <time>2021-08-22T10:04:10.000Z</time>
      </trkpt>
      <trkpt lat="47.48975" lon="-1.40766">
        <ele>90</ele>
        <time>2021-08-22T10:04:12.000Z</time>
      </trkpt>
      <trkpt lat="47.48969" lon="-1.40752">
        <ele>90</ele>
        <time>2021-08-22T10:04:14.000Z</time>
      </trkpt>
      <trkpt lat="47.48965" lon="-1.40735">
        <ele>90</ele>
        <time>2021-08-22T10:04:16.000Z</time>
      </trkpt>
      <trkpt lat="47.48962" lon="-1.40719">
        <ele>90</ele>
        <time>2021-08-22T10:04:18.000Z</time>
      </trkpt>
      <trkpt lat="47.4896" lon="-1.40702">
        <ele>90</ele>
        <time>2021-08-22T10:04:20.000Z</time>
      </trkpt>
      <trkpt lat="47.48958" lon="-1.40686">
        <ele>91</ele>
        <time>2021-08-22T10:04:22.000Z</time>
      </trkpt>
      <trkpt lat="47.48957" lon="-1.40669">
        <ele>91</ele>
        <time>2021-08-22T10:04:24.000Z</time>
      </trkpt>
      <trkpt lat="47.48955" lon="-1.40652">
        <ele>92</ele>
        <time>2021-08-22T10:04:26.000Z</time>
      </trkpt>
      <trkpt lat="47.48954" lon="-1.40636">
        <ele>92</ele>
        <time>2021-08-22T10:04:28.000Z</time>
      </trkpt>
      <trkpt lat="47.48952" lon="-1.40619">
        <ele>92</ele>
        <time>2021-08-22T10:04:30.000Z</time>
      </trkpt>
      <trkpt lat="47.4895" lon="-1.40602">
        <ele>92</ele>
        <time>2021-08-22T10:04:32.000Z</time>
      </trkpt>
      <trkpt lat="47.48948" lon="-1.40585">
        <ele>91</ele>
        <time>2021-08-22T10:04:34.000Z</time>
      </trkpt>
      <trkpt lat="47.48947" lon="-1.40567">
        <ele>92</ele>
        <time>2021-08-22T10:04:36.000Z</time>
      </trkpt>
      <trkpt lat="47.48944" lon="-1.40551">
        <ele>92</ele>
        <time>2021-08-22T10:04:38.000Z</time>
      </trkpt>
      <trkpt lat="47.48941" lon="-1.40534">
        <ele>92</ele>
        <time>2021-08-22T10:04:40.000Z</time>
      </trkpt>
      <trkpt lat="47.48937" lon="-1.40518">
        <ele>93</ele>
        <time>2021-08-22T10:04:42.000Z</time>
      </trkpt>
      <trkpt lat="47.48933" lon="-1.40502">
        <ele>93</ele>
        <time>2021-08-22T10:04:44.000Z</time>
      </trkpt>
      <trkpt lat="47.48929" lon="-1.40486">
        <ele>93</ele>
        <time>2021-08-22T10:04:46.000Z</time>
      </trkpt>
      <trkpt lat="47.48925" lon="-1.4047">
        <ele>93</ele>
        <time>2021-08-22T10:04:48.000Z</time>
      </trkpt>
      <trkpt lat="47.48921" lon="-1.40455">
        <ele>93</ele>
        <time>2021-08-22T10:04:50.000Z</time>
      </trkpt>
      <trkpt lat="47.48917" lon="-1.40439">
        <ele>93</ele>
        <time>2021-08-22T10:04:52.000Z</time>
      </trkpt>
      <trkpt lat="47.48912" lon="-1.40422">
        <ele>94</ele>
        <time>2021-08-22T10:04:54.000Z</time>
      </trkpt>
      <trkpt lat="47.48908" lon="-1.40405">
        <ele>94</ele>
        <time>2021-08-22T10:04:56.000Z</time>
      </trkpt>
      <trkpt lat="47.48903" lon="-1.40387">
        <ele>94</ele>
        <time>2021-08-22T10:04:58.000Z</time>
      </trkpt>
      <trkpt lat="47.48898" lon="-1.40369">
        <ele>93</ele>
        <time>2021-08-22T10:05:00.000Z</time>
      </trkpt>
      <trkpt lat="47.48893" lon="-1.40351">
        <ele>93</ele>
        <time>2021-08-22T10:05:02.000Z</time>
      </trkpt>
      <trkpt lat="47.48888" lon="-1.40331">
        <ele>93</ele>
        <time>2021-08-22T10:05:04.000Z</time>
      </trkpt>
      <trkpt lat="47.48883" lon="-1.40312">
        <ele>92</ele>
        <time>2021-08-22T10:05:06.000Z</time>
      </trkpt>
      <trkpt lat="47.48878" lon="-1.40292">
        <ele>92</ele>
        <time>2021-08-22T10:05:08.000Z</time>
      </trkpt>
      <trkpt lat="47.48872" lon="-1.40271">
        <ele>91</ele>
        <time>2021-08-22T10:05:10.000Z</time>
      </trkpt>
      <trkpt lat="47.48867" lon="-1.40251">
        <ele>91</ele>
        <time>2021-08-22T10:05:12.000Z</time>
      </trkpt>
      <trkpt lat="47.48862" lon="-1.40231">
        <ele>90</ele>
        <time>2021-08-22T10:05:14.000Z</time>
      </trkpt>
      <trkpt lat="47.48857" lon="-1.4021">
        <ele>90</ele>
        <time>2021-08-22T10:05:16.000Z</time>
      </trkpt>
      <trkpt lat="47.48852" lon="-1.40188">
        <ele>89</ele>
        <time>2021-08-22T10:05:18.000Z</time>
      </trkpt>
      <trkpt lat="47.48845" lon="-1.40167">
        <ele>88</ele>
        <time>2021-08-22T10:05:20.000Z</time>
      </trkpt>
      <trkpt lat="47.48838" lon="-1.40146">
        <ele>88</ele>
        <time>2021-08-22T10:05:22.000Z</time>
      </trkpt>
      <trkpt lat="47.4883" lon="-1.40126">
        <ele>87</ele>
        <time>2021-08-22T10:05:24.000Z</time>
      </trkpt>
      <trkpt lat="47.48823" lon="-1.40106">
        <ele>87</ele>
        <time>2021-08-22T10:05:26.000Z</time>
      </trkpt>
      <trkpt lat="47.48814" lon="-1.40086">
        <ele>86</ele>
        <time>2021-08-22T10:05:28.000Z</time>
      </trkpt>
      <trkpt lat="47.48806" lon="-1.40065">
        <ele>85</ele>
        <time>2021-08-22T10:05:30.000Z</time>
      </trkpt>
      <trkpt lat="47.48797" lon="-1.40045">
        <ele>84</ele>
        <time>2021-08-22T10:05:32.000Z</time>
      </trkpt>
      <trkpt lat="47.48788" lon="-1.40025">
        <ele>83</ele>
        <time>2021-08-22T10:05:34.000Z</time>
      </trkpt>
      <trkpt lat="47.48778" lon="-1.40006">
        <ele>83</ele>
        <time>2021-08-22T10:05:36.000Z</time>
      </trkpt>
      <trkpt lat="47.48768" lon="-1.39987">
        <ele>82</ele>
        <time>2021-08-22T10:05:38.000Z</time>
      </trkpt>
      <trkpt lat="47.48758" lon="-1.39967">
        <ele>82</ele>
        <time>2021-08-22T10:05:40.000Z</time>
      </trkpt>
      <trkpt lat="47.48749" lon="-1.39948">
        <ele>82</ele>
        <time>2021-08-22T10:05:42.000Z</time>
      </trkpt>
      <trkpt lat="47.4874" lon="-1.39928">
        <ele>81</ele>
        <time>2021-08-22T10:05:44.000Z</time>
      </trkpt>
      <trkpt lat="47.48731" lon="-1.39907">
        <ele>81</ele>
        <time>2021-08-22T10:05:46.000Z</time>
      </trkpt>
      <trkpt lat="47.48724" lon="-1.39886">
        <ele>81</ele>
        <time>2021-08-22T10:05:48.000Z</time>
      </trkpt>
      <trkpt lat="47.48718" lon="-1.39864">
        <ele>80</ele>
        <time>2021-08-22T10:05:50.000Z</time>
      </trkpt>
      <trkpt lat="47.48711" lon="-1.39843">
        <ele>80</ele>
        <time>2021-08-22T10:05:52.000Z</time>
      </trkpt>
      <trkpt lat="47.48702" lon="-1.39823">
        <ele>80</ele>
        <time>2021-08-22T10:05:54.000Z</time>
      </trkpt>
      <trkpt lat="47.48691" lon="-1.39804">
        <ele>80</ele>
        <time>2021-08-22T10:05:56.000Z</time>
      </trkpt>
      <trkpt lat="47.4868" lon="-1.39788">
        <ele>81</ele>
        <time>2021-08-22T10:05:58.000Z</time>
      </trkpt>
      <trkpt lat="47.4867" lon="-1.39771">
        <ele>80</ele>
        <time>2021-08-22T10:06:00.000Z</time>
      </trkpt>
      <trkpt lat="47.4866" lon="-1.39755">
        <ele>80</ele>
        <time>2021-08-22T10:06:02.000Z</time>
      </trkpt>
      <trkpt lat="47.48651" lon="-1.39739">
        <ele>80</ele>
        <time>2021-08-22T10:06:04.000Z</time>
      </trkpt>
      <trkpt lat="47.48641" lon="-1.39722">
        <ele>80</ele>
        <time>2021-08-22T10:06:06.000Z</time>
      </trkpt>
      <trkpt lat="47.48632" lon="-1.39706">
        <ele>80</ele>
        <time>2021-08-22T10:06:08.000Z</time>
      </trkpt>
      <trkpt lat="47.48623" lon="-1.39692">
        <ele>80</ele>
        <time>2021-08-22T10:06:10.000Z</time>
      </trkpt>
      <trkpt lat="47.48615" lon="-1.39678">
        <ele>80</ele>
        <time>2021-08-22T10:06:12.000Z</time>
      </trkpt>
      <trkpt lat="47.48606" lon="-1.39664">
        <ele>80</ele>
        <time>2021-08-22T10:06:14.000Z</time>
      </trkpt>
      <trkpt lat="47.48597" lon="-1.39651">
        <ele>81</ele>
        <time>2021-08-22T10:06:16.000Z</time>
      </trkpt>
      <trkpt lat="47.48588" lon="-1.39638">
        <ele>82</ele>
        <time>2021-08-22T10:06:18.000Z</time>
      </trkpt>
      <trkpt lat="47.4858" lon="-1.39625">
        <ele>82</ele>
        <time>2021-08-22T10:06:20.000Z</time>
      </trkpt>
      <trkpt lat="47.48571" lon="-1.39612">
        <ele>83</ele>
        <time>2021-08-22T10:06:22.000Z</time>
      </trkpt>
      <trkpt lat="47.48562" lon="-1.396">
        <ele>84</ele>
        <time>2021-08-22T10:06:24.000Z</time>
      </trkpt>
      <trkpt lat="47.48553" lon="-1.39587">
        <ele>85</ele>
        <time>2021-08-22T10:06:26.000Z</time>
      </trkpt>
      <trkpt lat="47.48544" lon="-1.39575">
        <ele>86</ele>
        <time>2021-08-22T10:06:28.000Z</time>
      </trkpt>
      <trkpt lat="47.48536" lon="-1.39563">
        <ele>86</ele>
        <time>2021-08-22T10:06:30.000Z</time>
      </trkpt>
      <trkpt lat="47.48526" lon="-1.39551">
        <ele>87</ele>
        <time>2021-08-22T10:06:32.000Z</time>
      </trkpt>
      <trkpt lat="47.48518" lon="-1.39539">
        <ele>87</ele>
        <time>2021-08-22T10:06:34.000Z</time>
      </trkpt>
      <trkpt lat="47.48509" lon="-1.39527">
        <ele>88</ele>
        <time>2021-08-22T10:06:36.000Z</time>
      </trkpt>
      <trkpt lat="47.48501" lon="-1.39516">
        <ele>88</ele>
        <time>2021-08-22T10:06:38.000Z</time>
      </trkpt>
      <trkpt lat="47.48493" lon="-1.39505">
        <ele>89</ele>
        <time>2021-08-22T10:06:40.000Z</time>
      </trkpt>
      <trkpt lat="47.48486" lon="-1.39494">
        <ele>89</ele>
        <time>2021-08-22T10:06:42.000Z</time>
      </trkpt>
      <trkpt lat="47.48478" lon="-1.39483">
        <ele>89</ele>
        <time>2021-08-22T10:06:44.000Z</time>
      </trkpt>
      <trkpt lat="47.4847" lon="-1.39472">
        <ele>90</ele>
        <time>2021-08-22T10:06:46.000Z</time>
      </trkpt>
      <trkpt lat="47.48463" lon="-1.39461">
        <ele>90</ele>
        <time>2021-08-22T10:06:48.000Z</time>
      </trkpt>
      <trkpt lat="47.48455" lon="-1.39449">
        <ele>91</ele>
        <time>2021-08-22T10:06:50.000Z</time>
      </trkpt>
      <trkpt lat="47.48448" lon="-1.39437">
        <ele>91</ele>
        <time>2021-08-22T10:06:52.000Z</time>
      </trkpt>
      <trkpt lat="47.48443" lon="-1.39424">
        <ele>92</ele>
        <time>2021-08-22T10:06:54.000Z</time>
      </trkpt>
      <trkpt lat="47.48439" lon="-1.39409">
        <ele>92</ele>
        <time>2021-08-22T10:06:56.000Z</time>
      </trkpt>
      <trkpt lat="47.48436" lon="-1.39393">
        <ele>92</ele>
        <time>2021-08-22T10:06:58.000Z</time>
      </trkpt>
      <trkpt lat="47.48434" lon="-1.39376">
        <ele>93</ele>
        <time>2021-08-22T10:07:00.000Z</time>
      </trkpt>
      <trkpt lat="47.48433" lon="-1.3936">
        <ele>93</ele>
        <time>2021-08-22T10:07:02.000Z</time>
      </trkpt>
      <trkpt lat="47.48432" lon="-1.39344">
        <ele>93</ele>
        <time>2021-08-22T10:07:04.000Z</time>
      </trkpt>
      <trkpt lat="47.4843" lon="-1.39328">
        <ele>94</ele>
        <time>2021-08-22T10:07:06.000Z</time>
      </trkpt>
      <trkpt lat="47.48429" lon="-1.39311">
        <ele>94</ele>
        <time>2021-08-22T10:07:08.000Z</time>
      </trkpt>
      <trkpt lat="47.48428" lon="-1.39294">
        <ele>94</ele>
        <time>2021-08-22T10:07:10.000Z</time>
      </trkpt>
      <trkpt lat="47.48426" lon="-1.39278">
        <ele>94</ele>
        <time>2021-08-22T10:07:12.000Z</time>
      </trkpt>
      <trkpt lat="47.48425" lon="-1.39261">
        <ele>94</ele>
        <time>2021-08-22T10:07:14.000Z</time>
      </trkpt>
      <trkpt lat="47.48423" lon="-1.39244">
        <ele>94</ele>
        <time>2021-08-22T10:07:16.000Z</time>
      </trkpt>
      <trkpt lat="47.48422" lon="-1.39228">
        <ele>94</ele>
        <time>2021-08-22T10:07:18.000Z</time>
      </trkpt>
      <trkpt lat="47.48419" lon="-1.39211">
        <ele>94</ele>
        <time>2021-08-22T10:07:20.000Z</time>
      </trkpt>
      <trkpt lat="47.48417" lon="-1.39194">
        <ele>94</ele>
        <time>2021-08-22T10:07:22.000Z</time>
      </trkpt>
      <trkpt lat="47.48414" lon="-1.39176">
        <ele>94</ele>
        <time>2021-08-22T10:07:24.000Z</time>
      </trkpt>
      <trkpt lat="47.4841" lon="-1.39157">
        <ele>94</ele>
        <time>2021-08-22T10:07:26.000Z</time>
      </trkpt>
      <trkpt lat="47.48406" lon="-1.39139">
        <ele>94</ele>
        <time>2021-08-22T10:07:28.000Z</time>
      </trkpt>
      <trkpt lat="47.48403" lon="-1.39121">
        <ele>94</ele>
        <time>2021-08-22T10:07:30.000Z</time>
      </trkpt>
      <trkpt lat="47.48399" lon="-1.39101">
        <ele>94</ele>
        <time>2021-08-22T10:07:32.000Z</time>
      </trkpt>
      <trkpt lat="47.48395" lon="-1.39082">
        <ele>94</ele>
        <time>2021-08-22T10:07:34.000Z</time>
      </trkpt>
      <trkpt lat="47.48391" lon="-1.39063">
        <ele>93</ele>
        <time>2021-08-22T10:07:36.000Z</time>
      </trkpt>
      <trkpt lat="47.48387" lon="-1.39043">
        <ele>93</ele>
        <time>2021-08-22T10:07:38.000Z</time>
      </trkpt>
      <trkpt lat="47.48384" lon="-1.39023">
        <ele>93</ele>
        <time>2021-08-22T10:07:40.000Z</time>
      </trkpt>
      <trkpt lat="47.48379" lon="-1.39002">
        <ele>93</ele>
        <time>2021-08-22T10:07:42.000Z</time>
      </trkpt>
      <trkpt lat="47.48375" lon="-1.38981">
        <ele>92</ele>
        <time>2021-08-22T10:07:44.000Z</time>
      </trkpt>
      <trkpt lat="47.48371" lon="-1.38959">
        <ele>91</ele>
        <time>2021-08-22T10:07:46.000Z</time>
      </trkpt>
      <trkpt lat="47.48367" lon="-1.38936">
        <ele>91</ele>
        <time>2021-08-22T10:07:48.000Z</time>
      </trkpt>
      <trkpt lat="47.48362" lon="-1.38912">
        <ele>90</ele>
        <time>2021-08-22T10:07:50.000Z</time>
      </trkpt>
      <trkpt lat="47.48357" lon="-1.38889">
        <ele>90</ele>
        <time>2021-08-22T10:07:52.000Z</time>
      </trkpt>
      <trkpt lat="47.48352" lon="-1.38866">
        <ele>89</ele>
        <time>2021-08-22T10:07:54.000Z</time>
      </trkpt>
      <trkpt lat="47.48348" lon="-1.38843">
        <ele>89</ele>
        <time>2021-08-22T10:07:56.000Z</time>
      </trkpt>
      <trkpt lat="47.48343" lon="-1.38819">
        <ele>88</ele>
        <time>2021-08-22T10:07:58.000Z</time>
      </trkpt>
      <trkpt lat="47.48338" lon="-1.38796">
        <ele>87</ele>
        <time>2021-08-22T10:08:00.000Z</time>
      </trkpt>
      <trkpt lat="47.48334" lon="-1.38773">
        <ele>87</ele>
        <time>2021-08-22T10:08:02.000Z</time>
      </trkpt>
      <trkpt lat="47.4833" lon="-1.3875">
        <ele>86</ele>
        <time>2021-08-22T10:08:04.000Z</time>
      </trkpt>
      <trkpt lat="47.48324" lon="-1.38727">
        <ele>86</ele>
        <time>2021-08-22T10:08:06.000Z</time>
      </trkpt>
      <trkpt lat="47.48319" lon="-1.38704">
        <ele>86</ele>
        <time>2021-08-22T10:08:08.000Z</time>
      </trkpt>
      <trkpt lat="47.48313" lon="-1.38683">
        <ele>86</ele>
        <time>2021-08-22T10:08:10.000Z</time>
      </trkpt>
      <trkpt lat="47.48307" lon="-1.38662">
        <ele>87</ele>
        <time>2021-08-22T10:08:12.000Z</time>
      </trkpt>
      <trkpt lat="47.48302" lon="-1.38643">
        <ele>87</ele>
        <time>2021-08-22T10:08:14.000Z</time>
      </trkpt>
      <trkpt lat="47.48297" lon="-1.38624">
        <ele>87</ele>
        <time>2021-08-22T10:08:16.000Z</time>
      </trkpt>
      <trkpt lat="47.48291" lon="-1.38605">
        <ele>88</ele>
        <time>2021-08-22T10:08:18.000Z</time>
      </trkpt>
      <trkpt lat="47.48286" lon="-1.38587">
        <ele>87</ele>
        <time>2021-08-22T10:08:20.000Z</time>
      </trkpt>
      <trkpt lat="47.48281" lon="-1.38569">
        <ele>87</ele>
        <time>2021-08-22T10:08:22.000Z</time>
      </trkpt>
      <trkpt lat="47.48277" lon="-1.38552">
        <ele>88</ele>
        <time>2021-08-22T10:08:24.000Z</time>
      </trkpt>
      <trkpt lat="47.48272" lon="-1.38534">
        <ele>88</ele>
        <time>2021-08-22T10:08:26.000Z</time>
      </trkpt>
      <trkpt lat="47.48268" lon="-1.38517">
        <ele>89</ele>
        <time>2021-08-22T10:08:28.000Z</time>
      </trkpt>
      <trkpt lat="47.48264" lon="-1.38499">
        <ele>88</ele>
        <time>2021-08-22T10:08:30.000Z</time>
      </trkpt>
      <trkpt lat="47.4826" lon="-1.38481">
        <ele>89</ele>
        <time>2021-08-22T10:08:32.000Z</time>
      </trkpt>
      <trkpt lat="47.48256" lon="-1.38463">
        <ele>90</ele>
        <time>2021-08-22T10:08:34.000Z</time>
      </trkpt>
      <trkpt lat="47.48253" lon="-1.38444">
        <ele>90</ele>
        <time>2021-08-22T10:08:36.000Z</time>
      </trkpt>
      <trkpt lat="47.4825" lon="-1.38424">
        <ele>90</ele>
        <time>2021-08-22T10:08:38.000Z</time>
      </trkpt>
      <trkpt lat="47.48246" lon="-1.38405">
        <ele>90</ele>
        <time>2021-08-22T10:08:40.000Z</time>
      </trkpt>
      <trkpt lat="47.48242" lon="-1.38387">
        <ele>90</ele>
        <time>2021-08-22T10:08:42.000Z</time>
      </trkpt>
      <trkpt lat="47.48239" lon="-1.38368">
        <ele>90</ele>
        <time>2021-08-22T10:08:44.000Z</time>
      </trkpt>
      <trkpt lat="47.48236" lon="-1.38351">
        <ele>91</ele>
        <time>2021-08-22T10:08:46.000Z</time>
      </trkpt>
      <trkpt lat="47.48233" lon="-1.38333">
        <ele>91</ele>
        <time>2021-08-22T10:08:48.000Z</time>
      </trkpt>
      <trkpt lat="47.4823" lon="-1.38314">
        <ele>91</ele>
        <time>2021-08-22T10:08:50.000Z</time>
      </trkpt>
      <trkpt lat="47.48226" lon="-1.38296">
        <ele>91</ele>
        <time>2021-08-22T10:08:52.000Z</time>
      </trkpt>
      <trkpt lat="47.48223" lon="-1.38278">
        <ele>92</ele>
        <time>2021-08-22T10:08:54.000Z</time>
      </trkpt>
      <trkpt lat="47.4822" lon="-1.38261">
        <ele>92</ele>
        <time>2021-08-22T10:08:56.000Z</time>
      </trkpt>
      <trkpt lat="47.48216" lon="-1.38244">
        <ele>92</ele>
        <time>2021-08-22T10:08:58.000Z</time>
      </trkpt>
      <trkpt lat="47.48212" lon="-1.38226">
        <ele>92</ele>
        <time>2021-08-22T10:09:00.000Z</time>
      </trkpt>
      <trkpt lat="47.48207" lon="-1.38209">
        <ele>93</ele>
        <time>2021-08-22T10:09:02.000Z</time>
      </trkpt>
      <trkpt lat="47.48201" lon="-1.38193">
        <ele>93</ele>
        <time>2021-08-22T10:09:04.000Z</time>
      </trkpt>
      <trkpt lat="47.48193" lon="-1.38179">
        <ele>93</ele>
        <time>2021-08-22T10:09:06.000Z</time>
      </trkpt>
      <trkpt lat="47.48184" lon="-1.38167">
        <ele>93</ele>
        <time>2021-08-22T10:09:08.000Z</time>
      </trkpt>
      <trkpt lat="47.48175" lon="-1.38155">
        <ele>93</ele>
        <time>2021-08-22T10:09:10.000Z</time>
      </trkpt>
      <trkpt lat="47.48165" lon="-1.38143">
        <ele>93</ele>
        <time>2021-08-22T10:09:12.000Z</time>
      </trkpt>
      <trkpt lat="47.48156" lon="-1.38131">
        <ele>94</ele>
        <time>2021-08-22T10:09:14.000Z</time>
      </trkpt>
      <trkpt lat="47.48146" lon="-1.38119">
        <ele>94</ele>
        <time>2021-08-22T10:09:16.000Z</time>
      </trkpt>
      <trkpt lat="47.48136" lon="-1.38107">
        <ele>94</ele>
        <time>2021-08-22T10:09:18.000Z</time>
      </trkpt>
      <trkpt lat="47.48127" lon="-1.38095">
        <ele>94</ele>
        <time>2021-08-22T10:09:20.000Z</time>
      </trkpt>
      <trkpt lat="47.48117" lon="-1.38083">
        <ele>95</ele>
        <time>2021-08-22T10:09:22.000Z</time>
      </trkpt>
      <trkpt lat="47.48107" lon="-1.3807">
        <ele>95</ele>
        <time>2021-08-22T10:09:24.000Z</time>
      </trkpt>
      <trkpt lat="47.48097" lon="-1.38058">
        <ele>95</ele>
        <time>2021-08-22T10:09:26.000Z</time>
      </trkpt>
      <trkpt lat="47.48088" lon="-1.38046">
        <ele>95</ele>
        <time>2021-08-22T10:09:28.000Z</time>
      </trkpt>
      <trkpt lat="47.48078" lon="-1.38034">
        <ele>95</ele>
        <time>2021-08-22T10:09:30.000Z</time>
      </trkpt>
      <trkpt lat="47.48068" lon="-1.38022">
        <ele>95</ele>
        <time>2021-08-22T10:09:32.000Z</time>
      </trkpt>
      <trkpt lat="47.48059" lon="-1.38009">
        <ele>95</ele>
        <time>2021-08-22T10:09:34.000Z</time>
      </trkpt>
      <trkpt lat="47.48048" lon="-1.37997">
        <ele>95</ele>
        <time>2021-08-22T10:09:36.000Z</time>
      </trkpt>
      <trkpt lat="47.48038" lon="-1.37985">
        <ele>95</ele>
        <time>2021-08-22T10:09:38.000Z</time>
      </trkpt>
      <trkpt lat="47.48028" lon="-1.37972">
        <ele>95</ele>
        <time>2021-08-22T10:09:40.000Z</time>
      </trkpt>
      <trkpt lat="47.48018" lon="-1.37959">
        <ele>95</ele>
        <time>2021-08-22T10:09:42.000Z</time>
      </trkpt>
      <trkpt lat="47.48008" lon="-1.37947">
        <ele>94</ele>
        <time>2021-08-22T10:09:44.000Z</time>
      </trkpt>
      <trkpt lat="47.47997" lon="-1.37935">
        <ele>94</ele>
        <time>2021-08-22T10:09:46.000Z</time>
      </trkpt>
      <trkpt lat="47.47987" lon="-1.37922">
        <ele>95</ele>
        <time>2021-08-22T10:09:48.000Z</time>
      </trkpt>
      <trkpt lat="47.47976" lon="-1.3791">
        <ele>95</ele>
        <time>2021-08-22T10:09:50.000Z</time>
      </trkpt>
      <trkpt lat="47.47964" lon="-1.37898">
        <ele>94</ele>
        <time>2021-08-22T10:09:52.000Z</time>
      </trkpt>
      <trkpt lat="47.47954" lon="-1.37886">
        <ele>94</ele>
        <time>2021-08-22T10:09:54.000Z</time>
      </trkpt>
      <trkpt lat="47.47942" lon="-1.37874">
        <ele>94</ele>
        <time>2021-08-22T10:09:56.000Z</time>
      </trkpt>
      <trkpt lat="47.47931" lon="-1.37862">
        <ele>94</ele>
        <time>2021-08-22T10:09:58.000Z</time>
      </trkpt>
      <trkpt lat="47.4792" lon="-1.3785">
        <ele>94</ele>
        <time>2021-08-22T10:10:00.000Z</time>
      </trkpt>
      <trkpt lat="47.47909" lon="-1.37837">
        <ele>93</ele>
        <time>2021-08-22T10:10:02.000Z</time>
      </trkpt>
      <trkpt lat="47.47892" lon="-1.37818">
        <ele>94</ele>
        <time>2021-08-22T10:10:05.000Z</time>
      </trkpt>
      <trkpt lat="47.47881" lon="-1.37806">
        <ele>94</ele>
        <time>2021-08-22T10:10:07.000Z</time>
      </trkpt>
      <trkpt lat="47.4787" lon="-1.37793">
        <ele>93</ele>
        <time>2021-08-22T10:10:09.000Z</time>
      </trkpt>
      <trkpt lat="47.47859" lon="-1.37781">
        <ele>93</ele>
        <time>2021-08-22T10:10:11.000Z</time>
      </trkpt>
      <trkpt lat="47.47848" lon="-1.37769">
        <ele>92</ele>
        <time>2021-08-22T10:10:13.000Z</time>
      </trkpt>
      <trkpt lat="47.47837" lon="-1.37756">
        <ele>92</ele>
        <time>2021-08-22T10:10:15.000Z</time>
      </trkpt>
      <trkpt lat="47.47821" lon="-1.37737">
        <ele>92</ele>
        <time>2021-08-22T10:10:18.000Z</time>
      </trkpt>
      <trkpt lat="47.47805" lon="-1.37718">
        <ele>93</ele>
        <time>2021-08-22T10:10:21.000Z</time>
      </trkpt>
      <trkpt lat="47.47795" lon="-1.37706">
        <ele>93</ele>
        <time>2021-08-22T10:10:23.000Z</time>
      </trkpt>
      <trkpt lat="47.47784" lon="-1.37695">
        <ele>93</ele>
        <time>2021-08-22T10:10:25.000Z</time>
      </trkpt>
      <trkpt lat="47.47773" lon="-1.37686">
        <ele>93</ele>
        <time>2021-08-22T10:10:27.000Z</time>
      </trkpt>
      <trkpt lat="47.47755" lon="-1.37673">
        <ele>93</ele>
        <time>2021-08-22T10:10:30.000Z</time>
      </trkpt>
      <trkpt lat="47.47742" lon="-1.37665">
        <ele>93</ele>
        <time>2021-08-22T10:10:32.000Z</time>
      </trkpt>
      <trkpt lat="47.47724" lon="-1.37653">
        <ele>93</ele>
        <time>2021-08-22T10:10:35.000Z</time>
      </trkpt>
      <trkpt lat="47.47712" lon="-1.37645">
        <ele>93</ele>
        <time>2021-08-22T10:10:37.000Z</time>
      </trkpt>
      <trkpt lat="47.47701" lon="-1.37636">
        <ele>93</ele>
        <time>2021-08-22T10:10:39.000Z</time>
      </trkpt>
      <trkpt lat="47.47691" lon="-1.37628">
        <ele>93</ele>
        <time>2021-08-22T10:10:41.000Z</time>
      </trkpt>
      <trkpt lat="47.47681" lon="-1.37618">
        <ele>93</ele>
        <time>2021-08-22T10:10:43.000Z</time>
      </trkpt>
      <trkpt lat="47.47671" lon="-1.37608">
        <ele>93</ele>
        <time>2021-08-22T10:10:45.000Z</time>
      </trkpt>
      <trkpt lat="47.47663" lon="-1.37599">
        <ele>93</ele>
        <time>2021-08-22T10:10:47.000Z</time>
      </trkpt>
      <trkpt lat="47.4766" lon="-1.37585">
        <ele>93</ele>
        <time>2021-08-22T10:10:49.000Z</time>
      </trkpt>
      <trkpt lat="47.47667" lon="-1.3757">
        <ele>93</ele>
        <time>2021-08-22T10:10:51.000Z</time>
      </trkpt>
      <trkpt lat="47.47673" lon="-1.37553">
        <ele>93</ele>
        <time>2021-08-22T10:10:53.000Z</time>
      </trkpt>
      <trkpt lat="47.4768" lon="-1.37535">
        <ele>92</ele>
        <time>2021-08-22T10:10:55.000Z</time>
      </trkpt>
      <trkpt lat="47.47687" lon="-1.37518">
        <ele>92</ele>
        <time>2021-08-22T10:10:57.000Z</time>
      </trkpt>
      <trkpt lat="47.47695" lon="-1.375">
        <ele>92</ele>
        <time>2021-08-22T10:10:59.000Z</time>
      </trkpt>
      <trkpt lat="47.47703" lon="-1.37482">
        <ele>92</ele>
        <time>2021-08-22T10:11:01.000Z</time>
      </trkpt>
      <trkpt lat="47.4771" lon="-1.37464">
        <ele>91</ele>
        <time>2021-08-22T10:11:03.000Z</time>
      </trkpt>
      <trkpt lat="47.47714" lon="-1.37443">
        <ele>91</ele>
        <time>2021-08-22T10:11:05.000Z</time>
      </trkpt>
      <trkpt lat="47.47716" lon="-1.37423">
        <ele>92</ele>
        <time>2021-08-22T10:11:07.000Z</time>
      </trkpt>
      <trkpt lat="47.47716" lon="-1.37401">
        <ele>92</ele>
        <time>2021-08-22T10:11:09.000Z</time>
      </trkpt>
      <trkpt lat="47.47715" lon="-1.37381">
        <ele>92</ele>
        <time>2021-08-22T10:11:11.000Z</time>
      </trkpt>
      <trkpt lat="47.47714" lon="-1.3736">
        <ele>92</ele>
        <time>2021-08-22T10:11:13.000Z</time>
      </trkpt>
      <trkpt lat="47.47711" lon="-1.3734">
        <ele>92</ele>
        <time>2021-08-22T10:11:15.000Z</time>
      </trkpt>
      <trkpt lat="47.47706" lon="-1.37322">
        <ele>91</ele>
        <time>2021-08-22T10:11:17.000Z</time>
      </trkpt>
      <trkpt lat="47.47701" lon="-1.37303">
        <ele>91</ele>
        <time>2021-08-22T10:11:19.000Z</time>
      </trkpt>
      <trkpt lat="47.47697" lon="-1.37283">
        <ele>90</ele>
        <time>2021-08-22T10:11:21.000Z</time>
      </trkpt>
      <trkpt lat="47.47691" lon="-1.37265">
        <ele>91</ele>
        <time>2021-08-22T10:11:23.000Z</time>
      </trkpt>
      <trkpt lat="47.47679" lon="-1.37262">
        <ele>91</ele>
        <time>2021-08-22T10:11:25.000Z</time>
      </trkpt>
      <trkpt lat="47.47666" lon="-1.37265">
        <ele>91</ele>
        <time>2021-08-22T10:11:27.000Z</time>
      </trkpt>
      <trkpt lat="47.47652" lon="-1.37267">
        <ele>90</ele>
        <time>2021-08-22T10:11:29.000Z</time>
      </trkpt>
      <trkpt lat="47.47638" lon="-1.37267">
        <ele>90</ele>
        <time>2021-08-22T10:11:31.000Z</time>
      </trkpt>
      <trkpt lat="47.47623" lon="-1.37268">
        <ele>89</ele>
        <time>2021-08-22T10:11:33.000Z</time>
      </trkpt>
      <trkpt lat="47.47609" lon="-1.37268">
        <ele>89</ele>
        <time>2021-08-22T10:11:35.000Z</time>
      </trkpt>
      <trkpt lat="47.47595" lon="-1.37268">
        <ele>89</ele>
        <time>2021-08-22T10:11:37.000Z</time>
      </trkpt>
      <trkpt lat="47.47581" lon="-1.37268">
        <ele>89</ele>
        <time>2021-08-22T10:11:39.000Z</time>
      </trkpt>
      <trkpt lat="47.47567" lon="-1.37268">
        <ele>89</ele>
        <time>2021-08-22T10:11:41.000Z</time>
      </trkpt>
      <trkpt lat="47.47554" lon="-1.37269">
        <ele>90</ele>
        <time>2021-08-22T10:11:43.000Z</time>
      </trkpt>
      <trkpt lat="47.4754" lon="-1.37269">
        <ele>89</ele>
        <time>2021-08-22T10:11:45.000Z</time>
      </trkpt>
      <trkpt lat="47.47526" lon="-1.3727">
        <ele>90</ele>
        <time>2021-08-22T10:11:47.000Z</time>
      </trkpt>
      <trkpt lat="47.47512" lon="-1.37271">
        <ele>90</ele>
        <time>2021-08-22T10:11:49.000Z</time>
      </trkpt>
      <trkpt lat="47.47498" lon="-1.37271">
        <ele>89</ele>
        <time>2021-08-22T10:11:51.000Z</time>
      </trkpt>
      <trkpt lat="47.47484" lon="-1.37271">
        <ele>89</ele>
        <time>2021-08-22T10:11:53.000Z</time>
      </trkpt>
      <trkpt lat="47.4747" lon="-1.37271">
        <ele>88</ele>
        <time>2021-08-22T10:11:55.000Z</time>
      </trkpt>
      <trkpt lat="47.47456" lon="-1.3727">
        <ele>88</ele>
        <time>2021-08-22T10:11:57.000Z</time>
      </trkpt>
      <trkpt lat="47.47441" lon="-1.3727">
        <ele>87</ele>
        <time>2021-08-22T10:11:59.000Z</time>
      </trkpt>
      <trkpt lat="47.47425" lon="-1.37267">
        <ele>87</ele>
        <time>2021-08-22T10:12:01.000Z</time>
      </trkpt>
      <trkpt lat="47.4741" lon="-1.3726">
        <ele>86</ele>
        <time>2021-08-22T10:12:03.000Z</time>
      </trkpt>
      <trkpt lat="47.47396" lon="-1.3725">
        <ele>86</ele>
        <time>2021-08-22T10:12:05.000Z</time>
      </trkpt>
      <trkpt lat="47.47383" lon="-1.37236">
        <ele>85</ele>
        <time>2021-08-22T10:12:07.000Z</time>
      </trkpt>
      <trkpt lat="47.47369" lon="-1.37224">
        <ele>84</ele>
        <time>2021-08-22T10:12:09.000Z</time>
      </trkpt>
      <trkpt lat="47.47355" lon="-1.37212">
        <ele>84</ele>
        <time>2021-08-22T10:12:11.000Z</time>
      </trkpt>
      <trkpt lat="47.4734" lon="-1.37201">
        <ele>85</ele>
        <time>2021-08-22T10:12:13.000Z</time>
      </trkpt>
      <trkpt lat="47.47325" lon="-1.37189">
        <ele>84</ele>
        <time>2021-08-22T10:12:15.000Z</time>
      </trkpt>
      <trkpt lat="47.47313" lon="-1.37179">
        <ele>84</ele>
        <time>2021-08-22T10:12:17.000Z</time>
      </trkpt>
      <trkpt lat="47.47301" lon="-1.37169">
        <ele>84</ele>
        <time>2021-08-22T10:12:19.000Z</time>
      </trkpt>
      <trkpt lat="47.4729" lon="-1.37159">
        <ele>84</ele>
        <time>2021-08-22T10:12:21.000Z</time>
      </trkpt>
      <trkpt lat="47.47278" lon="-1.37149">
        <ele>85</ele>
        <time>2021-08-22T10:12:23.000Z</time>
      </trkpt>
      <trkpt lat="47.47266" lon="-1.3714">
        <ele>85</ele>
        <time>2021-08-22T10:12:25.000Z</time>
      </trkpt>
      <trkpt lat="47.47255" lon="-1.3713">
        <ele>86</ele>
        <time>2021-08-22T10:12:27.000Z</time>
      </trkpt>
      <trkpt lat="47.47244" lon="-1.37121">
        <ele>87</ele>
        <time>2021-08-22T10:12:29.000Z</time>
      </trkpt>
      <trkpt lat="47.47233" lon="-1.37112">
        <ele>87</ele>
        <time>2021-08-22T10:12:31.000Z</time>
      </trkpt>
      <trkpt lat="47.47221" lon="-1.37104">
        <ele>87</ele>
        <time>2021-08-22T10:12:33.000Z</time>
      </trkpt>
      <trkpt lat="47.47209" lon="-1.37094">
        <ele>88</ele>
        <time>2021-08-22T10:12:35.000Z</time>
      </trkpt>
      <trkpt lat="47.47198" lon="-1.37085">
        <ele>88</ele>
        <time>2021-08-22T10:12:37.000Z</time>
      </trkpt>
      <trkpt lat="47.47187" lon="-1.37075">
        <ele>89</ele>
        <time>2021-08-22T10:12:39.000Z</time>
      </trkpt>
      <trkpt lat="47.47176" lon="-1.37066">
        <ele>89</ele>
        <time>2021-08-22T10:12:41.000Z</time>
      </trkpt>
      <trkpt lat="47.47164" lon="-1.37057">
        <ele>88</ele>
        <time>2021-08-22T10:12:43.000Z</time>
      </trkpt>
      <trkpt lat="47.47153" lon="-1.37047">
        <ele>88</ele>
        <time>2021-08-22T10:12:45.000Z</time>
      </trkpt>
      <trkpt lat="47.47141" lon="-1.37037">
        <ele>88</ele>
        <time>2021-08-22T10:12:47.000Z</time>
      </trkpt>
      <trkpt lat="47.47129" lon="-1.37027">
        <ele>88</ele>
        <time>2021-08-22T10:12:49.000Z</time>
      </trkpt>
      <trkpt lat="47.47117" lon="-1.37017">
        <ele>87</ele>
        <time>2021-08-22T10:12:51.000Z</time>
      </trkpt>
      <trkpt lat="47.47105" lon="-1.37006">
        <ele>86</ele>
        <time>2021-08-22T10:12:53.000Z</time>
      </trkpt>
      <trkpt lat="47.47093" lon="-1.36997">
        <ele>86</ele>
        <time>2021-08-22T10:12:55.000Z</time>
      </trkpt>
      <trkpt lat="47.47081" lon="-1.36987">
        <ele>86</ele>
        <time>2021-08-22T10:12:57.000Z</time>
      </trkpt>
      <trkpt lat="47.47069" lon="-1.36977">
        <ele>86</ele>
        <time>2021-08-22T10:12:59.000Z</time>
      </trkpt>
      <trkpt lat="47.47056" lon="-1.36966">
        <ele>86</ele>
        <time>2021-08-22T10:13:01.000Z</time>
      </trkpt>
      <trkpt lat="47.47043" lon="-1.36955">
        <ele>85</ele>
        <time>2021-08-22T10:13:03.000Z</time>
      </trkpt>
      <trkpt lat="47.47029" lon="-1.36945">
        <ele>84</ele>
        <time>2021-08-22T10:13:05.000Z</time>
      </trkpt>
      <trkpt lat="47.47016" lon="-1.36934">
        <ele>83</ele>
        <time>2021-08-22T10:13:07.000Z</time>
      </trkpt>
      <trkpt lat="47.47003" lon="-1.36923">
        <ele>83</ele>
        <time>2021-08-22T10:13:09.000Z</time>
      </trkpt>
      <trkpt lat="47.4699" lon="-1.36912">
        <ele>83</ele>
        <time>2021-08-22T10:13:11.000Z</time>
      </trkpt>
      <trkpt lat="47.46976" lon="-1.369">
        <ele>82</ele>
        <time>2021-08-22T10:13:13.000Z</time>
      </trkpt>
      <trkpt lat="47.46963" lon="-1.36889">
        <ele>82</ele>
        <time>2021-08-22T10:13:15.000Z</time>
      </trkpt>
      <trkpt lat="47.46948" lon="-1.36877">
        <ele>82</ele>
        <time>2021-08-22T10:13:17.000Z</time>
      </trkpt>
      <trkpt lat="47.46935" lon="-1.36866">
        <ele>82</ele>
        <time>2021-08-22T10:13:19.000Z</time>
      </trkpt>
      <trkpt lat="47.46921" lon="-1.36855">
        <ele>82</ele>
        <time>2021-08-22T10:13:21.000Z</time>
      </trkpt>
      <trkpt lat="47.46909" lon="-1.36844">
        <ele>81</ele>
        <time>2021-08-22T10:13:23.000Z</time>
      </trkpt>
      <trkpt lat="47.46896" lon="-1.36834">
        <ele>82</ele>
        <time>2021-08-22T10:13:25.000Z</time>
      </trkpt>
      <trkpt lat="47.46885" lon="-1.36825">
        <ele>82</ele>
        <time>2021-08-22T10:13:27.000Z</time>
      </trkpt>
      <trkpt lat="47.46873" lon="-1.36816">
        <ele>82</ele>
        <time>2021-08-22T10:13:29.000Z</time>
      </trkpt>
      <trkpt lat="47.4686" lon="-1.36806">
        <ele>82</ele>
        <time>2021-08-22T10:13:31.000Z</time>
      </trkpt>
      <trkpt lat="47.46849" lon="-1.36797">
        <ele>82</ele>
        <time>2021-08-22T10:13:33.000Z</time>
      </trkpt>
      <trkpt lat="47.46837" lon="-1.36787">
        <ele>83</ele>
        <time>2021-08-22T10:13:35.000Z</time>
      </trkpt>
      <trkpt lat="47.46825" lon="-1.36777">
        <ele>83</ele>
        <time>2021-08-22T10:13:37.000Z</time>
      </trkpt>
      <trkpt lat="47.46813" lon="-1.36767">
        <ele>83</ele>
        <time>2021-08-22T10:13:39.000Z</time>
      </trkpt>
      <trkpt lat="47.46802" lon="-1.36758">
        <ele>83</ele>
        <time>2021-08-22T10:13:41.000Z</time>
      </trkpt>
      <trkpt lat="47.4679" lon="-1.36748">
        <ele>83</ele>
        <time>2021-08-22T10:13:43.000Z</time>
      </trkpt>
      <trkpt lat="47.46779" lon="-1.36738">
        <ele>84</ele>
        <time>2021-08-22T10:13:45.000Z</time>
      </trkpt>
      <trkpt lat="47.46768" lon="-1.36728">
        <ele>84</ele>
        <time>2021-08-22T10:13:47.000Z</time>
      </trkpt>
      <trkpt lat="47.46756" lon="-1.36719">
        <ele>84</ele>
        <time>2021-08-22T10:13:49.000Z</time>
      </trkpt>
      <trkpt lat="47.46745" lon="-1.3671">
        <ele>85</ele>
        <time>2021-08-22T10:13:51.000Z</time>
      </trkpt>
      <trkpt lat="47.46734" lon="-1.367">
        <ele>85</ele>
        <time>2021-08-22T10:13:53.000Z</time>
      </trkpt>
      <trkpt lat="47.46722" lon="-1.36691">
        <ele>85</ele>
        <time>2021-08-22T10:13:55.000Z</time>
      </trkpt>
      <trkpt lat="47.46711" lon="-1.36681">
        <ele>86</ele>
        <time>2021-08-22T10:13:57.000Z</time>
      </trkpt>
      <trkpt lat="47.467" lon="-1.36672">
        <ele>86</ele>
        <time>2021-08-22T10:13:59.000Z</time>
      </trkpt>
      <trkpt lat="47.46689" lon="-1.36663">
        <ele>86</ele>
        <time>2021-08-22T10:14:01.000Z</time>
      </trkpt>
      <trkpt lat="47.46677" lon="-1.36654">
        <ele>86</ele>
        <time>2021-08-22T10:14:03.000Z</time>
      </trkpt>
      <trkpt lat="47.46666" lon="-1.36645">
        <ele>87</ele>
        <time>2021-08-22T10:14:05.000Z</time>
      </trkpt>
      <trkpt lat="47.46654" lon="-1.36636">
        <ele>86</ele>
        <time>2021-08-22T10:14:07.000Z</time>
      </trkpt>
      <trkpt lat="47.46643" lon="-1.36627">
        <ele>86</ele>
        <time>2021-08-22T10:14:09.000Z</time>
      </trkpt>
      <trkpt lat="47.46632" lon="-1.36617">
        <ele>87</ele>
        <time>2021-08-22T10:14:11.000Z</time>
      </trkpt>
      <trkpt lat="47.46621" lon="-1.36608">
        <ele>87</ele>
        <time>2021-08-22T10:14:13.000Z</time>
      </trkpt>
      <trkpt lat="47.4661" lon="-1.366">
        <ele>88</ele>
        <time>2021-08-22T10:14:15.000Z</time>
      </trkpt>
      <trkpt lat="47.46599" lon="-1.36591">
        <ele>88</ele>
        <time>2021-08-22T10:14:17.000Z</time>
      </trkpt>
      <trkpt lat="47.46588" lon="-1.36583">
        <ele>89</ele>
        <time>2021-08-22T10:14:19.000Z</time>
      </trkpt>
      <trkpt lat="47.46577" lon="-1.36575">
        <ele>90</ele>
        <time>2021-08-22T10:14:21.000Z</time>
      </trkpt>
      <trkpt lat="47.46566" lon="-1.36566">
        <ele>90</ele>
        <time>2021-08-22T10:14:23.000Z</time>
      </trkpt>
      <trkpt lat="47.46556" lon="-1.36557">
        <ele>90</ele>
        <time>2021-08-22T10:14:25.000Z</time>
      </trkpt>
      <trkpt lat="47.46545" lon="-1.36548">
        <ele>90</ele>
        <time>2021-08-22T10:14:27.000Z</time>
      </trkpt>
      <trkpt lat="47.46533" lon="-1.36538">
        <ele>89</ele>
        <time>2021-08-22T10:14:29.000Z</time>
      </trkpt>
      <trkpt lat="47.46522" lon="-1.36529">
        <ele>89</ele>
        <time>2021-08-22T10:14:31.000Z</time>
      </trkpt>
      <trkpt lat="47.46511" lon="-1.3652">
        <ele>88</ele>
        <time>2021-08-22T10:14:33.000Z</time>
      </trkpt>
      <trkpt lat="47.46499" lon="-1.36511">
        <ele>88</ele>
        <time>2021-08-22T10:14:35.000Z</time>
      </trkpt>
      <trkpt lat="47.46488" lon="-1.36502">
        <ele>88</ele>
        <time>2021-08-22T10:14:37.000Z</time>
      </trkpt>
      <trkpt lat="47.46477" lon="-1.36493">
        <ele>87</ele>
        <time>2021-08-22T10:14:39.000Z</time>
      </trkpt>
      <trkpt lat="47.46465" lon="-1.36483">
        <ele>87</ele>
        <time>2021-08-22T10:14:41.000Z</time>
      </trkpt>
      <trkpt lat="47.46453" lon="-1.36474">
        <ele>87</ele>
        <time>2021-08-22T10:14:43.000Z</time>
      </trkpt>
      <trkpt lat="47.46441" lon="-1.36464">
        <ele>86</ele>
        <time>2021-08-22T10:14:45.000Z</time>
      </trkpt>
      <trkpt lat="47.4643" lon="-1.36454">
        <ele>86</ele>
        <time>2021-08-22T10:14:47.000Z</time>
      </trkpt>
      <trkpt lat="47.46418" lon="-1.36444">
        <ele>86</ele>
        <time>2021-08-22T10:14:49.000Z</time>
      </trkpt>
      <trkpt lat="47.46406" lon="-1.36435">
        <ele>86</ele>
        <time>2021-08-22T10:14:51.000Z</time>
      </trkpt>
      <trkpt lat="47.46394" lon="-1.36425">
        <ele>86</ele>
        <time>2021-08-22T10:14:53.000Z</time>
      </trkpt>
      <trkpt lat="47.46383" lon="-1.36416">
        <ele>86</ele>
        <time>2021-08-22T10:14:55.000Z</time>
      </trkpt>
      <trkpt lat="47.4637" lon="-1.36406">
        <ele>86</ele>
        <time>2021-08-22T10:14:57.000Z</time>
      </trkpt>
      <trkpt lat="47.46359" lon="-1.36396">
        <ele>86</ele>
        <time>2021-08-22T10:14:59.000Z</time>
      </trkpt>
      <trkpt lat="47.46346" lon="-1.36387">
        <ele>86</ele>
        <time>2021-08-22T10:15:01.000Z</time>
      </trkpt>
      <trkpt lat="47.46334" lon="-1.36377">
        <ele>86</ele>
        <time>2021-08-22T10:15:03.000Z</time>
      </trkpt>
      <trkpt lat="47.46321" lon="-1.36367">
        <ele>86</ele>
        <time>2021-08-22T10:15:05.000Z</time>
      </trkpt>
      <trkpt lat="47.46309" lon="-1.36356">
        <ele>86</ele>
        <time>2021-08-22T10:15:07.000Z</time>
      </trkpt>
      <trkpt lat="47.46297" lon="-1.36347">
        <ele>86</ele>
        <time>2021-08-22T10:15:09.000Z</time>
      </trkpt>
      <trkpt lat="47.46285" lon="-1.36337">
        <ele>85</ele>
        <time>2021-08-22T10:15:11.000Z</time>
      </trkpt>
      <trkpt lat="47.46272" lon="-1.36326">
        <ele>85</ele>
        <time>2021-08-22T10:15:13.000Z</time>
      </trkpt>
      <trkpt lat="47.4626" lon="-1.36316">
        <ele>86</ele>
        <time>2021-08-22T10:15:15.000Z</time>
      </trkpt>
      <trkpt lat="47.46248" lon="-1.36307">
        <ele>86</ele>
        <time>2021-08-22T10:15:17.000Z</time>
      </trkpt>
      <trkpt lat="47.46236" lon="-1.36296">
        <ele>85</ele>
        <time>2021-08-22T10:15:19.000Z</time>
      </trkpt>
      <trkpt lat="47.46224" lon="-1.36286">
        <ele>86</ele>
        <time>2021-08-22T10:15:21.000Z</time>
      </trkpt>
      <trkpt lat="47.46211" lon="-1.36276">
        <ele>86</ele>
        <time>2021-08-22T10:15:23.000Z</time>
      </trkpt>
      <trkpt lat="47.46199" lon="-1.36267">
        <ele>85</ele>
        <time>2021-08-22T10:15:25.000Z</time>
      </trkpt>
      <trkpt lat="47.46187" lon="-1.36257">
        <ele>86</ele>
        <time>2021-08-22T10:15:27.000Z</time>
      </trkpt>
      <trkpt lat="47.46175" lon="-1.36248">
        <ele>86</ele>
        <time>2021-08-22T10:15:29.000Z</time>
      </trkpt>
      <trkpt lat="47.46163" lon="-1.36239">
        <ele>86</ele>
        <time>2021-08-22T10:15:31.000Z</time>
      </trkpt>
      <trkpt lat="47.46151" lon="-1.36229">
        <ele>87</ele>
        <time>2021-08-22T10:15:33.000Z</time>
      </trkpt>
      <trkpt lat="47.46139" lon="-1.3622">
        <ele>86</ele>
        <time>2021-08-22T10:15:35.000Z</time>
      </trkpt>
      <trkpt lat="47.46127" lon="-1.3621">
        <ele>86</ele>
        <time>2021-08-22T10:15:37.000Z</time>
      </trkpt>
      <trkpt lat="47.46116" lon="-1.36201">
        <ele>86</ele>
        <time>2021-08-22T10:15:39.000Z</time>
      </trkpt>
      <trkpt lat="47.46104" lon="-1.36191">
        <ele>86</ele>
        <time>2021-08-22T10:15:41.000Z</time>
      </trkpt>
      <trkpt lat="47.46092" lon="-1.36182">
        <ele>86</ele>
        <time>2021-08-22T10:15:43.000Z</time>
      </trkpt>
      <trkpt lat="47.4608" lon="-1.36172">
        <ele>86</ele>
        <time>2021-08-22T10:15:45.000Z</time>
      </trkpt>
      <trkpt lat="47.46069" lon="-1.36163">
        <ele>86</ele>
        <time>2021-08-22T10:15:47.000Z</time>
      </trkpt>
      <trkpt lat="47.46058" lon="-1.36153">
        <ele>86</ele>
        <time>2021-08-22T10:15:49.000Z</time>
      </trkpt>
      <trkpt lat="47.46045" lon="-1.36143">
        <ele>86</ele>
        <time>2021-08-22T10:15:51.000Z</time>
      </trkpt>
      <trkpt lat="47.46034" lon="-1.36134">
        <ele>86</ele>
        <time>2021-08-22T10:15:53.000Z</time>
      </trkpt>
      <trkpt lat="47.46023" lon="-1.36125">
        <ele>86</ele>
        <time>2021-08-22T10:15:55.000Z</time>
      </trkpt>
      <trkpt lat="47.46011" lon="-1.36116">
        <ele>86</ele>
        <time>2021-08-22T10:15:57.000Z</time>
      </trkpt>
      <trkpt lat="47.46" lon="-1.36107">
        <ele>86</ele>
        <time>2021-08-22T10:15:59.000Z</time>
      </trkpt>
      <trkpt lat="47.45989" lon="-1.36098">
        <ele>86</ele>
        <time>2021-08-22T10:16:01.000Z</time>
      </trkpt>
      <trkpt lat="47.45978" lon="-1.36089">
        <ele>86</ele>
        <time>2021-08-22T10:16:03.000Z</time>
      </trkpt>
      <trkpt lat="47.45967" lon="-1.3608">
        <ele>86</ele>
        <time>2021-08-22T10:16:05.000Z</time>
      </trkpt>
      <trkpt lat="47.45956" lon="-1.36072">
        <ele>86</ele>
        <time>2021-08-22T10:16:07.000Z</time>
      </trkpt>
      <trkpt lat="47.45944" lon="-1.36064">
        <ele>86</ele>
        <time>2021-08-22T10:16:09.000Z</time>
      </trkpt>
      <trkpt lat="47.45932" lon="-1.36055">
        <ele>87</ele>
        <time>2021-08-22T10:16:11.000Z</time>
      </trkpt>
      <trkpt lat="47.45921" lon="-1.36046">
        <ele>87</ele>
        <time>2021-08-22T10:16:13.000Z</time>
      </trkpt>
      <trkpt lat="47.4591" lon="-1.36036">
        <ele>87</ele>
        <time>2021-08-22T10:16:15.000Z</time>
      </trkpt>
      <trkpt lat="47.45899" lon="-1.36027">
        <ele>87</ele>
        <time>2021-08-22T10:16:17.000Z</time>
      </trkpt>
      <trkpt lat="47.45888" lon="-1.36018">
        <ele>87</ele>
        <time>2021-08-22T10:16:19.000Z</time>
      </trkpt>
      <trkpt lat="47.45877" lon="-1.36008">
        <ele>87</ele>
        <time>2021-08-22T10:16:21.000Z</time>
      </trkpt>
      <trkpt lat="47.45866" lon="-1.36">
        <ele>87</ele>
        <time>2021-08-22T10:16:23.000Z</time>
      </trkpt>
      <trkpt lat="47.45856" lon="-1.3599">
        <ele>87</ele>
        <time>2021-08-22T10:16:25.000Z</time>
      </trkpt>
      <trkpt lat="47.45845" lon="-1.35981">
        <ele>88</ele>
        <time>2021-08-22T10:16:27.000Z</time>
      </trkpt>
      <trkpt lat="47.45834" lon="-1.35972">
        <ele>89</ele>
        <time>2021-08-22T10:16:29.000Z</time>
      </trkpt>
      <trkpt lat="47.45822" lon="-1.35963">
        <ele>90</ele>
        <time>2021-08-22T10:16:31.000Z</time>
      </trkpt>
      <trkpt lat="47.45812" lon="-1.35954">
        <ele>90</ele>
        <time>2021-08-22T10:16:33.000Z</time>
      </trkpt>
      <trkpt lat="47.45801" lon="-1.35944">
        <ele>90</ele>
        <time>2021-08-22T10:16:35.000Z</time>
      </trkpt>
      <trkpt lat="47.4579" lon="-1.35934">
        <ele>91</ele>
        <time>2021-08-22T10:16:37.000Z</time>
      </trkpt>
      <trkpt lat="47.4578" lon="-1.35923">
        <ele>91</ele>
        <time>2021-08-22T10:16:39.000Z</time>
      </trkpt>
      <trkpt lat="47.45769" lon="-1.35911">
        <ele>91</ele>
        <time>2021-08-22T10:16:41.000Z</time>
      </trkpt>
      <trkpt lat="47.45759" lon="-1.35898">
        <ele>91</ele>
        <time>2021-08-22T10:16:43.000Z</time>
      </trkpt>
      <trkpt lat="47.4575" lon="-1.35884">
        <ele>91</ele>
        <time>2021-08-22T10:16:45.000Z</time>
      </trkpt>
      <trkpt lat="47.4574" lon="-1.35871">
        <ele>91</ele>
        <time>2021-08-22T10:16:47.000Z</time>
      </trkpt>
      <trkpt lat="47.45731" lon="-1.35858">
        <ele>91</ele>
        <time>2021-08-22T10:16:49.000Z</time>
      </trkpt>
      <trkpt lat="47.45722" lon="-1.35845">
        <ele>91</ele>
        <time>2021-08-22T10:16:51.000Z</time>
      </trkpt>
      <trkpt lat="47.45712" lon="-1.35832">
        <ele>91</ele>
        <time>2021-08-22T10:16:53.000Z</time>
      </trkpt>
      <trkpt lat="47.45703" lon="-1.3582">
        <ele>91</ele>
        <time>2021-08-22T10:16:55.000Z</time>
      </trkpt>
      <trkpt lat="47.45693" lon="-1.35807">
        <ele>91</ele>
        <time>2021-08-22T10:16:57.000Z</time>
      </trkpt>
      <trkpt lat="47.45684" lon="-1.35795">
        <ele>91</ele>
        <time>2021-08-22T10:16:59.000Z</time>
      </trkpt>
      <trkpt lat="47.45674" lon="-1.35781">
        <ele>90</ele>
        <time>2021-08-22T10:17:01.000Z</time>
      </trkpt>
      <trkpt lat="47.45664" lon="-1.35767">
        <ele>90</ele>
        <time>2021-08-22T10:17:03.000Z</time>
      </trkpt>
      <trkpt lat="47.45654" lon="-1.35753">
        <ele>90</ele>
        <time>2021-08-22T10:17:05.000Z</time>
      </trkpt>
      <trkpt lat="47.45644" lon="-1.35739">
        <ele>90</ele>
        <time>2021-08-22T10:17:07.000Z</time>
      </trkpt>
      <trkpt lat="47.45634" lon="-1.35725">
        <ele>90</ele>
        <time>2021-08-22T10:17:09.000Z</time>
      </trkpt>
      <trkpt lat="47.45624" lon="-1.35711">
        <ele>89</ele>
        <time>2021-08-22T10:17:11.000Z</time>
      </trkpt>
      <trkpt lat="47.45614" lon="-1.35697">
        <ele>89</ele>
        <time>2021-08-22T10:17:13.000Z</time>
      </trkpt>
      <trkpt lat="47.45604" lon="-1.35683">
        <ele>89</ele>
        <time>2021-08-22T10:17:15.000Z</time>
      </trkpt>
      <trkpt lat="47.45593" lon="-1.35669">
        <ele>89</ele>
        <time>2021-08-22T10:17:17.000Z</time>
      </trkpt>
      <trkpt lat="47.45582" lon="-1.35655">
        <ele>89</ele>
        <time>2021-08-22T10:17:19.000Z</time>
      </trkpt>
      <trkpt lat="47.45572" lon="-1.35641">
        <ele>89</ele>
        <time>2021-08-22T10:17:21.000Z</time>
      </trkpt>
      <trkpt lat="47.45561" lon="-1.35627">
        <ele>89</ele>
        <time>2021-08-22T10:17:23.000Z</time>
      </trkpt>
      <trkpt lat="47.45551" lon="-1.35613">
        <ele>89</ele>
        <time>2021-08-22T10:17:25.000Z</time>
      </trkpt>
      <trkpt lat="47.4554" lon="-1.35599">
        <ele>89</ele>
        <time>2021-08-22T10:17:27.000Z</time>
      </trkpt>
      <trkpt lat="47.4553" lon="-1.35586">
        <ele>88</ele>
        <time>2021-08-22T10:17:29.000Z</time>
      </trkpt>
      <trkpt lat="47.4552" lon="-1.35572">
        <ele>88</ele>
        <time>2021-08-22T10:17:31.000Z</time>
      </trkpt>
      <trkpt lat="47.45509" lon="-1.35558">
        <ele>88</ele>
        <time>2021-08-22T10:17:33.000Z</time>
      </trkpt>
      <trkpt lat="47.45499" lon="-1.35543">
        <ele>88</ele>
        <time>2021-08-22T10:17:35.000Z</time>
      </trkpt>
      <trkpt lat="47.45488" lon="-1.35528">
        <ele>88</ele>
        <time>2021-08-22T10:17:37.000Z</time>
      </trkpt>
      <trkpt lat="47.45478" lon="-1.35513">
        <ele>88</ele>
        <time>2021-08-22T10:17:39.000Z</time>
      </trkpt>
      <trkpt lat="47.45467" lon="-1.35499">
        <ele>88</ele>
        <time>2021-08-22T10:17:41.000Z</time>
      </trkpt>
      <trkpt lat="47.45457" lon="-1.35485">
        <ele>88</ele>
        <time>2021-08-22T10:17:43.000Z</time>
      </trkpt>
      <trkpt lat="47.45446" lon="-1.35471">
        <ele>88</ele>
        <time>2021-08-22T10:17:45.000Z</time>
      </trkpt>
      <trkpt lat="47.45436" lon="-1.35457">
        <ele>88</ele>
        <time>2021-08-22T10:17:47.000Z</time>
      </trkpt>
      <trkpt lat="47.45425" lon="-1.35442">
        <ele>89</ele>
        <time>2021-08-22T10:17:49.000Z</time>
      </trkpt>
      <trkpt lat="47.45414" lon="-1.35428">
        <ele>89</ele>
        <time>2021-08-22T10:17:51.000Z</time>
      </trkpt>
      <trkpt lat="47.45404" lon="-1.35413">
        <ele>89</ele>
        <time>2021-08-22T10:17:53.000Z</time>
      </trkpt>
      <trkpt lat="47.45393" lon="-1.35399">
        <ele>89</ele>
        <time>2021-08-22T10:17:55.000Z</time>
      </trkpt>
      <trkpt lat="47.45382" lon="-1.35385">
        <ele>89</ele>
        <time>2021-08-22T10:17:57.000Z</time>
      </trkpt>
      <trkpt lat="47.45371" lon="-1.3537">
        <ele>89</ele>
        <time>2021-08-22T10:17:59.000Z</time>
      </trkpt>
      <trkpt lat="47.45361" lon="-1.35355">
        <ele>89</ele>
        <time>2021-08-22T10:18:01.000Z</time>
      </trkpt>
      <trkpt lat="47.4535" lon="-1.35341">
        <ele>89</ele>
        <time>2021-08-22T10:18:03.000Z</time>
      </trkpt>
      <trkpt lat="47.4534" lon="-1.35327">
        <ele>89</ele>
        <time>2021-08-22T10:18:05.000Z</time>
      </trkpt>
      <trkpt lat="47.45329" lon="-1.35312">
        <ele>89</ele>
        <time>2021-08-22T10:18:07.000Z</time>
      </trkpt>
      <trkpt lat="47.45319" lon="-1.35298">
        <ele>89</ele>
        <time>2021-08-22T10:18:09.000Z</time>
      </trkpt>
      <trkpt lat="47.45308" lon="-1.35284">
        <ele>88</ele>
        <time>2021-08-22T10:18:11.000Z</time>
      </trkpt>
      <trkpt lat="47.45298" lon="-1.3527">
        <ele>88</ele>
        <time>2021-08-22T10:18:13.000Z</time>
      </trkpt>
      <trkpt lat="47.45287" lon="-1.35255">
        <ele>88</ele>
        <time>2021-08-22T10:18:15.000Z</time>
      </trkpt>
      <trkpt lat="47.45276" lon="-1.35241">
        <ele>88</ele>
        <time>2021-08-22T10:18:17.000Z</time>
      </trkpt>
      <trkpt lat="47.45266" lon="-1.35227">
        <ele>87</ele>
        <time>2021-08-22T10:18:19.000Z</time>
      </trkpt>
      <trkpt lat="47.45254" lon="-1.35215">
        <ele>87</ele>
        <time>2021-08-22T10:18:21.000Z</time>
      </trkpt>
      <trkpt lat="47.45241" lon="-1.35207">
        <ele>87</ele>
        <time>2021-08-22T10:18:23.000Z</time>
      </trkpt>
      <trkpt lat="47.45228" lon="-1.35199">
        <ele>87</ele>
        <time>2021-08-22T10:18:25.000Z</time>
      </trkpt>
      <trkpt lat="47.45216" lon="-1.35191">
        <ele>87</ele>
        <time>2021-08-22T10:18:27.000Z</time>
      </trkpt>
      <trkpt lat="47.45204" lon="-1.35184">
        <ele>87</ele>
        <time>2021-08-22T10:18:29.000Z</time>
      </trkpt>
      <trkpt lat="47.45192" lon="-1.35178">
        <ele>88</ele>
        <time>2021-08-22T10:18:31.000Z</time>
      </trkpt>
      <trkpt lat="47.45179" lon="-1.35171">
        <ele>89</ele>
        <time>2021-08-22T10:18:33.000Z</time>
      </trkpt>
      <trkpt lat="47.45166" lon="-1.35163">
        <ele>90</ele>
        <time>2021-08-22T10:18:35.000Z</time>
      </trkpt>
      <trkpt lat="47.45153" lon="-1.35156">
        <ele>90</ele>
        <time>2021-08-22T10:18:37.000Z</time>
      </trkpt>
      <trkpt lat="47.45141" lon="-1.35149">
        <ele>91</ele>
        <time>2021-08-22T10:18:39.000Z</time>
      </trkpt>
      <trkpt lat="47.45128" lon="-1.35141">
        <ele>91</ele>
        <time>2021-08-22T10:18:41.000Z</time>
      </trkpt>
      <trkpt lat="47.45115" lon="-1.35134">
        <ele>91</ele>
        <time>2021-08-22T10:18:43.000Z</time>
      </trkpt>
      <trkpt lat="47.45103" lon="-1.35127">
        <ele>92</ele>
        <time>2021-08-22T10:18:45.000Z</time>
      </trkpt>
      <trkpt lat="47.45091" lon="-1.35121">
        <ele>92</ele>
        <time>2021-08-22T10:18:47.000Z</time>
      </trkpt>
      <trkpt lat="47.45078" lon="-1.35113">
        <ele>92</ele>
        <time>2021-08-22T10:18:49.000Z</time>
      </trkpt>
      <trkpt lat="47.45066" lon="-1.35106">
        <ele>92</ele>
        <time>2021-08-22T10:18:51.000Z</time>
      </trkpt>
      <trkpt lat="47.45054" lon="-1.35099">
        <ele>92</ele>
        <time>2021-08-22T10:18:53.000Z</time>
      </trkpt>
      <trkpt lat="47.45042" lon="-1.35092">
        <ele>92</ele>
        <time>2021-08-22T10:18:55.000Z</time>
      </trkpt>
      <trkpt lat="47.4503" lon="-1.35085">
        <ele>92</ele>
        <time>2021-08-22T10:18:57.000Z</time>
      </trkpt>
      <trkpt lat="47.45018" lon="-1.35078">
        <ele>92</ele>
        <time>2021-08-22T10:18:59.000Z</time>
      </trkpt>
      <trkpt lat="47.45005" lon="-1.35072">
        <ele>93</ele>
        <time>2021-08-22T10:19:01.000Z</time>
      </trkpt>
      <trkpt lat="47.44993" lon="-1.35065">
        <ele>92</ele>
        <time>2021-08-22T10:19:03.000Z</time>
      </trkpt>
      <trkpt lat="47.44982" lon="-1.35058">
        <ele>92</ele>
        <time>2021-08-22T10:19:05.000Z</time>
      </trkpt>
      <trkpt lat="47.4497" lon="-1.35051">
        <ele>92</ele>
        <time>2021-08-22T10:19:07.000Z</time>
      </trkpt>
      <trkpt lat="47.44958" lon="-1.35044">
        <ele>92</ele>
        <time>2021-08-22T10:19:09.000Z</time>
      </trkpt>
      <trkpt lat="47.44945" lon="-1.35038">
        <ele>92</ele>
        <time>2021-08-22T10:19:11.000Z</time>
      </trkpt>
      <trkpt lat="47.44933" lon="-1.35031">
        <ele>92</ele>
        <time>2021-08-22T10:19:13.000Z</time>
      </trkpt>
      <trkpt lat="47.4492" lon="-1.35023">
        <ele>92</ele>
        <time>2021-08-22T10:19:15.000Z</time>
      </trkpt>
      <trkpt lat="47.44907" lon="-1.35016">
        <ele>92</ele>
        <time>2021-08-22T10:19:17.000Z</time>
      </trkpt>
      <trkpt lat="47.44895" lon="-1.35008">
        <ele>92</ele>
        <time>2021-08-22T10:19:19.000Z</time>
      </trkpt>
      <trkpt lat="47.44882" lon="-1.35001">
        <ele>92</ele>
        <time>2021-08-22T10:19:21.000Z</time>
      </trkpt>
      <trkpt lat="47.4487" lon="-1.34994">
        <ele>92</ele>
        <time>2021-08-22T10:19:23.000Z</time>
      </trkpt>
      <trkpt lat="47.44859" lon="-1.34988">
        <ele>91</ele>
        <time>2021-08-22T10:19:25.000Z</time>
      </trkpt>
      <trkpt lat="47.44849" lon="-1.34985">
        <ele>91</ele>
        <time>2021-08-22T10:19:28.000Z</time>
      </trkpt>
      <trkpt lat="47.44839" lon="-1.34985">
        <ele>91</ele>
        <time>2021-08-22T10:19:31.000Z</time>
      </trkpt>
      <trkpt lat="47.44835" lon="-1.34971">
        <ele>91</ele>
        <time>2021-08-22T10:19:34.000Z</time>
      </trkpt>
      <trkpt lat="47.44838" lon="-1.34955">
        <ele>92</ele>
        <time>2021-08-22T10:19:36.000Z</time>
      </trkpt>
      <trkpt lat="47.44842" lon="-1.34939">
        <ele>92</ele>
        <time>2021-08-22T10:19:38.000Z</time>
      </trkpt>
      <trkpt lat="47.44845" lon="-1.34923">
        <ele>91</ele>
        <time>2021-08-22T10:19:40.000Z</time>
      </trkpt>
      <trkpt lat="47.44847" lon="-1.34904">
        <ele>91</ele>
        <time>2021-08-22T10:19:42.000Z</time>
      </trkpt>
      <trkpt lat="47.44846" lon="-1.34886">
        <ele>91</ele>
        <time>2021-08-22T10:19:44.000Z</time>
      </trkpt>
      <trkpt lat="47.44841" lon="-1.34871">
        <ele>92</ele>
        <time>2021-08-22T10:19:46.000Z</time>
      </trkpt>
      <trkpt lat="47.44834" lon="-1.34856">
        <ele>91</ele>
        <time>2021-08-22T10:19:48.000Z</time>
      </trkpt>
      <trkpt lat="47.44826" lon="-1.34842">
        <ele>91</ele>
        <time>2021-08-22T10:19:50.000Z</time>
      </trkpt>
      <trkpt lat="47.44815" lon="-1.34833">
        <ele>91</ele>
        <time>2021-08-22T10:19:52.000Z</time>
      </trkpt>
      <trkpt lat="47.44804" lon="-1.34825">
        <ele>91</ele>
        <time>2021-08-22T10:19:54.000Z</time>
      </trkpt>
      <trkpt lat="47.44793" lon="-1.34814">
        <ele>91</ele>
        <time>2021-08-22T10:19:56.000Z</time>
      </trkpt>
      <trkpt lat="47.44783" lon="-1.34802">
        <ele>91</ele>
        <time>2021-08-22T10:19:58.000Z</time>
      </trkpt>
      <trkpt lat="47.44773" lon="-1.34789">
        <ele>91</ele>
        <time>2021-08-22T10:20:00.000Z</time>
      </trkpt>
      <trkpt lat="47.44763" lon="-1.34776">
        <ele>90</ele>
        <time>2021-08-22T10:20:02.000Z</time>
      </trkpt>
      <trkpt lat="47.44752" lon="-1.34766">
        <ele>90</ele>
        <time>2021-08-22T10:20:04.000Z</time>
      </trkpt>
      <trkpt lat="47.44742" lon="-1.34754">
        <ele>90</ele>
        <time>2021-08-22T10:20:06.000Z</time>
      </trkpt>
      <trkpt lat="47.44731" lon="-1.34742">
        <ele>90</ele>
        <time>2021-08-22T10:20:08.000Z</time>
      </trkpt>
      <trkpt lat="47.44719" lon="-1.34732">
        <ele>90</ele>
        <time>2021-08-22T10:20:10.000Z</time>
      </trkpt>
      <trkpt lat="47.44709" lon="-1.34719">
        <ele>90</ele>
        <time>2021-08-22T10:20:12.000Z</time>
      </trkpt>
      <trkpt lat="47.44698" lon="-1.34707">
        <ele>90</ele>
        <time>2021-08-22T10:20:14.000Z</time>
      </trkpt>
      <trkpt lat="47.44688" lon="-1.34694">
        <ele>89</ele>
        <time>2021-08-22T10:20:16.000Z</time>
      </trkpt>
      <trkpt lat="47.44678" lon="-1.3468">
        <ele>89</ele>
        <time>2021-08-22T10:20:18.000Z</time>
      </trkpt>
      <trkpt lat="47.44669" lon="-1.34664">
        <ele>89</ele>
        <time>2021-08-22T10:20:20.000Z</time>
      </trkpt>
      <trkpt lat="47.44661" lon="-1.34648">
        <ele>89</ele>
        <time>2021-08-22T10:20:22.000Z</time>
      </trkpt>
      <trkpt lat="47.44654" lon="-1.34631">
        <ele>89</ele>
        <time>2021-08-22T10:20:24.000Z</time>
      </trkpt>
      <trkpt lat="47.44648" lon="-1.34612">
        <ele>88</ele>
        <time>2021-08-22T10:20:26.000Z</time>
      </trkpt>
      <trkpt lat="47.44643" lon="-1.34593">
        <ele>89</ele>
        <time>2021-08-22T10:20:28.000Z</time>
      </trkpt>
      <trkpt lat="47.44637" lon="-1.34576">
        <ele>89</ele>
        <time>2021-08-22T10:20:30.000Z</time>
      </trkpt>
      <trkpt lat="47.44631" lon="-1.34558">
        <ele>89</ele>
        <time>2021-08-22T10:20:32.000Z</time>
      </trkpt>
      <trkpt lat="47.44625" lon="-1.34541">
        <ele>89</ele>
        <time>2021-08-22T10:20:34.000Z</time>
      </trkpt>
      <trkpt lat="47.44619" lon="-1.34524">
        <ele>89</ele>
        <time>2021-08-22T10:20:36.000Z</time>
      </trkpt>
      <trkpt lat="47.44613" lon="-1.34507">
        <ele>89</ele>
        <time>2021-08-22T10:20:38.000Z</time>
      </trkpt>
      <trkpt lat="47.44607" lon="-1.3449">
        <ele>89</ele>
        <time>2021-08-22T10:20:40.000Z</time>
      </trkpt>
      <trkpt lat="47.446" lon="-1.34472">
        <ele>89</ele>
        <time>2021-08-22T10:20:42.000Z</time>
      </trkpt>
      <trkpt lat="47.44594" lon="-1.34454">
        <ele>89</ele>
        <time>2021-08-22T10:20:44.000Z</time>
      </trkpt>
      <trkpt lat="47.44587" lon="-1.34437">
        <ele>89</ele>
        <time>2021-08-22T10:20:46.000Z</time>
      </trkpt>
      <trkpt lat="47.44581" lon="-1.34418">
        <ele>89</ele>
        <time>2021-08-22T10:20:48.000Z</time>
      </trkpt>
      <trkpt lat="47.44575" lon="-1.344">
        <ele>89</ele>
        <time>2021-08-22T10:20:50.000Z</time>
      </trkpt>
      <trkpt lat="47.4457" lon="-1.34381">
        <ele>88</ele>
        <time>2021-08-22T10:20:52.000Z</time>
      </trkpt>
      <trkpt lat="47.44563" lon="-1.34362">
        <ele>88</ele>
        <time>2021-08-22T10:20:54.000Z</time>
      </trkpt>
      <trkpt lat="47.44557" lon="-1.34343">
        <ele>87</ele>
        <time>2021-08-22T10:20:56.000Z</time>
      </trkpt>
      <trkpt lat="47.44551" lon="-1.34325">
        <ele>87</ele>
        <time>2021-08-22T10:20:58.000Z</time>
      </trkpt>
      <trkpt lat="47.44544" lon="-1.34307">
        <ele>87</ele>
        <time>2021-08-22T10:21:00.000Z</time>
      </trkpt>
      <trkpt lat="47.44538" lon="-1.34289">
        <ele>87</ele>
        <time>2021-08-22T10:21:02.000Z</time>
      </trkpt>
      <trkpt lat="47.44531" lon="-1.3427">
        <ele>86</ele>
        <time>2021-08-22T10:21:04.000Z</time>
      </trkpt>
      <trkpt lat="47.44525" lon="-1.34252">
        <ele>86</ele>
        <time>2021-08-22T10:21:06.000Z</time>
      </trkpt>
      <trkpt lat="47.44519" lon="-1.34233">
        <ele>86</ele>
        <time>2021-08-22T10:21:08.000Z</time>
      </trkpt>
      <trkpt lat="47.44512" lon="-1.34214">
        <ele>85</ele>
        <time>2021-08-22T10:21:10.000Z</time>
      </trkpt>
      <trkpt lat="47.44504" lon="-1.34195">
        <ele>85</ele>
        <time>2021-08-22T10:21:12.000Z</time>
      </trkpt>
      <trkpt lat="47.44495" lon="-1.3418">
        <ele>85</ele>
        <time>2021-08-22T10:21:14.000Z</time>
      </trkpt>
      <trkpt lat="47.44482" lon="-1.34169">
        <ele>85</ele>
        <time>2021-08-22T10:21:16.000Z</time>
      </trkpt>
      <trkpt lat="47.44468" lon="-1.34163">
        <ele>85</ele>
        <time>2021-08-22T10:21:18.000Z</time>
      </trkpt>
      <trkpt lat="47.44453" lon="-1.34158">
        <ele>84</ele>
        <time>2021-08-22T10:21:20.000Z</time>
      </trkpt>
      <trkpt lat="47.44439" lon="-1.34152">
        <ele>84</ele>
        <time>2021-08-22T10:21:22.000Z</time>
      </trkpt>
      <trkpt lat="47.44423" lon="-1.34147">
        <ele>84</ele>
        <time>2021-08-22T10:21:24.000Z</time>
      </trkpt>
      <trkpt lat="47.44406" lon="-1.34142">
        <ele>83</ele>
        <time>2021-08-22T10:21:26.000Z</time>
      </trkpt>
      <trkpt lat="47.4439" lon="-1.34136">
        <ele>82</ele>
        <time>2021-08-22T10:21:28.000Z</time>
      </trkpt>
      <trkpt lat="47.44373" lon="-1.34129">
        <ele>82</ele>
        <time>2021-08-22T10:21:30.000Z</time>
      </trkpt>
      <trkpt lat="47.44357" lon="-1.34123">
        <ele>81</ele>
        <time>2021-08-22T10:21:32.000Z</time>
      </trkpt>
      <trkpt lat="47.44341" lon="-1.34116">
        <ele>80</ele>
        <time>2021-08-22T10:21:34.000Z</time>
      </trkpt>
      <trkpt lat="47.44325" lon="-1.3411">
        <ele>80</ele>
        <time>2021-08-22T10:21:36.000Z</time>
      </trkpt>
      <trkpt lat="47.44309" lon="-1.34104">
        <ele>79</ele>
        <time>2021-08-22T10:21:38.000Z</time>
      </trkpt>
      <trkpt lat="47.44292" lon="-1.341">
        <ele>79</ele>
        <time>2021-08-22T10:21:40.000Z</time>
      </trkpt>
      <trkpt lat="47.44276" lon="-1.34096">
        <ele>79</ele>
        <time>2021-08-22T10:21:42.000Z</time>
      </trkpt>
      <trkpt lat="47.4426" lon="-1.34092">
        <ele>78</ele>
        <time>2021-08-22T10:21:44.000Z</time>
      </trkpt>
      <trkpt lat="47.44244" lon="-1.34089">
        <ele>78</ele>
        <time>2021-08-22T10:21:46.000Z</time>
      </trkpt>
      <trkpt lat="47.44228" lon="-1.34086">
        <ele>78</ele>
        <time>2021-08-22T10:21:48.000Z</time>
      </trkpt>
      <trkpt lat="47.44212" lon="-1.34083">
        <ele>78</ele>
        <time>2021-08-22T10:21:50.000Z</time>
      </trkpt>
      <trkpt lat="47.44197" lon="-1.3408">
        <ele>78</ele>
        <time>2021-08-22T10:21:52.000Z</time>
      </trkpt>
      <trkpt lat="47.44182" lon="-1.34077">
        <ele>78</ele>
        <time>2021-08-22T10:21:54.000Z</time>
      </trkpt>
      <trkpt lat="47.44167" lon="-1.34074">
        <ele>78</ele>
        <time>2021-08-22T10:21:56.000Z</time>
      </trkpt>
      <trkpt lat="47.44152" lon="-1.34071">
        <ele>78</ele>
        <time>2021-08-22T10:21:58.000Z</time>
      </trkpt>
      <trkpt lat="47.44138" lon="-1.34068">
        <ele>77</ele>
        <time>2021-08-22T10:22:00.000Z</time>
      </trkpt>
      <trkpt lat="47.44123" lon="-1.34065">
        <ele>78</ele>
        <time>2021-08-22T10:22:02.000Z</time>
      </trkpt>
      <trkpt lat="47.4411" lon="-1.34062">
        <ele>77</ele>
        <time>2021-08-22T10:22:04.000Z</time>
      </trkpt>
      <trkpt lat="47.44096" lon="-1.34058">
        <ele>77</ele>
        <time>2021-08-22T10:22:06.000Z</time>
      </trkpt>
      <trkpt lat="47.44082" lon="-1.34054">
        <ele>77</ele>
        <time>2021-08-22T10:22:08.000Z</time>
      </trkpt>
      <trkpt lat="47.44068" lon="-1.34048">
        <ele>77</ele>
        <time>2021-08-22T10:22:10.000Z</time>
      </trkpt>
      <trkpt lat="47.44055" lon="-1.34043">
        <ele>77</ele>
        <time>2021-08-22T10:22:12.000Z</time>
      </trkpt>
      <trkpt lat="47.44041" lon="-1.34038">
        <ele>77</ele>
        <time>2021-08-22T10:22:14.000Z</time>
      </trkpt>
      <trkpt lat="47.44028" lon="-1.34033">
        <ele>76</ele>
        <time>2021-08-22T10:22:16.000Z</time>
      </trkpt>
      <trkpt lat="47.44015" lon="-1.34028">
        <ele>77</ele>
        <time>2021-08-22T10:22:18.000Z</time>
      </trkpt>
      <trkpt lat="47.44001" lon="-1.34024">
        <ele>77</ele>
        <time>2021-08-22T10:22:20.000Z</time>
      </trkpt>
      <trkpt lat="47.43988" lon="-1.34019">
        <ele>77</ele>
        <time>2021-08-22T10:22:22.000Z</time>
      </trkpt>
      <trkpt lat="47.43975" lon="-1.34015">
        <ele>77</ele>
        <time>2021-08-22T10:22:24.000Z</time>
      </trkpt>
      <trkpt lat="47.43962" lon="-1.3401">
        <ele>77</ele>
        <time>2021-08-22T10:22:26.000Z</time>
      </trkpt>
      <trkpt lat="47.43949" lon="-1.34005">
        <ele>77</ele>
        <time>2021-08-22T10:22:28.000Z</time>
      </trkpt>
      <trkpt lat="47.43936" lon="-1.34001">
        <ele>77</ele>
        <time>2021-08-22T10:22:30.000Z</time>
      </trkpt>
      <trkpt lat="47.43924" lon="-1.33996">
        <ele>77</ele>
        <time>2021-08-22T10:22:32.000Z</time>
      </trkpt>
      <trkpt lat="47.43911" lon="-1.33992">
        <ele>77</ele>
        <time>2021-08-22T10:22:34.000Z</time>
      </trkpt>
      <trkpt lat="47.43897" lon="-1.33987">
        <ele>78</ele>
        <time>2021-08-22T10:22:36.000Z</time>
      </trkpt>
      <trkpt lat="47.43884" lon="-1.33982">
        <ele>78</ele>
        <time>2021-08-22T10:22:38.000Z</time>
      </trkpt>
      <trkpt lat="47.43871" lon="-1.33978">
        <ele>78</ele>
        <time>2021-08-22T10:22:40.000Z</time>
      </trkpt>
      <trkpt lat="47.43858" lon="-1.33974">
        <ele>79</ele>
        <time>2021-08-22T10:22:42.000Z</time>
      </trkpt>
      <trkpt lat="47.43846" lon="-1.3397">
        <ele>79</ele>
        <time>2021-08-22T10:22:44.000Z</time>
      </trkpt>
      <trkpt lat="47.43834" lon="-1.33965">
        <ele>79</ele>
        <time>2021-08-22T10:22:46.000Z</time>
      </trkpt>
      <trkpt lat="47.43822" lon="-1.3396">
        <ele>79</ele>
        <time>2021-08-22T10:22:48.000Z</time>
      </trkpt>
      <trkpt lat="47.4381" lon="-1.33955">
        <ele>80</ele>
        <time>2021-08-22T10:22:50.000Z</time>
      </trkpt>
      <trkpt lat="47.43798" lon="-1.33948">
        <ele>80</ele>
        <time>2021-08-22T10:22:52.000Z</time>
      </trkpt>
      <trkpt lat="47.43787" lon="-1.33939">
        <ele>80</ele>
        <time>2021-08-22T10:22:54.000Z</time>
      </trkpt>
      <trkpt lat="47.43778" lon="-1.33927">
        <ele>81</ele>
        <time>2021-08-22T10:22:56.000Z</time>
      </trkpt>
      <trkpt lat="47.43769" lon="-1.33914">
        <ele>81</ele>
        <time>2021-08-22T10:22:58.000Z</time>
      </trkpt>
      <trkpt lat="47.43762" lon="-1.339">
        <ele>81</ele>
        <time>2021-08-22T10:23:00.000Z</time>
      </trkpt>
      <trkpt lat="47.43755" lon="-1.33885">
        <ele>81</ele>
        <time>2021-08-22T10:23:02.000Z</time>
      </trkpt>
      <trkpt lat="47.43748" lon="-1.3387">
        <ele>82</ele>
        <time>2021-08-22T10:23:04.000Z</time>
      </trkpt>
      <trkpt lat="47.43741" lon="-1.33856">
        <ele>82</ele>
        <time>2021-08-22T10:23:06.000Z</time>
      </trkpt>
      <trkpt lat="47.43733" lon="-1.33842">
        <ele>82</ele>
        <time>2021-08-22T10:23:08.000Z</time>
      </trkpt>
      <trkpt lat="47.43727" lon="-1.33829">
        <ele>82</ele>
        <time>2021-08-22T10:23:10.000Z</time>
      </trkpt>
      <trkpt lat="47.4372" lon="-1.33816">
        <ele>82</ele>
        <time>2021-08-22T10:23:12.000Z</time>
      </trkpt>
      <trkpt lat="47.43712" lon="-1.33802">
        <ele>82</ele>
        <time>2021-08-22T10:23:14.000Z</time>
      </trkpt>
      <trkpt lat="47.43704" lon="-1.33789">
        <ele>83</ele>
        <time>2021-08-22T10:23:16.000Z</time>
      </trkpt>
      <trkpt lat="47.43696" lon="-1.33776">
        <ele>83</ele>
        <time>2021-08-22T10:23:18.000Z</time>
      </trkpt>
      <trkpt lat="47.43688" lon="-1.33764">
        <ele>83</ele>
        <time>2021-08-22T10:23:20.000Z</time>
      </trkpt>
      <trkpt lat="47.4368" lon="-1.33753">
        <ele>83</ele>
        <time>2021-08-22T10:23:22.000Z</time>
      </trkpt>
      <trkpt lat="47.43666" lon="-1.33737">
        <ele>84</ele>
        <time>2021-08-22T10:23:25.000Z</time>
      </trkpt>
      <trkpt lat="47.43657" lon="-1.33729">
        <ele>84</ele>
        <time>2021-08-22T10:23:27.000Z</time>
      </trkpt>
      <trkpt lat="47.43642" lon="-1.33717">
        <ele>85</ele>
        <time>2021-08-22T10:23:30.000Z</time>
      </trkpt>
      <trkpt lat="47.43632" lon="-1.3371">
        <ele>85</ele>
        <time>2021-08-22T10:23:32.000Z</time>
      </trkpt>
      <trkpt lat="47.43622" lon="-1.33704">
        <ele>86</ele>
        <time>2021-08-22T10:23:34.000Z</time>
      </trkpt>
      <trkpt lat="47.43611" lon="-1.33698">
        <ele>86</ele>
        <time>2021-08-22T10:23:36.000Z</time>
      </trkpt>
      <trkpt lat="47.436" lon="-1.33692">
        <ele>87</ele>
        <time>2021-08-22T10:23:38.000Z</time>
      </trkpt>
      <trkpt lat="47.43589" lon="-1.33687">
        <ele>88</ele>
        <time>2021-08-22T10:23:40.000Z</time>
      </trkpt>
      <trkpt lat="47.43579" lon="-1.33682">
        <ele>88</ele>
        <time>2021-08-22T10:23:42.000Z</time>
      </trkpt>
      <trkpt lat="47.43568" lon="-1.33676">
        <ele>89</ele>
        <time>2021-08-22T10:23:44.000Z</time>
      </trkpt>
      <trkpt lat="47.43558" lon="-1.33671">
        <ele>89</ele>
        <time>2021-08-22T10:23:46.000Z</time>
      </trkpt>
      <trkpt lat="47.43547" lon="-1.33666">
        <ele>90</ele>
        <time>2021-08-22T10:23:48.000Z</time>
      </trkpt>
      <trkpt lat="47.43537" lon="-1.33661">
        <ele>91</ele>
        <time>2021-08-22T10:23:50.000Z</time>
      </trkpt>
      <trkpt lat="47.43527" lon="-1.33655">
        <ele>91</ele>
        <time>2021-08-22T10:23:52.000Z</time>
      </trkpt>
      <trkpt lat="47.43516" lon="-1.3365">
        <ele>91</ele>
        <time>2021-08-22T10:23:54.000Z</time>
      </trkpt>
      <trkpt lat="47.43505" lon="-1.33643">
        <ele>92</ele>
        <time>2021-08-22T10:23:56.000Z</time>
      </trkpt>
      <trkpt lat="47.43495" lon="-1.33635">
        <ele>92</ele>
        <time>2021-08-22T10:23:58.000Z</time>
      </trkpt>
      <trkpt lat="47.43485" lon="-1.33626">
        <ele>93</ele>
        <time>2021-08-22T10:24:00.000Z</time>
      </trkpt>
      <trkpt lat="47.43475" lon="-1.33616">
        <ele>93</ele>
        <time>2021-08-22T10:24:02.000Z</time>
      </trkpt>
      <trkpt lat="47.43466" lon="-1.33606">
        <ele>93</ele>
        <time>2021-08-22T10:24:04.000Z</time>
      </trkpt>
      <trkpt lat="47.43456" lon="-1.33596">
        <ele>94</ele>
        <time>2021-08-22T10:24:06.000Z</time>
      </trkpt>
      <trkpt lat="47.43447" lon="-1.33586">
        <ele>94</ele>
        <time>2021-08-22T10:24:08.000Z</time>
      </trkpt>
      <trkpt lat="47.43438" lon="-1.33577">
        <ele>95</ele>
        <time>2021-08-22T10:24:10.000Z</time>
      </trkpt>
      <trkpt lat="47.43428" lon="-1.33568">
        <ele>95</ele>
        <time>2021-08-22T10:24:12.000Z</time>
      </trkpt>
      <trkpt lat="47.43418" lon="-1.3356">
        <ele>95</ele>
        <time>2021-08-22T10:24:14.000Z</time>
      </trkpt>
      <trkpt lat="47.43408" lon="-1.33552">
        <ele>96</ele>
        <time>2021-08-22T10:24:16.000Z</time>
      </trkpt>
      <trkpt lat="47.43397" lon="-1.33544">
        <ele>96</ele>
        <time>2021-08-22T10:24:18.000Z</time>
      </trkpt>
      <trkpt lat="47.43386" lon="-1.33536">
        <ele>96</ele>
        <time>2021-08-22T10:24:20.000Z</time>
      </trkpt>
      <trkpt lat="47.43376" lon="-1.33529">
        <ele>97</ele>
        <time>2021-08-22T10:24:22.000Z</time>
      </trkpt>
      <trkpt lat="47.43365" lon="-1.33521">
        <ele>97</ele>
        <time>2021-08-22T10:24:24.000Z</time>
      </trkpt>
      <trkpt lat="47.43354" lon="-1.33514">
        <ele>98</ele>
        <time>2021-08-22T10:24:26.000Z</time>
      </trkpt>
      <trkpt lat="47.43343" lon="-1.33506">
        <ele>98</ele>
        <time>2021-08-22T10:24:28.000Z</time>
      </trkpt>
      <trkpt lat="47.43333" lon="-1.33498">
        <ele>98</ele>
        <time>2021-08-22T10:24:30.000Z</time>
      </trkpt>
      <trkpt lat="47.43322" lon="-1.33491">
        <ele>98</ele>
        <time>2021-08-22T10:24:32.000Z</time>
      </trkpt>
      <trkpt lat="47.43312" lon="-1.33483">
        <ele>98</ele>
        <time>2021-08-22T10:24:34.000Z</time>
      </trkpt>
      <trkpt lat="47.43302" lon="-1.33475">
        <ele>99</ele>
        <time>2021-08-22T10:24:36.000Z</time>
      </trkpt>
      <trkpt lat="47.43293" lon="-1.33466">
        <ele>99</ele>
        <time>2021-08-22T10:24:38.000Z</time>
      </trkpt>
      <trkpt lat="47.43284" lon="-1.33457">
        <ele>100</ele>
        <time>2021-08-22T10:24:40.000Z</time>
      </trkpt>
      <trkpt lat="47.43275" lon="-1.33447">
        <ele>101</ele>
        <time>2021-08-22T10:24:42.000Z</time>
      </trkpt>
      <trkpt lat="47.43266" lon="-1.33437">
        <ele>101</ele>
        <time>2021-08-22T10:24:44.000Z</time>
      </trkpt>
      <trkpt lat="47.43258" lon="-1.33427">
        <ele>101</ele>
        <time>2021-08-22T10:24:46.000Z</time>
      </trkpt>
      <trkpt lat="47.4325" lon="-1.33417">
        <ele>101</ele>
        <time>2021-08-22T10:24:48.000Z</time>
      </trkpt>
      <trkpt lat="47.43242" lon="-1.33406">
        <ele>100</ele>
        <time>2021-08-22T10:24:50.000Z</time>
      </trkpt>
      <trkpt lat="47.43236" lon="-1.33392">
        <ele>100</ele>
        <time>2021-08-22T10:24:52.000Z</time>
      </trkpt>
      <trkpt lat="47.43229" lon="-1.33376">
        <ele>99</ele>
        <time>2021-08-22T10:24:54.000Z</time>
      </trkpt>
      <trkpt lat="47.43222" lon="-1.33361">
        <ele>98</ele>
        <time>2021-08-22T10:24:56.000Z</time>
      </trkpt>
      <trkpt lat="47.43217" lon="-1.33346">
        <ele>98</ele>
        <time>2021-08-22T10:24:58.000Z</time>
      </trkpt>
      <trkpt lat="47.43211" lon="-1.33332">
        <ele>97</ele>
        <time>2021-08-22T10:25:00.000Z</time>
      </trkpt>
      <trkpt lat="47.43213" lon="-1.33319">
        <ele>97</ele>
        <time>2021-08-22T10:25:02.000Z</time>
      </trkpt>
      <trkpt lat="47.43222" lon="-1.33311">
        <ele>96</ele>
        <time>2021-08-22T10:25:04.000Z</time>
      </trkpt>
      <trkpt lat="47.43231" lon="-1.33305">
        <ele>96</ele>
        <time>2021-08-22T10:25:06.000Z</time>
      </trkpt>
      <trkpt lat="47.43239" lon="-1.33299">
        <ele>95</ele>
        <time>2021-08-22T10:25:08.000Z</time>
      </trkpt>
      <trkpt lat="47.43247" lon="-1.33291">
        <ele>95</ele>
        <time>2021-08-22T10:25:10.000Z</time>
      </trkpt>
      <trkpt lat="47.43254" lon="-1.33282">
        <ele>94</ele>
        <time>2021-08-22T10:25:12.000Z</time>
      </trkpt>
      <trkpt lat="47.43262" lon="-1.33272">
        <ele>94</ele>
        <time>2021-08-22T10:25:15.000Z</time>
      </trkpt>
      <trkpt lat="47.43256" lon="-1.33284">
        <ele>95</ele>
        <time>2021-08-22T10:25:22.000Z</time>
      </trkpt>
      <trkpt lat="47.43245" lon="-1.33295">
        <ele>95</ele>
        <time>2021-08-22T10:25:25.000Z</time>
      </trkpt>
      <trkpt lat="47.43237" lon="-1.33302">
        <ele>95</ele>
        <time>2021-08-22T10:25:27.000Z</time>
      </trkpt>
      <trkpt lat="47.43226" lon="-1.33311">
        <ele>96</ele>
        <time>2021-08-22T10:25:30.000Z</time>
      </trkpt>
      <trkpt lat="47.43217" lon="-1.33318">
        <ele>96</ele>
        <time>2021-08-22T10:25:33.000Z</time>
      </trkpt>
      <trkpt lat="47.43204" lon="-1.33312">
        <ele>95</ele>
        <time>2021-08-22T10:27:24.000Z</time>
      </trkpt>
      <trkpt lat="47.43197" lon="-1.33302">
        <ele>95</ele>
        <time>2021-08-22T10:27:26.000Z</time>
      </trkpt>
      <trkpt lat="47.43192" lon="-1.3329">
        <ele>95</ele>
        <time>2021-08-22T10:27:28.000Z</time>
      </trkpt>
      <trkpt lat="47.43185" lon="-1.33278">
        <ele>95</ele>
        <time>2021-08-22T10:27:30.000Z</time>
      </trkpt>
      <trkpt lat="47.43178" lon="-1.33265">
        <ele>95</ele>
        <time>2021-08-22T10:27:32.000Z</time>
      </trkpt>
      <trkpt lat="47.43169" lon="-1.33253">
        <ele>95</ele>
        <time>2021-08-22T10:27:34.000Z</time>
      </trkpt>
      <trkpt lat="47.43159" lon="-1.3324">
        <ele>95</ele>
        <time>2021-08-22T10:27:36.000Z</time>
      </trkpt>
      <trkpt lat="47.43148" lon="-1.33228">
        <ele>95</ele>
        <time>2021-08-22T10:27:38.000Z</time>
      </trkpt>
      <trkpt lat="47.43137" lon="-1.33219">
        <ele>95</ele>
        <time>2021-08-22T10:27:40.000Z</time>
      </trkpt>
      <trkpt lat="47.43124" lon="-1.33213">
        <ele>96</ele>
        <time>2021-08-22T10:27:42.000Z</time>
      </trkpt>
      <trkpt lat="47.43112" lon="-1.33208">
        <ele>95</ele>
        <time>2021-08-22T10:27:44.000Z</time>
      </trkpt>
      <trkpt lat="47.43099" lon="-1.33206">
        <ele>95</ele>
        <time>2021-08-22T10:27:46.000Z</time>
      </trkpt>
      <trkpt lat="47.43087" lon="-1.33204">
        <ele>95</ele>
        <time>2021-08-22T10:27:48.000Z</time>
      </trkpt>
      <trkpt lat="47.43074" lon="-1.33203">
        <ele>95</ele>
        <time>2021-08-22T10:27:50.000Z</time>
      </trkpt>
      <trkpt lat="47.43062" lon="-1.33202">
        <ele>95</ele>
        <time>2021-08-22T10:27:52.000Z</time>
      </trkpt>
      <trkpt lat="47.43051" lon="-1.332">
        <ele>95</ele>
        <time>2021-08-22T10:27:54.000Z</time>
      </trkpt>
      <trkpt lat="47.43041" lon="-1.33204">
        <ele>95</ele>
        <time>2021-08-22T10:27:56.000Z</time>
      </trkpt>
      <trkpt lat="47.43037" lon="-1.33223">
        <ele>96</ele>
        <time>2021-08-22T10:27:59.000Z</time>
      </trkpt>
      <trkpt lat="47.43039" lon="-1.3324">
        <ele>95</ele>
        <time>2021-08-22T10:28:01.000Z</time>
      </trkpt>
      <trkpt lat="47.4304" lon="-1.33259">
        <ele>95</ele>
        <time>2021-08-22T10:28:03.000Z</time>
      </trkpt>
      <trkpt lat="47.43042" lon="-1.33278">
        <ele>96</ele>
        <time>2021-08-22T10:28:05.000Z</time>
      </trkpt>
      <trkpt lat="47.43043" lon="-1.33298">
        <ele>95</ele>
        <time>2021-08-22T10:28:07.000Z</time>
      </trkpt>
      <trkpt lat="47.43045" lon="-1.33318">
        <ele>95</ele>
        <time>2021-08-22T10:28:09.000Z</time>
      </trkpt>
      <trkpt lat="47.43045" lon="-1.33337">
        <ele>95</ele>
        <time>2021-08-22T10:28:11.000Z</time>
      </trkpt>
      <trkpt lat="47.43046" lon="-1.33355">
        <ele>94</ele>
        <time>2021-08-22T10:28:13.000Z</time>
      </trkpt>
      <trkpt lat="47.43048" lon="-1.33375">
        <ele>94</ele>
        <time>2021-08-22T10:28:15.000Z</time>
      </trkpt>
      <trkpt lat="47.43047" lon="-1.33395">
        <ele>95</ele>
        <time>2021-08-22T10:28:17.000Z</time>
      </trkpt>
      <trkpt lat="47.4304" lon="-1.33414">
        <ele>95</ele>
        <time>2021-08-22T10:28:19.000Z</time>
      </trkpt>
      <trkpt lat="47.43032" lon="-1.3343">
        <ele>95</ele>
        <time>2021-08-22T10:28:21.000Z</time>
      </trkpt>
      <trkpt lat="47.43023" lon="-1.33447">
        <ele>95</ele>
        <time>2021-08-22T10:28:23.000Z</time>
      </trkpt>
      <trkpt lat="47.43016" lon="-1.33463">
        <ele>96</ele>
        <time>2021-08-22T10:28:25.000Z</time>
      </trkpt>
      <trkpt lat="47.43008" lon="-1.3348">
        <ele>96</ele>
        <time>2021-08-22T10:28:27.000Z</time>
      </trkpt>
      <trkpt lat="47.43" lon="-1.33496">
        <ele>97</ele>
        <time>2021-08-22T10:28:29.000Z</time>
      </trkpt>
      <trkpt lat="47.42993" lon="-1.33513">
        <ele>97</ele>
        <time>2021-08-22T10:28:31.000Z</time>
      </trkpt>
      <trkpt lat="47.42985" lon="-1.33529">
        <ele>97</ele>
        <time>2021-08-22T10:28:33.000Z</time>
      </trkpt>
      <trkpt lat="47.42978" lon="-1.33546">
        <ele>97</ele>
        <time>2021-08-22T10:28:35.000Z</time>
      </trkpt>
      <trkpt lat="47.4297" lon="-1.33562">
        <ele>97</ele>
        <time>2021-08-22T10:28:37.000Z</time>
      </trkpt>
      <trkpt lat="47.42963" lon="-1.33578">
        <ele>97</ele>
        <time>2021-08-22T10:28:39.000Z</time>
      </trkpt>
      <trkpt lat="47.42955" lon="-1.33594">
        <ele>97</ele>
        <time>2021-08-22T10:28:41.000Z</time>
      </trkpt>
      <trkpt lat="47.42948" lon="-1.33609">
        <ele>97</ele>
        <time>2021-08-22T10:28:43.000Z</time>
      </trkpt>
      <trkpt lat="47.42941" lon="-1.33624">
        <ele>97</ele>
        <time>2021-08-22T10:28:45.000Z</time>
      </trkpt>
      <trkpt lat="47.42934" lon="-1.33639">
        <ele>97</ele>
        <time>2021-08-22T10:28:47.000Z</time>
      </trkpt>
      <trkpt lat="47.42927" lon="-1.33654">
        <ele>97</ele>
        <time>2021-08-22T10:28:49.000Z</time>
      </trkpt>
      <trkpt lat="47.4292" lon="-1.33669">
        <ele>97</ele>
        <time>2021-08-22T10:28:51.000Z</time>
      </trkpt>
      <trkpt lat="47.42913" lon="-1.33684">
        <ele>97</ele>
        <time>2021-08-22T10:28:53.000Z</time>
      </trkpt>
      <trkpt lat="47.42906" lon="-1.337">
        <ele>97</ele>
        <time>2021-08-22T10:28:55.000Z</time>
      </trkpt>
      <trkpt lat="47.42899" lon="-1.33716">
        <ele>97</ele>
        <time>2021-08-22T10:28:57.000Z</time>
      </trkpt>
      <trkpt lat="47.42891" lon="-1.33732">
        <ele>97</ele>
        <time>2021-08-22T10:28:59.000Z</time>
      </trkpt>
      <trkpt lat="47.42883" lon="-1.33748">
        <ele>97</ele>
        <time>2021-08-22T10:29:01.000Z</time>
      </trkpt>
      <trkpt lat="47.42876" lon="-1.33764">
        <ele>97</ele>
        <time>2021-08-22T10:29:03.000Z</time>
      </trkpt>
      <trkpt lat="47.42869" lon="-1.3378">
        <ele>97</ele>
        <time>2021-08-22T10:29:05.000Z</time>
      </trkpt>
      <trkpt lat="47.42861" lon="-1.33797">
        <ele>96</ele>
        <time>2021-08-22T10:29:07.000Z</time>
      </trkpt>
      <trkpt lat="47.42854" lon="-1.33814">
        <ele>96</ele>
        <time>2021-08-22T10:29:09.000Z</time>
      </trkpt>
      <trkpt lat="47.42846" lon="-1.33831">
        <ele>96</ele>
        <time>2021-08-22T10:29:11.000Z</time>
      </trkpt>
      <trkpt lat="47.42838" lon="-1.33848">
        <ele>96</ele>
        <time>2021-08-22T10:29:13.000Z</time>
      </trkpt>
      <trkpt lat="47.42831" lon="-1.33865">
        <ele>96</ele>
        <time>2021-08-22T10:29:15.000Z</time>
      </trkpt>
      <trkpt lat="47.42823" lon="-1.33882">
        <ele>96</ele>
        <time>2021-08-22T10:29:17.000Z</time>
      </trkpt>
      <trkpt lat="47.42815" lon="-1.33899">
        <ele>96</ele>
        <time>2021-08-22T10:29:19.000Z</time>
      </trkpt>
      <trkpt lat="47.42806" lon="-1.33916">
        <ele>95</ele>
        <time>2021-08-22T10:29:21.000Z</time>
      </trkpt>
      <trkpt lat="47.42798" lon="-1.33934">
        <ele>95</ele>
        <time>2021-08-22T10:29:23.000Z</time>
      </trkpt>
      <trkpt lat="47.4279" lon="-1.33951">
        <ele>95</ele>
        <time>2021-08-22T10:29:25.000Z</time>
      </trkpt>
      <trkpt lat="47.42782" lon="-1.33969">
        <ele>95</ele>
        <time>2021-08-22T10:29:27.000Z</time>
      </trkpt>
      <trkpt lat="47.42774" lon="-1.33986">
        <ele>94</ele>
        <time>2021-08-22T10:29:29.000Z</time>
      </trkpt>
      <trkpt lat="47.42766" lon="-1.34003">
        <ele>94</ele>
        <time>2021-08-22T10:29:31.000Z</time>
      </trkpt>
      <trkpt lat="47.42758" lon="-1.34021">
        <ele>94</ele>
        <time>2021-08-22T10:29:33.000Z</time>
      </trkpt>
      <trkpt lat="47.4275" lon="-1.34038">
        <ele>93</ele>
        <time>2021-08-22T10:29:35.000Z</time>
      </trkpt>
      <trkpt lat="47.42742" lon="-1.34056">
        <ele>93</ele>
        <time>2021-08-22T10:29:37.000Z</time>
      </trkpt>
      <trkpt lat="47.42734" lon="-1.34073">
        <ele>93</ele>
        <time>2021-08-22T10:29:39.000Z</time>
      </trkpt>
      <trkpt lat="47.42726" lon="-1.3409">
        <ele>93</ele>
        <time>2021-08-22T10:29:41.000Z</time>
      </trkpt>
      <trkpt lat="47.42718" lon="-1.34108">
        <ele>92</ele>
        <time>2021-08-22T10:29:43.000Z</time>
      </trkpt>
      <trkpt lat="47.4271" lon="-1.34124">
        <ele>92</ele>
        <time>2021-08-22T10:29:45.000Z</time>
      </trkpt>
      <trkpt lat="47.42702" lon="-1.34141">
        <ele>91</ele>
        <time>2021-08-22T10:29:47.000Z</time>
      </trkpt>
      <trkpt lat="47.42694" lon="-1.34159">
        <ele>91</ele>
        <time>2021-08-22T10:29:49.000Z</time>
      </trkpt>
      <trkpt lat="47.42686" lon="-1.34175">
        <ele>91</ele>
        <time>2021-08-22T10:29:51.000Z</time>
      </trkpt>
      <trkpt lat="47.42678" lon="-1.34193">
        <ele>91</ele>
        <time>2021-08-22T10:29:53.000Z</time>
      </trkpt>
      <trkpt lat="47.4267" lon="-1.3421">
        <ele>90</ele>
        <time>2021-08-22T10:29:55.000Z</time>
      </trkpt>
      <trkpt lat="47.42662" lon="-1.34227">
        <ele>90</ele>
        <time>2021-08-22T10:29:57.000Z</time>
      </trkpt>
      <trkpt lat="47.42654" lon="-1.34244">
        <ele>90</ele>
        <time>2021-08-22T10:29:59.000Z</time>
      </trkpt>
      <trkpt lat="47.42646" lon="-1.34262">
        <ele>90</ele>
        <time>2021-08-22T10:30:01.000Z</time>
      </trkpt>
      <trkpt lat="47.42639" lon="-1.34279">
        <ele>90</ele>
        <time>2021-08-22T10:30:03.000Z</time>
      </trkpt>
      <trkpt lat="47.42631" lon="-1.34297">
        <ele>90</ele>
        <time>2021-08-22T10:30:05.000Z</time>
      </trkpt>
      <trkpt lat="47.42623" lon="-1.34313">
        <ele>90</ele>
        <time>2021-08-22T10:30:07.000Z</time>
      </trkpt>
      <trkpt lat="47.42615" lon="-1.3433">
        <ele>89</ele>
        <time>2021-08-22T10:30:09.000Z</time>
      </trkpt>
      <trkpt lat="47.42607" lon="-1.34347">
        <ele>89</ele>
        <time>2021-08-22T10:30:11.000Z</time>
      </trkpt>
      <trkpt lat="47.42599" lon="-1.34363">
        <ele>89</ele>
        <time>2021-08-22T10:30:13.000Z</time>
      </trkpt>
      <trkpt lat="47.42591" lon="-1.3438">
        <ele>89</ele>
        <time>2021-08-22T10:30:15.000Z</time>
      </trkpt>
      <trkpt lat="47.42584" lon="-1.34397">
        <ele>89</ele>
        <time>2021-08-22T10:30:17.000Z</time>
      </trkpt>
      <trkpt lat="47.42576" lon="-1.34415">
        <ele>89</ele>
        <time>2021-08-22T10:30:19.000Z</time>
      </trkpt>
      <trkpt lat="47.42568" lon="-1.34432">
        <ele>89</ele>
        <time>2021-08-22T10:30:21.000Z</time>
      </trkpt>
      <trkpt lat="47.4256" lon="-1.3445">
        <ele>88</ele>
        <time>2021-08-22T10:30:23.000Z</time>
      </trkpt>
      <trkpt lat="47.42552" lon="-1.34467">
        <ele>88</ele>
        <time>2021-08-22T10:30:25.000Z</time>
      </trkpt>
      <trkpt lat="47.42544" lon="-1.34483">
        <ele>88</ele>
        <time>2021-08-22T10:30:27.000Z</time>
      </trkpt>
      <trkpt lat="47.42537" lon="-1.34499">
        <ele>89</ele>
        <time>2021-08-22T10:30:29.000Z</time>
      </trkpt>
      <trkpt lat="47.4253" lon="-1.34515">
        <ele>89</ele>
        <time>2021-08-22T10:30:31.000Z</time>
      </trkpt>
      <trkpt lat="47.42523" lon="-1.34529">
        <ele>89</ele>
        <time>2021-08-22T10:30:33.000Z</time>
      </trkpt>
      <trkpt lat="47.42518" lon="-1.34542">
        <ele>88</ele>
        <time>2021-08-22T10:30:35.000Z</time>
      </trkpt>
      <trkpt lat="47.42508" lon="-1.34544">
        <ele>88</ele>
        <time>2021-08-22T10:30:37.000Z</time>
      </trkpt>
      <trkpt lat="47.42498" lon="-1.3455">
        <ele>87</ele>
        <time>2021-08-22T10:30:39.000Z</time>
      </trkpt>
      <trkpt lat="47.42489" lon="-1.34557">
        <ele>88</ele>
        <time>2021-08-22T10:30:41.000Z</time>
      </trkpt>
      <trkpt lat="47.4248" lon="-1.34567">
        <ele>88</ele>
        <time>2021-08-22T10:30:44.000Z</time>
      </trkpt>
      <trkpt lat="47.42472" lon="-1.34576">
        <ele>88</ele>
        <time>2021-08-22T10:30:46.000Z</time>
      </trkpt>
      <trkpt lat="47.42462" lon="-1.34585">
        <ele>88</ele>
        <time>2021-08-22T10:30:48.000Z</time>
      </trkpt>
      <trkpt lat="47.42451" lon="-1.34596">
        <ele>88</ele>
        <time>2021-08-22T10:30:50.000Z</time>
      </trkpt>
      <trkpt lat="47.4244" lon="-1.34605">
        <ele>88</ele>
        <time>2021-08-22T10:30:52.000Z</time>
      </trkpt>
      <trkpt lat="47.42429" lon="-1.34614">
        <ele>88</ele>
        <time>2021-08-22T10:30:54.000Z</time>
      </trkpt>
      <trkpt lat="47.42418" lon="-1.34623">
        <ele>88</ele>
        <time>2021-08-22T10:30:56.000Z</time>
      </trkpt>
      <trkpt lat="47.42408" lon="-1.34633">
        <ele>88</ele>
        <time>2021-08-22T10:30:58.000Z</time>
      </trkpt>
      <trkpt lat="47.42396" lon="-1.34643">
        <ele>88</ele>
        <time>2021-08-22T10:31:00.000Z</time>
      </trkpt>
      <trkpt lat="47.42385" lon="-1.34653">
        <ele>88</ele>
        <time>2021-08-22T10:31:02.000Z</time>
      </trkpt>
      <trkpt lat="47.42374" lon="-1.34663">
        <ele>88</ele>
        <time>2021-08-22T10:31:04.000Z</time>
      </trkpt>
      <trkpt lat="47.42363" lon="-1.34673">
        <ele>87</ele>
        <time>2021-08-22T10:31:06.000Z</time>
      </trkpt>
      <trkpt lat="47.42353" lon="-1.34682">
        <ele>88</ele>
        <time>2021-08-22T10:31:08.000Z</time>
      </trkpt>
      <trkpt lat="47.42342" lon="-1.34691">
        <ele>87</ele>
        <time>2021-08-22T10:31:10.000Z</time>
      </trkpt>
      <trkpt lat="47.42331" lon="-1.34702">
        <ele>88</ele>
        <time>2021-08-22T10:31:12.000Z</time>
      </trkpt>
      <trkpt lat="47.42319" lon="-1.34713">
        <ele>88</ele>
        <time>2021-08-22T10:31:14.000Z</time>
      </trkpt>
      <trkpt lat="47.42307" lon="-1.34723">
        <ele>88</ele>
        <time>2021-08-22T10:31:16.000Z</time>
      </trkpt>
      <trkpt lat="47.42295" lon="-1.34733">
        <ele>88</ele>
        <time>2021-08-22T10:31:18.000Z</time>
      </trkpt>
      <trkpt lat="47.42283" lon="-1.34744">
        <ele>87</ele>
        <time>2021-08-22T10:31:20.000Z</time>
      </trkpt>
      <trkpt lat="47.4227" lon="-1.34755">
        <ele>87</ele>
        <time>2021-08-22T10:31:22.000Z</time>
      </trkpt>
      <trkpt lat="47.42258" lon="-1.34766">
        <ele>88</ele>
        <time>2021-08-22T10:31:24.000Z</time>
      </trkpt>
      <trkpt lat="47.42246" lon="-1.34777">
        <ele>87</ele>
        <time>2021-08-22T10:31:26.000Z</time>
      </trkpt>
      <trkpt lat="47.42234" lon="-1.34788">
        <ele>87</ele>
        <time>2021-08-22T10:31:28.000Z</time>
      </trkpt>
      <trkpt lat="47.42222" lon="-1.34799">
        <ele>87</ele>
        <time>2021-08-22T10:31:30.000Z</time>
      </trkpt>
      <trkpt lat="47.4221" lon="-1.3481">
        <ele>87</ele>
        <time>2021-08-22T10:31:32.000Z</time>
      </trkpt>
      <trkpt lat="47.42197" lon="-1.34821">
        <ele>86</ele>
        <time>2021-08-22T10:31:34.000Z</time>
      </trkpt>
      <trkpt lat="47.42185" lon="-1.34832">
        <ele>86</ele>
        <time>2021-08-22T10:31:36.000Z</time>
      </trkpt>
      <trkpt lat="47.42173" lon="-1.34843">
        <ele>85</ele>
        <time>2021-08-22T10:31:38.000Z</time>
      </trkpt>
      <trkpt lat="47.42161" lon="-1.34854">
        <ele>86</ele>
        <time>2021-08-22T10:31:40.000Z</time>
      </trkpt>
      <trkpt lat="47.42149" lon="-1.34865">
        <ele>86</ele>
        <time>2021-08-22T10:31:42.000Z</time>
      </trkpt>
      <trkpt lat="47.42137" lon="-1.34876">
        <ele>85</ele>
        <time>2021-08-22T10:31:44.000Z</time>
      </trkpt>
      <trkpt lat="47.42124" lon="-1.34887">
        <ele>85</ele>
        <time>2021-08-22T10:31:46.000Z</time>
      </trkpt>
      <trkpt lat="47.42112" lon="-1.34898">
        <ele>85</ele>
        <time>2021-08-22T10:31:48.000Z</time>
      </trkpt>
      <trkpt lat="47.421" lon="-1.34909">
        <ele>85</ele>
        <time>2021-08-22T10:31:50.000Z</time>
      </trkpt>
      <trkpt lat="47.42088" lon="-1.3492">
        <ele>85</ele>
        <time>2021-08-22T10:31:52.000Z</time>
      </trkpt>
      <trkpt lat="47.42075" lon="-1.34931">
        <ele>85</ele>
        <time>2021-08-22T10:31:54.000Z</time>
      </trkpt>
      <trkpt lat="47.42063" lon="-1.34942">
        <ele>85</ele>
        <time>2021-08-22T10:31:56.000Z</time>
      </trkpt>
      <trkpt lat="47.42052" lon="-1.34952">
        <ele>85</ele>
        <time>2021-08-22T10:31:58.000Z</time>
      </trkpt>
      <trkpt lat="47.4204" lon="-1.34963">
        <ele>84</ele>
        <time>2021-08-22T10:32:00.000Z</time>
      </trkpt>
      <trkpt lat="47.42028" lon="-1.34974">
        <ele>84</ele>
        <time>2021-08-22T10:32:02.000Z</time>
      </trkpt>
      <trkpt lat="47.42017" lon="-1.34984">
        <ele>84</ele>
        <time>2021-08-22T10:32:04.000Z</time>
      </trkpt>
      <trkpt lat="47.42005" lon="-1.34995">
        <ele>84</ele>
        <time>2021-08-22T10:32:06.000Z</time>
      </trkpt>
      <trkpt lat="47.41994" lon="-1.35004">
        <ele>85</ele>
        <time>2021-08-22T10:32:08.000Z</time>
      </trkpt>
      <trkpt lat="47.41982" lon="-1.35014">
        <ele>84</ele>
        <time>2021-08-22T10:32:10.000Z</time>
      </trkpt>
      <trkpt lat="47.41971" lon="-1.35024">
        <ele>85</ele>
        <time>2021-08-22T10:32:12.000Z</time>
      </trkpt>
      <trkpt lat="47.41959" lon="-1.35034">
        <ele>84</ele>
        <time>2021-08-22T10:32:14.000Z</time>
      </trkpt>
      <trkpt lat="47.41947" lon="-1.35045">
        <ele>84</ele>
        <time>2021-08-22T10:32:16.000Z</time>
      </trkpt>
      <trkpt lat="47.41936" lon="-1.35055">
        <ele>84</ele>
        <time>2021-08-22T10:32:18.000Z</time>
      </trkpt>
      <trkpt lat="47.41924" lon="-1.35066">
        <ele>84</ele>
        <time>2021-08-22T10:32:20.000Z</time>
      </trkpt>
      <trkpt lat="47.41913" lon="-1.35076">
        <ele>85</ele>
        <time>2021-08-22T10:32:22.000Z</time>
      </trkpt>
      <trkpt lat="47.41902" lon="-1.35086">
        <ele>85</ele>
        <time>2021-08-22T10:32:24.000Z</time>
      </trkpt>
      <trkpt lat="47.4189" lon="-1.35097">
        <ele>84</ele>
        <time>2021-08-22T10:32:26.000Z</time>
      </trkpt>
      <trkpt lat="47.41879" lon="-1.35107">
        <ele>84</ele>
        <time>2021-08-22T10:32:28.000Z</time>
      </trkpt>
      <trkpt lat="47.41868" lon="-1.35117">
        <ele>84</ele>
        <time>2021-08-22T10:32:30.000Z</time>
      </trkpt>
      <trkpt lat="47.41857" lon="-1.35127">
        <ele>84</ele>
        <time>2021-08-22T10:32:32.000Z</time>
      </trkpt>
      <trkpt lat="47.41846" lon="-1.35138">
        <ele>85</ele>
        <time>2021-08-22T10:32:34.000Z</time>
      </trkpt>
      <trkpt lat="47.41834" lon="-1.35147">
        <ele>85</ele>
        <time>2021-08-22T10:32:36.000Z</time>
      </trkpt>
      <trkpt lat="47.41823" lon="-1.35158">
        <ele>85</ele>
        <time>2021-08-22T10:32:38.000Z</time>
      </trkpt>
      <trkpt lat="47.41812" lon="-1.35167">
        <ele>85</ele>
        <time>2021-08-22T10:32:40.000Z</time>
      </trkpt>
      <trkpt lat="47.41801" lon="-1.35177">
        <ele>85</ele>
        <time>2021-08-22T10:32:42.000Z</time>
      </trkpt>
      <trkpt lat="47.4179" lon="-1.35186">
        <ele>85</ele>
        <time>2021-08-22T10:32:44.000Z</time>
      </trkpt>
      <trkpt lat="47.4178" lon="-1.35197">
        <ele>85</ele>
        <time>2021-08-22T10:32:46.000Z</time>
      </trkpt>
      <trkpt lat="47.41769" lon="-1.35207">
        <ele>85</ele>
        <time>2021-08-22T10:32:48.000Z</time>
      </trkpt>
      <trkpt lat="47.41757" lon="-1.35217">
        <ele>85</ele>
        <time>2021-08-22T10:32:50.000Z</time>
      </trkpt>
      <trkpt lat="47.41746" lon="-1.35226">
        <ele>85</ele>
        <time>2021-08-22T10:32:52.000Z</time>
      </trkpt>
      <trkpt lat="47.41735" lon="-1.35237">
        <ele>85</ele>
        <time>2021-08-22T10:32:54.000Z</time>
      </trkpt>
      <trkpt lat="47.41723" lon="-1.35247">
        <ele>85</ele>
        <time>2021-08-22T10:32:56.000Z</time>
      </trkpt>
      <trkpt lat="47.41712" lon="-1.35257">
        <ele>85</ele>
        <time>2021-08-22T10:32:58.000Z</time>
      </trkpt>
      <trkpt lat="47.417" lon="-1.35266">
        <ele>85</ele>
        <time>2021-08-22T10:33:00.000Z</time>
      </trkpt>
      <trkpt lat="47.41689" lon="-1.35276">
        <ele>85</ele>
        <time>2021-08-22T10:33:02.000Z</time>
      </trkpt>
      <trkpt lat="47.41678" lon="-1.35285">
        <ele>85</ele>
        <time>2021-08-22T10:33:04.000Z</time>
      </trkpt>
      <trkpt lat="47.41669" lon="-1.35294">
        <ele>85</ele>
        <time>2021-08-22T10:33:06.000Z</time>
      </trkpt>
      <trkpt lat="47.41659" lon="-1.35302">
        <ele>85</ele>
        <time>2021-08-22T10:33:08.000Z</time>
      </trkpt>
      <trkpt lat="47.4165" lon="-1.35307">
        <ele>86</ele>
        <time>2021-08-22T10:33:10.000Z</time>
      </trkpt>
      <trkpt lat="47.41643" lon="-1.35316">
        <ele>87</ele>
        <time>2021-08-22T10:33:13.000Z</time>
      </trkpt>
      <trkpt lat="47.41634" lon="-1.35324">
        <ele>87</ele>
        <time>2021-08-22T10:33:16.000Z</time>
      </trkpt>
      <trkpt lat="47.41624" lon="-1.35329">
        <ele>87</ele>
        <time>2021-08-22T10:33:19.000Z</time>
      </trkpt>
      <trkpt lat="47.41617" lon="-1.35339">
        <ele>87</ele>
        <time>2021-08-22T10:33:21.000Z</time>
      </trkpt>
      <trkpt lat="47.41608" lon="-1.35347">
        <ele>86</ele>
        <time>2021-08-22T10:33:23.000Z</time>
      </trkpt>
      <trkpt lat="47.41599" lon="-1.35356">
        <ele>86</ele>
        <time>2021-08-22T10:33:25.000Z</time>
      </trkpt>
      <trkpt lat="47.4159" lon="-1.35367">
        <ele>87</ele>
        <time>2021-08-22T10:33:27.000Z</time>
      </trkpt>
      <trkpt lat="47.4158" lon="-1.35377">
        <ele>88</ele>
        <time>2021-08-22T10:33:29.000Z</time>
      </trkpt>
      <trkpt lat="47.41571" lon="-1.35388">
        <ele>88</ele>
        <time>2021-08-22T10:33:31.000Z</time>
      </trkpt>
      <trkpt lat="47.41561" lon="-1.35399">
        <ele>88</ele>
        <time>2021-08-22T10:33:33.000Z</time>
      </trkpt>
      <trkpt lat="47.41551" lon="-1.3541">
        <ele>88</ele>
        <time>2021-08-22T10:33:35.000Z</time>
      </trkpt>
      <trkpt lat="47.41542" lon="-1.35421">
        <ele>87</ele>
        <time>2021-08-22T10:33:37.000Z</time>
      </trkpt>
      <trkpt lat="47.41533" lon="-1.35433">
        <ele>88</ele>
        <time>2021-08-22T10:33:39.000Z</time>
      </trkpt>
      <trkpt lat="47.41524" lon="-1.35444">
        <ele>87</ele>
        <time>2021-08-22T10:33:41.000Z</time>
      </trkpt>
      <trkpt lat="47.41515" lon="-1.35457">
        <ele>88</ele>
        <time>2021-08-22T10:33:43.000Z</time>
      </trkpt>
      <trkpt lat="47.41506" lon="-1.3547">
        <ele>88</ele>
        <time>2021-08-22T10:33:45.000Z</time>
      </trkpt>
      <trkpt lat="47.41497" lon="-1.35481">
        <ele>88</ele>
        <time>2021-08-22T10:33:47.000Z</time>
      </trkpt>
      <trkpt lat="47.41489" lon="-1.35493">
        <ele>89</ele>
        <time>2021-08-22T10:33:49.000Z</time>
      </trkpt>
      <trkpt lat="47.4148" lon="-1.35507">
        <ele>89</ele>
        <time>2021-08-22T10:33:51.000Z</time>
      </trkpt>
      <trkpt lat="47.41472" lon="-1.35519">
        <ele>89</ele>
        <time>2021-08-22T10:33:53.000Z</time>
      </trkpt>
      <trkpt lat="47.41464" lon="-1.35533">
        <ele>89</ele>
        <time>2021-08-22T10:33:55.000Z</time>
      </trkpt>
      <trkpt lat="47.41456" lon="-1.35547">
        <ele>89</ele>
        <time>2021-08-22T10:33:57.000Z</time>
      </trkpt>
      <trkpt lat="47.41447" lon="-1.35561">
        <ele>89</ele>
        <time>2021-08-22T10:33:59.000Z</time>
      </trkpt>
      <trkpt lat="47.4144" lon="-1.35575">
        <ele>89</ele>
        <time>2021-08-22T10:34:01.000Z</time>
      </trkpt>
      <trkpt lat="47.41432" lon="-1.3559">
        <ele>89</ele>
        <time>2021-08-22T10:34:03.000Z</time>
      </trkpt>
      <trkpt lat="47.41424" lon="-1.35605">
        <ele>89</ele>
        <time>2021-08-22T10:34:05.000Z</time>
      </trkpt>
      <trkpt lat="47.41417" lon="-1.3562">
        <ele>89</ele>
        <time>2021-08-22T10:34:07.000Z</time>
      </trkpt>
      <trkpt lat="47.41409" lon="-1.35635">
        <ele>89</ele>
        <time>2021-08-22T10:34:09.000Z</time>
      </trkpt>
      <trkpt lat="47.41401" lon="-1.3565">
        <ele>89</ele>
        <time>2021-08-22T10:34:11.000Z</time>
      </trkpt>
      <trkpt lat="47.41394" lon="-1.35665">
        <ele>89</ele>
        <time>2021-08-22T10:34:13.000Z</time>
      </trkpt>
      <trkpt lat="47.41386" lon="-1.3568">
        <ele>89</ele>
        <time>2021-08-22T10:34:15.000Z</time>
      </trkpt>
      <trkpt lat="47.41379" lon="-1.35695">
        <ele>90</ele>
        <time>2021-08-22T10:34:17.000Z</time>
      </trkpt>
      <trkpt lat="47.41371" lon="-1.35709">
        <ele>90</ele>
        <time>2021-08-22T10:34:19.000Z</time>
      </trkpt>
      <trkpt lat="47.41363" lon="-1.35725">
        <ele>90</ele>
        <time>2021-08-22T10:34:21.000Z</time>
      </trkpt>
      <trkpt lat="47.41356" lon="-1.3574">
        <ele>90</ele>
        <time>2021-08-22T10:34:23.000Z</time>
      </trkpt>
      <trkpt lat="47.41348" lon="-1.35755">
        <ele>90</ele>
        <time>2021-08-22T10:34:25.000Z</time>
      </trkpt>
      <trkpt lat="47.41341" lon="-1.3577">
        <ele>90</ele>
        <time>2021-08-22T10:34:27.000Z</time>
      </trkpt>
      <trkpt lat="47.41333" lon="-1.35784">
        <ele>91</ele>
        <time>2021-08-22T10:34:29.000Z</time>
      </trkpt>
      <trkpt lat="47.41326" lon="-1.35799">
        <ele>91</ele>
        <time>2021-08-22T10:34:31.000Z</time>
      </trkpt>
      <trkpt lat="47.41318" lon="-1.35813">
        <ele>91</ele>
        <time>2021-08-22T10:34:33.000Z</time>
      </trkpt>
      <trkpt lat="47.41311" lon="-1.35828">
        <ele>91</ele>
        <time>2021-08-22T10:34:35.000Z</time>
      </trkpt>
      <trkpt lat="47.41303" lon="-1.35842">
        <ele>91</ele>
        <time>2021-08-22T10:34:37.000Z</time>
      </trkpt>
      <trkpt lat="47.41296" lon="-1.35857">
        <ele>91</ele>
        <time>2021-08-22T10:34:39.000Z</time>
      </trkpt>
      <trkpt lat="47.41289" lon="-1.35872">
        <ele>91</ele>
        <time>2021-08-22T10:34:41.000Z</time>
      </trkpt>
      <trkpt lat="47.41281" lon="-1.35887">
        <ele>91</ele>
        <time>2021-08-22T10:34:43.000Z</time>
      </trkpt>
      <trkpt lat="47.41273" lon="-1.35902">
        <ele>91</ele>
        <time>2021-08-22T10:34:45.000Z</time>
      </trkpt>
      <trkpt lat="47.41266" lon="-1.35916">
        <ele>91</ele>
        <time>2021-08-22T10:34:47.000Z</time>
      </trkpt>
      <trkpt lat="47.41258" lon="-1.35931">
        <ele>91</ele>
        <time>2021-08-22T10:34:49.000Z</time>
      </trkpt>
      <trkpt lat="47.41251" lon="-1.35946">
        <ele>91</ele>
        <time>2021-08-22T10:34:51.000Z</time>
      </trkpt>
      <trkpt lat="47.41244" lon="-1.3596">
        <ele>91</ele>
        <time>2021-08-22T10:34:53.000Z</time>
      </trkpt>
      <trkpt lat="47.41236" lon="-1.35975">
        <ele>91</ele>
        <time>2021-08-22T10:34:55.000Z</time>
      </trkpt>
      <trkpt lat="47.41228" lon="-1.3599">
        <ele>91</ele>
        <time>2021-08-22T10:34:57.000Z</time>
      </trkpt>
      <trkpt lat="47.4122" lon="-1.36005">
        <ele>91</ele>
        <time>2021-08-22T10:34:59.000Z</time>
      </trkpt>
      <trkpt lat="47.41213" lon="-1.3602">
        <ele>92</ele>
        <time>2021-08-22T10:35:01.000Z</time>
      </trkpt>
      <trkpt lat="47.41205" lon="-1.36035">
        <ele>92</ele>
        <time>2021-08-22T10:35:03.000Z</time>
      </trkpt>
      <trkpt lat="47.41198" lon="-1.3605">
        <ele>93</ele>
        <time>2021-08-22T10:35:05.000Z</time>
      </trkpt>
      <trkpt lat="47.4119" lon="-1.36065">
        <ele>92</ele>
        <time>2021-08-22T10:35:07.000Z</time>
      </trkpt>
      <trkpt lat="47.41182" lon="-1.3608">
        <ele>91</ele>
        <time>2021-08-22T10:35:09.000Z</time>
      </trkpt>
      <trkpt lat="47.41174" lon="-1.36097">
        <ele>91</ele>
        <time>2021-08-22T10:35:11.000Z</time>
      </trkpt>
      <trkpt lat="47.41166" lon="-1.36112">
        <ele>91</ele>
        <time>2021-08-22T10:35:13.000Z</time>
      </trkpt>
      <trkpt lat="47.41158" lon="-1.36128">
        <ele>91</ele>
        <time>2021-08-22T10:35:15.000Z</time>
      </trkpt>
      <trkpt lat="47.4115" lon="-1.36144">
        <ele>91</ele>
        <time>2021-08-22T10:35:17.000Z</time>
      </trkpt>
      <trkpt lat="47.41142" lon="-1.36159">
        <ele>91</ele>
        <time>2021-08-22T10:35:19.000Z</time>
      </trkpt>
      <trkpt lat="47.41134" lon="-1.36175">
        <ele>91</ele>
        <time>2021-08-22T10:35:21.000Z</time>
      </trkpt>
      <trkpt lat="47.41126" lon="-1.3619">
        <ele>91</ele>
        <time>2021-08-22T10:35:23.000Z</time>
      </trkpt>
      <trkpt lat="47.41117" lon="-1.36206">
        <ele>91</ele>
        <time>2021-08-22T10:35:25.000Z</time>
      </trkpt>
      <trkpt lat="47.41109" lon="-1.36223">
        <ele>91</ele>
        <time>2021-08-22T10:35:27.000Z</time>
      </trkpt>
      <trkpt lat="47.41101" lon="-1.3624">
        <ele>92</ele>
        <time>2021-08-22T10:35:29.000Z</time>
      </trkpt>
      <trkpt lat="47.41093" lon="-1.36257">
        <ele>92</ele>
        <time>2021-08-22T10:35:31.000Z</time>
      </trkpt>
      <trkpt lat="47.41085" lon="-1.36273">
        <ele>91</ele>
        <time>2021-08-22T10:35:33.000Z</time>
      </trkpt>
      <trkpt lat="47.41076" lon="-1.3629">
        <ele>91</ele>
        <time>2021-08-22T10:35:35.000Z</time>
      </trkpt>
      <trkpt lat="47.41067" lon="-1.36307">
        <ele>91</ele>
        <time>2021-08-22T10:35:37.000Z</time>
      </trkpt>
      <trkpt lat="47.41058" lon="-1.36324">
        <ele>91</ele>
        <time>2021-08-22T10:35:39.000Z</time>
      </trkpt>
      <trkpt lat="47.4105" lon="-1.36341">
        <ele>91</ele>
        <time>2021-08-22T10:35:41.000Z</time>
      </trkpt>
      <trkpt lat="47.41041" lon="-1.36358">
        <ele>92</ele>
        <time>2021-08-22T10:35:43.000Z</time>
      </trkpt>
      <trkpt lat="47.41033" lon="-1.36375">
        <ele>92</ele>
        <time>2021-08-22T10:35:45.000Z</time>
      </trkpt>
      <trkpt lat="47.41025" lon="-1.36391">
        <ele>93</ele>
        <time>2021-08-22T10:35:47.000Z</time>
      </trkpt>
      <trkpt lat="47.41016" lon="-1.36409">
        <ele>93</ele>
        <time>2021-08-22T10:35:49.000Z</time>
      </trkpt>
      <trkpt lat="47.41007" lon="-1.36425">
        <ele>93</ele>
        <time>2021-08-22T10:35:51.000Z</time>
      </trkpt>
      <trkpt lat="47.40998" lon="-1.36443">
        <ele>93</ele>
        <time>2021-08-22T10:35:53.000Z</time>
      </trkpt>
      <trkpt lat="47.40989" lon="-1.3646">
        <ele>92</ele>
        <time>2021-08-22T10:35:55.000Z</time>
      </trkpt>
      <trkpt lat="47.4098" lon="-1.36476">
        <ele>92</ele>
        <time>2021-08-22T10:35:57.000Z</time>
      </trkpt>
      <trkpt lat="47.40972" lon="-1.36493">
        <ele>92</ele>
        <time>2021-08-22T10:35:59.000Z</time>
      </trkpt>
      <trkpt lat="47.40963" lon="-1.36508">
        <ele>92</ele>
        <time>2021-08-22T10:36:01.000Z</time>
      </trkpt>
      <trkpt lat="47.40955" lon="-1.36524">
        <ele>92</ele>
        <time>2021-08-22T10:36:03.000Z</time>
      </trkpt>
      <trkpt lat="47.40947" lon="-1.3654">
        <ele>92</ele>
        <time>2021-08-22T10:36:05.000Z</time>
      </trkpt>
      <trkpt lat="47.40938" lon="-1.36556">
        <ele>93</ele>
        <time>2021-08-22T10:36:07.000Z</time>
      </trkpt>
      <trkpt lat="47.4093" lon="-1.36572">
        <ele>93</ele>
        <time>2021-08-22T10:36:09.000Z</time>
      </trkpt>
      <trkpt lat="47.40922" lon="-1.36588">
        <ele>93</ele>
        <time>2021-08-22T10:36:11.000Z</time>
      </trkpt>
      <trkpt lat="47.40914" lon="-1.36604">
        <ele>93</ele>
        <time>2021-08-22T10:36:13.000Z</time>
      </trkpt>
      <trkpt lat="47.40907" lon="-1.36619">
        <ele>93</ele>
        <time>2021-08-22T10:36:15.000Z</time>
      </trkpt>
      <trkpt lat="47.40899" lon="-1.36634">
        <ele>93</ele>
        <time>2021-08-22T10:36:17.000Z</time>
      </trkpt>
      <trkpt lat="47.40891" lon="-1.3665">
        <ele>93</ele>
        <time>2021-08-22T10:36:19.000Z</time>
      </trkpt>
      <trkpt lat="47.40883" lon="-1.36665">
        <ele>93</ele>
        <time>2021-08-22T10:36:21.000Z</time>
      </trkpt>
      <trkpt lat="47.40876" lon="-1.36679">
        <ele>93</ele>
        <time>2021-08-22T10:36:23.000Z</time>
      </trkpt>
      <trkpt lat="47.40864" lon="-1.367">
        <ele>93</ele>
        <time>2021-08-22T10:36:26.000Z</time>
      </trkpt>
      <trkpt lat="47.40853" lon="-1.36722">
        <ele>94</ele>
        <time>2021-08-22T10:36:29.000Z</time>
      </trkpt>
      <trkpt lat="47.40845" lon="-1.36737">
        <ele>95</ele>
        <time>2021-08-22T10:36:31.000Z</time>
      </trkpt>
      <trkpt lat="47.40832" lon="-1.36759">
        <ele>96</ele>
        <time>2021-08-22T10:36:34.000Z</time>
      </trkpt>
      <trkpt lat="47.40823" lon="-1.36775">
        <ele>96</ele>
        <time>2021-08-22T10:36:36.000Z</time>
      </trkpt>
      <trkpt lat="47.40812" lon="-1.3679">
        <ele>95</ele>
        <time>2021-08-22T10:36:38.000Z</time>
      </trkpt>
      <trkpt lat="47.40802" lon="-1.36805">
        <ele>94</ele>
        <time>2021-08-22T10:36:40.000Z</time>
      </trkpt>
      <trkpt lat="47.40792" lon="-1.36818">
        <ele>94</ele>
        <time>2021-08-22T10:36:42.000Z</time>
      </trkpt>
      <trkpt lat="47.40781" lon="-1.36832">
        <ele>92</ele>
        <time>2021-08-22T10:36:44.000Z</time>
      </trkpt>
      <trkpt lat="47.4077" lon="-1.36845">
        <ele>91</ele>
        <time>2021-08-22T10:36:46.000Z</time>
      </trkpt>
      <trkpt lat="47.4076" lon="-1.36857">
        <ele>90</ele>
        <time>2021-08-22T10:36:48.000Z</time>
      </trkpt>
      <trkpt lat="47.40752" lon="-1.36867">
        <ele>89</ele>
        <time>2021-08-22T10:36:50.000Z</time>
      </trkpt>
      <trkpt lat="47.40741" lon="-1.36876">
        <ele>88</ele>
        <time>2021-08-22T10:36:53.000Z</time>
      </trkpt>
      <trkpt lat="47.40734" lon="-1.36885">
        <ele>88</ele>
        <time>2021-08-22T10:36:57.000Z</time>
      </trkpt>
      <trkpt lat="47.40723" lon="-1.36894">
        <ele>87</ele>
        <time>2021-08-22T10:37:00.000Z</time>
      </trkpt>
      <trkpt lat="47.40714" lon="-1.36901">
        <ele>88</ele>
        <time>2021-08-22T10:37:02.000Z</time>
      </trkpt>
      <trkpt lat="47.40704" lon="-1.36912">
        <ele>87</ele>
        <time>2021-08-22T10:37:04.000Z</time>
      </trkpt>
      <trkpt lat="47.40693" lon="-1.36922">
        <ele>88</ele>
        <time>2021-08-22T10:37:06.000Z</time>
      </trkpt>
      <trkpt lat="47.40682" lon="-1.3693">
        <ele>89</ele>
        <time>2021-08-22T10:37:08.000Z</time>
      </trkpt>
      <trkpt lat="47.40671" lon="-1.36938">
        <ele>90</ele>
        <time>2021-08-22T10:37:10.000Z</time>
      </trkpt>
      <trkpt lat="47.40659" lon="-1.36946">
        <ele>91</ele>
        <time>2021-08-22T10:37:12.000Z</time>
      </trkpt>
      <trkpt lat="47.40647" lon="-1.36954">
        <ele>91</ele>
        <time>2021-08-22T10:37:14.000Z</time>
      </trkpt>
      <trkpt lat="47.40634" lon="-1.36962">
        <ele>91</ele>
        <time>2021-08-22T10:37:16.000Z</time>
      </trkpt>
      <trkpt lat="47.40621" lon="-1.3697">
        <ele>91</ele>
        <time>2021-08-22T10:37:18.000Z</time>
      </trkpt>
      <trkpt lat="47.40608" lon="-1.36979">
        <ele>91</ele>
        <time>2021-08-22T10:37:20.000Z</time>
      </trkpt>
      <trkpt lat="47.40594" lon="-1.36986">
        <ele>92</ele>
        <time>2021-08-22T10:37:22.000Z</time>
      </trkpt>
      <trkpt lat="47.4058" lon="-1.36992">
        <ele>93</ele>
        <time>2021-08-22T10:37:24.000Z</time>
      </trkpt>
      <trkpt lat="47.40566" lon="-1.36997">
        <ele>92</ele>
        <time>2021-08-22T10:37:26.000Z</time>
      </trkpt>
      <trkpt lat="47.40552" lon="-1.37001">
        <ele>92</ele>
        <time>2021-08-22T10:37:28.000Z</time>
      </trkpt>
      <trkpt lat="47.40538" lon="-1.37006">
        <ele>92</ele>
        <time>2021-08-22T10:37:30.000Z</time>
      </trkpt>
      <trkpt lat="47.40524" lon="-1.3701">
        <ele>92</ele>
        <time>2021-08-22T10:37:32.000Z</time>
      </trkpt>
      <trkpt lat="47.4051" lon="-1.37014">
        <ele>92</ele>
        <time>2021-08-22T10:37:34.000Z</time>
      </trkpt>
      <trkpt lat="47.40496" lon="-1.37019">
        <ele>92</ele>
        <time>2021-08-22T10:37:36.000Z</time>
      </trkpt>
      <trkpt lat="47.40483" lon="-1.37023">
        <ele>92</ele>
        <time>2021-08-22T10:37:38.000Z</time>
      </trkpt>
      <trkpt lat="47.40469" lon="-1.37027">
        <ele>92</ele>
        <time>2021-08-22T10:37:40.000Z</time>
      </trkpt>
      <trkpt lat="47.40455" lon="-1.37032">
        <ele>92</ele>
        <time>2021-08-22T10:37:42.000Z</time>
      </trkpt>
      <trkpt lat="47.40441" lon="-1.37035">
        <ele>91</ele>
        <time>2021-08-22T10:37:44.000Z</time>
      </trkpt>
      <trkpt lat="47.40428" lon="-1.37038">
        <ele>92</ele>
        <time>2021-08-22T10:37:46.000Z</time>
      </trkpt>
      <trkpt lat="47.40415" lon="-1.37042">
        <ele>92</ele>
        <time>2021-08-22T10:37:48.000Z</time>
      </trkpt>
      <trkpt lat="47.40402" lon="-1.37046">
        <ele>91</ele>
        <time>2021-08-22T10:37:50.000Z</time>
      </trkpt>
      <trkpt lat="47.40389" lon="-1.3705">
        <ele>92</ele>
        <time>2021-08-22T10:37:52.000Z</time>
      </trkpt>
      <trkpt lat="47.40376" lon="-1.37054">
        <ele>92</ele>
        <time>2021-08-22T10:37:54.000Z</time>
      </trkpt>
      <trkpt lat="47.40363" lon="-1.37057">
        <ele>92</ele>
        <time>2021-08-22T10:37:56.000Z</time>
      </trkpt>
      <trkpt lat="47.4035" lon="-1.37061">
        <ele>92</ele>
        <time>2021-08-22T10:37:58.000Z</time>
      </trkpt>
      <trkpt lat="47.40337" lon="-1.37065">
        <ele>92</ele>
        <time>2021-08-22T10:38:00.000Z</time>
      </trkpt>
      <trkpt lat="47.40325" lon="-1.37068">
        <ele>92</ele>
        <time>2021-08-22T10:38:02.000Z</time>
      </trkpt>
      <trkpt lat="47.40313" lon="-1.37071">
        <ele>92</ele>
        <time>2021-08-22T10:38:04.000Z</time>
      </trkpt>
      <trkpt lat="47.40301" lon="-1.37074">
        <ele>92</ele>
        <time>2021-08-22T10:38:06.000Z</time>
      </trkpt>
      <trkpt lat="47.40289" lon="-1.37077">
        <ele>92</ele>
        <time>2021-08-22T10:38:08.000Z</time>
      </trkpt>
      <trkpt lat="47.40276" lon="-1.37081">
        <ele>93</ele>
        <time>2021-08-22T10:38:10.000Z</time>
      </trkpt>
      <trkpt lat="47.40263" lon="-1.37086">
        <ele>93</ele>
        <time>2021-08-22T10:38:12.000Z</time>
      </trkpt>
      <trkpt lat="47.4025" lon="-1.3709">
        <ele>93</ele>
        <time>2021-08-22T10:38:14.000Z</time>
      </trkpt>
      <trkpt lat="47.40238" lon="-1.37094">
        <ele>94</ele>
        <time>2021-08-22T10:38:16.000Z</time>
      </trkpt>
      <trkpt lat="47.40226" lon="-1.37099">
        <ele>95</ele>
        <time>2021-08-22T10:38:18.000Z</time>
      </trkpt>
      <trkpt lat="47.40214" lon="-1.37104">
        <ele>96</ele>
        <time>2021-08-22T10:38:20.000Z</time>
      </trkpt>
      <trkpt lat="47.402" lon="-1.37108">
        <ele>95</ele>
        <time>2021-08-22T10:38:22.000Z</time>
      </trkpt>
      <trkpt lat="47.40188" lon="-1.37111">
        <ele>95</ele>
        <time>2021-08-22T10:38:24.000Z</time>
      </trkpt>
      <trkpt lat="47.40175" lon="-1.37114">
        <ele>96</ele>
        <time>2021-08-22T10:38:26.000Z</time>
      </trkpt>
      <trkpt lat="47.40163" lon="-1.37117">
        <ele>96</ele>
        <time>2021-08-22T10:38:28.000Z</time>
      </trkpt>
      <trkpt lat="47.4015" lon="-1.3712">
        <ele>95</ele>
        <time>2021-08-22T10:38:30.000Z</time>
      </trkpt>
      <trkpt lat="47.40138" lon="-1.37122">
        <ele>95</ele>
        <time>2021-08-22T10:38:32.000Z</time>
      </trkpt>
      <trkpt lat="47.40126" lon="-1.37125">
        <ele>95</ele>
        <time>2021-08-22T10:38:34.000Z</time>
      </trkpt>
      <trkpt lat="47.40113" lon="-1.37128">
        <ele>95</ele>
        <time>2021-08-22T10:38:36.000Z</time>
      </trkpt>
      <trkpt lat="47.40102" lon="-1.37132">
        <ele>96</ele>
        <time>2021-08-22T10:38:38.000Z</time>
      </trkpt>
      <trkpt lat="47.4009" lon="-1.37136">
        <ele>96</ele>
        <time>2021-08-22T10:38:40.000Z</time>
      </trkpt>
      <trkpt lat="47.40077" lon="-1.3714">
        <ele>96</ele>
        <time>2021-08-22T10:38:42.000Z</time>
      </trkpt>
      <trkpt lat="47.40065" lon="-1.37143">
        <ele>97</ele>
        <time>2021-08-22T10:38:44.000Z</time>
      </trkpt>
      <trkpt lat="47.40052" lon="-1.37147">
        <ele>97</ele>
        <time>2021-08-22T10:38:46.000Z</time>
      </trkpt>
      <trkpt lat="47.40038" lon="-1.37151">
        <ele>96</ele>
        <time>2021-08-22T10:38:48.000Z</time>
      </trkpt>
      <trkpt lat="47.40025" lon="-1.37154">
        <ele>96</ele>
        <time>2021-08-22T10:38:50.000Z</time>
      </trkpt>
      <trkpt lat="47.40013" lon="-1.37158">
        <ele>96</ele>
        <time>2021-08-22T10:38:52.000Z</time>
      </trkpt>
      <trkpt lat="47.40001" lon="-1.37162">
        <ele>96</ele>
        <time>2021-08-22T10:38:54.000Z</time>
      </trkpt>
      <trkpt lat="47.39989" lon="-1.37165">
        <ele>96</ele>
        <time>2021-08-22T10:38:56.000Z</time>
      </trkpt>
      <trkpt lat="47.39976" lon="-1.37168">
        <ele>97</ele>
        <time>2021-08-22T10:38:58.000Z</time>
      </trkpt>
      <trkpt lat="47.39964" lon="-1.37172">
        <ele>97</ele>
        <time>2021-08-22T10:39:00.000Z</time>
      </trkpt>
      <trkpt lat="47.39951" lon="-1.37175">
        <ele>97</ele>
        <time>2021-08-22T10:39:02.000Z</time>
      </trkpt>
      <trkpt lat="47.39939" lon="-1.37179">
        <ele>97</ele>
        <time>2021-08-22T10:39:04.000Z</time>
      </trkpt>
      <trkpt lat="47.39927" lon="-1.37183">
        <ele>97</ele>
        <time>2021-08-22T10:39:06.000Z</time>
      </trkpt>
      <trkpt lat="47.39915" lon="-1.37185">
        <ele>97</ele>
        <time>2021-08-22T10:39:08.000Z</time>
      </trkpt>
      <trkpt lat="47.39903" lon="-1.37188">
        <ele>96</ele>
        <time>2021-08-22T10:39:10.000Z</time>
      </trkpt>
      <trkpt lat="47.39891" lon="-1.3719">
        <ele>97</ele>
        <time>2021-08-22T10:39:12.000Z</time>
      </trkpt>
      <trkpt lat="47.39879" lon="-1.37195">
        <ele>97</ele>
        <time>2021-08-22T10:39:14.000Z</time>
      </trkpt>
      <trkpt lat="47.39866" lon="-1.37199">
        <ele>98</ele>
        <time>2021-08-22T10:39:16.000Z</time>
      </trkpt>
      <trkpt lat="47.39853" lon="-1.37204">
        <ele>97</ele>
        <time>2021-08-22T10:39:18.000Z</time>
      </trkpt>
      <trkpt lat="47.39841" lon="-1.37207">
        <ele>98</ele>
        <time>2021-08-22T10:39:20.000Z</time>
      </trkpt>
      <trkpt lat="47.39829" lon="-1.37211">
        <ele>97</ele>
        <time>2021-08-22T10:39:22.000Z</time>
      </trkpt>
      <trkpt lat="47.39816" lon="-1.37215">
        <ele>97</ele>
        <time>2021-08-22T10:39:24.000Z</time>
      </trkpt>
      <trkpt lat="47.39804" lon="-1.37218">
        <ele>97</ele>
        <time>2021-08-22T10:39:26.000Z</time>
      </trkpt>
      <trkpt lat="47.39791" lon="-1.37222">
        <ele>98</ele>
        <time>2021-08-22T10:39:28.000Z</time>
      </trkpt>
      <trkpt lat="47.39779" lon="-1.37225">
        <ele>98</ele>
        <time>2021-08-22T10:39:30.000Z</time>
      </trkpt>
      <trkpt lat="47.39766" lon="-1.37228">
        <ele>98</ele>
        <time>2021-08-22T10:39:32.000Z</time>
      </trkpt>
      <trkpt lat="47.39753" lon="-1.37232">
        <ele>99</ele>
        <time>2021-08-22T10:39:34.000Z</time>
      </trkpt>
      <trkpt lat="47.3974" lon="-1.37236">
        <ele>99</ele>
        <time>2021-08-22T10:39:36.000Z</time>
      </trkpt>
      <trkpt lat="47.39728" lon="-1.3724">
        <ele>100</ele>
        <time>2021-08-22T10:39:38.000Z</time>
      </trkpt>
      <trkpt lat="47.39716" lon="-1.37244">
        <ele>99</ele>
        <time>2021-08-22T10:39:40.000Z</time>
      </trkpt>
      <trkpt lat="47.39703" lon="-1.37248">
        <ele>100</ele>
        <time>2021-08-22T10:39:42.000Z</time>
      </trkpt>
      <trkpt lat="47.39691" lon="-1.37252">
        <ele>100</ele>
        <time>2021-08-22T10:39:44.000Z</time>
      </trkpt>
      <trkpt lat="47.39678" lon="-1.37254">
        <ele>100</ele>
        <time>2021-08-22T10:39:46.000Z</time>
      </trkpt>
      <trkpt lat="47.39665" lon="-1.37258">
        <ele>100</ele>
        <time>2021-08-22T10:39:48.000Z</time>
      </trkpt>
      <trkpt lat="47.39652" lon="-1.37261">
        <ele>100</ele>
        <time>2021-08-22T10:39:50.000Z</time>
      </trkpt>
      <trkpt lat="47.39638" lon="-1.37264">
        <ele>100</ele>
        <time>2021-08-22T10:39:52.000Z</time>
      </trkpt>
      <trkpt lat="47.39625" lon="-1.37269">
        <ele>98</ele>
        <time>2021-08-22T10:39:54.000Z</time>
      </trkpt>
      <trkpt lat="47.39613" lon="-1.37273">
        <ele>99</ele>
        <time>2021-08-22T10:39:56.000Z</time>
      </trkpt>
      <trkpt lat="47.39599" lon="-1.37277">
        <ele>99</ele>
        <time>2021-08-22T10:39:58.000Z</time>
      </trkpt>
      <trkpt lat="47.39587" lon="-1.3728">
        <ele>99</ele>
        <time>2021-08-22T10:40:00.000Z</time>
      </trkpt>
      <trkpt lat="47.39574" lon="-1.37284">
        <ele>99</ele>
        <time>2021-08-22T10:40:02.000Z</time>
      </trkpt>
      <trkpt lat="47.39562" lon="-1.37287">
        <ele>99</ele>
        <time>2021-08-22T10:40:04.000Z</time>
      </trkpt>
      <trkpt lat="47.3955" lon="-1.37291">
        <ele>99</ele>
        <time>2021-08-22T10:40:06.000Z</time>
      </trkpt>
      <trkpt lat="47.39537" lon="-1.37293">
        <ele>99</ele>
        <time>2021-08-22T10:40:08.000Z</time>
      </trkpt>
      <trkpt lat="47.39524" lon="-1.37297">
        <ele>99</ele>
        <time>2021-08-22T10:40:10.000Z</time>
      </trkpt>
      <trkpt lat="47.39511" lon="-1.37302">
        <ele>98</ele>
        <time>2021-08-22T10:40:12.000Z</time>
      </trkpt>
      <trkpt lat="47.395" lon="-1.37306">
        <ele>99</ele>
        <time>2021-08-22T10:40:14.000Z</time>
      </trkpt>
      <trkpt lat="47.39487" lon="-1.3731">
        <ele>99</ele>
        <time>2021-08-22T10:40:16.000Z</time>
      </trkpt>
      <trkpt lat="47.39476" lon="-1.37314">
        <ele>100</ele>
        <time>2021-08-22T10:40:18.000Z</time>
      </trkpt>
      <trkpt lat="47.39464" lon="-1.37318">
        <ele>101</ele>
        <time>2021-08-22T10:40:20.000Z</time>
      </trkpt>
      <trkpt lat="47.3945" lon="-1.37322">
        <ele>101</ele>
        <time>2021-08-22T10:40:22.000Z</time>
      </trkpt>
      <trkpt lat="47.39436" lon="-1.37326">
        <ele>101</ele>
        <time>2021-08-22T10:40:24.000Z</time>
      </trkpt>
      <trkpt lat="47.39424" lon="-1.37329">
        <ele>101</ele>
        <time>2021-08-22T10:40:26.000Z</time>
      </trkpt>
      <trkpt lat="47.39412" lon="-1.37333">
        <ele>102</ele>
        <time>2021-08-22T10:40:28.000Z</time>
      </trkpt>
      <trkpt lat="47.39399" lon="-1.37336">
        <ele>102</ele>
        <time>2021-08-22T10:40:30.000Z</time>
      </trkpt>
      <trkpt lat="47.39387" lon="-1.37339">
        <ele>101</ele>
        <time>2021-08-22T10:40:32.000Z</time>
      </trkpt>
      <trkpt lat="47.39374" lon="-1.37343">
        <ele>101</ele>
        <time>2021-08-22T10:40:34.000Z</time>
      </trkpt>
      <trkpt lat="47.39362" lon="-1.37346">
        <ele>102</ele>
        <time>2021-08-22T10:40:36.000Z</time>
      </trkpt>
      <trkpt lat="47.39351" lon="-1.37349">
        <ele>102</ele>
        <time>2021-08-22T10:40:38.000Z</time>
      </trkpt>
      <trkpt lat="47.39341" lon="-1.37352">
        <ele>102</ele>
        <time>2021-08-22T10:40:40.000Z</time>
      </trkpt>
      <trkpt lat="47.3933" lon="-1.37354">
        <ele>102</ele>
        <time>2021-08-22T10:40:42.000Z</time>
      </trkpt>
      <trkpt lat="47.39321" lon="-1.37355">
        <ele>101</ele>
        <time>2021-08-22T10:40:44.000Z</time>
      </trkpt>
      <trkpt lat="47.39311" lon="-1.37361">
        <ele>101</ele>
        <time>2021-08-22T10:40:47.000Z</time>
      </trkpt>
      <trkpt lat="47.39301" lon="-1.37363">
        <ele>101</ele>
        <time>2021-08-22T10:40:50.000Z</time>
      </trkpt>
      <trkpt lat="47.3929" lon="-1.3737">
        <ele>101</ele>
        <time>2021-08-22T10:40:53.000Z</time>
      </trkpt>
      <trkpt lat="47.39279" lon="-1.37374">
        <ele>100</ele>
        <time>2021-08-22T10:40:55.000Z</time>
      </trkpt>
      <trkpt lat="47.39267" lon="-1.37379">
        <ele>100</ele>
        <time>2021-08-22T10:40:57.000Z</time>
      </trkpt>
      <trkpt lat="47.39256" lon="-1.37383">
        <ele>100</ele>
        <time>2021-08-22T10:40:59.000Z</time>
      </trkpt>
      <trkpt lat="47.39245" lon="-1.37388">
        <ele>100</ele>
        <time>2021-08-22T10:41:01.000Z</time>
      </trkpt>
      <trkpt lat="47.39232" lon="-1.37392">
        <ele>100</ele>
        <time>2021-08-22T10:41:03.000Z</time>
      </trkpt>
      <trkpt lat="47.39219" lon="-1.37398">
        <ele>100</ele>
        <time>2021-08-22T10:41:05.000Z</time>
      </trkpt>
      <trkpt lat="47.39206" lon="-1.37405">
        <ele>101</ele>
        <time>2021-08-22T10:41:07.000Z</time>
      </trkpt>
      <trkpt lat="47.39192" lon="-1.37412">
        <ele>101</ele>
        <time>2021-08-22T10:41:09.000Z</time>
      </trkpt>
      <trkpt lat="47.39178" lon="-1.37419">
        <ele>101</ele>
        <time>2021-08-22T10:41:11.000Z</time>
      </trkpt>
      <trkpt lat="47.39165" lon="-1.37426">
        <ele>101</ele>
        <time>2021-08-22T10:41:13.000Z</time>
      </trkpt>
      <trkpt lat="47.39151" lon="-1.37432">
        <ele>101</ele>
        <time>2021-08-22T10:41:15.000Z</time>
      </trkpt>
      <trkpt lat="47.39138" lon="-1.37438">
        <ele>101</ele>
        <time>2021-08-22T10:41:17.000Z</time>
      </trkpt>
      <trkpt lat="47.39125" lon="-1.37444">
        <ele>101</ele>
        <time>2021-08-22T10:41:19.000Z</time>
      </trkpt>
      <trkpt lat="47.39111" lon="-1.37452">
        <ele>101</ele>
        <time>2021-08-22T10:41:21.000Z</time>
      </trkpt>
      <trkpt lat="47.39098" lon="-1.3746">
        <ele>101</ele>
        <time>2021-08-22T10:41:23.000Z</time>
      </trkpt>
      <trkpt lat="47.39085" lon="-1.37467">
        <ele>100</ele>
        <time>2021-08-22T10:41:25.000Z</time>
      </trkpt>
      <trkpt lat="47.39072" lon="-1.37474">
        <ele>100</ele>
        <time>2021-08-22T10:41:27.000Z</time>
      </trkpt>
      <trkpt lat="47.39059" lon="-1.37482">
        <ele>100</ele>
        <time>2021-08-22T10:41:29.000Z</time>
      </trkpt>
      <trkpt lat="47.39046" lon="-1.37489">
        <ele>100</ele>
        <time>2021-08-22T10:41:31.000Z</time>
      </trkpt>
      <trkpt lat="47.39034" lon="-1.37496">
        <ele>100</ele>
        <time>2021-08-22T10:41:33.000Z</time>
      </trkpt>
      <trkpt lat="47.39022" lon="-1.37503">
        <ele>100</ele>
        <time>2021-08-22T10:41:35.000Z</time>
      </trkpt>
      <trkpt lat="47.39009" lon="-1.3751">
        <ele>100</ele>
        <time>2021-08-22T10:41:37.000Z</time>
      </trkpt>
      <trkpt lat="47.38997" lon="-1.37517">
        <ele>99</ele>
        <time>2021-08-22T10:41:39.000Z</time>
      </trkpt>
      <trkpt lat="47.38985" lon="-1.37523">
        <ele>99</ele>
        <time>2021-08-22T10:41:41.000Z</time>
      </trkpt>
      <trkpt lat="47.38972" lon="-1.3753">
        <ele>100</ele>
        <time>2021-08-22T10:41:43.000Z</time>
      </trkpt>
      <trkpt lat="47.38959" lon="-1.37536">
        <ele>100</ele>
        <time>2021-08-22T10:41:45.000Z</time>
      </trkpt>
      <trkpt lat="47.38946" lon="-1.37544">
        <ele>100</ele>
        <time>2021-08-22T10:41:47.000Z</time>
      </trkpt>
      <trkpt lat="47.38934" lon="-1.37551">
        <ele>100</ele>
        <time>2021-08-22T10:41:49.000Z</time>
      </trkpt>
      <trkpt lat="47.38921" lon="-1.37559">
        <ele>100</ele>
        <time>2021-08-22T10:41:51.000Z</time>
      </trkpt>
      <trkpt lat="47.38909" lon="-1.37566">
        <ele>100</ele>
        <time>2021-08-22T10:41:53.000Z</time>
      </trkpt>
      <trkpt lat="47.38896" lon="-1.37573">
        <ele>100</ele>
        <time>2021-08-22T10:41:55.000Z</time>
      </trkpt>
      <trkpt lat="47.38884" lon="-1.3758">
        <ele>100</ele>
        <time>2021-08-22T10:41:57.000Z</time>
      </trkpt>
      <trkpt lat="47.38873" lon="-1.37586">
        <ele>99</ele>
        <time>2021-08-22T10:41:59.000Z</time>
      </trkpt>
      <trkpt lat="47.38862" lon="-1.3759">
        <ele>99</ele>
        <time>2021-08-22T10:42:01.000Z</time>
      </trkpt>
      <trkpt lat="47.38852" lon="-1.37596">
        <ele>100</ele>
        <time>2021-08-22T10:42:04.000Z</time>
      </trkpt>
      <trkpt lat="47.38839" lon="-1.376">
        <ele>100</ele>
        <time>2021-08-22T10:42:07.000Z</time>
      </trkpt>
      <trkpt lat="47.3883" lon="-1.37609">
        <ele>100</ele>
        <time>2021-08-22T10:42:09.000Z</time>
      </trkpt>
      <trkpt lat="47.38818" lon="-1.37617">
        <ele>100</ele>
        <time>2021-08-22T10:42:11.000Z</time>
      </trkpt>
      <trkpt lat="47.38806" lon="-1.37625">
        <ele>100</ele>
        <time>2021-08-22T10:42:13.000Z</time>
      </trkpt>
      <trkpt lat="47.38794" lon="-1.37632">
        <ele>100</ele>
        <time>2021-08-22T10:42:15.000Z</time>
      </trkpt>
      <trkpt lat="47.38783" lon="-1.37638">
        <ele>100</ele>
        <time>2021-08-22T10:42:17.000Z</time>
      </trkpt>
      <trkpt lat="47.38771" lon="-1.37645">
        <ele>100</ele>
        <time>2021-08-22T10:42:19.000Z</time>
      </trkpt>
      <trkpt lat="47.38758" lon="-1.37653">
        <ele>100</ele>
        <time>2021-08-22T10:42:21.000Z</time>
      </trkpt>
      <trkpt lat="47.38746" lon="-1.3766">
        <ele>100</ele>
        <time>2021-08-22T10:42:23.000Z</time>
      </trkpt>
      <trkpt lat="47.38733" lon="-1.37668">
        <ele>100</ele>
        <time>2021-08-22T10:42:25.000Z</time>
      </trkpt>
      <trkpt lat="47.3872" lon="-1.37676">
        <ele>100</ele>
        <time>2021-08-22T10:42:27.000Z</time>
      </trkpt>
      <trkpt lat="47.38707" lon="-1.37683">
        <ele>100</ele>
        <time>2021-08-22T10:42:29.000Z</time>
      </trkpt>
      <trkpt lat="47.38694" lon="-1.37689">
        <ele>100</ele>
        <time>2021-08-22T10:42:31.000Z</time>
      </trkpt>
      <trkpt lat="47.38681" lon="-1.37695">
        <ele>100</ele>
        <time>2021-08-22T10:42:33.000Z</time>
      </trkpt>
      <trkpt lat="47.38669" lon="-1.37702">
        <ele>101</ele>
        <time>2021-08-22T10:42:35.000Z</time>
      </trkpt>
      <trkpt lat="47.38656" lon="-1.37709">
        <ele>101</ele>
        <time>2021-08-22T10:42:37.000Z</time>
      </trkpt>
      <trkpt lat="47.38643" lon="-1.37716">
        <ele>100</ele>
        <time>2021-08-22T10:42:39.000Z</time>
      </trkpt>
      <trkpt lat="47.38631" lon="-1.37724">
        <ele>101</ele>
        <time>2021-08-22T10:42:41.000Z</time>
      </trkpt>
      <trkpt lat="47.38618" lon="-1.37732">
        <ele>100</ele>
        <time>2021-08-22T10:42:43.000Z</time>
      </trkpt>
      <trkpt lat="47.38605" lon="-1.37738">
        <ele>100</ele>
        <time>2021-08-22T10:42:45.000Z</time>
      </trkpt>
      <trkpt lat="47.38593" lon="-1.37744">
        <ele>100</ele>
        <time>2021-08-22T10:42:47.000Z</time>
      </trkpt>
      <trkpt lat="47.38581" lon="-1.37751">
        <ele>101</ele>
        <time>2021-08-22T10:42:49.000Z</time>
      </trkpt>
      <trkpt lat="47.38568" lon="-1.37758">
        <ele>101</ele>
        <time>2021-08-22T10:42:51.000Z</time>
      </trkpt>
      <trkpt lat="47.38556" lon="-1.37764">
        <ele>100</ele>
        <time>2021-08-22T10:42:53.000Z</time>
      </trkpt>
      <trkpt lat="47.38544" lon="-1.37771">
        <ele>100</ele>
        <time>2021-08-22T10:42:55.000Z</time>
      </trkpt>
      <trkpt lat="47.38532" lon="-1.37777">
        <ele>100</ele>
        <time>2021-08-22T10:42:57.000Z</time>
      </trkpt>
      <trkpt lat="47.38522" lon="-1.37784">
        <ele>100</ele>
        <time>2021-08-22T10:42:59.000Z</time>
      </trkpt>
      <trkpt lat="47.38511" lon="-1.37791">
        <ele>100</ele>
        <time>2021-08-22T10:43:01.000Z</time>
      </trkpt>
      <trkpt lat="47.385" lon="-1.37796">
        <ele>101</ele>
        <time>2021-08-22T10:43:04.000Z</time>
      </trkpt>
      <trkpt lat="47.38491" lon="-1.37801">
        <ele>100</ele>
        <time>2021-08-22T10:43:07.000Z</time>
      </trkpt>
      <trkpt lat="47.38482" lon="-1.37808">
        <ele>100</ele>
        <time>2021-08-22T10:43:10.000Z</time>
      </trkpt>
      <trkpt lat="47.38473" lon="-1.37814">
        <ele>99</ele>
        <time>2021-08-22T10:43:12.000Z</time>
      </trkpt>
      <trkpt lat="47.38462" lon="-1.37821">
        <ele>100</ele>
        <time>2021-08-22T10:43:14.000Z</time>
      </trkpt>
      <trkpt lat="47.38449" lon="-1.37827">
        <ele>100</ele>
        <time>2021-08-22T10:43:16.000Z</time>
      </trkpt>
      <trkpt lat="47.38436" lon="-1.37833">
        <ele>99</ele>
        <time>2021-08-22T10:43:18.000Z</time>
      </trkpt>
      <trkpt lat="47.38423" lon="-1.3784">
        <ele>99</ele>
        <time>2021-08-22T10:43:20.000Z</time>
      </trkpt>
      <trkpt lat="47.3841" lon="-1.37846">
        <ele>99</ele>
        <time>2021-08-22T10:43:22.000Z</time>
      </trkpt>
      <trkpt lat="47.38399" lon="-1.37853">
        <ele>99</ele>
        <time>2021-08-22T10:43:24.000Z</time>
      </trkpt>
      <trkpt lat="47.38387" lon="-1.37859">
        <ele>100</ele>
        <time>2021-08-22T10:43:26.000Z</time>
      </trkpt>
      <trkpt lat="47.38376" lon="-1.37866">
        <ele>100</ele>
        <time>2021-08-22T10:43:28.000Z</time>
      </trkpt>
      <trkpt lat="47.38364" lon="-1.37873">
        <ele>99</ele>
        <time>2021-08-22T10:43:30.000Z</time>
      </trkpt>
      <trkpt lat="47.3835" lon="-1.37881">
        <ele>99</ele>
        <time>2021-08-22T10:43:32.000Z</time>
      </trkpt>
      <trkpt lat="47.38337" lon="-1.37888">
        <ele>100</ele>
        <time>2021-08-22T10:43:34.000Z</time>
      </trkpt>
      <trkpt lat="47.38325" lon="-1.37896">
        <ele>100</ele>
        <time>2021-08-22T10:43:36.000Z</time>
      </trkpt>
      <trkpt lat="47.38313" lon="-1.37902">
        <ele>100</ele>
        <time>2021-08-22T10:43:38.000Z</time>
      </trkpt>
      <trkpt lat="47.38301" lon="-1.37908">
        <ele>100</ele>
        <time>2021-08-22T10:43:40.000Z</time>
      </trkpt>
      <trkpt lat="47.3829" lon="-1.37913">
        <ele>99</ele>
        <time>2021-08-22T10:43:42.000Z</time>
      </trkpt>
      <trkpt lat="47.38279" lon="-1.3792">
        <ele>99</ele>
        <time>2021-08-22T10:43:44.000Z</time>
      </trkpt>
      <trkpt lat="47.38267" lon="-1.37927">
        <ele>99</ele>
        <time>2021-08-22T10:43:46.000Z</time>
      </trkpt>
      <trkpt lat="47.38255" lon="-1.37936">
        <ele>99</ele>
        <time>2021-08-22T10:43:48.000Z</time>
      </trkpt>
      <trkpt lat="47.38242" lon="-1.37944">
        <ele>99</ele>
        <time>2021-08-22T10:43:50.000Z</time>
      </trkpt>
      <trkpt lat="47.38228" lon="-1.37951">
        <ele>98</ele>
        <time>2021-08-22T10:43:52.000Z</time>
      </trkpt>
      <trkpt lat="47.38215" lon="-1.37958">
        <ele>98</ele>
        <time>2021-08-22T10:43:54.000Z</time>
      </trkpt>
      <trkpt lat="47.38201" lon="-1.37965">
        <ele>98</ele>
        <time>2021-08-22T10:43:56.000Z</time>
      </trkpt>
      <trkpt lat="47.38187" lon="-1.37972">
        <ele>98</ele>
        <time>2021-08-22T10:43:58.000Z</time>
      </trkpt>
      <trkpt lat="47.38173" lon="-1.37978">
        <ele>98</ele>
        <time>2021-08-22T10:44:00.000Z</time>
      </trkpt>
      <trkpt lat="47.38161" lon="-1.37986">
        <ele>98</ele>
        <time>2021-08-22T10:44:02.000Z</time>
      </trkpt>
      <trkpt lat="47.38149" lon="-1.37993">
        <ele>98</ele>
        <time>2021-08-22T10:44:04.000Z</time>
      </trkpt>
      <trkpt lat="47.38136" lon="-1.38001">
        <ele>99</ele>
        <time>2021-08-22T10:44:06.000Z</time>
      </trkpt>
      <trkpt lat="47.38123" lon="-1.38008">
        <ele>98</ele>
        <time>2021-08-22T10:44:08.000Z</time>
      </trkpt>
      <trkpt lat="47.3811" lon="-1.38015">
        <ele>97</ele>
        <time>2021-08-22T10:44:10.000Z</time>
      </trkpt>
      <trkpt lat="47.38097" lon="-1.38022">
        <ele>97</ele>
        <time>2021-08-22T10:44:12.000Z</time>
      </trkpt>
      <trkpt lat="47.38083" lon="-1.38031">
        <ele>97</ele>
        <time>2021-08-22T10:44:14.000Z</time>
      </trkpt>
      <trkpt lat="47.3807" lon="-1.38038">
        <ele>97</ele>
        <time>2021-08-22T10:44:16.000Z</time>
      </trkpt>
      <trkpt lat="47.38056" lon="-1.38046">
        <ele>97</ele>
        <time>2021-08-22T10:44:18.000Z</time>
      </trkpt>
      <trkpt lat="47.38044" lon="-1.38054">
        <ele>98</ele>
        <time>2021-08-22T10:44:20.000Z</time>
      </trkpt>
      <trkpt lat="47.38031" lon="-1.3806">
        <ele>97</ele>
        <time>2021-08-22T10:44:22.000Z</time>
      </trkpt>
      <trkpt lat="47.38018" lon="-1.38066">
        <ele>97</ele>
        <time>2021-08-22T10:44:24.000Z</time>
      </trkpt>
      <trkpt lat="47.38004" lon="-1.38074">
        <ele>97</ele>
        <time>2021-08-22T10:44:26.000Z</time>
      </trkpt>
      <trkpt lat="47.3799" lon="-1.38081">
        <ele>98</ele>
        <time>2021-08-22T10:44:28.000Z</time>
      </trkpt>
      <trkpt lat="47.37977" lon="-1.38088">
        <ele>98</ele>
        <time>2021-08-22T10:44:30.000Z</time>
      </trkpt>
      <trkpt lat="47.37964" lon="-1.38095">
        <ele>98</ele>
        <time>2021-08-22T10:44:32.000Z</time>
      </trkpt>
      <trkpt lat="47.37951" lon="-1.38103">
        <ele>98</ele>
        <time>2021-08-22T10:44:34.000Z</time>
      </trkpt>
      <trkpt lat="47.37939" lon="-1.3811">
        <ele>98</ele>
        <time>2021-08-22T10:44:36.000Z</time>
      </trkpt>
      <trkpt lat="47.37926" lon="-1.38117">
        <ele>98</ele>
        <time>2021-08-22T10:44:38.000Z</time>
      </trkpt>
      <trkpt lat="47.37913" lon="-1.38124">
        <ele>97</ele>
        <time>2021-08-22T10:44:40.000Z</time>
      </trkpt>
      <trkpt lat="47.37901" lon="-1.3813">
        <ele>97</ele>
        <time>2021-08-22T10:44:42.000Z</time>
      </trkpt>
      <trkpt lat="47.37889" lon="-1.38137">
        <ele>97</ele>
        <time>2021-08-22T10:44:44.000Z</time>
      </trkpt>
      <trkpt lat="47.37876" lon="-1.38145">
        <ele>97</ele>
        <time>2021-08-22T10:44:46.000Z</time>
      </trkpt>
      <trkpt lat="47.37864" lon="-1.38153">
        <ele>98</ele>
        <time>2021-08-22T10:44:48.000Z</time>
      </trkpt>
      <trkpt lat="47.37852" lon="-1.3816">
        <ele>99</ele>
        <time>2021-08-22T10:44:50.000Z</time>
      </trkpt>
      <trkpt lat="47.37839" lon="-1.38166">
        <ele>99</ele>
        <time>2021-08-22T10:44:52.000Z</time>
      </trkpt>
      <trkpt lat="47.37826" lon="-1.38173">
        <ele>99</ele>
        <time>2021-08-22T10:44:54.000Z</time>
      </trkpt>
      <trkpt lat="47.37814" lon="-1.3818">
        <ele>98</ele>
        <time>2021-08-22T10:44:56.000Z</time>
      </trkpt>
      <trkpt lat="47.37802" lon="-1.38187">
        <ele>99</ele>
        <time>2021-08-22T10:44:58.000Z</time>
      </trkpt>
      <trkpt lat="47.3779" lon="-1.38195">
        <ele>99</ele>
        <time>2021-08-22T10:45:00.000Z</time>
      </trkpt>
      <trkpt lat="47.37778" lon="-1.38201">
        <ele>99</ele>
        <time>2021-08-22T10:45:02.000Z</time>
      </trkpt>
      <trkpt lat="47.37766" lon="-1.38208">
        <ele>98</ele>
        <time>2021-08-22T10:45:04.000Z</time>
      </trkpt>
      <trkpt lat="47.37755" lon="-1.38215">
        <ele>99</ele>
        <time>2021-08-22T10:45:06.000Z</time>
      </trkpt>
      <trkpt lat="47.37744" lon="-1.38221">
        <ele>100</ele>
        <time>2021-08-22T10:45:08.000Z</time>
      </trkpt>
      <trkpt lat="47.37732" lon="-1.38228">
        <ele>100</ele>
        <time>2021-08-22T10:45:10.000Z</time>
      </trkpt>
      <trkpt lat="47.37721" lon="-1.38235">
        <ele>100</ele>
        <time>2021-08-22T10:45:12.000Z</time>
      </trkpt>
      <trkpt lat="47.37709" lon="-1.38241">
        <ele>100</ele>
        <time>2021-08-22T10:45:14.000Z</time>
      </trkpt>
      <trkpt lat="47.37698" lon="-1.38246">
        <ele>100</ele>
        <time>2021-08-22T10:45:16.000Z</time>
      </trkpt>
      <trkpt lat="47.37687" lon="-1.38253">
        <ele>101</ele>
        <time>2021-08-22T10:45:18.000Z</time>
      </trkpt>
      <trkpt lat="47.37677" lon="-1.38259">
        <ele>101</ele>
        <time>2021-08-22T10:45:20.000Z</time>
      </trkpt>
      <trkpt lat="47.37668" lon="-1.38264">
        <ele>101</ele>
        <time>2021-08-22T10:45:22.000Z</time>
      </trkpt>
      <trkpt lat="47.37658" lon="-1.38267">
        <ele>101</ele>
        <time>2021-08-22T10:45:25.000Z</time>
      </trkpt>
      <trkpt lat="47.37648" lon="-1.38274">
        <ele>101</ele>
        <time>2021-08-22T10:45:28.000Z</time>
      </trkpt>
      <trkpt lat="47.37637" lon="-1.38279">
        <ele>101</ele>
        <time>2021-08-22T10:45:30.000Z</time>
      </trkpt>
      <trkpt lat="47.37627" lon="-1.38286">
        <ele>101</ele>
        <time>2021-08-22T10:45:32.000Z</time>
      </trkpt>
      <trkpt lat="47.37618" lon="-1.38291">
        <ele>101</ele>
        <time>2021-08-22T10:45:34.000Z</time>
      </trkpt>
      <trkpt lat="47.37608" lon="-1.38296">
        <ele>101</ele>
        <time>2021-08-22T10:45:37.000Z</time>
      </trkpt>
      <trkpt lat="47.37598" lon="-1.38304">
        <ele>100</ele>
        <time>2021-08-22T10:45:39.000Z</time>
      </trkpt>
      <trkpt lat="47.37588" lon="-1.3831">
        <ele>101</ele>
        <time>2021-08-22T10:45:41.000Z</time>
      </trkpt>
      <trkpt lat="47.37577" lon="-1.38316">
        <ele>101</ele>
        <time>2021-08-22T10:45:43.000Z</time>
      </trkpt>
      <trkpt lat="47.37566" lon="-1.38323">
        <ele>101</ele>
        <time>2021-08-22T10:45:45.000Z</time>
      </trkpt>
      <trkpt lat="47.37555" lon="-1.38328">
        <ele>101</ele>
        <time>2021-08-22T10:45:47.000Z</time>
      </trkpt>
      <trkpt lat="47.37544" lon="-1.38334">
        <ele>102</ele>
        <time>2021-08-22T10:45:49.000Z</time>
      </trkpt>
      <trkpt lat="47.37533" lon="-1.3834">
        <ele>102</ele>
        <time>2021-08-22T10:45:51.000Z</time>
      </trkpt>
      <trkpt lat="47.37523" lon="-1.38346">
        <ele>103</ele>
        <time>2021-08-22T10:45:53.000Z</time>
      </trkpt>
      <trkpt lat="47.37514" lon="-1.38352">
        <ele>104</ele>
        <time>2021-08-22T10:45:55.000Z</time>
      </trkpt>
      <trkpt lat="47.37503" lon="-1.38357">
        <ele>104</ele>
        <time>2021-08-22T10:45:57.000Z</time>
      </trkpt>
      <trkpt lat="47.37492" lon="-1.38363">
        <ele>104</ele>
        <time>2021-08-22T10:45:59.000Z</time>
      </trkpt>
      <trkpt lat="47.3748" lon="-1.38369">
        <ele>104</ele>
        <time>2021-08-22T10:46:01.000Z</time>
      </trkpt>
      <trkpt lat="47.37468" lon="-1.38376">
        <ele>104</ele>
        <time>2021-08-22T10:46:03.000Z</time>
      </trkpt>
      <trkpt lat="47.37455" lon="-1.38383">
        <ele>104</ele>
        <time>2021-08-22T10:46:05.000Z</time>
      </trkpt>
      <trkpt lat="47.37442" lon="-1.38391">
        <ele>104</ele>
        <time>2021-08-22T10:46:07.000Z</time>
      </trkpt>
      <trkpt lat="47.3743" lon="-1.38398">
        <ele>105</ele>
        <time>2021-08-22T10:46:09.000Z</time>
      </trkpt>
      <trkpt lat="47.37418" lon="-1.38404">
        <ele>105</ele>
        <time>2021-08-22T10:46:11.000Z</time>
      </trkpt>
      <trkpt lat="47.37407" lon="-1.3841">
        <ele>104</ele>
        <time>2021-08-22T10:46:13.000Z</time>
      </trkpt>
      <trkpt lat="47.37394" lon="-1.38417">
        <ele>105</ele>
        <time>2021-08-22T10:46:15.000Z</time>
      </trkpt>
      <trkpt lat="47.37382" lon="-1.38425">
        <ele>105</ele>
        <time>2021-08-22T10:46:17.000Z</time>
      </trkpt>
      <trkpt lat="47.3737" lon="-1.38433">
        <ele>106</ele>
        <time>2021-08-22T10:46:19.000Z</time>
      </trkpt>
      <trkpt lat="47.37358" lon="-1.3844">
        <ele>106</ele>
        <time>2021-08-22T10:46:21.000Z</time>
      </trkpt>
      <trkpt lat="47.37346" lon="-1.38446">
        <ele>105</ele>
        <time>2021-08-22T10:46:23.000Z</time>
      </trkpt>
      <trkpt lat="47.37335" lon="-1.38454">
        <ele>106</ele>
        <time>2021-08-22T10:46:25.000Z</time>
      </trkpt>
      <trkpt lat="47.37324" lon="-1.3846">
        <ele>106</ele>
        <time>2021-08-22T10:46:27.000Z</time>
      </trkpt>
      <trkpt lat="47.37312" lon="-1.38465">
        <ele>106</ele>
        <time>2021-08-22T10:46:29.000Z</time>
      </trkpt>
      <trkpt lat="47.37301" lon="-1.38471">
        <ele>106</ele>
        <time>2021-08-22T10:46:31.000Z</time>
      </trkpt>
      <trkpt lat="47.3729" lon="-1.38477">
        <ele>107</ele>
        <time>2021-08-22T10:46:33.000Z</time>
      </trkpt>
      <trkpt lat="47.3728" lon="-1.38482">
        <ele>107</ele>
        <time>2021-08-22T10:46:35.000Z</time>
      </trkpt>
      <trkpt lat="47.37269" lon="-1.38486">
        <ele>106</ele>
        <time>2021-08-22T10:46:37.000Z</time>
      </trkpt>
      <trkpt lat="47.37261" lon="-1.3849">
        <ele>107</ele>
        <time>2021-08-22T10:46:39.000Z</time>
      </trkpt>
      <trkpt lat="47.37252" lon="-1.38495">
        <ele>107</ele>
        <time>2021-08-22T10:46:41.000Z</time>
      </trkpt>
      <trkpt lat="47.37242" lon="-1.38501">
        <ele>107</ele>
        <time>2021-08-22T10:46:43.000Z</time>
      </trkpt>
      <trkpt lat="47.3723" lon="-1.38508">
        <ele>108</ele>
        <time>2021-08-22T10:46:45.000Z</time>
      </trkpt>
      <trkpt lat="47.37219" lon="-1.38515">
        <ele>108</ele>
        <time>2021-08-22T10:46:47.000Z</time>
      </trkpt>
      <trkpt lat="47.37209" lon="-1.38521">
        <ele>108</ele>
        <time>2021-08-22T10:46:49.000Z</time>
      </trkpt>
      <trkpt lat="47.37199" lon="-1.38527">
        <ele>108</ele>
        <time>2021-08-22T10:46:51.000Z</time>
      </trkpt>
      <trkpt lat="47.3719" lon="-1.38532">
        <ele>108</ele>
        <time>2021-08-22T10:46:53.000Z</time>
      </trkpt>
      <trkpt lat="47.37182" lon="-1.38536">
        <ele>109</ele>
        <time>2021-08-22T10:46:56.000Z</time>
      </trkpt>
      <trkpt lat="47.37172" lon="-1.38542">
        <ele>108</ele>
        <time>2021-08-22T10:46:59.000Z</time>
      </trkpt>
      <trkpt lat="47.37163" lon="-1.38549">
        <ele>108</ele>
        <time>2021-08-22T10:47:02.000Z</time>
      </trkpt>
      <trkpt lat="47.37153" lon="-1.38556">
        <ele>109</ele>
        <time>2021-08-22T10:47:04.000Z</time>
      </trkpt>
      <trkpt lat="47.37142" lon="-1.38561">
        <ele>109</ele>
        <time>2021-08-22T10:47:06.000Z</time>
      </trkpt>
      <trkpt lat="47.37131" lon="-1.38568">
        <ele>109</ele>
        <time>2021-08-22T10:47:08.000Z</time>
      </trkpt>
      <trkpt lat="47.37119" lon="-1.38575">
        <ele>109</ele>
        <time>2021-08-22T10:47:10.000Z</time>
      </trkpt>
      <trkpt lat="47.37108" lon="-1.38582">
        <ele>110</ele>
        <time>2021-08-22T10:47:12.000Z</time>
      </trkpt>
      <trkpt lat="47.37099" lon="-1.38588">
        <ele>111</ele>
        <time>2021-08-22T10:47:14.000Z</time>
      </trkpt>
      <trkpt lat="47.37089" lon="-1.38594">
        <ele>111</ele>
        <time>2021-08-22T10:47:16.000Z</time>
      </trkpt>
      <trkpt lat="47.37078" lon="-1.386">
        <ele>111</ele>
        <time>2021-08-22T10:47:18.000Z</time>
      </trkpt>
      <trkpt lat="47.37066" lon="-1.38607">
        <ele>112</ele>
        <time>2021-08-22T10:47:20.000Z</time>
      </trkpt>
      <trkpt lat="47.37054" lon="-1.38613">
        <ele>112</ele>
        <time>2021-08-22T10:47:22.000Z</time>
      </trkpt>
      <trkpt lat="47.37042" lon="-1.38621">
        <ele>112</ele>
        <time>2021-08-22T10:47:24.000Z</time>
      </trkpt>
      <trkpt lat="47.37029" lon="-1.38628">
        <ele>112</ele>
        <time>2021-08-22T10:47:26.000Z</time>
      </trkpt>
      <trkpt lat="47.37017" lon="-1.38635">
        <ele>112</ele>
        <time>2021-08-22T10:47:28.000Z</time>
      </trkpt>
      <trkpt lat="47.37006" lon="-1.38643">
        <ele>112</ele>
        <time>2021-08-22T10:47:30.000Z</time>
      </trkpt>
      <trkpt lat="47.36995" lon="-1.38651">
        <ele>113</ele>
        <time>2021-08-22T10:47:32.000Z</time>
      </trkpt>
      <trkpt lat="47.36984" lon="-1.38659">
        <ele>112</ele>
        <time>2021-08-22T10:47:34.000Z</time>
      </trkpt>
      <trkpt lat="47.36972" lon="-1.38666">
        <ele>112</ele>
        <time>2021-08-22T10:47:36.000Z</time>
      </trkpt>
      <trkpt lat="47.3696" lon="-1.38674">
        <ele>113</ele>
        <time>2021-08-22T10:47:38.000Z</time>
      </trkpt>
      <trkpt lat="47.36948" lon="-1.38681">
        <ele>113</ele>
        <time>2021-08-22T10:47:40.000Z</time>
      </trkpt>
      <trkpt lat="47.36937" lon="-1.38689">
        <ele>114</ele>
        <time>2021-08-22T10:47:42.000Z</time>
      </trkpt>
      <trkpt lat="47.36927" lon="-1.38698">
        <ele>114</ele>
        <time>2021-08-22T10:47:44.000Z</time>
      </trkpt>
      <trkpt lat="47.36916" lon="-1.38707">
        <ele>115</ele>
        <time>2021-08-22T10:47:46.000Z</time>
      </trkpt>
      <trkpt lat="47.36905" lon="-1.38715">
        <ele>114</ele>
        <time>2021-08-22T10:47:48.000Z</time>
      </trkpt>
      <trkpt lat="47.36894" lon="-1.38724">
        <ele>114</ele>
        <time>2021-08-22T10:47:50.000Z</time>
      </trkpt>
      <trkpt lat="47.36882" lon="-1.38733">
        <ele>113</ele>
        <time>2021-08-22T10:47:52.000Z</time>
      </trkpt>
      <trkpt lat="47.36871" lon="-1.38742">
        <ele>114</ele>
        <time>2021-08-22T10:47:54.000Z</time>
      </trkpt>
      <trkpt lat="47.36859" lon="-1.38751">
        <ele>113</ele>
        <time>2021-08-22T10:47:56.000Z</time>
      </trkpt>
      <trkpt lat="47.36847" lon="-1.38761">
        <ele>113</ele>
        <time>2021-08-22T10:47:58.000Z</time>
      </trkpt>
      <trkpt lat="47.36836" lon="-1.3877">
        <ele>113</ele>
        <time>2021-08-22T10:48:00.000Z</time>
      </trkpt>
      <trkpt lat="47.36826" lon="-1.3878">
        <ele>113</ele>
        <time>2021-08-22T10:48:02.000Z</time>
      </trkpt>
      <trkpt lat="47.36815" lon="-1.38791">
        <ele>113</ele>
        <time>2021-08-22T10:48:04.000Z</time>
      </trkpt>
      <trkpt lat="47.36805" lon="-1.38801">
        <ele>113</ele>
        <time>2021-08-22T10:48:06.000Z</time>
      </trkpt>
      <trkpt lat="47.36794" lon="-1.3881">
        <ele>113</ele>
        <time>2021-08-22T10:48:08.000Z</time>
      </trkpt>
      <trkpt lat="47.36783" lon="-1.3882">
        <ele>114</ele>
        <time>2021-08-22T10:48:10.000Z</time>
      </trkpt>
      <trkpt lat="47.36772" lon="-1.3883">
        <ele>114</ele>
        <time>2021-08-22T10:48:12.000Z</time>
      </trkpt>
      <trkpt lat="47.36762" lon="-1.38839">
        <ele>115</ele>
        <time>2021-08-22T10:48:14.000Z</time>
      </trkpt>
      <trkpt lat="47.36752" lon="-1.3885">
        <ele>115</ele>
        <time>2021-08-22T10:48:16.000Z</time>
      </trkpt>
      <trkpt lat="47.36741" lon="-1.3886">
        <ele>115</ele>
        <time>2021-08-22T10:48:18.000Z</time>
      </trkpt>
      <trkpt lat="47.36731" lon="-1.38869">
        <ele>115</ele>
        <time>2021-08-22T10:48:20.000Z</time>
      </trkpt>
      <trkpt lat="47.36721" lon="-1.3888">
        <ele>116</ele>
        <time>2021-08-22T10:48:22.000Z</time>
      </trkpt>
      <trkpt lat="47.36712" lon="-1.3889">
        <ele>116</ele>
        <time>2021-08-22T10:48:24.000Z</time>
      </trkpt>
      <trkpt lat="47.36702" lon="-1.389">
        <ele>116</ele>
        <time>2021-08-22T10:48:26.000Z</time>
      </trkpt>
      <trkpt lat="47.36692" lon="-1.38911">
        <ele>116</ele>
        <time>2021-08-22T10:48:28.000Z</time>
      </trkpt>
      <trkpt lat="47.36682" lon="-1.38922">
        <ele>116</ele>
        <time>2021-08-22T10:48:30.000Z</time>
      </trkpt>
      <trkpt lat="47.36672" lon="-1.38933">
        <ele>115</ele>
        <time>2021-08-22T10:48:32.000Z</time>
      </trkpt>
      <trkpt lat="47.36662" lon="-1.38944">
        <ele>115</ele>
        <time>2021-08-22T10:48:34.000Z</time>
      </trkpt>
      <trkpt lat="47.36652" lon="-1.38955">
        <ele>114</ele>
        <time>2021-08-22T10:48:36.000Z</time>
      </trkpt>
      <trkpt lat="47.36643" lon="-1.38965">
        <ele>114</ele>
        <time>2021-08-22T10:48:38.000Z</time>
      </trkpt>
      <trkpt lat="47.36632" lon="-1.38978">
        <ele>114</ele>
        <time>2021-08-22T10:48:41.000Z</time>
      </trkpt>
      <trkpt lat="47.36624" lon="-1.38987">
        <ele>114</ele>
        <time>2021-08-22T10:48:44.000Z</time>
      </trkpt>
      <trkpt lat="47.36613" lon="-1.38996">
        <ele>114</ele>
        <time>2021-08-22T10:48:48.000Z</time>
      </trkpt>
      <trkpt lat="47.36603" lon="-1.39008">
        <ele>115</ele>
        <time>2021-08-22T10:48:51.000Z</time>
      </trkpt>
      <trkpt lat="47.36595" lon="-1.3902">
        <ele>114</ele>
        <time>2021-08-22T10:48:53.000Z</time>
      </trkpt>
      <trkpt lat="47.3658" lon="-1.39037">
        <ele>114</ele>
        <time>2021-08-22T10:48:56.000Z</time>
      </trkpt>
      <trkpt lat="47.3657" lon="-1.39048">
        <ele>114</ele>
        <time>2021-08-22T10:48:58.000Z</time>
      </trkpt>
      <trkpt lat="47.3656" lon="-1.3906">
        <ele>115</ele>
        <time>2021-08-22T10:49:00.000Z</time>
      </trkpt>
      <trkpt lat="47.3655" lon="-1.39072">
        <ele>114</ele>
        <time>2021-08-22T10:49:02.000Z</time>
      </trkpt>
      <trkpt lat="47.3654" lon="-1.39084">
        <ele>115</ele>
        <time>2021-08-22T10:49:04.000Z</time>
      </trkpt>
      <trkpt lat="47.3653" lon="-1.39097">
        <ele>115</ele>
        <time>2021-08-22T10:49:06.000Z</time>
      </trkpt>
      <trkpt lat="47.3652" lon="-1.3911">
        <ele>115</ele>
        <time>2021-08-22T10:49:08.000Z</time>
      </trkpt>
      <trkpt lat="47.36505" lon="-1.39128">
        <ele>114</ele>
        <time>2021-08-22T10:49:11.000Z</time>
      </trkpt>
      <trkpt lat="47.36494" lon="-1.39139">
        <ele>113</ele>
        <time>2021-08-22T10:49:13.000Z</time>
      </trkpt>
      <trkpt lat="47.36483" lon="-1.39151">
        <ele>112</ele>
        <time>2021-08-22T10:49:15.000Z</time>
      </trkpt>
      <trkpt lat="47.36473" lon="-1.39163">
        <ele>113</ele>
        <time>2021-08-22T10:49:17.000Z</time>
      </trkpt>
      <trkpt lat="47.36463" lon="-1.39175">
        <ele>113</ele>
        <time>2021-08-22T10:49:19.000Z</time>
      </trkpt>
      <trkpt lat="47.36452" lon="-1.39189">
        <ele>112</ele>
        <time>2021-08-22T10:49:21.000Z</time>
      </trkpt>
      <trkpt lat="47.36442" lon="-1.39201">
        <ele>111</ele>
        <time>2021-08-22T10:49:23.000Z</time>
      </trkpt>
      <trkpt lat="47.36431" lon="-1.39214">
        <ele>111</ele>
        <time>2021-08-22T10:49:25.000Z</time>
      </trkpt>
      <trkpt lat="47.3642" lon="-1.39227">
        <ele>111</ele>
        <time>2021-08-22T10:49:27.000Z</time>
      </trkpt>
      <trkpt lat="47.3641" lon="-1.39239">
        <ele>111</ele>
        <time>2021-08-22T10:49:29.000Z</time>
      </trkpt>
      <trkpt lat="47.364" lon="-1.39251">
        <ele>111</ele>
        <time>2021-08-22T10:49:31.000Z</time>
      </trkpt>
      <trkpt lat="47.36389" lon="-1.39264">
        <ele>111</ele>
        <time>2021-08-22T10:49:33.000Z</time>
      </trkpt>
      <trkpt lat="47.36378" lon="-1.39275">
        <ele>111</ele>
        <time>2021-08-22T10:49:35.000Z</time>
      </trkpt>
      <trkpt lat="47.36368" lon="-1.39287">
        <ele>110</ele>
        <time>2021-08-22T10:49:37.000Z</time>
      </trkpt>
      <trkpt lat="47.36358" lon="-1.39299">
        <ele>110</ele>
        <time>2021-08-22T10:49:39.000Z</time>
      </trkpt>
      <trkpt lat="47.36347" lon="-1.3931">
        <ele>110</ele>
        <time>2021-08-22T10:49:41.000Z</time>
      </trkpt>
      <trkpt lat="47.36337" lon="-1.39322">
        <ele>110</ele>
        <time>2021-08-22T10:49:43.000Z</time>
      </trkpt>
      <trkpt lat="47.36328" lon="-1.39333">
        <ele>110</ele>
        <time>2021-08-22T10:49:45.000Z</time>
      </trkpt>
      <trkpt lat="47.3632" lon="-1.3934">
        <ele>111</ele>
        <time>2021-08-22T10:49:47.000Z</time>
      </trkpt>
      <trkpt lat="47.36311" lon="-1.39351">
        <ele>112</ele>
        <time>2021-08-22T10:49:50.000Z</time>
      </trkpt>
      <trkpt lat="47.36304" lon="-1.39362">
        <ele>113</ele>
        <time>2021-08-22T10:49:53.000Z</time>
      </trkpt>
      <trkpt lat="47.36296" lon="-1.39371">
        <ele>113</ele>
        <time>2021-08-22T10:49:55.000Z</time>
      </trkpt>
      <trkpt lat="47.36287" lon="-1.39382">
        <ele>113</ele>
        <time>2021-08-22T10:49:57.000Z</time>
      </trkpt>
      <trkpt lat="47.36276" lon="-1.39393">
        <ele>114</ele>
        <time>2021-08-22T10:49:59.000Z</time>
      </trkpt>
      <trkpt lat="47.36266" lon="-1.39404">
        <ele>115</ele>
        <time>2021-08-22T10:50:01.000Z</time>
      </trkpt>
      <trkpt lat="47.36256" lon="-1.39416">
        <ele>115</ele>
        <time>2021-08-22T10:50:03.000Z</time>
      </trkpt>
      <trkpt lat="47.36247" lon="-1.39428">
        <ele>116</ele>
        <time>2021-08-22T10:50:05.000Z</time>
      </trkpt>
      <trkpt lat="47.36237" lon="-1.39438">
        <ele>115</ele>
        <time>2021-08-22T10:50:07.000Z</time>
      </trkpt>
      <trkpt lat="47.36227" lon="-1.3945">
        <ele>115</ele>
        <time>2021-08-22T10:50:09.000Z</time>
      </trkpt>
      <trkpt lat="47.36217" lon="-1.39462">
        <ele>115</ele>
        <time>2021-08-22T10:50:11.000Z</time>
      </trkpt>
      <trkpt lat="47.36207" lon="-1.39474">
        <ele>115</ele>
        <time>2021-08-22T10:50:13.000Z</time>
      </trkpt>
      <trkpt lat="47.36197" lon="-1.39485">
        <ele>115</ele>
        <time>2021-08-22T10:50:15.000Z</time>
      </trkpt>
      <trkpt lat="47.36188" lon="-1.39497">
        <ele>115</ele>
        <time>2021-08-22T10:50:17.000Z</time>
      </trkpt>
      <trkpt lat="47.36178" lon="-1.39509">
        <ele>115</ele>
        <time>2021-08-22T10:50:19.000Z</time>
      </trkpt>
      <trkpt lat="47.36168" lon="-1.3952">
        <ele>116</ele>
        <time>2021-08-22T10:50:21.000Z</time>
      </trkpt>
      <trkpt lat="47.36158" lon="-1.39531">
        <ele>115</ele>
        <time>2021-08-22T10:50:23.000Z</time>
      </trkpt>
      <trkpt lat="47.36148" lon="-1.39542">
        <ele>115</ele>
        <time>2021-08-22T10:50:25.000Z</time>
      </trkpt>
      <trkpt lat="47.36139" lon="-1.39552">
        <ele>115</ele>
        <time>2021-08-22T10:50:27.000Z</time>
      </trkpt>
      <trkpt lat="47.36129" lon="-1.39563">
        <ele>116</ele>
        <time>2021-08-22T10:50:29.000Z</time>
      </trkpt>
      <trkpt lat="47.36119" lon="-1.39574">
        <ele>116</ele>
        <time>2021-08-22T10:50:31.000Z</time>
      </trkpt>
      <trkpt lat="47.3611" lon="-1.39585">
        <ele>116</ele>
        <time>2021-08-22T10:50:33.000Z</time>
      </trkpt>
      <trkpt lat="47.361" lon="-1.39596">
        <ele>116</ele>
        <time>2021-08-22T10:50:35.000Z</time>
      </trkpt>
      <trkpt lat="47.36091" lon="-1.39607">
        <ele>116</ele>
        <time>2021-08-22T10:50:37.000Z</time>
      </trkpt>
      <trkpt lat="47.36081" lon="-1.39618">
        <ele>116</ele>
        <time>2021-08-22T10:50:39.000Z</time>
      </trkpt>
      <trkpt lat="47.36073" lon="-1.39627">
        <ele>116</ele>
        <time>2021-08-22T10:50:41.000Z</time>
      </trkpt>
      <trkpt lat="47.36065" lon="-1.39635">
        <ele>116</ele>
        <time>2021-08-22T10:50:43.000Z</time>
      </trkpt>
      <trkpt lat="47.36058" lon="-1.39645">
        <ele>116</ele>
        <time>2021-08-22T10:50:46.000Z</time>
      </trkpt>
      <trkpt lat="47.36048" lon="-1.39657">
        <ele>116</ele>
        <time>2021-08-22T10:50:49.000Z</time>
      </trkpt>
      <trkpt lat="47.36038" lon="-1.3967">
        <ele>117</ele>
        <time>2021-08-22T10:50:52.000Z</time>
      </trkpt>
      <trkpt lat="47.3603" lon="-1.3968">
        <ele>117</ele>
        <time>2021-08-22T10:50:54.000Z</time>
      </trkpt>
      <trkpt lat="47.3602" lon="-1.39692">
        <ele>117</ele>
        <time>2021-08-22T10:50:56.000Z</time>
      </trkpt>
      <trkpt lat="47.36011" lon="-1.39703">
        <ele>117</ele>
        <time>2021-08-22T10:50:58.000Z</time>
      </trkpt>
      <trkpt lat="47.36001" lon="-1.39713">
        <ele>118</ele>
        <time>2021-08-22T10:51:00.000Z</time>
      </trkpt>
      <trkpt lat="47.35992" lon="-1.39724">
        <ele>118</ele>
        <time>2021-08-22T10:51:02.000Z</time>
      </trkpt>
      <trkpt lat="47.35983" lon="-1.39735">
        <ele>118</ele>
        <time>2021-08-22T10:51:04.000Z</time>
      </trkpt>
      <trkpt lat="47.35974" lon="-1.39746">
        <ele>118</ele>
        <time>2021-08-22T10:51:06.000Z</time>
      </trkpt>
      <trkpt lat="47.35964" lon="-1.39757">
        <ele>118</ele>
        <time>2021-08-22T10:51:08.000Z</time>
      </trkpt>
      <trkpt lat="47.35955" lon="-1.39768">
        <ele>118</ele>
        <time>2021-08-22T10:51:10.000Z</time>
      </trkpt>
      <trkpt lat="47.35946" lon="-1.39779">
        <ele>119</ele>
        <time>2021-08-22T10:51:12.000Z</time>
      </trkpt>
      <trkpt lat="47.35938" lon="-1.39789">
        <ele>119</ele>
        <time>2021-08-22T10:51:14.000Z</time>
      </trkpt>
      <trkpt lat="47.35928" lon="-1.39799">
        <ele>119</ele>
        <time>2021-08-22T10:51:16.000Z</time>
      </trkpt>
      <trkpt lat="47.35918" lon="-1.39811">
        <ele>120</ele>
        <time>2021-08-22T10:51:18.000Z</time>
      </trkpt>
      <trkpt lat="47.35908" lon="-1.39822">
        <ele>120</ele>
        <time>2021-08-22T10:51:20.000Z</time>
      </trkpt>
      <trkpt lat="47.35899" lon="-1.39833">
        <ele>120</ele>
        <time>2021-08-22T10:51:22.000Z</time>
      </trkpt>
      <trkpt lat="47.35889" lon="-1.39845">
        <ele>120</ele>
        <time>2021-08-22T10:51:24.000Z</time>
      </trkpt>
      <trkpt lat="47.35879" lon="-1.39856">
        <ele>120</ele>
        <time>2021-08-22T10:51:26.000Z</time>
      </trkpt>
      <trkpt lat="47.35869" lon="-1.39868">
        <ele>120</ele>
        <time>2021-08-22T10:51:28.000Z</time>
      </trkpt>
      <trkpt lat="47.35859" lon="-1.39879">
        <ele>120</ele>
        <time>2021-08-22T10:51:30.000Z</time>
      </trkpt>
      <trkpt lat="47.3585" lon="-1.3989">
        <ele>121</ele>
        <time>2021-08-22T10:51:32.000Z</time>
      </trkpt>
      <trkpt lat="47.3584" lon="-1.39901">
        <ele>121</ele>
        <time>2021-08-22T10:51:34.000Z</time>
      </trkpt>
      <trkpt lat="47.35831" lon="-1.39912">
        <ele>121</ele>
        <time>2021-08-22T10:51:36.000Z</time>
      </trkpt>
      <trkpt lat="47.35821" lon="-1.39923">
        <ele>121</ele>
        <time>2021-08-22T10:51:38.000Z</time>
      </trkpt>
      <trkpt lat="47.35812" lon="-1.39935">
        <ele>121</ele>
        <time>2021-08-22T10:51:40.000Z</time>
      </trkpt>
      <trkpt lat="47.35803" lon="-1.39946">
        <ele>121</ele>
        <time>2021-08-22T10:51:42.000Z</time>
      </trkpt>
      <trkpt lat="47.35794" lon="-1.39958">
        <ele>121</ele>
        <time>2021-08-22T10:51:44.000Z</time>
      </trkpt>
      <trkpt lat="47.35784" lon="-1.39969">
        <ele>121</ele>
        <time>2021-08-22T10:51:46.000Z</time>
      </trkpt>
      <trkpt lat="47.35774" lon="-1.3998">
        <ele>122</ele>
        <time>2021-08-22T10:51:48.000Z</time>
      </trkpt>
      <trkpt lat="47.35764" lon="-1.39992">
        <ele>121</ele>
        <time>2021-08-22T10:51:50.000Z</time>
      </trkpt>
      <trkpt lat="47.35754" lon="-1.40004">
        <ele>121</ele>
        <time>2021-08-22T10:51:52.000Z</time>
      </trkpt>
      <trkpt lat="47.35745" lon="-1.40016">
        <ele>121</ele>
        <time>2021-08-22T10:51:54.000Z</time>
      </trkpt>
      <trkpt lat="47.35735" lon="-1.40027">
        <ele>121</ele>
        <time>2021-08-22T10:51:56.000Z</time>
      </trkpt>
      <trkpt lat="47.35726" lon="-1.40038">
        <ele>121</ele>
        <time>2021-08-22T10:51:58.000Z</time>
      </trkpt>
      <trkpt lat="47.35716" lon="-1.40049">
        <ele>122</ele>
        <time>2021-08-22T10:52:00.000Z</time>
      </trkpt>
      <trkpt lat="47.35705" lon="-1.40059">
        <ele>122</ele>
        <time>2021-08-22T10:52:02.000Z</time>
      </trkpt>
      <trkpt lat="47.35695" lon="-1.40069">
        <ele>123</ele>
        <time>2021-08-22T10:52:04.000Z</time>
      </trkpt>
      <trkpt lat="47.35685" lon="-1.40082">
        <ele>122</ele>
        <time>2021-08-22T10:52:06.000Z</time>
      </trkpt>
      <trkpt lat="47.35675" lon="-1.40094">
        <ele>122</ele>
        <time>2021-08-22T10:52:08.000Z</time>
      </trkpt>
      <trkpt lat="47.35664" lon="-1.40107">
        <ele>121</ele>
        <time>2021-08-22T10:52:10.000Z</time>
      </trkpt>
      <trkpt lat="47.35654" lon="-1.4012">
        <ele>121</ele>
        <time>2021-08-22T10:52:12.000Z</time>
      </trkpt>
      <trkpt lat="47.35643" lon="-1.40133">
        <ele>121</ele>
        <time>2021-08-22T10:52:14.000Z</time>
      </trkpt>
      <trkpt lat="47.35632" lon="-1.40145">
        <ele>120</ele>
        <time>2021-08-22T10:52:16.000Z</time>
      </trkpt>
      <trkpt lat="47.35622" lon="-1.40156">
        <ele>120</ele>
        <time>2021-08-22T10:52:18.000Z</time>
      </trkpt>
      <trkpt lat="47.35612" lon="-1.40168">
        <ele>120</ele>
        <time>2021-08-22T10:52:20.000Z</time>
      </trkpt>
      <trkpt lat="47.35602" lon="-1.40181">
        <ele>120</ele>
        <time>2021-08-22T10:52:22.000Z</time>
      </trkpt>
      <trkpt lat="47.35592" lon="-1.40191">
        <ele>120</ele>
        <time>2021-08-22T10:52:24.000Z</time>
      </trkpt>
      <trkpt lat="47.35583" lon="-1.40202">
        <ele>119</ele>
        <time>2021-08-22T10:52:26.000Z</time>
      </trkpt>
      <trkpt lat="47.35573" lon="-1.40211">
        <ele>119</ele>
        <time>2021-08-22T10:52:28.000Z</time>
      </trkpt>
      <trkpt lat="47.35565" lon="-1.40219">
        <ele>120</ele>
        <time>2021-08-22T10:52:30.000Z</time>
      </trkpt>
      <trkpt lat="47.35556" lon="-1.4023">
        <ele>120</ele>
        <time>2021-08-22T10:52:34.000Z</time>
      </trkpt>
      <trkpt lat="47.35548" lon="-1.40239">
        <ele>120</ele>
        <time>2021-08-22T10:52:37.000Z</time>
      </trkpt>
      <trkpt lat="47.35542" lon="-1.40249">
        <ele>120</ele>
        <time>2021-08-22T10:52:39.000Z</time>
      </trkpt>
      <trkpt lat="47.35534" lon="-1.40258">
        <ele>120</ele>
        <time>2021-08-22T10:52:41.000Z</time>
      </trkpt>
      <trkpt lat="47.35526" lon="-1.40267">
        <ele>120</ele>
        <time>2021-08-22T10:52:43.000Z</time>
      </trkpt>
      <trkpt lat="47.35518" lon="-1.40279">
        <ele>121</ele>
        <time>2021-08-22T10:52:45.000Z</time>
      </trkpt>
      <trkpt lat="47.35509" lon="-1.40291">
        <ele>122</ele>
        <time>2021-08-22T10:52:47.000Z</time>
      </trkpt>
      <trkpt lat="47.355" lon="-1.40303">
        <ele>122</ele>
        <time>2021-08-22T10:52:49.000Z</time>
      </trkpt>
      <trkpt lat="47.35489" lon="-1.40315">
        <ele>121</ele>
        <time>2021-08-22T10:52:51.000Z</time>
      </trkpt>
      <trkpt lat="47.35479" lon="-1.40326">
        <ele>121</ele>
        <time>2021-08-22T10:52:53.000Z</time>
      </trkpt>
      <trkpt lat="47.35469" lon="-1.40337">
        <ele>121</ele>
        <time>2021-08-22T10:52:55.000Z</time>
      </trkpt>
      <trkpt lat="47.35459" lon="-1.40349">
        <ele>121</ele>
        <time>2021-08-22T10:52:57.000Z</time>
      </trkpt>
      <trkpt lat="47.35449" lon="-1.40361">
        <ele>121</ele>
        <time>2021-08-22T10:52:59.000Z</time>
      </trkpt>
      <trkpt lat="47.3544" lon="-1.40372">
        <ele>121</ele>
        <time>2021-08-22T10:53:01.000Z</time>
      </trkpt>
      <trkpt lat="47.35431" lon="-1.40384">
        <ele>121</ele>
        <time>2021-08-22T10:53:03.000Z</time>
      </trkpt>
      <trkpt lat="47.35421" lon="-1.40394">
        <ele>122</ele>
        <time>2021-08-22T10:53:05.000Z</time>
      </trkpt>
      <trkpt lat="47.35412" lon="-1.40406">
        <ele>123</ele>
        <time>2021-08-22T10:53:07.000Z</time>
      </trkpt>
      <trkpt lat="47.35402" lon="-1.40416">
        <ele>123</ele>
        <time>2021-08-22T10:53:09.000Z</time>
      </trkpt>
      <trkpt lat="47.35394" lon="-1.40427">
        <ele>123</ele>
        <time>2021-08-22T10:53:11.000Z</time>
      </trkpt>
      <trkpt lat="47.35386" lon="-1.40438">
        <ele>123</ele>
        <time>2021-08-22T10:53:13.000Z</time>
      </trkpt>
      <trkpt lat="47.35377" lon="-1.40449">
        <ele>123</ele>
        <time>2021-08-22T10:53:15.000Z</time>
      </trkpt>
      <trkpt lat="47.35368" lon="-1.4046">
        <ele>123</ele>
        <time>2021-08-22T10:53:17.000Z</time>
      </trkpt>
      <trkpt lat="47.35358" lon="-1.40471">
        <ele>123</ele>
        <time>2021-08-22T10:53:19.000Z</time>
      </trkpt>
      <trkpt lat="47.35349" lon="-1.40481">
        <ele>123</ele>
        <time>2021-08-22T10:53:21.000Z</time>
      </trkpt>
      <trkpt lat="47.35341" lon="-1.40493">
        <ele>123</ele>
        <time>2021-08-22T10:53:23.000Z</time>
      </trkpt>
      <trkpt lat="47.3533" lon="-1.40505">
        <ele>123</ele>
        <time>2021-08-22T10:53:25.000Z</time>
      </trkpt>
      <trkpt lat="47.3532" lon="-1.40516">
        <ele>123</ele>
        <time>2021-08-22T10:53:27.000Z</time>
      </trkpt>
      <trkpt lat="47.35308" lon="-1.40526">
        <ele>122</ele>
        <time>2021-08-22T10:53:29.000Z</time>
      </trkpt>
      <trkpt lat="47.35297" lon="-1.40535">
        <ele>122</ele>
        <time>2021-08-22T10:53:31.000Z</time>
      </trkpt>
      <trkpt lat="47.35288" lon="-1.40547">
        <ele>122</ele>
        <time>2021-08-22T10:53:34.000Z</time>
      </trkpt>
      <trkpt lat="47.35281" lon="-1.40556">
        <ele>122</ele>
        <time>2021-08-22T10:53:36.000Z</time>
      </trkpt>
      <trkpt lat="47.35271" lon="-1.40566">
        <ele>123</ele>
        <time>2021-08-22T10:53:39.000Z</time>
      </trkpt>
      <trkpt lat="47.35261" lon="-1.40577">
        <ele>122</ele>
        <time>2021-08-22T10:53:42.000Z</time>
      </trkpt>
      <trkpt lat="47.35254" lon="-1.40586">
        <ele>122</ele>
        <time>2021-08-22T10:53:45.000Z</time>
      </trkpt>
      <trkpt lat="47.35246" lon="-1.40599">
        <ele>121</ele>
        <time>2021-08-22T10:53:48.000Z</time>
      </trkpt>
      <trkpt lat="47.35237" lon="-1.4061">
        <ele>120</ele>
        <time>2021-08-22T10:53:50.000Z</time>
      </trkpt>
      <trkpt lat="47.35227" lon="-1.4062">
        <ele>119</ele>
        <time>2021-08-22T10:53:52.000Z</time>
      </trkpt>
      <trkpt lat="47.35217" lon="-1.40631">
        <ele>119</ele>
        <time>2021-08-22T10:53:54.000Z</time>
      </trkpt>
      <trkpt lat="47.35206" lon="-1.40643">
        <ele>119</ele>
        <time>2021-08-22T10:53:56.000Z</time>
      </trkpt>
      <trkpt lat="47.35196" lon="-1.40654">
        <ele>119</ele>
        <time>2021-08-22T10:53:58.000Z</time>
      </trkpt>
      <trkpt lat="47.35186" lon="-1.40665">
        <ele>119</ele>
        <time>2021-08-22T10:54:00.000Z</time>
      </trkpt>
      <trkpt lat="47.35176" lon="-1.40677">
        <ele>119</ele>
        <time>2021-08-22T10:54:02.000Z</time>
      </trkpt>
      <trkpt lat="47.35165" lon="-1.4069">
        <ele>119</ele>
        <time>2021-08-22T10:54:04.000Z</time>
      </trkpt>
      <trkpt lat="47.35155" lon="-1.40702">
        <ele>118</ele>
        <time>2021-08-22T10:54:06.000Z</time>
      </trkpt>
      <trkpt lat="47.35146" lon="-1.40714">
        <ele>118</ele>
        <time>2021-08-22T10:54:08.000Z</time>
      </trkpt>
      <trkpt lat="47.35135" lon="-1.40725">
        <ele>118</ele>
        <time>2021-08-22T10:54:10.000Z</time>
      </trkpt>
      <trkpt lat="47.35126" lon="-1.40737">
        <ele>118</ele>
        <time>2021-08-22T10:54:12.000Z</time>
      </trkpt>
      <trkpt lat="47.35115" lon="-1.40748">
        <ele>118</ele>
        <time>2021-08-22T10:54:14.000Z</time>
      </trkpt>
      <trkpt lat="47.35105" lon="-1.4076">
        <ele>118</ele>
        <time>2021-08-22T10:54:16.000Z</time>
      </trkpt>
      <trkpt lat="47.35095" lon="-1.40772">
        <ele>118</ele>
        <time>2021-08-22T10:54:18.000Z</time>
      </trkpt>
      <trkpt lat="47.35086" lon="-1.40784">
        <ele>118</ele>
        <time>2021-08-22T10:54:20.000Z</time>
      </trkpt>
      <trkpt lat="47.35076" lon="-1.40795">
        <ele>118</ele>
        <time>2021-08-22T10:54:22.000Z</time>
      </trkpt>
      <trkpt lat="47.35065" lon="-1.40807">
        <ele>118</ele>
        <time>2021-08-22T10:54:24.000Z</time>
      </trkpt>
      <trkpt lat="47.35055" lon="-1.40819">
        <ele>117</ele>
        <time>2021-08-22T10:54:26.000Z</time>
      </trkpt>
      <trkpt lat="47.35045" lon="-1.40832">
        <ele>117</ele>
        <time>2021-08-22T10:54:28.000Z</time>
      </trkpt>
      <trkpt lat="47.35035" lon="-1.40843">
        <ele>117</ele>
        <time>2021-08-22T10:54:30.000Z</time>
      </trkpt>
      <trkpt lat="47.35025" lon="-1.40855">
        <ele>117</ele>
        <time>2021-08-22T10:54:32.000Z</time>
      </trkpt>
      <trkpt lat="47.35014" lon="-1.40867">
        <ele>118</ele>
        <time>2021-08-22T10:54:34.000Z</time>
      </trkpt>
      <trkpt lat="47.35004" lon="-1.40879">
        <ele>117</ele>
        <time>2021-08-22T10:54:36.000Z</time>
      </trkpt>
      <trkpt lat="47.34994" lon="-1.40891">
        <ele>117</ele>
        <time>2021-08-22T10:54:38.000Z</time>
      </trkpt>
      <trkpt lat="47.34984" lon="-1.40903">
        <ele>116</ele>
        <time>2021-08-22T10:54:40.000Z</time>
      </trkpt>
      <trkpt lat="47.34974" lon="-1.40914">
        <ele>117</ele>
        <time>2021-08-22T10:54:42.000Z</time>
      </trkpt>
      <trkpt lat="47.34963" lon="-1.40926">
        <ele>117</ele>
        <time>2021-08-22T10:54:44.000Z</time>
      </trkpt>
      <trkpt lat="47.34953" lon="-1.40938">
        <ele>117</ele>
        <time>2021-08-22T10:54:46.000Z</time>
      </trkpt>
      <trkpt lat="47.34943" lon="-1.40951">
        <ele>117</ele>
        <time>2021-08-22T10:54:48.000Z</time>
      </trkpt>
      <trkpt lat="47.34933" lon="-1.40963">
        <ele>117</ele>
        <time>2021-08-22T10:54:50.000Z</time>
      </trkpt>
      <trkpt lat="47.34922" lon="-1.40975">
        <ele>118</ele>
        <time>2021-08-22T10:54:52.000Z</time>
      </trkpt>
      <trkpt lat="47.34912" lon="-1.40987">
        <ele>118</ele>
        <time>2021-08-22T10:54:54.000Z</time>
      </trkpt>
      <trkpt lat="47.34901" lon="-1.41">
        <ele>118</ele>
        <time>2021-08-22T10:54:56.000Z</time>
      </trkpt>
      <trkpt lat="47.34891" lon="-1.41012">
        <ele>118</ele>
        <time>2021-08-22T10:54:58.000Z</time>
      </trkpt>
      <trkpt lat="47.34881" lon="-1.41024">
        <ele>119</ele>
        <time>2021-08-22T10:55:00.000Z</time>
      </trkpt>
      <trkpt lat="47.3487" lon="-1.41036">
        <ele>119</ele>
        <time>2021-08-22T10:55:02.000Z</time>
      </trkpt>
      <trkpt lat="47.34859" lon="-1.41049">
        <ele>118</ele>
        <time>2021-08-22T10:55:04.000Z</time>
      </trkpt>
      <trkpt lat="47.34849" lon="-1.41061">
        <ele>117</ele>
        <time>2021-08-22T10:55:06.000Z</time>
      </trkpt>
      <trkpt lat="47.34839" lon="-1.41074">
        <ele>117</ele>
        <time>2021-08-22T10:55:08.000Z</time>
      </trkpt>
      <trkpt lat="47.34829" lon="-1.41088">
        <ele>117</ele>
        <time>2021-08-22T10:55:10.000Z</time>
      </trkpt>
      <trkpt lat="47.3482" lon="-1.41102">
        <ele>117</ele>
        <time>2021-08-22T10:55:12.000Z</time>
      </trkpt>
      <trkpt lat="47.3481" lon="-1.41115">
        <ele>117</ele>
        <time>2021-08-22T10:55:14.000Z</time>
      </trkpt>
      <trkpt lat="47.34801" lon="-1.4113">
        <ele>117</ele>
        <time>2021-08-22T10:55:16.000Z</time>
      </trkpt>
      <trkpt lat="47.34792" lon="-1.41144">
        <ele>117</ele>
        <time>2021-08-22T10:55:18.000Z</time>
      </trkpt>
      <trkpt lat="47.34783" lon="-1.41157">
        <ele>117</ele>
        <time>2021-08-22T10:55:20.000Z</time>
      </trkpt>
      <trkpt lat="47.34774" lon="-1.41171">
        <ele>118</ele>
        <time>2021-08-22T10:55:22.000Z</time>
      </trkpt>
      <trkpt lat="47.34766" lon="-1.41185">
        <ele>118</ele>
        <time>2021-08-22T10:55:24.000Z</time>
      </trkpt>
      <trkpt lat="47.34758" lon="-1.41196">
        <ele>118</ele>
        <time>2021-08-22T10:55:26.000Z</time>
      </trkpt>
      <trkpt lat="47.34751" lon="-1.41208">
        <ele>118</ele>
        <time>2021-08-22T10:55:29.000Z</time>
      </trkpt>
      <trkpt lat="47.34744" lon="-1.4122">
        <ele>117</ele>
        <time>2021-08-22T10:55:31.000Z</time>
      </trkpt>
      <trkpt lat="47.34737" lon="-1.41235">
        <ele>116</ele>
        <time>2021-08-22T10:55:33.000Z</time>
      </trkpt>
      <trkpt lat="47.3473" lon="-1.41249">
        <ele>116</ele>
        <time>2021-08-22T10:55:35.000Z</time>
      </trkpt>
      <trkpt lat="47.34725" lon="-1.41261">
        <ele>116</ele>
        <time>2021-08-22T10:55:37.000Z</time>
      </trkpt>
      <trkpt lat="47.34716" lon="-1.41277">
        <ele>116</ele>
        <time>2021-08-22T10:55:40.000Z</time>
      </trkpt>
      <trkpt lat="47.34708" lon="-1.41293">
        <ele>115</ele>
        <time>2021-08-22T10:55:42.000Z</time>
      </trkpt>
      <trkpt lat="47.34702" lon="-1.41308">
        <ele>116</ele>
        <time>2021-08-22T10:55:44.000Z</time>
      </trkpt>
      <trkpt lat="47.34695" lon="-1.41323">
        <ele>117</ele>
        <time>2021-08-22T10:55:46.000Z</time>
      </trkpt>
      <trkpt lat="47.34688" lon="-1.41338">
        <ele>117</ele>
        <time>2021-08-22T10:55:48.000Z</time>
      </trkpt>
      <trkpt lat="47.34681" lon="-1.41353">
        <ele>117</ele>
        <time>2021-08-22T10:55:50.000Z</time>
      </trkpt>
      <trkpt lat="47.34674" lon="-1.4137">
        <ele>117</ele>
        <time>2021-08-22T10:55:52.000Z</time>
      </trkpt>
      <trkpt lat="47.34667" lon="-1.41387">
        <ele>117</ele>
        <time>2021-08-22T10:55:54.000Z</time>
      </trkpt>
      <trkpt lat="47.34661" lon="-1.41403">
        <ele>117</ele>
        <time>2021-08-22T10:55:56.000Z</time>
      </trkpt>
      <trkpt lat="47.34655" lon="-1.4142">
        <ele>118</ele>
        <time>2021-08-22T10:55:58.000Z</time>
      </trkpt>
      <trkpt lat="47.34648" lon="-1.41437">
        <ele>117</ele>
        <time>2021-08-22T10:56:00.000Z</time>
      </trkpt>
      <trkpt lat="47.34641" lon="-1.41453">
        <ele>118</ele>
        <time>2021-08-22T10:56:02.000Z</time>
      </trkpt>
      <trkpt lat="47.34636" lon="-1.4147">
        <ele>118</ele>
        <time>2021-08-22T10:56:04.000Z</time>
      </trkpt>
      <trkpt lat="47.34631" lon="-1.41487">
        <ele>118</ele>
        <time>2021-08-22T10:56:06.000Z</time>
      </trkpt>
      <trkpt lat="47.34625" lon="-1.41504">
        <ele>118</ele>
        <time>2021-08-22T10:56:08.000Z</time>
      </trkpt>
      <trkpt lat="47.3462" lon="-1.41522">
        <ele>118</ele>
        <time>2021-08-22T10:56:10.000Z</time>
      </trkpt>
      <trkpt lat="47.34615" lon="-1.41538">
        <ele>119</ele>
        <time>2021-08-22T10:56:12.000Z</time>
      </trkpt>
      <trkpt lat="47.3461" lon="-1.41554">
        <ele>120</ele>
        <time>2021-08-22T10:56:14.000Z</time>
      </trkpt>
      <trkpt lat="47.34606" lon="-1.41572">
        <ele>119</ele>
        <time>2021-08-22T10:56:16.000Z</time>
      </trkpt>
      <trkpt lat="47.34602" lon="-1.41591">
        <ele>119</ele>
        <time>2021-08-22T10:56:18.000Z</time>
      </trkpt>
      <trkpt lat="47.34598" lon="-1.41609">
        <ele>120</ele>
        <time>2021-08-22T10:56:20.000Z</time>
      </trkpt>
      <trkpt lat="47.34593" lon="-1.41627">
        <ele>120</ele>
        <time>2021-08-22T10:56:22.000Z</time>
      </trkpt>
      <trkpt lat="47.34589" lon="-1.41645">
        <ele>119</ele>
        <time>2021-08-22T10:56:24.000Z</time>
      </trkpt>
      <trkpt lat="47.34584" lon="-1.41663">
        <ele>119</ele>
        <time>2021-08-22T10:56:26.000Z</time>
      </trkpt>
      <trkpt lat="47.3458" lon="-1.41682">
        <ele>119</ele>
        <time>2021-08-22T10:56:28.000Z</time>
      </trkpt>
      <trkpt lat="47.34576" lon="-1.41699">
        <ele>120</ele>
        <time>2021-08-22T10:56:30.000Z</time>
      </trkpt>
      <trkpt lat="47.34573" lon="-1.41716">
        <ele>120</ele>
        <time>2021-08-22T10:56:32.000Z</time>
      </trkpt>
      <trkpt lat="47.3457" lon="-1.41734">
        <ele>122</ele>
        <time>2021-08-22T10:56:34.000Z</time>
      </trkpt>
      <trkpt lat="47.34568" lon="-1.41751">
        <ele>124</ele>
        <time>2021-08-22T10:56:36.000Z</time>
      </trkpt>
      <trkpt lat="47.34565" lon="-1.41768">
        <ele>126</ele>
        <time>2021-08-22T10:56:38.000Z</time>
      </trkpt>
      <trkpt lat="47.34563" lon="-1.41787">
        <ele>127</ele>
        <time>2021-08-22T10:56:40.000Z</time>
      </trkpt>
      <trkpt lat="47.34561" lon="-1.41807">
        <ele>126</ele>
        <time>2021-08-22T10:56:42.000Z</time>
      </trkpt>
      <trkpt lat="47.34559" lon="-1.41827">
        <ele>125</ele>
        <time>2021-08-22T10:56:44.000Z</time>
      </trkpt>
      <trkpt lat="47.34556" lon="-1.41847">
        <ele>124</ele>
        <time>2021-08-22T10:56:46.000Z</time>
      </trkpt>
      <trkpt lat="47.34555" lon="-1.41867">
        <ele>124</ele>
        <time>2021-08-22T10:56:48.000Z</time>
      </trkpt>
      <trkpt lat="47.34553" lon="-1.41888">
        <ele>123</ele>
        <time>2021-08-22T10:56:50.000Z</time>
      </trkpt>
      <trkpt lat="47.34551" lon="-1.41908">
        <ele>122</ele>
        <time>2021-08-22T10:56:52.000Z</time>
      </trkpt>
      <trkpt lat="47.3455" lon="-1.41929">
        <ele>121</ele>
        <time>2021-08-22T10:56:54.000Z</time>
      </trkpt>
      <trkpt lat="47.34548" lon="-1.41949">
        <ele>120</ele>
        <time>2021-08-22T10:56:56.000Z</time>
      </trkpt>
      <trkpt lat="47.34547" lon="-1.41968">
        <ele>120</ele>
        <time>2021-08-22T10:56:58.000Z</time>
      </trkpt>
      <trkpt lat="47.34546" lon="-1.41986">
        <ele>118</ele>
        <time>2021-08-22T10:57:00.000Z</time>
      </trkpt>
      <trkpt lat="47.34547" lon="-1.42002">
        <ele>118</ele>
        <time>2021-08-22T10:57:02.000Z</time>
      </trkpt>
      <trkpt lat="47.34546" lon="-1.42016">
        <ele>117</ele>
        <time>2021-08-22T10:57:04.000Z</time>
      </trkpt>
      <trkpt lat="47.34545" lon="-1.42031">
        <ele>116</ele>
        <time>2021-08-22T10:57:06.000Z</time>
      </trkpt>
      <trkpt lat="47.34545" lon="-1.42047">
        <ele>115</ele>
        <time>2021-08-22T10:57:08.000Z</time>
      </trkpt>
      <trkpt lat="47.34542" lon="-1.42062">
        <ele>114</ele>
        <time>2021-08-22T10:57:10.000Z</time>
      </trkpt>
      <trkpt lat="47.34542" lon="-1.4208">
        <ele>114</ele>
        <time>2021-08-22T10:57:12.000Z</time>
      </trkpt>
      <trkpt lat="47.34543" lon="-1.42102">
        <ele>114</ele>
        <time>2021-08-22T10:57:14.000Z</time>
      </trkpt>
      <trkpt lat="47.34545" lon="-1.42123">
        <ele>113</ele>
        <time>2021-08-22T10:57:16.000Z</time>
      </trkpt>
      <trkpt lat="47.34546" lon="-1.42142">
        <ele>113</ele>
        <time>2021-08-22T10:57:18.000Z</time>
      </trkpt>
      <trkpt lat="47.34549" lon="-1.42162">
        <ele>113</ele>
        <time>2021-08-22T10:57:20.000Z</time>
      </trkpt>
      <trkpt lat="47.3455" lon="-1.42181">
        <ele>113</ele>
        <time>2021-08-22T10:57:22.000Z</time>
      </trkpt>
      <trkpt lat="47.34553" lon="-1.42201">
        <ele>113</ele>
        <time>2021-08-22T10:57:24.000Z</time>
      </trkpt>
      <trkpt lat="47.34554" lon="-1.42221">
        <ele>113</ele>
        <time>2021-08-22T10:57:26.000Z</time>
      </trkpt>
      <trkpt lat="47.34555" lon="-1.4224">
        <ele>113</ele>
        <time>2021-08-22T10:57:28.000Z</time>
      </trkpt>
      <trkpt lat="47.34556" lon="-1.4226">
        <ele>114</ele>
        <time>2021-08-22T10:57:30.000Z</time>
      </trkpt>
      <trkpt lat="47.34558" lon="-1.4228">
        <ele>114</ele>
        <time>2021-08-22T10:57:32.000Z</time>
      </trkpt>
      <trkpt lat="47.34559" lon="-1.42299">
        <ele>114</ele>
        <time>2021-08-22T10:57:34.000Z</time>
      </trkpt>
      <trkpt lat="47.34561" lon="-1.42319">
        <ele>114</ele>
        <time>2021-08-22T10:57:36.000Z</time>
      </trkpt>
      <trkpt lat="47.34563" lon="-1.42339">
        <ele>114</ele>
        <time>2021-08-22T10:57:38.000Z</time>
      </trkpt>
      <trkpt lat="47.34563" lon="-1.4236">
        <ele>113</ele>
        <time>2021-08-22T10:57:40.000Z</time>
      </trkpt>
      <trkpt lat="47.34564" lon="-1.42381">
        <ele>112</ele>
        <time>2021-08-22T10:57:42.000Z</time>
      </trkpt>
      <trkpt lat="47.34566" lon="-1.42401">
        <ele>112</ele>
        <time>2021-08-22T10:57:44.000Z</time>
      </trkpt>
      <trkpt lat="47.34567" lon="-1.42422">
        <ele>112</ele>
        <time>2021-08-22T10:57:46.000Z</time>
      </trkpt>
      <trkpt lat="47.34568" lon="-1.42443">
        <ele>112</ele>
        <time>2021-08-22T10:57:48.000Z</time>
      </trkpt>
      <trkpt lat="47.3457" lon="-1.42465">
        <ele>111</ele>
        <time>2021-08-22T10:57:50.000Z</time>
      </trkpt>
      <trkpt lat="47.34571" lon="-1.42485">
        <ele>111</ele>
        <time>2021-08-22T10:57:52.000Z</time>
      </trkpt>
      <trkpt lat="47.34572" lon="-1.42505">
        <ele>111</ele>
        <time>2021-08-22T10:57:54.000Z</time>
      </trkpt>
      <trkpt lat="47.34573" lon="-1.42525">
        <ele>111</ele>
        <time>2021-08-22T10:57:56.000Z</time>
      </trkpt>
      <trkpt lat="47.34575" lon="-1.42545">
        <ele>111</ele>
        <time>2021-08-22T10:57:58.000Z</time>
      </trkpt>
      <trkpt lat="47.34576" lon="-1.42566">
        <ele>111</ele>
        <time>2021-08-22T10:58:00.000Z</time>
      </trkpt>
      <trkpt lat="47.34578" lon="-1.42586">
        <ele>110</ele>
        <time>2021-08-22T10:58:02.000Z</time>
      </trkpt>
      <trkpt lat="47.34579" lon="-1.42605">
        <ele>110</ele>
        <time>2021-08-22T10:58:04.000Z</time>
      </trkpt>
      <trkpt lat="47.34581" lon="-1.42625">
        <ele>110</ele>
        <time>2021-08-22T10:58:06.000Z</time>
      </trkpt>
      <trkpt lat="47.34582" lon="-1.42643">
        <ele>110</ele>
        <time>2021-08-22T10:58:08.000Z</time>
      </trkpt>
      <trkpt lat="47.34582" lon="-1.42659">
        <ele>110</ele>
        <time>2021-08-22T10:58:10.000Z</time>
      </trkpt>
      <trkpt lat="47.34584" lon="-1.42675">
        <ele>110</ele>
        <time>2021-08-22T10:58:12.000Z</time>
      </trkpt>
      <trkpt lat="47.34584" lon="-1.4269">
        <ele>110</ele>
        <time>2021-08-22T10:58:14.000Z</time>
      </trkpt>
      <trkpt lat="47.34585" lon="-1.42704">
        <ele>110</ele>
        <time>2021-08-22T10:58:17.000Z</time>
      </trkpt>
      <trkpt lat="47.34587" lon="-1.42722">
        <ele>110</ele>
        <time>2021-08-22T10:58:21.000Z</time>
      </trkpt>
      <trkpt lat="47.34589" lon="-1.4274">
        <ele>109</ele>
        <time>2021-08-22T10:58:24.000Z</time>
      </trkpt>
      <trkpt lat="47.3459" lon="-1.4276">
        <ele>109</ele>
        <time>2021-08-22T10:58:27.000Z</time>
      </trkpt>
      <trkpt lat="47.34591" lon="-1.42777">
        <ele>108</ele>
        <time>2021-08-22T10:58:29.000Z</time>
      </trkpt>
      <trkpt lat="47.34593" lon="-1.42796">
        <ele>108</ele>
        <time>2021-08-22T10:58:31.000Z</time>
      </trkpt>
      <trkpt lat="47.34594" lon="-1.42814">
        <ele>108</ele>
        <time>2021-08-22T10:58:33.000Z</time>
      </trkpt>
      <trkpt lat="47.34596" lon="-1.42833">
        <ele>108</ele>
        <time>2021-08-22T10:58:35.000Z</time>
      </trkpt>
      <trkpt lat="47.34597" lon="-1.42851">
        <ele>108</ele>
        <time>2021-08-22T10:58:37.000Z</time>
      </trkpt>
      <trkpt lat="47.34599" lon="-1.4287">
        <ele>109</ele>
        <time>2021-08-22T10:58:39.000Z</time>
      </trkpt>
      <trkpt lat="47.346" lon="-1.42888">
        <ele>109</ele>
        <time>2021-08-22T10:58:41.000Z</time>
      </trkpt>
      <trkpt lat="47.34602" lon="-1.42907">
        <ele>109</ele>
        <time>2021-08-22T10:58:43.000Z</time>
      </trkpt>
      <trkpt lat="47.34603" lon="-1.42927">
        <ele>110</ele>
        <time>2021-08-22T10:58:45.000Z</time>
      </trkpt>
      <trkpt lat="47.34604" lon="-1.42946">
        <ele>110</ele>
        <time>2021-08-22T10:58:47.000Z</time>
      </trkpt>
      <trkpt lat="47.34606" lon="-1.42966">
        <ele>110</ele>
        <time>2021-08-22T10:58:49.000Z</time>
      </trkpt>
      <trkpt lat="47.34606" lon="-1.42986">
        <ele>110</ele>
        <time>2021-08-22T10:58:51.000Z</time>
      </trkpt>
      <trkpt lat="47.34608" lon="-1.43006">
        <ele>110</ele>
        <time>2021-08-22T10:58:53.000Z</time>
      </trkpt>
      <trkpt lat="47.34609" lon="-1.43026">
        <ele>110</ele>
        <time>2021-08-22T10:58:55.000Z</time>
      </trkpt>
      <trkpt lat="47.34611" lon="-1.43045">
        <ele>110</ele>
        <time>2021-08-22T10:58:57.000Z</time>
      </trkpt>
      <trkpt lat="47.34612" lon="-1.43065">
        <ele>110</ele>
        <time>2021-08-22T10:58:59.000Z</time>
      </trkpt>
      <trkpt lat="47.34614" lon="-1.43084">
        <ele>110</ele>
        <time>2021-08-22T10:59:01.000Z</time>
      </trkpt>
      <trkpt lat="47.34615" lon="-1.43104">
        <ele>111</ele>
        <time>2021-08-22T10:59:03.000Z</time>
      </trkpt>
      <trkpt lat="47.34617" lon="-1.43124">
        <ele>111</ele>
        <time>2021-08-22T10:59:05.000Z</time>
      </trkpt>
      <trkpt lat="47.34618" lon="-1.43145">
        <ele>111</ele>
        <time>2021-08-22T10:59:07.000Z</time>
      </trkpt>
      <trkpt lat="47.34619" lon="-1.43165">
        <ele>111</ele>
        <time>2021-08-22T10:59:09.000Z</time>
      </trkpt>
      <trkpt lat="47.3462" lon="-1.43185">
        <ele>110</ele>
        <time>2021-08-22T10:59:11.000Z</time>
      </trkpt>
      <trkpt lat="47.34621" lon="-1.43205">
        <ele>110</ele>
        <time>2021-08-22T10:59:13.000Z</time>
      </trkpt>
      <trkpt lat="47.34622" lon="-1.43224">
        <ele>109</ele>
        <time>2021-08-22T10:59:15.000Z</time>
      </trkpt>
      <trkpt lat="47.34624" lon="-1.43243">
        <ele>109</ele>
        <time>2021-08-22T10:59:17.000Z</time>
      </trkpt>
      <trkpt lat="47.34626" lon="-1.43261">
        <ele>110</ele>
        <time>2021-08-22T10:59:19.000Z</time>
      </trkpt>
      <trkpt lat="47.34627" lon="-1.43281">
        <ele>110</ele>
        <time>2021-08-22T10:59:21.000Z</time>
      </trkpt>
      <trkpt lat="47.34628" lon="-1.433">
        <ele>110</ele>
        <time>2021-08-22T10:59:23.000Z</time>
      </trkpt>
      <trkpt lat="47.3463" lon="-1.43319">
        <ele>110</ele>
        <time>2021-08-22T10:59:25.000Z</time>
      </trkpt>
      <trkpt lat="47.34631" lon="-1.43339">
        <ele>110</ele>
        <time>2021-08-22T10:59:27.000Z</time>
      </trkpt>
      <trkpt lat="47.34632" lon="-1.43357">
        <ele>110</ele>
        <time>2021-08-22T10:59:29.000Z</time>
      </trkpt>
      <trkpt lat="47.34633" lon="-1.43377">
        <ele>110</ele>
        <time>2021-08-22T10:59:31.000Z</time>
      </trkpt>
      <trkpt lat="47.34635" lon="-1.43396">
        <ele>110</ele>
        <time>2021-08-22T10:59:33.000Z</time>
      </trkpt>
      <trkpt lat="47.34636" lon="-1.43415">
        <ele>110</ele>
        <time>2021-08-22T10:59:35.000Z</time>
      </trkpt>
      <trkpt lat="47.34637" lon="-1.43434">
        <ele>110</ele>
        <time>2021-08-22T10:59:37.000Z</time>
      </trkpt>
      <trkpt lat="47.34638" lon="-1.43451">
        <ele>110</ele>
        <time>2021-08-22T10:59:39.000Z</time>
      </trkpt>
      <trkpt lat="47.3464" lon="-1.43468">
        <ele>110</ele>
        <time>2021-08-22T10:59:41.000Z</time>
      </trkpt>
      <trkpt lat="47.34641" lon="-1.43484">
        <ele>110</ele>
        <time>2021-08-22T10:59:44.000Z</time>
      </trkpt>
      <trkpt lat="47.3464" lon="-1.43504">
        <ele>108</ele>
        <time>2021-08-22T10:59:47.000Z</time>
      </trkpt>
      <trkpt lat="47.34638" lon="-1.43517">
        <ele>108</ele>
        <time>2021-08-22T10:59:49.000Z</time>
      </trkpt>
      <trkpt lat="47.3464" lon="-1.43538">
        <ele>108</ele>
        <time>2021-08-22T10:59:52.000Z</time>
      </trkpt>
      <trkpt lat="47.3464" lon="-1.43556">
        <ele>108</ele>
        <time>2021-08-22T10:59:54.000Z</time>
      </trkpt>
      <trkpt lat="47.3464" lon="-1.43574">
        <ele>108</ele>
        <time>2021-08-22T10:59:56.000Z</time>
      </trkpt>
      <trkpt lat="47.34639" lon="-1.43594">
        <ele>108</ele>
        <time>2021-08-22T10:59:58.000Z</time>
      </trkpt>
      <trkpt lat="47.34639" lon="-1.43613">
        <ele>108</ele>
        <time>2021-08-22T11:00:00.000Z</time>
      </trkpt>
      <trkpt lat="47.34639" lon="-1.43633">
        <ele>107</ele>
        <time>2021-08-22T11:00:02.000Z</time>
      </trkpt>
      <trkpt lat="47.34638" lon="-1.43653">
        <ele>107</ele>
        <time>2021-08-22T11:00:04.000Z</time>
      </trkpt>
      <trkpt lat="47.34637" lon="-1.43673">
        <ele>107</ele>
        <time>2021-08-22T11:00:06.000Z</time>
      </trkpt>
      <trkpt lat="47.34635" lon="-1.43692">
        <ele>107</ele>
        <time>2021-08-22T11:00:08.000Z</time>
      </trkpt>
      <trkpt lat="47.34634" lon="-1.43711">
        <ele>107</ele>
        <time>2021-08-22T11:00:10.000Z</time>
      </trkpt>
      <trkpt lat="47.34632" lon="-1.43731">
        <ele>106</ele>
        <time>2021-08-22T11:00:12.000Z</time>
      </trkpt>
      <trkpt lat="47.3463" lon="-1.43751">
        <ele>106</ele>
        <time>2021-08-22T11:00:14.000Z</time>
      </trkpt>
      <trkpt lat="47.34627" lon="-1.43771">
        <ele>106</ele>
        <time>2021-08-22T11:00:16.000Z</time>
      </trkpt>
      <trkpt lat="47.34625" lon="-1.43791">
        <ele>106</ele>
        <time>2021-08-22T11:00:18.000Z</time>
      </trkpt>
      <trkpt lat="47.34622" lon="-1.4381">
        <ele>105</ele>
        <time>2021-08-22T11:00:20.000Z</time>
      </trkpt>
      <trkpt lat="47.34618" lon="-1.4383">
        <ele>104</ele>
        <time>2021-08-22T11:00:22.000Z</time>
      </trkpt>
      <trkpt lat="47.34615" lon="-1.4385">
        <ele>104</ele>
        <time>2021-08-22T11:00:24.000Z</time>
      </trkpt>
      <trkpt lat="47.34611" lon="-1.4387">
        <ele>104</ele>
        <time>2021-08-22T11:00:26.000Z</time>
      </trkpt>
      <trkpt lat="47.34608" lon="-1.43889">
        <ele>104</ele>
        <time>2021-08-22T11:00:28.000Z</time>
      </trkpt>
      <trkpt lat="47.34605" lon="-1.4391">
        <ele>104</ele>
        <time>2021-08-22T11:00:30.000Z</time>
      </trkpt>
      <trkpt lat="47.34601" lon="-1.4393">
        <ele>104</ele>
        <time>2021-08-22T11:00:32.000Z</time>
      </trkpt>
      <trkpt lat="47.34596" lon="-1.43951">
        <ele>103</ele>
        <time>2021-08-22T11:00:34.000Z</time>
      </trkpt>
      <trkpt lat="47.34591" lon="-1.43971">
        <ele>103</ele>
        <time>2021-08-22T11:00:36.000Z</time>
      </trkpt>
      <trkpt lat="47.34586" lon="-1.4399">
        <ele>102</ele>
        <time>2021-08-22T11:00:38.000Z</time>
      </trkpt>
      <trkpt lat="47.3458" lon="-1.44009">
        <ele>102</ele>
        <time>2021-08-22T11:00:40.000Z</time>
      </trkpt>
      <trkpt lat="47.34574" lon="-1.44029">
        <ele>102</ele>
        <time>2021-08-22T11:00:42.000Z</time>
      </trkpt>
      <trkpt lat="47.34568" lon="-1.44048">
        <ele>101</ele>
        <time>2021-08-22T11:00:44.000Z</time>
      </trkpt>
      <trkpt lat="47.34562" lon="-1.44067">
        <ele>101</ele>
        <time>2021-08-22T11:00:46.000Z</time>
      </trkpt>
      <trkpt lat="47.34556" lon="-1.44085">
        <ele>101</ele>
        <time>2021-08-22T11:00:48.000Z</time>
      </trkpt>
      <trkpt lat="47.34549" lon="-1.44105">
        <ele>100</ele>
        <time>2021-08-22T11:00:50.000Z</time>
      </trkpt>
      <trkpt lat="47.34543" lon="-1.44124">
        <ele>100</ele>
        <time>2021-08-22T11:00:52.000Z</time>
      </trkpt>
      <trkpt lat="47.34536" lon="-1.44142">
        <ele>100</ele>
        <time>2021-08-22T11:00:54.000Z</time>
      </trkpt>
      <trkpt lat="47.34529" lon="-1.4416">
        <ele>100</ele>
        <time>2021-08-22T11:00:56.000Z</time>
      </trkpt>
      <trkpt lat="47.34522" lon="-1.44179">
        <ele>100</ele>
        <time>2021-08-22T11:00:58.000Z</time>
      </trkpt>
      <trkpt lat="47.34513" lon="-1.44196">
        <ele>100</ele>
        <time>2021-08-22T11:01:00.000Z</time>
      </trkpt>
      <trkpt lat="47.34506" lon="-1.44214">
        <ele>99</ele>
        <time>2021-08-22T11:01:02.000Z</time>
      </trkpt>
      <trkpt lat="47.34497" lon="-1.44231">
        <ele>99</ele>
        <time>2021-08-22T11:01:04.000Z</time>
      </trkpt>
      <trkpt lat="47.34489" lon="-1.44249">
        <ele>98</ele>
        <time>2021-08-22T11:01:06.000Z</time>
      </trkpt>
      <trkpt lat="47.3448" lon="-1.44266">
        <ele>97</ele>
        <time>2021-08-22T11:01:08.000Z</time>
      </trkpt>
      <trkpt lat="47.34471" lon="-1.44282">
        <ele>96</ele>
        <time>2021-08-22T11:01:10.000Z</time>
      </trkpt>
      <trkpt lat="47.34463" lon="-1.44299">
        <ele>96</ele>
        <time>2021-08-22T11:01:12.000Z</time>
      </trkpt>
      <trkpt lat="47.34455" lon="-1.44315">
        <ele>97</ele>
        <time>2021-08-22T11:01:14.000Z</time>
      </trkpt>
      <trkpt lat="47.34446" lon="-1.44331">
        <ele>97</ele>
        <time>2021-08-22T11:01:16.000Z</time>
      </trkpt>
      <trkpt lat="47.34435" lon="-1.44347">
        <ele>97</ele>
        <time>2021-08-22T11:01:18.000Z</time>
      </trkpt>
      <trkpt lat="47.34425" lon="-1.44363">
        <ele>97</ele>
        <time>2021-08-22T11:01:20.000Z</time>
      </trkpt>
      <trkpt lat="47.34416" lon="-1.44379">
        <ele>97</ele>
        <time>2021-08-22T11:01:22.000Z</time>
      </trkpt>
      <trkpt lat="47.34406" lon="-1.44394">
        <ele>97</ele>
        <time>2021-08-22T11:01:24.000Z</time>
      </trkpt>
      <trkpt lat="47.34395" lon="-1.44408">
        <ele>97</ele>
        <time>2021-08-22T11:01:26.000Z</time>
      </trkpt>
      <trkpt lat="47.34385" lon="-1.44422">
        <ele>96</ele>
        <time>2021-08-22T11:01:28.000Z</time>
      </trkpt>
      <trkpt lat="47.34375" lon="-1.44437">
        <ele>96</ele>
        <time>2021-08-22T11:01:30.000Z</time>
      </trkpt>
      <trkpt lat="47.34364" lon="-1.44451">
        <ele>96</ele>
        <time>2021-08-22T11:01:32.000Z</time>
      </trkpt>
      <trkpt lat="47.34354" lon="-1.44465">
        <ele>96</ele>
        <time>2021-08-22T11:01:34.000Z</time>
      </trkpt>
      <trkpt lat="47.34343" lon="-1.44479">
        <ele>96</ele>
        <time>2021-08-22T11:01:36.000Z</time>
      </trkpt>
      <trkpt lat="47.34333" lon="-1.44493">
        <ele>96</ele>
        <time>2021-08-22T11:01:38.000Z</time>
      </trkpt>
      <trkpt lat="47.34323" lon="-1.44506">
        <ele>96</ele>
        <time>2021-08-22T11:01:40.000Z</time>
      </trkpt>
      <trkpt lat="47.34313" lon="-1.44519">
        <ele>96</ele>
        <time>2021-08-22T11:01:42.000Z</time>
      </trkpt>
      <trkpt lat="47.34303" lon="-1.44533">
        <ele>96</ele>
        <time>2021-08-22T11:01:44.000Z</time>
      </trkpt>
      <trkpt lat="47.34293" lon="-1.44547">
        <ele>95</ele>
        <time>2021-08-22T11:01:46.000Z</time>
      </trkpt>
      <trkpt lat="47.34283" lon="-1.44561">
        <ele>95</ele>
        <time>2021-08-22T11:01:48.000Z</time>
      </trkpt>
      <trkpt lat="47.34274" lon="-1.44574">
        <ele>95</ele>
        <time>2021-08-22T11:01:50.000Z</time>
      </trkpt>
      <trkpt lat="47.34264" lon="-1.44587">
        <ele>96</ele>
        <time>2021-08-22T11:01:52.000Z</time>
      </trkpt>
      <trkpt lat="47.34254" lon="-1.446">
        <ele>96</ele>
        <time>2021-08-22T11:01:54.000Z</time>
      </trkpt>
      <trkpt lat="47.34245" lon="-1.44614">
        <ele>96</ele>
        <time>2021-08-22T11:01:56.000Z</time>
      </trkpt>
      <trkpt lat="47.34235" lon="-1.44628">
        <ele>96</ele>
        <time>2021-08-22T11:01:58.000Z</time>
      </trkpt>
      <trkpt lat="47.34225" lon="-1.44642">
        <ele>96</ele>
        <time>2021-08-22T11:02:00.000Z</time>
      </trkpt>
      <trkpt lat="47.34215" lon="-1.44655">
        <ele>95</ele>
        <time>2021-08-22T11:02:02.000Z</time>
      </trkpt>
      <trkpt lat="47.34205" lon="-1.44668">
        <ele>96</ele>
        <time>2021-08-22T11:02:04.000Z</time>
      </trkpt>
      <trkpt lat="47.34195" lon="-1.44681">
        <ele>96</ele>
        <time>2021-08-22T11:02:06.000Z</time>
      </trkpt>
      <trkpt lat="47.34186" lon="-1.44694">
        <ele>96</ele>
        <time>2021-08-22T11:02:08.000Z</time>
      </trkpt>
      <trkpt lat="47.34177" lon="-1.44708">
        <ele>96</ele>
        <time>2021-08-22T11:02:10.000Z</time>
      </trkpt>
      <trkpt lat="47.34166" lon="-1.44722">
        <ele>96</ele>
        <time>2021-08-22T11:02:12.000Z</time>
      </trkpt>
      <trkpt lat="47.34151" lon="-1.44742">
        <ele>96</ele>
        <time>2021-08-22T11:02:15.000Z</time>
      </trkpt>
      <trkpt lat="47.34137" lon="-1.44764">
        <ele>97</ele>
        <time>2021-08-22T11:02:18.000Z</time>
      </trkpt>
      <trkpt lat="47.34127" lon="-1.44777">
        <ele>97</ele>
        <time>2021-08-22T11:02:20.000Z</time>
      </trkpt>
      <trkpt lat="47.34117" lon="-1.4479">
        <ele>98</ele>
        <time>2021-08-22T11:02:22.000Z</time>
      </trkpt>
      <trkpt lat="47.34106" lon="-1.44803">
        <ele>99</ele>
        <time>2021-08-22T11:02:24.000Z</time>
      </trkpt>
      <trkpt lat="47.34096" lon="-1.44816">
        <ele>99</ele>
        <time>2021-08-22T11:02:26.000Z</time>
      </trkpt>
      <trkpt lat="47.34082" lon="-1.44836">
        <ele>99</ele>
        <time>2021-08-22T11:02:29.000Z</time>
      </trkpt>
      <trkpt lat="47.34072" lon="-1.44849">
        <ele>100</ele>
        <time>2021-08-22T11:02:31.000Z</time>
      </trkpt>
      <trkpt lat="47.34058" lon="-1.44868">
        <ele>100</ele>
        <time>2021-08-22T11:02:34.000Z</time>
      </trkpt>
      <trkpt lat="47.34048" lon="-1.44882">
        <ele>101</ele>
        <time>2021-08-22T11:02:36.000Z</time>
      </trkpt>
      <trkpt lat="47.34038" lon="-1.44894">
        <ele>101</ele>
        <time>2021-08-22T11:02:38.000Z</time>
      </trkpt>
      <trkpt lat="47.34029" lon="-1.44907">
        <ele>101</ele>
        <time>2021-08-22T11:02:40.000Z</time>
      </trkpt>
      <trkpt lat="47.34019" lon="-1.4492">
        <ele>101</ele>
        <time>2021-08-22T11:02:42.000Z</time>
      </trkpt>
      <trkpt lat="47.34009" lon="-1.44934">
        <ele>101</ele>
        <time>2021-08-22T11:02:44.000Z</time>
      </trkpt>
      <trkpt lat="47.34" lon="-1.44947">
        <ele>101</ele>
        <time>2021-08-22T11:02:46.000Z</time>
      </trkpt>
      <trkpt lat="47.3399" lon="-1.44961">
        <ele>100</ele>
        <time>2021-08-22T11:02:48.000Z</time>
      </trkpt>
      <trkpt lat="47.33981" lon="-1.44974">
        <ele>100</ele>
        <time>2021-08-22T11:02:50.000Z</time>
      </trkpt>
      <trkpt lat="47.33971" lon="-1.44986">
        <ele>101</ele>
        <time>2021-08-22T11:02:52.000Z</time>
      </trkpt>
      <trkpt lat="47.33962" lon="-1.44999">
        <ele>101</ele>
        <time>2021-08-22T11:02:54.000Z</time>
      </trkpt>
      <trkpt lat="47.33952" lon="-1.45012">
        <ele>101</ele>
        <time>2021-08-22T11:02:56.000Z</time>
      </trkpt>
      <trkpt lat="47.33942" lon="-1.45025">
        <ele>101</ele>
        <time>2021-08-22T11:02:58.000Z</time>
      </trkpt>
      <trkpt lat="47.33933" lon="-1.45038">
        <ele>100</ele>
        <time>2021-08-22T11:03:00.000Z</time>
      </trkpt>
      <trkpt lat="47.33923" lon="-1.4505">
        <ele>100</ele>
        <time>2021-08-22T11:03:02.000Z</time>
      </trkpt>
      <trkpt lat="47.33915" lon="-1.45064">
        <ele>100</ele>
        <time>2021-08-22T11:03:04.000Z</time>
      </trkpt>
      <trkpt lat="47.33906" lon="-1.45076">
        <ele>101</ele>
        <time>2021-08-22T11:03:06.000Z</time>
      </trkpt>
      <trkpt lat="47.33897" lon="-1.45089">
        <ele>101</ele>
        <time>2021-08-22T11:03:08.000Z</time>
      </trkpt>
      <trkpt lat="47.33888" lon="-1.45101">
        <ele>101</ele>
        <time>2021-08-22T11:03:10.000Z</time>
      </trkpt>
      <trkpt lat="47.33879" lon="-1.45113">
        <ele>101</ele>
        <time>2021-08-22T11:03:12.000Z</time>
      </trkpt>
      <trkpt lat="47.3387" lon="-1.45125">
        <ele>101</ele>
        <time>2021-08-22T11:03:14.000Z</time>
      </trkpt>
      <trkpt lat="47.33861" lon="-1.45135">
        <ele>101</ele>
        <time>2021-08-22T11:03:16.000Z</time>
      </trkpt>
      <trkpt lat="47.33854" lon="-1.45145">
        <ele>101</ele>
        <time>2021-08-22T11:03:18.000Z</time>
      </trkpt>
      <trkpt lat="47.33846" lon="-1.45155">
        <ele>101</ele>
        <time>2021-08-22T11:03:20.000Z</time>
      </trkpt>
      <trkpt lat="47.33837" lon="-1.45166">
        <ele>101</ele>
        <time>2021-08-22T11:03:23.000Z</time>
      </trkpt>
      <trkpt lat="47.3383" lon="-1.45179">
        <ele>102</ele>
        <time>2021-08-22T11:03:26.000Z</time>
      </trkpt>
      <trkpt lat="47.3382" lon="-1.45189">
        <ele>102</ele>
        <time>2021-08-22T11:03:29.000Z</time>
      </trkpt>
      <trkpt lat="47.33813" lon="-1.45202">
        <ele>102</ele>
        <time>2021-08-22T11:03:32.000Z</time>
      </trkpt>
      <trkpt lat="47.33805" lon="-1.45211">
        <ele>102</ele>
        <time>2021-08-22T11:03:34.000Z</time>
      </trkpt>
      <trkpt lat="47.33796" lon="-1.45222">
        <ele>103</ele>
        <time>2021-08-22T11:03:36.000Z</time>
      </trkpt>
      <trkpt lat="47.33787" lon="-1.45233">
        <ele>103</ele>
        <time>2021-08-22T11:03:38.000Z</time>
      </trkpt>
      <trkpt lat="47.33779" lon="-1.45246">
        <ele>103</ele>
        <time>2021-08-22T11:03:40.000Z</time>
      </trkpt>
      <trkpt lat="47.3377" lon="-1.45258">
        <ele>103</ele>
        <time>2021-08-22T11:03:42.000Z</time>
      </trkpt>
      <trkpt lat="47.33761" lon="-1.45271">
        <ele>102</ele>
        <time>2021-08-22T11:03:44.000Z</time>
      </trkpt>
      <trkpt lat="47.33752" lon="-1.45284">
        <ele>102</ele>
        <time>2021-08-22T11:03:46.000Z</time>
      </trkpt>
      <trkpt lat="47.33744" lon="-1.45296">
        <ele>102</ele>
        <time>2021-08-22T11:03:48.000Z</time>
      </trkpt>
      <trkpt lat="47.33735" lon="-1.45309">
        <ele>102</ele>
        <time>2021-08-22T11:03:50.000Z</time>
      </trkpt>
      <trkpt lat="47.33727" lon="-1.45321">
        <ele>102</ele>
        <time>2021-08-22T11:03:52.000Z</time>
      </trkpt>
      <trkpt lat="47.33718" lon="-1.45334">
        <ele>102</ele>
        <time>2021-08-22T11:03:54.000Z</time>
      </trkpt>
      <trkpt lat="47.33708" lon="-1.45345">
        <ele>102</ele>
        <time>2021-08-22T11:03:56.000Z</time>
      </trkpt>
      <trkpt lat="47.33699" lon="-1.45357">
        <ele>102</ele>
        <time>2021-08-22T11:03:58.000Z</time>
      </trkpt>
      <trkpt lat="47.33689" lon="-1.45369">
        <ele>103</ele>
        <time>2021-08-22T11:04:00.000Z</time>
      </trkpt>
      <trkpt lat="47.3368" lon="-1.45382">
        <ele>103</ele>
        <time>2021-08-22T11:04:02.000Z</time>
      </trkpt>
      <trkpt lat="47.33671" lon="-1.45394">
        <ele>103</ele>
        <time>2021-08-22T11:04:04.000Z</time>
      </trkpt>
      <trkpt lat="47.33662" lon="-1.45407">
        <ele>104</ele>
        <time>2021-08-22T11:04:06.000Z</time>
      </trkpt>
      <trkpt lat="47.33652" lon="-1.45421">
        <ele>104</ele>
        <time>2021-08-22T11:04:08.000Z</time>
      </trkpt>
      <trkpt lat="47.33643" lon="-1.45434">
        <ele>104</ele>
        <time>2021-08-22T11:04:10.000Z</time>
      </trkpt>
      <trkpt lat="47.33634" lon="-1.45447">
        <ele>103</ele>
        <time>2021-08-22T11:04:12.000Z</time>
      </trkpt>
      <trkpt lat="47.33624" lon="-1.45461">
        <ele>103</ele>
        <time>2021-08-22T11:04:14.000Z</time>
      </trkpt>
      <trkpt lat="47.33615" lon="-1.45475">
        <ele>102</ele>
        <time>2021-08-22T11:04:16.000Z</time>
      </trkpt>
      <trkpt lat="47.33605" lon="-1.45487">
        <ele>102</ele>
        <time>2021-08-22T11:04:18.000Z</time>
      </trkpt>
      <trkpt lat="47.33595" lon="-1.455">
        <ele>102</ele>
        <time>2021-08-22T11:04:20.000Z</time>
      </trkpt>
      <trkpt lat="47.33586" lon="-1.45514">
        <ele>102</ele>
        <time>2021-08-22T11:04:22.000Z</time>
      </trkpt>
      <trkpt lat="47.33576" lon="-1.45527">
        <ele>102</ele>
        <time>2021-08-22T11:04:24.000Z</time>
      </trkpt>
      <trkpt lat="47.33566" lon="-1.45541">
        <ele>102</ele>
        <time>2021-08-22T11:04:26.000Z</time>
      </trkpt>
      <trkpt lat="47.33556" lon="-1.45554">
        <ele>102</ele>
        <time>2021-08-22T11:04:28.000Z</time>
      </trkpt>
      <trkpt lat="47.33546" lon="-1.45568">
        <ele>102</ele>
        <time>2021-08-22T11:04:30.000Z</time>
      </trkpt>
      <trkpt lat="47.33536" lon="-1.45581">
        <ele>102</ele>
        <time>2021-08-22T11:04:32.000Z</time>
      </trkpt>
      <trkpt lat="47.33526" lon="-1.45594">
        <ele>101</ele>
        <time>2021-08-22T11:04:34.000Z</time>
      </trkpt>
      <trkpt lat="47.33516" lon="-1.45607">
        <ele>101</ele>
        <time>2021-08-22T11:04:36.000Z</time>
      </trkpt>
      <trkpt lat="47.33506" lon="-1.45621">
        <ele>101</ele>
        <time>2021-08-22T11:04:38.000Z</time>
      </trkpt>
      <trkpt lat="47.33495" lon="-1.45637">
        <ele>100</ele>
        <time>2021-08-22T11:04:40.000Z</time>
      </trkpt>
      <trkpt lat="47.33486" lon="-1.45652">
        <ele>99</ele>
        <time>2021-08-22T11:04:42.000Z</time>
      </trkpt>
      <trkpt lat="47.33476" lon="-1.45665">
        <ele>99</ele>
        <time>2021-08-22T11:04:44.000Z</time>
      </trkpt>
      <trkpt lat="47.33465" lon="-1.45679">
        <ele>99</ele>
        <time>2021-08-22T11:04:46.000Z</time>
      </trkpt>
      <trkpt lat="47.33455" lon="-1.45693">
        <ele>99</ele>
        <time>2021-08-22T11:04:48.000Z</time>
      </trkpt>
      <trkpt lat="47.33444" lon="-1.45707">
        <ele>99</ele>
        <time>2021-08-22T11:04:50.000Z</time>
      </trkpt>
      <trkpt lat="47.33434" lon="-1.4572">
        <ele>98</ele>
        <time>2021-08-22T11:04:52.000Z</time>
      </trkpt>
      <trkpt lat="47.33422" lon="-1.45733">
        <ele>98</ele>
        <time>2021-08-22T11:04:54.000Z</time>
      </trkpt>
      <trkpt lat="47.33411" lon="-1.45745">
        <ele>98</ele>
        <time>2021-08-22T11:04:56.000Z</time>
      </trkpt>
      <trkpt lat="47.334" lon="-1.45757">
        <ele>98</ele>
        <time>2021-08-22T11:04:58.000Z</time>
      </trkpt>
      <trkpt lat="47.33388" lon="-1.45769">
        <ele>98</ele>
        <time>2021-08-22T11:05:00.000Z</time>
      </trkpt>
      <trkpt lat="47.33377" lon="-1.45781">
        <ele>98</ele>
        <time>2021-08-22T11:05:02.000Z</time>
      </trkpt>
      <trkpt lat="47.33366" lon="-1.45793">
        <ele>99</ele>
        <time>2021-08-22T11:05:04.000Z</time>
      </trkpt>
      <trkpt lat="47.33353" lon="-1.45805">
        <ele>99</ele>
        <time>2021-08-22T11:05:06.000Z</time>
      </trkpt>
      <trkpt lat="47.33341" lon="-1.45816">
        <ele>99</ele>
        <time>2021-08-22T11:05:08.000Z</time>
      </trkpt>
      <trkpt lat="47.33329" lon="-1.45827">
        <ele>99</ele>
        <time>2021-08-22T11:05:10.000Z</time>
      </trkpt>
      <trkpt lat="47.33316" lon="-1.45838">
        <ele>99</ele>
        <time>2021-08-22T11:05:12.000Z</time>
      </trkpt>
      <trkpt lat="47.33304" lon="-1.45848">
        <ele>99</ele>
        <time>2021-08-22T11:05:14.000Z</time>
      </trkpt>
      <trkpt lat="47.33291" lon="-1.45858">
        <ele>97</ele>
        <time>2021-08-22T11:05:16.000Z</time>
      </trkpt>
      <trkpt lat="47.33279" lon="-1.45867">
        <ele>96</ele>
        <time>2021-08-22T11:05:18.000Z</time>
      </trkpt>
      <trkpt lat="47.33266" lon="-1.45876">
        <ele>96</ele>
        <time>2021-08-22T11:05:20.000Z</time>
      </trkpt>
      <trkpt lat="47.33253" lon="-1.45885">
        <ele>95</ele>
        <time>2021-08-22T11:05:22.000Z</time>
      </trkpt>
      <trkpt lat="47.33241" lon="-1.45894">
        <ele>95</ele>
        <time>2021-08-22T11:05:24.000Z</time>
      </trkpt>
      <trkpt lat="47.33228" lon="-1.45903">
        <ele>95</ele>
        <time>2021-08-22T11:05:26.000Z</time>
      </trkpt>
      <trkpt lat="47.33215" lon="-1.4591">
        <ele>95</ele>
        <time>2021-08-22T11:05:28.000Z</time>
      </trkpt>
      <trkpt lat="47.33202" lon="-1.45919">
        <ele>94</ele>
        <time>2021-08-22T11:05:30.000Z</time>
      </trkpt>
      <trkpt lat="47.33189" lon="-1.45926">
        <ele>94</ele>
        <time>2021-08-22T11:05:32.000Z</time>
      </trkpt>
      <trkpt lat="47.33176" lon="-1.45934">
        <ele>94</ele>
        <time>2021-08-22T11:05:34.000Z</time>
      </trkpt>
      <trkpt lat="47.33163" lon="-1.45941">
        <ele>93</ele>
        <time>2021-08-22T11:05:36.000Z</time>
      </trkpt>
      <trkpt lat="47.33147" lon="-1.45948">
        <ele>94</ele>
        <time>2021-08-22T11:05:38.000Z</time>
      </trkpt>
      <trkpt lat="47.33133" lon="-1.45955">
        <ele>93</ele>
        <time>2021-08-22T11:05:40.000Z</time>
      </trkpt>
      <trkpt lat="47.33118" lon="-1.45961">
        <ele>94</ele>
        <time>2021-08-22T11:05:42.000Z</time>
      </trkpt>
      <trkpt lat="47.33105" lon="-1.45967">
        <ele>94</ele>
        <time>2021-08-22T11:05:44.000Z</time>
      </trkpt>
      <trkpt lat="47.33091" lon="-1.45973">
        <ele>94</ele>
        <time>2021-08-22T11:05:46.000Z</time>
      </trkpt>
      <trkpt lat="47.33079" lon="-1.45979">
        <ele>94</ele>
        <time>2021-08-22T11:05:48.000Z</time>
      </trkpt>
      <trkpt lat="47.33067" lon="-1.45983">
        <ele>94</ele>
        <time>2021-08-22T11:05:50.000Z</time>
      </trkpt>
      <trkpt lat="47.33056" lon="-1.45989">
        <ele>93</ele>
        <time>2021-08-22T11:05:52.000Z</time>
      </trkpt>
      <trkpt lat="47.33046" lon="-1.45992">
        <ele>93</ele>
        <time>2021-08-22T11:05:54.000Z</time>
      </trkpt>
      <trkpt lat="47.33036" lon="-1.45994">
        <ele>93</ele>
        <time>2021-08-22T11:05:57.000Z</time>
      </trkpt>
      <trkpt lat="47.33026" lon="-1.45997">
        <ele>93</ele>
        <time>2021-08-22T11:06:00.000Z</time>
      </trkpt>
      <trkpt lat="47.33018" lon="-1.46002">
        <ele>93</ele>
        <time>2021-08-22T11:06:03.000Z</time>
      </trkpt>
      <trkpt lat="47.33005" lon="-1.4601">
        <ele>92</ele>
        <time>2021-08-22T11:06:06.000Z</time>
      </trkpt>
      <trkpt lat="47.32991" lon="-1.46016">
        <ele>92</ele>
        <time>2021-08-22T11:06:08.000Z</time>
      </trkpt>
      <trkpt lat="47.32976" lon="-1.46023">
        <ele>92</ele>
        <time>2021-08-22T11:06:10.000Z</time>
      </trkpt>
      <trkpt lat="47.32961" lon="-1.46029">
        <ele>93</ele>
        <time>2021-08-22T11:06:12.000Z</time>
      </trkpt>
      <trkpt lat="47.32946" lon="-1.46034">
        <ele>93</ele>
        <time>2021-08-22T11:06:14.000Z</time>
      </trkpt>
      <trkpt lat="47.32932" lon="-1.46039">
        <ele>92</ele>
        <time>2021-08-22T11:06:16.000Z</time>
      </trkpt>
      <trkpt lat="47.32918" lon="-1.46043">
        <ele>92</ele>
        <time>2021-08-22T11:06:18.000Z</time>
      </trkpt>
      <trkpt lat="47.32905" lon="-1.46048">
        <ele>92</ele>
        <time>2021-08-22T11:06:20.000Z</time>
      </trkpt>
      <trkpt lat="47.32893" lon="-1.46052">
        <ele>92</ele>
        <time>2021-08-22T11:06:22.000Z</time>
      </trkpt>
      <trkpt lat="47.32881" lon="-1.46057">
        <ele>92</ele>
        <time>2021-08-22T11:06:24.000Z</time>
      </trkpt>
      <trkpt lat="47.32868" lon="-1.46062">
        <ele>91</ele>
        <time>2021-08-22T11:06:26.000Z</time>
      </trkpt>
      <trkpt lat="47.32855" lon="-1.46067">
        <ele>91</ele>
        <time>2021-08-22T11:06:28.000Z</time>
      </trkpt>
      <trkpt lat="47.32842" lon="-1.46073">
        <ele>90</ele>
        <time>2021-08-22T11:06:30.000Z</time>
      </trkpt>
      <trkpt lat="47.32829" lon="-1.46077">
        <ele>89</ele>
        <time>2021-08-22T11:06:32.000Z</time>
      </trkpt>
      <trkpt lat="47.32817" lon="-1.46082">
        <ele>90</ele>
        <time>2021-08-22T11:06:34.000Z</time>
      </trkpt>
      <trkpt lat="47.32804" lon="-1.46089">
        <ele>89</ele>
        <time>2021-08-22T11:06:36.000Z</time>
      </trkpt>
      <trkpt lat="47.32793" lon="-1.46094">
        <ele>88</ele>
        <time>2021-08-22T11:06:38.000Z</time>
      </trkpt>
      <trkpt lat="47.32783" lon="-1.46098">
        <ele>88</ele>
        <time>2021-08-22T11:06:40.000Z</time>
      </trkpt>
      <trkpt lat="47.32774" lon="-1.46097">
        <ele>87</ele>
        <time>2021-08-22T11:07:16.000Z</time>
      </trkpt>
      <trkpt lat="47.32764" lon="-1.46105">
        <ele>87</ele>
        <time>2021-08-22T11:07:26.000Z</time>
      </trkpt>
      <trkpt lat="47.32753" lon="-1.46111">
        <ele>86</ele>
        <time>2021-08-22T11:07:29.000Z</time>
      </trkpt>
      <trkpt lat="47.32739" lon="-1.46113">
        <ele>85</ele>
        <time>2021-08-22T11:07:32.000Z</time>
      </trkpt>
      <trkpt lat="47.32727" lon="-1.46117">
        <ele>86</ele>
        <time>2021-08-22T11:07:34.000Z</time>
      </trkpt>
      <trkpt lat="47.32715" lon="-1.46124">
        <ele>85</ele>
        <time>2021-08-22T11:07:36.000Z</time>
      </trkpt>
      <trkpt lat="47.32703" lon="-1.46129">
        <ele>86</ele>
        <time>2021-08-22T11:07:38.000Z</time>
      </trkpt>
      <trkpt lat="47.3269" lon="-1.46136">
        <ele>86</ele>
        <time>2021-08-22T11:07:40.000Z</time>
      </trkpt>
      <trkpt lat="47.32677" lon="-1.46142">
        <ele>86</ele>
        <time>2021-08-22T11:07:42.000Z</time>
      </trkpt>
      <trkpt lat="47.32664" lon="-1.46146">
        <ele>86</ele>
        <time>2021-08-22T11:07:44.000Z</time>
      </trkpt>
      <trkpt lat="47.32651" lon="-1.46152">
        <ele>86</ele>
        <time>2021-08-22T11:07:46.000Z</time>
      </trkpt>
      <trkpt lat="47.32636" lon="-1.46157">
        <ele>85</ele>
        <time>2021-08-22T11:07:48.000Z</time>
      </trkpt>
      <trkpt lat="47.32622" lon="-1.46162">
        <ele>85</ele>
        <time>2021-08-22T11:07:50.000Z</time>
      </trkpt>
      <trkpt lat="47.32608" lon="-1.46166">
        <ele>84</ele>
        <time>2021-08-22T11:07:52.000Z</time>
      </trkpt>
      <trkpt lat="47.32594" lon="-1.4617">
        <ele>84</ele>
        <time>2021-08-22T11:07:54.000Z</time>
      </trkpt>
      <trkpt lat="47.3258" lon="-1.46173">
        <ele>84</ele>
        <time>2021-08-22T11:07:56.000Z</time>
      </trkpt>
      <trkpt lat="47.32565" lon="-1.46177">
        <ele>84</ele>
        <time>2021-08-22T11:07:58.000Z</time>
      </trkpt>
      <trkpt lat="47.32551" lon="-1.46181">
        <ele>84</ele>
        <time>2021-08-22T11:08:00.000Z</time>
      </trkpt>
      <trkpt lat="47.32536" lon="-1.46185">
        <ele>84</ele>
        <time>2021-08-22T11:08:02.000Z</time>
      </trkpt>
      <trkpt lat="47.32522" lon="-1.46187">
        <ele>85</ele>
        <time>2021-08-22T11:08:04.000Z</time>
      </trkpt>
      <trkpt lat="47.32507" lon="-1.4619">
        <ele>85</ele>
        <time>2021-08-22T11:08:06.000Z</time>
      </trkpt>
      <trkpt lat="47.32493" lon="-1.46193">
        <ele>85</ele>
        <time>2021-08-22T11:08:08.000Z</time>
      </trkpt>
      <trkpt lat="47.32477" lon="-1.46194">
        <ele>85</ele>
        <time>2021-08-22T11:08:10.000Z</time>
      </trkpt>
      <trkpt lat="47.32462" lon="-1.46196">
        <ele>85</ele>
        <time>2021-08-22T11:08:12.000Z</time>
      </trkpt>
      <trkpt lat="47.32447" lon="-1.46197">
        <ele>85</ele>
        <time>2021-08-22T11:08:14.000Z</time>
      </trkpt>
      <trkpt lat="47.32431" lon="-1.46197">
        <ele>84</ele>
        <time>2021-08-22T11:08:16.000Z</time>
      </trkpt>
      <trkpt lat="47.32416" lon="-1.46196">
        <ele>84</ele>
        <time>2021-08-22T11:08:18.000Z</time>
      </trkpt>
      <trkpt lat="47.32401" lon="-1.46195">
        <ele>84</ele>
        <time>2021-08-22T11:08:20.000Z</time>
      </trkpt>
      <trkpt lat="47.32386" lon="-1.46194">
        <ele>84</ele>
        <time>2021-08-22T11:08:22.000Z</time>
      </trkpt>
      <trkpt lat="47.32372" lon="-1.46193">
        <ele>84</ele>
        <time>2021-08-22T11:08:24.000Z</time>
      </trkpt>
      <trkpt lat="47.32357" lon="-1.46191">
        <ele>83</ele>
        <time>2021-08-22T11:08:26.000Z</time>
      </trkpt>
      <trkpt lat="47.32342" lon="-1.46188">
        <ele>83</ele>
        <time>2021-08-22T11:08:28.000Z</time>
      </trkpt>
      <trkpt lat="47.32327" lon="-1.46187">
        <ele>82</ele>
        <time>2021-08-22T11:08:30.000Z</time>
      </trkpt>
      <trkpt lat="47.32312" lon="-1.46185">
        <ele>82</ele>
        <time>2021-08-22T11:08:32.000Z</time>
      </trkpt>
      <trkpt lat="47.32297" lon="-1.46183">
        <ele>82</ele>
        <time>2021-08-22T11:08:34.000Z</time>
      </trkpt>
      <trkpt lat="47.32282" lon="-1.46181">
        <ele>82</ele>
        <time>2021-08-22T11:08:36.000Z</time>
      </trkpt>
      <trkpt lat="47.32267" lon="-1.4618">
        <ele>82</ele>
        <time>2021-08-22T11:08:38.000Z</time>
      </trkpt>
      <trkpt lat="47.32252" lon="-1.46177">
        <ele>82</ele>
        <time>2021-08-22T11:08:40.000Z</time>
      </trkpt>
      <trkpt lat="47.32237" lon="-1.46175">
        <ele>81</ele>
        <time>2021-08-22T11:08:42.000Z</time>
      </trkpt>
      <trkpt lat="47.32222" lon="-1.46174">
        <ele>81</ele>
        <time>2021-08-22T11:08:44.000Z</time>
      </trkpt>
      <trkpt lat="47.32207" lon="-1.46173">
        <ele>81</ele>
        <time>2021-08-22T11:08:46.000Z</time>
      </trkpt>
      <trkpt lat="47.32192" lon="-1.46172">
        <ele>81</ele>
        <time>2021-08-22T11:08:48.000Z</time>
      </trkpt>
      <trkpt lat="47.32177" lon="-1.46171">
        <ele>82</ele>
        <time>2021-08-22T11:08:50.000Z</time>
      </trkpt>
      <trkpt lat="47.32162" lon="-1.46168">
        <ele>82</ele>
        <time>2021-08-22T11:08:52.000Z</time>
      </trkpt>
      <trkpt lat="47.32147" lon="-1.46166">
        <ele>82</ele>
        <time>2021-08-22T11:08:54.000Z</time>
      </trkpt>
      <trkpt lat="47.32132" lon="-1.46163">
        <ele>81</ele>
        <time>2021-08-22T11:08:56.000Z</time>
      </trkpt>
      <trkpt lat="47.32117" lon="-1.4616">
        <ele>81</ele>
        <time>2021-08-22T11:08:58.000Z</time>
      </trkpt>
      <trkpt lat="47.32102" lon="-1.46157">
        <ele>81</ele>
        <time>2021-08-22T11:09:00.000Z</time>
      </trkpt>
      <trkpt lat="47.32088" lon="-1.46156">
        <ele>81</ele>
        <time>2021-08-22T11:09:02.000Z</time>
      </trkpt>
      <trkpt lat="47.32073" lon="-1.46154">
        <ele>81</ele>
        <time>2021-08-22T11:09:04.000Z</time>
      </trkpt>
      <trkpt lat="47.32059" lon="-1.46154">
        <ele>82</ele>
        <time>2021-08-22T11:09:06.000Z</time>
      </trkpt>
      <trkpt lat="47.32044" lon="-1.46154">
        <ele>81</ele>
        <time>2021-08-22T11:09:08.000Z</time>
      </trkpt>
      <trkpt lat="47.3203" lon="-1.46156">
        <ele>81</ele>
        <time>2021-08-22T11:09:10.000Z</time>
      </trkpt>
      <trkpt lat="47.32015" lon="-1.46157">
        <ele>81</ele>
        <time>2021-08-22T11:09:12.000Z</time>
      </trkpt>
      <trkpt lat="47.32001" lon="-1.46158">
        <ele>81</ele>
        <time>2021-08-22T11:09:14.000Z</time>
      </trkpt>
      <trkpt lat="47.31988" lon="-1.46161">
        <ele>81</ele>
        <time>2021-08-22T11:09:16.000Z</time>
      </trkpt>
      <trkpt lat="47.31976" lon="-1.46162">
        <ele>81</ele>
        <time>2021-08-22T11:09:18.000Z</time>
      </trkpt>
      <trkpt lat="47.31965" lon="-1.46162">
        <ele>80</ele>
        <time>2021-08-22T11:09:21.000Z</time>
      </trkpt>
      <trkpt lat="47.31954" lon="-1.46168">
        <ele>79</ele>
        <time>2021-08-22T11:09:24.000Z</time>
      </trkpt>
      <trkpt lat="47.31943" lon="-1.46172">
        <ele>78</ele>
        <time>2021-08-22T11:09:26.000Z</time>
      </trkpt>
      <trkpt lat="47.31931" lon="-1.46175">
        <ele>78</ele>
        <time>2021-08-22T11:09:28.000Z</time>
      </trkpt>
      <trkpt lat="47.31922" lon="-1.46175">
        <ele>77</ele>
        <time>2021-08-22T11:09:30.000Z</time>
      </trkpt>
      <trkpt lat="47.31914" lon="-1.46181">
        <ele>77</ele>
        <time>2021-08-22T11:09:32.000Z</time>
      </trkpt>
      <trkpt lat="47.31902" lon="-1.46185">
        <ele>77</ele>
        <time>2021-08-22T11:09:34.000Z</time>
      </trkpt>
      <trkpt lat="47.3189" lon="-1.4619">
        <ele>77</ele>
        <time>2021-08-22T11:09:36.000Z</time>
      </trkpt>
      <trkpt lat="47.31878" lon="-1.46195">
        <ele>76</ele>
        <time>2021-08-22T11:09:38.000Z</time>
      </trkpt>
      <trkpt lat="47.31865" lon="-1.46201">
        <ele>76</ele>
        <time>2021-08-22T11:09:40.000Z</time>
      </trkpt>
      <trkpt lat="47.31851" lon="-1.46208">
        <ele>76</ele>
        <time>2021-08-22T11:09:42.000Z</time>
      </trkpt>
      <trkpt lat="47.31837" lon="-1.46215">
        <ele>76</ele>
        <time>2021-08-22T11:09:44.000Z</time>
      </trkpt>
      <trkpt lat="47.31824" lon="-1.46222">
        <ele>75</ele>
        <time>2021-08-22T11:09:46.000Z</time>
      </trkpt>
      <trkpt lat="47.31811" lon="-1.4623">
        <ele>75</ele>
        <time>2021-08-22T11:09:48.000Z</time>
      </trkpt>
      <trkpt lat="47.31798" lon="-1.46238">
        <ele>75</ele>
        <time>2021-08-22T11:09:50.000Z</time>
      </trkpt>
      <trkpt lat="47.31786" lon="-1.46247">
        <ele>75</ele>
        <time>2021-08-22T11:09:52.000Z</time>
      </trkpt>
      <trkpt lat="47.31773" lon="-1.46257">
        <ele>75</ele>
        <time>2021-08-22T11:09:54.000Z</time>
      </trkpt>
      <trkpt lat="47.31759" lon="-1.46266">
        <ele>75</ele>
        <time>2021-08-22T11:09:56.000Z</time>
      </trkpt>
      <trkpt lat="47.31746" lon="-1.46275">
        <ele>75</ele>
        <time>2021-08-22T11:09:58.000Z</time>
      </trkpt>
      <trkpt lat="47.31734" lon="-1.46285">
        <ele>75</ele>
        <time>2021-08-22T11:10:00.000Z</time>
      </trkpt>
      <trkpt lat="47.31722" lon="-1.46297">
        <ele>75</ele>
        <time>2021-08-22T11:10:02.000Z</time>
      </trkpt>
      <trkpt lat="47.3171" lon="-1.4631">
        <ele>75</ele>
        <time>2021-08-22T11:10:04.000Z</time>
      </trkpt>
      <trkpt lat="47.31698" lon="-1.46323">
        <ele>75</ele>
        <time>2021-08-22T11:10:06.000Z</time>
      </trkpt>
      <trkpt lat="47.31686" lon="-1.46335">
        <ele>75</ele>
        <time>2021-08-22T11:10:08.000Z</time>
      </trkpt>
      <trkpt lat="47.31674" lon="-1.46346">
        <ele>74</ele>
        <time>2021-08-22T11:10:10.000Z</time>
      </trkpt>
      <trkpt lat="47.31662" lon="-1.46359">
        <ele>74</ele>
        <time>2021-08-22T11:10:12.000Z</time>
      </trkpt>
      <trkpt lat="47.31651" lon="-1.46373">
        <ele>75</ele>
        <time>2021-08-22T11:10:14.000Z</time>
      </trkpt>
      <trkpt lat="47.3164" lon="-1.46387">
        <ele>74</ele>
        <time>2021-08-22T11:10:16.000Z</time>
      </trkpt>
      <trkpt lat="47.31629" lon="-1.46402">
        <ele>74</ele>
        <time>2021-08-22T11:10:18.000Z</time>
      </trkpt>
      <trkpt lat="47.31619" lon="-1.46418">
        <ele>74</ele>
        <time>2021-08-22T11:10:20.000Z</time>
      </trkpt>
      <trkpt lat="47.31609" lon="-1.46433">
        <ele>74</ele>
        <time>2021-08-22T11:10:22.000Z</time>
      </trkpt>
      <trkpt lat="47.31599" lon="-1.46448">
        <ele>73</ele>
        <time>2021-08-22T11:10:24.000Z</time>
      </trkpt>
      <trkpt lat="47.31589" lon="-1.46464">
        <ele>74</ele>
        <time>2021-08-22T11:10:26.000Z</time>
      </trkpt>
      <trkpt lat="47.31579" lon="-1.4648">
        <ele>74</ele>
        <time>2021-08-22T11:10:28.000Z</time>
      </trkpt>
      <trkpt lat="47.31569" lon="-1.46496">
        <ele>74</ele>
        <time>2021-08-22T11:10:30.000Z</time>
      </trkpt>
      <trkpt lat="47.3156" lon="-1.46512">
        <ele>74</ele>
        <time>2021-08-22T11:10:32.000Z</time>
      </trkpt>
      <trkpt lat="47.31551" lon="-1.46529">
        <ele>73</ele>
        <time>2021-08-22T11:10:34.000Z</time>
      </trkpt>
      <trkpt lat="47.31541" lon="-1.46545">
        <ele>73</ele>
        <time>2021-08-22T11:10:36.000Z</time>
      </trkpt>
      <trkpt lat="47.31531" lon="-1.46561">
        <ele>72</ele>
        <time>2021-08-22T11:10:38.000Z</time>
      </trkpt>
      <trkpt lat="47.3152" lon="-1.46577">
        <ele>71</ele>
        <time>2021-08-22T11:10:40.000Z</time>
      </trkpt>
      <trkpt lat="47.31511" lon="-1.46594">
        <ele>71</ele>
        <time>2021-08-22T11:10:42.000Z</time>
      </trkpt>
      <trkpt lat="47.31502" lon="-1.4661">
        <ele>71</ele>
        <time>2021-08-22T11:10:44.000Z</time>
      </trkpt>
      <trkpt lat="47.31493" lon="-1.46626">
        <ele>71</ele>
        <time>2021-08-22T11:10:46.000Z</time>
      </trkpt>
      <trkpt lat="47.31484" lon="-1.46642">
        <ele>71</ele>
        <time>2021-08-22T11:10:48.000Z</time>
      </trkpt>
      <trkpt lat="47.31474" lon="-1.46657">
        <ele>71</ele>
        <time>2021-08-22T11:10:50.000Z</time>
      </trkpt>
      <trkpt lat="47.31465" lon="-1.46673">
        <ele>71</ele>
        <time>2021-08-22T11:10:52.000Z</time>
      </trkpt>
      <trkpt lat="47.31455" lon="-1.46689">
        <ele>71</ele>
        <time>2021-08-22T11:10:54.000Z</time>
      </trkpt>
      <trkpt lat="47.31445" lon="-1.46704">
        <ele>71</ele>
        <time>2021-08-22T11:10:56.000Z</time>
      </trkpt>
      <trkpt lat="47.31437" lon="-1.46718">
        <ele>71</ele>
        <time>2021-08-22T11:10:58.000Z</time>
      </trkpt>
      <trkpt lat="47.31427" lon="-1.46732">
        <ele>71</ele>
        <time>2021-08-22T11:11:00.000Z</time>
      </trkpt>
      <trkpt lat="47.31418" lon="-1.46747">
        <ele>72</ele>
        <time>2021-08-22T11:11:02.000Z</time>
      </trkpt>
      <trkpt lat="47.31408" lon="-1.46762">
        <ele>73</ele>
        <time>2021-08-22T11:11:04.000Z</time>
      </trkpt>
      <trkpt lat="47.31399" lon="-1.46778">
        <ele>74</ele>
        <time>2021-08-22T11:11:06.000Z</time>
      </trkpt>
      <trkpt lat="47.3139" lon="-1.46796">
        <ele>73</ele>
        <time>2021-08-22T11:11:08.000Z</time>
      </trkpt>
      <trkpt lat="47.31381" lon="-1.46813">
        <ele>72</ele>
        <time>2021-08-22T11:11:10.000Z</time>
      </trkpt>
      <trkpt lat="47.31371" lon="-1.46828">
        <ele>72</ele>
        <time>2021-08-22T11:11:12.000Z</time>
      </trkpt>
      <trkpt lat="47.31361" lon="-1.46843">
        <ele>71</ele>
        <time>2021-08-22T11:11:14.000Z</time>
      </trkpt>
      <trkpt lat="47.31351" lon="-1.46859">
        <ele>72</ele>
        <time>2021-08-22T11:11:16.000Z</time>
      </trkpt>
      <trkpt lat="47.31341" lon="-1.46875">
        <ele>71</ele>
        <time>2021-08-22T11:11:18.000Z</time>
      </trkpt>
      <trkpt lat="47.31331" lon="-1.46892">
        <ele>70</ele>
        <time>2021-08-22T11:11:20.000Z</time>
      </trkpt>
      <trkpt lat="47.31321" lon="-1.46909">
        <ele>70</ele>
        <time>2021-08-22T11:11:22.000Z</time>
      </trkpt>
      <trkpt lat="47.31312" lon="-1.46925">
        <ele>70</ele>
        <time>2021-08-22T11:11:24.000Z</time>
      </trkpt>
      <trkpt lat="47.31302" lon="-1.46942">
        <ele>70</ele>
        <time>2021-08-22T11:11:26.000Z</time>
      </trkpt>
      <trkpt lat="47.31293" lon="-1.46959">
        <ele>70</ele>
        <time>2021-08-22T11:11:28.000Z</time>
      </trkpt>
      <trkpt lat="47.31283" lon="-1.46975">
        <ele>69</ele>
        <time>2021-08-22T11:11:30.000Z</time>
      </trkpt>
      <trkpt lat="47.31273" lon="-1.46991">
        <ele>69</ele>
        <time>2021-08-22T11:11:32.000Z</time>
      </trkpt>
      <trkpt lat="47.31264" lon="-1.47006">
        <ele>69</ele>
        <time>2021-08-22T11:11:34.000Z</time>
      </trkpt>
      <trkpt lat="47.31254" lon="-1.47022">
        <ele>69</ele>
        <time>2021-08-22T11:11:36.000Z</time>
      </trkpt>
      <trkpt lat="47.31245" lon="-1.47038">
        <ele>69</ele>
        <time>2021-08-22T11:11:38.000Z</time>
      </trkpt>
      <trkpt lat="47.31235" lon="-1.47055">
        <ele>69</ele>
        <time>2021-08-22T11:11:40.000Z</time>
      </trkpt>
      <trkpt lat="47.31226" lon="-1.47071">
        <ele>69</ele>
        <time>2021-08-22T11:11:42.000Z</time>
      </trkpt>
      <trkpt lat="47.31217" lon="-1.47087">
        <ele>68</ele>
        <time>2021-08-22T11:11:44.000Z</time>
      </trkpt>
      <trkpt lat="47.31208" lon="-1.47103">
        <ele>68</ele>
        <time>2021-08-22T11:11:46.000Z</time>
      </trkpt>
      <trkpt lat="47.31198" lon="-1.47119">
        <ele>68</ele>
        <time>2021-08-22T11:11:48.000Z</time>
      </trkpt>
      <trkpt lat="47.31188" lon="-1.47135">
        <ele>68</ele>
        <time>2021-08-22T11:11:50.000Z</time>
      </trkpt>
      <trkpt lat="47.31179" lon="-1.47152">
        <ele>68</ele>
        <time>2021-08-22T11:11:52.000Z</time>
      </trkpt>
      <trkpt lat="47.31169" lon="-1.47168">
        <ele>67</ele>
        <time>2021-08-22T11:11:54.000Z</time>
      </trkpt>
      <trkpt lat="47.31159" lon="-1.47183">
        <ele>66</ele>
        <time>2021-08-22T11:11:56.000Z</time>
      </trkpt>
      <trkpt lat="47.31151" lon="-1.47197">
        <ele>66</ele>
        <time>2021-08-22T11:11:58.000Z</time>
      </trkpt>
      <trkpt lat="47.31143" lon="-1.4721">
        <ele>66</ele>
        <time>2021-08-22T11:12:00.000Z</time>
      </trkpt>
      <trkpt lat="47.31135" lon="-1.47221">
        <ele>66</ele>
        <time>2021-08-22T11:12:03.000Z</time>
      </trkpt>
      <trkpt lat="47.31128" lon="-1.47238">
        <ele>66</ele>
        <time>2021-08-22T11:12:06.000Z</time>
      </trkpt>
      <trkpt lat="47.31121" lon="-1.47251">
        <ele>66</ele>
        <time>2021-08-22T11:12:08.000Z</time>
      </trkpt>
      <trkpt lat="47.31114" lon="-1.47263">
        <ele>65</ele>
        <time>2021-08-22T11:12:10.000Z</time>
      </trkpt>
      <trkpt lat="47.31105" lon="-1.47272">
        <ele>64</ele>
        <time>2021-08-22T11:12:12.000Z</time>
      </trkpt>
      <trkpt lat="47.31096" lon="-1.47278">
        <ele>64</ele>
        <time>2021-08-22T11:12:14.000Z</time>
      </trkpt>
      <trkpt lat="47.31091" lon="-1.4729">
        <ele>64</ele>
        <time>2021-08-22T11:12:16.000Z</time>
      </trkpt>
      <trkpt lat="47.31084" lon="-1.47305">
        <ele>64</ele>
        <time>2021-08-22T11:12:18.000Z</time>
      </trkpt>
      <trkpt lat="47.31076" lon="-1.47322">
        <ele>64</ele>
        <time>2021-08-22T11:12:20.000Z</time>
      </trkpt>
      <trkpt lat="47.31069" lon="-1.47338">
        <ele>63</ele>
        <time>2021-08-22T11:12:22.000Z</time>
      </trkpt>
      <trkpt lat="47.31061" lon="-1.47354">
        <ele>64</ele>
        <time>2021-08-22T11:12:24.000Z</time>
      </trkpt>
      <trkpt lat="47.31053" lon="-1.47369">
        <ele>64</ele>
        <time>2021-08-22T11:12:26.000Z</time>
      </trkpt>
      <trkpt lat="47.31043" lon="-1.47383">
        <ele>64</ele>
        <time>2021-08-22T11:12:28.000Z</time>
      </trkpt>
      <trkpt lat="47.31033" lon="-1.47398">
        <ele>64</ele>
        <time>2021-08-22T11:12:30.000Z</time>
      </trkpt>
      <trkpt lat="47.31024" lon="-1.47413">
        <ele>64</ele>
        <time>2021-08-22T11:12:32.000Z</time>
      </trkpt>
      <trkpt lat="47.31014" lon="-1.47427">
        <ele>64</ele>
        <time>2021-08-22T11:12:34.000Z</time>
      </trkpt>
      <trkpt lat="47.31005" lon="-1.47443">
        <ele>64</ele>
        <time>2021-08-22T11:12:36.000Z</time>
      </trkpt>
      <trkpt lat="47.30995" lon="-1.47458">
        <ele>63</ele>
        <time>2021-08-22T11:12:38.000Z</time>
      </trkpt>
      <trkpt lat="47.30987" lon="-1.47474">
        <ele>63</ele>
        <time>2021-08-22T11:12:40.000Z</time>
      </trkpt>
      <trkpt lat="47.30978" lon="-1.47489">
        <ele>64</ele>
        <time>2021-08-22T11:12:42.000Z</time>
      </trkpt>
      <trkpt lat="47.30969" lon="-1.47504">
        <ele>64</ele>
        <time>2021-08-22T11:12:44.000Z</time>
      </trkpt>
      <trkpt lat="47.3096" lon="-1.47521">
        <ele>64</ele>
        <time>2021-08-22T11:12:46.000Z</time>
      </trkpt>
      <trkpt lat="47.30951" lon="-1.47536">
        <ele>65</ele>
        <time>2021-08-22T11:12:48.000Z</time>
      </trkpt>
      <trkpt lat="47.30943" lon="-1.47551">
        <ele>65</ele>
        <time>2021-08-22T11:12:50.000Z</time>
      </trkpt>
      <trkpt lat="47.30935" lon="-1.47566">
        <ele>66</ele>
        <time>2021-08-22T11:12:52.000Z</time>
      </trkpt>
      <trkpt lat="47.30926" lon="-1.47582">
        <ele>66</ele>
        <time>2021-08-22T11:12:54.000Z</time>
      </trkpt>
      <trkpt lat="47.30917" lon="-1.47598">
        <ele>67</ele>
        <time>2021-08-22T11:12:56.000Z</time>
      </trkpt>
      <trkpt lat="47.30907" lon="-1.47612">
        <ele>68</ele>
        <time>2021-08-22T11:12:58.000Z</time>
      </trkpt>
      <trkpt lat="47.30898" lon="-1.47628">
        <ele>69</ele>
        <time>2021-08-22T11:13:00.000Z</time>
      </trkpt>
      <trkpt lat="47.30889" lon="-1.47644">
        <ele>69</ele>
        <time>2021-08-22T11:13:02.000Z</time>
      </trkpt>
      <trkpt lat="47.3088" lon="-1.47658">
        <ele>69</ele>
        <time>2021-08-22T11:13:04.000Z</time>
      </trkpt>
      <trkpt lat="47.30871" lon="-1.47673">
        <ele>69</ele>
        <time>2021-08-22T11:13:06.000Z</time>
      </trkpt>
      <trkpt lat="47.30861" lon="-1.47689">
        <ele>68</ele>
        <time>2021-08-22T11:13:08.000Z</time>
      </trkpt>
      <trkpt lat="47.30852" lon="-1.47704">
        <ele>68</ele>
        <time>2021-08-22T11:13:10.000Z</time>
      </trkpt>
      <trkpt lat="47.30843" lon="-1.47719">
        <ele>68</ele>
        <time>2021-08-22T11:13:12.000Z</time>
      </trkpt>
      <trkpt lat="47.30833" lon="-1.47735">
        <ele>69</ele>
        <time>2021-08-22T11:13:14.000Z</time>
      </trkpt>
      <trkpt lat="47.30825" lon="-1.4775">
        <ele>69</ele>
        <time>2021-08-22T11:13:16.000Z</time>
      </trkpt>
      <trkpt lat="47.30816" lon="-1.47765">
        <ele>69</ele>
        <time>2021-08-22T11:13:18.000Z</time>
      </trkpt>
      <trkpt lat="47.30806" lon="-1.4778">
        <ele>69</ele>
        <time>2021-08-22T11:13:20.000Z</time>
      </trkpt>
      <trkpt lat="47.30797" lon="-1.47795">
        <ele>69</ele>
        <time>2021-08-22T11:13:22.000Z</time>
      </trkpt>
      <trkpt lat="47.30786" lon="-1.47811">
        <ele>69</ele>
        <time>2021-08-22T11:13:24.000Z</time>
      </trkpt>
      <trkpt lat="47.30777" lon="-1.47826">
        <ele>69</ele>
        <time>2021-08-22T11:13:26.000Z</time>
      </trkpt>
      <trkpt lat="47.30768" lon="-1.4784">
        <ele>68</ele>
        <time>2021-08-22T11:13:28.000Z</time>
      </trkpt>
      <trkpt lat="47.30759" lon="-1.47855">
        <ele>67</ele>
        <time>2021-08-22T11:13:30.000Z</time>
      </trkpt>
      <trkpt lat="47.3075" lon="-1.47871">
        <ele>68</ele>
        <time>2021-08-22T11:13:32.000Z</time>
      </trkpt>
      <trkpt lat="47.30741" lon="-1.47885">
        <ele>68</ele>
        <time>2021-08-22T11:13:34.000Z</time>
      </trkpt>
      <trkpt lat="47.30732" lon="-1.479">
        <ele>68</ele>
        <time>2021-08-22T11:13:36.000Z</time>
      </trkpt>
      <trkpt lat="47.30724" lon="-1.47914">
        <ele>68</ele>
        <time>2021-08-22T11:13:38.000Z</time>
      </trkpt>
      <trkpt lat="47.30716" lon="-1.47929">
        <ele>66</ele>
        <time>2021-08-22T11:13:40.000Z</time>
      </trkpt>
      <trkpt lat="47.30713" lon="-1.47943">
        <ele>66</ele>
        <time>2021-08-22T11:13:42.000Z</time>
      </trkpt>
      <trkpt lat="47.30722" lon="-1.47951">
        <ele>64</ele>
        <time>2021-08-22T11:13:45.000Z</time>
      </trkpt>
      <trkpt lat="47.30732" lon="-1.4795">
        <ele>63</ele>
        <time>2021-08-22T11:13:47.000Z</time>
      </trkpt>
      <trkpt lat="47.30744" lon="-1.47948">
        <ele>61</ele>
        <time>2021-08-22T11:13:49.000Z</time>
      </trkpt>
      <trkpt lat="47.30757" lon="-1.47948">
        <ele>60</ele>
        <time>2021-08-22T11:13:51.000Z</time>
      </trkpt>
      <trkpt lat="47.3077" lon="-1.47948">
        <ele>59</ele>
        <time>2021-08-22T11:13:53.000Z</time>
      </trkpt>
      <trkpt lat="47.30782" lon="-1.47952">
        <ele>59</ele>
        <time>2021-08-22T11:13:55.000Z</time>
      </trkpt>
      <trkpt lat="47.30794" lon="-1.47956">
        <ele>58</ele>
        <time>2021-08-22T11:13:57.000Z</time>
      </trkpt>
      <trkpt lat="47.30803" lon="-1.47964">
        <ele>57</ele>
        <time>2021-08-22T11:13:59.000Z</time>
      </trkpt>
      <trkpt lat="47.30802" lon="-1.47979">
        <ele>57</ele>
        <time>2021-08-22T11:14:02.000Z</time>
      </trkpt>
      <trkpt lat="47.30792" lon="-1.48001">
        <ele>57</ele>
        <time>2021-08-22T11:14:06.000Z</time>
      </trkpt>
      <trkpt lat="47.30783" lon="-1.48012">
        <ele>58</ele>
        <time>2021-08-22T11:14:07.000Z</time>
      </trkpt>
      <trkpt lat="47.30773" lon="-1.48024">
        <ele>58</ele>
        <time>2021-08-22T11:14:09.000Z</time>
      </trkpt>
      <trkpt lat="47.30767" lon="-1.48037">
        <ele>58</ele>
        <time>2021-08-22T11:14:11.000Z</time>
      </trkpt>
      <trkpt lat="47.30763" lon="-1.48053">
        <ele>58</ele>
        <time>2021-08-22T11:14:13.000Z</time>
      </trkpt>
      <trkpt lat="47.30762" lon="-1.48067">
        <ele>59</ele>
        <time>2021-08-22T11:14:15.000Z</time>
      </trkpt>
      <trkpt lat="47.30763" lon="-1.48082">
        <ele>59</ele>
        <time>2021-08-22T11:14:17.000Z</time>
      </trkpt>
      <trkpt lat="47.30772" lon="-1.48093">
        <ele>59</ele>
        <time>2021-08-22T11:14:20.000Z</time>
      </trkpt>
      <trkpt lat="47.3078" lon="-1.48084">
        <ele>59</ele>
        <time>2021-08-22T11:14:23.000Z</time>
      </trkpt>
      <trkpt lat="47.3078" lon="-1.48064">
        <ele>58</ele>
        <time>2021-08-22T11:14:26.000Z</time>
      </trkpt>
      <trkpt lat="47.30779" lon="-1.48051">
        <ele>59</ele>
        <time>2021-08-22T11:14:28.000Z</time>
      </trkpt>
      <trkpt lat="47.30783" lon="-1.48038">
        <ele>60</ele>
        <time>2021-08-22T11:14:30.000Z</time>
      </trkpt>
      <trkpt lat="47.30792" lon="-1.48042">
        <ele>60</ele>
        <time>2021-08-22T11:14:33.000Z</time>
      </trkpt>
      <trkpt lat="47.30799" lon="-1.48057">
        <ele>60</ele>
        <time>2021-08-22T11:14:36.000Z</time>
      </trkpt>
      <trkpt lat="47.30801" lon="-1.48073">
        <ele>60</ele>
        <time>2021-08-22T11:14:39.000Z</time>
      </trkpt>
      <trkpt lat="47.30799" lon="-1.48087">
        <ele>61</ele>
        <time>2021-08-22T11:14:41.000Z</time>
      </trkpt>
      <trkpt lat="47.30795" lon="-1.48101">
        <ele>62</ele>
        <time>2021-08-22T11:14:43.000Z</time>
      </trkpt>
      <trkpt lat="47.30791" lon="-1.48115">
        <ele>62</ele>
        <time>2021-08-22T11:14:45.000Z</time>
      </trkpt>
      <trkpt lat="47.30788" lon="-1.48129">
        <ele>63</ele>
        <time>2021-08-22T11:14:47.000Z</time>
      </trkpt>
      <trkpt lat="47.30784" lon="-1.48142">
        <ele>64</ele>
        <time>2021-08-22T11:14:49.000Z</time>
      </trkpt>
      <trkpt lat="47.30781" lon="-1.48155">
        <ele>65</ele>
        <time>2021-08-22T11:14:51.000Z</time>
      </trkpt>
      <trkpt lat="47.30777" lon="-1.48169">
        <ele>65</ele>
        <time>2021-08-22T11:14:53.000Z</time>
      </trkpt>
      <trkpt lat="47.30773" lon="-1.48189">
        <ele>66</ele>
        <time>2021-08-22T11:14:56.000Z</time>
      </trkpt>
      <trkpt lat="47.30769" lon="-1.48202">
        <ele>66</ele>
        <time>2021-08-22T11:14:58.000Z</time>
      </trkpt>
      <trkpt lat="47.30761" lon="-1.48211">
        <ele>66</ele>
        <time>2021-08-22T11:15:01.000Z</time>
      </trkpt>
      <trkpt lat="47.3075" lon="-1.48203">
        <ele>66</ele>
        <time>2021-08-22T11:15:04.000Z</time>
      </trkpt>
      <trkpt lat="47.30744" lon="-1.48192">
        <ele>66</ele>
        <time>2021-08-22T11:15:06.000Z</time>
      </trkpt>
      <trkpt lat="47.30739" lon="-1.4818">
        <ele>65</ele>
        <time>2021-08-22T11:15:08.000Z</time>
      </trkpt>
      <trkpt lat="47.30733" lon="-1.48167">
        <ele>65</ele>
        <time>2021-08-22T11:15:10.000Z</time>
      </trkpt>
      <trkpt lat="47.3074" lon="-1.48159">
        <ele>64</ele>
        <time>2021-08-22T11:15:16.000Z</time>
      </trkpt>
      <trkpt lat="47.30748" lon="-1.48165">
        <ele>63</ele>
        <time>2021-08-22T11:15:18.000Z</time>
      </trkpt>
      <trkpt lat="47.30757" lon="-1.48172">
        <ele>63</ele>
        <time>2021-08-22T11:15:20.000Z</time>
      </trkpt>
      <trkpt lat="47.30761" lon="-1.48184">
        <ele>62</ele>
        <time>2021-08-22T11:15:22.000Z</time>
      </trkpt>
      <trkpt lat="47.30756" lon="-1.48195">
        <ele>62</ele>
        <time>2021-08-22T11:15:24.000Z</time>
      </trkpt>
      <trkpt lat="47.30747" lon="-1.48203">
        <ele>61</ele>
        <time>2021-08-22T11:15:26.000Z</time>
      </trkpt>
      <trkpt lat="47.30737" lon="-1.48209">
        <ele>61</ele>
        <time>2021-08-22T11:15:28.000Z</time>
      </trkpt>
      <trkpt lat="47.30728" lon="-1.48212">
        <ele>62</ele>
        <time>2021-08-22T11:15:30.000Z</time>
      </trkpt>
      <trkpt lat="47.3072" lon="-1.48202">
        <ele>63</ele>
        <time>2021-08-22T11:15:32.000Z</time>
      </trkpt>
      <trkpt lat="47.30718" lon="-1.48186">
        <ele>64</ele>
        <time>2021-08-22T11:15:34.000Z</time>
      </trkpt>
      <trkpt lat="47.30716" lon="-1.4817">
        <ele>64</ele>
        <time>2021-08-22T11:15:36.000Z</time>
      </trkpt>
      <trkpt lat="47.30711" lon="-1.48155">
        <ele>63</ele>
        <time>2021-08-22T11:15:38.000Z</time>
      </trkpt>
      <trkpt lat="47.30703" lon="-1.48143">
        <ele>63</ele>
        <time>2021-08-22T11:15:40.000Z</time>
      </trkpt>
      <trkpt lat="47.30693" lon="-1.48134">
        <ele>64</ele>
        <time>2021-08-22T11:15:42.000Z</time>
      </trkpt>
      <trkpt lat="47.30684" lon="-1.48122">
        <ele>63</ele>
        <time>2021-08-22T11:15:44.000Z</time>
      </trkpt>
      <trkpt lat="47.30673" lon="-1.48111">
        <ele>63</ele>
        <time>2021-08-22T11:15:46.000Z</time>
      </trkpt>
      <trkpt lat="47.30662" lon="-1.48099">
        <ele>62</ele>
        <time>2021-08-22T11:15:48.000Z</time>
      </trkpt>
      <trkpt lat="47.30651" lon="-1.48089">
        <ele>62</ele>
        <time>2021-08-22T11:15:50.000Z</time>
      </trkpt>
      <trkpt lat="47.30638" lon="-1.48083">
        <ele>62</ele>
        <time>2021-08-22T11:15:52.000Z</time>
      </trkpt>
      <trkpt lat="47.30626" lon="-1.48082">
        <ele>62</ele>
        <time>2021-08-22T11:15:54.000Z</time>
      </trkpt>
      <trkpt lat="47.30617" lon="-1.4809">
        <ele>62</ele>
        <time>2021-08-22T11:15:56.000Z</time>
      </trkpt>
      <trkpt lat="47.30609" lon="-1.48103">
        <ele>62</ele>
        <time>2021-08-22T11:15:58.000Z</time>
      </trkpt>
      <trkpt lat="47.30601" lon="-1.48115">
        <ele>63</ele>
        <time>2021-08-22T11:16:00.000Z</time>
      </trkpt>
      <trkpt lat="47.30593" lon="-1.48129">
        <ele>63</ele>
        <time>2021-08-22T11:16:02.000Z</time>
      </trkpt>
      <trkpt lat="47.30584" lon="-1.48143">
        <ele>64</ele>
        <time>2021-08-22T11:16:04.000Z</time>
      </trkpt>
      <trkpt lat="47.30576" lon="-1.48158">
        <ele>64</ele>
        <time>2021-08-22T11:16:06.000Z</time>
      </trkpt>
      <trkpt lat="47.30569" lon="-1.48172">
        <ele>65</ele>
        <time>2021-08-22T11:16:08.000Z</time>
      </trkpt>
      <trkpt lat="47.3056" lon="-1.48186">
        <ele>64</ele>
        <time>2021-08-22T11:16:10.000Z</time>
      </trkpt>
      <trkpt lat="47.30553" lon="-1.48202">
        <ele>64</ele>
        <time>2021-08-22T11:16:12.000Z</time>
      </trkpt>
      <trkpt lat="47.30545" lon="-1.48217">
        <ele>64</ele>
        <time>2021-08-22T11:16:14.000Z</time>
      </trkpt>
      <trkpt lat="47.30537" lon="-1.48231">
        <ele>65</ele>
        <time>2021-08-22T11:16:16.000Z</time>
      </trkpt>
      <trkpt lat="47.30528" lon="-1.48244">
        <ele>64</ele>
        <time>2021-08-22T11:16:18.000Z</time>
      </trkpt>
      <trkpt lat="47.3052" lon="-1.48258">
        <ele>65</ele>
        <time>2021-08-22T11:16:20.000Z</time>
      </trkpt>
      <trkpt lat="47.3051" lon="-1.4827">
        <ele>66</ele>
        <time>2021-08-22T11:16:22.000Z</time>
      </trkpt>
      <trkpt lat="47.305" lon="-1.48283">
        <ele>66</ele>
        <time>2021-08-22T11:16:24.000Z</time>
      </trkpt>
      <trkpt lat="47.30491" lon="-1.48295">
        <ele>66</ele>
        <time>2021-08-22T11:16:26.000Z</time>
      </trkpt>
      <trkpt lat="47.30481" lon="-1.48307">
        <ele>66</ele>
        <time>2021-08-22T11:16:28.000Z</time>
      </trkpt>
      <trkpt lat="47.30472" lon="-1.48319">
        <ele>66</ele>
        <time>2021-08-22T11:16:30.000Z</time>
      </trkpt>
      <trkpt lat="47.30461" lon="-1.48331">
        <ele>66</ele>
        <time>2021-08-22T11:16:32.000Z</time>
      </trkpt>
      <trkpt lat="47.30452" lon="-1.48343">
        <ele>66</ele>
        <time>2021-08-22T11:16:34.000Z</time>
      </trkpt>
      <trkpt lat="47.30441" lon="-1.48354">
        <ele>66</ele>
        <time>2021-08-22T11:16:36.000Z</time>
      </trkpt>
      <trkpt lat="47.30431" lon="-1.48365">
        <ele>66</ele>
        <time>2021-08-22T11:16:38.000Z</time>
      </trkpt>
      <trkpt lat="47.3042" lon="-1.48375">
        <ele>66</ele>
        <time>2021-08-22T11:16:40.000Z</time>
      </trkpt>
      <trkpt lat="47.3041" lon="-1.48386">
        <ele>66</ele>
        <time>2021-08-22T11:16:42.000Z</time>
      </trkpt>
      <trkpt lat="47.304" lon="-1.48396">
        <ele>66</ele>
        <time>2021-08-22T11:16:44.000Z</time>
      </trkpt>
      <trkpt lat="47.30392" lon="-1.48405">
        <ele>67</ele>
        <time>2021-08-22T11:16:46.000Z</time>
      </trkpt>
      <trkpt lat="47.30384" lon="-1.48413">
        <ele>67</ele>
        <time>2021-08-22T11:16:48.000Z</time>
      </trkpt>
      <trkpt lat="47.30375" lon="-1.48423">
        <ele>68</ele>
        <time>2021-08-22T11:16:51.000Z</time>
      </trkpt>
      <trkpt lat="47.30364" lon="-1.48428">
        <ele>67</ele>
        <time>2021-08-22T11:16:55.000Z</time>
      </trkpt>
      <trkpt lat="47.30357" lon="-1.48441">
        <ele>69</ele>
        <time>2021-08-22T11:16:58.000Z</time>
      </trkpt>
      <trkpt lat="47.30348" lon="-1.48447">
        <ele>68</ele>
        <time>2021-08-22T11:17:01.000Z</time>
      </trkpt>
      <trkpt lat="47.30338" lon="-1.48454">
        <ele>68</ele>
        <time>2021-08-22T11:17:03.000Z</time>
      </trkpt>
      <trkpt lat="47.30327" lon="-1.48461">
        <ele>69</ele>
        <time>2021-08-22T11:17:05.000Z</time>
      </trkpt>
      <trkpt lat="47.30317" lon="-1.48468">
        <ele>69</ele>
        <time>2021-08-22T11:17:07.000Z</time>
      </trkpt>
      <trkpt lat="47.30306" lon="-1.48477">
        <ele>70</ele>
        <time>2021-08-22T11:17:09.000Z</time>
      </trkpt>
      <trkpt lat="47.30296" lon="-1.48486">
        <ele>71</ele>
        <time>2021-08-22T11:17:11.000Z</time>
      </trkpt>
      <trkpt lat="47.30285" lon="-1.48494">
        <ele>71</ele>
        <time>2021-08-22T11:17:13.000Z</time>
      </trkpt>
      <trkpt lat="47.30274" lon="-1.48503">
        <ele>71</ele>
        <time>2021-08-22T11:17:15.000Z</time>
      </trkpt>
      <trkpt lat="47.30263" lon="-1.4851">
        <ele>71</ele>
        <time>2021-08-22T11:17:17.000Z</time>
      </trkpt>
      <trkpt lat="47.30252" lon="-1.48517">
        <ele>71</ele>
        <time>2021-08-22T11:17:19.000Z</time>
      </trkpt>
      <trkpt lat="47.3024" lon="-1.48524">
        <ele>71</ele>
        <time>2021-08-22T11:17:21.000Z</time>
      </trkpt>
      <trkpt lat="47.3023" lon="-1.48531">
        <ele>71</ele>
        <time>2021-08-22T11:17:23.000Z</time>
      </trkpt>
      <trkpt lat="47.30218" lon="-1.48537">
        <ele>70</ele>
        <time>2021-08-22T11:17:25.000Z</time>
      </trkpt>
      <trkpt lat="47.30208" lon="-1.48543">
        <ele>70</ele>
        <time>2021-08-22T11:17:27.000Z</time>
      </trkpt>
      <trkpt lat="47.30196" lon="-1.48549">
        <ele>70</ele>
        <time>2021-08-22T11:17:29.000Z</time>
      </trkpt>
      <trkpt lat="47.30185" lon="-1.48555">
        <ele>70</ele>
        <time>2021-08-22T11:17:31.000Z</time>
      </trkpt>
      <trkpt lat="47.30175" lon="-1.48561">
        <ele>71</ele>
        <time>2021-08-22T11:17:33.000Z</time>
      </trkpt>
      <trkpt lat="47.30164" lon="-1.48566">
        <ele>71</ele>
        <time>2021-08-22T11:17:35.000Z</time>
      </trkpt>
      <trkpt lat="47.30153" lon="-1.48571">
        <ele>71</ele>
        <time>2021-08-22T11:17:37.000Z</time>
      </trkpt>
      <trkpt lat="47.30142" lon="-1.48577">
        <ele>71</ele>
        <time>2021-08-22T11:17:39.000Z</time>
      </trkpt>
      <trkpt lat="47.30132" lon="-1.48581">
        <ele>71</ele>
        <time>2021-08-22T11:17:41.000Z</time>
      </trkpt>
      <trkpt lat="47.3012" lon="-1.48585">
        <ele>70</ele>
        <time>2021-08-22T11:17:43.000Z</time>
      </trkpt>
      <trkpt lat="47.30109" lon="-1.48589">
        <ele>70</ele>
        <time>2021-08-22T11:17:45.000Z</time>
      </trkpt>
      <trkpt lat="47.30097" lon="-1.48593">
        <ele>71</ele>
        <time>2021-08-22T11:17:47.000Z</time>
      </trkpt>
      <trkpt lat="47.30086" lon="-1.48597">
        <ele>71</ele>
        <time>2021-08-22T11:17:49.000Z</time>
      </trkpt>
      <trkpt lat="47.30074" lon="-1.48601">
        <ele>72</ele>
        <time>2021-08-22T11:17:51.000Z</time>
      </trkpt>
      <trkpt lat="47.30063" lon="-1.48604">
        <ele>72</ele>
        <time>2021-08-22T11:17:53.000Z</time>
      </trkpt>
      <trkpt lat="47.30051" lon="-1.48608">
        <ele>72</ele>
        <time>2021-08-22T11:17:55.000Z</time>
      </trkpt>
      <trkpt lat="47.3004" lon="-1.48612">
        <ele>73</ele>
        <time>2021-08-22T11:17:57.000Z</time>
      </trkpt>
      <trkpt lat="47.30028" lon="-1.48615">
        <ele>73</ele>
        <time>2021-08-22T11:17:59.000Z</time>
      </trkpt>
      <trkpt lat="47.30017" lon="-1.48618">
        <ele>73</ele>
        <time>2021-08-22T11:18:01.000Z</time>
      </trkpt>
      <trkpt lat="47.30004" lon="-1.4862">
        <ele>74</ele>
        <time>2021-08-22T11:18:03.000Z</time>
      </trkpt>
      <trkpt lat="47.29993" lon="-1.48621">
        <ele>73</ele>
        <time>2021-08-22T11:18:05.000Z</time>
      </trkpt>
      <trkpt lat="47.29983" lon="-1.48623">
        <ele>73</ele>
        <time>2021-08-22T11:18:07.000Z</time>
      </trkpt>
      <trkpt lat="47.29973" lon="-1.48625">
        <ele>73</ele>
        <time>2021-08-22T11:18:09.000Z</time>
      </trkpt>
      <trkpt lat="47.29961" lon="-1.48628">
        <ele>73</ele>
        <time>2021-08-22T11:18:11.000Z</time>
      </trkpt>
      <trkpt lat="47.29947" lon="-1.4863">
        <ele>74</ele>
        <time>2021-08-22T11:18:13.000Z</time>
      </trkpt>
      <trkpt lat="47.29933" lon="-1.48631">
        <ele>73</ele>
        <time>2021-08-22T11:18:15.000Z</time>
      </trkpt>
      <trkpt lat="47.2992" lon="-1.48632">
        <ele>73</ele>
        <time>2021-08-22T11:18:17.000Z</time>
      </trkpt>
      <trkpt lat="47.29906" lon="-1.48632">
        <ele>73</ele>
        <time>2021-08-22T11:18:19.000Z</time>
      </trkpt>
      <trkpt lat="47.29894" lon="-1.48632">
        <ele>74</ele>
        <time>2021-08-22T11:18:21.000Z</time>
      </trkpt>
      <trkpt lat="47.29882" lon="-1.48631">
        <ele>74</ele>
        <time>2021-08-22T11:18:23.000Z</time>
      </trkpt>
      <trkpt lat="47.2987" lon="-1.48631">
        <ele>74</ele>
        <time>2021-08-22T11:18:25.000Z</time>
      </trkpt>
      <trkpt lat="47.29857" lon="-1.48631">
        <ele>74</ele>
        <time>2021-08-22T11:18:27.000Z</time>
      </trkpt>
      <trkpt lat="47.29845" lon="-1.48631">
        <ele>74</ele>
        <time>2021-08-22T11:18:29.000Z</time>
      </trkpt>
      <trkpt lat="47.29832" lon="-1.48629">
        <ele>75</ele>
        <time>2021-08-22T11:18:31.000Z</time>
      </trkpt>
      <trkpt lat="47.2982" lon="-1.48628">
        <ele>75</ele>
        <time>2021-08-22T11:18:33.000Z</time>
      </trkpt>
      <trkpt lat="47.29808" lon="-1.48627">
        <ele>76</ele>
        <time>2021-08-22T11:18:35.000Z</time>
      </trkpt>
      <trkpt lat="47.29795" lon="-1.48625">
        <ele>76</ele>
        <time>2021-08-22T11:18:37.000Z</time>
      </trkpt>
      <trkpt lat="47.29784" lon="-1.48622">
        <ele>76</ele>
        <time>2021-08-22T11:18:39.000Z</time>
      </trkpt>
      <trkpt lat="47.29773" lon="-1.4862">
        <ele>77</ele>
        <time>2021-08-22T11:18:42.000Z</time>
      </trkpt>
      <trkpt lat="47.29764" lon="-1.48626">
        <ele>78</ele>
        <time>2021-08-22T11:18:46.000Z</time>
      </trkpt>
      <trkpt lat="47.29753" lon="-1.48622">
        <ele>78</ele>
        <time>2021-08-22T11:18:48.000Z</time>
      </trkpt>
      <trkpt lat="47.2974" lon="-1.48619">
        <ele>78</ele>
        <time>2021-08-22T11:18:50.000Z</time>
      </trkpt>
      <trkpt lat="47.29728" lon="-1.48615">
        <ele>79</ele>
        <time>2021-08-22T11:18:52.000Z</time>
      </trkpt>
      <trkpt lat="47.29717" lon="-1.48611">
        <ele>78</ele>
        <time>2021-08-22T11:18:54.000Z</time>
      </trkpt>
      <trkpt lat="47.29706" lon="-1.48607">
        <ele>79</ele>
        <time>2021-08-22T11:18:56.000Z</time>
      </trkpt>
      <trkpt lat="47.29696" lon="-1.48605">
        <ele>79</ele>
        <time>2021-08-22T11:18:58.000Z</time>
      </trkpt>
      <trkpt lat="47.29686" lon="-1.48605">
        <ele>78</ele>
        <time>2021-08-22T11:19:00.000Z</time>
      </trkpt>
      <trkpt lat="47.29674" lon="-1.48613">
        <ele>77</ele>
        <time>2021-08-22T11:19:03.000Z</time>
      </trkpt>
      <trkpt lat="47.2966" lon="-1.48617">
        <ele>78</ele>
        <time>2021-08-22T11:19:06.000Z</time>
      </trkpt>
      <trkpt lat="47.29655" lon="-1.48628">
        <ele>77</ele>
        <time>2021-08-22T11:19:08.000Z</time>
      </trkpt>
      <trkpt lat="47.29652" lon="-1.48642">
        <ele>76</ele>
        <time>2021-08-22T11:19:10.000Z</time>
      </trkpt>
      <trkpt lat="47.29643" lon="-1.48652">
        <ele>75</ele>
        <time>2021-08-22T11:19:12.000Z</time>
      </trkpt>
      <trkpt lat="47.29632" lon="-1.48654">
        <ele>75</ele>
        <time>2021-08-22T11:19:14.000Z</time>
      </trkpt>
      <trkpt lat="47.29621" lon="-1.48656">
        <ele>75</ele>
        <time>2021-08-22T11:19:16.000Z</time>
      </trkpt>
      <trkpt lat="47.29609" lon="-1.48659">
        <ele>76</ele>
        <time>2021-08-22T11:19:18.000Z</time>
      </trkpt>
      <trkpt lat="47.29598" lon="-1.48663">
        <ele>76</ele>
        <time>2021-08-22T11:19:20.000Z</time>
      </trkpt>
      <trkpt lat="47.29587" lon="-1.48668">
        <ele>76</ele>
        <time>2021-08-22T11:19:22.000Z</time>
      </trkpt>
      <trkpt lat="47.29576" lon="-1.48673">
        <ele>77</ele>
        <time>2021-08-22T11:19:24.000Z</time>
      </trkpt>
      <trkpt lat="47.29565" lon="-1.48677">
        <ele>77</ele>
        <time>2021-08-22T11:19:26.000Z</time>
      </trkpt>
      <trkpt lat="47.29555" lon="-1.48681">
        <ele>78</ele>
        <time>2021-08-22T11:19:28.000Z</time>
      </trkpt>
      <trkpt lat="47.29545" lon="-1.48686">
        <ele>78</ele>
        <time>2021-08-22T11:19:30.000Z</time>
      </trkpt>
      <trkpt lat="47.29534" lon="-1.4869">
        <ele>78</ele>
        <time>2021-08-22T11:19:32.000Z</time>
      </trkpt>
      <trkpt lat="47.29524" lon="-1.48695">
        <ele>78</ele>
        <time>2021-08-22T11:19:34.000Z</time>
      </trkpt>
      <trkpt lat="47.29514" lon="-1.48702">
        <ele>79</ele>
        <time>2021-08-22T11:19:36.000Z</time>
      </trkpt>
      <trkpt lat="47.29505" lon="-1.48711">
        <ele>79</ele>
        <time>2021-08-22T11:19:38.000Z</time>
      </trkpt>
      <trkpt lat="47.29496" lon="-1.48719">
        <ele>79</ele>
        <time>2021-08-22T11:19:40.000Z</time>
      </trkpt>
      <trkpt lat="47.29486" lon="-1.48727">
        <ele>78</ele>
        <time>2021-08-22T11:19:42.000Z</time>
      </trkpt>
      <trkpt lat="47.29476" lon="-1.48736">
        <ele>78</ele>
        <time>2021-08-22T11:19:44.000Z</time>
      </trkpt>
      <trkpt lat="47.29465" lon="-1.48745">
        <ele>78</ele>
        <time>2021-08-22T11:19:46.000Z</time>
      </trkpt>
      <trkpt lat="47.29455" lon="-1.48754">
        <ele>78</ele>
        <time>2021-08-22T11:19:48.000Z</time>
      </trkpt>
      <trkpt lat="47.29445" lon="-1.48763">
        <ele>78</ele>
        <time>2021-08-22T11:19:50.000Z</time>
      </trkpt>
      <trkpt lat="47.29434" lon="-1.48769">
        <ele>78</ele>
        <time>2021-08-22T11:19:52.000Z</time>
      </trkpt>
      <trkpt lat="47.29423" lon="-1.48774">
        <ele>77</ele>
        <time>2021-08-22T11:19:54.000Z</time>
      </trkpt>
      <trkpt lat="47.29412" lon="-1.48782">
        <ele>77</ele>
        <time>2021-08-22T11:19:56.000Z</time>
      </trkpt>
      <trkpt lat="47.294" lon="-1.48787">
        <ele>76</ele>
        <time>2021-08-22T11:19:58.000Z</time>
      </trkpt>
      <trkpt lat="47.29387" lon="-1.48789">
        <ele>76</ele>
        <time>2021-08-22T11:20:00.000Z</time>
      </trkpt>
      <trkpt lat="47.29373" lon="-1.48788">
        <ele>76</ele>
        <time>2021-08-22T11:20:02.000Z</time>
      </trkpt>
      <trkpt lat="47.2936" lon="-1.48783">
        <ele>76</ele>
        <time>2021-08-22T11:20:04.000Z</time>
      </trkpt>
      <trkpt lat="47.29346" lon="-1.48777">
        <ele>75</ele>
        <time>2021-08-22T11:20:06.000Z</time>
      </trkpt>
      <trkpt lat="47.29333" lon="-1.48768">
        <ele>75</ele>
        <time>2021-08-22T11:20:08.000Z</time>
      </trkpt>
      <trkpt lat="47.29321" lon="-1.48758">
        <ele>75</ele>
        <time>2021-08-22T11:20:10.000Z</time>
      </trkpt>
      <trkpt lat="47.2931" lon="-1.4875">
        <ele>75</ele>
        <time>2021-08-22T11:20:12.000Z</time>
      </trkpt>
      <trkpt lat="47.29298" lon="-1.4874">
        <ele>75</ele>
        <time>2021-08-22T11:20:14.000Z</time>
      </trkpt>
      <trkpt lat="47.29287" lon="-1.48732">
        <ele>76</ele>
        <time>2021-08-22T11:20:16.000Z</time>
      </trkpt>
      <trkpt lat="47.29276" lon="-1.48722">
        <ele>76</ele>
        <time>2021-08-22T11:20:18.000Z</time>
      </trkpt>
      <trkpt lat="47.29274" lon="-1.48704">
        <ele>76</ele>
        <time>2021-08-22T11:20:20.000Z</time>
      </trkpt>
      <trkpt lat="47.29275" lon="-1.48689">
        <ele>76</ele>
        <time>2021-08-22T11:20:22.000Z</time>
      </trkpt>
      <trkpt lat="47.29265" lon="-1.48684">
        <ele>76</ele>
        <time>2021-08-22T11:20:24.000Z</time>
      </trkpt>
      <trkpt lat="47.29255" lon="-1.48682">
        <ele>76</ele>
        <time>2021-08-22T11:20:26.000Z</time>
      </trkpt>
      <trkpt lat="47.29244" lon="-1.48683">
        <ele>75</ele>
        <time>2021-08-22T11:20:28.000Z</time>
      </trkpt>
      <trkpt lat="47.2923" lon="-1.48681">
        <ele>75</ele>
        <time>2021-08-22T11:20:30.000Z</time>
      </trkpt>
      <trkpt lat="47.29217" lon="-1.48671">
        <ele>75</ele>
        <time>2021-08-22T11:20:32.000Z</time>
      </trkpt>
      <trkpt lat="47.29204" lon="-1.48662">
        <ele>74</ele>
        <time>2021-08-22T11:20:34.000Z</time>
      </trkpt>
      <trkpt lat="47.29191" lon="-1.48653">
        <ele>74</ele>
        <time>2021-08-22T11:20:36.000Z</time>
      </trkpt>
      <trkpt lat="47.29179" lon="-1.48643">
        <ele>74</ele>
        <time>2021-08-22T11:20:38.000Z</time>
      </trkpt>
      <trkpt lat="47.29167" lon="-1.48635">
        <ele>74</ele>
        <time>2021-08-22T11:20:40.000Z</time>
      </trkpt>
      <trkpt lat="47.29155" lon="-1.48626">
        <ele>74</ele>
        <time>2021-08-22T11:20:42.000Z</time>
      </trkpt>
      <trkpt lat="47.29143" lon="-1.48617">
        <ele>75</ele>
        <time>2021-08-22T11:20:44.000Z</time>
      </trkpt>
      <trkpt lat="47.29131" lon="-1.48608">
        <ele>75</ele>
        <time>2021-08-22T11:20:46.000Z</time>
      </trkpt>
      <trkpt lat="47.29119" lon="-1.48599">
        <ele>75</ele>
        <time>2021-08-22T11:20:48.000Z</time>
      </trkpt>
      <trkpt lat="47.29106" lon="-1.4859">
        <ele>75</ele>
        <time>2021-08-22T11:20:50.000Z</time>
      </trkpt>
      <trkpt lat="47.29095" lon="-1.48582">
        <ele>76</ele>
        <time>2021-08-22T11:20:52.000Z</time>
      </trkpt>
      <trkpt lat="47.29084" lon="-1.48574">
        <ele>76</ele>
        <time>2021-08-22T11:20:54.000Z</time>
      </trkpt>
      <trkpt lat="47.29074" lon="-1.48566">
        <ele>76</ele>
        <time>2021-08-22T11:20:56.000Z</time>
      </trkpt>
      <trkpt lat="47.29059" lon="-1.4855">
        <ele>75</ele>
        <time>2021-08-22T11:20:59.000Z</time>
      </trkpt>
      <trkpt lat="47.29048" lon="-1.48547">
        <ele>75</ele>
        <time>2021-08-22T11:21:01.000Z</time>
      </trkpt>
      <trkpt lat="47.29035" lon="-1.48539">
        <ele>76</ele>
        <time>2021-08-22T11:21:03.000Z</time>
      </trkpt>
      <trkpt lat="47.29023" lon="-1.4853">
        <ele>75</ele>
        <time>2021-08-22T11:21:05.000Z</time>
      </trkpt>
      <trkpt lat="47.2901" lon="-1.48521">
        <ele>75</ele>
        <time>2021-08-22T11:21:07.000Z</time>
      </trkpt>
      <trkpt lat="47.28999" lon="-1.48512">
        <ele>76</ele>
        <time>2021-08-22T11:21:09.000Z</time>
      </trkpt>
      <trkpt lat="47.28987" lon="-1.48503">
        <ele>76</ele>
        <time>2021-08-22T11:21:11.000Z</time>
      </trkpt>
      <trkpt lat="47.28976" lon="-1.48494">
        <ele>76</ele>
        <time>2021-08-22T11:21:13.000Z</time>
      </trkpt>
      <trkpt lat="47.28964" lon="-1.48486">
        <ele>76</ele>
        <time>2021-08-22T11:21:15.000Z</time>
      </trkpt>
      <trkpt lat="47.28954" lon="-1.48477">
        <ele>77</ele>
        <time>2021-08-22T11:21:17.000Z</time>
      </trkpt>
      <trkpt lat="47.28945" lon="-1.48468">
        <ele>77</ele>
        <time>2021-08-22T11:21:19.000Z</time>
      </trkpt>
      <trkpt lat="47.28934" lon="-1.48464">
        <ele>78</ele>
        <time>2021-08-22T11:21:21.000Z</time>
      </trkpt>
      <trkpt lat="47.28923" lon="-1.48457">
        <ele>79</ele>
        <time>2021-08-22T11:21:23.000Z</time>
      </trkpt>
      <trkpt lat="47.28911" lon="-1.48449">
        <ele>80</ele>
        <time>2021-08-22T11:21:25.000Z</time>
      </trkpt>
      <trkpt lat="47.28898" lon="-1.48441">
        <ele>80</ele>
        <time>2021-08-22T11:21:27.000Z</time>
      </trkpt>
      <trkpt lat="47.28886" lon="-1.48434">
        <ele>80</ele>
        <time>2021-08-22T11:21:29.000Z</time>
      </trkpt>
      <trkpt lat="47.28874" lon="-1.48428">
        <ele>81</ele>
        <time>2021-08-22T11:21:31.000Z</time>
      </trkpt>
      <trkpt lat="47.28862" lon="-1.48422">
        <ele>80</ele>
        <time>2021-08-22T11:21:33.000Z</time>
      </trkpt>
      <trkpt lat="47.28849" lon="-1.48417">
        <ele>81</ele>
        <time>2021-08-22T11:21:35.000Z</time>
      </trkpt>
      <trkpt lat="47.28837" lon="-1.48411">
        <ele>81</ele>
        <time>2021-08-22T11:21:37.000Z</time>
      </trkpt>
      <trkpt lat="47.28826" lon="-1.48407">
        <ele>81</ele>
        <time>2021-08-22T11:21:39.000Z</time>
      </trkpt>
      <trkpt lat="47.28815" lon="-1.48403">
        <ele>81</ele>
        <time>2021-08-22T11:21:41.000Z</time>
      </trkpt>
      <trkpt lat="47.28807" lon="-1.48395">
        <ele>80</ele>
        <time>2021-08-22T11:21:43.000Z</time>
      </trkpt>
      <trkpt lat="47.288" lon="-1.48385">
        <ele>80</ele>
        <time>2021-08-22T11:21:45.000Z</time>
      </trkpt>
      <trkpt lat="47.28791" lon="-1.48381">
        <ele>79</ele>
        <time>2021-08-22T11:21:47.000Z</time>
      </trkpt>
      <trkpt lat="47.2878" lon="-1.4838">
        <ele>79</ele>
        <time>2021-08-22T11:21:49.000Z</time>
      </trkpt>
      <trkpt lat="47.28771" lon="-1.48385">
        <ele>78</ele>
        <time>2021-08-22T11:21:51.000Z</time>
      </trkpt>
      <trkpt lat="47.28764" lon="-1.48398">
        <ele>78</ele>
        <time>2021-08-22T11:21:53.000Z</time>
      </trkpt>
      <trkpt lat="47.28755" lon="-1.4841">
        <ele>78</ele>
        <time>2021-08-22T11:21:55.000Z</time>
      </trkpt>
      <trkpt lat="47.28736" lon="-1.48418">
        <ele>77</ele>
        <time>2021-08-22T11:21:58.000Z</time>
      </trkpt>
      <trkpt lat="47.28723" lon="-1.48422">
        <ele>78</ele>
        <time>2021-08-22T11:22:00.000Z</time>
      </trkpt>
      <trkpt lat="47.2871" lon="-1.48427">
        <ele>78</ele>
        <time>2021-08-22T11:22:02.000Z</time>
      </trkpt>
      <trkpt lat="47.28698" lon="-1.4843">
        <ele>78</ele>
        <time>2021-08-22T11:22:04.000Z</time>
      </trkpt>
      <trkpt lat="47.28685" lon="-1.48435">
        <ele>78</ele>
        <time>2021-08-22T11:22:06.000Z</time>
      </trkpt>
      <trkpt lat="47.28673" lon="-1.48439">
        <ele>78</ele>
        <time>2021-08-22T11:22:08.000Z</time>
      </trkpt>
      <trkpt lat="47.2866" lon="-1.48445">
        <ele>78</ele>
        <time>2021-08-22T11:22:10.000Z</time>
      </trkpt>
      <trkpt lat="47.28648" lon="-1.48451">
        <ele>78</ele>
        <time>2021-08-22T11:22:12.000Z</time>
      </trkpt>
      <trkpt lat="47.28636" lon="-1.48458">
        <ele>79</ele>
        <time>2021-08-22T11:22:14.000Z</time>
      </trkpt>
      <trkpt lat="47.28624" lon="-1.48467">
        <ele>79</ele>
        <time>2021-08-22T11:22:16.000Z</time>
      </trkpt>
      <trkpt lat="47.28612" lon="-1.48476">
        <ele>78</ele>
        <time>2021-08-22T11:22:18.000Z</time>
      </trkpt>
      <trkpt lat="47.286" lon="-1.48485">
        <ele>77</ele>
        <time>2021-08-22T11:22:20.000Z</time>
      </trkpt>
      <trkpt lat="47.28588" lon="-1.48495">
        <ele>77</ele>
        <time>2021-08-22T11:22:22.000Z</time>
      </trkpt>
      <trkpt lat="47.28576" lon="-1.48504">
        <ele>76</ele>
        <time>2021-08-22T11:22:24.000Z</time>
      </trkpt>
      <trkpt lat="47.28565" lon="-1.48515">
        <ele>76</ele>
        <time>2021-08-22T11:22:26.000Z</time>
      </trkpt>
      <trkpt lat="47.28553" lon="-1.48525">
        <ele>75</ele>
        <time>2021-08-22T11:22:28.000Z</time>
      </trkpt>
      <trkpt lat="47.28541" lon="-1.48535">
        <ele>75</ele>
        <time>2021-08-22T11:22:30.000Z</time>
      </trkpt>
      <trkpt lat="47.2853" lon="-1.48545">
        <ele>75</ele>
        <time>2021-08-22T11:22:32.000Z</time>
      </trkpt>
      <trkpt lat="47.28518" lon="-1.48555">
        <ele>75</ele>
        <time>2021-08-22T11:22:34.000Z</time>
      </trkpt>
      <trkpt lat="47.28506" lon="-1.48566">
        <ele>74</ele>
        <time>2021-08-22T11:22:36.000Z</time>
      </trkpt>
      <trkpt lat="47.28494" lon="-1.48575">
        <ele>74</ele>
        <time>2021-08-22T11:22:38.000Z</time>
      </trkpt>
      <trkpt lat="47.28481" lon="-1.48586">
        <ele>74</ele>
        <time>2021-08-22T11:22:40.000Z</time>
      </trkpt>
      <trkpt lat="47.28469" lon="-1.48596">
        <ele>74</ele>
        <time>2021-08-22T11:22:42.000Z</time>
      </trkpt>
      <trkpt lat="47.28457" lon="-1.48606">
        <ele>74</ele>
        <time>2021-08-22T11:22:44.000Z</time>
      </trkpt>
      <trkpt lat="47.28445" lon="-1.48616">
        <ele>73</ele>
        <time>2021-08-22T11:22:46.000Z</time>
      </trkpt>
      <trkpt lat="47.28432" lon="-1.48627">
        <ele>73</ele>
        <time>2021-08-22T11:22:48.000Z</time>
      </trkpt>
      <trkpt lat="47.2842" lon="-1.48636">
        <ele>73</ele>
        <time>2021-08-22T11:22:50.000Z</time>
      </trkpt>
      <trkpt lat="47.28407" lon="-1.48644">
        <ele>72</ele>
        <time>2021-08-22T11:22:52.000Z</time>
      </trkpt>
      <trkpt lat="47.28393" lon="-1.48647">
        <ele>72</ele>
        <time>2021-08-22T11:22:54.000Z</time>
      </trkpt>
      <trkpt lat="47.28379" lon="-1.48647">
        <ele>71</ele>
        <time>2021-08-22T11:22:56.000Z</time>
      </trkpt>
      <trkpt lat="47.28368" lon="-1.48637">
        <ele>71</ele>
        <time>2021-08-22T11:22:58.000Z</time>
      </trkpt>
      <trkpt lat="47.28351" lon="-1.48621">
        <ele>71</ele>
        <time>2021-08-22T11:23:01.000Z</time>
      </trkpt>
      <trkpt lat="47.28339" lon="-1.48616">
        <ele>70</ele>
        <time>2021-08-22T11:23:03.000Z</time>
      </trkpt>
      <trkpt lat="47.28325" lon="-1.48614">
        <ele>70</ele>
        <time>2021-08-22T11:23:05.000Z</time>
      </trkpt>
      <trkpt lat="47.28311" lon="-1.48607">
        <ele>70</ele>
        <time>2021-08-22T11:23:07.000Z</time>
      </trkpt>
      <trkpt lat="47.283" lon="-1.48594">
        <ele>70</ele>
        <time>2021-08-22T11:23:09.000Z</time>
      </trkpt>
      <trkpt lat="47.28292" lon="-1.48578">
        <ele>71</ele>
        <time>2021-08-22T11:23:11.000Z</time>
      </trkpt>
      <trkpt lat="47.28284" lon="-1.48562">
        <ele>72</ele>
        <time>2021-08-22T11:23:13.000Z</time>
      </trkpt>
      <trkpt lat="47.28274" lon="-1.4855">
        <ele>73</ele>
        <time>2021-08-22T11:23:15.000Z</time>
      </trkpt>
      <trkpt lat="47.28263" lon="-1.4854">
        <ele>73</ele>
        <time>2021-08-22T11:23:17.000Z</time>
      </trkpt>
      <trkpt lat="47.28251" lon="-1.48531">
        <ele>73</ele>
        <time>2021-08-22T11:23:19.000Z</time>
      </trkpt>
      <trkpt lat="47.2824" lon="-1.48522">
        <ele>73</ele>
        <time>2021-08-22T11:23:21.000Z</time>
      </trkpt>
      <trkpt lat="47.28233" lon="-1.4851">
        <ele>72</ele>
        <time>2021-08-22T11:23:23.000Z</time>
      </trkpt>
      <trkpt lat="47.28224" lon="-1.48503">
        <ele>72</ele>
        <time>2021-08-22T11:23:25.000Z</time>
      </trkpt>
      <trkpt lat="47.28213" lon="-1.48498">
        <ele>71</ele>
        <time>2021-08-22T11:23:28.000Z</time>
      </trkpt>
      <trkpt lat="47.28223" lon="-1.48503">
        <ele>69</ele>
        <time>2021-08-22T11:23:38.000Z</time>
      </trkpt>
      <trkpt lat="47.28226" lon="-1.48522">
        <ele>67</ele>
        <time>2021-08-22T11:23:41.000Z</time>
      </trkpt>
      <trkpt lat="47.28227" lon="-1.48538">
        <ele>67</ele>
        <time>2021-08-22T11:23:44.000Z</time>
      </trkpt>
      <trkpt lat="47.28232" lon="-1.48551">
        <ele>65</ele>
        <time>2021-08-22T11:23:49.000Z</time>
      </trkpt>
      <trkpt lat="47.28242" lon="-1.48554">
        <ele>65</ele>
        <time>2021-08-22T11:23:51.000Z</time>
      </trkpt>
      <trkpt lat="47.28251" lon="-1.4856">
        <ele>66</ele>
        <time>2021-08-22T11:23:53.000Z</time>
      </trkpt>
      <trkpt lat="47.28262" lon="-1.48569">
        <ele>66</ele>
        <time>2021-08-22T11:23:55.000Z</time>
      </trkpt>
      <trkpt lat="47.28272" lon="-1.48577">
        <ele>66</ele>
        <time>2021-08-22T11:23:57.000Z</time>
      </trkpt>
      <trkpt lat="47.28281" lon="-1.48589">
        <ele>66</ele>
        <time>2021-08-22T11:23:59.000Z</time>
      </trkpt>
      <trkpt lat="47.2829" lon="-1.48602">
        <ele>67</ele>
        <time>2021-08-22T11:24:01.000Z</time>
      </trkpt>
      <trkpt lat="47.283" lon="-1.48613">
        <ele>67</ele>
        <time>2021-08-22T11:24:03.000Z</time>
      </trkpt>
      <trkpt lat="47.28308" lon="-1.48628">
        <ele>67</ele>
        <time>2021-08-22T11:24:05.000Z</time>
      </trkpt>
      <trkpt lat="47.28315" lon="-1.48644">
        <ele>66</ele>
        <time>2021-08-22T11:24:07.000Z</time>
      </trkpt>
      <trkpt lat="47.28316" lon="-1.48664">
        <ele>66</ele>
        <time>2021-08-22T11:24:09.000Z</time>
      </trkpt>
      <trkpt lat="47.28316" lon="-1.48683">
        <ele>66</ele>
        <time>2021-08-22T11:24:11.000Z</time>
      </trkpt>
      <trkpt lat="47.28314" lon="-1.48702">
        <ele>66</ele>
        <time>2021-08-22T11:24:13.000Z</time>
      </trkpt>
      <trkpt lat="47.28309" lon="-1.48721">
        <ele>65</ele>
        <time>2021-08-22T11:24:15.000Z</time>
      </trkpt>
      <trkpt lat="47.28304" lon="-1.4874">
        <ele>65</ele>
        <time>2021-08-22T11:24:17.000Z</time>
      </trkpt>
      <trkpt lat="47.28298" lon="-1.48758">
        <ele>65</ele>
        <time>2021-08-22T11:24:19.000Z</time>
      </trkpt>
      <trkpt lat="47.28291" lon="-1.48776">
        <ele>65</ele>
        <time>2021-08-22T11:24:21.000Z</time>
      </trkpt>
      <trkpt lat="47.28282" lon="-1.48792">
        <ele>65</ele>
        <time>2021-08-22T11:24:23.000Z</time>
      </trkpt>
      <trkpt lat="47.28273" lon="-1.48805">
        <ele>65</ele>
        <time>2021-08-22T11:24:25.000Z</time>
      </trkpt>
      <trkpt lat="47.28263" lon="-1.48816">
        <ele>66</ele>
        <time>2021-08-22T11:24:27.000Z</time>
      </trkpt>
      <trkpt lat="47.28254" lon="-1.48827">
        <ele>67</ele>
        <time>2021-08-22T11:24:29.000Z</time>
      </trkpt>
      <trkpt lat="47.28245" lon="-1.4884">
        <ele>68</ele>
        <time>2021-08-22T11:24:31.000Z</time>
      </trkpt>
      <trkpt lat="47.28236" lon="-1.48853">
        <ele>69</ele>
        <time>2021-08-22T11:24:33.000Z</time>
      </trkpt>
      <trkpt lat="47.28227" lon="-1.48866">
        <ele>69</ele>
        <time>2021-08-22T11:24:35.000Z</time>
      </trkpt>
      <trkpt lat="47.28217" lon="-1.48879">
        <ele>69</ele>
        <time>2021-08-22T11:24:37.000Z</time>
      </trkpt>
      <trkpt lat="47.28207" lon="-1.48891">
        <ele>69</ele>
        <time>2021-08-22T11:24:39.000Z</time>
      </trkpt>
      <trkpt lat="47.28196" lon="-1.48903">
        <ele>69</ele>
        <time>2021-08-22T11:24:41.000Z</time>
      </trkpt>
      <trkpt lat="47.28187" lon="-1.48917">
        <ele>69</ele>
        <time>2021-08-22T11:24:43.000Z</time>
      </trkpt>
      <trkpt lat="47.28178" lon="-1.48927">
        <ele>69</ele>
        <time>2021-08-22T11:24:45.000Z</time>
      </trkpt>
      <trkpt lat="47.28169" lon="-1.48938">
        <ele>70</ele>
        <time>2021-08-22T11:24:47.000Z</time>
      </trkpt>
      <trkpt lat="47.28159" lon="-1.4895">
        <ele>70</ele>
        <time>2021-08-22T11:24:49.000Z</time>
      </trkpt>
      <trkpt lat="47.2815" lon="-1.48962">
        <ele>70</ele>
        <time>2021-08-22T11:24:51.000Z</time>
      </trkpt>
      <trkpt lat="47.28141" lon="-1.48974">
        <ele>69</ele>
        <time>2021-08-22T11:24:53.000Z</time>
      </trkpt>
      <trkpt lat="47.28131" lon="-1.48987">
        <ele>69</ele>
        <time>2021-08-22T11:24:55.000Z</time>
      </trkpt>
      <trkpt lat="47.28122" lon="-1.48998">
        <ele>70</ele>
        <time>2021-08-22T11:24:57.000Z</time>
      </trkpt>
      <trkpt lat="47.28112" lon="-1.49011">
        <ele>70</ele>
        <time>2021-08-22T11:24:59.000Z</time>
      </trkpt>
      <trkpt lat="47.28102" lon="-1.49025">
        <ele>70</ele>
        <time>2021-08-22T11:25:01.000Z</time>
      </trkpt>
      <trkpt lat="47.28091" lon="-1.49037">
        <ele>71</ele>
        <time>2021-08-22T11:25:03.000Z</time>
      </trkpt>
      <trkpt lat="47.28082" lon="-1.49049">
        <ele>71</ele>
        <time>2021-08-22T11:25:05.000Z</time>
      </trkpt>
      <trkpt lat="47.28073" lon="-1.49059">
        <ele>71</ele>
        <time>2021-08-22T11:25:07.000Z</time>
      </trkpt>
      <trkpt lat="47.28063" lon="-1.49072">
        <ele>71</ele>
        <time>2021-08-22T11:25:09.000Z</time>
      </trkpt>
      <trkpt lat="47.28054" lon="-1.49084">
        <ele>71</ele>
        <time>2021-08-22T11:25:11.000Z</time>
      </trkpt>
      <trkpt lat="47.28043" lon="-1.49096">
        <ele>70</ele>
        <time>2021-08-22T11:25:13.000Z</time>
      </trkpt>
      <trkpt lat="47.28031" lon="-1.49109">
        <ele>70</ele>
        <time>2021-08-22T11:25:15.000Z</time>
      </trkpt>
      <trkpt lat="47.28019" lon="-1.49119">
        <ele>70</ele>
        <time>2021-08-22T11:25:17.000Z</time>
      </trkpt>
      <trkpt lat="47.2801" lon="-1.49133">
        <ele>70</ele>
        <time>2021-08-22T11:25:19.000Z</time>
      </trkpt>
      <trkpt lat="47.28001" lon="-1.49148">
        <ele>69</ele>
        <time>2021-08-22T11:25:21.000Z</time>
      </trkpt>
      <trkpt lat="47.27991" lon="-1.4916">
        <ele>71</ele>
        <time>2021-08-22T11:25:23.000Z</time>
      </trkpt>
      <trkpt lat="47.27981" lon="-1.49171">
        <ele>71</ele>
        <time>2021-08-22T11:25:25.000Z</time>
      </trkpt>
      <trkpt lat="47.27971" lon="-1.49183">
        <ele>72</ele>
        <time>2021-08-22T11:25:27.000Z</time>
      </trkpt>
      <trkpt lat="47.27961" lon="-1.49195">
        <ele>71</ele>
        <time>2021-08-22T11:25:29.000Z</time>
      </trkpt>
      <trkpt lat="47.27951" lon="-1.49207">
        <ele>72</ele>
        <time>2021-08-22T11:25:31.000Z</time>
      </trkpt>
      <trkpt lat="47.27941" lon="-1.49219">
        <ele>72</ele>
        <time>2021-08-22T11:25:33.000Z</time>
      </trkpt>
      <trkpt lat="47.27932" lon="-1.49231">
        <ele>72</ele>
        <time>2021-08-22T11:25:35.000Z</time>
      </trkpt>
      <trkpt lat="47.27921" lon="-1.49242">
        <ele>72</ele>
        <time>2021-08-22T11:25:37.000Z</time>
      </trkpt>
      <trkpt lat="47.27912" lon="-1.49254">
        <ele>72</ele>
        <time>2021-08-22T11:25:39.000Z</time>
      </trkpt>
      <trkpt lat="47.27903" lon="-1.49267">
        <ele>73</ele>
        <time>2021-08-22T11:25:41.000Z</time>
      </trkpt>
      <trkpt lat="47.27888" lon="-1.49285">
        <ele>73</ele>
        <time>2021-08-22T11:25:44.000Z</time>
      </trkpt>
      <trkpt lat="47.27878" lon="-1.49297">
        <ele>73</ele>
        <time>2021-08-22T11:25:46.000Z</time>
      </trkpt>
      <trkpt lat="47.27867" lon="-1.49309">
        <ele>73</ele>
        <time>2021-08-22T11:25:48.000Z</time>
      </trkpt>
      <trkpt lat="47.27858" lon="-1.49321">
        <ele>73</ele>
        <time>2021-08-22T11:25:50.000Z</time>
      </trkpt>
      <trkpt lat="47.27848" lon="-1.49333">
        <ele>73</ele>
        <time>2021-08-22T11:25:52.000Z</time>
      </trkpt>
      <trkpt lat="47.27838" lon="-1.49345">
        <ele>73</ele>
        <time>2021-08-22T11:25:54.000Z</time>
      </trkpt>
      <trkpt lat="47.27825" lon="-1.49362">
        <ele>74</ele>
        <time>2021-08-22T11:25:57.000Z</time>
      </trkpt>
      <trkpt lat="47.27818" lon="-1.49375">
        <ele>74</ele>
        <time>2021-08-22T11:25:59.000Z</time>
      </trkpt>
      <trkpt lat="47.27809" lon="-1.49388">
        <ele>74</ele>
        <time>2021-08-22T11:26:01.000Z</time>
      </trkpt>
      <trkpt lat="47.278" lon="-1.494">
        <ele>74</ele>
        <time>2021-08-22T11:26:03.000Z</time>
      </trkpt>
      <trkpt lat="47.27789" lon="-1.49412">
        <ele>74</ele>
        <time>2021-08-22T11:26:05.000Z</time>
      </trkpt>
      <trkpt lat="47.27778" lon="-1.49424">
        <ele>74</ele>
        <time>2021-08-22T11:26:07.000Z</time>
      </trkpt>
      <trkpt lat="47.27765" lon="-1.4944">
        <ele>74</ele>
        <time>2021-08-22T11:26:10.000Z</time>
      </trkpt>
      <trkpt lat="47.27758" lon="-1.49449">
        <ele>74</ele>
        <time>2021-08-22T11:26:12.000Z</time>
      </trkpt>
      <trkpt lat="47.27752" lon="-1.49459">
        <ele>74</ele>
        <time>2021-08-22T11:26:14.000Z</time>
      </trkpt>
      <trkpt lat="47.27746" lon="-1.49471">
        <ele>74</ele>
        <time>2021-08-22T11:26:16.000Z</time>
      </trkpt>
      <trkpt lat="47.2774" lon="-1.49486">
        <ele>74</ele>
        <time>2021-08-22T11:26:18.000Z</time>
      </trkpt>
      <trkpt lat="47.27732" lon="-1.49503">
        <ele>74</ele>
        <time>2021-08-22T11:26:20.000Z</time>
      </trkpt>
      <trkpt lat="47.27722" lon="-1.49519">
        <ele>74</ele>
        <time>2021-08-22T11:26:22.000Z</time>
      </trkpt>
      <trkpt lat="47.27712" lon="-1.49534">
        <ele>74</ele>
        <time>2021-08-22T11:26:24.000Z</time>
      </trkpt>
      <trkpt lat="47.27701" lon="-1.49548">
        <ele>73</ele>
        <time>2021-08-22T11:26:26.000Z</time>
      </trkpt>
      <trkpt lat="47.27691" lon="-1.49562">
        <ele>73</ele>
        <time>2021-08-22T11:26:28.000Z</time>
      </trkpt>
      <trkpt lat="47.27682" lon="-1.49576">
        <ele>73</ele>
        <time>2021-08-22T11:26:30.000Z</time>
      </trkpt>
      <trkpt lat="47.27672" lon="-1.4959">
        <ele>72</ele>
        <time>2021-08-22T11:26:32.000Z</time>
      </trkpt>
      <trkpt lat="47.27662" lon="-1.49605">
        <ele>72</ele>
        <time>2021-08-22T11:26:34.000Z</time>
      </trkpt>
      <trkpt lat="47.27652" lon="-1.49619">
        <ele>72</ele>
        <time>2021-08-22T11:26:36.000Z</time>
      </trkpt>
      <trkpt lat="47.27641" lon="-1.49634">
        <ele>72</ele>
        <time>2021-08-22T11:26:38.000Z</time>
      </trkpt>
      <trkpt lat="47.27631" lon="-1.49648">
        <ele>72</ele>
        <time>2021-08-22T11:26:40.000Z</time>
      </trkpt>
      <trkpt lat="47.27621" lon="-1.49662">
        <ele>72</ele>
        <time>2021-08-22T11:26:42.000Z</time>
      </trkpt>
      <trkpt lat="47.27611" lon="-1.49675">
        <ele>72</ele>
        <time>2021-08-22T11:26:44.000Z</time>
      </trkpt>
      <trkpt lat="47.276" lon="-1.49688">
        <ele>72</ele>
        <time>2021-08-22T11:26:46.000Z</time>
      </trkpt>
      <trkpt lat="47.27589" lon="-1.49701">
        <ele>71</ele>
        <time>2021-08-22T11:26:48.000Z</time>
      </trkpt>
      <trkpt lat="47.27579" lon="-1.49716">
        <ele>71</ele>
        <time>2021-08-22T11:26:50.000Z</time>
      </trkpt>
      <trkpt lat="47.27568" lon="-1.4973">
        <ele>71</ele>
        <time>2021-08-22T11:26:52.000Z</time>
      </trkpt>
      <trkpt lat="47.27557" lon="-1.49744">
        <ele>71</ele>
        <time>2021-08-22T11:26:54.000Z</time>
      </trkpt>
      <trkpt lat="47.27546" lon="-1.49757">
        <ele>71</ele>
        <time>2021-08-22T11:26:56.000Z</time>
      </trkpt>
      <trkpt lat="47.27535" lon="-1.4977">
        <ele>71</ele>
        <time>2021-08-22T11:26:58.000Z</time>
      </trkpt>
      <trkpt lat="47.27525" lon="-1.49783">
        <ele>72</ele>
        <time>2021-08-22T11:27:00.000Z</time>
      </trkpt>
      <trkpt lat="47.27514" lon="-1.49794">
        <ele>72</ele>
        <time>2021-08-22T11:27:02.000Z</time>
      </trkpt>
      <trkpt lat="47.27502" lon="-1.49804">
        <ele>72</ele>
        <time>2021-08-22T11:27:04.000Z</time>
      </trkpt>
      <trkpt lat="47.27489" lon="-1.49812">
        <ele>73</ele>
        <time>2021-08-22T11:27:06.000Z</time>
      </trkpt>
      <trkpt lat="47.27476" lon="-1.49819">
        <ele>73</ele>
        <time>2021-08-22T11:27:08.000Z</time>
      </trkpt>
      <trkpt lat="47.27463" lon="-1.49826">
        <ele>72</ele>
        <time>2021-08-22T11:27:10.000Z</time>
      </trkpt>
      <trkpt lat="47.27449" lon="-1.49831">
        <ele>72</ele>
        <time>2021-08-22T11:27:12.000Z</time>
      </trkpt>
      <trkpt lat="47.27436" lon="-1.49837">
        <ele>73</ele>
        <time>2021-08-22T11:27:14.000Z</time>
      </trkpt>
      <trkpt lat="47.27424" lon="-1.49844">
        <ele>73</ele>
        <time>2021-08-22T11:27:16.000Z</time>
      </trkpt>
      <trkpt lat="47.27411" lon="-1.4985">
        <ele>73</ele>
        <time>2021-08-22T11:27:18.000Z</time>
      </trkpt>
      <trkpt lat="47.27399" lon="-1.49855">
        <ele>73</ele>
        <time>2021-08-22T11:27:20.000Z</time>
      </trkpt>
      <trkpt lat="47.27386" lon="-1.49862">
        <ele>74</ele>
        <time>2021-08-22T11:27:22.000Z</time>
      </trkpt>
      <trkpt lat="47.27372" lon="-1.49868">
        <ele>73</ele>
        <time>2021-08-22T11:27:24.000Z</time>
      </trkpt>
      <trkpt lat="47.27359" lon="-1.49875">
        <ele>73</ele>
        <time>2021-08-22T11:27:26.000Z</time>
      </trkpt>
      <trkpt lat="47.27347" lon="-1.49881">
        <ele>74</ele>
        <time>2021-08-22T11:27:28.000Z</time>
      </trkpt>
      <trkpt lat="47.27334" lon="-1.49887">
        <ele>74</ele>
        <time>2021-08-22T11:27:30.000Z</time>
      </trkpt>
      <trkpt lat="47.27321" lon="-1.49893">
        <ele>74</ele>
        <time>2021-08-22T11:27:32.000Z</time>
      </trkpt>
      <trkpt lat="47.27308" lon="-1.49899">
        <ele>75</ele>
        <time>2021-08-22T11:27:34.000Z</time>
      </trkpt>
      <trkpt lat="47.27296" lon="-1.49905">
        <ele>75</ele>
        <time>2021-08-22T11:27:36.000Z</time>
      </trkpt>
      <trkpt lat="47.27284" lon="-1.4991">
        <ele>75</ele>
        <time>2021-08-22T11:27:38.000Z</time>
      </trkpt>
      <trkpt lat="47.27272" lon="-1.49916">
        <ele>75</ele>
        <time>2021-08-22T11:27:40.000Z</time>
      </trkpt>
      <trkpt lat="47.27259" lon="-1.49922">
        <ele>74</ele>
        <time>2021-08-22T11:27:42.000Z</time>
      </trkpt>
      <trkpt lat="47.27247" lon="-1.49928">
        <ele>74</ele>
        <time>2021-08-22T11:27:44.000Z</time>
      </trkpt>
      <trkpt lat="47.27235" lon="-1.49936">
        <ele>75</ele>
        <time>2021-08-22T11:27:46.000Z</time>
      </trkpt>
      <trkpt lat="47.27224" lon="-1.49948">
        <ele>74</ele>
        <time>2021-08-22T11:27:48.000Z</time>
      </trkpt>
      <trkpt lat="47.27212" lon="-1.49957">
        <ele>74</ele>
        <time>2021-08-22T11:27:50.000Z</time>
      </trkpt>
      <trkpt lat="47.27199" lon="-1.49963">
        <ele>74</ele>
        <time>2021-08-22T11:27:52.000Z</time>
      </trkpt>
      <trkpt lat="47.27187" lon="-1.4997">
        <ele>75</ele>
        <time>2021-08-22T11:27:54.000Z</time>
      </trkpt>
      <trkpt lat="47.27176" lon="-1.49979">
        <ele>75</ele>
        <time>2021-08-22T11:27:56.000Z</time>
      </trkpt>
      <trkpt lat="47.27164" lon="-1.49988">
        <ele>76</ele>
        <time>2021-08-22T11:27:58.000Z</time>
      </trkpt>
      <trkpt lat="47.27152" lon="-1.49998">
        <ele>76</ele>
        <time>2021-08-22T11:28:00.000Z</time>
      </trkpt>
      <trkpt lat="47.27141" lon="-1.50007">
        <ele>76</ele>
        <time>2021-08-22T11:28:02.000Z</time>
      </trkpt>
      <trkpt lat="47.27129" lon="-1.50017">
        <ele>77</ele>
        <time>2021-08-22T11:28:04.000Z</time>
      </trkpt>
      <trkpt lat="47.27117" lon="-1.50027">
        <ele>77</ele>
        <time>2021-08-22T11:28:06.000Z</time>
      </trkpt>
      <trkpt lat="47.27105" lon="-1.50037">
        <ele>78</ele>
        <time>2021-08-22T11:28:08.000Z</time>
      </trkpt>
      <trkpt lat="47.27094" lon="-1.50047">
        <ele>77</ele>
        <time>2021-08-22T11:28:10.000Z</time>
      </trkpt>
      <trkpt lat="47.27082" lon="-1.50057">
        <ele>78</ele>
        <time>2021-08-22T11:28:12.000Z</time>
      </trkpt>
      <trkpt lat="47.27071" lon="-1.50067">
        <ele>78</ele>
        <time>2021-08-22T11:28:14.000Z</time>
      </trkpt>
      <trkpt lat="47.27059" lon="-1.50077">
        <ele>78</ele>
        <time>2021-08-22T11:28:16.000Z</time>
      </trkpt>
      <trkpt lat="47.27048" lon="-1.50087">
        <ele>77</ele>
        <time>2021-08-22T11:28:18.000Z</time>
      </trkpt>
      <trkpt lat="47.27036" lon="-1.50097">
        <ele>77</ele>
        <time>2021-08-22T11:28:20.000Z</time>
      </trkpt>
      <trkpt lat="47.27024" lon="-1.50106">
        <ele>77</ele>
        <time>2021-08-22T11:28:22.000Z</time>
      </trkpt>
      <trkpt lat="47.27013" lon="-1.50115">
        <ele>77</ele>
        <time>2021-08-22T11:28:24.000Z</time>
      </trkpt>
      <trkpt lat="47.27001" lon="-1.50123">
        <ele>77</ele>
        <time>2021-08-22T11:28:26.000Z</time>
      </trkpt>
      <trkpt lat="47.2699" lon="-1.50132">
        <ele>77</ele>
        <time>2021-08-22T11:28:28.000Z</time>
      </trkpt>
      <trkpt lat="47.26978" lon="-1.50139">
        <ele>78</ele>
        <time>2021-08-22T11:28:30.000Z</time>
      </trkpt>
      <trkpt lat="47.26967" lon="-1.50146">
        <ele>78</ele>
        <time>2021-08-22T11:28:32.000Z</time>
      </trkpt>
      <trkpt lat="47.26955" lon="-1.50152">
        <ele>79</ele>
        <time>2021-08-22T11:28:34.000Z</time>
      </trkpt>
      <trkpt lat="47.26942" lon="-1.50158">
        <ele>78</ele>
        <time>2021-08-22T11:28:36.000Z</time>
      </trkpt>
      <trkpt lat="47.2693" lon="-1.50166">
        <ele>78</ele>
        <time>2021-08-22T11:28:38.000Z</time>
      </trkpt>
      <trkpt lat="47.26917" lon="-1.50175">
        <ele>78</ele>
        <time>2021-08-22T11:28:40.000Z</time>
      </trkpt>
      <trkpt lat="47.26904" lon="-1.50182">
        <ele>78</ele>
        <time>2021-08-22T11:28:42.000Z</time>
      </trkpt>
      <trkpt lat="47.26891" lon="-1.50188">
        <ele>78</ele>
        <time>2021-08-22T11:28:44.000Z</time>
      </trkpt>
      <trkpt lat="47.26879" lon="-1.50195">
        <ele>78</ele>
        <time>2021-08-22T11:28:46.000Z</time>
      </trkpt>
      <trkpt lat="47.26865" lon="-1.50198">
        <ele>79</ele>
        <time>2021-08-22T11:28:48.000Z</time>
      </trkpt>
      <trkpt lat="47.26853" lon="-1.50204">
        <ele>80</ele>
        <time>2021-08-22T11:28:50.000Z</time>
      </trkpt>
      <trkpt lat="47.2684" lon="-1.5021">
        <ele>80</ele>
        <time>2021-08-22T11:28:52.000Z</time>
      </trkpt>
      <trkpt lat="47.26827" lon="-1.50217">
        <ele>79</ele>
        <time>2021-08-22T11:28:54.000Z</time>
      </trkpt>
      <trkpt lat="47.26814" lon="-1.50221">
        <ele>80</ele>
        <time>2021-08-22T11:28:56.000Z</time>
      </trkpt>
      <trkpt lat="47.26802" lon="-1.50226">
        <ele>81</ele>
        <time>2021-08-22T11:28:58.000Z</time>
      </trkpt>
      <trkpt lat="47.26789" lon="-1.50229">
        <ele>82</ele>
        <time>2021-08-22T11:29:00.000Z</time>
      </trkpt>
      <trkpt lat="47.26776" lon="-1.50235">
        <ele>83</ele>
        <time>2021-08-22T11:29:02.000Z</time>
      </trkpt>
      <trkpt lat="47.26764" lon="-1.50243">
        <ele>82</ele>
        <time>2021-08-22T11:29:04.000Z</time>
      </trkpt>
      <trkpt lat="47.26751" lon="-1.50248">
        <ele>83</ele>
        <time>2021-08-22T11:29:06.000Z</time>
      </trkpt>
      <trkpt lat="47.26739" lon="-1.50258">
        <ele>82</ele>
        <time>2021-08-22T11:29:08.000Z</time>
      </trkpt>
      <trkpt lat="47.26727" lon="-1.50266">
        <ele>81</ele>
        <time>2021-08-22T11:29:10.000Z</time>
      </trkpt>
      <trkpt lat="47.26716" lon="-1.50275">
        <ele>81</ele>
        <time>2021-08-22T11:29:12.000Z</time>
      </trkpt>
      <trkpt lat="47.26706" lon="-1.50287">
        <ele>80</ele>
        <time>2021-08-22T11:29:14.000Z</time>
      </trkpt>
      <trkpt lat="47.26697" lon="-1.50299">
        <ele>79</ele>
        <time>2021-08-22T11:29:16.000Z</time>
      </trkpt>
      <trkpt lat="47.26689" lon="-1.50312">
        <ele>79</ele>
        <time>2021-08-22T11:29:18.000Z</time>
      </trkpt>
      <trkpt lat="47.26681" lon="-1.50326">
        <ele>79</ele>
        <time>2021-08-22T11:29:20.000Z</time>
      </trkpt>
      <trkpt lat="47.2667" lon="-1.50335">
        <ele>79</ele>
        <time>2021-08-22T11:29:22.000Z</time>
      </trkpt>
      <trkpt lat="47.26657" lon="-1.50339">
        <ele>79</ele>
        <time>2021-08-22T11:29:24.000Z</time>
      </trkpt>
      <trkpt lat="47.26645" lon="-1.50347">
        <ele>79</ele>
        <time>2021-08-22T11:29:26.000Z</time>
      </trkpt>
      <trkpt lat="47.26633" lon="-1.50357">
        <ele>78</ele>
        <time>2021-08-22T11:29:28.000Z</time>
      </trkpt>
      <trkpt lat="47.26622" lon="-1.50369">
        <ele>78</ele>
        <time>2021-08-22T11:29:30.000Z</time>
      </trkpt>
      <trkpt lat="47.26613" lon="-1.50381">
        <ele>79</ele>
        <time>2021-08-22T11:29:32.000Z</time>
      </trkpt>
      <trkpt lat="47.26604" lon="-1.50394">
        <ele>79</ele>
        <time>2021-08-22T11:29:34.000Z</time>
      </trkpt>
      <trkpt lat="47.26595" lon="-1.50408">
        <ele>79</ele>
        <time>2021-08-22T11:29:36.000Z</time>
      </trkpt>
      <trkpt lat="47.26587" lon="-1.50421">
        <ele>80</ele>
        <time>2021-08-22T11:29:38.000Z</time>
      </trkpt>
      <trkpt lat="47.26578" lon="-1.50434">
        <ele>81</ele>
        <time>2021-08-22T11:29:40.000Z</time>
      </trkpt>
      <trkpt lat="47.26569" lon="-1.50447">
        <ele>81</ele>
        <time>2021-08-22T11:29:42.000Z</time>
      </trkpt>
      <trkpt lat="47.26559" lon="-1.5046">
        <ele>81</ele>
        <time>2021-08-22T11:29:44.000Z</time>
      </trkpt>
      <trkpt lat="47.2655" lon="-1.50474">
        <ele>81</ele>
        <time>2021-08-22T11:29:46.000Z</time>
      </trkpt>
      <trkpt lat="47.26541" lon="-1.50488">
        <ele>81</ele>
        <time>2021-08-22T11:29:48.000Z</time>
      </trkpt>
      <trkpt lat="47.26531" lon="-1.50502">
        <ele>81</ele>
        <time>2021-08-22T11:29:50.000Z</time>
      </trkpt>
      <trkpt lat="47.26522" lon="-1.50517">
        <ele>81</ele>
        <time>2021-08-22T11:29:52.000Z</time>
      </trkpt>
      <trkpt lat="47.26512" lon="-1.50531">
        <ele>80</ele>
        <time>2021-08-22T11:29:54.000Z</time>
      </trkpt>
      <trkpt lat="47.26503" lon="-1.50544">
        <ele>80</ele>
        <time>2021-08-22T11:29:56.000Z</time>
      </trkpt>
      <trkpt lat="47.26494" lon="-1.50559">
        <ele>80</ele>
        <time>2021-08-22T11:29:58.000Z</time>
      </trkpt>
      <trkpt lat="47.26485" lon="-1.50573">
        <ele>80</ele>
        <time>2021-08-22T11:30:00.000Z</time>
      </trkpt>
      <trkpt lat="47.26475" lon="-1.50587">
        <ele>80</ele>
        <time>2021-08-22T11:30:02.000Z</time>
      </trkpt>
      <trkpt lat="47.26466" lon="-1.50601">
        <ele>79</ele>
        <time>2021-08-22T11:30:04.000Z</time>
      </trkpt>
      <trkpt lat="47.26457" lon="-1.50615">
        <ele>78</ele>
        <time>2021-08-22T11:30:06.000Z</time>
      </trkpt>
      <trkpt lat="47.26447" lon="-1.50629">
        <ele>78</ele>
        <time>2021-08-22T11:30:08.000Z</time>
      </trkpt>
      <trkpt lat="47.26438" lon="-1.50642">
        <ele>78</ele>
        <time>2021-08-22T11:30:10.000Z</time>
      </trkpt>
      <trkpt lat="47.26429" lon="-1.50655">
        <ele>78</ele>
        <time>2021-08-22T11:30:12.000Z</time>
      </trkpt>
      <trkpt lat="47.2642" lon="-1.50669">
        <ele>78</ele>
        <time>2021-08-22T11:30:14.000Z</time>
      </trkpt>
      <trkpt lat="47.2641" lon="-1.50681">
        <ele>78</ele>
        <time>2021-08-22T11:30:16.000Z</time>
      </trkpt>
      <trkpt lat="47.26399" lon="-1.50693">
        <ele>78</ele>
        <time>2021-08-22T11:30:18.000Z</time>
      </trkpt>
      <trkpt lat="47.26388" lon="-1.50703">
        <ele>77</ele>
        <time>2021-08-22T11:30:20.000Z</time>
      </trkpt>
      <trkpt lat="47.26377" lon="-1.50712">
        <ele>77</ele>
        <time>2021-08-22T11:30:22.000Z</time>
      </trkpt>
      <trkpt lat="47.26365" lon="-1.5072">
        <ele>77</ele>
        <time>2021-08-22T11:30:24.000Z</time>
      </trkpt>
      <trkpt lat="47.26354" lon="-1.50726">
        <ele>77</ele>
        <time>2021-08-22T11:30:26.000Z</time>
      </trkpt>
      <trkpt lat="47.26343" lon="-1.50735">
        <ele>77</ele>
        <time>2021-08-22T11:30:28.000Z</time>
      </trkpt>
      <trkpt lat="47.26336" lon="-1.50748">
        <ele>77</ele>
        <time>2021-08-22T11:30:30.000Z</time>
      </trkpt>
      <trkpt lat="47.26328" lon="-1.50762">
        <ele>77</ele>
        <time>2021-08-22T11:30:32.000Z</time>
      </trkpt>
      <trkpt lat="47.26314" lon="-1.50768">
        <ele>77</ele>
        <time>2021-08-22T11:30:34.000Z</time>
      </trkpt>
      <trkpt lat="47.263" lon="-1.50768">
        <ele>77</ele>
        <time>2021-08-22T11:30:36.000Z</time>
      </trkpt>
      <trkpt lat="47.26286" lon="-1.50772">
        <ele>76</ele>
        <time>2021-08-22T11:30:38.000Z</time>
      </trkpt>
      <trkpt lat="47.26273" lon="-1.50781">
        <ele>76</ele>
        <time>2021-08-22T11:30:40.000Z</time>
      </trkpt>
      <trkpt lat="47.26261" lon="-1.50789">
        <ele>76</ele>
        <time>2021-08-22T11:30:42.000Z</time>
      </trkpt>
      <trkpt lat="47.26249" lon="-1.50796">
        <ele>76</ele>
        <time>2021-08-22T11:30:44.000Z</time>
      </trkpt>
      <trkpt lat="47.26236" lon="-1.50804">
        <ele>76</ele>
        <time>2021-08-22T11:30:46.000Z</time>
      </trkpt>
      <trkpt lat="47.26223" lon="-1.50813">
        <ele>76</ele>
        <time>2021-08-22T11:30:48.000Z</time>
      </trkpt>
      <trkpt lat="47.2621" lon="-1.5082">
        <ele>76</ele>
        <time>2021-08-22T11:30:50.000Z</time>
      </trkpt>
      <trkpt lat="47.26197" lon="-1.50828">
        <ele>76</ele>
        <time>2021-08-22T11:30:52.000Z</time>
      </trkpt>
      <trkpt lat="47.26184" lon="-1.50836">
        <ele>76</ele>
        <time>2021-08-22T11:30:54.000Z</time>
      </trkpt>
      <trkpt lat="47.26171" lon="-1.50845">
        <ele>76</ele>
        <time>2021-08-22T11:30:56.000Z</time>
      </trkpt>
      <trkpt lat="47.26158" lon="-1.50854">
        <ele>76</ele>
        <time>2021-08-22T11:30:58.000Z</time>
      </trkpt>
      <trkpt lat="47.26146" lon="-1.50862">
        <ele>76</ele>
        <time>2021-08-22T11:31:00.000Z</time>
      </trkpt>
      <trkpt lat="47.26134" lon="-1.50872">
        <ele>75</ele>
        <time>2021-08-22T11:31:02.000Z</time>
      </trkpt>
      <trkpt lat="47.26122" lon="-1.50882">
        <ele>75</ele>
        <time>2021-08-22T11:31:04.000Z</time>
      </trkpt>
      <trkpt lat="47.26111" lon="-1.50892">
        <ele>75</ele>
        <time>2021-08-22T11:31:06.000Z</time>
      </trkpt>
      <trkpt lat="47.261" lon="-1.50903">
        <ele>75</ele>
        <time>2021-08-22T11:31:08.000Z</time>
      </trkpt>
      <trkpt lat="47.26089" lon="-1.50916">
        <ele>74</ele>
        <time>2021-08-22T11:31:10.000Z</time>
      </trkpt>
      <trkpt lat="47.26078" lon="-1.50927">
        <ele>75</ele>
        <time>2021-08-22T11:31:12.000Z</time>
      </trkpt>
      <trkpt lat="47.26068" lon="-1.50939">
        <ele>74</ele>
        <time>2021-08-22T11:31:14.000Z</time>
      </trkpt>
      <trkpt lat="47.26058" lon="-1.50951">
        <ele>75</ele>
        <time>2021-08-22T11:31:16.000Z</time>
      </trkpt>
      <trkpt lat="47.26049" lon="-1.50963">
        <ele>75</ele>
        <time>2021-08-22T11:31:18.000Z</time>
      </trkpt>
      <trkpt lat="47.2604" lon="-1.50977">
        <ele>75</ele>
        <time>2021-08-22T11:31:20.000Z</time>
      </trkpt>
      <trkpt lat="47.26031" lon="-1.5099">
        <ele>75</ele>
        <time>2021-08-22T11:31:22.000Z</time>
      </trkpt>
      <trkpt lat="47.26022" lon="-1.51004">
        <ele>75</ele>
        <time>2021-08-22T11:31:24.000Z</time>
      </trkpt>
      <trkpt lat="47.26014" lon="-1.51018">
        <ele>76</ele>
        <time>2021-08-22T11:31:26.000Z</time>
      </trkpt>
      <trkpt lat="47.26006" lon="-1.51032">
        <ele>76</ele>
        <time>2021-08-22T11:31:28.000Z</time>
      </trkpt>
      <trkpt lat="47.25998" lon="-1.51046">
        <ele>76</ele>
        <time>2021-08-22T11:31:30.000Z</time>
      </trkpt>
      <trkpt lat="47.25991" lon="-1.5106">
        <ele>76</ele>
        <time>2021-08-22T11:31:32.000Z</time>
      </trkpt>
      <trkpt lat="47.25984" lon="-1.51075">
        <ele>77</ele>
        <time>2021-08-22T11:31:34.000Z</time>
      </trkpt>
      <trkpt lat="47.25978" lon="-1.51089">
        <ele>77</ele>
        <time>2021-08-22T11:31:36.000Z</time>
      </trkpt>
      <trkpt lat="47.25974" lon="-1.51103">
        <ele>77</ele>
        <time>2021-08-22T11:31:38.000Z</time>
      </trkpt>
      <trkpt lat="47.25973" lon="-1.51118">
        <ele>78</ele>
        <time>2021-08-22T11:31:40.000Z</time>
      </trkpt>
      <trkpt lat="47.25972" lon="-1.51135">
        <ele>77</ele>
        <time>2021-08-22T11:31:42.000Z</time>
      </trkpt>
      <trkpt lat="47.25964" lon="-1.51147">
        <ele>78</ele>
        <time>2021-08-22T11:31:44.000Z</time>
      </trkpt>
      <trkpt lat="47.25953" lon="-1.51157">
        <ele>78</ele>
        <time>2021-08-22T11:31:46.000Z</time>
      </trkpt>
      <trkpt lat="47.25943" lon="-1.51169">
        <ele>78</ele>
        <time>2021-08-22T11:31:48.000Z</time>
      </trkpt>
      <trkpt lat="47.25935" lon="-1.51185">
        <ele>78</ele>
        <time>2021-08-22T11:31:50.000Z</time>
      </trkpt>
      <trkpt lat="47.25927" lon="-1.51199">
        <ele>78</ele>
        <time>2021-08-22T11:31:52.000Z</time>
      </trkpt>
      <trkpt lat="47.25919" lon="-1.51214">
        <ele>79</ele>
        <time>2021-08-22T11:31:54.000Z</time>
      </trkpt>
      <trkpt lat="47.25913" lon="-1.51231">
        <ele>79</ele>
        <time>2021-08-22T11:31:56.000Z</time>
      </trkpt>
      <trkpt lat="47.25906" lon="-1.51247">
        <ele>79</ele>
        <time>2021-08-22T11:31:58.000Z</time>
      </trkpt>
      <trkpt lat="47.259" lon="-1.51263">
        <ele>79</ele>
        <time>2021-08-22T11:32:00.000Z</time>
      </trkpt>
      <trkpt lat="47.25893" lon="-1.51279">
        <ele>79</ele>
        <time>2021-08-22T11:32:02.000Z</time>
      </trkpt>
      <trkpt lat="47.25887" lon="-1.51295">
        <ele>80</ele>
        <time>2021-08-22T11:32:04.000Z</time>
      </trkpt>
      <trkpt lat="47.25882" lon="-1.51312">
        <ele>81</ele>
        <time>2021-08-22T11:32:06.000Z</time>
      </trkpt>
      <trkpt lat="47.25878" lon="-1.5133">
        <ele>81</ele>
        <time>2021-08-22T11:32:08.000Z</time>
      </trkpt>
      <trkpt lat="47.25873" lon="-1.51347">
        <ele>81</ele>
        <time>2021-08-22T11:32:10.000Z</time>
      </trkpt>
      <trkpt lat="47.25868" lon="-1.51364">
        <ele>81</ele>
        <time>2021-08-22T11:32:12.000Z</time>
      </trkpt>
      <trkpt lat="47.25863" lon="-1.51381">
        <ele>81</ele>
        <time>2021-08-22T11:32:14.000Z</time>
      </trkpt>
      <trkpt lat="47.25859" lon="-1.51398">
        <ele>81</ele>
        <time>2021-08-22T11:32:16.000Z</time>
      </trkpt>
      <trkpt lat="47.25855" lon="-1.51415">
        <ele>81</ele>
        <time>2021-08-22T11:32:18.000Z</time>
      </trkpt>
      <trkpt lat="47.25851" lon="-1.51431">
        <ele>80</ele>
        <time>2021-08-22T11:32:20.000Z</time>
      </trkpt>
      <trkpt lat="47.25849" lon="-1.51447">
        <ele>81</ele>
        <time>2021-08-22T11:32:22.000Z</time>
      </trkpt>
      <trkpt lat="47.25846" lon="-1.51462">
        <ele>81</ele>
        <time>2021-08-22T11:32:24.000Z</time>
      </trkpt>
      <trkpt lat="47.25845" lon="-1.51476">
        <ele>80</ele>
        <time>2021-08-22T11:32:26.000Z</time>
      </trkpt>
      <trkpt lat="47.25843" lon="-1.51489">
        <ele>80</ele>
        <time>2021-08-22T11:32:28.000Z</time>
      </trkpt>
      <trkpt lat="47.25841" lon="-1.51506">
        <ele>80</ele>
        <time>2021-08-22T11:32:31.000Z</time>
      </trkpt>
      <trkpt lat="47.2584" lon="-1.5152">
        <ele>80</ele>
        <time>2021-08-22T11:32:33.000Z</time>
      </trkpt>
      <trkpt lat="47.25839" lon="-1.51539">
        <ele>80</ele>
        <time>2021-08-22T11:32:35.000Z</time>
      </trkpt>
      <trkpt lat="47.25838" lon="-1.51559">
        <ele>80</ele>
        <time>2021-08-22T11:32:37.000Z</time>
      </trkpt>
      <trkpt lat="47.25837" lon="-1.51578">
        <ele>80</ele>
        <time>2021-08-22T11:32:39.000Z</time>
      </trkpt>
      <trkpt lat="47.25836" lon="-1.51598">
        <ele>80</ele>
        <time>2021-08-22T11:32:41.000Z</time>
      </trkpt>
      <trkpt lat="47.25835" lon="-1.51616">
        <ele>80</ele>
        <time>2021-08-22T11:32:43.000Z</time>
      </trkpt>
      <trkpt lat="47.25836" lon="-1.51635">
        <ele>80</ele>
        <time>2021-08-22T11:32:45.000Z</time>
      </trkpt>
      <trkpt lat="47.25837" lon="-1.51654">
        <ele>80</ele>
        <time>2021-08-22T11:32:47.000Z</time>
      </trkpt>
      <trkpt lat="47.25838" lon="-1.51672">
        <ele>80</ele>
        <time>2021-08-22T11:32:49.000Z</time>
      </trkpt>
      <trkpt lat="47.25841" lon="-1.51691">
        <ele>80</ele>
        <time>2021-08-22T11:32:51.000Z</time>
      </trkpt>
      <trkpt lat="47.25843" lon="-1.51708">
        <ele>81</ele>
        <time>2021-08-22T11:32:53.000Z</time>
      </trkpt>
      <trkpt lat="47.25845" lon="-1.51726">
        <ele>81</ele>
        <time>2021-08-22T11:32:55.000Z</time>
      </trkpt>
      <trkpt lat="47.25847" lon="-1.51744">
        <ele>82</ele>
        <time>2021-08-22T11:32:57.000Z</time>
      </trkpt>
      <trkpt lat="47.25849" lon="-1.51762">
        <ele>81</ele>
        <time>2021-08-22T11:32:59.000Z</time>
      </trkpt>
      <trkpt lat="47.25851" lon="-1.51781">
        <ele>81</ele>
        <time>2021-08-22T11:33:01.000Z</time>
      </trkpt>
      <trkpt lat="47.25853" lon="-1.518">
        <ele>81</ele>
        <time>2021-08-22T11:33:03.000Z</time>
      </trkpt>
      <trkpt lat="47.25855" lon="-1.51818">
        <ele>81</ele>
        <time>2021-08-22T11:33:05.000Z</time>
      </trkpt>
      <trkpt lat="47.25857" lon="-1.51835">
        <ele>81</ele>
        <time>2021-08-22T11:33:07.000Z</time>
      </trkpt>
      <trkpt lat="47.25859" lon="-1.51853">
        <ele>81</ele>
        <time>2021-08-22T11:33:09.000Z</time>
      </trkpt>
      <trkpt lat="47.25861" lon="-1.5187">
        <ele>81</ele>
        <time>2021-08-22T11:33:11.000Z</time>
      </trkpt>
      <trkpt lat="47.25864" lon="-1.51887">
        <ele>81</ele>
        <time>2021-08-22T11:33:13.000Z</time>
      </trkpt>
      <trkpt lat="47.25866" lon="-1.51904">
        <ele>81</ele>
        <time>2021-08-22T11:33:15.000Z</time>
      </trkpt>
      <trkpt lat="47.25869" lon="-1.5192">
        <ele>81</ele>
        <time>2021-08-22T11:33:17.000Z</time>
      </trkpt>
      <trkpt lat="47.25873" lon="-1.51936">
        <ele>80</ele>
        <time>2021-08-22T11:33:19.000Z</time>
      </trkpt>
      <trkpt lat="47.25876" lon="-1.51953">
        <ele>80</ele>
        <time>2021-08-22T11:33:21.000Z</time>
      </trkpt>
      <trkpt lat="47.25876" lon="-1.51971">
        <ele>80</ele>
        <time>2021-08-22T11:33:23.000Z</time>
      </trkpt>
      <trkpt lat="47.25876" lon="-1.51988">
        <ele>80</ele>
        <time>2021-08-22T11:33:25.000Z</time>
      </trkpt>
      <trkpt lat="47.25878" lon="-1.52005">
        <ele>80</ele>
        <time>2021-08-22T11:33:27.000Z</time>
      </trkpt>
      <trkpt lat="47.25879" lon="-1.52023">
        <ele>80</ele>
        <time>2021-08-22T11:33:29.000Z</time>
      </trkpt>
      <trkpt lat="47.25881" lon="-1.52041">
        <ele>80</ele>
        <time>2021-08-22T11:33:31.000Z</time>
      </trkpt>
      <trkpt lat="47.25883" lon="-1.5206">
        <ele>80</ele>
        <time>2021-08-22T11:33:33.000Z</time>
      </trkpt>
      <trkpt lat="47.25885" lon="-1.5208">
        <ele>80</ele>
        <time>2021-08-22T11:33:35.000Z</time>
      </trkpt>
      <trkpt lat="47.25886" lon="-1.521">
        <ele>80</ele>
        <time>2021-08-22T11:33:37.000Z</time>
      </trkpt>
      <trkpt lat="47.25888" lon="-1.52121">
        <ele>79</ele>
        <time>2021-08-22T11:33:39.000Z</time>
      </trkpt>
      <trkpt lat="47.2589" lon="-1.5214">
        <ele>79</ele>
        <time>2021-08-22T11:33:41.000Z</time>
      </trkpt>
      <trkpt lat="47.2589" lon="-1.5216">
        <ele>79</ele>
        <time>2021-08-22T11:33:43.000Z</time>
      </trkpt>
      <trkpt lat="47.25893" lon="-1.5218">
        <ele>80</ele>
        <time>2021-08-22T11:33:45.000Z</time>
      </trkpt>
      <trkpt lat="47.25894" lon="-1.52201">
        <ele>79</ele>
        <time>2021-08-22T11:33:47.000Z</time>
      </trkpt>
      <trkpt lat="47.25894" lon="-1.52222">
        <ele>78</ele>
        <time>2021-08-22T11:33:49.000Z</time>
      </trkpt>
      <trkpt lat="47.25894" lon="-1.52243">
        <ele>77</ele>
        <time>2021-08-22T11:33:51.000Z</time>
      </trkpt>
      <trkpt lat="47.25895" lon="-1.52265">
        <ele>77</ele>
        <time>2021-08-22T11:33:53.000Z</time>
      </trkpt>
      <trkpt lat="47.25896" lon="-1.52285">
        <ele>76</ele>
        <time>2021-08-22T11:33:55.000Z</time>
      </trkpt>
      <trkpt lat="47.25896" lon="-1.52306">
        <ele>76</ele>
        <time>2021-08-22T11:33:57.000Z</time>
      </trkpt>
      <trkpt lat="47.25897" lon="-1.52325">
        <ele>76</ele>
        <time>2021-08-22T11:33:59.000Z</time>
      </trkpt>
      <trkpt lat="47.25897" lon="-1.52346">
        <ele>75</ele>
        <time>2021-08-22T11:34:01.000Z</time>
      </trkpt>
      <trkpt lat="47.25897" lon="-1.52366">
        <ele>75</ele>
        <time>2021-08-22T11:34:03.000Z</time>
      </trkpt>
      <trkpt lat="47.25897" lon="-1.52387">
        <ele>75</ele>
        <time>2021-08-22T11:34:05.000Z</time>
      </trkpt>
      <trkpt lat="47.25897" lon="-1.52408">
        <ele>74</ele>
        <time>2021-08-22T11:34:07.000Z</time>
      </trkpt>
      <trkpt lat="47.25897" lon="-1.52429">
        <ele>74</ele>
        <time>2021-08-22T11:34:09.000Z</time>
      </trkpt>
      <trkpt lat="47.25898" lon="-1.5245">
        <ele>74</ele>
        <time>2021-08-22T11:34:11.000Z</time>
      </trkpt>
      <trkpt lat="47.25898" lon="-1.52471">
        <ele>74</ele>
        <time>2021-08-22T11:34:13.000Z</time>
      </trkpt>
      <trkpt lat="47.25899" lon="-1.5249">
        <ele>73</ele>
        <time>2021-08-22T11:34:15.000Z</time>
      </trkpt>
      <trkpt lat="47.25899" lon="-1.52511">
        <ele>73</ele>
        <time>2021-08-22T11:34:17.000Z</time>
      </trkpt>
      <trkpt lat="47.259" lon="-1.52531">
        <ele>72</ele>
        <time>2021-08-22T11:34:19.000Z</time>
      </trkpt>
      <trkpt lat="47.25899" lon="-1.52553">
        <ele>72</ele>
        <time>2021-08-22T11:34:21.000Z</time>
      </trkpt>
      <trkpt lat="47.25898" lon="-1.52574">
        <ele>71</ele>
        <time>2021-08-22T11:34:23.000Z</time>
      </trkpt>
      <trkpt lat="47.25899" lon="-1.52596">
        <ele>71</ele>
        <time>2021-08-22T11:34:25.000Z</time>
      </trkpt>
      <trkpt lat="47.25898" lon="-1.52616">
        <ele>70</ele>
        <time>2021-08-22T11:34:27.000Z</time>
      </trkpt>
      <trkpt lat="47.25898" lon="-1.52638">
        <ele>70</ele>
        <time>2021-08-22T11:34:29.000Z</time>
      </trkpt>
      <trkpt lat="47.25898" lon="-1.52658">
        <ele>70</ele>
        <time>2021-08-22T11:34:31.000Z</time>
      </trkpt>
      <trkpt lat="47.25898" lon="-1.52678">
        <ele>70</ele>
        <time>2021-08-22T11:34:33.000Z</time>
      </trkpt>
      <trkpt lat="47.25898" lon="-1.52698">
        <ele>70</ele>
        <time>2021-08-22T11:34:35.000Z</time>
      </trkpt>
      <trkpt lat="47.25899" lon="-1.52718">
        <ele>70</ele>
        <time>2021-08-22T11:34:37.000Z</time>
      </trkpt>
      <trkpt lat="47.259" lon="-1.52736">
        <ele>70</ele>
        <time>2021-08-22T11:34:39.000Z</time>
      </trkpt>
      <trkpt lat="47.25901" lon="-1.52755">
        <ele>69</ele>
        <time>2021-08-22T11:34:41.000Z</time>
      </trkpt>
      <trkpt lat="47.25904" lon="-1.52771">
        <ele>70</ele>
        <time>2021-08-22T11:34:43.000Z</time>
      </trkpt>
      <trkpt lat="47.25906" lon="-1.52786">
        <ele>69</ele>
        <time>2021-08-22T11:34:45.000Z</time>
      </trkpt>
      <trkpt lat="47.25897" lon="-1.52797">
        <ele>69</ele>
        <time>2021-08-22T11:34:47.000Z</time>
      </trkpt>
      <trkpt lat="47.25885" lon="-1.52798">
        <ele>68</ele>
        <time>2021-08-22T11:34:49.000Z</time>
      </trkpt>
      <trkpt lat="47.25872" lon="-1.52801">
        <ele>68</ele>
        <time>2021-08-22T11:34:51.000Z</time>
      </trkpt>
      <trkpt lat="47.2586" lon="-1.52806">
        <ele>69</ele>
        <time>2021-08-22T11:34:53.000Z</time>
      </trkpt>
      <trkpt lat="47.25849" lon="-1.52813">
        <ele>69</ele>
        <time>2021-08-22T11:34:55.000Z</time>
      </trkpt>
      <trkpt lat="47.25838" lon="-1.5282">
        <ele>69</ele>
        <time>2021-08-22T11:34:57.000Z</time>
      </trkpt>
      <trkpt lat="47.25826" lon="-1.52829">
        <ele>69</ele>
        <time>2021-08-22T11:34:59.000Z</time>
      </trkpt>
      <trkpt lat="47.25814" lon="-1.52838">
        <ele>68</ele>
        <time>2021-08-22T11:35:01.000Z</time>
      </trkpt>
      <trkpt lat="47.25801" lon="-1.52848">
        <ele>67</ele>
        <time>2021-08-22T11:35:03.000Z</time>
      </trkpt>
      <trkpt lat="47.25788" lon="-1.52858">
        <ele>67</ele>
        <time>2021-08-22T11:35:05.000Z</time>
      </trkpt>
      <trkpt lat="47.25775" lon="-1.5287">
        <ele>66</ele>
        <time>2021-08-22T11:35:07.000Z</time>
      </trkpt>
      <trkpt lat="47.25761" lon="-1.52881">
        <ele>66</ele>
        <time>2021-08-22T11:35:09.000Z</time>
      </trkpt>
      <trkpt lat="47.25748" lon="-1.52892">
        <ele>66</ele>
        <time>2021-08-22T11:35:11.000Z</time>
      </trkpt>
      <trkpt lat="47.25736" lon="-1.52901">
        <ele>66</ele>
        <time>2021-08-22T11:35:13.000Z</time>
      </trkpt>
      <trkpt lat="47.25725" lon="-1.52911">
        <ele>66</ele>
        <time>2021-08-22T11:35:15.000Z</time>
      </trkpt>
      <trkpt lat="47.25713" lon="-1.52921">
        <ele>67</ele>
        <time>2021-08-22T11:35:17.000Z</time>
      </trkpt>
      <trkpt lat="47.25701" lon="-1.5293">
        <ele>67</ele>
        <time>2021-08-22T11:35:19.000Z</time>
      </trkpt>
      <trkpt lat="47.2569" lon="-1.52939">
        <ele>67</ele>
        <time>2021-08-22T11:35:21.000Z</time>
      </trkpt>
      <trkpt lat="47.25679" lon="-1.52948">
        <ele>68</ele>
        <time>2021-08-22T11:35:23.000Z</time>
      </trkpt>
      <trkpt lat="47.25668" lon="-1.52955">
        <ele>68</ele>
        <time>2021-08-22T11:35:25.000Z</time>
      </trkpt>
      <trkpt lat="47.25656" lon="-1.52963">
        <ele>69</ele>
        <time>2021-08-22T11:35:27.000Z</time>
      </trkpt>
      <trkpt lat="47.25644" lon="-1.5297">
        <ele>70</ele>
        <time>2021-08-22T11:35:29.000Z</time>
      </trkpt>
      <trkpt lat="47.25632" lon="-1.52976">
        <ele>71</ele>
        <time>2021-08-22T11:35:31.000Z</time>
      </trkpt>
      <trkpt lat="47.2562" lon="-1.52982">
        <ele>72</ele>
        <time>2021-08-22T11:35:33.000Z</time>
      </trkpt>
      <trkpt lat="47.2561" lon="-1.52986">
        <ele>72</ele>
        <time>2021-08-22T11:35:35.000Z</time>
      </trkpt>
      <trkpt lat="47.25599" lon="-1.52992">
        <ele>72</ele>
        <time>2021-08-22T11:35:38.000Z</time>
      </trkpt>
      <trkpt lat="47.25588" lon="-1.53003">
        <ele>72</ele>
        <time>2021-08-22T11:35:41.000Z</time>
      </trkpt>
      <trkpt lat="47.25577" lon="-1.53004">
        <ele>73</ele>
        <time>2021-08-22T11:35:43.000Z</time>
      </trkpt>
      <trkpt lat="47.25566" lon="-1.53007">
        <ele>73</ele>
        <time>2021-08-22T11:35:45.000Z</time>
      </trkpt>
      <trkpt lat="47.25556" lon="-1.5301">
        <ele>72</ele>
        <time>2021-08-22T11:35:47.000Z</time>
      </trkpt>
      <trkpt lat="47.25546" lon="-1.53012">
        <ele>72</ele>
        <time>2021-08-22T11:35:49.000Z</time>
      </trkpt>
      <trkpt lat="47.25536" lon="-1.53012">
        <ele>72</ele>
        <time>2021-08-22T11:35:51.000Z</time>
      </trkpt>
      <trkpt lat="47.25526" lon="-1.53012">
        <ele>72</ele>
        <time>2021-08-22T11:35:53.000Z</time>
      </trkpt>
      <trkpt lat="47.25514" lon="-1.53012">
        <ele>73</ele>
        <time>2021-08-22T11:35:55.000Z</time>
      </trkpt>
      <trkpt lat="47.25504" lon="-1.53013">
        <ele>72</ele>
        <time>2021-08-22T11:35:57.000Z</time>
      </trkpt>
      <trkpt lat="47.25495" lon="-1.53016">
        <ele>73</ele>
        <time>2021-08-22T11:35:59.000Z</time>
      </trkpt>
      <trkpt lat="47.25483" lon="-1.53016">
        <ele>73</ele>
        <time>2021-08-22T11:36:01.000Z</time>
      </trkpt>
      <trkpt lat="47.2547" lon="-1.5301">
        <ele>73</ele>
        <time>2021-08-22T11:36:03.000Z</time>
      </trkpt>
      <trkpt lat="47.25457" lon="-1.53005">
        <ele>74</ele>
        <time>2021-08-22T11:36:05.000Z</time>
      </trkpt>
      <trkpt lat="47.25444" lon="-1.53">
        <ele>74</ele>
        <time>2021-08-22T11:36:07.000Z</time>
      </trkpt>
      <trkpt lat="47.25431" lon="-1.52998">
        <ele>74</ele>
        <time>2021-08-22T11:36:09.000Z</time>
      </trkpt>
      <trkpt lat="47.25419" lon="-1.52997">
        <ele>74</ele>
        <time>2021-08-22T11:36:11.000Z</time>
      </trkpt>
      <trkpt lat="47.25406" lon="-1.52994">
        <ele>74</ele>
        <time>2021-08-22T11:36:13.000Z</time>
      </trkpt>
      <trkpt lat="47.25394" lon="-1.52994">
        <ele>74</ele>
        <time>2021-08-22T11:36:15.000Z</time>
      </trkpt>
      <trkpt lat="47.25382" lon="-1.52995">
        <ele>74</ele>
        <time>2021-08-22T11:36:17.000Z</time>
      </trkpt>
      <trkpt lat="47.2537" lon="-1.52992">
        <ele>74</ele>
        <time>2021-08-22T11:36:19.000Z</time>
      </trkpt>
      <trkpt lat="47.25358" lon="-1.52986">
        <ele>74</ele>
        <time>2021-08-22T11:36:21.000Z</time>
      </trkpt>
      <trkpt lat="47.25346" lon="-1.52985">
        <ele>74</ele>
        <time>2021-08-22T11:36:23.000Z</time>
      </trkpt>
      <trkpt lat="47.25336" lon="-1.52982">
        <ele>74</ele>
        <time>2021-08-22T11:36:25.000Z</time>
      </trkpt>
      <trkpt lat="47.25328" lon="-1.52971">
        <ele>74</ele>
        <time>2021-08-22T11:36:27.000Z</time>
      </trkpt>
      <trkpt lat="47.25322" lon="-1.52958">
        <ele>74</ele>
        <time>2021-08-22T11:36:29.000Z</time>
      </trkpt>
      <trkpt lat="47.25316" lon="-1.52945">
        <ele>75</ele>
        <time>2021-08-22T11:36:31.000Z</time>
      </trkpt>
      <trkpt lat="47.2531" lon="-1.5293">
        <ele>74</ele>
        <time>2021-08-22T11:36:33.000Z</time>
      </trkpt>
      <trkpt lat="47.25302" lon="-1.52914">
        <ele>74</ele>
        <time>2021-08-22T11:36:35.000Z</time>
      </trkpt>
      <trkpt lat="47.25295" lon="-1.52897">
        <ele>75</ele>
        <time>2021-08-22T11:36:37.000Z</time>
      </trkpt>
      <trkpt lat="47.25288" lon="-1.52879">
        <ele>74</ele>
        <time>2021-08-22T11:36:39.000Z</time>
      </trkpt>
      <trkpt lat="47.25281" lon="-1.52863">
        <ele>75</ele>
        <time>2021-08-22T11:36:41.000Z</time>
      </trkpt>
      <trkpt lat="47.25273" lon="-1.52846">
        <ele>75</ele>
        <time>2021-08-22T11:36:43.000Z</time>
      </trkpt>
      <trkpt lat="47.25265" lon="-1.5283">
        <ele>75</ele>
        <time>2021-08-22T11:36:45.000Z</time>
      </trkpt>
      <trkpt lat="47.25258" lon="-1.52815">
        <ele>75</ele>
        <time>2021-08-22T11:36:47.000Z</time>
      </trkpt>
      <trkpt lat="47.25251" lon="-1.52799">
        <ele>75</ele>
        <time>2021-08-22T11:36:49.000Z</time>
      </trkpt>
      <trkpt lat="47.25242" lon="-1.52784">
        <ele>75</ele>
        <time>2021-08-22T11:36:51.000Z</time>
      </trkpt>
      <trkpt lat="47.25234" lon="-1.52768">
        <ele>75</ele>
        <time>2021-08-22T11:36:53.000Z</time>
      </trkpt>
      <trkpt lat="47.25226" lon="-1.52754">
        <ele>76</ele>
        <time>2021-08-22T11:36:55.000Z</time>
      </trkpt>
      <trkpt lat="47.25217" lon="-1.5274">
        <ele>76</ele>
        <time>2021-08-22T11:36:57.000Z</time>
      </trkpt>
      <trkpt lat="47.25209" lon="-1.52725">
        <ele>76</ele>
        <time>2021-08-22T11:36:59.000Z</time>
      </trkpt>
      <trkpt lat="47.25201" lon="-1.52711">
        <ele>76</ele>
        <time>2021-08-22T11:37:01.000Z</time>
      </trkpt>
      <trkpt lat="47.25193" lon="-1.52696">
        <ele>76</ele>
        <time>2021-08-22T11:37:03.000Z</time>
      </trkpt>
      <trkpt lat="47.25184" lon="-1.52681">
        <ele>76</ele>
        <time>2021-08-22T11:37:05.000Z</time>
      </trkpt>
      <trkpt lat="47.25176" lon="-1.52667">
        <ele>76</ele>
        <time>2021-08-22T11:37:07.000Z</time>
      </trkpt>
      <trkpt lat="47.25167" lon="-1.52653">
        <ele>76</ele>
        <time>2021-08-22T11:37:09.000Z</time>
      </trkpt>
      <trkpt lat="47.25158" lon="-1.52639">
        <ele>76</ele>
        <time>2021-08-22T11:37:11.000Z</time>
      </trkpt>
      <trkpt lat="47.25149" lon="-1.52624">
        <ele>75</ele>
        <time>2021-08-22T11:37:13.000Z</time>
      </trkpt>
      <trkpt lat="47.25141" lon="-1.52611">
        <ele>76</ele>
        <time>2021-08-22T11:37:15.000Z</time>
      </trkpt>
      <trkpt lat="47.25132" lon="-1.52596">
        <ele>76</ele>
        <time>2021-08-22T11:37:17.000Z</time>
      </trkpt>
      <trkpt lat="47.25123" lon="-1.52582">
        <ele>76</ele>
        <time>2021-08-22T11:37:19.000Z</time>
      </trkpt>
      <trkpt lat="47.25114" lon="-1.52568">
        <ele>76</ele>
        <time>2021-08-22T11:37:21.000Z</time>
      </trkpt>
      <trkpt lat="47.25106" lon="-1.52554">
        <ele>77</ele>
        <time>2021-08-22T11:37:23.000Z</time>
      </trkpt>
      <trkpt lat="47.25097" lon="-1.5254">
        <ele>77</ele>
        <time>2021-08-22T11:37:25.000Z</time>
      </trkpt>
      <trkpt lat="47.25088" lon="-1.52526">
        <ele>76</ele>
        <time>2021-08-22T11:37:27.000Z</time>
      </trkpt>
      <trkpt lat="47.25081" lon="-1.52513">
        <ele>77</ele>
        <time>2021-08-22T11:37:29.000Z</time>
      </trkpt>
      <trkpt lat="47.25072" lon="-1.52504">
        <ele>76</ele>
        <time>2021-08-22T11:37:31.000Z</time>
      </trkpt>
      <trkpt lat="47.25066" lon="-1.52492">
        <ele>76</ele>
        <time>2021-08-22T11:37:33.000Z</time>
      </trkpt>
      <trkpt lat="47.25059" lon="-1.5248">
        <ele>77</ele>
        <time>2021-08-22T11:37:35.000Z</time>
      </trkpt>
      <trkpt lat="47.25051" lon="-1.52467">
        <ele>77</ele>
        <time>2021-08-22T11:37:38.000Z</time>
      </trkpt>
      <trkpt lat="47.25043" lon="-1.52456">
        <ele>77</ele>
        <time>2021-08-22T11:37:41.000Z</time>
      </trkpt>
      <trkpt lat="47.25036" lon="-1.52443">
        <ele>78</ele>
        <time>2021-08-22T11:37:43.000Z</time>
      </trkpt>
      <trkpt lat="47.25028" lon="-1.52429">
        <ele>77</ele>
        <time>2021-08-22T11:37:45.000Z</time>
      </trkpt>
      <trkpt lat="47.25019" lon="-1.52415">
        <ele>76</ele>
        <time>2021-08-22T11:37:47.000Z</time>
      </trkpt>
      <trkpt lat="47.2501" lon="-1.524">
        <ele>76</ele>
        <time>2021-08-22T11:37:49.000Z</time>
      </trkpt>
      <trkpt lat="47.25001" lon="-1.52386">
        <ele>76</ele>
        <time>2021-08-22T11:37:51.000Z</time>
      </trkpt>
      <trkpt lat="47.24993" lon="-1.52371">
        <ele>76</ele>
        <time>2021-08-22T11:37:53.000Z</time>
      </trkpt>
      <trkpt lat="47.24985" lon="-1.52356">
        <ele>76</ele>
        <time>2021-08-22T11:37:55.000Z</time>
      </trkpt>
      <trkpt lat="47.24975" lon="-1.52341">
        <ele>76</ele>
        <time>2021-08-22T11:37:57.000Z</time>
      </trkpt>
      <trkpt lat="47.24967" lon="-1.52326">
        <ele>76</ele>
        <time>2021-08-22T11:37:59.000Z</time>
      </trkpt>
      <trkpt lat="47.24957" lon="-1.5231">
        <ele>76</ele>
        <time>2021-08-22T11:38:01.000Z</time>
      </trkpt>
      <trkpt lat="47.24948" lon="-1.52295">
        <ele>76</ele>
        <time>2021-08-22T11:38:03.000Z</time>
      </trkpt>
      <trkpt lat="47.2494" lon="-1.5228">
        <ele>76</ele>
        <time>2021-08-22T11:38:05.000Z</time>
      </trkpt>
      <trkpt lat="47.24931" lon="-1.52265">
        <ele>76</ele>
        <time>2021-08-22T11:38:07.000Z</time>
      </trkpt>
      <trkpt lat="47.24921" lon="-1.5225">
        <ele>76</ele>
        <time>2021-08-22T11:38:09.000Z</time>
      </trkpt>
      <trkpt lat="47.24912" lon="-1.52235">
        <ele>77</ele>
        <time>2021-08-22T11:38:11.000Z</time>
      </trkpt>
      <trkpt lat="47.24903" lon="-1.5222">
        <ele>77</ele>
        <time>2021-08-22T11:38:13.000Z</time>
      </trkpt>
      <trkpt lat="47.24894" lon="-1.52205">
        <ele>76</ele>
        <time>2021-08-22T11:38:15.000Z</time>
      </trkpt>
      <trkpt lat="47.24885" lon="-1.52191">
        <ele>76</ele>
        <time>2021-08-22T11:38:17.000Z</time>
      </trkpt>
      <trkpt lat="47.24877" lon="-1.52175">
        <ele>76</ele>
        <time>2021-08-22T11:38:19.000Z</time>
      </trkpt>
      <trkpt lat="47.24872" lon="-1.52157">
        <ele>75</ele>
        <time>2021-08-22T11:38:21.000Z</time>
      </trkpt>
      <trkpt lat="47.2487" lon="-1.52144">
        <ele>75</ele>
        <time>2021-08-22T11:38:23.000Z</time>
      </trkpt>
      <trkpt lat="47.24863" lon="-1.52134">
        <ele>76</ele>
        <time>2021-08-22T11:38:27.000Z</time>
      </trkpt>
      <trkpt lat="47.24858" lon="-1.52122">
        <ele>76</ele>
        <time>2021-08-22T11:38:29.000Z</time>
      </trkpt>
      <trkpt lat="47.24853" lon="-1.52108">
        <ele>76</ele>
        <time>2021-08-22T11:38:31.000Z</time>
      </trkpt>
      <trkpt lat="47.24843" lon="-1.52095">
        <ele>76</ele>
        <time>2021-08-22T11:38:33.000Z</time>
      </trkpt>
      <trkpt lat="47.24831" lon="-1.52082">
        <ele>76</ele>
        <time>2021-08-22T11:38:35.000Z</time>
      </trkpt>
      <trkpt lat="47.2482" lon="-1.52069">
        <ele>75</ele>
        <time>2021-08-22T11:38:37.000Z</time>
      </trkpt>
      <trkpt lat="47.24809" lon="-1.52056">
        <ele>75</ele>
        <time>2021-08-22T11:38:39.000Z</time>
      </trkpt>
      <trkpt lat="47.24797" lon="-1.52042">
        <ele>74</ele>
        <time>2021-08-22T11:38:41.000Z</time>
      </trkpt>
      <trkpt lat="47.24785" lon="-1.52029">
        <ele>73</ele>
        <time>2021-08-22T11:38:43.000Z</time>
      </trkpt>
      <trkpt lat="47.24773" lon="-1.52015">
        <ele>73</ele>
        <time>2021-08-22T11:38:45.000Z</time>
      </trkpt>
      <trkpt lat="47.24761" lon="-1.52001">
        <ele>73</ele>
        <time>2021-08-22T11:38:47.000Z</time>
      </trkpt>
      <trkpt lat="47.24748" lon="-1.51987">
        <ele>72</ele>
        <time>2021-08-22T11:38:49.000Z</time>
      </trkpt>
      <trkpt lat="47.24735" lon="-1.51972">
        <ele>72</ele>
        <time>2021-08-22T11:38:51.000Z</time>
      </trkpt>
      <trkpt lat="47.24721" lon="-1.51959">
        <ele>72</ele>
        <time>2021-08-22T11:38:53.000Z</time>
      </trkpt>
      <trkpt lat="47.24708" lon="-1.51947">
        <ele>72</ele>
        <time>2021-08-22T11:38:55.000Z</time>
      </trkpt>
      <trkpt lat="47.24694" lon="-1.51936">
        <ele>72</ele>
        <time>2021-08-22T11:38:57.000Z</time>
      </trkpt>
      <trkpt lat="47.24681" lon="-1.51924">
        <ele>71</ele>
        <time>2021-08-22T11:38:59.000Z</time>
      </trkpt>
      <trkpt lat="47.24667" lon="-1.51911">
        <ele>71</ele>
        <time>2021-08-22T11:39:01.000Z</time>
      </trkpt>
      <trkpt lat="47.24653" lon="-1.51901">
        <ele>70</ele>
        <time>2021-08-22T11:39:03.000Z</time>
      </trkpt>
      <trkpt lat="47.24637" lon="-1.51894">
        <ele>70</ele>
        <time>2021-08-22T11:39:05.000Z</time>
      </trkpt>
      <trkpt lat="47.24621" lon="-1.51888">
        <ele>69</ele>
        <time>2021-08-22T11:39:07.000Z</time>
      </trkpt>
      <trkpt lat="47.24606" lon="-1.51881">
        <ele>69</ele>
        <time>2021-08-22T11:39:09.000Z</time>
      </trkpt>
      <trkpt lat="47.2459" lon="-1.51873">
        <ele>68</ele>
        <time>2021-08-22T11:39:11.000Z</time>
      </trkpt>
      <trkpt lat="47.24575" lon="-1.51866">
        <ele>68</ele>
        <time>2021-08-22T11:39:13.000Z</time>
      </trkpt>
      <trkpt lat="47.24552" lon="-1.51855">
        <ele>68</ele>
        <time>2021-08-22T11:39:16.000Z</time>
      </trkpt>
      <trkpt lat="47.24538" lon="-1.51848">
        <ele>67</ele>
        <time>2021-08-22T11:39:18.000Z</time>
      </trkpt>
      <trkpt lat="47.24522" lon="-1.51842">
        <ele>67</ele>
        <time>2021-08-22T11:39:20.000Z</time>
      </trkpt>
      <trkpt lat="47.24506" lon="-1.51836">
        <ele>67</ele>
        <time>2021-08-22T11:39:22.000Z</time>
      </trkpt>
      <trkpt lat="47.2449" lon="-1.5183">
        <ele>68</ele>
        <time>2021-08-22T11:39:24.000Z</time>
      </trkpt>
      <trkpt lat="47.24475" lon="-1.51825">
        <ele>68</ele>
        <time>2021-08-22T11:39:26.000Z</time>
      </trkpt>
      <trkpt lat="47.2446" lon="-1.5182">
        <ele>69</ele>
        <time>2021-08-22T11:39:28.000Z</time>
      </trkpt>
      <trkpt lat="47.24444" lon="-1.51813">
        <ele>69</ele>
        <time>2021-08-22T11:39:30.000Z</time>
      </trkpt>
      <trkpt lat="47.24429" lon="-1.51804">
        <ele>69</ele>
        <time>2021-08-22T11:39:32.000Z</time>
      </trkpt>
      <trkpt lat="47.24415" lon="-1.51794">
        <ele>69</ele>
        <time>2021-08-22T11:39:34.000Z</time>
      </trkpt>
      <trkpt lat="47.244" lon="-1.51784">
        <ele>69</ele>
        <time>2021-08-22T11:39:36.000Z</time>
      </trkpt>
      <trkpt lat="47.24386" lon="-1.51774">
        <ele>69</ele>
        <time>2021-08-22T11:39:38.000Z</time>
      </trkpt>
      <trkpt lat="47.24371" lon="-1.51765">
        <ele>69</ele>
        <time>2021-08-22T11:39:40.000Z</time>
      </trkpt>
      <trkpt lat="47.24358" lon="-1.51758">
        <ele>69</ele>
        <time>2021-08-22T11:39:42.000Z</time>
      </trkpt>
      <trkpt lat="47.24344" lon="-1.51755">
        <ele>68</ele>
        <time>2021-08-22T11:39:44.000Z</time>
      </trkpt>
      <trkpt lat="47.2433" lon="-1.51756">
        <ele>67</ele>
        <time>2021-08-22T11:39:46.000Z</time>
      </trkpt>
      <trkpt lat="47.24319" lon="-1.51747">
        <ele>67</ele>
        <time>2021-08-22T11:39:48.000Z</time>
      </trkpt>
      <trkpt lat="47.2431" lon="-1.5173">
        <ele>66</ele>
        <time>2021-08-22T11:39:50.000Z</time>
      </trkpt>
      <trkpt lat="47.24298" lon="-1.51714">
        <ele>66</ele>
        <time>2021-08-22T11:39:52.000Z</time>
      </trkpt>
      <trkpt lat="47.24287" lon="-1.51697">
        <ele>66</ele>
        <time>2021-08-22T11:39:54.000Z</time>
      </trkpt>
      <trkpt lat="47.24276" lon="-1.51681">
        <ele>66</ele>
        <time>2021-08-22T11:39:56.000Z</time>
      </trkpt>
      <trkpt lat="47.24266" lon="-1.51664">
        <ele>66</ele>
        <time>2021-08-22T11:39:58.000Z</time>
      </trkpt>
      <trkpt lat="47.24256" lon="-1.51649">
        <ele>66</ele>
        <time>2021-08-22T11:40:00.000Z</time>
      </trkpt>
      <trkpt lat="47.24246" lon="-1.51633">
        <ele>66</ele>
        <time>2021-08-22T11:40:02.000Z</time>
      </trkpt>
      <trkpt lat="47.24236" lon="-1.51619">
        <ele>66</ele>
        <time>2021-08-22T11:40:04.000Z</time>
      </trkpt>
      <trkpt lat="47.24226" lon="-1.51604">
        <ele>67</ele>
        <time>2021-08-22T11:40:06.000Z</time>
      </trkpt>
      <trkpt lat="47.24217" lon="-1.5159">
        <ele>67</ele>
        <time>2021-08-22T11:40:08.000Z</time>
      </trkpt>
      <trkpt lat="47.24208" lon="-1.51576">
        <ele>67</ele>
        <time>2021-08-22T11:40:10.000Z</time>
      </trkpt>
      <trkpt lat="47.24199" lon="-1.51562">
        <ele>67</ele>
        <time>2021-08-22T11:40:12.000Z</time>
      </trkpt>
      <trkpt lat="47.2419" lon="-1.51547">
        <ele>67</ele>
        <time>2021-08-22T11:40:14.000Z</time>
      </trkpt>
      <trkpt lat="47.24181" lon="-1.51531">
        <ele>68</ele>
        <time>2021-08-22T11:40:16.000Z</time>
      </trkpt>
      <trkpt lat="47.24171" lon="-1.51515">
        <ele>68</ele>
        <time>2021-08-22T11:40:18.000Z</time>
      </trkpt>
      <trkpt lat="47.24162" lon="-1.515">
        <ele>68</ele>
        <time>2021-08-22T11:40:20.000Z</time>
      </trkpt>
      <trkpt lat="47.24153" lon="-1.51485">
        <ele>68</ele>
        <time>2021-08-22T11:40:22.000Z</time>
      </trkpt>
      <trkpt lat="47.24143" lon="-1.5147">
        <ele>69</ele>
        <time>2021-08-22T11:40:24.000Z</time>
      </trkpt>
      <trkpt lat="47.24133" lon="-1.51455">
        <ele>69</ele>
        <time>2021-08-22T11:40:26.000Z</time>
      </trkpt>
      <trkpt lat="47.24124" lon="-1.51441">
        <ele>69</ele>
        <time>2021-08-22T11:40:28.000Z</time>
      </trkpt>
      <trkpt lat="47.24115" lon="-1.51425">
        <ele>68</ele>
        <time>2021-08-22T11:40:30.000Z</time>
      </trkpt>
      <trkpt lat="47.24105" lon="-1.51408">
        <ele>67</ele>
        <time>2021-08-22T11:40:32.000Z</time>
      </trkpt>
      <trkpt lat="47.24096" lon="-1.51392">
        <ele>66</ele>
        <time>2021-08-22T11:40:34.000Z</time>
      </trkpt>
      <trkpt lat="47.24088" lon="-1.51376">
        <ele>66</ele>
        <time>2021-08-22T11:40:36.000Z</time>
      </trkpt>
      <trkpt lat="47.24079" lon="-1.51359">
        <ele>66</ele>
        <time>2021-08-22T11:40:38.000Z</time>
      </trkpt>
      <trkpt lat="47.24069" lon="-1.51343">
        <ele>66</ele>
        <time>2021-08-22T11:40:40.000Z</time>
      </trkpt>
      <trkpt lat="47.2406" lon="-1.51326">
        <ele>66</ele>
        <time>2021-08-22T11:40:42.000Z</time>
      </trkpt>
      <trkpt lat="47.24052" lon="-1.51311">
        <ele>66</ele>
        <time>2021-08-22T11:40:44.000Z</time>
      </trkpt>
      <trkpt lat="47.24043" lon="-1.51295">
        <ele>66</ele>
        <time>2021-08-22T11:40:46.000Z</time>
      </trkpt>
      <trkpt lat="47.24035" lon="-1.51277">
        <ele>65</ele>
        <time>2021-08-22T11:40:48.000Z</time>
      </trkpt>
      <trkpt lat="47.24025" lon="-1.51261">
        <ele>65</ele>
        <time>2021-08-22T11:40:50.000Z</time>
      </trkpt>
      <trkpt lat="47.24017" lon="-1.51243">
        <ele>65</ele>
        <time>2021-08-22T11:40:52.000Z</time>
      </trkpt>
      <trkpt lat="47.24009" lon="-1.51227">
        <ele>65</ele>
        <time>2021-08-22T11:40:54.000Z</time>
      </trkpt>
      <trkpt lat="47.24" lon="-1.51211">
        <ele>65</ele>
        <time>2021-08-22T11:40:56.000Z</time>
      </trkpt>
      <trkpt lat="47.23993" lon="-1.51194">
        <ele>64</ele>
        <time>2021-08-22T11:40:58.000Z</time>
      </trkpt>
      <trkpt lat="47.23985" lon="-1.51176">
        <ele>64</ele>
        <time>2021-08-22T11:41:00.000Z</time>
      </trkpt>
      <trkpt lat="47.23978" lon="-1.51159">
        <ele>64</ele>
        <time>2021-08-22T11:41:02.000Z</time>
      </trkpt>
      <trkpt lat="47.23971" lon="-1.51142">
        <ele>64</ele>
        <time>2021-08-22T11:41:04.000Z</time>
      </trkpt>
      <trkpt lat="47.23965" lon="-1.51125">
        <ele>64</ele>
        <time>2021-08-22T11:41:06.000Z</time>
      </trkpt>
      <trkpt lat="47.23959" lon="-1.51108">
        <ele>65</ele>
        <time>2021-08-22T11:41:08.000Z</time>
      </trkpt>
      <trkpt lat="47.23953" lon="-1.5109">
        <ele>65</ele>
        <time>2021-08-22T11:41:10.000Z</time>
      </trkpt>
      <trkpt lat="47.23948" lon="-1.51073">
        <ele>66</ele>
        <time>2021-08-22T11:41:12.000Z</time>
      </trkpt>
      <trkpt lat="47.23942" lon="-1.51055">
        <ele>65</ele>
        <time>2021-08-22T11:41:14.000Z</time>
      </trkpt>
      <trkpt lat="47.23937" lon="-1.51038">
        <ele>66</ele>
        <time>2021-08-22T11:41:16.000Z</time>
      </trkpt>
      <trkpt lat="47.23931" lon="-1.51019">
        <ele>66</ele>
        <time>2021-08-22T11:41:18.000Z</time>
      </trkpt>
      <trkpt lat="47.23925" lon="-1.51001">
        <ele>66</ele>
        <time>2021-08-22T11:41:20.000Z</time>
      </trkpt>
      <trkpt lat="47.23919" lon="-1.50981">
        <ele>65</ele>
        <time>2021-08-22T11:41:22.000Z</time>
      </trkpt>
      <trkpt lat="47.23914" lon="-1.50963">
        <ele>66</ele>
        <time>2021-08-22T11:41:24.000Z</time>
      </trkpt>
      <trkpt lat="47.23907" lon="-1.50946">
        <ele>66</ele>
        <time>2021-08-22T11:41:26.000Z</time>
      </trkpt>
      <trkpt lat="47.23899" lon="-1.50928">
        <ele>65</ele>
        <time>2021-08-22T11:41:28.000Z</time>
      </trkpt>
      <trkpt lat="47.23892" lon="-1.5091">
        <ele>65</ele>
        <time>2021-08-22T11:41:30.000Z</time>
      </trkpt>
      <trkpt lat="47.23885" lon="-1.50892">
        <ele>65</ele>
        <time>2021-08-22T11:41:32.000Z</time>
      </trkpt>
      <trkpt lat="47.23877" lon="-1.50874">
        <ele>65</ele>
        <time>2021-08-22T11:41:34.000Z</time>
      </trkpt>
      <trkpt lat="47.23871" lon="-1.50856">
        <ele>64</ele>
        <time>2021-08-22T11:41:36.000Z</time>
      </trkpt>
      <trkpt lat="47.23864" lon="-1.50838">
        <ele>64</ele>
        <time>2021-08-22T11:41:38.000Z</time>
      </trkpt>
      <trkpt lat="47.23857" lon="-1.50821">
        <ele>64</ele>
        <time>2021-08-22T11:41:40.000Z</time>
      </trkpt>
      <trkpt lat="47.23851" lon="-1.50804">
        <ele>64</ele>
        <time>2021-08-22T11:41:42.000Z</time>
      </trkpt>
      <trkpt lat="47.23845" lon="-1.50787">
        <ele>63</ele>
        <time>2021-08-22T11:41:44.000Z</time>
      </trkpt>
      <trkpt lat="47.23838" lon="-1.50772">
        <ele>63</ele>
        <time>2021-08-22T11:41:46.000Z</time>
      </trkpt>
      <trkpt lat="47.23829" lon="-1.50761">
        <ele>62</ele>
        <time>2021-08-22T11:41:48.000Z</time>
      </trkpt>
      <trkpt lat="47.23817" lon="-1.50764">
        <ele>63</ele>
        <time>2021-08-22T11:41:50.000Z</time>
      </trkpt>
      <trkpt lat="47.23804" lon="-1.50769">
        <ele>63</ele>
        <time>2021-08-22T11:41:52.000Z</time>
      </trkpt>
      <trkpt lat="47.2379" lon="-1.50773">
        <ele>63</ele>
        <time>2021-08-22T11:41:54.000Z</time>
      </trkpt>
      <trkpt lat="47.23777" lon="-1.50777">
        <ele>63</ele>
        <time>2021-08-22T11:41:56.000Z</time>
      </trkpt>
      <trkpt lat="47.23763" lon="-1.5078">
        <ele>63</ele>
        <time>2021-08-22T11:41:58.000Z</time>
      </trkpt>
      <trkpt lat="47.23749" lon="-1.50782">
        <ele>63</ele>
        <time>2021-08-22T11:42:00.000Z</time>
      </trkpt>
      <trkpt lat="47.23736" lon="-1.50785">
        <ele>63</ele>
        <time>2021-08-22T11:42:02.000Z</time>
      </trkpt>
      <trkpt lat="47.23723" lon="-1.50788">
        <ele>63</ele>
        <time>2021-08-22T11:42:04.000Z</time>
      </trkpt>
      <trkpt lat="47.2371" lon="-1.50791">
        <ele>63</ele>
        <time>2021-08-22T11:42:06.000Z</time>
      </trkpt>
      <trkpt lat="47.23696" lon="-1.50795">
        <ele>63</ele>
        <time>2021-08-22T11:42:08.000Z</time>
      </trkpt>
      <trkpt lat="47.23682" lon="-1.50799">
        <ele>63</ele>
        <time>2021-08-22T11:42:10.000Z</time>
      </trkpt>
      <trkpt lat="47.23669" lon="-1.50803">
        <ele>63</ele>
        <time>2021-08-22T11:42:12.000Z</time>
      </trkpt>
      <trkpt lat="47.23656" lon="-1.50806">
        <ele>63</ele>
        <time>2021-08-22T11:42:14.000Z</time>
      </trkpt>
      <trkpt lat="47.23643" lon="-1.50811">
        <ele>63</ele>
        <time>2021-08-22T11:42:16.000Z</time>
      </trkpt>
      <trkpt lat="47.2363" lon="-1.50816">
        <ele>63</ele>
        <time>2021-08-22T11:42:18.000Z</time>
      </trkpt>
      <trkpt lat="47.23618" lon="-1.50825">
        <ele>63</ele>
        <time>2021-08-22T11:42:20.000Z</time>
      </trkpt>
      <trkpt lat="47.23606" lon="-1.50832">
        <ele>63</ele>
        <time>2021-08-22T11:42:22.000Z</time>
      </trkpt>
      <trkpt lat="47.23594" lon="-1.50841">
        <ele>63</ele>
        <time>2021-08-22T11:42:24.000Z</time>
      </trkpt>
      <trkpt lat="47.23582" lon="-1.5085">
        <ele>63</ele>
        <time>2021-08-22T11:42:26.000Z</time>
      </trkpt>
      <trkpt lat="47.2357" lon="-1.5086">
        <ele>63</ele>
        <time>2021-08-22T11:42:28.000Z</time>
      </trkpt>
      <trkpt lat="47.23558" lon="-1.50869">
        <ele>63</ele>
        <time>2021-08-22T11:42:30.000Z</time>
      </trkpt>
      <trkpt lat="47.23546" lon="-1.50877">
        <ele>63</ele>
        <time>2021-08-22T11:42:32.000Z</time>
      </trkpt>
      <trkpt lat="47.23533" lon="-1.50885">
        <ele>63</ele>
        <time>2021-08-22T11:42:34.000Z</time>
      </trkpt>
      <trkpt lat="47.23521" lon="-1.50895">
        <ele>63</ele>
        <time>2021-08-22T11:42:36.000Z</time>
      </trkpt>
      <trkpt lat="47.23509" lon="-1.50904">
        <ele>63</ele>
        <time>2021-08-22T11:42:38.000Z</time>
      </trkpt>
      <trkpt lat="47.23497" lon="-1.50912">
        <ele>63</ele>
        <time>2021-08-22T11:42:40.000Z</time>
      </trkpt>
      <trkpt lat="47.23485" lon="-1.50919">
        <ele>63</ele>
        <time>2021-08-22T11:42:42.000Z</time>
      </trkpt>
      <trkpt lat="47.23473" lon="-1.50929">
        <ele>64</ele>
        <time>2021-08-22T11:42:44.000Z</time>
      </trkpt>
      <trkpt lat="47.23462" lon="-1.50939">
        <ele>64</ele>
        <time>2021-08-22T11:42:46.000Z</time>
      </trkpt>
      <trkpt lat="47.2345" lon="-1.50949">
        <ele>63</ele>
        <time>2021-08-22T11:42:48.000Z</time>
      </trkpt>
      <trkpt lat="47.23438" lon="-1.50959">
        <ele>63</ele>
        <time>2021-08-22T11:42:50.000Z</time>
      </trkpt>
      <trkpt lat="47.23427" lon="-1.50967">
        <ele>63</ele>
        <time>2021-08-22T11:42:52.000Z</time>
      </trkpt>
      <trkpt lat="47.23415" lon="-1.50976">
        <ele>63</ele>
        <time>2021-08-22T11:42:54.000Z</time>
      </trkpt>
      <trkpt lat="47.23404" lon="-1.50986">
        <ele>63</ele>
        <time>2021-08-22T11:42:56.000Z</time>
      </trkpt>
      <trkpt lat="47.23394" lon="-1.50998">
        <ele>63</ele>
        <time>2021-08-22T11:42:58.000Z</time>
      </trkpt>
      <trkpt lat="47.23386" lon="-1.51013">
        <ele>63</ele>
        <time>2021-08-22T11:43:00.000Z</time>
      </trkpt>
      <trkpt lat="47.23379" lon="-1.5103">
        <ele>64</ele>
        <time>2021-08-22T11:43:02.000Z</time>
      </trkpt>
      <trkpt lat="47.23373" lon="-1.51047">
        <ele>63</ele>
        <time>2021-08-22T11:43:04.000Z</time>
      </trkpt>
      <trkpt lat="47.23366" lon="-1.51064">
        <ele>63</ele>
        <time>2021-08-22T11:43:06.000Z</time>
      </trkpt>
      <trkpt lat="47.2336" lon="-1.51079">
        <ele>64</ele>
        <time>2021-08-22T11:43:08.000Z</time>
      </trkpt>
      <trkpt lat="47.23353" lon="-1.51095">
        <ele>64</ele>
        <time>2021-08-22T11:43:10.000Z</time>
      </trkpt>
      <trkpt lat="47.23346" lon="-1.51111">
        <ele>65</ele>
        <time>2021-08-22T11:43:12.000Z</time>
      </trkpt>
      <trkpt lat="47.2334" lon="-1.51127">
        <ele>66</ele>
        <time>2021-08-22T11:43:14.000Z</time>
      </trkpt>
      <trkpt lat="47.23332" lon="-1.51143">
        <ele>66</ele>
        <time>2021-08-22T11:43:16.000Z</time>
      </trkpt>
      <trkpt lat="47.23324" lon="-1.51159">
        <ele>67</ele>
        <time>2021-08-22T11:43:18.000Z</time>
      </trkpt>
      <trkpt lat="47.23318" lon="-1.51175">
        <ele>68</ele>
        <time>2021-08-22T11:43:20.000Z</time>
      </trkpt>
      <trkpt lat="47.23313" lon="-1.51191">
        <ele>67</ele>
        <time>2021-08-22T11:43:22.000Z</time>
      </trkpt>
      <trkpt lat="47.23307" lon="-1.51207">
        <ele>67</ele>
        <time>2021-08-22T11:43:24.000Z</time>
      </trkpt>
      <trkpt lat="47.23301" lon="-1.51222">
        <ele>66</ele>
        <time>2021-08-22T11:43:26.000Z</time>
      </trkpt>
      <trkpt lat="47.23296" lon="-1.51238">
        <ele>67</ele>
        <time>2021-08-22T11:43:28.000Z</time>
      </trkpt>
      <trkpt lat="47.23289" lon="-1.51253">
        <ele>67</ele>
        <time>2021-08-22T11:43:30.000Z</time>
      </trkpt>
      <trkpt lat="47.23282" lon="-1.51267">
        <ele>67</ele>
        <time>2021-08-22T11:43:32.000Z</time>
      </trkpt>
      <trkpt lat="47.23276" lon="-1.51282">
        <ele>66</ele>
        <time>2021-08-22T11:43:34.000Z</time>
      </trkpt>
      <trkpt lat="47.23269" lon="-1.51297">
        <ele>66</ele>
        <time>2021-08-22T11:43:36.000Z</time>
      </trkpt>
      <trkpt lat="47.23263" lon="-1.51312">
        <ele>65</ele>
        <time>2021-08-22T11:43:38.000Z</time>
      </trkpt>
      <trkpt lat="47.23256" lon="-1.51328">
        <ele>65</ele>
        <time>2021-08-22T11:43:40.000Z</time>
      </trkpt>
      <trkpt lat="47.23251" lon="-1.51344">
        <ele>65</ele>
        <time>2021-08-22T11:43:42.000Z</time>
      </trkpt>
      <trkpt lat="47.23245" lon="-1.5136">
        <ele>65</ele>
        <time>2021-08-22T11:43:44.000Z</time>
      </trkpt>
      <trkpt lat="47.2324" lon="-1.51376">
        <ele>65</ele>
        <time>2021-08-22T11:43:46.000Z</time>
      </trkpt>
      <trkpt lat="47.23236" lon="-1.51393">
        <ele>65</ele>
        <time>2021-08-22T11:43:48.000Z</time>
      </trkpt>
      <trkpt lat="47.23231" lon="-1.5141">
        <ele>65</ele>
        <time>2021-08-22T11:43:50.000Z</time>
      </trkpt>
      <trkpt lat="47.23227" lon="-1.51427">
        <ele>65</ele>
        <time>2021-08-22T11:43:52.000Z</time>
      </trkpt>
      <trkpt lat="47.23223" lon="-1.51445">
        <ele>65</ele>
        <time>2021-08-22T11:43:54.000Z</time>
      </trkpt>
      <trkpt lat="47.23218" lon="-1.51462">
        <ele>65</ele>
        <time>2021-08-22T11:43:56.000Z</time>
      </trkpt>
      <trkpt lat="47.23215" lon="-1.51479">
        <ele>65</ele>
        <time>2021-08-22T11:43:58.000Z</time>
      </trkpt>
      <trkpt lat="47.23212" lon="-1.51498">
        <ele>65</ele>
        <time>2021-08-22T11:44:00.000Z</time>
      </trkpt>
      <trkpt lat="47.23211" lon="-1.51518">
        <ele>65</ele>
        <time>2021-08-22T11:44:02.000Z</time>
      </trkpt>
      <trkpt lat="47.2321" lon="-1.51537">
        <ele>65</ele>
        <time>2021-08-22T11:44:04.000Z</time>
      </trkpt>
      <trkpt lat="47.23209" lon="-1.51555">
        <ele>66</ele>
        <time>2021-08-22T11:44:06.000Z</time>
      </trkpt>
      <trkpt lat="47.23207" lon="-1.51572">
        <ele>66</ele>
        <time>2021-08-22T11:44:08.000Z</time>
      </trkpt>
      <trkpt lat="47.23207" lon="-1.51589">
        <ele>67</ele>
        <time>2021-08-22T11:44:10.000Z</time>
      </trkpt>
      <trkpt lat="47.23205" lon="-1.51607">
        <ele>67</ele>
        <time>2021-08-22T11:44:12.000Z</time>
      </trkpt>
      <trkpt lat="47.23204" lon="-1.51623">
        <ele>66</ele>
        <time>2021-08-22T11:44:14.000Z</time>
      </trkpt>
      <trkpt lat="47.23203" lon="-1.51641">
        <ele>66</ele>
        <time>2021-08-22T11:44:16.000Z</time>
      </trkpt>
      <trkpt lat="47.23201" lon="-1.51659">
        <ele>65</ele>
        <time>2021-08-22T11:44:18.000Z</time>
      </trkpt>
      <trkpt lat="47.23199" lon="-1.51679">
        <ele>65</ele>
        <time>2021-08-22T11:44:20.000Z</time>
      </trkpt>
      <trkpt lat="47.23199" lon="-1.517">
        <ele>64</ele>
        <time>2021-08-22T11:44:22.000Z</time>
      </trkpt>
      <trkpt lat="47.23198" lon="-1.5172">
        <ele>64</ele>
        <time>2021-08-22T11:44:24.000Z</time>
      </trkpt>
      <trkpt lat="47.23197" lon="-1.51738">
        <ele>64</ele>
        <time>2021-08-22T11:44:26.000Z</time>
      </trkpt>
      <trkpt lat="47.23197" lon="-1.51757">
        <ele>63</ele>
        <time>2021-08-22T11:44:28.000Z</time>
      </trkpt>
      <trkpt lat="47.23196" lon="-1.51776">
        <ele>63</ele>
        <time>2021-08-22T11:44:30.000Z</time>
      </trkpt>
      <trkpt lat="47.23195" lon="-1.51796">
        <ele>63</ele>
        <time>2021-08-22T11:44:32.000Z</time>
      </trkpt>
      <trkpt lat="47.23195" lon="-1.51815">
        <ele>63</ele>
        <time>2021-08-22T11:44:34.000Z</time>
      </trkpt>
      <trkpt lat="47.23194" lon="-1.51834">
        <ele>62</ele>
        <time>2021-08-22T11:44:36.000Z</time>
      </trkpt>
      <trkpt lat="47.23195" lon="-1.51852">
        <ele>62</ele>
        <time>2021-08-22T11:44:38.000Z</time>
      </trkpt>
      <trkpt lat="47.23196" lon="-1.51871">
        <ele>62</ele>
        <time>2021-08-22T11:44:40.000Z</time>
      </trkpt>
      <trkpt lat="47.23197" lon="-1.51888">
        <ele>61</ele>
        <time>2021-08-22T11:44:42.000Z</time>
      </trkpt>
      <trkpt lat="47.23198" lon="-1.51905">
        <ele>61</ele>
        <time>2021-08-22T11:44:44.000Z</time>
      </trkpt>
      <trkpt lat="47.23198" lon="-1.51922">
        <ele>60</ele>
        <time>2021-08-22T11:44:46.000Z</time>
      </trkpt>
      <trkpt lat="47.23199" lon="-1.5194">
        <ele>60</ele>
        <time>2021-08-22T11:44:48.000Z</time>
      </trkpt>
      <trkpt lat="47.23201" lon="-1.51958">
        <ele>59</ele>
        <time>2021-08-22T11:44:50.000Z</time>
      </trkpt>
      <trkpt lat="47.23204" lon="-1.51975">
        <ele>59</ele>
        <time>2021-08-22T11:44:52.000Z</time>
      </trkpt>
      <trkpt lat="47.23209" lon="-1.51992">
        <ele>58</ele>
        <time>2021-08-22T11:44:54.000Z</time>
      </trkpt>
      <trkpt lat="47.23216" lon="-1.52008">
        <ele>57</ele>
        <time>2021-08-22T11:44:56.000Z</time>
      </trkpt>
      <trkpt lat="47.23225" lon="-1.52024">
        <ele>57</ele>
        <time>2021-08-22T11:44:58.000Z</time>
      </trkpt>
      <trkpt lat="47.23232" lon="-1.5204">
        <ele>56</ele>
        <time>2021-08-22T11:45:00.000Z</time>
      </trkpt>
      <trkpt lat="47.2324" lon="-1.52057">
        <ele>56</ele>
        <time>2021-08-22T11:45:02.000Z</time>
      </trkpt>
      <trkpt lat="47.23248" lon="-1.52072">
        <ele>56</ele>
        <time>2021-08-22T11:45:04.000Z</time>
      </trkpt>
      <trkpt lat="47.23256" lon="-1.52087">
        <ele>56</ele>
        <time>2021-08-22T11:45:06.000Z</time>
      </trkpt>
      <trkpt lat="47.23263" lon="-1.52101">
        <ele>57</ele>
        <time>2021-08-22T11:45:08.000Z</time>
      </trkpt>
      <trkpt lat="47.2327" lon="-1.52112">
        <ele>57</ele>
        <time>2021-08-22T11:45:10.000Z</time>
      </trkpt>
      <trkpt lat="47.23277" lon="-1.52123">
        <ele>58</ele>
        <time>2021-08-22T11:45:12.000Z</time>
      </trkpt>
      <trkpt lat="47.23284" lon="-1.52133">
        <ele>58</ele>
        <time>2021-08-22T11:45:14.000Z</time>
      </trkpt>
      <trkpt lat="47.2329" lon="-1.52144">
        <ele>59</ele>
        <time>2021-08-22T11:45:17.000Z</time>
      </trkpt>
      <trkpt lat="47.23294" lon="-1.52156">
        <ele>60</ele>
        <time>2021-08-22T11:45:35.000Z</time>
      </trkpt>
      <trkpt lat="47.23294" lon="-1.52175">
        <ele>59</ele>
        <time>2021-08-22T11:45:38.000Z</time>
      </trkpt>
      <trkpt lat="47.2329" lon="-1.52187">
        <ele>59</ele>
        <time>2021-08-22T11:45:40.000Z</time>
      </trkpt>
      <trkpt lat="47.23277" lon="-1.52197">
        <ele>59</ele>
        <time>2021-08-22T11:45:43.000Z</time>
      </trkpt>
      <trkpt lat="47.23265" lon="-1.52204">
        <ele>59</ele>
        <time>2021-08-22T11:45:45.000Z</time>
      </trkpt>
      <trkpt lat="47.23253" lon="-1.52211">
        <ele>59</ele>
        <time>2021-08-22T11:45:47.000Z</time>
      </trkpt>
      <trkpt lat="47.2324" lon="-1.52218">
        <ele>59</ele>
        <time>2021-08-22T11:45:49.000Z</time>
      </trkpt>
      <trkpt lat="47.23228" lon="-1.52225">
        <ele>60</ele>
        <time>2021-08-22T11:45:51.000Z</time>
      </trkpt>
      <trkpt lat="47.23216" lon="-1.52233">
        <ele>60</ele>
        <time>2021-08-22T11:45:53.000Z</time>
      </trkpt>
      <trkpt lat="47.23204" lon="-1.52239">
        <ele>61</ele>
        <time>2021-08-22T11:45:55.000Z</time>
      </trkpt>
      <trkpt lat="47.23192" lon="-1.52245">
        <ele>60</ele>
        <time>2021-08-22T11:45:57.000Z</time>
      </trkpt>
      <trkpt lat="47.23181" lon="-1.52253">
        <ele>59</ele>
        <time>2021-08-22T11:45:59.000Z</time>
      </trkpt>
      <trkpt lat="47.23169" lon="-1.5226">
        <ele>58</ele>
        <time>2021-08-22T11:46:01.000Z</time>
      </trkpt>
      <trkpt lat="47.23158" lon="-1.52269">
        <ele>58</ele>
        <time>2021-08-22T11:46:03.000Z</time>
      </trkpt>
      <trkpt lat="47.23147" lon="-1.52278">
        <ele>58</ele>
        <time>2021-08-22T11:46:05.000Z</time>
      </trkpt>
      <trkpt lat="47.23137" lon="-1.52285">
        <ele>58</ele>
        <time>2021-08-22T11:46:07.000Z</time>
      </trkpt>
      <trkpt lat="47.23126" lon="-1.52293">
        <ele>58</ele>
        <time>2021-08-22T11:46:09.000Z</time>
      </trkpt>
      <trkpt lat="47.23114" lon="-1.523">
        <ele>59</ele>
        <time>2021-08-22T11:46:11.000Z</time>
      </trkpt>
      <trkpt lat="47.23103" lon="-1.52307">
        <ele>59</ele>
        <time>2021-08-22T11:46:13.000Z</time>
      </trkpt>
      <trkpt lat="47.23092" lon="-1.52315">
        <ele>60</ele>
        <time>2021-08-22T11:46:15.000Z</time>
      </trkpt>
      <trkpt lat="47.23083" lon="-1.52326">
        <ele>59</ele>
        <time>2021-08-22T11:46:17.000Z</time>
      </trkpt>
      <trkpt lat="47.23074" lon="-1.52338">
        <ele>59</ele>
        <time>2021-08-22T11:46:19.000Z</time>
      </trkpt>
      <trkpt lat="47.23066" lon="-1.5235">
        <ele>59</ele>
        <time>2021-08-22T11:46:21.000Z</time>
      </trkpt>
      <trkpt lat="47.23056" lon="-1.52361">
        <ele>58</ele>
        <time>2021-08-22T11:46:23.000Z</time>
      </trkpt>
      <trkpt lat="47.23047" lon="-1.52373">
        <ele>58</ele>
        <time>2021-08-22T11:46:25.000Z</time>
      </trkpt>
      <trkpt lat="47.23038" lon="-1.52384">
        <ele>58</ele>
        <time>2021-08-22T11:46:27.000Z</time>
      </trkpt>
      <trkpt lat="47.23031" lon="-1.52398">
        <ele>57</ele>
        <time>2021-08-22T11:46:29.000Z</time>
      </trkpt>
      <trkpt lat="47.23021" lon="-1.52408">
        <ele>57</ele>
        <time>2021-08-22T11:46:31.000Z</time>
      </trkpt>
      <trkpt lat="47.23011" lon="-1.52419">
        <ele>57</ele>
        <time>2021-08-22T11:46:33.000Z</time>
      </trkpt>
      <trkpt lat="47.23003" lon="-1.5243">
        <ele>57</ele>
        <time>2021-08-22T11:46:35.000Z</time>
      </trkpt>
      <trkpt lat="47.22994" lon="-1.52441">
        <ele>58</ele>
        <time>2021-08-22T11:46:37.000Z</time>
      </trkpt>
      <trkpt lat="47.22984" lon="-1.52453">
        <ele>58</ele>
        <time>2021-08-22T11:46:39.000Z</time>
      </trkpt>
      <trkpt lat="47.22975" lon="-1.52465">
        <ele>57</ele>
        <time>2021-08-22T11:46:41.000Z</time>
      </trkpt>
      <trkpt lat="47.22965" lon="-1.52477">
        <ele>57</ele>
        <time>2021-08-22T11:46:43.000Z</time>
      </trkpt>
      <trkpt lat="47.22955" lon="-1.52488">
        <ele>57</ele>
        <time>2021-08-22T11:46:45.000Z</time>
      </trkpt>
      <trkpt lat="47.22945" lon="-1.52499">
        <ele>57</ele>
        <time>2021-08-22T11:46:47.000Z</time>
      </trkpt>
      <trkpt lat="47.22935" lon="-1.52511">
        <ele>57</ele>
        <time>2021-08-22T11:46:49.000Z</time>
      </trkpt>
      <trkpt lat="47.22925" lon="-1.52523">
        <ele>58</ele>
        <time>2021-08-22T11:46:51.000Z</time>
      </trkpt>
      <trkpt lat="47.22916" lon="-1.52535">
        <ele>58</ele>
        <time>2021-08-22T11:46:53.000Z</time>
      </trkpt>
      <trkpt lat="47.22907" lon="-1.52549">
        <ele>58</ele>
        <time>2021-08-22T11:46:55.000Z</time>
      </trkpt>
      <trkpt lat="47.22899" lon="-1.52562">
        <ele>57</ele>
        <time>2021-08-22T11:46:57.000Z</time>
      </trkpt>
      <trkpt lat="47.22891" lon="-1.52574">
        <ele>57</ele>
        <time>2021-08-22T11:46:59.000Z</time>
      </trkpt>
      <trkpt lat="47.22883" lon="-1.52586">
        <ele>57</ele>
        <time>2021-08-22T11:47:01.000Z</time>
      </trkpt>
      <trkpt lat="47.22876" lon="-1.52597">
        <ele>57</ele>
        <time>2021-08-22T11:47:03.000Z</time>
      </trkpt>
      <trkpt lat="47.22869" lon="-1.52607">
        <ele>57</ele>
        <time>2021-08-22T11:47:06.000Z</time>
      </trkpt>
      <trkpt lat="47.22864" lon="-1.52617">
        <ele>56</ele>
        <time>2021-08-22T11:47:11.000Z</time>
      </trkpt>
      <trkpt lat="47.22858" lon="-1.52628">
        <ele>57</ele>
        <time>2021-08-22T11:47:27.000Z</time>
      </trkpt>
      <trkpt lat="47.2285" lon="-1.52639">
        <ele>58</ele>
        <time>2021-08-22T11:47:29.000Z</time>
      </trkpt>
      <trkpt lat="47.22839" lon="-1.52652">
        <ele>57</ele>
        <time>2021-08-22T11:47:31.000Z</time>
      </trkpt>
      <trkpt lat="47.2283" lon="-1.52666">
        <ele>57</ele>
        <time>2021-08-22T11:47:33.000Z</time>
      </trkpt>
      <trkpt lat="47.22821" lon="-1.5268">
        <ele>57</ele>
        <time>2021-08-22T11:47:35.000Z</time>
      </trkpt>
      <trkpt lat="47.22811" lon="-1.52693">
        <ele>56</ele>
        <time>2021-08-22T11:47:37.000Z</time>
      </trkpt>
      <trkpt lat="47.22801" lon="-1.52706">
        <ele>56</ele>
        <time>2021-08-22T11:47:39.000Z</time>
      </trkpt>
      <trkpt lat="47.22791" lon="-1.5272">
        <ele>56</ele>
        <time>2021-08-22T11:47:41.000Z</time>
      </trkpt>
      <trkpt lat="47.22782" lon="-1.52734">
        <ele>56</ele>
        <time>2021-08-22T11:47:43.000Z</time>
      </trkpt>
      <trkpt lat="47.22773" lon="-1.52748">
        <ele>56</ele>
        <time>2021-08-22T11:47:45.000Z</time>
      </trkpt>
      <trkpt lat="47.22764" lon="-1.52762">
        <ele>56</ele>
        <time>2021-08-22T11:47:47.000Z</time>
      </trkpt>
      <trkpt lat="47.22754" lon="-1.52774">
        <ele>55</ele>
        <time>2021-08-22T11:47:49.000Z</time>
      </trkpt>
      <trkpt lat="47.22744" lon="-1.52788">
        <ele>55</ele>
        <time>2021-08-22T11:47:51.000Z</time>
      </trkpt>
      <trkpt lat="47.22734" lon="-1.52801">
        <ele>55</ele>
        <time>2021-08-22T11:47:53.000Z</time>
      </trkpt>
      <trkpt lat="47.22724" lon="-1.52813">
        <ele>55</ele>
        <time>2021-08-22T11:47:55.000Z</time>
      </trkpt>
      <trkpt lat="47.22714" lon="-1.52825">
        <ele>55</ele>
        <time>2021-08-22T11:47:57.000Z</time>
      </trkpt>
      <trkpt lat="47.22703" lon="-1.52836">
        <ele>55</ele>
        <time>2021-08-22T11:47:59.000Z</time>
      </trkpt>
      <trkpt lat="47.22692" lon="-1.52846">
        <ele>55</ele>
        <time>2021-08-22T11:48:01.000Z</time>
      </trkpt>
      <trkpt lat="47.22681" lon="-1.52853">
        <ele>56</ele>
        <time>2021-08-22T11:48:03.000Z</time>
      </trkpt>
      <trkpt lat="47.2267" lon="-1.52862">
        <ele>56</ele>
        <time>2021-08-22T11:48:05.000Z</time>
      </trkpt>
      <trkpt lat="47.2266" lon="-1.52873">
        <ele>56</ele>
        <time>2021-08-22T11:48:07.000Z</time>
      </trkpt>
      <trkpt lat="47.2265" lon="-1.52883">
        <ele>56</ele>
        <time>2021-08-22T11:48:09.000Z</time>
      </trkpt>
      <trkpt lat="47.22638" lon="-1.52891">
        <ele>56</ele>
        <time>2021-08-22T11:48:11.000Z</time>
      </trkpt>
      <trkpt lat="47.22626" lon="-1.52898">
        <ele>56</ele>
        <time>2021-08-22T11:48:13.000Z</time>
      </trkpt>
      <trkpt lat="47.22614" lon="-1.52903">
        <ele>55</ele>
        <time>2021-08-22T11:48:15.000Z</time>
      </trkpt>
      <trkpt lat="47.226" lon="-1.52908">
        <ele>55</ele>
        <time>2021-08-22T11:48:17.000Z</time>
      </trkpt>
      <trkpt lat="47.22588" lon="-1.52913">
        <ele>55</ele>
        <time>2021-08-22T11:48:19.000Z</time>
      </trkpt>
      <trkpt lat="47.22575" lon="-1.52918">
        <ele>56</ele>
        <time>2021-08-22T11:48:21.000Z</time>
      </trkpt>
      <trkpt lat="47.22563" lon="-1.52925">
        <ele>56</ele>
        <time>2021-08-22T11:48:23.000Z</time>
      </trkpt>
      <trkpt lat="47.22551" lon="-1.5293">
        <ele>57</ele>
        <time>2021-08-22T11:48:25.000Z</time>
      </trkpt>
      <trkpt lat="47.2254" lon="-1.52935">
        <ele>57</ele>
        <time>2021-08-22T11:48:27.000Z</time>
      </trkpt>
      <trkpt lat="47.2253" lon="-1.52941">
        <ele>56</ele>
        <time>2021-08-22T11:48:29.000Z</time>
      </trkpt>
      <trkpt lat="47.22518" lon="-1.52947">
        <ele>55</ele>
        <time>2021-08-22T11:48:31.000Z</time>
      </trkpt>
      <trkpt lat="47.22507" lon="-1.52952">
        <ele>56</ele>
        <time>2021-08-22T11:48:33.000Z</time>
      </trkpt>
      <trkpt lat="47.22496" lon="-1.52958">
        <ele>55</ele>
        <time>2021-08-22T11:48:35.000Z</time>
      </trkpt>
      <trkpt lat="47.22482" lon="-1.52962">
        <ele>55</ele>
        <time>2021-08-22T11:48:37.000Z</time>
      </trkpt>
      <trkpt lat="47.2247" lon="-1.52968">
        <ele>55</ele>
        <time>2021-08-22T11:48:39.000Z</time>
      </trkpt>
      <trkpt lat="47.22458" lon="-1.52974">
        <ele>55</ele>
        <time>2021-08-22T11:48:41.000Z</time>
      </trkpt>
      <trkpt lat="47.22446" lon="-1.52981">
        <ele>56</ele>
        <time>2021-08-22T11:48:43.000Z</time>
      </trkpt>
      <trkpt lat="47.22431" lon="-1.52986">
        <ele>56</ele>
        <time>2021-08-22T11:48:45.000Z</time>
      </trkpt>
      <trkpt lat="47.22417" lon="-1.52992">
        <ele>57</ele>
        <time>2021-08-22T11:48:47.000Z</time>
      </trkpt>
      <trkpt lat="47.22403" lon="-1.52998">
        <ele>58</ele>
        <time>2021-08-22T11:48:49.000Z</time>
      </trkpt>
      <trkpt lat="47.2239" lon="-1.53003">
        <ele>59</ele>
        <time>2021-08-22T11:48:51.000Z</time>
      </trkpt>
      <trkpt lat="47.22377" lon="-1.5301">
        <ele>59</ele>
        <time>2021-08-22T11:48:53.000Z</time>
      </trkpt>
      <trkpt lat="47.22364" lon="-1.53018">
        <ele>59</ele>
        <time>2021-08-22T11:48:55.000Z</time>
      </trkpt>
      <trkpt lat="47.22351" lon="-1.53024">
        <ele>58</ele>
        <time>2021-08-22T11:48:57.000Z</time>
      </trkpt>
      <trkpt lat="47.22338" lon="-1.53031">
        <ele>58</ele>
        <time>2021-08-22T11:48:59.000Z</time>
      </trkpt>
      <trkpt lat="47.22325" lon="-1.53038">
        <ele>57</ele>
        <time>2021-08-22T11:49:01.000Z</time>
      </trkpt>
      <trkpt lat="47.22313" lon="-1.53043">
        <ele>57</ele>
        <time>2021-08-22T11:49:03.000Z</time>
      </trkpt>
      <trkpt lat="47.22299" lon="-1.5305">
        <ele>58</ele>
        <time>2021-08-22T11:49:05.000Z</time>
      </trkpt>
      <trkpt lat="47.22286" lon="-1.53056">
        <ele>58</ele>
        <time>2021-08-22T11:49:07.000Z</time>
      </trkpt>
      <trkpt lat="47.22273" lon="-1.53062">
        <ele>58</ele>
        <time>2021-08-22T11:49:09.000Z</time>
      </trkpt>
      <trkpt lat="47.22261" lon="-1.53067">
        <ele>59</ele>
        <time>2021-08-22T11:49:11.000Z</time>
      </trkpt>
      <trkpt lat="47.22249" lon="-1.53073">
        <ele>59</ele>
        <time>2021-08-22T11:49:13.000Z</time>
      </trkpt>
      <trkpt lat="47.22237" lon="-1.53079">
        <ele>59</ele>
        <time>2021-08-22T11:49:15.000Z</time>
      </trkpt>
      <trkpt lat="47.22226" lon="-1.53085">
        <ele>59</ele>
        <time>2021-08-22T11:49:17.000Z</time>
      </trkpt>
      <trkpt lat="47.22214" lon="-1.53091">
        <ele>58</ele>
        <time>2021-08-22T11:49:19.000Z</time>
      </trkpt>
      <trkpt lat="47.22199" lon="-1.53097">
        <ele>58</ele>
        <time>2021-08-22T11:49:21.000Z</time>
      </trkpt>
      <trkpt lat="47.22184" lon="-1.53106">
        <ele>57</ele>
        <time>2021-08-22T11:49:23.000Z</time>
      </trkpt>
      <trkpt lat="47.22167" lon="-1.53113">
        <ele>58</ele>
        <time>2021-08-22T11:49:25.000Z</time>
      </trkpt>
      <trkpt lat="47.22151" lon="-1.53122">
        <ele>58</ele>
        <time>2021-08-22T11:49:27.000Z</time>
      </trkpt>
      <trkpt lat="47.22135" lon="-1.5313">
        <ele>58</ele>
        <time>2021-08-22T11:49:29.000Z</time>
      </trkpt>
      <trkpt lat="47.22118" lon="-1.53138">
        <ele>58</ele>
        <time>2021-08-22T11:49:31.000Z</time>
      </trkpt>
      <trkpt lat="47.22102" lon="-1.53145">
        <ele>58</ele>
        <time>2021-08-22T11:49:33.000Z</time>
      </trkpt>
      <trkpt lat="47.22087" lon="-1.53153">
        <ele>58</ele>
        <time>2021-08-22T11:49:35.000Z</time>
      </trkpt>
      <trkpt lat="47.22072" lon="-1.5316">
        <ele>58</ele>
        <time>2021-08-22T11:49:37.000Z</time>
      </trkpt>
      <trkpt lat="47.22057" lon="-1.53167">
        <ele>58</ele>
        <time>2021-08-22T11:49:39.000Z</time>
      </trkpt>
      <trkpt lat="47.22042" lon="-1.53174">
        <ele>59</ele>
        <time>2021-08-22T11:49:41.000Z</time>
      </trkpt>
      <trkpt lat="47.22028" lon="-1.5318">
        <ele>59</ele>
        <time>2021-08-22T11:49:43.000Z</time>
      </trkpt>
      <trkpt lat="47.22018" lon="-1.53184">
        <ele>60</ele>
        <time>2021-08-22T11:49:45.000Z</time>
      </trkpt>
      <trkpt lat="47.22008" lon="-1.5319">
        <ele>61</ele>
        <time>2021-08-22T11:49:49.000Z</time>
      </trkpt>
      <trkpt lat="47.21999" lon="-1.532">
        <ele>60</ele>
        <time>2021-08-22T11:50:31.000Z</time>
      </trkpt>
      <trkpt lat="47.21991" lon="-1.53209">
        <ele>60</ele>
        <time>2021-08-22T11:50:33.000Z</time>
      </trkpt>
      <trkpt lat="47.21981" lon="-1.53214">
        <ele>59</ele>
        <time>2021-08-22T11:50:35.000Z</time>
      </trkpt>
      <trkpt lat="47.21971" lon="-1.53216">
        <ele>58</ele>
        <time>2021-08-22T11:50:37.000Z</time>
      </trkpt>
      <trkpt lat="47.21959" lon="-1.53223">
        <ele>57</ele>
        <time>2021-08-22T11:50:40.000Z</time>
      </trkpt>
      <trkpt lat="47.2195" lon="-1.5322">
        <ele>57</ele>
        <time>2021-08-22T11:50:42.000Z</time>
      </trkpt>
      <trkpt lat="47.21941" lon="-1.53225">
        <ele>56</ele>
        <time>2021-08-22T11:50:44.000Z</time>
      </trkpt>
      <trkpt lat="47.21908" lon="-1.53212">
        <ele>57</ele>
        <time>2021-08-22T11:50:49.000Z</time>
      </trkpt>
      <trkpt lat="47.21897" lon="-1.53206">
        <ele>54</ele>
        <time>2021-08-22T11:50:50.000Z</time>
      </trkpt>
      <trkpt lat="47.21891" lon="-1.53196">
        <ele>50</ele>
        <time>2021-08-22T11:50:51.000Z</time>
      </trkpt>
      <trkpt lat="47.21877" lon="-1.532">
        <ele>52</ele>
        <time>2021-08-22T11:50:54.000Z</time>
      </trkpt>
      <trkpt lat="47.21864" lon="-1.53201">
        <ele>52</ele>
        <time>2021-08-22T11:50:56.000Z</time>
      </trkpt>
      <trkpt lat="47.21851" lon="-1.53198">
        <ele>53</ele>
        <time>2021-08-22T11:50:58.000Z</time>
      </trkpt>
      <trkpt lat="47.21838" lon="-1.53193">
        <ele>53</ele>
        <time>2021-08-22T11:51:00.000Z</time>
      </trkpt>
      <trkpt lat="47.21826" lon="-1.53188">
        <ele>53</ele>
        <time>2021-08-22T11:51:02.000Z</time>
      </trkpt>
      <trkpt lat="47.21814" lon="-1.53183">
        <ele>54</ele>
        <time>2021-08-22T11:51:04.000Z</time>
      </trkpt>
      <trkpt lat="47.21802" lon="-1.53179">
        <ele>55</ele>
        <time>2021-08-22T11:51:06.000Z</time>
      </trkpt>
      <trkpt lat="47.2179" lon="-1.53174">
        <ele>55</ele>
        <time>2021-08-22T11:51:08.000Z</time>
      </trkpt>
      <trkpt lat="47.21778" lon="-1.53169">
        <ele>56</ele>
        <time>2021-08-22T11:51:10.000Z</time>
      </trkpt>
      <trkpt lat="47.21768" lon="-1.53165">
        <ele>56</ele>
        <time>2021-08-22T11:51:12.000Z</time>
      </trkpt>
      <trkpt lat="47.21756" lon="-1.53167">
        <ele>55</ele>
        <time>2021-08-22T11:51:15.000Z</time>
      </trkpt>
      <trkpt lat="47.21747" lon="-1.53166">
        <ele>56</ele>
        <time>2021-08-22T11:51:19.000Z</time>
      </trkpt>
      <trkpt lat="47.2174" lon="-1.53158">
        <ele>56</ele>
        <time>2021-08-22T11:51:21.000Z</time>
      </trkpt>
      <trkpt lat="47.2173" lon="-1.53151">
        <ele>56</ele>
        <time>2021-08-22T11:51:23.000Z</time>
      </trkpt>
      <trkpt lat="47.21719" lon="-1.53145">
        <ele>55</ele>
        <time>2021-08-22T11:51:25.000Z</time>
      </trkpt>
      <trkpt lat="47.21708" lon="-1.5314">
        <ele>55</ele>
        <time>2021-08-22T11:51:27.000Z</time>
      </trkpt>
      <trkpt lat="47.21695" lon="-1.53136">
        <ele>56</ele>
        <time>2021-08-22T11:51:29.000Z</time>
      </trkpt>
      <trkpt lat="47.21683" lon="-1.53131">
        <ele>55</ele>
        <time>2021-08-22T11:51:31.000Z</time>
      </trkpt>
      <trkpt lat="47.2167" lon="-1.53126">
        <ele>56</ele>
        <time>2021-08-22T11:51:33.000Z</time>
      </trkpt>
      <trkpt lat="47.21657" lon="-1.53121">
        <ele>55</ele>
        <time>2021-08-22T11:51:35.000Z</time>
      </trkpt>
      <trkpt lat="47.21645" lon="-1.53117">
        <ele>56</ele>
        <time>2021-08-22T11:51:37.000Z</time>
      </trkpt>
      <trkpt lat="47.21633" lon="-1.53112">
        <ele>56</ele>
        <time>2021-08-22T11:51:39.000Z</time>
      </trkpt>
      <trkpt lat="47.21621" lon="-1.53107">
        <ele>57</ele>
        <time>2021-08-22T11:51:41.000Z</time>
      </trkpt>
      <trkpt lat="47.2161" lon="-1.53103">
        <ele>57</ele>
        <time>2021-08-22T11:51:43.000Z</time>
      </trkpt>
      <trkpt lat="47.21599" lon="-1.53095">
        <ele>57</ele>
        <time>2021-08-22T11:51:45.000Z</time>
      </trkpt>
      <trkpt lat="47.21587" lon="-1.53088">
        <ele>57</ele>
        <time>2021-08-22T11:51:47.000Z</time>
      </trkpt>
      <trkpt lat="47.21575" lon="-1.53082">
        <ele>56</ele>
        <time>2021-08-22T11:51:49.000Z</time>
      </trkpt>
      <trkpt lat="47.21563" lon="-1.53076">
        <ele>56</ele>
        <time>2021-08-22T11:51:51.000Z</time>
      </trkpt>
      <trkpt lat="47.21554" lon="-1.53068">
        <ele>56</ele>
        <time>2021-08-22T11:51:53.000Z</time>
      </trkpt>
      <trkpt lat="47.21546" lon="-1.53059">
        <ele>56</ele>
        <time>2021-08-22T11:51:55.000Z</time>
      </trkpt>
      <trkpt lat="47.21535" lon="-1.53052">
        <ele>56</ele>
        <time>2021-08-22T11:51:57.000Z</time>
      </trkpt>
      <trkpt lat="47.21525" lon="-1.53053">
        <ele>56</ele>
        <time>2021-08-22T11:51:59.000Z</time>
      </trkpt>
      <trkpt lat="47.21514" lon="-1.53055">
        <ele>56</ele>
        <time>2021-08-22T11:52:01.000Z</time>
      </trkpt>
      <trkpt lat="47.21502" lon="-1.53054">
        <ele>57</ele>
        <time>2021-08-22T11:52:03.000Z</time>
      </trkpt>
      <trkpt lat="47.2149" lon="-1.53046">
        <ele>58</ele>
        <time>2021-08-22T11:52:05.000Z</time>
      </trkpt>
      <trkpt lat="47.2148" lon="-1.53037">
        <ele>58</ele>
        <time>2021-08-22T11:52:07.000Z</time>
      </trkpt>
      <trkpt lat="47.21469" lon="-1.5303">
        <ele>59</ele>
        <time>2021-08-22T11:52:09.000Z</time>
      </trkpt>
      <trkpt lat="47.21458" lon="-1.53022">
        <ele>60</ele>
        <time>2021-08-22T11:52:11.000Z</time>
      </trkpt>
      <trkpt lat="47.21448" lon="-1.53015">
        <ele>60</ele>
        <time>2021-08-22T11:52:13.000Z</time>
      </trkpt>
      <trkpt lat="47.21437" lon="-1.53007">
        <ele>60</ele>
        <time>2021-08-22T11:52:15.000Z</time>
      </trkpt>
      <trkpt lat="47.21425" lon="-1.53001">
        <ele>61</ele>
        <time>2021-08-22T11:52:17.000Z</time>
      </trkpt>
      <trkpt lat="47.21414" lon="-1.52994">
        <ele>62</ele>
        <time>2021-08-22T11:52:19.000Z</time>
      </trkpt>
      <trkpt lat="47.21403" lon="-1.52986">
        <ele>62</ele>
        <time>2021-08-22T11:52:21.000Z</time>
      </trkpt>
      <trkpt lat="47.21391" lon="-1.5298">
        <ele>61</ele>
        <time>2021-08-22T11:52:23.000Z</time>
      </trkpt>
      <trkpt lat="47.2138" lon="-1.52979">
        <ele>61</ele>
        <time>2021-08-22T11:52:25.000Z</time>
      </trkpt>
      <trkpt lat="47.21368" lon="-1.5298">
        <ele>62</ele>
        <time>2021-08-22T11:52:27.000Z</time>
      </trkpt>
      <trkpt lat="47.21357" lon="-1.52973">
        <ele>61</ele>
        <time>2021-08-22T11:52:29.000Z</time>
      </trkpt>
      <trkpt lat="47.21347" lon="-1.52963">
        <ele>61</ele>
        <time>2021-08-22T11:52:31.000Z</time>
      </trkpt>
      <trkpt lat="47.21336" lon="-1.52957">
        <ele>60</ele>
        <time>2021-08-22T11:52:33.000Z</time>
      </trkpt>
      <trkpt lat="47.21323" lon="-1.52952">
        <ele>61</ele>
        <time>2021-08-22T11:52:35.000Z</time>
      </trkpt>
      <trkpt lat="47.21309" lon="-1.52947">
        <ele>61</ele>
        <time>2021-08-22T11:52:37.000Z</time>
      </trkpt>
      <trkpt lat="47.21294" lon="-1.52944">
        <ele>61</ele>
        <time>2021-08-22T11:52:39.000Z</time>
      </trkpt>
      <trkpt lat="47.2128" lon="-1.5294">
        <ele>61</ele>
        <time>2021-08-22T11:52:41.000Z</time>
      </trkpt>
      <trkpt lat="47.21266" lon="-1.52937">
        <ele>61</ele>
        <time>2021-08-22T11:52:43.000Z</time>
      </trkpt>
      <trkpt lat="47.21252" lon="-1.52933">
        <ele>61</ele>
        <time>2021-08-22T11:52:45.000Z</time>
      </trkpt>
      <trkpt lat="47.21238" lon="-1.5293">
        <ele>61</ele>
        <time>2021-08-22T11:52:47.000Z</time>
      </trkpt>
      <trkpt lat="47.21218" lon="-1.52924">
        <ele>60</ele>
        <time>2021-08-22T11:52:50.000Z</time>
      </trkpt>
      <trkpt lat="47.21205" lon="-1.5292">
        <ele>61</ele>
        <time>2021-08-22T11:52:52.000Z</time>
      </trkpt>
      <trkpt lat="47.21184" lon="-1.52914">
        <ele>60</ele>
        <time>2021-08-22T11:52:55.000Z</time>
      </trkpt>
      <trkpt lat="47.21169" lon="-1.5291">
        <ele>60</ele>
        <time>2021-08-22T11:52:57.000Z</time>
      </trkpt>
      <trkpt lat="47.21154" lon="-1.52906">
        <ele>59</ele>
        <time>2021-08-22T11:52:59.000Z</time>
      </trkpt>
      <trkpt lat="47.21132" lon="-1.529">
        <ele>59</ele>
        <time>2021-08-22T11:53:02.000Z</time>
      </trkpt>
      <trkpt lat="47.21117" lon="-1.52894">
        <ele>59</ele>
        <time>2021-08-22T11:53:04.000Z</time>
      </trkpt>
      <trkpt lat="47.21104" lon="-1.52883">
        <ele>59</ele>
        <time>2021-08-22T11:53:06.000Z</time>
      </trkpt>
      <trkpt lat="47.21093" lon="-1.52869">
        <ele>60</ele>
        <time>2021-08-22T11:53:08.000Z</time>
      </trkpt>
      <trkpt lat="47.21082" lon="-1.52855">
        <ele>60</ele>
        <time>2021-08-22T11:53:10.000Z</time>
      </trkpt>
      <trkpt lat="47.21071" lon="-1.5284">
        <ele>60</ele>
        <time>2021-08-22T11:53:12.000Z</time>
      </trkpt>
      <trkpt lat="47.21061" lon="-1.52825">
        <ele>60</ele>
        <time>2021-08-22T11:53:14.000Z</time>
      </trkpt>
      <trkpt lat="47.21049" lon="-1.52812">
        <ele>60</ele>
        <time>2021-08-22T11:53:16.000Z</time>
      </trkpt>
      <trkpt lat="47.21037" lon="-1.52799">
        <ele>61</ele>
        <time>2021-08-22T11:53:18.000Z</time>
      </trkpt>
      <trkpt lat="47.21025" lon="-1.52785">
        <ele>61</ele>
        <time>2021-08-22T11:53:20.000Z</time>
      </trkpt>
      <trkpt lat="47.21015" lon="-1.52773">
        <ele>62</ele>
        <time>2021-08-22T11:53:22.000Z</time>
      </trkpt>
      <trkpt lat="47.21005" lon="-1.5276">
        <ele>62</ele>
        <time>2021-08-22T11:53:24.000Z</time>
      </trkpt>
      <trkpt lat="47.20995" lon="-1.52748">
        <ele>62</ele>
        <time>2021-08-22T11:53:26.000Z</time>
      </trkpt>
      <trkpt lat="47.20985" lon="-1.52735">
        <ele>61</ele>
        <time>2021-08-22T11:53:28.000Z</time>
      </trkpt>
      <trkpt lat="47.20974" lon="-1.52738">
        <ele>60</ele>
        <time>2021-08-22T11:53:31.000Z</time>
      </trkpt>
      <trkpt lat="47.20967" lon="-1.52753">
        <ele>61</ele>
        <time>2021-08-22T11:53:33.000Z</time>
      </trkpt>
      <trkpt lat="47.20958" lon="-1.52768">
        <ele>61</ele>
        <time>2021-08-22T11:53:35.000Z</time>
      </trkpt>
      <trkpt lat="47.20949" lon="-1.5278">
        <ele>61</ele>
        <time>2021-08-22T11:53:37.000Z</time>
      </trkpt>
      <trkpt lat="47.20942" lon="-1.52793">
        <ele>61</ele>
        <time>2021-08-22T11:53:39.000Z</time>
      </trkpt>
      <trkpt lat="47.20931" lon="-1.52792">
        <ele>60</ele>
        <time>2021-08-22T11:53:42.000Z</time>
      </trkpt>
      <trkpt lat="47.20921" lon="-1.52789">
        <ele>61</ele>
        <time>2021-08-22T11:53:44.000Z</time>
      </trkpt>
      <trkpt lat="47.20911" lon="-1.52777">
        <ele>61</ele>
        <time>2021-08-22T11:53:47.000Z</time>
      </trkpt>
      <trkpt lat="47.209" lon="-1.52772">
        <ele>61</ele>
        <time>2021-08-22T11:53:49.000Z</time>
      </trkpt>
      <trkpt lat="47.20889" lon="-1.52768">
        <ele>61</ele>
        <time>2021-08-22T11:53:51.000Z</time>
      </trkpt>
      <trkpt lat="47.20878" lon="-1.52758">
        <ele>60</ele>
        <time>2021-08-22T11:53:53.000Z</time>
      </trkpt>
      <trkpt lat="47.20865" lon="-1.52747">
        <ele>60</ele>
        <time>2021-08-22T11:53:55.000Z</time>
      </trkpt>
      <trkpt lat="47.20854" lon="-1.52734">
        <ele>60</ele>
        <time>2021-08-22T11:53:57.000Z</time>
      </trkpt>
      <trkpt lat="47.20843" lon="-1.52724">
        <ele>60</ele>
        <time>2021-08-22T11:53:59.000Z</time>
      </trkpt>
      <trkpt lat="47.2083" lon="-1.52717">
        <ele>60</ele>
        <time>2021-08-22T11:54:01.000Z</time>
      </trkpt>
      <trkpt lat="47.20817" lon="-1.5271">
        <ele>60</ele>
        <time>2021-08-22T11:54:03.000Z</time>
      </trkpt>
      <trkpt lat="47.20803" lon="-1.52704">
        <ele>59</ele>
        <time>2021-08-22T11:54:05.000Z</time>
      </trkpt>
      <trkpt lat="47.2079" lon="-1.52698">
        <ele>58</ele>
        <time>2021-08-22T11:54:07.000Z</time>
      </trkpt>
      <trkpt lat="47.20776" lon="-1.5269">
        <ele>58</ele>
        <time>2021-08-22T11:54:09.000Z</time>
      </trkpt>
      <trkpt lat="47.20763" lon="-1.52684">
        <ele>57</ele>
        <time>2021-08-22T11:54:11.000Z</time>
      </trkpt>
      <trkpt lat="47.20749" lon="-1.52677">
        <ele>57</ele>
        <time>2021-08-22T11:54:13.000Z</time>
      </trkpt>
      <trkpt lat="47.20735" lon="-1.52671">
        <ele>56</ele>
        <time>2021-08-22T11:54:15.000Z</time>
      </trkpt>
      <trkpt lat="47.20722" lon="-1.52665">
        <ele>56</ele>
        <time>2021-08-22T11:54:17.000Z</time>
      </trkpt>
      <trkpt lat="47.20709" lon="-1.52659">
        <ele>57</ele>
        <time>2021-08-22T11:54:19.000Z</time>
      </trkpt>
      <trkpt lat="47.20699" lon="-1.52658">
        <ele>57</ele>
        <time>2021-08-22T11:54:21.000Z</time>
      </trkpt>
      <trkpt lat="47.20693" lon="-1.52671">
        <ele>57</ele>
        <time>2021-08-22T11:54:23.000Z</time>
      </trkpt>
      <trkpt lat="47.20687" lon="-1.52682">
        <ele>57</ele>
        <time>2021-08-22T11:54:25.000Z</time>
      </trkpt>
      <trkpt lat="47.20677" lon="-1.52683">
        <ele>57</ele>
        <time>2021-08-22T11:54:27.000Z</time>
      </trkpt>
      <trkpt lat="47.20671" lon="-1.5267">
        <ele>57</ele>
        <time>2021-08-22T11:54:29.000Z</time>
      </trkpt>
      <trkpt lat="47.20662" lon="-1.52658">
        <ele>57</ele>
        <time>2021-08-22T11:54:31.000Z</time>
      </trkpt>
      <trkpt lat="47.20654" lon="-1.52644">
        <ele>57</ele>
        <time>2021-08-22T11:54:33.000Z</time>
      </trkpt>
      <trkpt lat="47.20645" lon="-1.5263">
        <ele>57</ele>
        <time>2021-08-22T11:54:35.000Z</time>
      </trkpt>
      <trkpt lat="47.20635" lon="-1.52615">
        <ele>58</ele>
        <time>2021-08-22T11:54:37.000Z</time>
      </trkpt>
      <trkpt lat="47.20625" lon="-1.52599">
        <ele>58</ele>
        <time>2021-08-22T11:54:39.000Z</time>
      </trkpt>
      <trkpt lat="47.20615" lon="-1.52583">
        <ele>59</ele>
        <time>2021-08-22T11:54:41.000Z</time>
      </trkpt>
      <trkpt lat="47.20606" lon="-1.52568">
        <ele>59</ele>
        <time>2021-08-22T11:54:43.000Z</time>
      </trkpt>
      <trkpt lat="47.20597" lon="-1.52552">
        <ele>59</ele>
        <time>2021-08-22T11:54:45.000Z</time>
      </trkpt>
      <trkpt lat="47.20588" lon="-1.52537">
        <ele>58</ele>
        <time>2021-08-22T11:54:47.000Z</time>
      </trkpt>
      <trkpt lat="47.2058" lon="-1.52525">
        <ele>59</ele>
        <time>2021-08-22T11:54:49.000Z</time>
      </trkpt>
      <trkpt lat="47.20571" lon="-1.52511">
        <ele>59</ele>
        <time>2021-08-22T11:54:51.000Z</time>
      </trkpt>
      <trkpt lat="47.20564" lon="-1.52498">
        <ele>59</ele>
        <time>2021-08-22T11:54:53.000Z</time>
      </trkpt>
      <trkpt lat="47.20556" lon="-1.52484">
        <ele>59</ele>
        <time>2021-08-22T11:54:55.000Z</time>
      </trkpt>
      <trkpt lat="47.20548" lon="-1.52472">
        <ele>59</ele>
        <time>2021-08-22T11:54:57.000Z</time>
      </trkpt>
      <trkpt lat="47.2054" lon="-1.52459">
        <ele>59</ele>
        <time>2021-08-22T11:54:59.000Z</time>
      </trkpt>
      <trkpt lat="47.20532" lon="-1.52445">
        <ele>59</ele>
        <time>2021-08-22T11:55:01.000Z</time>
      </trkpt>
      <trkpt lat="47.20524" lon="-1.52432">
        <ele>58</ele>
        <time>2021-08-22T11:55:03.000Z</time>
      </trkpt>
      <trkpt lat="47.20515" lon="-1.52418">
        <ele>58</ele>
        <time>2021-08-22T11:55:05.000Z</time>
      </trkpt>
      <trkpt lat="47.20506" lon="-1.52403">
        <ele>58</ele>
        <time>2021-08-22T11:55:07.000Z</time>
      </trkpt>
      <trkpt lat="47.20499" lon="-1.5239">
        <ele>58</ele>
        <time>2021-08-22T11:55:09.000Z</time>
      </trkpt>
      <trkpt lat="47.20489" lon="-1.52386">
        <ele>57</ele>
        <time>2021-08-22T11:55:12.000Z</time>
      </trkpt>
      <trkpt lat="47.20484" lon="-1.52398">
        <ele>57</ele>
        <time>2021-08-22T11:55:14.000Z</time>
      </trkpt>
      <trkpt lat="47.20478" lon="-1.52413">
        <ele>56</ele>
        <time>2021-08-22T11:55:16.000Z</time>
      </trkpt>
      <trkpt lat="47.20472" lon="-1.52431">
        <ele>56</ele>
        <time>2021-08-22T11:55:18.000Z</time>
      </trkpt>
      <trkpt lat="47.20468" lon="-1.5245">
        <ele>56</ele>
        <time>2021-08-22T11:55:20.000Z</time>
      </trkpt>
      <trkpt lat="47.20463" lon="-1.52468">
        <ele>56</ele>
        <time>2021-08-22T11:55:22.000Z</time>
      </trkpt>
      <trkpt lat="47.20458" lon="-1.52486">
        <ele>56</ele>
        <time>2021-08-22T11:55:24.000Z</time>
      </trkpt>
      <trkpt lat="47.20452" lon="-1.52504">
        <ele>55</ele>
        <time>2021-08-22T11:55:26.000Z</time>
      </trkpt>
      <trkpt lat="47.20445" lon="-1.52522">
        <ele>55</ele>
        <time>2021-08-22T11:55:28.000Z</time>
      </trkpt>
      <trkpt lat="47.20438" lon="-1.52539">
        <ele>55</ele>
        <time>2021-08-22T11:55:30.000Z</time>
      </trkpt>
      <trkpt lat="47.20432" lon="-1.52557">
        <ele>55</ele>
        <time>2021-08-22T11:55:32.000Z</time>
      </trkpt>
      <trkpt lat="47.20427" lon="-1.52575">
        <ele>55</ele>
        <time>2021-08-22T11:55:34.000Z</time>
      </trkpt>
      <trkpt lat="47.20422" lon="-1.52593">
        <ele>55</ele>
        <time>2021-08-22T11:55:36.000Z</time>
      </trkpt>
      <trkpt lat="47.20417" lon="-1.52611">
        <ele>55</ele>
        <time>2021-08-22T11:55:38.000Z</time>
      </trkpt>
      <trkpt lat="47.20411" lon="-1.52629">
        <ele>55</ele>
        <time>2021-08-22T11:55:40.000Z</time>
      </trkpt>
      <trkpt lat="47.20405" lon="-1.52647">
        <ele>55</ele>
        <time>2021-08-22T11:55:42.000Z</time>
      </trkpt>
      <trkpt lat="47.20398" lon="-1.52664">
        <ele>55</ele>
        <time>2021-08-22T11:55:44.000Z</time>
      </trkpt>
      <trkpt lat="47.2039" lon="-1.5268">
        <ele>55</ele>
        <time>2021-08-22T11:55:46.000Z</time>
      </trkpt>
      <trkpt lat="47.20382" lon="-1.52695">
        <ele>55</ele>
        <time>2021-08-22T11:55:48.000Z</time>
      </trkpt>
      <trkpt lat="47.20374" lon="-1.5271">
        <ele>54</ele>
        <time>2021-08-22T11:55:50.000Z</time>
      </trkpt>
      <trkpt lat="47.20365" lon="-1.52725">
        <ele>55</ele>
        <time>2021-08-22T11:55:52.000Z</time>
      </trkpt>
      <trkpt lat="47.20357" lon="-1.5274">
        <ele>55</ele>
        <time>2021-08-22T11:55:54.000Z</time>
      </trkpt>
      <trkpt lat="47.20349" lon="-1.52757">
        <ele>55</ele>
        <time>2021-08-22T11:55:56.000Z</time>
      </trkpt>
      <trkpt lat="47.20342" lon="-1.52774">
        <ele>55</ele>
        <time>2021-08-22T11:55:58.000Z</time>
      </trkpt>
      <trkpt lat="47.20334" lon="-1.52791">
        <ele>56</ele>
        <time>2021-08-22T11:56:00.000Z</time>
      </trkpt>
      <trkpt lat="47.20326" lon="-1.52808">
        <ele>56</ele>
        <time>2021-08-22T11:56:02.000Z</time>
      </trkpt>
      <trkpt lat="47.20318" lon="-1.52825">
        <ele>56</ele>
        <time>2021-08-22T11:56:04.000Z</time>
      </trkpt>
      <trkpt lat="47.2031" lon="-1.52841">
        <ele>56</ele>
        <time>2021-08-22T11:56:06.000Z</time>
      </trkpt>
      <trkpt lat="47.20302" lon="-1.52858">
        <ele>56</ele>
        <time>2021-08-22T11:56:08.000Z</time>
      </trkpt>
      <trkpt lat="47.20295" lon="-1.52875">
        <ele>56</ele>
        <time>2021-08-22T11:56:10.000Z</time>
      </trkpt>
      <trkpt lat="47.20289" lon="-1.52892">
        <ele>56</ele>
        <time>2021-08-22T11:56:12.000Z</time>
      </trkpt>
      <trkpt lat="47.20282" lon="-1.52909">
        <ele>57</ele>
        <time>2021-08-22T11:56:14.000Z</time>
      </trkpt>
      <trkpt lat="47.20275" lon="-1.52925">
        <ele>57</ele>
        <time>2021-08-22T11:56:16.000Z</time>
      </trkpt>
      <trkpt lat="47.20268" lon="-1.52941">
        <ele>57</ele>
        <time>2021-08-22T11:56:18.000Z</time>
      </trkpt>
      <trkpt lat="47.20259" lon="-1.52956">
        <ele>57</ele>
        <time>2021-08-22T11:56:20.000Z</time>
      </trkpt>
      <trkpt lat="47.2025" lon="-1.5297">
        <ele>57</ele>
        <time>2021-08-22T11:56:22.000Z</time>
      </trkpt>
      <trkpt lat="47.20243" lon="-1.52986">
        <ele>57</ele>
        <time>2021-08-22T11:56:24.000Z</time>
      </trkpt>
      <trkpt lat="47.20234" lon="-1.53001">
        <ele>57</ele>
        <time>2021-08-22T11:56:26.000Z</time>
      </trkpt>
      <trkpt lat="47.20225" lon="-1.53015">
        <ele>57</ele>
        <time>2021-08-22T11:56:28.000Z</time>
      </trkpt>
      <trkpt lat="47.20215" lon="-1.53027">
        <ele>57</ele>
        <time>2021-08-22T11:56:30.000Z</time>
      </trkpt>
      <trkpt lat="47.20204" lon="-1.53037">
        <ele>56</ele>
        <time>2021-08-22T11:56:32.000Z</time>
      </trkpt>
      <trkpt lat="47.20194" lon="-1.53049">
        <ele>56</ele>
        <time>2021-08-22T11:56:34.000Z</time>
      </trkpt>
      <trkpt lat="47.20184" lon="-1.53063">
        <ele>56</ele>
        <time>2021-08-22T11:56:36.000Z</time>
      </trkpt>
      <trkpt lat="47.20176" lon="-1.53077">
        <ele>56</ele>
        <time>2021-08-22T11:56:38.000Z</time>
      </trkpt>
      <trkpt lat="47.20168" lon="-1.53092">
        <ele>56</ele>
        <time>2021-08-22T11:56:40.000Z</time>
      </trkpt>
      <trkpt lat="47.20159" lon="-1.53108">
        <ele>56</ele>
        <time>2021-08-22T11:56:42.000Z</time>
      </trkpt>
      <trkpt lat="47.20152" lon="-1.53125">
        <ele>56</ele>
        <time>2021-08-22T11:56:44.000Z</time>
      </trkpt>
      <trkpt lat="47.20145" lon="-1.53141">
        <ele>56</ele>
        <time>2021-08-22T11:56:46.000Z</time>
      </trkpt>
      <trkpt lat="47.20139" lon="-1.53157">
        <ele>56</ele>
        <time>2021-08-22T11:56:48.000Z</time>
      </trkpt>
      <trkpt lat="47.20133" lon="-1.53174">
        <ele>57</ele>
        <time>2021-08-22T11:56:50.000Z</time>
      </trkpt>
      <trkpt lat="47.20128" lon="-1.53191">
        <ele>56</ele>
        <time>2021-08-22T11:56:52.000Z</time>
      </trkpt>
      <trkpt lat="47.20123" lon="-1.5321">
        <ele>56</ele>
        <time>2021-08-22T11:56:54.000Z</time>
      </trkpt>
      <trkpt lat="47.20119" lon="-1.53228">
        <ele>56</ele>
        <time>2021-08-22T11:56:56.000Z</time>
      </trkpt>
      <trkpt lat="47.20115" lon="-1.53246">
        <ele>55</ele>
        <time>2021-08-22T11:56:58.000Z</time>
      </trkpt>
      <trkpt lat="47.2011" lon="-1.53264">
        <ele>55</ele>
        <time>2021-08-22T11:57:00.000Z</time>
      </trkpt>
      <trkpt lat="47.20104" lon="-1.5328">
        <ele>55</ele>
        <time>2021-08-22T11:57:02.000Z</time>
      </trkpt>
      <trkpt lat="47.20098" lon="-1.53297">
        <ele>55</ele>
        <time>2021-08-22T11:57:04.000Z</time>
      </trkpt>
      <trkpt lat="47.20092" lon="-1.53313">
        <ele>55</ele>
        <time>2021-08-22T11:57:06.000Z</time>
      </trkpt>
      <trkpt lat="47.20084" lon="-1.53329">
        <ele>55</ele>
        <time>2021-08-22T11:57:08.000Z</time>
      </trkpt>
      <trkpt lat="47.20077" lon="-1.53345">
        <ele>55</ele>
        <time>2021-08-22T11:57:10.000Z</time>
      </trkpt>
      <trkpt lat="47.20071" lon="-1.53362">
        <ele>55</ele>
        <time>2021-08-22T11:57:12.000Z</time>
      </trkpt>
      <trkpt lat="47.20064" lon="-1.5338">
        <ele>55</ele>
        <time>2021-08-22T11:57:14.000Z</time>
      </trkpt>
      <trkpt lat="47.20058" lon="-1.53396">
        <ele>56</ele>
        <time>2021-08-22T11:57:16.000Z</time>
      </trkpt>
      <trkpt lat="47.20051" lon="-1.53411">
        <ele>55</ele>
        <time>2021-08-22T11:57:18.000Z</time>
      </trkpt>
      <trkpt lat="47.20044" lon="-1.53426">
        <ele>56</ele>
        <time>2021-08-22T11:57:20.000Z</time>
      </trkpt>
      <trkpt lat="47.20039" lon="-1.53443">
        <ele>56</ele>
        <time>2021-08-22T11:57:22.000Z</time>
      </trkpt>
      <trkpt lat="47.20034" lon="-1.5346">
        <ele>56</ele>
        <time>2021-08-22T11:57:24.000Z</time>
      </trkpt>
      <trkpt lat="47.20028" lon="-1.53476">
        <ele>56</ele>
        <time>2021-08-22T11:57:26.000Z</time>
      </trkpt>
      <trkpt lat="47.20021" lon="-1.53491">
        <ele>57</ele>
        <time>2021-08-22T11:57:28.000Z</time>
      </trkpt>
      <trkpt lat="47.20011" lon="-1.53504">
        <ele>57</ele>
        <time>2021-08-22T11:57:30.000Z</time>
      </trkpt>
      <trkpt lat="47.20001" lon="-1.53514">
        <ele>56</ele>
        <time>2021-08-22T11:57:32.000Z</time>
      </trkpt>
      <trkpt lat="47.19993" lon="-1.53526">
        <ele>57</ele>
        <time>2021-08-22T11:57:34.000Z</time>
      </trkpt>
      <trkpt lat="47.19986" lon="-1.5354">
        <ele>57</ele>
        <time>2021-08-22T11:57:36.000Z</time>
      </trkpt>
      <trkpt lat="47.19983" lon="-1.53556">
        <ele>57</ele>
        <time>2021-08-22T11:57:38.000Z</time>
      </trkpt>
      <trkpt lat="47.1998" lon="-1.53573">
        <ele>58</ele>
        <time>2021-08-22T11:57:40.000Z</time>
      </trkpt>
      <trkpt lat="47.19977" lon="-1.53591">
        <ele>58</ele>
        <time>2021-08-22T11:57:42.000Z</time>
      </trkpt>
      <trkpt lat="47.19974" lon="-1.53608">
        <ele>58</ele>
        <time>2021-08-22T11:57:44.000Z</time>
      </trkpt>
      <trkpt lat="47.1997" lon="-1.53626">
        <ele>58</ele>
        <time>2021-08-22T11:57:46.000Z</time>
      </trkpt>
      <trkpt lat="47.19967" lon="-1.53643">
        <ele>58</ele>
        <time>2021-08-22T11:57:48.000Z</time>
      </trkpt>
      <trkpt lat="47.19963" lon="-1.53659">
        <ele>58</ele>
        <time>2021-08-22T11:57:50.000Z</time>
      </trkpt>
      <trkpt lat="47.19959" lon="-1.53675">
        <ele>58</ele>
        <time>2021-08-22T11:57:52.000Z</time>
      </trkpt>
      <trkpt lat="47.19955" lon="-1.53691">
        <ele>59</ele>
        <time>2021-08-22T11:57:54.000Z</time>
      </trkpt>
      <trkpt lat="47.1995" lon="-1.53708">
        <ele>59</ele>
        <time>2021-08-22T11:57:56.000Z</time>
      </trkpt>
      <trkpt lat="47.19946" lon="-1.53725">
        <ele>60</ele>
        <time>2021-08-22T11:57:58.000Z</time>
      </trkpt>
      <trkpt lat="47.19942" lon="-1.53743">
        <ele>60</ele>
        <time>2021-08-22T11:58:00.000Z</time>
      </trkpt>
      <trkpt lat="47.19941" lon="-1.53761">
        <ele>61</ele>
        <time>2021-08-22T11:58:02.000Z</time>
      </trkpt>
      <trkpt lat="47.19939" lon="-1.5378">
        <ele>61</ele>
        <time>2021-08-22T11:58:04.000Z</time>
      </trkpt>
      <trkpt lat="47.19935" lon="-1.53801">
        <ele>62</ele>
        <time>2021-08-22T11:58:06.000Z</time>
      </trkpt>
      <trkpt lat="47.1993" lon="-1.53822">
        <ele>62</ele>
        <time>2021-08-22T11:58:08.000Z</time>
      </trkpt>
      <trkpt lat="47.19925" lon="-1.53841">
        <ele>63</ele>
        <time>2021-08-22T11:58:10.000Z</time>
      </trkpt>
      <trkpt lat="47.1992" lon="-1.53861">
        <ele>64</ele>
        <time>2021-08-22T11:58:12.000Z</time>
      </trkpt>
      <trkpt lat="47.19915" lon="-1.53882">
        <ele>64</ele>
        <time>2021-08-22T11:58:14.000Z</time>
      </trkpt>
      <trkpt lat="47.19908" lon="-1.53901">
        <ele>63</ele>
        <time>2021-08-22T11:58:16.000Z</time>
      </trkpt>
      <trkpt lat="47.19902" lon="-1.5392">
        <ele>63</ele>
        <time>2021-08-22T11:58:18.000Z</time>
      </trkpt>
      <trkpt lat="47.19897" lon="-1.5394">
        <ele>63</ele>
        <time>2021-08-22T11:58:20.000Z</time>
      </trkpt>
      <trkpt lat="47.19891" lon="-1.5396">
        <ele>64</ele>
        <time>2021-08-22T11:58:22.000Z</time>
      </trkpt>
      <trkpt lat="47.19885" lon="-1.5398">
        <ele>63</ele>
        <time>2021-08-22T11:58:24.000Z</time>
      </trkpt>
      <trkpt lat="47.19878" lon="-1.54001">
        <ele>63</ele>
        <time>2021-08-22T11:58:26.000Z</time>
      </trkpt>
      <trkpt lat="47.19873" lon="-1.54019">
        <ele>63</ele>
        <time>2021-08-22T11:58:28.000Z</time>
      </trkpt>
      <trkpt lat="47.19868" lon="-1.54035">
        <ele>64</ele>
        <time>2021-08-22T11:58:30.000Z</time>
      </trkpt>
      <trkpt lat="47.19863" lon="-1.54051">
        <ele>64</ele>
        <time>2021-08-22T11:58:32.000Z</time>
      </trkpt>
      <trkpt lat="47.19858" lon="-1.54067">
        <ele>64</ele>
        <time>2021-08-22T11:58:34.000Z</time>
      </trkpt>
      <trkpt lat="47.19853" lon="-1.54085">
        <ele>63</ele>
        <time>2021-08-22T11:58:36.000Z</time>
      </trkpt>
      <trkpt lat="47.19846" lon="-1.54102">
        <ele>61</ele>
        <time>2021-08-22T11:58:38.000Z</time>
      </trkpt>
      <trkpt lat="47.19839" lon="-1.54116">
        <ele>60</ele>
        <time>2021-08-22T11:58:40.000Z</time>
      </trkpt>
      <trkpt lat="47.19832" lon="-1.54131">
        <ele>60</ele>
        <time>2021-08-22T11:58:42.000Z</time>
      </trkpt>
      <trkpt lat="47.19827" lon="-1.54149">
        <ele>60</ele>
        <time>2021-08-22T11:58:44.000Z</time>
      </trkpt>
      <trkpt lat="47.19818" lon="-1.54166">
        <ele>60</ele>
        <time>2021-08-22T11:58:46.000Z</time>
      </trkpt>
      <trkpt lat="47.19806" lon="-1.5418">
        <ele>60</ele>
        <time>2021-08-22T11:58:48.000Z</time>
      </trkpt>
      <trkpt lat="47.19801" lon="-1.54196">
        <ele>59</ele>
        <time>2021-08-22T11:58:50.000Z</time>
      </trkpt>
      <trkpt lat="47.19798" lon="-1.54211">
        <ele>60</ele>
        <time>2021-08-22T11:59:32.000Z</time>
      </trkpt>
      <trkpt lat="47.19791" lon="-1.54228">
        <ele>60</ele>
        <time>2021-08-22T11:59:35.000Z</time>
      </trkpt>
      <trkpt lat="47.19785" lon="-1.54245">
        <ele>60</ele>
        <time>2021-08-22T11:59:37.000Z</time>
      </trkpt>
      <trkpt lat="47.19776" lon="-1.54259">
        <ele>60</ele>
        <time>2021-08-22T11:59:39.000Z</time>
      </trkpt>
      <trkpt lat="47.19765" lon="-1.54272">
        <ele>60</ele>
        <time>2021-08-22T11:59:41.000Z</time>
      </trkpt>
      <trkpt lat="47.19754" lon="-1.54288">
        <ele>59</ele>
        <time>2021-08-22T11:59:43.000Z</time>
      </trkpt>
      <trkpt lat="47.19741" lon="-1.54299">
        <ele>59</ele>
        <time>2021-08-22T11:59:45.000Z</time>
      </trkpt>
      <trkpt lat="47.19728" lon="-1.5431">
        <ele>58</ele>
        <time>2021-08-22T11:59:47.000Z</time>
      </trkpt>
      <trkpt lat="47.19714" lon="-1.54321">
        <ele>58</ele>
        <time>2021-08-22T11:59:49.000Z</time>
      </trkpt>
      <trkpt lat="47.197" lon="-1.54331">
        <ele>58</ele>
        <time>2021-08-22T11:59:51.000Z</time>
      </trkpt>
      <trkpt lat="47.19686" lon="-1.54341">
        <ele>58</ele>
        <time>2021-08-22T11:59:53.000Z</time>
      </trkpt>
      <trkpt lat="47.19673" lon="-1.54352">
        <ele>58</ele>
        <time>2021-08-22T11:59:55.000Z</time>
      </trkpt>
      <trkpt lat="47.1966" lon="-1.54362">
        <ele>58</ele>
        <time>2021-08-22T11:59:57.000Z</time>
      </trkpt>
      <trkpt lat="47.19647" lon="-1.54373">
        <ele>58</ele>
        <time>2021-08-22T11:59:59.000Z</time>
      </trkpt>
      <trkpt lat="47.19635" lon="-1.54384">
        <ele>59</ele>
        <time>2021-08-22T12:00:01.000Z</time>
      </trkpt>
      <trkpt lat="47.19623" lon="-1.54396">
        <ele>59</ele>
        <time>2021-08-22T12:00:03.000Z</time>
      </trkpt>
      <trkpt lat="47.19612" lon="-1.54408">
        <ele>59</ele>
        <time>2021-08-22T12:00:05.000Z</time>
      </trkpt>
      <trkpt lat="47.196" lon="-1.54418">
        <ele>59</ele>
        <time>2021-08-22T12:00:07.000Z</time>
      </trkpt>
      <trkpt lat="47.19589" lon="-1.54429">
        <ele>59</ele>
        <time>2021-08-22T12:00:09.000Z</time>
      </trkpt>
      <trkpt lat="47.19578" lon="-1.54441">
        <ele>59</ele>
        <time>2021-08-22T12:00:11.000Z</time>
      </trkpt>
      <trkpt lat="47.19566" lon="-1.54452">
        <ele>60</ele>
        <time>2021-08-22T12:00:13.000Z</time>
      </trkpt>
      <trkpt lat="47.19555" lon="-1.54463">
        <ele>59</ele>
        <time>2021-08-22T12:00:15.000Z</time>
      </trkpt>
      <trkpt lat="47.19544" lon="-1.54474">
        <ele>59</ele>
        <time>2021-08-22T12:00:17.000Z</time>
      </trkpt>
      <trkpt lat="47.19533" lon="-1.54484">
        <ele>59</ele>
        <time>2021-08-22T12:00:19.000Z</time>
      </trkpt>
      <trkpt lat="47.19523" lon="-1.54495">
        <ele>59</ele>
        <time>2021-08-22T12:00:21.000Z</time>
      </trkpt>
      <trkpt lat="47.19512" lon="-1.54503">
        <ele>59</ele>
        <time>2021-08-22T12:00:23.000Z</time>
      </trkpt>
      <trkpt lat="47.19501" lon="-1.54512">
        <ele>59</ele>
        <time>2021-08-22T12:00:25.000Z</time>
      </trkpt>
      <trkpt lat="47.1949" lon="-1.54521">
        <ele>58</ele>
        <time>2021-08-22T12:00:27.000Z</time>
      </trkpt>
      <trkpt lat="47.19479" lon="-1.54531">
        <ele>58</ele>
        <time>2021-08-22T12:00:29.000Z</time>
      </trkpt>
      <trkpt lat="47.19472" lon="-1.54546">
        <ele>56</ele>
        <time>2021-08-22T12:00:31.000Z</time>
      </trkpt>
      <trkpt lat="47.19468" lon="-1.54562">
        <ele>56</ele>
        <time>2021-08-22T12:00:33.000Z</time>
      </trkpt>
      <trkpt lat="47.1947" lon="-1.54579">
        <ele>56</ele>
        <time>2021-08-22T12:00:35.000Z</time>
      </trkpt>
      <trkpt lat="47.19475" lon="-1.54598">
        <ele>56</ele>
        <time>2021-08-22T12:00:37.000Z</time>
      </trkpt>
      <trkpt lat="47.19469" lon="-1.54617">
        <ele>56</ele>
        <time>2021-08-22T12:00:39.000Z</time>
      </trkpt>
      <trkpt lat="47.1946" lon="-1.54632">
        <ele>56</ele>
        <time>2021-08-22T12:00:41.000Z</time>
      </trkpt>
      <trkpt lat="47.19448" lon="-1.54641">
        <ele>57</ele>
        <time>2021-08-22T12:00:43.000Z</time>
      </trkpt>
      <trkpt lat="47.19441" lon="-1.54658">
        <ele>57</ele>
        <time>2021-08-22T12:00:45.000Z</time>
      </trkpt>
      <trkpt lat="47.19437" lon="-1.54678">
        <ele>58</ele>
        <time>2021-08-22T12:00:47.000Z</time>
      </trkpt>
      <trkpt lat="47.19433" lon="-1.54697">
        <ele>59</ele>
        <time>2021-08-22T12:00:49.000Z</time>
      </trkpt>
      <trkpt lat="47.19426" lon="-1.54715">
        <ele>60</ele>
        <time>2021-08-22T12:00:51.000Z</time>
      </trkpt>
      <trkpt lat="47.19421" lon="-1.54734">
        <ele>60</ele>
        <time>2021-08-22T12:00:53.000Z</time>
      </trkpt>
      <trkpt lat="47.19416" lon="-1.54751">
        <ele>61</ele>
        <time>2021-08-22T12:00:55.000Z</time>
      </trkpt>
      <trkpt lat="47.19411" lon="-1.54767">
        <ele>61</ele>
        <time>2021-08-22T12:00:57.000Z</time>
      </trkpt>
      <trkpt lat="47.19406" lon="-1.54784">
        <ele>62</ele>
        <time>2021-08-22T12:00:59.000Z</time>
      </trkpt>
      <trkpt lat="47.19403" lon="-1.54801">
        <ele>61</ele>
        <time>2021-08-22T12:01:01.000Z</time>
      </trkpt>
      <trkpt lat="47.19399" lon="-1.54818">
        <ele>61</ele>
        <time>2021-08-22T12:01:03.000Z</time>
      </trkpt>
      <trkpt lat="47.19395" lon="-1.54834">
        <ele>62</ele>
        <time>2021-08-22T12:01:05.000Z</time>
      </trkpt>
      <trkpt lat="47.19391" lon="-1.5485">
        <ele>62</ele>
        <time>2021-08-22T12:01:07.000Z</time>
      </trkpt>
      <trkpt lat="47.19387" lon="-1.54867">
        <ele>62</ele>
        <time>2021-08-22T12:01:09.000Z</time>
      </trkpt>
      <trkpt lat="47.19384" lon="-1.54883">
        <ele>64</ele>
        <time>2021-08-22T12:01:11.000Z</time>
      </trkpt>
      <trkpt lat="47.1938" lon="-1.54897">
        <ele>64</ele>
        <time>2021-08-22T12:01:13.000Z</time>
      </trkpt>
      <trkpt lat="47.19376" lon="-1.54913">
        <ele>65</ele>
        <time>2021-08-22T12:01:15.000Z</time>
      </trkpt>
      <trkpt lat="47.19371" lon="-1.54929">
        <ele>65</ele>
        <time>2021-08-22T12:01:17.000Z</time>
      </trkpt>
      <trkpt lat="47.19368" lon="-1.54943">
        <ele>65</ele>
        <time>2021-08-22T12:01:19.000Z</time>
      </trkpt>
      <trkpt lat="47.19363" lon="-1.54958">
        <ele>65</ele>
        <time>2021-08-22T12:01:21.000Z</time>
      </trkpt>
      <trkpt lat="47.19359" lon="-1.54974">
        <ele>65</ele>
        <time>2021-08-22T12:01:23.000Z</time>
      </trkpt>
      <trkpt lat="47.19356" lon="-1.5499">
        <ele>65</ele>
        <time>2021-08-22T12:01:25.000Z</time>
      </trkpt>
      <trkpt lat="47.19352" lon="-1.55005">
        <ele>65</ele>
        <time>2021-08-22T12:01:27.000Z</time>
      </trkpt>
      <trkpt lat="47.19348" lon="-1.55022">
        <ele>64</ele>
        <time>2021-08-22T12:01:29.000Z</time>
      </trkpt>
      <trkpt lat="47.19344" lon="-1.55039">
        <ele>63</ele>
        <time>2021-08-22T12:01:31.000Z</time>
      </trkpt>
      <trkpt lat="47.19339" lon="-1.55057">
        <ele>63</ele>
        <time>2021-08-22T12:01:33.000Z</time>
      </trkpt>
      <trkpt lat="47.19335" lon="-1.55075">
        <ele>62</ele>
        <time>2021-08-22T12:01:35.000Z</time>
      </trkpt>
      <trkpt lat="47.1933" lon="-1.55094">
        <ele>61</ele>
        <time>2021-08-22T12:01:37.000Z</time>
      </trkpt>
      <trkpt lat="47.19325" lon="-1.55113">
        <ele>60</ele>
        <time>2021-08-22T12:01:39.000Z</time>
      </trkpt>
      <trkpt lat="47.1932" lon="-1.55134">
        <ele>60</ele>
        <time>2021-08-22T12:01:41.000Z</time>
      </trkpt>
      <trkpt lat="47.19315" lon="-1.55155">
        <ele>59</ele>
        <time>2021-08-22T12:01:43.000Z</time>
      </trkpt>
      <trkpt lat="47.1931" lon="-1.55176">
        <ele>59</ele>
        <time>2021-08-22T12:01:45.000Z</time>
      </trkpt>
      <trkpt lat="47.19304" lon="-1.55197">
        <ele>59</ele>
        <time>2021-08-22T12:01:47.000Z</time>
      </trkpt>
      <trkpt lat="47.19299" lon="-1.55219">
        <ele>58</ele>
        <time>2021-08-22T12:01:49.000Z</time>
      </trkpt>
      <trkpt lat="47.19293" lon="-1.5524">
        <ele>58</ele>
        <time>2021-08-22T12:01:51.000Z</time>
      </trkpt>
      <trkpt lat="47.19288" lon="-1.55261">
        <ele>58</ele>
        <time>2021-08-22T12:01:53.000Z</time>
      </trkpt>
      <trkpt lat="47.19284" lon="-1.55281">
        <ele>57</ele>
        <time>2021-08-22T12:01:55.000Z</time>
      </trkpt>
      <trkpt lat="47.1928" lon="-1.55301">
        <ele>57</ele>
        <time>2021-08-22T12:01:57.000Z</time>
      </trkpt>
      <trkpt lat="47.19276" lon="-1.55322">
        <ele>57</ele>
        <time>2021-08-22T12:01:59.000Z</time>
      </trkpt>
      <trkpt lat="47.19272" lon="-1.55341">
        <ele>57</ele>
        <time>2021-08-22T12:02:01.000Z</time>
      </trkpt>
      <trkpt lat="47.19267" lon="-1.5536">
        <ele>57</ele>
        <time>2021-08-22T12:02:03.000Z</time>
      </trkpt>
      <trkpt lat="47.19262" lon="-1.55376">
        <ele>57</ele>
        <time>2021-08-22T12:02:05.000Z</time>
      </trkpt>
      <trkpt lat="47.19256" lon="-1.55392">
        <ele>57</ele>
        <time>2021-08-22T12:02:07.000Z</time>
      </trkpt>
      <trkpt lat="47.19254" lon="-1.5541">
        <ele>58</ele>
        <time>2021-08-22T12:02:09.000Z</time>
      </trkpt>
      <trkpt lat="47.19258" lon="-1.55427">
        <ele>58</ele>
        <time>2021-08-22T12:02:11.000Z</time>
      </trkpt>
      <trkpt lat="47.19257" lon="-1.55446">
        <ele>58</ele>
        <time>2021-08-22T12:02:13.000Z</time>
      </trkpt>
      <trkpt lat="47.19251" lon="-1.55462">
        <ele>58</ele>
        <time>2021-08-22T12:02:15.000Z</time>
      </trkpt>
      <trkpt lat="47.19248" lon="-1.5548">
        <ele>58</ele>
        <time>2021-08-22T12:02:17.000Z</time>
      </trkpt>
      <trkpt lat="47.19248" lon="-1.555">
        <ele>58</ele>
        <time>2021-08-22T12:02:19.000Z</time>
      </trkpt>
      <trkpt lat="47.19247" lon="-1.55519">
        <ele>58</ele>
        <time>2021-08-22T12:02:21.000Z</time>
      </trkpt>
      <trkpt lat="47.19247" lon="-1.55539">
        <ele>58</ele>
        <time>2021-08-22T12:02:23.000Z</time>
      </trkpt>
      <trkpt lat="47.19246" lon="-1.5556">
        <ele>58</ele>
        <time>2021-08-22T12:02:25.000Z</time>
      </trkpt>
      <trkpt lat="47.19244" lon="-1.5558">
        <ele>59</ele>
        <time>2021-08-22T12:02:27.000Z</time>
      </trkpt>
      <trkpt lat="47.19243" lon="-1.55599">
        <ele>59</ele>
        <time>2021-08-22T12:02:29.000Z</time>
      </trkpt>
      <trkpt lat="47.19242" lon="-1.55618">
        <ele>58</ele>
        <time>2021-08-22T12:02:31.000Z</time>
      </trkpt>
      <trkpt lat="47.19241" lon="-1.55637">
        <ele>58</ele>
        <time>2021-08-22T12:02:33.000Z</time>
      </trkpt>
      <trkpt lat="47.1924" lon="-1.55655">
        <ele>58</ele>
        <time>2021-08-22T12:02:35.000Z</time>
      </trkpt>
      <trkpt lat="47.1924" lon="-1.55673">
        <ele>58</ele>
        <time>2021-08-22T12:02:37.000Z</time>
      </trkpt>
      <trkpt lat="47.19239" lon="-1.5569">
        <ele>57</ele>
        <time>2021-08-22T12:02:39.000Z</time>
      </trkpt>
      <trkpt lat="47.19238" lon="-1.55709">
        <ele>58</ele>
        <time>2021-08-22T12:02:41.000Z</time>
      </trkpt>
      <trkpt lat="47.19238" lon="-1.55727">
        <ele>57</ele>
        <time>2021-08-22T12:02:43.000Z</time>
      </trkpt>
      <trkpt lat="47.19238" lon="-1.55746">
        <ele>57</ele>
        <time>2021-08-22T12:02:45.000Z</time>
      </trkpt>
      <trkpt lat="47.19238" lon="-1.55764">
        <ele>57</ele>
        <time>2021-08-22T12:02:47.000Z</time>
      </trkpt>
      <trkpt lat="47.19239" lon="-1.55782">
        <ele>56</ele>
        <time>2021-08-22T12:02:49.000Z</time>
      </trkpt>
      <trkpt lat="47.19239" lon="-1.558">
        <ele>56</ele>
        <time>2021-08-22T12:02:51.000Z</time>
      </trkpt>
      <trkpt lat="47.19239" lon="-1.55818">
        <ele>56</ele>
        <time>2021-08-22T12:02:53.000Z</time>
      </trkpt>
      <trkpt lat="47.1924" lon="-1.55836">
        <ele>56</ele>
        <time>2021-08-22T12:02:55.000Z</time>
      </trkpt>
      <trkpt lat="47.1924" lon="-1.55855">
        <ele>56</ele>
        <time>2021-08-22T12:02:57.000Z</time>
      </trkpt>
      <trkpt lat="47.19241" lon="-1.55874">
        <ele>55</ele>
        <time>2021-08-22T12:02:59.000Z</time>
      </trkpt>
      <trkpt lat="47.19242" lon="-1.55893">
        <ele>55</ele>
        <time>2021-08-22T12:03:01.000Z</time>
      </trkpt>
      <trkpt lat="47.19243" lon="-1.55912">
        <ele>55</ele>
        <time>2021-08-22T12:03:03.000Z</time>
      </trkpt>
      <trkpt lat="47.19245" lon="-1.55931">
        <ele>56</ele>
        <time>2021-08-22T12:03:05.000Z</time>
      </trkpt>
      <trkpt lat="47.19246" lon="-1.5595">
        <ele>56</ele>
        <time>2021-08-22T12:03:07.000Z</time>
      </trkpt>
      <trkpt lat="47.19248" lon="-1.55968">
        <ele>56</ele>
        <time>2021-08-22T12:03:09.000Z</time>
      </trkpt>
      <trkpt lat="47.19249" lon="-1.55986">
        <ele>56</ele>
        <time>2021-08-22T12:03:11.000Z</time>
      </trkpt>
      <trkpt lat="47.19251" lon="-1.56005">
        <ele>56</ele>
        <time>2021-08-22T12:03:13.000Z</time>
      </trkpt>
      <trkpt lat="47.19252" lon="-1.56023">
        <ele>55</ele>
        <time>2021-08-22T12:03:15.000Z</time>
      </trkpt>
      <trkpt lat="47.19254" lon="-1.56042">
        <ele>55</ele>
        <time>2021-08-22T12:03:17.000Z</time>
      </trkpt>
      <trkpt lat="47.19256" lon="-1.5606">
        <ele>55</ele>
        <time>2021-08-22T12:03:19.000Z</time>
      </trkpt>
      <trkpt lat="47.19258" lon="-1.56079">
        <ele>55</ele>
        <time>2021-08-22T12:03:21.000Z</time>
      </trkpt>
      <trkpt lat="47.1926" lon="-1.56097">
        <ele>55</ele>
        <time>2021-08-22T12:03:23.000Z</time>
      </trkpt>
      <trkpt lat="47.19261" lon="-1.56116">
        <ele>55</ele>
        <time>2021-08-22T12:03:25.000Z</time>
      </trkpt>
      <trkpt lat="47.19262" lon="-1.56135">
        <ele>55</ele>
        <time>2021-08-22T12:03:27.000Z</time>
      </trkpt>
      <trkpt lat="47.19263" lon="-1.56154">
        <ele>56</ele>
        <time>2021-08-22T12:03:29.000Z</time>
      </trkpt>
      <trkpt lat="47.19263" lon="-1.56172">
        <ele>56</ele>
        <time>2021-08-22T12:03:31.000Z</time>
      </trkpt>
      <trkpt lat="47.19264" lon="-1.5619">
        <ele>55</ele>
        <time>2021-08-22T12:03:33.000Z</time>
      </trkpt>
      <trkpt lat="47.19265" lon="-1.56209">
        <ele>56</ele>
        <time>2021-08-22T12:03:35.000Z</time>
      </trkpt>
      <trkpt lat="47.19268" lon="-1.56226">
        <ele>56</ele>
        <time>2021-08-22T12:03:37.000Z</time>
      </trkpt>
      <trkpt lat="47.19272" lon="-1.56243">
        <ele>56</ele>
        <time>2021-08-22T12:03:39.000Z</time>
      </trkpt>
      <trkpt lat="47.19282" lon="-1.56257">
        <ele>55</ele>
        <time>2021-08-22T12:03:41.000Z</time>
      </trkpt>
      <trkpt lat="47.19289" lon="-1.56273">
        <ele>55</ele>
        <time>2021-08-22T12:03:43.000Z</time>
      </trkpt>
      <trkpt lat="47.1929" lon="-1.56292">
        <ele>56</ele>
        <time>2021-08-22T12:03:45.000Z</time>
      </trkpt>
      <trkpt lat="47.19286" lon="-1.5631">
        <ele>56</ele>
        <time>2021-08-22T12:03:47.000Z</time>
      </trkpt>
      <trkpt lat="47.19281" lon="-1.56327">
        <ele>56</ele>
        <time>2021-08-22T12:03:49.000Z</time>
      </trkpt>
      <trkpt lat="47.1928" lon="-1.56346">
        <ele>56</ele>
        <time>2021-08-22T12:03:51.000Z</time>
      </trkpt>
      <trkpt lat="47.19284" lon="-1.56364">
        <ele>56</ele>
        <time>2021-08-22T12:03:53.000Z</time>
      </trkpt>
      <trkpt lat="47.19285" lon="-1.56382">
        <ele>56</ele>
        <time>2021-08-22T12:03:55.000Z</time>
      </trkpt>
      <trkpt lat="47.19287" lon="-1.564">
        <ele>56</ele>
        <time>2021-08-22T12:03:57.000Z</time>
      </trkpt>
      <trkpt lat="47.19288" lon="-1.56418">
        <ele>56</ele>
        <time>2021-08-22T12:03:59.000Z</time>
      </trkpt>
      <trkpt lat="47.1929" lon="-1.56436">
        <ele>56</ele>
        <time>2021-08-22T12:04:01.000Z</time>
      </trkpt>
      <trkpt lat="47.19292" lon="-1.56454">
        <ele>56</ele>
        <time>2021-08-22T12:04:03.000Z</time>
      </trkpt>
      <trkpt lat="47.19293" lon="-1.56472">
        <ele>56</ele>
        <time>2021-08-22T12:04:05.000Z</time>
      </trkpt>
      <trkpt lat="47.19295" lon="-1.56491">
        <ele>56</ele>
        <time>2021-08-22T12:04:07.000Z</time>
      </trkpt>
      <trkpt lat="47.19296" lon="-1.56508">
        <ele>56</ele>
        <time>2021-08-22T12:04:09.000Z</time>
      </trkpt>
      <trkpt lat="47.19298" lon="-1.56527">
        <ele>56</ele>
        <time>2021-08-22T12:04:11.000Z</time>
      </trkpt>
      <trkpt lat="47.193" lon="-1.56545">
        <ele>55</ele>
        <time>2021-08-22T12:04:13.000Z</time>
      </trkpt>
      <trkpt lat="47.19302" lon="-1.56565">
        <ele>56</ele>
        <time>2021-08-22T12:04:15.000Z</time>
      </trkpt>
      <trkpt lat="47.19303" lon="-1.56583">
        <ele>56</ele>
        <time>2021-08-22T12:04:17.000Z</time>
      </trkpt>
      <trkpt lat="47.19305" lon="-1.56602">
        <ele>55</ele>
        <time>2021-08-22T12:04:19.000Z</time>
      </trkpt>
      <trkpt lat="47.19307" lon="-1.56621">
        <ele>55</ele>
        <time>2021-08-22T12:04:21.000Z</time>
      </trkpt>
      <trkpt lat="47.19309" lon="-1.56641">
        <ele>55</ele>
        <time>2021-08-22T12:04:23.000Z</time>
      </trkpt>
      <trkpt lat="47.1931" lon="-1.56659">
        <ele>55</ele>
        <time>2021-08-22T12:04:25.000Z</time>
      </trkpt>
      <trkpt lat="47.19312" lon="-1.56678">
        <ele>55</ele>
        <time>2021-08-22T12:04:27.000Z</time>
      </trkpt>
      <trkpt lat="47.19313" lon="-1.56696">
        <ele>55</ele>
        <time>2021-08-22T12:04:29.000Z</time>
      </trkpt>
      <trkpt lat="47.19315" lon="-1.56714">
        <ele>56</ele>
        <time>2021-08-22T12:04:31.000Z</time>
      </trkpt>
      <trkpt lat="47.19317" lon="-1.56732">
        <ele>56</ele>
        <time>2021-08-22T12:04:33.000Z</time>
      </trkpt>
      <trkpt lat="47.19318" lon="-1.5675">
        <ele>56</ele>
        <time>2021-08-22T12:04:35.000Z</time>
      </trkpt>
      <trkpt lat="47.1932" lon="-1.56769">
        <ele>56</ele>
        <time>2021-08-22T12:04:37.000Z</time>
      </trkpt>
      <trkpt lat="47.19321" lon="-1.56786">
        <ele>55</ele>
        <time>2021-08-22T12:04:39.000Z</time>
      </trkpt>
      <trkpt lat="47.19323" lon="-1.56803">
        <ele>55</ele>
        <time>2021-08-22T12:04:41.000Z</time>
      </trkpt>
      <trkpt lat="47.19324" lon="-1.56821">
        <ele>55</ele>
        <time>2021-08-22T12:04:43.000Z</time>
      </trkpt>
      <trkpt lat="47.19325" lon="-1.5684">
        <ele>55</ele>
        <time>2021-08-22T12:04:45.000Z</time>
      </trkpt>
      <trkpt lat="47.19327" lon="-1.56858">
        <ele>55</ele>
        <time>2021-08-22T12:04:47.000Z</time>
      </trkpt>
      <trkpt lat="47.19328" lon="-1.56876">
        <ele>55</ele>
        <time>2021-08-22T12:04:49.000Z</time>
      </trkpt>
      <trkpt lat="47.19328" lon="-1.56894">
        <ele>55</ele>
        <time>2021-08-22T12:04:51.000Z</time>
      </trkpt>
      <trkpt lat="47.19329" lon="-1.56912">
        <ele>55</ele>
        <time>2021-08-22T12:04:53.000Z</time>
      </trkpt>
      <trkpt lat="47.19328" lon="-1.56931">
        <ele>55</ele>
        <time>2021-08-22T12:04:55.000Z</time>
      </trkpt>
      <trkpt lat="47.19328" lon="-1.56949">
        <ele>55</ele>
        <time>2021-08-22T12:04:57.000Z</time>
      </trkpt>
      <trkpt lat="47.19327" lon="-1.56966">
        <ele>55</ele>
        <time>2021-08-22T12:04:59.000Z</time>
      </trkpt>
      <trkpt lat="47.19326" lon="-1.56984">
        <ele>56</ele>
        <time>2021-08-22T12:05:01.000Z</time>
      </trkpt>
      <trkpt lat="47.19324" lon="-1.57001">
        <ele>56</ele>
        <time>2021-08-22T12:05:03.000Z</time>
      </trkpt>
      <trkpt lat="47.19322" lon="-1.57017">
        <ele>57</ele>
        <time>2021-08-22T12:05:05.000Z</time>
      </trkpt>
      <trkpt lat="47.19324" lon="-1.57032">
        <ele>56</ele>
        <time>2021-08-22T12:05:07.000Z</time>
      </trkpt>
      <trkpt lat="47.19331" lon="-1.57044">
        <ele>56</ele>
        <time>2021-08-22T12:05:09.000Z</time>
      </trkpt>
      <trkpt lat="47.19339" lon="-1.57055">
        <ele>56</ele>
        <time>2021-08-22T12:05:11.000Z</time>
      </trkpt>
      <trkpt lat="47.19339" lon="-1.57074">
        <ele>55</ele>
        <time>2021-08-22T12:05:13.000Z</time>
      </trkpt>
      <trkpt lat="47.19327" lon="-1.57085">
        <ele>56</ele>
        <time>2021-08-22T12:05:15.000Z</time>
      </trkpt>
      <trkpt lat="47.19316" lon="-1.57094">
        <ele>56</ele>
        <time>2021-08-22T12:05:17.000Z</time>
      </trkpt>
      <trkpt lat="47.19311" lon="-1.5711">
        <ele>57</ele>
        <time>2021-08-22T12:05:19.000Z</time>
      </trkpt>
      <trkpt lat="47.19309" lon="-1.57128">
        <ele>57</ele>
        <time>2021-08-22T12:05:21.000Z</time>
      </trkpt>
      <trkpt lat="47.19307" lon="-1.57146">
        <ele>57</ele>
        <time>2021-08-22T12:05:23.000Z</time>
      </trkpt>
      <trkpt lat="47.19304" lon="-1.57164">
        <ele>57</ele>
        <time>2021-08-22T12:05:25.000Z</time>
      </trkpt>
      <trkpt lat="47.19303" lon="-1.57182">
        <ele>57</ele>
        <time>2021-08-22T12:05:27.000Z</time>
      </trkpt>
      <trkpt lat="47.19299" lon="-1.57199">
        <ele>57</ele>
        <time>2021-08-22T12:05:29.000Z</time>
      </trkpt>
      <trkpt lat="47.19296" lon="-1.57217">
        <ele>57</ele>
        <time>2021-08-22T12:05:31.000Z</time>
      </trkpt>
      <trkpt lat="47.19292" lon="-1.57235">
        <ele>57</ele>
        <time>2021-08-22T12:05:33.000Z</time>
      </trkpt>
      <trkpt lat="47.19288" lon="-1.57252">
        <ele>58</ele>
        <time>2021-08-22T12:05:35.000Z</time>
      </trkpt>
      <trkpt lat="47.19284" lon="-1.5727">
        <ele>58</ele>
        <time>2021-08-22T12:05:37.000Z</time>
      </trkpt>
      <trkpt lat="47.19279" lon="-1.57286">
        <ele>58</ele>
        <time>2021-08-22T12:05:39.000Z</time>
      </trkpt>
      <trkpt lat="47.19274" lon="-1.57302">
        <ele>58</ele>
        <time>2021-08-22T12:05:41.000Z</time>
      </trkpt>
      <trkpt lat="47.19269" lon="-1.57319">
        <ele>59</ele>
        <time>2021-08-22T12:05:43.000Z</time>
      </trkpt>
      <trkpt lat="47.19264" lon="-1.57336">
        <ele>60</ele>
        <time>2021-08-22T12:05:45.000Z</time>
      </trkpt>
      <trkpt lat="47.19259" lon="-1.57352">
        <ele>60</ele>
        <time>2021-08-22T12:05:47.000Z</time>
      </trkpt>
      <trkpt lat="47.19254" lon="-1.57369">
        <ele>60</ele>
        <time>2021-08-22T12:05:49.000Z</time>
      </trkpt>
      <trkpt lat="47.19249" lon="-1.57385">
        <ele>60</ele>
        <time>2021-08-22T12:05:51.000Z</time>
      </trkpt>
      <trkpt lat="47.19242" lon="-1.57403">
        <ele>60</ele>
        <time>2021-08-22T12:05:53.000Z</time>
      </trkpt>
      <trkpt lat="47.19236" lon="-1.57419">
        <ele>60</ele>
        <time>2021-08-22T12:05:55.000Z</time>
      </trkpt>
      <trkpt lat="47.1923" lon="-1.57436">
        <ele>60</ele>
        <time>2021-08-22T12:05:57.000Z</time>
      </trkpt>
      <trkpt lat="47.19224" lon="-1.57453">
        <ele>59</ele>
        <time>2021-08-22T12:05:59.000Z</time>
      </trkpt>
      <trkpt lat="47.19218" lon="-1.5747">
        <ele>59</ele>
        <time>2021-08-22T12:06:01.000Z</time>
      </trkpt>
      <trkpt lat="47.19212" lon="-1.57488">
        <ele>59</ele>
        <time>2021-08-22T12:06:03.000Z</time>
      </trkpt>
      <trkpt lat="47.19206" lon="-1.57505">
        <ele>60</ele>
        <time>2021-08-22T12:06:05.000Z</time>
      </trkpt>
      <trkpt lat="47.19199" lon="-1.57523">
        <ele>60</ele>
        <time>2021-08-22T12:06:07.000Z</time>
      </trkpt>
      <trkpt lat="47.19193" lon="-1.5754">
        <ele>59</ele>
        <time>2021-08-22T12:06:09.000Z</time>
      </trkpt>
      <trkpt lat="47.19187" lon="-1.57558">
        <ele>59</ele>
        <time>2021-08-22T12:06:11.000Z</time>
      </trkpt>
      <trkpt lat="47.19181" lon="-1.57576">
        <ele>59</ele>
        <time>2021-08-22T12:06:13.000Z</time>
      </trkpt>
      <trkpt lat="47.19175" lon="-1.57593">
        <ele>59</ele>
        <time>2021-08-22T12:06:15.000Z</time>
      </trkpt>
      <trkpt lat="47.19169" lon="-1.5761">
        <ele>59</ele>
        <time>2021-08-22T12:06:17.000Z</time>
      </trkpt>
      <trkpt lat="47.19163" lon="-1.57627">
        <ele>59</ele>
        <time>2021-08-22T12:06:19.000Z</time>
      </trkpt>
      <trkpt lat="47.19157" lon="-1.57644">
        <ele>59</ele>
        <time>2021-08-22T12:06:21.000Z</time>
      </trkpt>
      <trkpt lat="47.1915" lon="-1.57662">
        <ele>59</ele>
        <time>2021-08-22T12:06:23.000Z</time>
      </trkpt>
      <trkpt lat="47.19141" lon="-1.57687">
        <ele>58</ele>
        <time>2021-08-22T12:06:26.000Z</time>
      </trkpt>
      <trkpt lat="47.19132" lon="-1.57713">
        <ele>58</ele>
        <time>2021-08-22T12:06:29.000Z</time>
      </trkpt>
      <trkpt lat="47.19126" lon="-1.5773">
        <ele>58</ele>
        <time>2021-08-22T12:06:31.000Z</time>
      </trkpt>
      <trkpt lat="47.1912" lon="-1.57747">
        <ele>57</ele>
        <time>2021-08-22T12:06:33.000Z</time>
      </trkpt>
      <trkpt lat="47.19113" lon="-1.57764">
        <ele>57</ele>
        <time>2021-08-22T12:06:35.000Z</time>
      </trkpt>
      <trkpt lat="47.19107" lon="-1.57781">
        <ele>57</ele>
        <time>2021-08-22T12:06:37.000Z</time>
      </trkpt>
      <trkpt lat="47.19101" lon="-1.57799">
        <ele>57</ele>
        <time>2021-08-22T12:06:39.000Z</time>
      </trkpt>
      <trkpt lat="47.19095" lon="-1.57816">
        <ele>58</ele>
        <time>2021-08-22T12:06:41.000Z</time>
      </trkpt>
      <trkpt lat="47.19086" lon="-1.57841">
        <ele>58</ele>
        <time>2021-08-22T12:06:44.000Z</time>
      </trkpt>
      <trkpt lat="47.1908" lon="-1.57858">
        <ele>58</ele>
        <time>2021-08-22T12:06:46.000Z</time>
      </trkpt>
      <trkpt lat="47.19074" lon="-1.57876">
        <ele>58</ele>
        <time>2021-08-22T12:06:48.000Z</time>
      </trkpt>
      <trkpt lat="47.19068" lon="-1.57893">
        <ele>58</ele>
        <time>2021-08-22T12:06:50.000Z</time>
      </trkpt>
      <trkpt lat="47.19062" lon="-1.57911">
        <ele>58</ele>
        <time>2021-08-22T12:06:52.000Z</time>
      </trkpt>
      <trkpt lat="47.19055" lon="-1.57928">
        <ele>58</ele>
        <time>2021-08-22T12:06:54.000Z</time>
      </trkpt>
      <trkpt lat="47.19049" lon="-1.57946">
        <ele>58</ele>
        <time>2021-08-22T12:06:56.000Z</time>
      </trkpt>
      <trkpt lat="47.19043" lon="-1.57963">
        <ele>58</ele>
        <time>2021-08-22T12:06:58.000Z</time>
      </trkpt>
      <trkpt lat="47.19036" lon="-1.5798">
        <ele>58</ele>
        <time>2021-08-22T12:07:00.000Z</time>
      </trkpt>
      <trkpt lat="47.1903" lon="-1.57997">
        <ele>58</ele>
        <time>2021-08-22T12:07:02.000Z</time>
      </trkpt>
      <trkpt lat="47.19024" lon="-1.58014">
        <ele>58</ele>
        <time>2021-08-22T12:07:04.000Z</time>
      </trkpt>
      <trkpt lat="47.19018" lon="-1.58032">
        <ele>59</ele>
        <time>2021-08-22T12:07:06.000Z</time>
      </trkpt>
      <trkpt lat="47.19012" lon="-1.5805">
        <ele>58</ele>
        <time>2021-08-22T12:07:08.000Z</time>
      </trkpt>
      <trkpt lat="47.19005" lon="-1.58067">
        <ele>58</ele>
        <time>2021-08-22T12:07:10.000Z</time>
      </trkpt>
      <trkpt lat="47.18999" lon="-1.58085">
        <ele>58</ele>
        <time>2021-08-22T12:07:12.000Z</time>
      </trkpt>
      <trkpt lat="47.18993" lon="-1.58102">
        <ele>58</ele>
        <time>2021-08-22T12:07:14.000Z</time>
      </trkpt>
      <trkpt lat="47.18987" lon="-1.5812">
        <ele>58</ele>
        <time>2021-08-22T12:07:16.000Z</time>
      </trkpt>
      <trkpt lat="47.18981" lon="-1.58137">
        <ele>58</ele>
        <time>2021-08-22T12:07:18.000Z</time>
      </trkpt>
      <trkpt lat="47.18974" lon="-1.58155">
        <ele>58</ele>
        <time>2021-08-22T12:07:20.000Z</time>
      </trkpt>
      <trkpt lat="47.18968" lon="-1.58173">
        <ele>58</ele>
        <time>2021-08-22T12:07:22.000Z</time>
      </trkpt>
      <trkpt lat="47.18962" lon="-1.58191">
        <ele>58</ele>
        <time>2021-08-22T12:07:24.000Z</time>
      </trkpt>
      <trkpt lat="47.18956" lon="-1.58209">
        <ele>58</ele>
        <time>2021-08-22T12:07:26.000Z</time>
      </trkpt>
      <trkpt lat="47.18949" lon="-1.58227">
        <ele>58</ele>
        <time>2021-08-22T12:07:28.000Z</time>
      </trkpt>
      <trkpt lat="47.18943" lon="-1.58245">
        <ele>58</ele>
        <time>2021-08-22T12:07:30.000Z</time>
      </trkpt>
      <trkpt lat="47.18936" lon="-1.58263">
        <ele>58</ele>
        <time>2021-08-22T12:07:32.000Z</time>
      </trkpt>
      <trkpt lat="47.18929" lon="-1.58281">
        <ele>58</ele>
        <time>2021-08-22T12:07:34.000Z</time>
      </trkpt>
      <trkpt lat="47.18922" lon="-1.58299">
        <ele>58</ele>
        <time>2021-08-22T12:07:36.000Z</time>
      </trkpt>
      <trkpt lat="47.18916" lon="-1.58317">
        <ele>58</ele>
        <time>2021-08-22T12:07:38.000Z</time>
      </trkpt>
      <trkpt lat="47.18909" lon="-1.58336">
        <ele>58</ele>
        <time>2021-08-22T12:07:40.000Z</time>
      </trkpt>
      <trkpt lat="47.18903" lon="-1.58354">
        <ele>58</ele>
        <time>2021-08-22T12:07:42.000Z</time>
      </trkpt>
      <trkpt lat="47.18896" lon="-1.58373">
        <ele>58</ele>
        <time>2021-08-22T12:07:44.000Z</time>
      </trkpt>
      <trkpt lat="47.1889" lon="-1.58392">
        <ele>58</ele>
        <time>2021-08-22T12:07:46.000Z</time>
      </trkpt>
      <trkpt lat="47.18885" lon="-1.5841">
        <ele>58</ele>
        <time>2021-08-22T12:07:48.000Z</time>
      </trkpt>
      <trkpt lat="47.18879" lon="-1.58428">
        <ele>58</ele>
        <time>2021-08-22T12:07:50.000Z</time>
      </trkpt>
      <trkpt lat="47.18873" lon="-1.58446">
        <ele>58</ele>
        <time>2021-08-22T12:07:52.000Z</time>
      </trkpt>
      <trkpt lat="47.18868" lon="-1.58465">
        <ele>58</ele>
        <time>2021-08-22T12:07:54.000Z</time>
      </trkpt>
      <trkpt lat="47.18863" lon="-1.58483">
        <ele>58</ele>
        <time>2021-08-22T12:07:56.000Z</time>
      </trkpt>
      <trkpt lat="47.18857" lon="-1.58501">
        <ele>58</ele>
        <time>2021-08-22T12:07:58.000Z</time>
      </trkpt>
      <trkpt lat="47.18852" lon="-1.58519">
        <ele>58</ele>
        <time>2021-08-22T12:08:00.000Z</time>
      </trkpt>
      <trkpt lat="47.18847" lon="-1.58538">
        <ele>58</ele>
        <time>2021-08-22T12:08:02.000Z</time>
      </trkpt>
      <trkpt lat="47.18842" lon="-1.58556">
        <ele>58</ele>
        <time>2021-08-22T12:08:04.000Z</time>
      </trkpt>
      <trkpt lat="47.18838" lon="-1.58575">
        <ele>58</ele>
        <time>2021-08-22T12:08:06.000Z</time>
      </trkpt>
      <trkpt lat="47.18833" lon="-1.58593">
        <ele>58</ele>
        <time>2021-08-22T12:08:08.000Z</time>
      </trkpt>
      <trkpt lat="47.18829" lon="-1.58611">
        <ele>58</ele>
        <time>2021-08-22T12:08:10.000Z</time>
      </trkpt>
      <trkpt lat="47.18825" lon="-1.5863">
        <ele>58</ele>
        <time>2021-08-22T12:08:12.000Z</time>
      </trkpt>
      <trkpt lat="47.18822" lon="-1.58648">
        <ele>58</ele>
        <time>2021-08-22T12:08:14.000Z</time>
      </trkpt>
      <trkpt lat="47.18819" lon="-1.58665">
        <ele>58</ele>
        <time>2021-08-22T12:08:16.000Z</time>
      </trkpt>
      <trkpt lat="47.18817" lon="-1.58682">
        <ele>59</ele>
        <time>2021-08-22T12:08:18.000Z</time>
      </trkpt>
      <trkpt lat="47.18816" lon="-1.58698">
        <ele>59</ele>
        <time>2021-08-22T12:08:20.000Z</time>
      </trkpt>
      <trkpt lat="47.18818" lon="-1.58715">
        <ele>58</ele>
        <time>2021-08-22T12:08:22.000Z</time>
      </trkpt>
      <trkpt lat="47.18825" lon="-1.58729">
        <ele>57</ele>
        <time>2021-08-22T12:08:24.000Z</time>
      </trkpt>
      <trkpt lat="47.18828" lon="-1.58747">
        <ele>57</ele>
        <time>2021-08-22T12:08:26.000Z</time>
      </trkpt>
      <trkpt lat="47.18827" lon="-1.58767">
        <ele>56</ele>
        <time>2021-08-22T12:08:28.000Z</time>
      </trkpt>
      <trkpt lat="47.1882" lon="-1.58784">
        <ele>57</ele>
        <time>2021-08-22T12:08:30.000Z</time>
      </trkpt>
      <trkpt lat="47.18811" lon="-1.58797">
        <ele>57</ele>
        <time>2021-08-22T12:08:32.000Z</time>
      </trkpt>
      <trkpt lat="47.18799" lon="-1.58806">
        <ele>57</ele>
        <time>2021-08-22T12:08:34.000Z</time>
      </trkpt>
      <trkpt lat="47.1879" lon="-1.5882">
        <ele>57</ele>
        <time>2021-08-22T12:08:36.000Z</time>
      </trkpt>
      <trkpt lat="47.18787" lon="-1.5884">
        <ele>57</ele>
        <time>2021-08-22T12:08:38.000Z</time>
      </trkpt>
      <trkpt lat="47.18784" lon="-1.58859">
        <ele>57</ele>
        <time>2021-08-22T12:08:40.000Z</time>
      </trkpt>
      <trkpt lat="47.1878" lon="-1.58878">
        <ele>57</ele>
        <time>2021-08-22T12:08:42.000Z</time>
      </trkpt>
      <trkpt lat="47.18776" lon="-1.58897">
        <ele>56</ele>
        <time>2021-08-22T12:08:44.000Z</time>
      </trkpt>
      <trkpt lat="47.18773" lon="-1.58917">
        <ele>55</ele>
        <time>2021-08-22T12:08:46.000Z</time>
      </trkpt>
      <trkpt lat="47.18771" lon="-1.58937">
        <ele>56</ele>
        <time>2021-08-22T12:08:48.000Z</time>
      </trkpt>
      <trkpt lat="47.18769" lon="-1.58956">
        <ele>56</ele>
        <time>2021-08-22T12:08:50.000Z</time>
      </trkpt>
      <trkpt lat="47.18767" lon="-1.58975">
        <ele>56</ele>
        <time>2021-08-22T12:08:52.000Z</time>
      </trkpt>
      <trkpt lat="47.18765" lon="-1.58994">
        <ele>56</ele>
        <time>2021-08-22T12:08:54.000Z</time>
      </trkpt>
      <trkpt lat="47.18763" lon="-1.59012">
        <ele>56</ele>
        <time>2021-08-22T12:08:56.000Z</time>
      </trkpt>
      <trkpt lat="47.18761" lon="-1.5903">
        <ele>57</ele>
        <time>2021-08-22T12:08:58.000Z</time>
      </trkpt>
      <trkpt lat="47.18759" lon="-1.59049">
        <ele>56</ele>
        <time>2021-08-22T12:09:00.000Z</time>
      </trkpt>
      <trkpt lat="47.18757" lon="-1.59068">
        <ele>56</ele>
        <time>2021-08-22T12:09:02.000Z</time>
      </trkpt>
      <trkpt lat="47.18755" lon="-1.59086">
        <ele>56</ele>
        <time>2021-08-22T12:09:04.000Z</time>
      </trkpt>
      <trkpt lat="47.18753" lon="-1.59104">
        <ele>55</ele>
        <time>2021-08-22T12:09:06.000Z</time>
      </trkpt>
      <trkpt lat="47.18751" lon="-1.59122">
        <ele>55</ele>
        <time>2021-08-22T12:09:08.000Z</time>
      </trkpt>
      <trkpt lat="47.18749" lon="-1.59141">
        <ele>55</ele>
        <time>2021-08-22T12:09:10.000Z</time>
      </trkpt>
      <trkpt lat="47.18747" lon="-1.59159">
        <ele>55</ele>
        <time>2021-08-22T12:09:12.000Z</time>
      </trkpt>
      <trkpt lat="47.18745" lon="-1.59177">
        <ele>55</ele>
        <time>2021-08-22T12:09:14.000Z</time>
      </trkpt>
      <trkpt lat="47.18743" lon="-1.59195">
        <ele>55</ele>
        <time>2021-08-22T12:09:16.000Z</time>
      </trkpt>
      <trkpt lat="47.18741" lon="-1.59213">
        <ele>55</ele>
        <time>2021-08-22T12:09:18.000Z</time>
      </trkpt>
      <trkpt lat="47.18739" lon="-1.59231">
        <ele>55</ele>
        <time>2021-08-22T12:09:20.000Z</time>
      </trkpt>
      <trkpt lat="47.18737" lon="-1.59249">
        <ele>55</ele>
        <time>2021-08-22T12:09:22.000Z</time>
      </trkpt>
      <trkpt lat="47.18735" lon="-1.59267">
        <ele>55</ele>
        <time>2021-08-22T12:09:24.000Z</time>
      </trkpt>
      <trkpt lat="47.18733" lon="-1.59285">
        <ele>55</ele>
        <time>2021-08-22T12:09:26.000Z</time>
      </trkpt>
      <trkpt lat="47.18731" lon="-1.59303">
        <ele>55</ele>
        <time>2021-08-22T12:09:28.000Z</time>
      </trkpt>
      <trkpt lat="47.18729" lon="-1.5932">
        <ele>55</ele>
        <time>2021-08-22T12:09:30.000Z</time>
      </trkpt>
      <trkpt lat="47.18727" lon="-1.59338">
        <ele>55</ele>
        <time>2021-08-22T12:09:32.000Z</time>
      </trkpt>
      <trkpt lat="47.18726" lon="-1.59355">
        <ele>56</ele>
        <time>2021-08-22T12:09:34.000Z</time>
      </trkpt>
      <trkpt lat="47.18724" lon="-1.59373">
        <ele>55</ele>
        <time>2021-08-22T12:09:36.000Z</time>
      </trkpt>
      <trkpt lat="47.18722" lon="-1.59392">
        <ele>55</ele>
        <time>2021-08-22T12:09:38.000Z</time>
      </trkpt>
      <trkpt lat="47.1872" lon="-1.5941">
        <ele>55</ele>
        <time>2021-08-22T12:09:40.000Z</time>
      </trkpt>
      <trkpt lat="47.18718" lon="-1.59428">
        <ele>55</ele>
        <time>2021-08-22T12:09:42.000Z</time>
      </trkpt>
      <trkpt lat="47.18716" lon="-1.59446">
        <ele>55</ele>
        <time>2021-08-22T12:09:44.000Z</time>
      </trkpt>
      <trkpt lat="47.18714" lon="-1.59465">
        <ele>55</ele>
        <time>2021-08-22T12:09:46.000Z</time>
      </trkpt>
      <trkpt lat="47.18712" lon="-1.59484">
        <ele>55</ele>
        <time>2021-08-22T12:09:48.000Z</time>
      </trkpt>
      <trkpt lat="47.1871" lon="-1.59502">
        <ele>55</ele>
        <time>2021-08-22T12:09:50.000Z</time>
      </trkpt>
      <trkpt lat="47.18708" lon="-1.5952">
        <ele>55</ele>
        <time>2021-08-22T12:09:52.000Z</time>
      </trkpt>
      <trkpt lat="47.18706" lon="-1.59539">
        <ele>55</ele>
        <time>2021-08-22T12:09:54.000Z</time>
      </trkpt>
      <trkpt lat="47.18704" lon="-1.59557">
        <ele>55</ele>
        <time>2021-08-22T12:09:56.000Z</time>
      </trkpt>
      <trkpt lat="47.18702" lon="-1.59576">
        <ele>55</ele>
        <time>2021-08-22T12:09:58.000Z</time>
      </trkpt>
      <trkpt lat="47.187" lon="-1.59594">
        <ele>56</ele>
        <time>2021-08-22T12:10:00.000Z</time>
      </trkpt>
      <trkpt lat="47.18698" lon="-1.59612">
        <ele>56</ele>
        <time>2021-08-22T12:10:02.000Z</time>
      </trkpt>
      <trkpt lat="47.18695" lon="-1.59629">
        <ele>56</ele>
        <time>2021-08-22T12:10:04.000Z</time>
      </trkpt>
      <trkpt lat="47.18693" lon="-1.59647">
        <ele>57</ele>
        <time>2021-08-22T12:10:06.000Z</time>
      </trkpt>
      <trkpt lat="47.18691" lon="-1.59665">
        <ele>57</ele>
        <time>2021-08-22T12:10:08.000Z</time>
      </trkpt>
      <trkpt lat="47.18689" lon="-1.59683">
        <ele>57</ele>
        <time>2021-08-22T12:10:10.000Z</time>
      </trkpt>
      <trkpt lat="47.18686" lon="-1.59701">
        <ele>57</ele>
        <time>2021-08-22T12:10:12.000Z</time>
      </trkpt>
      <trkpt lat="47.18684" lon="-1.5972">
        <ele>57</ele>
        <time>2021-08-22T12:10:14.000Z</time>
      </trkpt>
      <trkpt lat="47.18684" lon="-1.59742">
        <ele>57</ele>
        <time>2021-08-22T12:10:16.000Z</time>
      </trkpt>
      <trkpt lat="47.18684" lon="-1.59764">
        <ele>57</ele>
        <time>2021-08-22T12:10:18.000Z</time>
      </trkpt>
      <trkpt lat="47.18684" lon="-1.59785">
        <ele>56</ele>
        <time>2021-08-22T12:10:20.000Z</time>
      </trkpt>
      <trkpt lat="47.18686" lon="-1.59807">
        <ele>56</ele>
        <time>2021-08-22T12:10:22.000Z</time>
      </trkpt>
      <trkpt lat="47.1868" lon="-1.59827">
        <ele>57</ele>
        <time>2021-08-22T12:10:24.000Z</time>
      </trkpt>
      <trkpt lat="47.18669" lon="-1.59841">
        <ele>57</ele>
        <time>2021-08-22T12:10:26.000Z</time>
      </trkpt>
      <trkpt lat="47.18656" lon="-1.59845">
        <ele>57</ele>
        <time>2021-08-22T12:10:28.000Z</time>
      </trkpt>
      <trkpt lat="47.18642" lon="-1.5984">
        <ele>56</ele>
        <time>2021-08-22T12:10:30.000Z</time>
      </trkpt>
      <trkpt lat="47.18629" lon="-1.59832">
        <ele>56</ele>
        <time>2021-08-22T12:10:32.000Z</time>
      </trkpt>
      <trkpt lat="47.18619" lon="-1.59836">
        <ele>56</ele>
        <time>2021-08-22T12:10:34.000Z</time>
      </trkpt>
      <trkpt lat="47.1862" lon="-1.59853">
        <ele>56</ele>
        <time>2021-08-22T12:10:36.000Z</time>
      </trkpt>
      <trkpt lat="47.18626" lon="-1.59869">
        <ele>57</ele>
        <time>2021-08-22T12:10:38.000Z</time>
      </trkpt>
      <trkpt lat="47.18623" lon="-1.59888">
        <ele>57</ele>
        <time>2021-08-22T12:10:40.000Z</time>
      </trkpt>
      <trkpt lat="47.18618" lon="-1.59906">
        <ele>58</ele>
        <time>2021-08-22T12:10:42.000Z</time>
      </trkpt>
      <trkpt lat="47.18614" lon="-1.59922">
        <ele>58</ele>
        <time>2021-08-22T12:10:44.000Z</time>
      </trkpt>
      <trkpt lat="47.18609" lon="-1.5994">
        <ele>58</ele>
        <time>2021-08-22T12:10:46.000Z</time>
      </trkpt>
      <trkpt lat="47.18604" lon="-1.59957">
        <ele>58</ele>
        <time>2021-08-22T12:10:48.000Z</time>
      </trkpt>
      <trkpt lat="47.18598" lon="-1.59974">
        <ele>58</ele>
        <time>2021-08-22T12:10:50.000Z</time>
      </trkpt>
      <trkpt lat="47.18593" lon="-1.59991">
        <ele>58</ele>
        <time>2021-08-22T12:10:52.000Z</time>
      </trkpt>
      <trkpt lat="47.18587" lon="-1.60008">
        <ele>58</ele>
        <time>2021-08-22T12:10:54.000Z</time>
      </trkpt>
      <trkpt lat="47.1858" lon="-1.60026">
        <ele>58</ele>
        <time>2021-08-22T12:10:56.000Z</time>
      </trkpt>
      <trkpt lat="47.18574" lon="-1.60044">
        <ele>58</ele>
        <time>2021-08-22T12:10:58.000Z</time>
      </trkpt>
      <trkpt lat="47.18568" lon="-1.60062">
        <ele>58</ele>
        <time>2021-08-22T12:11:00.000Z</time>
      </trkpt>
      <trkpt lat="47.18561" lon="-1.60078">
        <ele>58</ele>
        <time>2021-08-22T12:11:02.000Z</time>
      </trkpt>
      <trkpt lat="47.18555" lon="-1.60095">
        <ele>58</ele>
        <time>2021-08-22T12:11:04.000Z</time>
      </trkpt>
      <trkpt lat="47.18548" lon="-1.60111">
        <ele>58</ele>
        <time>2021-08-22T12:11:06.000Z</time>
      </trkpt>
      <trkpt lat="47.18542" lon="-1.60126">
        <ele>58</ele>
        <time>2021-08-22T12:11:08.000Z</time>
      </trkpt>
      <trkpt lat="47.18535" lon="-1.60141">
        <ele>58</ele>
        <time>2021-08-22T12:11:10.000Z</time>
      </trkpt>
      <trkpt lat="47.18528" lon="-1.60157">
        <ele>58</ele>
        <time>2021-08-22T12:11:12.000Z</time>
      </trkpt>
      <trkpt lat="47.1852" lon="-1.60172">
        <ele>58</ele>
        <time>2021-08-22T12:11:14.000Z</time>
      </trkpt>
      <trkpt lat="47.18513" lon="-1.60187">
        <ele>59</ele>
        <time>2021-08-22T12:11:16.000Z</time>
      </trkpt>
      <trkpt lat="47.18505" lon="-1.60202">
        <ele>58</ele>
        <time>2021-08-22T12:11:18.000Z</time>
      </trkpt>
      <trkpt lat="47.18497" lon="-1.60217">
        <ele>58</ele>
        <time>2021-08-22T12:11:20.000Z</time>
      </trkpt>
      <trkpt lat="47.18489" lon="-1.60231">
        <ele>58</ele>
        <time>2021-08-22T12:11:22.000Z</time>
      </trkpt>
      <trkpt lat="47.18481" lon="-1.60247">
        <ele>58</ele>
        <time>2021-08-22T12:11:24.000Z</time>
      </trkpt>
      <trkpt lat="47.18474" lon="-1.60261">
        <ele>58</ele>
        <time>2021-08-22T12:11:26.000Z</time>
      </trkpt>
      <trkpt lat="47.18466" lon="-1.60275">
        <ele>58</ele>
        <time>2021-08-22T12:11:28.000Z</time>
      </trkpt>
      <trkpt lat="47.18458" lon="-1.6029">
        <ele>58</ele>
        <time>2021-08-22T12:11:30.000Z</time>
      </trkpt>
      <trkpt lat="47.1845" lon="-1.60304">
        <ele>58</ele>
        <time>2021-08-22T12:11:32.000Z</time>
      </trkpt>
      <trkpt lat="47.18441" lon="-1.60318">
        <ele>58</ele>
        <time>2021-08-22T12:11:34.000Z</time>
      </trkpt>
      <trkpt lat="47.18432" lon="-1.60332">
        <ele>58</ele>
        <time>2021-08-22T12:11:36.000Z</time>
      </trkpt>
      <trkpt lat="47.18423" lon="-1.60346">
        <ele>58</ele>
        <time>2021-08-22T12:11:38.000Z</time>
      </trkpt>
      <trkpt lat="47.18414" lon="-1.60358">
        <ele>58</ele>
        <time>2021-08-22T12:11:40.000Z</time>
      </trkpt>
      <trkpt lat="47.18404" lon="-1.60372">
        <ele>58</ele>
        <time>2021-08-22T12:11:42.000Z</time>
      </trkpt>
      <trkpt lat="47.18395" lon="-1.60384">
        <ele>58</ele>
        <time>2021-08-22T12:11:44.000Z</time>
      </trkpt>
      <trkpt lat="47.18385" lon="-1.60397">
        <ele>57</ele>
        <time>2021-08-22T12:11:46.000Z</time>
      </trkpt>
      <trkpt lat="47.18376" lon="-1.6041">
        <ele>57</ele>
        <time>2021-08-22T12:11:48.000Z</time>
      </trkpt>
      <trkpt lat="47.18366" lon="-1.60423">
        <ele>57</ele>
        <time>2021-08-22T12:11:50.000Z</time>
      </trkpt>
      <trkpt lat="47.18357" lon="-1.60436">
        <ele>57</ele>
        <time>2021-08-22T12:11:52.000Z</time>
      </trkpt>
      <trkpt lat="47.18347" lon="-1.60448">
        <ele>57</ele>
        <time>2021-08-22T12:11:54.000Z</time>
      </trkpt>
      <trkpt lat="47.18337" lon="-1.6046">
        <ele>57</ele>
        <time>2021-08-22T12:11:56.000Z</time>
      </trkpt>
      <trkpt lat="47.18327" lon="-1.60472">
        <ele>56</ele>
        <time>2021-08-22T12:11:58.000Z</time>
      </trkpt>
      <trkpt lat="47.18317" lon="-1.60482">
        <ele>57</ele>
        <time>2021-08-22T12:12:00.000Z</time>
      </trkpt>
      <trkpt lat="47.18307" lon="-1.60493">
        <ele>57</ele>
        <time>2021-08-22T12:12:02.000Z</time>
      </trkpt>
      <trkpt lat="47.18296" lon="-1.60505">
        <ele>57</ele>
        <time>2021-08-22T12:12:04.000Z</time>
      </trkpt>
      <trkpt lat="47.18286" lon="-1.60515">
        <ele>57</ele>
        <time>2021-08-22T12:12:06.000Z</time>
      </trkpt>
      <trkpt lat="47.18275" lon="-1.60526">
        <ele>57</ele>
        <time>2021-08-22T12:12:08.000Z</time>
      </trkpt>
      <trkpt lat="47.18264" lon="-1.60536">
        <ele>57</ele>
        <time>2021-08-22T12:12:10.000Z</time>
      </trkpt>
      <trkpt lat="47.18253" lon="-1.60545">
        <ele>57</ele>
        <time>2021-08-22T12:12:12.000Z</time>
      </trkpt>
      <trkpt lat="47.18242" lon="-1.60553">
        <ele>57</ele>
        <time>2021-08-22T12:12:14.000Z</time>
      </trkpt>
      <trkpt lat="47.18231" lon="-1.60561">
        <ele>57</ele>
        <time>2021-08-22T12:12:16.000Z</time>
      </trkpt>
      <trkpt lat="47.1822" lon="-1.60567">
        <ele>58</ele>
        <time>2021-08-22T12:12:18.000Z</time>
      </trkpt>
      <trkpt lat="47.18211" lon="-1.60572">
        <ele>58</ele>
        <time>2021-08-22T12:12:20.000Z</time>
      </trkpt>
      <trkpt lat="47.18201" lon="-1.60576">
        <ele>59</ele>
        <time>2021-08-22T12:12:22.000Z</time>
      </trkpt>
      <trkpt lat="47.18191" lon="-1.60583">
        <ele>58</ele>
        <time>2021-08-22T12:12:25.000Z</time>
      </trkpt>
      <trkpt lat="47.18186" lon="-1.60601">
        <ele>58</ele>
        <time>2021-08-22T12:12:28.000Z</time>
      </trkpt>
      <trkpt lat="47.18174" lon="-1.60605">
        <ele>58</ele>
        <time>2021-08-22T12:12:30.000Z</time>
      </trkpt>
      <trkpt lat="47.18162" lon="-1.60605">
        <ele>58</ele>
        <time>2021-08-22T12:12:32.000Z</time>
      </trkpt>
      <trkpt lat="47.18149" lon="-1.60605">
        <ele>58</ele>
        <time>2021-08-22T12:12:34.000Z</time>
      </trkpt>
      <trkpt lat="47.18137" lon="-1.60604">
        <ele>58</ele>
        <time>2021-08-22T12:12:36.000Z</time>
      </trkpt>
      <trkpt lat="47.18126" lon="-1.606">
        <ele>57</ele>
        <time>2021-08-22T12:12:38.000Z</time>
      </trkpt>
      <trkpt lat="47.18115" lon="-1.60596">
        <ele>56</ele>
        <time>2021-08-22T12:12:40.000Z</time>
      </trkpt>
      <trkpt lat="47.18103" lon="-1.60591">
        <ele>56</ele>
        <time>2021-08-22T12:12:42.000Z</time>
      </trkpt>
      <trkpt lat="47.18091" lon="-1.60585">
        <ele>56</ele>
        <time>2021-08-22T12:12:44.000Z</time>
      </trkpt>
      <trkpt lat="47.18079" lon="-1.60579">
        <ele>56</ele>
        <time>2021-08-22T12:12:46.000Z</time>
      </trkpt>
      <trkpt lat="47.18067" lon="-1.60572">
        <ele>56</ele>
        <time>2021-08-22T12:12:48.000Z</time>
      </trkpt>
      <trkpt lat="47.18055" lon="-1.60566">
        <ele>56</ele>
        <time>2021-08-22T12:12:50.000Z</time>
      </trkpt>
      <trkpt lat="47.18044" lon="-1.6056">
        <ele>57</ele>
        <time>2021-08-22T12:12:52.000Z</time>
      </trkpt>
      <trkpt lat="47.18032" lon="-1.60555">
        <ele>56</ele>
        <time>2021-08-22T12:12:54.000Z</time>
      </trkpt>
      <trkpt lat="47.18019" lon="-1.60553">
        <ele>56</ele>
        <time>2021-08-22T12:12:56.000Z</time>
      </trkpt>
      <trkpt lat="47.18008" lon="-1.60555">
        <ele>56</ele>
        <time>2021-08-22T12:12:58.000Z</time>
      </trkpt>
      <trkpt lat="47.17996" lon="-1.60558">
        <ele>56</ele>
        <time>2021-08-22T12:13:00.000Z</time>
      </trkpt>
      <trkpt lat="47.17985" lon="-1.60562">
        <ele>56</ele>
        <time>2021-08-22T12:13:02.000Z</time>
      </trkpt>
      <trkpt lat="47.17973" lon="-1.60567">
        <ele>56</ele>
        <time>2021-08-22T12:13:04.000Z</time>
      </trkpt>
      <trkpt lat="47.17963" lon="-1.60572">
        <ele>56</ele>
        <time>2021-08-22T12:13:06.000Z</time>
      </trkpt>
      <trkpt lat="47.1795" lon="-1.6058">
        <ele>56</ele>
        <time>2021-08-22T12:13:08.000Z</time>
      </trkpt>
      <trkpt lat="47.1794" lon="-1.60584">
        <ele>57</ele>
        <time>2021-08-22T12:13:10.000Z</time>
      </trkpt>
      <trkpt lat="47.17931" lon="-1.60588">
        <ele>57</ele>
        <time>2021-08-22T12:13:12.000Z</time>
      </trkpt>
      <trkpt lat="47.1792" lon="-1.60589">
        <ele>58</ele>
        <time>2021-08-22T12:13:34.000Z</time>
      </trkpt>
      <trkpt lat="47.17911" lon="-1.60596">
        <ele>58</ele>
        <time>2021-08-22T12:13:36.000Z</time>
      </trkpt>
      <trkpt lat="47.17907" lon="-1.60611">
        <ele>59</ele>
        <time>2021-08-22T12:13:38.000Z</time>
      </trkpt>
      <trkpt lat="47.17902" lon="-1.60627">
        <ele>58</ele>
        <time>2021-08-22T12:13:40.000Z</time>
      </trkpt>
      <trkpt lat="47.17897" lon="-1.60644">
        <ele>58</ele>
        <time>2021-08-22T12:13:42.000Z</time>
      </trkpt>
      <trkpt lat="47.17892" lon="-1.60661">
        <ele>57</ele>
        <time>2021-08-22T12:13:44.000Z</time>
      </trkpt>
      <trkpt lat="47.17886" lon="-1.60678">
        <ele>57</ele>
        <time>2021-08-22T12:13:46.000Z</time>
      </trkpt>
      <trkpt lat="47.1788" lon="-1.60697">
        <ele>58</ele>
        <time>2021-08-22T12:13:48.000Z</time>
      </trkpt>
      <trkpt lat="47.17876" lon="-1.60714">
        <ele>58</ele>
        <time>2021-08-22T12:13:50.000Z</time>
      </trkpt>
      <trkpt lat="47.17871" lon="-1.60732">
        <ele>57</ele>
        <time>2021-08-22T12:13:52.000Z</time>
      </trkpt>
      <trkpt lat="47.17867" lon="-1.6075">
        <ele>57</ele>
        <time>2021-08-22T12:13:54.000Z</time>
      </trkpt>
      <trkpt lat="47.17863" lon="-1.60768">
        <ele>57</ele>
        <time>2021-08-22T12:13:56.000Z</time>
      </trkpt>
      <trkpt lat="47.17859" lon="-1.60785">
        <ele>57</ele>
        <time>2021-08-22T12:13:58.000Z</time>
      </trkpt>
      <trkpt lat="47.17855" lon="-1.60802">
        <ele>58</ele>
        <time>2021-08-22T12:14:00.000Z</time>
      </trkpt>
      <trkpt lat="47.17851" lon="-1.60819">
        <ele>58</ele>
        <time>2021-08-22T12:14:02.000Z</time>
      </trkpt>
      <trkpt lat="47.17846" lon="-1.60836">
        <ele>58</ele>
        <time>2021-08-22T12:14:04.000Z</time>
      </trkpt>
      <trkpt lat="47.1784" lon="-1.60852">
        <ele>57</ele>
        <time>2021-08-22T12:14:06.000Z</time>
      </trkpt>
      <trkpt lat="47.17831" lon="-1.60866">
        <ele>57</ele>
        <time>2021-08-22T12:14:08.000Z</time>
      </trkpt>
      <trkpt lat="47.17823" lon="-1.60879">
        <ele>57</ele>
        <time>2021-08-22T12:14:10.000Z</time>
      </trkpt>
      <trkpt lat="47.17813" lon="-1.60892">
        <ele>57</ele>
        <time>2021-08-22T12:14:12.000Z</time>
      </trkpt>
      <trkpt lat="47.17802" lon="-1.60901">
        <ele>57</ele>
        <time>2021-08-22T12:14:14.000Z</time>
      </trkpt>
      <trkpt lat="47.17791" lon="-1.60909">
        <ele>57</ele>
        <time>2021-08-22T12:14:16.000Z</time>
      </trkpt>
      <trkpt lat="47.1778" lon="-1.60917">
        <ele>56</ele>
        <time>2021-08-22T12:14:18.000Z</time>
      </trkpt>
      <trkpt lat="47.17769" lon="-1.60926">
        <ele>57</ele>
        <time>2021-08-22T12:14:20.000Z</time>
      </trkpt>
      <trkpt lat="47.17758" lon="-1.60935">
        <ele>57</ele>
        <time>2021-08-22T12:14:22.000Z</time>
      </trkpt>
      <trkpt lat="47.17747" lon="-1.60943">
        <ele>57</ele>
        <time>2021-08-22T12:14:24.000Z</time>
      </trkpt>
      <trkpt lat="47.17737" lon="-1.60952">
        <ele>57</ele>
        <time>2021-08-22T12:14:26.000Z</time>
      </trkpt>
      <trkpt lat="47.17725" lon="-1.6096">
        <ele>57</ele>
        <time>2021-08-22T12:14:28.000Z</time>
      </trkpt>
      <trkpt lat="47.17714" lon="-1.60967">
        <ele>57</ele>
        <time>2021-08-22T12:14:30.000Z</time>
      </trkpt>
      <trkpt lat="47.17702" lon="-1.60973">
        <ele>57</ele>
        <time>2021-08-22T12:14:32.000Z</time>
      </trkpt>
      <trkpt lat="47.1769" lon="-1.60975">
        <ele>57</ele>
        <time>2021-08-22T12:14:34.000Z</time>
      </trkpt>
      <trkpt lat="47.17677" lon="-1.60973">
        <ele>57</ele>
        <time>2021-08-22T12:14:36.000Z</time>
      </trkpt>
      <trkpt lat="47.17663" lon="-1.60973">
        <ele>56</ele>
        <time>2021-08-22T12:14:38.000Z</time>
      </trkpt>
      <trkpt lat="47.17652" lon="-1.60982">
        <ele>55</ele>
        <time>2021-08-22T12:14:40.000Z</time>
      </trkpt>
      <trkpt lat="47.17641" lon="-1.60992">
        <ele>56</ele>
        <time>2021-08-22T12:14:42.000Z</time>
      </trkpt>
      <trkpt lat="47.17629" lon="-1.61001">
        <ele>56</ele>
        <time>2021-08-22T12:14:44.000Z</time>
      </trkpt>
      <trkpt lat="47.17618" lon="-1.61012">
        <ele>56</ele>
        <time>2021-08-22T12:14:46.000Z</time>
      </trkpt>
      <trkpt lat="47.17607" lon="-1.61021">
        <ele>56</ele>
        <time>2021-08-22T12:14:48.000Z</time>
      </trkpt>
      <trkpt lat="47.17596" lon="-1.61031">
        <ele>56</ele>
        <time>2021-08-22T12:14:50.000Z</time>
      </trkpt>
      <trkpt lat="47.17585" lon="-1.6104">
        <ele>56</ele>
        <time>2021-08-22T12:14:52.000Z</time>
      </trkpt>
      <trkpt lat="47.17574" lon="-1.6105">
        <ele>56</ele>
        <time>2021-08-22T12:14:54.000Z</time>
      </trkpt>
      <trkpt lat="47.17563" lon="-1.61059">
        <ele>56</ele>
        <time>2021-08-22T12:14:56.000Z</time>
      </trkpt>
      <trkpt lat="47.17552" lon="-1.61068">
        <ele>55</ele>
        <time>2021-08-22T12:14:58.000Z</time>
      </trkpt>
      <trkpt lat="47.17541" lon="-1.61078">
        <ele>55</ele>
        <time>2021-08-22T12:15:00.000Z</time>
      </trkpt>
      <trkpt lat="47.1753" lon="-1.61087">
        <ele>55</ele>
        <time>2021-08-22T12:15:02.000Z</time>
      </trkpt>
      <trkpt lat="47.17519" lon="-1.61097">
        <ele>55</ele>
        <time>2021-08-22T12:15:04.000Z</time>
      </trkpt>
      <trkpt lat="47.17508" lon="-1.61104">
        <ele>55</ele>
        <time>2021-08-22T12:15:06.000Z</time>
      </trkpt>
      <trkpt lat="47.17495" lon="-1.61106">
        <ele>55</ele>
        <time>2021-08-22T12:15:08.000Z</time>
      </trkpt>
      <trkpt lat="47.17483" lon="-1.61104">
        <ele>55</ele>
        <time>2021-08-22T12:15:10.000Z</time>
      </trkpt>
      <trkpt lat="47.17471" lon="-1.61098">
        <ele>55</ele>
        <time>2021-08-22T12:15:12.000Z</time>
      </trkpt>
      <trkpt lat="47.17461" lon="-1.61088">
        <ele>56</ele>
        <time>2021-08-22T12:15:14.000Z</time>
      </trkpt>
      <trkpt lat="47.17452" lon="-1.61077">
        <ele>56</ele>
        <time>2021-08-22T12:15:16.000Z</time>
      </trkpt>
      <trkpt lat="47.17444" lon="-1.61063">
        <ele>57</ele>
        <time>2021-08-22T12:15:18.000Z</time>
      </trkpt>
      <trkpt lat="47.17438" lon="-1.61048">
        <ele>57</ele>
        <time>2021-08-22T12:15:20.000Z</time>
      </trkpt>
      <trkpt lat="47.17434" lon="-1.61034">
        <ele>58</ele>
        <time>2021-08-22T12:15:22.000Z</time>
      </trkpt>
      <trkpt lat="47.17428" lon="-1.61018">
        <ele>58</ele>
        <time>2021-08-22T12:15:25.000Z</time>
      </trkpt>
      <trkpt lat="47.17424" lon="-1.61033">
        <ele>58</ele>
        <time>2021-08-22T12:15:28.000Z</time>
      </trkpt>
      <trkpt lat="47.17427" lon="-1.61047">
        <ele>58</ele>
        <time>2021-08-22T12:15:30.000Z</time>
      </trkpt>
      <trkpt lat="47.17431" lon="-1.6106">
        <ele>58</ele>
        <time>2021-08-22T12:15:32.000Z</time>
      </trkpt>
      <trkpt lat="47.17437" lon="-1.61076">
        <ele>59</ele>
        <time>2021-08-22T12:15:34.000Z</time>
      </trkpt>
      <trkpt lat="47.17443" lon="-1.61092">
        <ele>60</ele>
        <time>2021-08-22T12:15:36.000Z</time>
      </trkpt>
      <trkpt lat="47.1745" lon="-1.61107">
        <ele>60</ele>
        <time>2021-08-22T12:15:38.000Z</time>
      </trkpt>
      <trkpt lat="47.17456" lon="-1.61122">
        <ele>60</ele>
        <time>2021-08-22T12:15:40.000Z</time>
      </trkpt>
      <trkpt lat="47.17461" lon="-1.61135">
        <ele>60</ele>
        <time>2021-08-22T12:15:42.000Z</time>
      </trkpt>
      <trkpt lat="47.17467" lon="-1.61149">
        <ele>60</ele>
        <time>2021-08-22T12:15:44.000Z</time>
      </trkpt>
      <trkpt lat="47.17473" lon="-1.61163">
        <ele>61</ele>
        <time>2021-08-22T12:15:46.000Z</time>
      </trkpt>
      <trkpt lat="47.17479" lon="-1.61178">
        <ele>61</ele>
        <time>2021-08-22T12:15:48.000Z</time>
      </trkpt>
      <trkpt lat="47.17485" lon="-1.61192">
        <ele>61</ele>
        <time>2021-08-22T12:15:50.000Z</time>
      </trkpt>
      <trkpt lat="47.1749" lon="-1.61205">
        <ele>61</ele>
        <time>2021-08-22T12:15:52.000Z</time>
      </trkpt>
      <trkpt lat="47.17495" lon="-1.61218">
        <ele>62</ele>
        <time>2021-08-22T12:15:54.000Z</time>
      </trkpt>
      <trkpt lat="47.175" lon="-1.61231">
        <ele>62</ele>
        <time>2021-08-22T12:15:56.000Z</time>
      </trkpt>
      <trkpt lat="47.17506" lon="-1.61244">
        <ele>61</ele>
        <time>2021-08-22T12:15:58.000Z</time>
      </trkpt>
      <trkpt lat="47.17513" lon="-1.61256">
        <ele>61</ele>
        <time>2021-08-22T12:16:00.000Z</time>
      </trkpt>
      <trkpt lat="47.1752" lon="-1.61268">
        <ele>61</ele>
        <time>2021-08-22T12:16:02.000Z</time>
      </trkpt>
      <trkpt lat="47.17527" lon="-1.61279">
        <ele>61</ele>
        <time>2021-08-22T12:16:04.000Z</time>
      </trkpt>
      <trkpt lat="47.17536" lon="-1.61288">
        <ele>61</ele>
        <time>2021-08-22T12:16:06.000Z</time>
      </trkpt>
      <trkpt lat="47.17546" lon="-1.61295">
        <ele>61</ele>
        <time>2021-08-22T12:16:08.000Z</time>
      </trkpt>
      <trkpt lat="47.17556" lon="-1.61301">
        <ele>61</ele>
        <time>2021-08-22T12:16:10.000Z</time>
      </trkpt>
      <trkpt lat="47.17562" lon="-1.61314">
        <ele>61</ele>
        <time>2021-08-22T12:16:12.000Z</time>
      </trkpt>
      <trkpt lat="47.17562" lon="-1.61331">
        <ele>60</ele>
        <time>2021-08-22T12:16:14.000Z</time>
      </trkpt>
      <trkpt lat="47.17557" lon="-1.61346">
        <ele>61</ele>
        <time>2021-08-22T12:16:16.000Z</time>
      </trkpt>
      <trkpt lat="47.17548" lon="-1.61356">
        <ele>61</ele>
        <time>2021-08-22T12:16:18.000Z</time>
      </trkpt>
      <trkpt lat="47.17538" lon="-1.61365">
        <ele>61</ele>
        <time>2021-08-22T12:16:20.000Z</time>
      </trkpt>
      <trkpt lat="47.17532" lon="-1.6138">
        <ele>61</ele>
        <time>2021-08-22T12:16:22.000Z</time>
      </trkpt>
      <trkpt lat="47.17527" lon="-1.61396">
        <ele>62</ele>
        <time>2021-08-22T12:16:24.000Z</time>
      </trkpt>
      <trkpt lat="47.17524" lon="-1.61411">
        <ele>62</ele>
        <time>2021-08-22T12:16:26.000Z</time>
      </trkpt>
      <trkpt lat="47.1752" lon="-1.61426">
        <ele>63</ele>
        <time>2021-08-22T12:16:28.000Z</time>
      </trkpt>
      <trkpt lat="47.17517" lon="-1.6144">
        <ele>64</ele>
        <time>2021-08-22T12:16:30.000Z</time>
      </trkpt>
      <trkpt lat="47.17513" lon="-1.61454">
        <ele>65</ele>
        <time>2021-08-22T12:16:32.000Z</time>
      </trkpt>
      <trkpt lat="47.17504" lon="-1.61463">
        <ele>66</ele>
        <time>2021-08-22T12:16:34.000Z</time>
      </trkpt>
      <trkpt lat="47.17493" lon="-1.61469">
        <ele>66</ele>
        <time>2021-08-22T12:16:36.000Z</time>
      </trkpt>
      <trkpt lat="47.17482" lon="-1.61473">
        <ele>66</ele>
        <time>2021-08-22T12:16:38.000Z</time>
      </trkpt>
      <trkpt lat="47.17471" lon="-1.61478">
        <ele>67</ele>
        <time>2021-08-22T12:16:40.000Z</time>
      </trkpt>
      <trkpt lat="47.17461" lon="-1.61482">
        <ele>67</ele>
        <time>2021-08-22T12:16:42.000Z</time>
      </trkpt>
      <trkpt lat="47.1745" lon="-1.61487">
        <ele>68</ele>
        <time>2021-08-22T12:16:44.000Z</time>
      </trkpt>
      <trkpt lat="47.1744" lon="-1.61493">
        <ele>68</ele>
        <time>2021-08-22T12:16:46.000Z</time>
      </trkpt>
      <trkpt lat="47.17429" lon="-1.615">
        <ele>69</ele>
        <time>2021-08-22T12:16:48.000Z</time>
      </trkpt>
      <trkpt lat="47.17419" lon="-1.61506">
        <ele>69</ele>
        <time>2021-08-22T12:16:50.000Z</time>
      </trkpt>
      <trkpt lat="47.1741" lon="-1.61513">
        <ele>70</ele>
        <time>2021-08-22T12:16:52.000Z</time>
      </trkpt>
      <trkpt lat="47.174" lon="-1.61521">
        <ele>71</ele>
        <time>2021-08-22T12:16:54.000Z</time>
      </trkpt>
      <trkpt lat="47.17391" lon="-1.6153">
        <ele>71</ele>
        <time>2021-08-22T12:16:56.000Z</time>
      </trkpt>
      <trkpt lat="47.17381" lon="-1.61538">
        <ele>71</ele>
        <time>2021-08-22T12:16:58.000Z</time>
      </trkpt>
      <trkpt lat="47.17372" lon="-1.61547">
        <ele>71</ele>
        <time>2021-08-22T12:17:00.000Z</time>
      </trkpt>
      <trkpt lat="47.17364" lon="-1.61555">
        <ele>72</ele>
        <time>2021-08-22T12:17:02.000Z</time>
      </trkpt>
      <trkpt lat="47.17355" lon="-1.61564">
        <ele>73</ele>
        <time>2021-08-22T12:17:04.000Z</time>
      </trkpt>
      <trkpt lat="47.17348" lon="-1.61574">
        <ele>73</ele>
        <time>2021-08-22T12:17:06.000Z</time>
      </trkpt>
      <trkpt lat="47.1734" lon="-1.61584">
        <ele>73</ele>
        <time>2021-08-22T12:17:08.000Z</time>
      </trkpt>
      <trkpt lat="47.17332" lon="-1.61594">
        <ele>73</ele>
        <time>2021-08-22T12:17:10.000Z</time>
      </trkpt>
      <trkpt lat="47.17324" lon="-1.61603">
        <ele>74</ele>
        <time>2021-08-22T12:17:12.000Z</time>
      </trkpt>
      <trkpt lat="47.17316" lon="-1.61614">
        <ele>74</ele>
        <time>2021-08-22T12:17:14.000Z</time>
      </trkpt>
      <trkpt lat="47.17309" lon="-1.61626">
        <ele>74</ele>
        <time>2021-08-22T12:17:16.000Z</time>
      </trkpt>
      <trkpt lat="47.17302" lon="-1.61638">
        <ele>74</ele>
        <time>2021-08-22T12:17:18.000Z</time>
      </trkpt>
      <trkpt lat="47.17295" lon="-1.61651">
        <ele>74</ele>
        <time>2021-08-22T12:17:20.000Z</time>
      </trkpt>
      <trkpt lat="47.17289" lon="-1.61664">
        <ele>75</ele>
        <time>2021-08-22T12:17:22.000Z</time>
      </trkpt>
      <trkpt lat="47.17282" lon="-1.61677">
        <ele>75</ele>
        <time>2021-08-22T12:17:24.000Z</time>
      </trkpt>
      <trkpt lat="47.17275" lon="-1.61691">
        <ele>74</ele>
        <time>2021-08-22T12:17:26.000Z</time>
      </trkpt>
      <trkpt lat="47.17268" lon="-1.61704">
        <ele>74</ele>
        <time>2021-08-22T12:17:28.000Z</time>
      </trkpt>
      <trkpt lat="47.17262" lon="-1.61717">
        <ele>74</ele>
        <time>2021-08-22T12:17:30.000Z</time>
      </trkpt>
      <trkpt lat="47.17255" lon="-1.61731">
        <ele>74</ele>
        <time>2021-08-22T12:17:32.000Z</time>
      </trkpt>
      <trkpt lat="47.1725" lon="-1.61745">
        <ele>74</ele>
        <time>2021-08-22T12:17:34.000Z</time>
      </trkpt>
      <trkpt lat="47.17247" lon="-1.61761">
        <ele>74</ele>
        <time>2021-08-22T12:17:36.000Z</time>
      </trkpt>
      <trkpt lat="47.17243" lon="-1.61777">
        <ele>73</ele>
        <time>2021-08-22T12:17:38.000Z</time>
      </trkpt>
      <trkpt lat="47.17233" lon="-1.61788">
        <ele>72</ele>
        <time>2021-08-22T12:17:40.000Z</time>
      </trkpt>
      <trkpt lat="47.17222" lon="-1.61797">
        <ele>71</ele>
        <time>2021-08-22T12:17:42.000Z</time>
      </trkpt>
      <trkpt lat="47.17212" lon="-1.61806">
        <ele>72</ele>
        <time>2021-08-22T12:17:44.000Z</time>
      </trkpt>
      <trkpt lat="47.17201" lon="-1.61815">
        <ele>72</ele>
        <time>2021-08-22T12:17:46.000Z</time>
      </trkpt>
      <trkpt lat="47.1719" lon="-1.61825">
        <ele>71</ele>
        <time>2021-08-22T12:17:48.000Z</time>
      </trkpt>
      <trkpt lat="47.17181" lon="-1.61835">
        <ele>71</ele>
        <time>2021-08-22T12:17:50.000Z</time>
      </trkpt>
      <trkpt lat="47.17171" lon="-1.61844">
        <ele>71</ele>
        <time>2021-08-22T12:17:52.000Z</time>
      </trkpt>
      <trkpt lat="47.1716" lon="-1.61853">
        <ele>71</ele>
        <time>2021-08-22T12:17:54.000Z</time>
      </trkpt>
      <trkpt lat="47.1715" lon="-1.61862">
        <ele>71</ele>
        <time>2021-08-22T12:17:56.000Z</time>
      </trkpt>
      <trkpt lat="47.1714" lon="-1.61872">
        <ele>70</ele>
        <time>2021-08-22T12:17:58.000Z</time>
      </trkpt>
      <trkpt lat="47.1713" lon="-1.61881">
        <ele>70</ele>
        <time>2021-08-22T12:18:00.000Z</time>
      </trkpt>
      <trkpt lat="47.1712" lon="-1.61891">
        <ele>70</ele>
        <time>2021-08-22T12:18:02.000Z</time>
      </trkpt>
      <trkpt lat="47.1711" lon="-1.61902">
        <ele>69</ele>
        <time>2021-08-22T12:18:04.000Z</time>
      </trkpt>
      <trkpt lat="47.17099" lon="-1.61911">
        <ele>69</ele>
        <time>2021-08-22T12:18:06.000Z</time>
      </trkpt>
      <trkpt lat="47.1709" lon="-1.61921">
        <ele>69</ele>
        <time>2021-08-22T12:18:08.000Z</time>
      </trkpt>
      <trkpt lat="47.1708" lon="-1.61931">
        <ele>69</ele>
        <time>2021-08-22T12:18:10.000Z</time>
      </trkpt>
      <trkpt lat="47.17072" lon="-1.6194">
        <ele>69</ele>
        <time>2021-08-22T12:18:12.000Z</time>
      </trkpt>
      <trkpt lat="47.17064" lon="-1.6195">
        <ele>70</ele>
        <time>2021-08-22T12:18:14.000Z</time>
      </trkpt>
      <trkpt lat="47.17055" lon="-1.61962">
        <ele>70</ele>
        <time>2021-08-22T12:18:16.000Z</time>
      </trkpt>
      <trkpt lat="47.17046" lon="-1.61974">
        <ele>70</ele>
        <time>2021-08-22T12:18:18.000Z</time>
      </trkpt>
      <trkpt lat="47.17037" lon="-1.61986">
        <ele>71</ele>
        <time>2021-08-22T12:18:20.000Z</time>
      </trkpt>
      <trkpt lat="47.17029" lon="-1.61998">
        <ele>71</ele>
        <time>2021-08-22T12:18:22.000Z</time>
      </trkpt>
      <trkpt lat="47.1702" lon="-1.62011">
        <ele>71</ele>
        <time>2021-08-22T12:18:24.000Z</time>
      </trkpt>
      <trkpt lat="47.17011" lon="-1.62024">
        <ele>71</ele>
        <time>2021-08-22T12:18:26.000Z</time>
      </trkpt>
      <trkpt lat="47.17003" lon="-1.62037">
        <ele>71</ele>
        <time>2021-08-22T12:18:28.000Z</time>
      </trkpt>
      <trkpt lat="47.16995" lon="-1.62051">
        <ele>71</ele>
        <time>2021-08-22T12:18:30.000Z</time>
      </trkpt>
      <trkpt lat="47.16988" lon="-1.62065">
        <ele>71</ele>
        <time>2021-08-22T12:18:32.000Z</time>
      </trkpt>
      <trkpt lat="47.1698" lon="-1.62078">
        <ele>71</ele>
        <time>2021-08-22T12:18:34.000Z</time>
      </trkpt>
      <trkpt lat="47.16972" lon="-1.62092">
        <ele>71</ele>
        <time>2021-08-22T12:18:36.000Z</time>
      </trkpt>
      <trkpt lat="47.16965" lon="-1.62106">
        <ele>72</ele>
        <time>2021-08-22T12:18:38.000Z</time>
      </trkpt>
      <trkpt lat="47.16958" lon="-1.62121">
        <ele>72</ele>
        <time>2021-08-22T12:18:40.000Z</time>
      </trkpt>
      <trkpt lat="47.1695" lon="-1.62135">
        <ele>72</ele>
        <time>2021-08-22T12:18:42.000Z</time>
      </trkpt>
      <trkpt lat="47.16943" lon="-1.62149">
        <ele>72</ele>
        <time>2021-08-22T12:18:44.000Z</time>
      </trkpt>
      <trkpt lat="47.16936" lon="-1.62164">
        <ele>72</ele>
        <time>2021-08-22T12:18:46.000Z</time>
      </trkpt>
      <trkpt lat="47.16929" lon="-1.62179">
        <ele>72</ele>
        <time>2021-08-22T12:18:48.000Z</time>
      </trkpt>
      <trkpt lat="47.16922" lon="-1.62194">
        <ele>72</ele>
        <time>2021-08-22T12:18:50.000Z</time>
      </trkpt>
      <trkpt lat="47.16913" lon="-1.62207">
        <ele>72</ele>
        <time>2021-08-22T12:18:52.000Z</time>
      </trkpt>
      <trkpt lat="47.16904" lon="-1.6222">
        <ele>72</ele>
        <time>2021-08-22T12:18:54.000Z</time>
      </trkpt>
      <trkpt lat="47.16894" lon="-1.62232">
        <ele>72</ele>
        <time>2021-08-22T12:18:56.000Z</time>
      </trkpt>
      <trkpt lat="47.16885" lon="-1.62243">
        <ele>72</ele>
        <time>2021-08-22T12:18:58.000Z</time>
      </trkpt>
      <trkpt lat="47.16875" lon="-1.62255">
        <ele>72</ele>
        <time>2021-08-22T12:19:00.000Z</time>
      </trkpt>
      <trkpt lat="47.16865" lon="-1.62266">
        <ele>72</ele>
        <time>2021-08-22T12:19:02.000Z</time>
      </trkpt>
      <trkpt lat="47.16856" lon="-1.62278">
        <ele>72</ele>
        <time>2021-08-22T12:19:04.000Z</time>
      </trkpt>
      <trkpt lat="47.16846" lon="-1.62289">
        <ele>72</ele>
        <time>2021-08-22T12:19:06.000Z</time>
      </trkpt>
      <trkpt lat="47.16837" lon="-1.62301">
        <ele>72</ele>
        <time>2021-08-22T12:19:08.000Z</time>
      </trkpt>
      <trkpt lat="47.16828" lon="-1.62311">
        <ele>72</ele>
        <time>2021-08-22T12:19:10.000Z</time>
      </trkpt>
      <trkpt lat="47.16818" lon="-1.62319">
        <ele>73</ele>
        <time>2021-08-22T12:19:12.000Z</time>
      </trkpt>
      <trkpt lat="47.16807" lon="-1.62326">
        <ele>73</ele>
        <time>2021-08-22T12:19:14.000Z</time>
      </trkpt>
      <trkpt lat="47.16796" lon="-1.62332">
        <ele>73</ele>
        <time>2021-08-22T12:19:16.000Z</time>
      </trkpt>
      <trkpt lat="47.16785" lon="-1.62338">
        <ele>72</ele>
        <time>2021-08-22T12:19:18.000Z</time>
      </trkpt>
      <trkpt lat="47.16774" lon="-1.62345">
        <ele>72</ele>
        <time>2021-08-22T12:19:20.000Z</time>
      </trkpt>
      <trkpt lat="47.16763" lon="-1.62353">
        <ele>72</ele>
        <time>2021-08-22T12:19:22.000Z</time>
      </trkpt>
      <trkpt lat="47.16752" lon="-1.62361">
        <ele>71</ele>
        <time>2021-08-22T12:19:24.000Z</time>
      </trkpt>
      <trkpt lat="47.16744" lon="-1.62373">
        <ele>71</ele>
        <time>2021-08-22T12:19:26.000Z</time>
      </trkpt>
      <trkpt lat="47.16735" lon="-1.62396">
        <ele>71</ele>
        <time>2021-08-22T12:19:29.000Z</time>
      </trkpt>
      <trkpt lat="47.16732" lon="-1.62412">
        <ele>71</ele>
        <time>2021-08-22T12:19:31.000Z</time>
      </trkpt>
      <trkpt lat="47.1673" lon="-1.62427">
        <ele>71</ele>
        <time>2021-08-22T12:19:33.000Z</time>
      </trkpt>
      <trkpt lat="47.16727" lon="-1.62443">
        <ele>71</ele>
        <time>2021-08-22T12:19:35.000Z</time>
      </trkpt>
      <trkpt lat="47.16721" lon="-1.62467">
        <ele>71</ele>
        <time>2021-08-22T12:19:38.000Z</time>
      </trkpt>
      <trkpt lat="47.16718" lon="-1.62483">
        <ele>71</ele>
        <time>2021-08-22T12:19:40.000Z</time>
      </trkpt>
      <trkpt lat="47.16722" lon="-1.62497">
        <ele>72</ele>
        <time>2021-08-22T12:19:42.000Z</time>
      </trkpt>
      <trkpt lat="47.16738" lon="-1.62503">
        <ele>71</ele>
        <time>2021-08-22T12:19:45.000Z</time>
      </trkpt>
      <trkpt lat="47.16748" lon="-1.62508">
        <ele>71</ele>
        <time>2021-08-22T12:19:47.000Z</time>
      </trkpt>
      <trkpt lat="47.16764" lon="-1.62516">
        <ele>70</ele>
        <time>2021-08-22T12:19:50.000Z</time>
      </trkpt>
      <trkpt lat="47.1678" lon="-1.62526">
        <ele>70</ele>
        <time>2021-08-22T12:19:53.000Z</time>
      </trkpt>
      <trkpt lat="47.16796" lon="-1.62537">
        <ele>70</ele>
        <time>2021-08-22T12:19:56.000Z</time>
      </trkpt>
      <trkpt lat="47.16806" lon="-1.62544">
        <ele>69</ele>
        <time>2021-08-22T12:19:58.000Z</time>
      </trkpt>
      <trkpt lat="47.16821" lon="-1.62558">
        <ele>68</ele>
        <time>2021-08-22T12:20:01.000Z</time>
      </trkpt>
      <trkpt lat="47.16829" lon="-1.62569">
        <ele>69</ele>
        <time>2021-08-22T12:20:03.000Z</time>
      </trkpt>
      <trkpt lat="47.16832" lon="-1.62589">
        <ele>69</ele>
        <time>2021-08-22T12:20:06.000Z</time>
      </trkpt>
      <trkpt lat="47.16823" lon="-1.62601">
        <ele>70</ele>
        <time>2021-08-22T12:20:08.000Z</time>
      </trkpt>
      <trkpt lat="47.16815" lon="-1.62613">
        <ele>70</ele>
        <time>2021-08-22T12:20:10.000Z</time>
      </trkpt>
      <trkpt lat="47.16808" lon="-1.62626">
        <ele>71</ele>
        <time>2021-08-22T12:20:12.000Z</time>
      </trkpt>
      <trkpt lat="47.16801" lon="-1.62637">
        <ele>71</ele>
        <time>2021-08-22T12:20:14.000Z</time>
      </trkpt>
      <trkpt lat="47.16795" lon="-1.62648">
        <ele>72</ele>
        <time>2021-08-22T12:20:16.000Z</time>
      </trkpt>
      <trkpt lat="47.16787" lon="-1.62661">
        <ele>72</ele>
        <time>2021-08-22T12:20:19.000Z</time>
      </trkpt>
      <trkpt lat="47.16779" lon="-1.62655">
        <ele>72</ele>
        <time>2021-08-22T12:20:23.000Z</time>
      </trkpt>
    </trkseg>
  </trk>
</gpx>